<?xml version="1.0" encoding="UTF-8" standalone="no" ?>
<gpx xmlns="http://www.topografix.com/GPX/1/1" xmlns:xsi="http://www.w3.org/2001/XMLSchema-instance" xsi:schemaLocation="http://www.topografix.com/GPX/1/1 http://www.topografix.com/GPX/1/1/gpx.xsd" version="1.1" creator="VisuGPX - https://www.visugpx.com">
  <metadata>
    <name>VTTAE  Espelette Mondarain</name>
  </metadata>
  <trk>
    <name><![CDATA[VTTAE  Espelette Mondarain]]></name>
    <trkseg>
      <trkpt lat="43.37867" lon="-1.47387">
        <ele>55.7</ele>
        <time>2022-08-30T08:22:00Z</time>
      </trkpt>
      <trkpt lat="43.37867" lon="-1.47387">
        <ele>55.7</ele>
        <time>2022-08-30T08:22:01Z</time>
      </trkpt>
      <trkpt lat="43.37867" lon="-1.47387">
        <ele>55.7</ele>
        <time>2022-08-30T08:22:02Z</time>
      </trkpt>
      <trkpt lat="43.37867" lon="-1.47387">
        <ele>55.7</ele>
        <time>2022-08-30T08:22:03Z</time>
      </trkpt>
      <trkpt lat="43.37867" lon="-1.47387">
        <ele>55.7</ele>
        <time>2022-08-30T08:22:04Z</time>
      </trkpt>
      <trkpt lat="43.37867" lon="-1.47387">
        <ele>55.7</ele>
        <time>2022-08-30T08:22:05Z</time>
      </trkpt>
      <trkpt lat="43.37867" lon="-1.47387">
        <ele>55.7</ele>
        <time>2022-08-30T08:22:06Z</time>
      </trkpt>
      <trkpt lat="43.37867" lon="-1.47387">
        <ele>55.7</ele>
        <time>2022-08-30T08:22:07Z</time>
      </trkpt>
      <trkpt lat="43.37867" lon="-1.47387">
        <ele>55.7</ele>
        <time>2022-08-30T08:22:08Z</time>
      </trkpt>
      <trkpt lat="43.37867" lon="-1.47387">
        <ele>55.7</ele>
        <time>2022-08-30T08:22:09Z</time>
      </trkpt>
      <trkpt lat="43.37867" lon="-1.47387">
        <ele>55.7</ele>
        <time>2022-08-30T08:22:10Z</time>
      </trkpt>
      <trkpt lat="43.37869" lon="-1.47385">
        <ele>55.5</ele>
        <time>2022-08-30T08:22:22Z</time>
      </trkpt>
      <trkpt lat="43.3787" lon="-1.47384">
        <ele>55.5</ele>
        <time>2022-08-30T08:22:23Z</time>
      </trkpt>
      <trkpt lat="43.3787" lon="-1.47384">
        <ele>55.5</ele>
        <time>2022-08-30T08:22:24Z</time>
      </trkpt>
      <trkpt lat="43.3787" lon="-1.47384">
        <ele>55.5</ele>
        <time>2022-08-30T08:22:25Z</time>
      </trkpt>
      <trkpt lat="43.3787" lon="-1.47384">
        <ele>55.5</ele>
        <time>2022-08-30T08:22:26Z</time>
      </trkpt>
      <trkpt lat="43.3787" lon="-1.47384">
        <ele>55.5</ele>
        <time>2022-08-30T08:22:27Z</time>
      </trkpt>
      <trkpt lat="43.37871" lon="-1.47384">
        <ele>55.4</ele>
        <time>2022-08-30T08:22:28Z</time>
      </trkpt>
      <trkpt lat="43.37871" lon="-1.47384">
        <ele>55.4</ele>
        <time>2022-08-30T08:22:29Z</time>
      </trkpt>
      <trkpt lat="43.37872" lon="-1.47383">
        <ele>55.4</ele>
        <time>2022-08-30T08:22:30Z</time>
      </trkpt>
      <trkpt lat="43.37873" lon="-1.47381">
        <ele>55.3</ele>
        <time>2022-08-30T08:22:31Z</time>
      </trkpt>
      <trkpt lat="43.37873" lon="-1.4738">
        <ele>55.2</ele>
        <time>2022-08-30T08:22:32Z</time>
      </trkpt>
      <trkpt lat="43.37873" lon="-1.47378">
        <ele>55.2</ele>
        <time>2022-08-30T08:22:33Z</time>
      </trkpt>
      <trkpt lat="43.37873" lon="-1.47377">
        <ele>55.1</ele>
        <time>2022-08-30T08:22:34Z</time>
      </trkpt>
      <trkpt lat="43.37873" lon="-1.47376">
        <ele>55.1</ele>
        <time>2022-08-30T08:22:35Z</time>
      </trkpt>
      <trkpt lat="43.37873" lon="-1.47374">
        <ele>55</ele>
        <time>2022-08-30T08:22:36Z</time>
      </trkpt>
      <trkpt lat="43.37873" lon="-1.47373">
        <ele>55</ele>
        <time>2022-08-30T08:22:37Z</time>
      </trkpt>
      <trkpt lat="43.37873" lon="-1.47372">
        <ele>54.9</ele>
        <time>2022-08-30T08:22:38Z</time>
      </trkpt>
      <trkpt lat="43.37873" lon="-1.4737">
        <ele>54.9</ele>
        <time>2022-08-30T08:22:39Z</time>
      </trkpt>
      <trkpt lat="43.37873" lon="-1.47369">
        <ele>54.8</ele>
        <time>2022-08-30T08:22:40Z</time>
      </trkpt>
      <trkpt lat="43.37874" lon="-1.47368">
        <ele>54.7</ele>
        <time>2022-08-30T08:22:41Z</time>
      </trkpt>
      <trkpt lat="43.37874" lon="-1.47366">
        <ele>54.7</ele>
        <time>2022-08-30T08:22:55Z</time>
      </trkpt>
      <trkpt lat="43.37874" lon="-1.47365">
        <ele>54.6</ele>
        <time>2022-08-30T08:22:56Z</time>
      </trkpt>
      <trkpt lat="43.37874" lon="-1.47363">
        <ele>54.6</ele>
        <time>2022-08-30T08:22:57Z</time>
      </trkpt>
      <trkpt lat="43.37873" lon="-1.4736">
        <ele>54.4</ele>
        <time>2022-08-30T08:22:58Z</time>
      </trkpt>
      <trkpt lat="43.37872" lon="-1.47359">
        <ele>54.4</ele>
        <time>2022-08-30T08:22:59Z</time>
      </trkpt>
      <trkpt lat="43.37871" lon="-1.47357">
        <ele>54.3</ele>
        <time>2022-08-30T08:23:00Z</time>
      </trkpt>
      <trkpt lat="43.3787" lon="-1.47355">
        <ele>54.2</ele>
        <time>2022-08-30T08:23:01Z</time>
      </trkpt>
      <trkpt lat="43.37869" lon="-1.47354">
        <ele>54.2</ele>
        <time>2022-08-30T08:23:02Z</time>
      </trkpt>
      <trkpt lat="43.37869" lon="-1.47353">
        <ele>54.1</ele>
        <time>2022-08-30T08:23:03Z</time>
      </trkpt>
      <trkpt lat="43.37869" lon="-1.47353">
        <ele>54.1</ele>
        <time>2022-08-30T08:23:04Z</time>
      </trkpt>
      <trkpt lat="43.37869" lon="-1.47353">
        <ele>54.1</ele>
        <time>2022-08-30T08:23:05Z</time>
      </trkpt>
      <trkpt lat="43.37869" lon="-1.47353">
        <ele>54.1</ele>
        <time>2022-08-30T08:23:06Z</time>
      </trkpt>
      <trkpt lat="43.37868" lon="-1.47353">
        <ele>54.1</ele>
        <time>2022-08-30T08:23:07Z</time>
      </trkpt>
      <trkpt lat="43.37868" lon="-1.47353">
        <ele>54.1</ele>
        <time>2022-08-30T08:23:08Z</time>
      </trkpt>
      <trkpt lat="43.37868" lon="-1.47353">
        <ele>54.1</ele>
        <time>2022-08-30T08:23:09Z</time>
      </trkpt>
      <trkpt lat="43.37868" lon="-1.47353">
        <ele>54.1</ele>
        <time>2022-08-30T08:23:10Z</time>
      </trkpt>
      <trkpt lat="43.37868" lon="-1.47352">
        <ele>54.1</ele>
        <time>2022-08-30T08:23:11Z</time>
      </trkpt>
      <trkpt lat="43.37867" lon="-1.47352">
        <ele>54</ele>
        <time>2022-08-30T08:23:12Z</time>
      </trkpt>
      <trkpt lat="43.37867" lon="-1.47352">
        <ele>54</ele>
        <time>2022-08-30T08:23:13Z</time>
      </trkpt>
      <trkpt lat="43.37867" lon="-1.47352">
        <ele>54</ele>
        <time>2022-08-30T08:23:14Z</time>
      </trkpt>
      <trkpt lat="43.37867" lon="-1.47352">
        <ele>54</ele>
        <time>2022-08-30T08:23:23Z</time>
      </trkpt>
      <trkpt lat="43.37867" lon="-1.47352">
        <ele>54</ele>
        <time>2022-08-30T08:23:24Z</time>
      </trkpt>
      <trkpt lat="43.37866" lon="-1.47352">
        <ele>54</ele>
        <time>2022-08-30T08:23:25Z</time>
      </trkpt>
      <trkpt lat="43.37866" lon="-1.47352">
        <ele>54</ele>
        <time>2022-08-30T08:23:26Z</time>
      </trkpt>
      <trkpt lat="43.37866" lon="-1.47351">
        <ele>54</ele>
        <time>2022-08-30T08:23:27Z</time>
      </trkpt>
      <trkpt lat="43.37866" lon="-1.47351">
        <ele>54</ele>
        <time>2022-08-30T08:23:28Z</time>
      </trkpt>
      <trkpt lat="43.37866" lon="-1.47351">
        <ele>53.9</ele>
        <time>2022-08-30T08:23:29Z</time>
      </trkpt>
      <trkpt lat="43.37865" lon="-1.47351">
        <ele>53.9</ele>
        <time>2022-08-30T08:23:30Z</time>
      </trkpt>
      <trkpt lat="43.37865" lon="-1.47351">
        <ele>53.9</ele>
        <time>2022-08-30T08:23:31Z</time>
      </trkpt>
      <trkpt lat="43.37865" lon="-1.47351">
        <ele>53.9</ele>
        <time>2022-08-30T08:23:32Z</time>
      </trkpt>
      <trkpt lat="43.37865" lon="-1.47351">
        <ele>53.9</ele>
        <time>2022-08-30T08:23:33Z</time>
      </trkpt>
      <trkpt lat="43.37865" lon="-1.47351">
        <ele>53.9</ele>
        <time>2022-08-30T08:23:34Z</time>
      </trkpt>
      <trkpt lat="43.37864" lon="-1.4735">
        <ele>53.9</ele>
        <time>2022-08-30T08:23:53Z</time>
      </trkpt>
      <trkpt lat="43.37864" lon="-1.4735">
        <ele>53.9</ele>
        <time>2022-08-30T08:23:54Z</time>
      </trkpt>
      <trkpt lat="43.37864" lon="-1.4735">
        <ele>53.9</ele>
        <time>2022-08-30T08:23:55Z</time>
      </trkpt>
      <trkpt lat="43.37864" lon="-1.4735">
        <ele>53.8</ele>
        <time>2022-08-30T08:23:56Z</time>
      </trkpt>
      <trkpt lat="43.37864" lon="-1.4735">
        <ele>53.8</ele>
        <time>2022-08-30T08:23:57Z</time>
      </trkpt>
      <trkpt lat="43.37863" lon="-1.4735">
        <ele>53.8</ele>
        <time>2022-08-30T08:23:58Z</time>
      </trkpt>
      <trkpt lat="43.37863" lon="-1.4735">
        <ele>53.8</ele>
        <time>2022-08-30T08:23:59Z</time>
      </trkpt>
      <trkpt lat="43.37863" lon="-1.4735">
        <ele>53.8</ele>
        <time>2022-08-30T08:24:00Z</time>
      </trkpt>
      <trkpt lat="43.37863" lon="-1.47349">
        <ele>53.8</ele>
        <time>2022-08-30T08:24:01Z</time>
      </trkpt>
      <trkpt lat="43.37863" lon="-1.47349">
        <ele>53.8</ele>
        <time>2022-08-30T08:24:02Z</time>
      </trkpt>
      <trkpt lat="43.37862" lon="-1.47349">
        <ele>53.8</ele>
        <time>2022-08-30T08:24:03Z</time>
      </trkpt>
      <trkpt lat="43.37862" lon="-1.47349">
        <ele>53.8</ele>
        <time>2022-08-30T08:24:04Z</time>
      </trkpt>
      <trkpt lat="43.37862" lon="-1.47349">
        <ele>53.7</ele>
        <time>2022-08-30T08:24:05Z</time>
      </trkpt>
      <trkpt lat="43.37862" lon="-1.47349">
        <ele>53.7</ele>
        <time>2022-08-30T08:24:06Z</time>
      </trkpt>
      <trkpt lat="43.37862" lon="-1.47349">
        <ele>53.7</ele>
        <time>2022-08-30T08:24:07Z</time>
      </trkpt>
      <trkpt lat="43.37861" lon="-1.47349">
        <ele>53.7</ele>
        <time>2022-08-30T08:24:08Z</time>
      </trkpt>
      <trkpt lat="43.37861" lon="-1.47348">
        <ele>53.7</ele>
        <time>2022-08-30T08:24:09Z</time>
      </trkpt>
      <trkpt lat="43.37861" lon="-1.47348">
        <ele>53.7</ele>
        <time>2022-08-30T08:24:10Z</time>
      </trkpt>
      <trkpt lat="43.37861" lon="-1.47348">
        <ele>53.7</ele>
        <time>2022-08-30T08:24:11Z</time>
      </trkpt>
      <trkpt lat="43.37859" lon="-1.47348">
        <ele>53.6</ele>
        <time>2022-08-30T08:24:12Z</time>
      </trkpt>
      <trkpt lat="43.37858" lon="-1.47348">
        <ele>53.5</ele>
        <time>2022-08-30T08:24:13Z</time>
      </trkpt>
      <trkpt lat="43.37854" lon="-1.47348">
        <ele>53.4</ele>
        <time>2022-08-30T08:24:14Z</time>
      </trkpt>
      <trkpt lat="43.37853" lon="-1.47348">
        <ele>53.3</ele>
        <time>2022-08-30T08:24:15Z</time>
      </trkpt>
      <trkpt lat="43.37851" lon="-1.47348">
        <ele>53.3</ele>
        <time>2022-08-30T08:24:16Z</time>
      </trkpt>
      <trkpt lat="43.3785" lon="-1.47349">
        <ele>53.2</ele>
        <time>2022-08-30T08:24:17Z</time>
      </trkpt>
      <trkpt lat="43.37848" lon="-1.47349">
        <ele>53.2</ele>
        <time>2022-08-30T08:24:18Z</time>
      </trkpt>
      <trkpt lat="43.37848" lon="-1.47349">
        <ele>53.1</ele>
        <time>2022-08-30T08:24:19Z</time>
      </trkpt>
      <trkpt lat="43.37847" lon="-1.47351">
        <ele>53.1</ele>
        <time>2022-08-30T08:24:20Z</time>
      </trkpt>
      <trkpt lat="43.37846" lon="-1.47355">
        <ele>53</ele>
        <time>2022-08-30T08:24:21Z</time>
      </trkpt>
      <trkpt lat="43.37845" lon="-1.47356">
        <ele>52.9</ele>
        <time>2022-08-30T08:24:22Z</time>
      </trkpt>
      <trkpt lat="43.37844" lon="-1.47362">
        <ele>52.8</ele>
        <time>2022-08-30T08:24:23Z</time>
      </trkpt>
      <trkpt lat="43.37843" lon="-1.47364">
        <ele>52.8</ele>
        <time>2022-08-30T08:24:24Z</time>
      </trkpt>
      <trkpt lat="43.37842" lon="-1.47367">
        <ele>52.7</ele>
        <time>2022-08-30T08:24:25Z</time>
      </trkpt>
      <trkpt lat="43.37842" lon="-1.47371">
        <ele>52.6</ele>
        <time>2022-08-30T08:24:26Z</time>
      </trkpt>
      <trkpt lat="43.37841" lon="-1.47375">
        <ele>52.5</ele>
        <time>2022-08-30T08:24:27Z</time>
      </trkpt>
      <trkpt lat="43.37841" lon="-1.47379">
        <ele>52.5</ele>
        <time>2022-08-30T08:24:28Z</time>
      </trkpt>
      <trkpt lat="43.3784" lon="-1.47382">
        <ele>52.4</ele>
        <time>2022-08-30T08:24:29Z</time>
      </trkpt>
      <trkpt lat="43.37839" lon="-1.47385">
        <ele>52.4</ele>
        <time>2022-08-30T08:24:30Z</time>
      </trkpt>
      <trkpt lat="43.37838" lon="-1.47386">
        <ele>52.4</ele>
        <time>2022-08-30T08:24:31Z</time>
      </trkpt>
      <trkpt lat="43.37838" lon="-1.47388">
        <ele>52.3</ele>
        <time>2022-08-30T08:24:32Z</time>
      </trkpt>
      <trkpt lat="43.37838" lon="-1.47389">
        <ele>52.3</ele>
        <time>2022-08-30T08:24:33Z</time>
      </trkpt>
      <trkpt lat="43.37838" lon="-1.4739">
        <ele>52.3</ele>
        <time>2022-08-30T08:24:34Z</time>
      </trkpt>
      <trkpt lat="43.37838" lon="-1.47391">
        <ele>52.3</ele>
        <time>2022-08-30T08:24:35Z</time>
      </trkpt>
      <trkpt lat="43.37838" lon="-1.47392">
        <ele>52.3</ele>
        <time>2022-08-30T08:24:36Z</time>
      </trkpt>
      <trkpt lat="43.37837" lon="-1.47393">
        <ele>52.3</ele>
        <time>2022-08-30T08:24:37Z</time>
      </trkpt>
      <trkpt lat="43.37837" lon="-1.47394">
        <ele>52.3</ele>
        <time>2022-08-30T08:24:38Z</time>
      </trkpt>
      <trkpt lat="43.37837" lon="-1.47396">
        <ele>52.3</ele>
        <time>2022-08-30T08:24:39Z</time>
      </trkpt>
      <trkpt lat="43.37836" lon="-1.47397">
        <ele>52.3</ele>
        <time>2022-08-30T08:24:40Z</time>
      </trkpt>
      <trkpt lat="43.37836" lon="-1.47398">
        <ele>52.2</ele>
        <time>2022-08-30T08:24:41Z</time>
      </trkpt>
      <trkpt lat="43.37836" lon="-1.47399">
        <ele>52.2</ele>
        <time>2022-08-30T08:24:42Z</time>
      </trkpt>
      <trkpt lat="43.37836" lon="-1.47399">
        <ele>52.2</ele>
        <time>2022-08-30T08:24:43Z</time>
      </trkpt>
      <trkpt lat="43.37835" lon="-1.474">
        <ele>52.2</ele>
        <time>2022-08-30T08:24:44Z</time>
      </trkpt>
      <trkpt lat="43.37835" lon="-1.47401">
        <ele>52.2</ele>
        <time>2022-08-30T08:24:45Z</time>
      </trkpt>
      <trkpt lat="43.37835" lon="-1.47405">
        <ele>52.2</ele>
        <time>2022-08-30T08:24:46Z</time>
      </trkpt>
      <trkpt lat="43.37835" lon="-1.47406">
        <ele>52.2</ele>
        <time>2022-08-30T08:24:47Z</time>
      </trkpt>
      <trkpt lat="43.37834" lon="-1.47408">
        <ele>52.2</ele>
        <time>2022-08-30T08:24:48Z</time>
      </trkpt>
      <trkpt lat="43.37834" lon="-1.47411">
        <ele>52.2</ele>
        <time>2022-08-30T08:24:49Z</time>
      </trkpt>
      <trkpt lat="43.37833" lon="-1.47415">
        <ele>52.2</ele>
        <time>2022-08-30T08:24:50Z</time>
      </trkpt>
      <trkpt lat="43.37833" lon="-1.47417">
        <ele>52.2</ele>
        <time>2022-08-30T08:24:51Z</time>
      </trkpt>
      <trkpt lat="43.37831" lon="-1.47422">
        <ele>52.2</ele>
        <time>2022-08-30T08:24:53Z</time>
      </trkpt>
      <trkpt lat="43.37829" lon="-1.47426">
        <ele>52.3</ele>
        <time>2022-08-30T08:24:54Z</time>
      </trkpt>
      <trkpt lat="43.37828" lon="-1.47428">
        <ele>52.3</ele>
        <time>2022-08-30T08:24:55Z</time>
      </trkpt>
      <trkpt lat="43.37825" lon="-1.47432">
        <ele>52.3</ele>
        <time>2022-08-30T08:24:56Z</time>
      </trkpt>
      <trkpt lat="43.37824" lon="-1.47433">
        <ele>52.3</ele>
        <time>2022-08-30T08:24:57Z</time>
      </trkpt>
      <trkpt lat="43.37823" lon="-1.47436">
        <ele>52.3</ele>
        <time>2022-08-30T08:24:58Z</time>
      </trkpt>
      <trkpt lat="43.37821" lon="-1.47441">
        <ele>52.2</ele>
        <time>2022-08-30T08:24:59Z</time>
      </trkpt>
      <trkpt lat="43.3782" lon="-1.47442">
        <ele>52.2</ele>
        <time>2022-08-30T08:25:00Z</time>
      </trkpt>
      <trkpt lat="43.37819" lon="-1.47447">
        <ele>52.2</ele>
        <time>2022-08-30T08:25:01Z</time>
      </trkpt>
      <trkpt lat="43.37818" lon="-1.47448">
        <ele>52.2</ele>
        <time>2022-08-30T08:25:02Z</time>
      </trkpt>
      <trkpt lat="43.37817" lon="-1.47452">
        <ele>52.1</ele>
        <time>2022-08-30T08:25:03Z</time>
      </trkpt>
      <trkpt lat="43.37815" lon="-1.47455">
        <ele>52</ele>
        <time>2022-08-30T08:25:04Z</time>
      </trkpt>
      <trkpt lat="43.37813" lon="-1.47458">
        <ele>52</ele>
        <time>2022-08-30T08:25:05Z</time>
      </trkpt>
      <trkpt lat="43.37812" lon="-1.47462">
        <ele>51.9</ele>
        <time>2022-08-30T08:25:06Z</time>
      </trkpt>
      <trkpt lat="43.3781" lon="-1.47466">
        <ele>51.8</ele>
        <time>2022-08-30T08:25:07Z</time>
      </trkpt>
      <trkpt lat="43.37808" lon="-1.47469">
        <ele>51.7</ele>
        <time>2022-08-30T08:25:08Z</time>
      </trkpt>
      <trkpt lat="43.37807" lon="-1.47473">
        <ele>51.5</ele>
        <time>2022-08-30T08:25:09Z</time>
      </trkpt>
      <trkpt lat="43.37805" lon="-1.47476">
        <ele>51.4</ele>
        <time>2022-08-30T08:25:10Z</time>
      </trkpt>
      <trkpt lat="43.37803" lon="-1.47479">
        <ele>51.3</ele>
        <time>2022-08-30T08:25:11Z</time>
      </trkpt>
      <trkpt lat="43.37799" lon="-1.47481">
        <ele>51.2</ele>
        <time>2022-08-30T08:25:12Z</time>
      </trkpt>
      <trkpt lat="43.37798" lon="-1.47482">
        <ele>51.1</ele>
        <time>2022-08-30T08:25:13Z</time>
      </trkpt>
      <trkpt lat="43.37795" lon="-1.47484">
        <ele>50.9</ele>
        <time>2022-08-30T08:25:14Z</time>
      </trkpt>
      <trkpt lat="43.37794" lon="-1.47485">
        <ele>50.9</ele>
        <time>2022-08-30T08:25:15Z</time>
      </trkpt>
      <trkpt lat="43.37791" lon="-1.47486">
        <ele>50.7</ele>
        <time>2022-08-30T08:25:16Z</time>
      </trkpt>
      <trkpt lat="43.3779" lon="-1.47486">
        <ele>50.7</ele>
        <time>2022-08-30T08:25:17Z</time>
      </trkpt>
      <trkpt lat="43.37787" lon="-1.47487">
        <ele>50.5</ele>
        <time>2022-08-30T08:25:18Z</time>
      </trkpt>
      <trkpt lat="43.37786" lon="-1.47487">
        <ele>50.4</ele>
        <time>2022-08-30T08:25:19Z</time>
      </trkpt>
      <trkpt lat="43.37783" lon="-1.47488">
        <ele>50.2</ele>
        <time>2022-08-30T08:25:20Z</time>
      </trkpt>
      <trkpt lat="43.37782" lon="-1.47488">
        <ele>50.1</ele>
        <time>2022-08-30T08:25:21Z</time>
      </trkpt>
      <trkpt lat="43.37779" lon="-1.47489">
        <ele>49.9</ele>
        <time>2022-08-30T08:25:22Z</time>
      </trkpt>
      <trkpt lat="43.37775" lon="-1.4749">
        <ele>49.6</ele>
        <time>2022-08-30T08:25:23Z</time>
      </trkpt>
      <trkpt lat="43.37773" lon="-1.4749">
        <ele>49.4</ele>
        <time>2022-08-30T08:25:24Z</time>
      </trkpt>
      <trkpt lat="43.37769" lon="-1.47491">
        <ele>49.1</ele>
        <time>2022-08-30T08:25:25Z</time>
      </trkpt>
      <trkpt lat="43.37764" lon="-1.47492">
        <ele>48.8</ele>
        <time>2022-08-30T08:25:26Z</time>
      </trkpt>
      <trkpt lat="43.3776" lon="-1.47494">
        <ele>48.5</ele>
        <time>2022-08-30T08:25:27Z</time>
      </trkpt>
      <trkpt lat="43.37756" lon="-1.47496">
        <ele>48.3</ele>
        <time>2022-08-30T08:25:28Z</time>
      </trkpt>
      <trkpt lat="43.37751" lon="-1.47497">
        <ele>48.1</ele>
        <time>2022-08-30T08:25:29Z</time>
      </trkpt>
      <trkpt lat="43.37747" lon="-1.47499">
        <ele>47.9</ele>
        <time>2022-08-30T08:25:30Z</time>
      </trkpt>
      <trkpt lat="43.37743" lon="-1.47501">
        <ele>47.8</ele>
        <time>2022-08-30T08:25:31Z</time>
      </trkpt>
      <trkpt lat="43.3774" lon="-1.47504">
        <ele>47.7</ele>
        <time>2022-08-30T08:25:32Z</time>
      </trkpt>
      <trkpt lat="43.37736" lon="-1.47506">
        <ele>47.6</ele>
        <time>2022-08-30T08:25:33Z</time>
      </trkpt>
      <trkpt lat="43.37733" lon="-1.47507">
        <ele>47.5</ele>
        <time>2022-08-30T08:25:34Z</time>
      </trkpt>
      <trkpt lat="43.37729" lon="-1.47509">
        <ele>47.4</ele>
        <time>2022-08-30T08:25:35Z</time>
      </trkpt>
      <trkpt lat="43.37725" lon="-1.47512">
        <ele>47.2</ele>
        <time>2022-08-30T08:25:36Z</time>
      </trkpt>
      <trkpt lat="43.3772" lon="-1.47516">
        <ele>47.1</ele>
        <time>2022-08-30T08:25:37Z</time>
      </trkpt>
      <trkpt lat="43.37715" lon="-1.47519">
        <ele>47</ele>
        <time>2022-08-30T08:25:38Z</time>
      </trkpt>
      <trkpt lat="43.3771" lon="-1.47522">
        <ele>46.8</ele>
        <time>2022-08-30T08:25:39Z</time>
      </trkpt>
      <trkpt lat="43.37705" lon="-1.47525">
        <ele>46.6</ele>
        <time>2022-08-30T08:25:40Z</time>
      </trkpt>
      <trkpt lat="43.37701" lon="-1.47528">
        <ele>46.4</ele>
        <time>2022-08-30T08:25:41Z</time>
      </trkpt>
      <trkpt lat="43.37697" lon="-1.47532">
        <ele>46.2</ele>
        <time>2022-08-30T08:25:42Z</time>
      </trkpt>
      <trkpt lat="43.37692" lon="-1.47536">
        <ele>46</ele>
        <time>2022-08-30T08:25:43Z</time>
      </trkpt>
      <trkpt lat="43.37688" lon="-1.47539">
        <ele>45.8</ele>
        <time>2022-08-30T08:25:44Z</time>
      </trkpt>
      <trkpt lat="43.37685" lon="-1.47541">
        <ele>45.5</ele>
        <time>2022-08-30T08:25:45Z</time>
      </trkpt>
      <trkpt lat="43.37681" lon="-1.47545">
        <ele>45.3</ele>
        <time>2022-08-30T08:25:46Z</time>
      </trkpt>
      <trkpt lat="43.37676" lon="-1.47548">
        <ele>45</ele>
        <time>2022-08-30T08:25:47Z</time>
      </trkpt>
      <trkpt lat="43.37672" lon="-1.47552">
        <ele>44.7</ele>
        <time>2022-08-30T08:25:48Z</time>
      </trkpt>
      <trkpt lat="43.37668" lon="-1.47555">
        <ele>44.3</ele>
        <time>2022-08-30T08:25:49Z</time>
      </trkpt>
      <trkpt lat="43.37663" lon="-1.47559">
        <ele>43.9</ele>
        <time>2022-08-30T08:25:50Z</time>
      </trkpt>
      <trkpt lat="43.37658" lon="-1.47563">
        <ele>43.5</ele>
        <time>2022-08-30T08:25:51Z</time>
      </trkpt>
      <trkpt lat="43.37654" lon="-1.47568">
        <ele>43</ele>
        <time>2022-08-30T08:25:52Z</time>
      </trkpt>
      <trkpt lat="43.3765" lon="-1.47572">
        <ele>42.6</ele>
        <time>2022-08-30T08:25:53Z</time>
      </trkpt>
      <trkpt lat="43.37648" lon="-1.47577">
        <ele>42.2</ele>
        <time>2022-08-30T08:25:54Z</time>
      </trkpt>
      <trkpt lat="43.37646" lon="-1.47583">
        <ele>41.8</ele>
        <time>2022-08-30T08:25:55Z</time>
      </trkpt>
      <trkpt lat="43.37646" lon="-1.47589">
        <ele>41.3</ele>
        <time>2022-08-30T08:25:56Z</time>
      </trkpt>
      <trkpt lat="43.37646" lon="-1.47597">
        <ele>40.9</ele>
        <time>2022-08-30T08:25:57Z</time>
      </trkpt>
      <trkpt lat="43.37646" lon="-1.47605">
        <ele>40.5</ele>
        <time>2022-08-30T08:25:58Z</time>
      </trkpt>
      <trkpt lat="43.37646" lon="-1.47612">
        <ele>40.1</ele>
        <time>2022-08-30T08:25:59Z</time>
      </trkpt>
      <trkpt lat="43.37645" lon="-1.4762">
        <ele>39.9</ele>
        <time>2022-08-30T08:26:00Z</time>
      </trkpt>
      <trkpt lat="43.37645" lon="-1.47626">
        <ele>39.7</ele>
        <time>2022-08-30T08:26:01Z</time>
      </trkpt>
      <trkpt lat="43.37646" lon="-1.47632">
        <ele>39.6</ele>
        <time>2022-08-30T08:26:02Z</time>
      </trkpt>
      <trkpt lat="43.37646" lon="-1.47638">
        <ele>39.6</ele>
        <time>2022-08-30T08:26:03Z</time>
      </trkpt>
      <trkpt lat="43.37646" lon="-1.47644">
        <ele>39.6</ele>
        <time>2022-08-30T08:26:04Z</time>
      </trkpt>
      <trkpt lat="43.37645" lon="-1.47649">
        <ele>39.7</ele>
        <time>2022-08-30T08:26:05Z</time>
      </trkpt>
      <trkpt lat="43.37644" lon="-1.47655">
        <ele>39.7</ele>
        <time>2022-08-30T08:26:06Z</time>
      </trkpt>
      <trkpt lat="43.37642" lon="-1.4766">
        <ele>39.8</ele>
        <time>2022-08-30T08:26:07Z</time>
      </trkpt>
      <trkpt lat="43.3764" lon="-1.47664">
        <ele>39.9</ele>
        <time>2022-08-30T08:26:08Z</time>
      </trkpt>
      <trkpt lat="43.37637" lon="-1.47667">
        <ele>40</ele>
        <time>2022-08-30T08:26:09Z</time>
      </trkpt>
      <trkpt lat="43.37634" lon="-1.47669">
        <ele>40.1</ele>
        <time>2022-08-30T08:26:10Z</time>
      </trkpt>
      <trkpt lat="43.3763" lon="-1.4767">
        <ele>40.2</ele>
        <time>2022-08-30T08:26:11Z</time>
      </trkpt>
      <trkpt lat="43.37627" lon="-1.47671">
        <ele>40.2</ele>
        <time>2022-08-30T08:26:12Z</time>
      </trkpt>
      <trkpt lat="43.37624" lon="-1.47672">
        <ele>40.3</ele>
        <time>2022-08-30T08:26:13Z</time>
      </trkpt>
      <trkpt lat="43.37622" lon="-1.47672">
        <ele>40.3</ele>
        <time>2022-08-30T08:26:14Z</time>
      </trkpt>
      <trkpt lat="43.37619" lon="-1.47673">
        <ele>40.4</ele>
        <time>2022-08-30T08:26:15Z</time>
      </trkpt>
      <trkpt lat="43.37616" lon="-1.47675">
        <ele>40.4</ele>
        <time>2022-08-30T08:26:16Z</time>
      </trkpt>
      <trkpt lat="43.37612" lon="-1.47676">
        <ele>40.4</ele>
        <time>2022-08-30T08:26:17Z</time>
      </trkpt>
      <trkpt lat="43.37609" lon="-1.47678">
        <ele>40.4</ele>
        <time>2022-08-30T08:26:18Z</time>
      </trkpt>
      <trkpt lat="43.37606" lon="-1.4768">
        <ele>40.4</ele>
        <time>2022-08-30T08:26:19Z</time>
      </trkpt>
      <trkpt lat="43.37603" lon="-1.47682">
        <ele>40.3</ele>
        <time>2022-08-30T08:26:20Z</time>
      </trkpt>
      <trkpt lat="43.376" lon="-1.47683">
        <ele>40.3</ele>
        <time>2022-08-30T08:26:21Z</time>
      </trkpt>
      <trkpt lat="43.37597" lon="-1.47685">
        <ele>40.2</ele>
        <time>2022-08-30T08:26:22Z</time>
      </trkpt>
      <trkpt lat="43.37595" lon="-1.47687">
        <ele>40.1</ele>
        <time>2022-08-30T08:26:23Z</time>
      </trkpt>
      <trkpt lat="43.37592" lon="-1.47689">
        <ele>40</ele>
        <time>2022-08-30T08:26:24Z</time>
      </trkpt>
      <trkpt lat="43.37589" lon="-1.47691">
        <ele>40</ele>
        <time>2022-08-30T08:26:25Z</time>
      </trkpt>
      <trkpt lat="43.37586" lon="-1.47693">
        <ele>39.9</ele>
        <time>2022-08-30T08:26:26Z</time>
      </trkpt>
      <trkpt lat="43.37583" lon="-1.47694">
        <ele>39.8</ele>
        <time>2022-08-30T08:26:27Z</time>
      </trkpt>
      <trkpt lat="43.37579" lon="-1.47695">
        <ele>39.7</ele>
        <time>2022-08-30T08:26:28Z</time>
      </trkpt>
      <trkpt lat="43.37574" lon="-1.47696">
        <ele>39.7</ele>
        <time>2022-08-30T08:26:29Z</time>
      </trkpt>
      <trkpt lat="43.37571" lon="-1.47698">
        <ele>39.7</ele>
        <time>2022-08-30T08:26:30Z</time>
      </trkpt>
      <trkpt lat="43.37567" lon="-1.47701">
        <ele>39.7</ele>
        <time>2022-08-30T08:26:31Z</time>
      </trkpt>
      <trkpt lat="43.37563" lon="-1.47704">
        <ele>39.7</ele>
        <time>2022-08-30T08:26:32Z</time>
      </trkpt>
      <trkpt lat="43.37559" lon="-1.47707">
        <ele>39.8</ele>
        <time>2022-08-30T08:26:33Z</time>
      </trkpt>
      <trkpt lat="43.37556" lon="-1.4771">
        <ele>39.8</ele>
        <time>2022-08-30T08:26:34Z</time>
      </trkpt>
      <trkpt lat="43.37552" lon="-1.47714">
        <ele>39.9</ele>
        <time>2022-08-30T08:26:35Z</time>
      </trkpt>
      <trkpt lat="43.37548" lon="-1.47718">
        <ele>40</ele>
        <time>2022-08-30T08:26:36Z</time>
      </trkpt>
      <trkpt lat="43.37546" lon="-1.4772">
        <ele>40.1</ele>
        <time>2022-08-30T08:26:37Z</time>
      </trkpt>
      <trkpt lat="43.37543" lon="-1.47723">
        <ele>40.1</ele>
        <time>2022-08-30T08:26:38Z</time>
      </trkpt>
      <trkpt lat="43.37539" lon="-1.47724">
        <ele>40.2</ele>
        <time>2022-08-30T08:26:39Z</time>
      </trkpt>
      <trkpt lat="43.37536" lon="-1.47726">
        <ele>40.3</ele>
        <time>2022-08-30T08:26:40Z</time>
      </trkpt>
      <trkpt lat="43.37533" lon="-1.47729">
        <ele>40.4</ele>
        <time>2022-08-30T08:26:41Z</time>
      </trkpt>
      <trkpt lat="43.37529" lon="-1.47732">
        <ele>40.6</ele>
        <time>2022-08-30T08:26:42Z</time>
      </trkpt>
      <trkpt lat="43.37526" lon="-1.47735">
        <ele>40.7</ele>
        <time>2022-08-30T08:26:43Z</time>
      </trkpt>
      <trkpt lat="43.37523" lon="-1.47738">
        <ele>40.9</ele>
        <time>2022-08-30T08:26:44Z</time>
      </trkpt>
      <trkpt lat="43.3752" lon="-1.47741">
        <ele>41.1</ele>
        <time>2022-08-30T08:26:45Z</time>
      </trkpt>
      <trkpt lat="43.37517" lon="-1.47744">
        <ele>41.3</ele>
        <time>2022-08-30T08:26:46Z</time>
      </trkpt>
      <trkpt lat="43.37515" lon="-1.47747">
        <ele>41.6</ele>
        <time>2022-08-30T08:26:47Z</time>
      </trkpt>
      <trkpt lat="43.37513" lon="-1.47749">
        <ele>41.8</ele>
        <time>2022-08-30T08:26:48Z</time>
      </trkpt>
      <trkpt lat="43.3751" lon="-1.47753">
        <ele>42</ele>
        <time>2022-08-30T08:26:49Z</time>
      </trkpt>
      <trkpt lat="43.37508" lon="-1.47756">
        <ele>42.3</ele>
        <time>2022-08-30T08:26:50Z</time>
      </trkpt>
      <trkpt lat="43.37505" lon="-1.47759">
        <ele>42.5</ele>
        <time>2022-08-30T08:26:51Z</time>
      </trkpt>
      <trkpt lat="43.37503" lon="-1.47761">
        <ele>42.7</ele>
        <time>2022-08-30T08:26:52Z</time>
      </trkpt>
      <trkpt lat="43.37501" lon="-1.47764">
        <ele>42.9</ele>
        <time>2022-08-30T08:26:53Z</time>
      </trkpt>
      <trkpt lat="43.37498" lon="-1.47766">
        <ele>43.1</ele>
        <time>2022-08-30T08:26:54Z</time>
      </trkpt>
      <trkpt lat="43.37496" lon="-1.47769">
        <ele>43.3</ele>
        <time>2022-08-30T08:26:55Z</time>
      </trkpt>
      <trkpt lat="43.37494" lon="-1.47772">
        <ele>43.5</ele>
        <time>2022-08-30T08:26:56Z</time>
      </trkpt>
      <trkpt lat="43.37492" lon="-1.47776">
        <ele>43.6</ele>
        <time>2022-08-30T08:26:57Z</time>
      </trkpt>
      <trkpt lat="43.3749" lon="-1.47779">
        <ele>43.8</ele>
        <time>2022-08-30T08:26:58Z</time>
      </trkpt>
      <trkpt lat="43.37489" lon="-1.47783">
        <ele>43.9</ele>
        <time>2022-08-30T08:26:59Z</time>
      </trkpt>
      <trkpt lat="43.37487" lon="-1.47786">
        <ele>44</ele>
        <time>2022-08-30T08:27:00Z</time>
      </trkpt>
      <trkpt lat="43.37485" lon="-1.47789">
        <ele>44</ele>
        <time>2022-08-30T08:27:01Z</time>
      </trkpt>
      <trkpt lat="43.37484" lon="-1.47794">
        <ele>44.1</ele>
        <time>2022-08-30T08:27:02Z</time>
      </trkpt>
      <trkpt lat="43.37483" lon="-1.47796">
        <ele>44.1</ele>
        <time>2022-08-30T08:27:03Z</time>
      </trkpt>
      <trkpt lat="43.37483" lon="-1.47801">
        <ele>44.1</ele>
        <time>2022-08-30T08:27:04Z</time>
      </trkpt>
      <trkpt lat="43.37483" lon="-1.47802">
        <ele>44.1</ele>
        <time>2022-08-30T08:27:05Z</time>
      </trkpt>
      <trkpt lat="43.37482" lon="-1.47806">
        <ele>44.1</ele>
        <time>2022-08-30T08:27:06Z</time>
      </trkpt>
      <trkpt lat="43.37481" lon="-1.4781">
        <ele>44.1</ele>
        <time>2022-08-30T08:27:07Z</time>
      </trkpt>
      <trkpt lat="43.3748" lon="-1.47815">
        <ele>44</ele>
        <time>2022-08-30T08:27:08Z</time>
      </trkpt>
      <trkpt lat="43.37479" lon="-1.47819">
        <ele>43.8</ele>
        <time>2022-08-30T08:27:09Z</time>
      </trkpt>
      <trkpt lat="43.37478" lon="-1.47824">
        <ele>43.7</ele>
        <time>2022-08-30T08:27:10Z</time>
      </trkpt>
      <trkpt lat="43.37478" lon="-1.4783">
        <ele>43.4</ele>
        <time>2022-08-30T08:27:11Z</time>
      </trkpt>
      <trkpt lat="43.37478" lon="-1.47835">
        <ele>43</ele>
        <time>2022-08-30T08:27:12Z</time>
      </trkpt>
      <trkpt lat="43.37478" lon="-1.47841">
        <ele>42.7</ele>
        <time>2022-08-30T08:27:13Z</time>
      </trkpt>
      <trkpt lat="43.3748" lon="-1.47847">
        <ele>42.1</ele>
        <time>2022-08-30T08:27:14Z</time>
      </trkpt>
      <trkpt lat="43.37482" lon="-1.47854">
        <ele>41.4</ele>
        <time>2022-08-30T08:27:15Z</time>
      </trkpt>
      <trkpt lat="43.37483" lon="-1.47861">
        <ele>40.8</ele>
        <time>2022-08-30T08:27:16Z</time>
      </trkpt>
      <trkpt lat="43.37484" lon="-1.47867">
        <ele>40.5</ele>
        <time>2022-08-30T08:27:17Z</time>
      </trkpt>
      <trkpt lat="43.37485" lon="-1.47871">
        <ele>40.5</ele>
        <time>2022-08-30T08:27:18Z</time>
      </trkpt>
      <trkpt lat="43.37487" lon="-1.47875">
        <ele>40.7</ele>
        <time>2022-08-30T08:27:19Z</time>
      </trkpt>
      <trkpt lat="43.37487" lon="-1.47876">
        <ele>40.7</ele>
        <time>2022-08-30T08:27:20Z</time>
      </trkpt>
      <trkpt lat="43.3749" lon="-1.47879">
        <ele>40.7</ele>
        <time>2022-08-30T08:27:21Z</time>
      </trkpt>
      <trkpt lat="43.37491" lon="-1.47879">
        <ele>40.7</ele>
        <time>2022-08-30T08:27:22Z</time>
      </trkpt>
      <trkpt lat="43.37492" lon="-1.4788">
        <ele>40.7</ele>
        <time>2022-08-30T08:27:23Z</time>
      </trkpt>
      <trkpt lat="43.37494" lon="-1.47881">
        <ele>40.7</ele>
        <time>2022-08-30T08:27:24Z</time>
      </trkpt>
      <trkpt lat="43.37495" lon="-1.47881">
        <ele>40.7</ele>
        <time>2022-08-30T08:27:25Z</time>
      </trkpt>
      <trkpt lat="43.37495" lon="-1.47882">
        <ele>40.7</ele>
        <time>2022-08-30T08:27:26Z</time>
      </trkpt>
      <trkpt lat="43.37496" lon="-1.47882">
        <ele>40.7</ele>
        <time>2022-08-30T08:27:27Z</time>
      </trkpt>
      <trkpt lat="43.37496" lon="-1.47882">
        <ele>40.8</ele>
        <time>2022-08-30T08:27:28Z</time>
      </trkpt>
      <trkpt lat="43.37496" lon="-1.47882">
        <ele>40.8</ele>
        <time>2022-08-30T08:27:29Z</time>
      </trkpt>
      <trkpt lat="43.37497" lon="-1.47882">
        <ele>40.8</ele>
        <time>2022-08-30T08:27:30Z</time>
      </trkpt>
      <trkpt lat="43.37498" lon="-1.47882">
        <ele>40.8</ele>
        <time>2022-08-30T08:27:31Z</time>
      </trkpt>
      <trkpt lat="43.37499" lon="-1.47882">
        <ele>40.9</ele>
        <time>2022-08-30T08:27:32Z</time>
      </trkpt>
      <trkpt lat="43.37499" lon="-1.47882">
        <ele>40.9</ele>
        <time>2022-08-30T08:27:33Z</time>
      </trkpt>
      <trkpt lat="43.37499" lon="-1.47881">
        <ele>40.9</ele>
        <time>2022-08-30T08:27:34Z</time>
      </trkpt>
      <trkpt lat="43.375" lon="-1.47881">
        <ele>40.9</ele>
        <time>2022-08-30T08:27:35Z</time>
      </trkpt>
      <trkpt lat="43.375" lon="-1.47881">
        <ele>40.9</ele>
        <time>2022-08-30T08:27:36Z</time>
      </trkpt>
      <trkpt lat="43.37499" lon="-1.47881">
        <ele>40.9</ele>
        <time>2022-08-30T08:27:37Z</time>
      </trkpt>
      <trkpt lat="43.37499" lon="-1.47881">
        <ele>40.9</ele>
        <time>2022-08-30T08:27:38Z</time>
      </trkpt>
      <trkpt lat="43.37499" lon="-1.47881">
        <ele>40.9</ele>
        <time>2022-08-30T08:27:39Z</time>
      </trkpt>
      <trkpt lat="43.37499" lon="-1.47881">
        <ele>40.9</ele>
        <time>2022-08-30T08:27:40Z</time>
      </trkpt>
      <trkpt lat="43.37499" lon="-1.47881">
        <ele>40.9</ele>
        <time>2022-08-30T08:27:41Z</time>
      </trkpt>
      <trkpt lat="43.37499" lon="-1.47881">
        <ele>40.9</ele>
        <time>2022-08-30T08:27:42Z</time>
      </trkpt>
      <trkpt lat="43.37499" lon="-1.47881">
        <ele>40.9</ele>
        <time>2022-08-30T08:27:43Z</time>
      </trkpt>
      <trkpt lat="43.37499" lon="-1.47881">
        <ele>40.9</ele>
        <time>2022-08-30T08:27:44Z</time>
      </trkpt>
      <trkpt lat="43.37502" lon="-1.47884">
        <ele>40.9</ele>
        <time>2022-08-30T08:28:02Z</time>
      </trkpt>
      <trkpt lat="43.37503" lon="-1.47885">
        <ele>41</ele>
        <time>2022-08-30T08:28:03Z</time>
      </trkpt>
      <trkpt lat="43.37503" lon="-1.47886">
        <ele>41</ele>
        <time>2022-08-30T08:28:04Z</time>
      </trkpt>
      <trkpt lat="43.37504" lon="-1.47886">
        <ele>41</ele>
        <time>2022-08-30T08:28:05Z</time>
      </trkpt>
      <trkpt lat="43.37504" lon="-1.47887">
        <ele>41</ele>
        <time>2022-08-30T08:28:06Z</time>
      </trkpt>
      <trkpt lat="43.37504" lon="-1.47887">
        <ele>41</ele>
        <time>2022-08-30T08:28:07Z</time>
      </trkpt>
      <trkpt lat="43.37504" lon="-1.47888">
        <ele>41</ele>
        <time>2022-08-30T08:28:08Z</time>
      </trkpt>
      <trkpt lat="43.37504" lon="-1.47889">
        <ele>41</ele>
        <time>2022-08-30T08:28:09Z</time>
      </trkpt>
      <trkpt lat="43.37504" lon="-1.47889">
        <ele>41</ele>
        <time>2022-08-30T08:28:10Z</time>
      </trkpt>
      <trkpt lat="43.37504" lon="-1.4789">
        <ele>41</ele>
        <time>2022-08-30T08:28:11Z</time>
      </trkpt>
      <trkpt lat="43.37504" lon="-1.47891">
        <ele>41.1</ele>
        <time>2022-08-30T08:28:12Z</time>
      </trkpt>
      <trkpt lat="43.37504" lon="-1.47892">
        <ele>41.1</ele>
        <time>2022-08-30T08:28:13Z</time>
      </trkpt>
      <trkpt lat="43.37503" lon="-1.47892">
        <ele>41.1</ele>
        <time>2022-08-30T08:28:14Z</time>
      </trkpt>
      <trkpt lat="43.37503" lon="-1.47894">
        <ele>41.1</ele>
        <time>2022-08-30T08:28:15Z</time>
      </trkpt>
      <trkpt lat="43.37502" lon="-1.47896">
        <ele>41.2</ele>
        <time>2022-08-30T08:28:16Z</time>
      </trkpt>
      <trkpt lat="43.37503" lon="-1.47899">
        <ele>41.2</ele>
        <time>2022-08-30T08:28:17Z</time>
      </trkpt>
      <trkpt lat="43.37503" lon="-1.47901">
        <ele>41.3</ele>
        <time>2022-08-30T08:28:18Z</time>
      </trkpt>
      <trkpt lat="43.37504" lon="-1.47902">
        <ele>41.3</ele>
        <time>2022-08-30T08:28:19Z</time>
      </trkpt>
      <trkpt lat="43.37505" lon="-1.47907">
        <ele>41.4</ele>
        <time>2022-08-30T08:28:20Z</time>
      </trkpt>
      <trkpt lat="43.37506" lon="-1.47908">
        <ele>41.4</ele>
        <time>2022-08-30T08:28:21Z</time>
      </trkpt>
      <trkpt lat="43.37507" lon="-1.47912">
        <ele>41.5</ele>
        <time>2022-08-30T08:28:22Z</time>
      </trkpt>
      <trkpt lat="43.37508" lon="-1.47916">
        <ele>41.6</ele>
        <time>2022-08-30T08:28:23Z</time>
      </trkpt>
      <trkpt lat="43.37509" lon="-1.47917">
        <ele>41.7</ele>
        <time>2022-08-30T08:28:24Z</time>
      </trkpt>
      <trkpt lat="43.3751" lon="-1.47921">
        <ele>41.8</ele>
        <time>2022-08-30T08:28:25Z</time>
      </trkpt>
      <trkpt lat="43.3751" lon="-1.47923">
        <ele>41.8</ele>
        <time>2022-08-30T08:28:26Z</time>
      </trkpt>
      <trkpt lat="43.3751" lon="-1.47927">
        <ele>41.9</ele>
        <time>2022-08-30T08:28:27Z</time>
      </trkpt>
      <trkpt lat="43.3751" lon="-1.47931">
        <ele>41.9</ele>
        <time>2022-08-30T08:28:28Z</time>
      </trkpt>
      <trkpt lat="43.37509" lon="-1.47935">
        <ele>42</ele>
        <time>2022-08-30T08:28:29Z</time>
      </trkpt>
      <trkpt lat="43.37509" lon="-1.4794">
        <ele>42.1</ele>
        <time>2022-08-30T08:28:30Z</time>
      </trkpt>
      <trkpt lat="43.37509" lon="-1.47944">
        <ele>42.1</ele>
        <time>2022-08-30T08:28:31Z</time>
      </trkpt>
      <trkpt lat="43.37509" lon="-1.47949">
        <ele>42.1</ele>
        <time>2022-08-30T08:28:32Z</time>
      </trkpt>
      <trkpt lat="43.37508" lon="-1.47953">
        <ele>42.2</ele>
        <time>2022-08-30T08:28:33Z</time>
      </trkpt>
      <trkpt lat="43.37507" lon="-1.47957">
        <ele>42.2</ele>
        <time>2022-08-30T08:28:34Z</time>
      </trkpt>
      <trkpt lat="43.37506" lon="-1.47962">
        <ele>42.2</ele>
        <time>2022-08-30T08:28:35Z</time>
      </trkpt>
      <trkpt lat="43.37505" lon="-1.47966">
        <ele>42.2</ele>
        <time>2022-08-30T08:28:36Z</time>
      </trkpt>
      <trkpt lat="43.37505" lon="-1.47971">
        <ele>42.1</ele>
        <time>2022-08-30T08:28:37Z</time>
      </trkpt>
      <trkpt lat="43.37504" lon="-1.47975">
        <ele>42.1</ele>
        <time>2022-08-30T08:28:38Z</time>
      </trkpt>
      <trkpt lat="43.37504" lon="-1.47979">
        <ele>42.1</ele>
        <time>2022-08-30T08:28:39Z</time>
      </trkpt>
      <trkpt lat="43.37503" lon="-1.47983">
        <ele>42.1</ele>
        <time>2022-08-30T08:28:40Z</time>
      </trkpt>
      <trkpt lat="43.37503" lon="-1.47988">
        <ele>42.1</ele>
        <time>2022-08-30T08:28:41Z</time>
      </trkpt>
      <trkpt lat="43.37502" lon="-1.47992">
        <ele>42.2</ele>
        <time>2022-08-30T08:28:42Z</time>
      </trkpt>
      <trkpt lat="43.37501" lon="-1.47997">
        <ele>42.2</ele>
        <time>2022-08-30T08:28:43Z</time>
      </trkpt>
      <trkpt lat="43.375" lon="-1.48001">
        <ele>42.2</ele>
        <time>2022-08-30T08:28:44Z</time>
      </trkpt>
      <trkpt lat="43.375" lon="-1.48005">
        <ele>42.2</ele>
        <time>2022-08-30T08:28:45Z</time>
      </trkpt>
      <trkpt lat="43.37499" lon="-1.4801">
        <ele>42.3</ele>
        <time>2022-08-30T08:28:46Z</time>
      </trkpt>
      <trkpt lat="43.37498" lon="-1.48014">
        <ele>42.3</ele>
        <time>2022-08-30T08:28:47Z</time>
      </trkpt>
      <trkpt lat="43.37498" lon="-1.48019">
        <ele>42.4</ele>
        <time>2022-08-30T08:28:48Z</time>
      </trkpt>
      <trkpt lat="43.37497" lon="-1.48024">
        <ele>42.5</ele>
        <time>2022-08-30T08:28:49Z</time>
      </trkpt>
      <trkpt lat="43.37497" lon="-1.48029">
        <ele>42.5</ele>
        <time>2022-08-30T08:28:50Z</time>
      </trkpt>
      <trkpt lat="43.37497" lon="-1.48031">
        <ele>42.6</ele>
        <time>2022-08-30T08:28:51Z</time>
      </trkpt>
      <trkpt lat="43.37497" lon="-1.48035">
        <ele>42.6</ele>
        <time>2022-08-30T08:28:52Z</time>
      </trkpt>
      <trkpt lat="43.37497" lon="-1.48039">
        <ele>42.7</ele>
        <time>2022-08-30T08:28:53Z</time>
      </trkpt>
      <trkpt lat="43.37498" lon="-1.48043">
        <ele>42.7</ele>
        <time>2022-08-30T08:28:54Z</time>
      </trkpt>
      <trkpt lat="43.37498" lon="-1.48048">
        <ele>42.8</ele>
        <time>2022-08-30T08:28:55Z</time>
      </trkpt>
      <trkpt lat="43.37499" lon="-1.48052">
        <ele>42.8</ele>
        <time>2022-08-30T08:28:56Z</time>
      </trkpt>
      <trkpt lat="43.37499" lon="-1.48056">
        <ele>42.9</ele>
        <time>2022-08-30T08:28:57Z</time>
      </trkpt>
      <trkpt lat="43.37499" lon="-1.4806">
        <ele>42.9</ele>
        <time>2022-08-30T08:28:58Z</time>
      </trkpt>
      <trkpt lat="43.37499" lon="-1.48065">
        <ele>43</ele>
        <time>2022-08-30T08:28:59Z</time>
      </trkpt>
      <trkpt lat="43.37499" lon="-1.48069">
        <ele>43</ele>
        <time>2022-08-30T08:29:00Z</time>
      </trkpt>
      <trkpt lat="43.375" lon="-1.48073">
        <ele>43.1</ele>
        <time>2022-08-30T08:29:01Z</time>
      </trkpt>
      <trkpt lat="43.37501" lon="-1.48077">
        <ele>43.1</ele>
        <time>2022-08-30T08:29:02Z</time>
      </trkpt>
      <trkpt lat="43.37501" lon="-1.48083">
        <ele>43.1</ele>
        <time>2022-08-30T08:29:03Z</time>
      </trkpt>
      <trkpt lat="43.37501" lon="-1.48085">
        <ele>43.2</ele>
        <time>2022-08-30T08:29:04Z</time>
      </trkpt>
      <trkpt lat="43.37501" lon="-1.48089">
        <ele>43.2</ele>
        <time>2022-08-30T08:29:05Z</time>
      </trkpt>
      <trkpt lat="43.37502" lon="-1.48093">
        <ele>43.2</ele>
        <time>2022-08-30T08:29:06Z</time>
      </trkpt>
      <trkpt lat="43.37502" lon="-1.48098">
        <ele>43.3</ele>
        <time>2022-08-30T08:29:07Z</time>
      </trkpt>
      <trkpt lat="43.37502" lon="-1.48103">
        <ele>43.3</ele>
        <time>2022-08-30T08:29:08Z</time>
      </trkpt>
      <trkpt lat="43.37502" lon="-1.48107">
        <ele>43.3</ele>
        <time>2022-08-30T08:29:09Z</time>
      </trkpt>
      <trkpt lat="43.37502" lon="-1.48111">
        <ele>43.4</ele>
        <time>2022-08-30T08:29:10Z</time>
      </trkpt>
      <trkpt lat="43.37501" lon="-1.48116">
        <ele>43.4</ele>
        <time>2022-08-30T08:29:11Z</time>
      </trkpt>
      <trkpt lat="43.37501" lon="-1.48121">
        <ele>43.4</ele>
        <time>2022-08-30T08:29:12Z</time>
      </trkpt>
      <trkpt lat="43.37501" lon="-1.48126">
        <ele>43.4</ele>
        <time>2022-08-30T08:29:13Z</time>
      </trkpt>
      <trkpt lat="43.37501" lon="-1.4813">
        <ele>43.5</ele>
        <time>2022-08-30T08:29:14Z</time>
      </trkpt>
      <trkpt lat="43.375" lon="-1.48135">
        <ele>43.5</ele>
        <time>2022-08-30T08:29:15Z</time>
      </trkpt>
      <trkpt lat="43.37499" lon="-1.48139">
        <ele>43.5</ele>
        <time>2022-08-30T08:29:16Z</time>
      </trkpt>
      <trkpt lat="43.37497" lon="-1.48142">
        <ele>43.5</ele>
        <time>2022-08-30T08:29:17Z</time>
      </trkpt>
      <trkpt lat="43.37494" lon="-1.48145">
        <ele>43.4</ele>
        <time>2022-08-30T08:29:18Z</time>
      </trkpt>
      <trkpt lat="43.37492" lon="-1.48148">
        <ele>43.4</ele>
        <time>2022-08-30T08:29:19Z</time>
      </trkpt>
      <trkpt lat="43.37489" lon="-1.48151">
        <ele>43.4</ele>
        <time>2022-08-30T08:29:20Z</time>
      </trkpt>
      <trkpt lat="43.37487" lon="-1.48154">
        <ele>43.3</ele>
        <time>2022-08-30T08:29:21Z</time>
      </trkpt>
      <trkpt lat="43.37484" lon="-1.48158">
        <ele>43.2</ele>
        <time>2022-08-30T08:29:22Z</time>
      </trkpt>
      <trkpt lat="43.37482" lon="-1.48162">
        <ele>43.1</ele>
        <time>2022-08-30T08:29:23Z</time>
      </trkpt>
      <trkpt lat="43.37479" lon="-1.48166">
        <ele>43.1</ele>
        <time>2022-08-30T08:29:24Z</time>
      </trkpt>
      <trkpt lat="43.37477" lon="-1.48171">
        <ele>43.1</ele>
        <time>2022-08-30T08:29:25Z</time>
      </trkpt>
      <trkpt lat="43.37475" lon="-1.48175">
        <ele>43.1</ele>
        <time>2022-08-30T08:29:26Z</time>
      </trkpt>
      <trkpt lat="43.37473" lon="-1.48179">
        <ele>43.1</ele>
        <time>2022-08-30T08:29:27Z</time>
      </trkpt>
      <trkpt lat="43.37472" lon="-1.48183">
        <ele>43.2</ele>
        <time>2022-08-30T08:29:28Z</time>
      </trkpt>
      <trkpt lat="43.37471" lon="-1.48187">
        <ele>43.3</ele>
        <time>2022-08-30T08:29:29Z</time>
      </trkpt>
      <trkpt lat="43.37469" lon="-1.48192">
        <ele>43.4</ele>
        <time>2022-08-30T08:29:30Z</time>
      </trkpt>
      <trkpt lat="43.37468" lon="-1.48196">
        <ele>43.5</ele>
        <time>2022-08-30T08:29:31Z</time>
      </trkpt>
      <trkpt lat="43.37466" lon="-1.48201">
        <ele>43.6</ele>
        <time>2022-08-30T08:29:32Z</time>
      </trkpt>
      <trkpt lat="43.37464" lon="-1.48206">
        <ele>43.7</ele>
        <time>2022-08-30T08:29:33Z</time>
      </trkpt>
      <trkpt lat="43.37462" lon="-1.4821">
        <ele>43.8</ele>
        <time>2022-08-30T08:29:34Z</time>
      </trkpt>
      <trkpt lat="43.37461" lon="-1.48214">
        <ele>43.9</ele>
        <time>2022-08-30T08:29:35Z</time>
      </trkpt>
      <trkpt lat="43.3746" lon="-1.48218">
        <ele>43.9</ele>
        <time>2022-08-30T08:29:36Z</time>
      </trkpt>
      <trkpt lat="43.37459" lon="-1.48222">
        <ele>43.9</ele>
        <time>2022-08-30T08:29:37Z</time>
      </trkpt>
      <trkpt lat="43.37458" lon="-1.48227">
        <ele>44</ele>
        <time>2022-08-30T08:29:38Z</time>
      </trkpt>
      <trkpt lat="43.37457" lon="-1.48231">
        <ele>44</ele>
        <time>2022-08-30T08:29:39Z</time>
      </trkpt>
      <trkpt lat="43.37456" lon="-1.48235">
        <ele>44</ele>
        <time>2022-08-30T08:29:40Z</time>
      </trkpt>
      <trkpt lat="43.37454" lon="-1.4824">
        <ele>44.1</ele>
        <time>2022-08-30T08:29:41Z</time>
      </trkpt>
      <trkpt lat="43.37452" lon="-1.48244">
        <ele>44.1</ele>
        <time>2022-08-30T08:29:42Z</time>
      </trkpt>
      <trkpt lat="43.3745" lon="-1.48249">
        <ele>44.1</ele>
        <time>2022-08-30T08:29:43Z</time>
      </trkpt>
      <trkpt lat="43.37447" lon="-1.48254">
        <ele>44.2</ele>
        <time>2022-08-30T08:29:44Z</time>
      </trkpt>
      <trkpt lat="43.37444" lon="-1.48258">
        <ele>44.2</ele>
        <time>2022-08-30T08:29:45Z</time>
      </trkpt>
      <trkpt lat="43.37442" lon="-1.48261">
        <ele>44.2</ele>
        <time>2022-08-30T08:29:46Z</time>
      </trkpt>
      <trkpt lat="43.3744" lon="-1.48264">
        <ele>44.3</ele>
        <time>2022-08-30T08:29:47Z</time>
      </trkpt>
      <trkpt lat="43.37437" lon="-1.48267">
        <ele>44.3</ele>
        <time>2022-08-30T08:29:48Z</time>
      </trkpt>
      <trkpt lat="43.37434" lon="-1.48269">
        <ele>44.3</ele>
        <time>2022-08-30T08:29:49Z</time>
      </trkpt>
      <trkpt lat="43.37431" lon="-1.48271">
        <ele>44.4</ele>
        <time>2022-08-30T08:29:50Z</time>
      </trkpt>
      <trkpt lat="43.37428" lon="-1.48273">
        <ele>44.4</ele>
        <time>2022-08-30T08:29:51Z</time>
      </trkpt>
      <trkpt lat="43.37424" lon="-1.48275">
        <ele>44.3</ele>
        <time>2022-08-30T08:29:52Z</time>
      </trkpt>
      <trkpt lat="43.3742" lon="-1.48277">
        <ele>44.3</ele>
        <time>2022-08-30T08:29:53Z</time>
      </trkpt>
      <trkpt lat="43.37416" lon="-1.48279">
        <ele>44.2</ele>
        <time>2022-08-30T08:29:54Z</time>
      </trkpt>
      <trkpt lat="43.37413" lon="-1.48281">
        <ele>44.1</ele>
        <time>2022-08-30T08:29:55Z</time>
      </trkpt>
      <trkpt lat="43.37409" lon="-1.48284">
        <ele>44</ele>
        <time>2022-08-30T08:29:56Z</time>
      </trkpt>
      <trkpt lat="43.37405" lon="-1.48286">
        <ele>43.9</ele>
        <time>2022-08-30T08:29:57Z</time>
      </trkpt>
      <trkpt lat="43.37401" lon="-1.48289">
        <ele>43.7</ele>
        <time>2022-08-30T08:29:58Z</time>
      </trkpt>
      <trkpt lat="43.37396" lon="-1.48291">
        <ele>43.6</ele>
        <time>2022-08-30T08:29:59Z</time>
      </trkpt>
      <trkpt lat="43.37392" lon="-1.48293">
        <ele>43.6</ele>
        <time>2022-08-30T08:30:00Z</time>
      </trkpt>
      <trkpt lat="43.37389" lon="-1.48295">
        <ele>43.6</ele>
        <time>2022-08-30T08:30:01Z</time>
      </trkpt>
      <trkpt lat="43.37386" lon="-1.48297">
        <ele>43.7</ele>
        <time>2022-08-30T08:30:02Z</time>
      </trkpt>
      <trkpt lat="43.37383" lon="-1.48298">
        <ele>43.8</ele>
        <time>2022-08-30T08:30:03Z</time>
      </trkpt>
      <trkpt lat="43.3738" lon="-1.48301">
        <ele>43.9</ele>
        <time>2022-08-30T08:30:04Z</time>
      </trkpt>
      <trkpt lat="43.37378" lon="-1.48304">
        <ele>44.1</ele>
        <time>2022-08-30T08:30:05Z</time>
      </trkpt>
      <trkpt lat="43.37376" lon="-1.48307">
        <ele>44.3</ele>
        <time>2022-08-30T08:30:06Z</time>
      </trkpt>
      <trkpt lat="43.37374" lon="-1.48311">
        <ele>44.6</ele>
        <time>2022-08-30T08:30:07Z</time>
      </trkpt>
      <trkpt lat="43.37371" lon="-1.48314">
        <ele>44.9</ele>
        <time>2022-08-30T08:30:08Z</time>
      </trkpt>
      <trkpt lat="43.37368" lon="-1.48316">
        <ele>45.2</ele>
        <time>2022-08-30T08:30:09Z</time>
      </trkpt>
      <trkpt lat="43.37365" lon="-1.48318">
        <ele>45.6</ele>
        <time>2022-08-30T08:30:10Z</time>
      </trkpt>
      <trkpt lat="43.37362" lon="-1.4832">
        <ele>46</ele>
        <time>2022-08-30T08:30:11Z</time>
      </trkpt>
      <trkpt lat="43.37359" lon="-1.48322">
        <ele>46.4</ele>
        <time>2022-08-30T08:30:12Z</time>
      </trkpt>
      <trkpt lat="43.37356" lon="-1.48324">
        <ele>46.8</ele>
        <time>2022-08-30T08:30:13Z</time>
      </trkpt>
      <trkpt lat="43.37353" lon="-1.48325">
        <ele>47.2</ele>
        <time>2022-08-30T08:30:14Z</time>
      </trkpt>
      <trkpt lat="43.37351" lon="-1.48327">
        <ele>47.6</ele>
        <time>2022-08-30T08:30:15Z</time>
      </trkpt>
      <trkpt lat="43.37348" lon="-1.48329">
        <ele>48.1</ele>
        <time>2022-08-30T08:30:16Z</time>
      </trkpt>
      <trkpt lat="43.37346" lon="-1.48332">
        <ele>48.5</ele>
        <time>2022-08-30T08:30:17Z</time>
      </trkpt>
      <trkpt lat="43.37343" lon="-1.48336">
        <ele>49</ele>
        <time>2022-08-30T08:30:18Z</time>
      </trkpt>
      <trkpt lat="43.37343" lon="-1.48337">
        <ele>49.2</ele>
        <time>2022-08-30T08:30:19Z</time>
      </trkpt>
      <trkpt lat="43.37341" lon="-1.4834">
        <ele>49.6</ele>
        <time>2022-08-30T08:30:20Z</time>
      </trkpt>
      <trkpt lat="43.3734" lon="-1.4834">
        <ele>49.7</ele>
        <time>2022-08-30T08:30:21Z</time>
      </trkpt>
      <trkpt lat="43.37339" lon="-1.48344">
        <ele>50.1</ele>
        <time>2022-08-30T08:30:22Z</time>
      </trkpt>
      <trkpt lat="43.37338" lon="-1.48345">
        <ele>50.3</ele>
        <time>2022-08-30T08:30:23Z</time>
      </trkpt>
      <trkpt lat="43.37337" lon="-1.4835">
        <ele>50.7</ele>
        <time>2022-08-30T08:30:24Z</time>
      </trkpt>
      <trkpt lat="43.37337" lon="-1.48351">
        <ele>50.9</ele>
        <time>2022-08-30T08:30:25Z</time>
      </trkpt>
      <trkpt lat="43.37335" lon="-1.48355">
        <ele>51.3</ele>
        <time>2022-08-30T08:30:26Z</time>
      </trkpt>
      <trkpt lat="43.37334" lon="-1.48356">
        <ele>51.5</ele>
        <time>2022-08-30T08:30:27Z</time>
      </trkpt>
      <trkpt lat="43.37333" lon="-1.4836">
        <ele>51.9</ele>
        <time>2022-08-30T08:30:28Z</time>
      </trkpt>
      <trkpt lat="43.37332" lon="-1.48361">
        <ele>52</ele>
        <time>2022-08-30T08:30:29Z</time>
      </trkpt>
      <trkpt lat="43.37331" lon="-1.48365">
        <ele>52.4</ele>
        <time>2022-08-30T08:30:30Z</time>
      </trkpt>
      <trkpt lat="43.37331" lon="-1.48367">
        <ele>52.6</ele>
        <time>2022-08-30T08:30:31Z</time>
      </trkpt>
      <trkpt lat="43.3733" lon="-1.48371">
        <ele>53</ele>
        <time>2022-08-30T08:30:32Z</time>
      </trkpt>
      <trkpt lat="43.3733" lon="-1.48372">
        <ele>53.1</ele>
        <time>2022-08-30T08:30:33Z</time>
      </trkpt>
      <trkpt lat="43.37329" lon="-1.48377">
        <ele>53.5</ele>
        <time>2022-08-30T08:30:34Z</time>
      </trkpt>
      <trkpt lat="43.37329" lon="-1.48378">
        <ele>53.6</ele>
        <time>2022-08-30T08:30:35Z</time>
      </trkpt>
      <trkpt lat="43.37328" lon="-1.48382">
        <ele>53.9</ele>
        <time>2022-08-30T08:30:36Z</time>
      </trkpt>
      <trkpt lat="43.37328" lon="-1.48387">
        <ele>54.3</ele>
        <time>2022-08-30T08:30:37Z</time>
      </trkpt>
      <trkpt lat="43.37328" lon="-1.48389">
        <ele>54.4</ele>
        <time>2022-08-30T08:30:38Z</time>
      </trkpt>
      <trkpt lat="43.37329" lon="-1.48394">
        <ele>54.8</ele>
        <time>2022-08-30T08:30:39Z</time>
      </trkpt>
      <trkpt lat="43.37329" lon="-1.48395">
        <ele>54.9</ele>
        <time>2022-08-30T08:30:40Z</time>
      </trkpt>
      <trkpt lat="43.3733" lon="-1.484">
        <ele>55.2</ele>
        <time>2022-08-30T08:30:41Z</time>
      </trkpt>
      <trkpt lat="43.37331" lon="-1.48402">
        <ele>55.3</ele>
        <time>2022-08-30T08:30:42Z</time>
      </trkpt>
      <trkpt lat="43.37332" lon="-1.48406">
        <ele>55.6</ele>
        <time>2022-08-30T08:30:43Z</time>
      </trkpt>
      <trkpt lat="43.37333" lon="-1.48407">
        <ele>55.7</ele>
        <time>2022-08-30T08:30:44Z</time>
      </trkpt>
      <trkpt lat="43.37334" lon="-1.4841">
        <ele>55.9</ele>
        <time>2022-08-30T08:30:45Z</time>
      </trkpt>
      <trkpt lat="43.37335" lon="-1.48412">
        <ele>55.9</ele>
        <time>2022-08-30T08:30:46Z</time>
      </trkpt>
      <trkpt lat="43.37336" lon="-1.48416">
        <ele>56.1</ele>
        <time>2022-08-30T08:30:47Z</time>
      </trkpt>
      <trkpt lat="43.37337" lon="-1.48418">
        <ele>56.2</ele>
        <time>2022-08-30T08:30:48Z</time>
      </trkpt>
      <trkpt lat="43.37338" lon="-1.48423">
        <ele>56.3</ele>
        <time>2022-08-30T08:30:49Z</time>
      </trkpt>
      <trkpt lat="43.37339" lon="-1.48424">
        <ele>56.3</ele>
        <time>2022-08-30T08:30:50Z</time>
      </trkpt>
      <trkpt lat="43.37342" lon="-1.48432">
        <ele>56.4</ele>
        <time>2022-08-30T08:30:52Z</time>
      </trkpt>
      <trkpt lat="43.37344" lon="-1.48436">
        <ele>56.4</ele>
        <time>2022-08-30T08:30:53Z</time>
      </trkpt>
      <trkpt lat="43.37346" lon="-1.48441">
        <ele>56.4</ele>
        <time>2022-08-30T08:30:54Z</time>
      </trkpt>
      <trkpt lat="43.37348" lon="-1.48447">
        <ele>56.4</ele>
        <time>2022-08-30T08:30:55Z</time>
      </trkpt>
      <trkpt lat="43.37349" lon="-1.48451">
        <ele>56.3</ele>
        <time>2022-08-30T08:30:56Z</time>
      </trkpt>
      <trkpt lat="43.3735" lon="-1.48455">
        <ele>56.3</ele>
        <time>2022-08-30T08:30:57Z</time>
      </trkpt>
      <trkpt lat="43.37351" lon="-1.48459">
        <ele>56.2</ele>
        <time>2022-08-30T08:30:58Z</time>
      </trkpt>
      <trkpt lat="43.37351" lon="-1.48465">
        <ele>56.2</ele>
        <time>2022-08-30T08:30:59Z</time>
      </trkpt>
      <trkpt lat="43.37351" lon="-1.48466">
        <ele>56.1</ele>
        <time>2022-08-30T08:31:00Z</time>
      </trkpt>
      <trkpt lat="43.3735" lon="-1.48471">
        <ele>56.1</ele>
        <time>2022-08-30T08:31:01Z</time>
      </trkpt>
      <trkpt lat="43.3735" lon="-1.48475">
        <ele>56.1</ele>
        <time>2022-08-30T08:31:02Z</time>
      </trkpt>
      <trkpt lat="43.37351" lon="-1.48479">
        <ele>56</ele>
        <time>2022-08-30T08:31:03Z</time>
      </trkpt>
      <trkpt lat="43.37351" lon="-1.48484">
        <ele>56</ele>
        <time>2022-08-30T08:31:04Z</time>
      </trkpt>
      <trkpt lat="43.37351" lon="-1.48488">
        <ele>56</ele>
        <time>2022-08-30T08:31:05Z</time>
      </trkpt>
      <trkpt lat="43.37351" lon="-1.48493">
        <ele>56</ele>
        <time>2022-08-30T08:31:06Z</time>
      </trkpt>
      <trkpt lat="43.3735" lon="-1.48498">
        <ele>56</ele>
        <time>2022-08-30T08:31:07Z</time>
      </trkpt>
      <trkpt lat="43.37351" lon="-1.48502">
        <ele>56</ele>
        <time>2022-08-30T08:31:08Z</time>
      </trkpt>
      <trkpt lat="43.37351" lon="-1.48506">
        <ele>56.1</ele>
        <time>2022-08-30T08:31:09Z</time>
      </trkpt>
      <trkpt lat="43.3735" lon="-1.4851">
        <ele>56.1</ele>
        <time>2022-08-30T08:31:10Z</time>
      </trkpt>
      <trkpt lat="43.3735" lon="-1.48515">
        <ele>56.1</ele>
        <time>2022-08-30T08:31:11Z</time>
      </trkpt>
      <trkpt lat="43.3735" lon="-1.48518">
        <ele>56.1</ele>
        <time>2022-08-30T08:31:12Z</time>
      </trkpt>
      <trkpt lat="43.3735" lon="-1.48526">
        <ele>56.1</ele>
        <time>2022-08-30T08:31:14Z</time>
      </trkpt>
      <trkpt lat="43.37349" lon="-1.4853">
        <ele>56.1</ele>
        <time>2022-08-30T08:31:15Z</time>
      </trkpt>
      <trkpt lat="43.37349" lon="-1.48535">
        <ele>56.1</ele>
        <time>2022-08-30T08:31:16Z</time>
      </trkpt>
      <trkpt lat="43.37347" lon="-1.48539">
        <ele>56.1</ele>
        <time>2022-08-30T08:31:17Z</time>
      </trkpt>
      <trkpt lat="43.37345" lon="-1.48547">
        <ele>56.2</ele>
        <time>2022-08-30T08:31:19Z</time>
      </trkpt>
      <trkpt lat="43.37344" lon="-1.48552">
        <ele>56.2</ele>
        <time>2022-08-30T08:31:20Z</time>
      </trkpt>
      <trkpt lat="43.37342" lon="-1.48556">
        <ele>56.2</ele>
        <time>2022-08-30T08:31:21Z</time>
      </trkpt>
      <trkpt lat="43.37341" lon="-1.48559">
        <ele>56.2</ele>
        <time>2022-08-30T08:31:22Z</time>
      </trkpt>
      <trkpt lat="43.3734" lon="-1.48562">
        <ele>56.2</ele>
        <time>2022-08-30T08:31:23Z</time>
      </trkpt>
      <trkpt lat="43.37337" lon="-1.48569">
        <ele>56.3</ele>
        <time>2022-08-30T08:31:25Z</time>
      </trkpt>
      <trkpt lat="43.37335" lon="-1.48573">
        <ele>56.4</ele>
        <time>2022-08-30T08:31:26Z</time>
      </trkpt>
      <trkpt lat="43.37333" lon="-1.48577">
        <ele>56.5</ele>
        <time>2022-08-30T08:31:27Z</time>
      </trkpt>
      <trkpt lat="43.37331" lon="-1.48581">
        <ele>56.5</ele>
        <time>2022-08-30T08:31:28Z</time>
      </trkpt>
      <trkpt lat="43.37329" lon="-1.48585">
        <ele>56.6</ele>
        <time>2022-08-30T08:31:29Z</time>
      </trkpt>
      <trkpt lat="43.37327" lon="-1.48589">
        <ele>56.8</ele>
        <time>2022-08-30T08:31:30Z</time>
      </trkpt>
      <trkpt lat="43.37326" lon="-1.48593">
        <ele>56.9</ele>
        <time>2022-08-30T08:31:31Z</time>
      </trkpt>
      <trkpt lat="43.37324" lon="-1.48597">
        <ele>57</ele>
        <time>2022-08-30T08:31:32Z</time>
      </trkpt>
      <trkpt lat="43.37323" lon="-1.486">
        <ele>57.1</ele>
        <time>2022-08-30T08:31:33Z</time>
      </trkpt>
      <trkpt lat="43.37322" lon="-1.48604">
        <ele>57.3</ele>
        <time>2022-08-30T08:31:34Z</time>
      </trkpt>
      <trkpt lat="43.37321" lon="-1.48607">
        <ele>57.4</ele>
        <time>2022-08-30T08:31:35Z</time>
      </trkpt>
      <trkpt lat="43.37319" lon="-1.48611">
        <ele>57.6</ele>
        <time>2022-08-30T08:31:36Z</time>
      </trkpt>
      <trkpt lat="43.37318" lon="-1.48616">
        <ele>57.8</ele>
        <time>2022-08-30T08:31:37Z</time>
      </trkpt>
      <trkpt lat="43.37317" lon="-1.4862">
        <ele>58</ele>
        <time>2022-08-30T08:31:38Z</time>
      </trkpt>
      <trkpt lat="43.37316" lon="-1.48624">
        <ele>58.2</ele>
        <time>2022-08-30T08:31:39Z</time>
      </trkpt>
      <trkpt lat="43.37315" lon="-1.48628">
        <ele>58.4</ele>
        <time>2022-08-30T08:31:40Z</time>
      </trkpt>
      <trkpt lat="43.37314" lon="-1.48632">
        <ele>58.6</ele>
        <time>2022-08-30T08:31:41Z</time>
      </trkpt>
      <trkpt lat="43.37314" lon="-1.48636">
        <ele>58.8</ele>
        <time>2022-08-30T08:31:42Z</time>
      </trkpt>
      <trkpt lat="43.37313" lon="-1.4864">
        <ele>59</ele>
        <time>2022-08-30T08:31:43Z</time>
      </trkpt>
      <trkpt lat="43.37312" lon="-1.48645">
        <ele>59.2</ele>
        <time>2022-08-30T08:31:44Z</time>
      </trkpt>
      <trkpt lat="43.37311" lon="-1.48649">
        <ele>59.5</ele>
        <time>2022-08-30T08:31:45Z</time>
      </trkpt>
      <trkpt lat="43.37309" lon="-1.48653">
        <ele>59.8</ele>
        <time>2022-08-30T08:31:46Z</time>
      </trkpt>
      <trkpt lat="43.37308" lon="-1.48656">
        <ele>60</ele>
        <time>2022-08-30T08:31:47Z</time>
      </trkpt>
      <trkpt lat="43.37307" lon="-1.48661">
        <ele>60.3</ele>
        <time>2022-08-30T08:31:48Z</time>
      </trkpt>
      <trkpt lat="43.37307" lon="-1.48663">
        <ele>60.4</ele>
        <time>2022-08-30T08:31:49Z</time>
      </trkpt>
      <trkpt lat="43.37308" lon="-1.48667">
        <ele>60.7</ele>
        <time>2022-08-30T08:31:50Z</time>
      </trkpt>
      <trkpt lat="43.37308" lon="-1.48668">
        <ele>60.8</ele>
        <time>2022-08-30T08:31:51Z</time>
      </trkpt>
      <trkpt lat="43.3731" lon="-1.48673">
        <ele>61.2</ele>
        <time>2022-08-30T08:31:52Z</time>
      </trkpt>
      <trkpt lat="43.3731" lon="-1.48674">
        <ele>61.3</ele>
        <time>2022-08-30T08:31:53Z</time>
      </trkpt>
      <trkpt lat="43.37311" lon="-1.48679">
        <ele>61.7</ele>
        <time>2022-08-30T08:31:54Z</time>
      </trkpt>
      <trkpt lat="43.37312" lon="-1.48681">
        <ele>61.8</ele>
        <time>2022-08-30T08:31:55Z</time>
      </trkpt>
      <trkpt lat="43.37313" lon="-1.48685">
        <ele>62.1</ele>
        <time>2022-08-30T08:31:56Z</time>
      </trkpt>
      <trkpt lat="43.37314" lon="-1.4869">
        <ele>62.5</ele>
        <time>2022-08-30T08:31:57Z</time>
      </trkpt>
      <trkpt lat="43.37314" lon="-1.48692">
        <ele>62.6</ele>
        <time>2022-08-30T08:31:58Z</time>
      </trkpt>
      <trkpt lat="43.37314" lon="-1.48697">
        <ele>63</ele>
        <time>2022-08-30T08:31:59Z</time>
      </trkpt>
      <trkpt lat="43.37314" lon="-1.48699">
        <ele>63.2</ele>
        <time>2022-08-30T08:32:00Z</time>
      </trkpt>
      <trkpt lat="43.37314" lon="-1.48704">
        <ele>63.6</ele>
        <time>2022-08-30T08:32:01Z</time>
      </trkpt>
      <trkpt lat="43.37314" lon="-1.48706">
        <ele>63.7</ele>
        <time>2022-08-30T08:32:02Z</time>
      </trkpt>
      <trkpt lat="43.37314" lon="-1.4871">
        <ele>64</ele>
        <time>2022-08-30T08:32:03Z</time>
      </trkpt>
      <trkpt lat="43.37314" lon="-1.48712">
        <ele>64.2</ele>
        <time>2022-08-30T08:32:04Z</time>
      </trkpt>
      <trkpt lat="43.37313" lon="-1.48717">
        <ele>64.6</ele>
        <time>2022-08-30T08:32:05Z</time>
      </trkpt>
      <trkpt lat="43.37313" lon="-1.48718">
        <ele>64.7</ele>
        <time>2022-08-30T08:32:06Z</time>
      </trkpt>
      <trkpt lat="43.37313" lon="-1.48723">
        <ele>65</ele>
        <time>2022-08-30T08:32:07Z</time>
      </trkpt>
      <trkpt lat="43.37313" lon="-1.48725">
        <ele>65.1</ele>
        <time>2022-08-30T08:32:08Z</time>
      </trkpt>
      <trkpt lat="43.37313" lon="-1.48729">
        <ele>65.5</ele>
        <time>2022-08-30T08:32:09Z</time>
      </trkpt>
      <trkpt lat="43.37314" lon="-1.4873">
        <ele>65.6</ele>
        <time>2022-08-30T08:32:10Z</time>
      </trkpt>
      <trkpt lat="43.37315" lon="-1.48734">
        <ele>65.9</ele>
        <time>2022-08-30T08:32:11Z</time>
      </trkpt>
      <trkpt lat="43.37316" lon="-1.48735">
        <ele>66</ele>
        <time>2022-08-30T08:32:12Z</time>
      </trkpt>
      <trkpt lat="43.37317" lon="-1.48739">
        <ele>66.4</ele>
        <time>2022-08-30T08:32:13Z</time>
      </trkpt>
      <trkpt lat="43.37318" lon="-1.4874">
        <ele>66.5</ele>
        <time>2022-08-30T08:32:14Z</time>
      </trkpt>
      <trkpt lat="43.37319" lon="-1.48744">
        <ele>66.9</ele>
        <time>2022-08-30T08:32:15Z</time>
      </trkpt>
      <trkpt lat="43.3732" lon="-1.48746">
        <ele>67</ele>
        <time>2022-08-30T08:32:16Z</time>
      </trkpt>
      <trkpt lat="43.37322" lon="-1.48749">
        <ele>67.4</ele>
        <time>2022-08-30T08:32:17Z</time>
      </trkpt>
      <trkpt lat="43.37322" lon="-1.4875">
        <ele>67.5</ele>
        <time>2022-08-30T08:32:18Z</time>
      </trkpt>
      <trkpt lat="43.37324" lon="-1.48754">
        <ele>67.8</ele>
        <time>2022-08-30T08:32:19Z</time>
      </trkpt>
      <trkpt lat="43.37325" lon="-1.48755">
        <ele>67.9</ele>
        <time>2022-08-30T08:32:20Z</time>
      </trkpt>
      <trkpt lat="43.37327" lon="-1.48758">
        <ele>68.3</ele>
        <time>2022-08-30T08:32:21Z</time>
      </trkpt>
      <trkpt lat="43.37328" lon="-1.48759">
        <ele>68.4</ele>
        <time>2022-08-30T08:32:22Z</time>
      </trkpt>
      <trkpt lat="43.37331" lon="-1.48761">
        <ele>68.7</ele>
        <time>2022-08-30T08:32:23Z</time>
      </trkpt>
      <trkpt lat="43.37332" lon="-1.48762">
        <ele>68.8</ele>
        <time>2022-08-30T08:32:24Z</time>
      </trkpt>
      <trkpt lat="43.37335" lon="-1.48764">
        <ele>69.2</ele>
        <time>2022-08-30T08:32:25Z</time>
      </trkpt>
      <trkpt lat="43.37336" lon="-1.48765">
        <ele>69.3</ele>
        <time>2022-08-30T08:32:26Z</time>
      </trkpt>
      <trkpt lat="43.37339" lon="-1.48767">
        <ele>69.6</ele>
        <time>2022-08-30T08:32:27Z</time>
      </trkpt>
      <trkpt lat="43.3734" lon="-1.48768">
        <ele>69.7</ele>
        <time>2022-08-30T08:32:28Z</time>
      </trkpt>
      <trkpt lat="43.37343" lon="-1.4877">
        <ele>69.9</ele>
        <time>2022-08-30T08:32:29Z</time>
      </trkpt>
      <trkpt lat="43.37345" lon="-1.48771">
        <ele>70.2</ele>
        <time>2022-08-30T08:32:30Z</time>
      </trkpt>
      <trkpt lat="43.37348" lon="-1.48773">
        <ele>70.4</ele>
        <time>2022-08-30T08:32:31Z</time>
      </trkpt>
      <trkpt lat="43.3735" lon="-1.48775">
        <ele>70.6</ele>
        <time>2022-08-30T08:32:32Z</time>
      </trkpt>
      <trkpt lat="43.37353" lon="-1.48776">
        <ele>70.9</ele>
        <time>2022-08-30T08:32:33Z</time>
      </trkpt>
      <trkpt lat="43.37356" lon="-1.48778">
        <ele>71.1</ele>
        <time>2022-08-30T08:32:34Z</time>
      </trkpt>
      <trkpt lat="43.37357" lon="-1.48779">
        <ele>71.2</ele>
        <time>2022-08-30T08:32:35Z</time>
      </trkpt>
      <trkpt lat="43.3736" lon="-1.48781">
        <ele>71.5</ele>
        <time>2022-08-30T08:32:36Z</time>
      </trkpt>
      <trkpt lat="43.37361" lon="-1.48782">
        <ele>71.6</ele>
        <time>2022-08-30T08:32:37Z</time>
      </trkpt>
      <trkpt lat="43.37364" lon="-1.48784">
        <ele>71.8</ele>
        <time>2022-08-30T08:32:38Z</time>
      </trkpt>
      <trkpt lat="43.37366" lon="-1.48786">
        <ele>72</ele>
        <time>2022-08-30T08:32:39Z</time>
      </trkpt>
      <trkpt lat="43.3737" lon="-1.48789">
        <ele>72.3</ele>
        <time>2022-08-30T08:32:40Z</time>
      </trkpt>
      <trkpt lat="43.37371" lon="-1.48791">
        <ele>72.4</ele>
        <time>2022-08-30T08:32:41Z</time>
      </trkpt>
      <trkpt lat="43.37374" lon="-1.48793">
        <ele>72.6</ele>
        <time>2022-08-30T08:32:42Z</time>
      </trkpt>
      <trkpt lat="43.37377" lon="-1.48796">
        <ele>72.9</ele>
        <time>2022-08-30T08:32:43Z</time>
      </trkpt>
      <trkpt lat="43.37379" lon="-1.48799">
        <ele>73.1</ele>
        <time>2022-08-30T08:32:44Z</time>
      </trkpt>
      <trkpt lat="43.37382" lon="-1.48802">
        <ele>73.3</ele>
        <time>2022-08-30T08:32:45Z</time>
      </trkpt>
      <trkpt lat="43.37384" lon="-1.48804">
        <ele>73.5</ele>
        <time>2022-08-30T08:32:46Z</time>
      </trkpt>
      <trkpt lat="43.37387" lon="-1.48807">
        <ele>73.7</ele>
        <time>2022-08-30T08:32:47Z</time>
      </trkpt>
      <trkpt lat="43.3739" lon="-1.48809">
        <ele>74</ele>
        <time>2022-08-30T08:32:48Z</time>
      </trkpt>
      <trkpt lat="43.37393" lon="-1.48811">
        <ele>74.2</ele>
        <time>2022-08-30T08:32:49Z</time>
      </trkpt>
      <trkpt lat="43.37395" lon="-1.48812">
        <ele>74.4</ele>
        <time>2022-08-30T08:32:50Z</time>
      </trkpt>
      <trkpt lat="43.37398" lon="-1.48814">
        <ele>74.6</ele>
        <time>2022-08-30T08:32:51Z</time>
      </trkpt>
      <trkpt lat="43.37401" lon="-1.48817">
        <ele>75</ele>
        <time>2022-08-30T08:32:52Z</time>
      </trkpt>
      <trkpt lat="43.37403" lon="-1.48818">
        <ele>75.1</ele>
        <time>2022-08-30T08:32:53Z</time>
      </trkpt>
      <trkpt lat="43.37405" lon="-1.4882">
        <ele>75.4</ele>
        <time>2022-08-30T08:32:54Z</time>
      </trkpt>
      <trkpt lat="43.37408" lon="-1.48822">
        <ele>75.7</ele>
        <time>2022-08-30T08:32:55Z</time>
      </trkpt>
      <trkpt lat="43.37408" lon="-1.48823">
        <ele>75.8</ele>
        <time>2022-08-30T08:32:56Z</time>
      </trkpt>
      <trkpt lat="43.37411" lon="-1.48825">
        <ele>76.1</ele>
        <time>2022-08-30T08:32:57Z</time>
      </trkpt>
      <trkpt lat="43.37412" lon="-1.48826">
        <ele>76.2</ele>
        <time>2022-08-30T08:32:58Z</time>
      </trkpt>
      <trkpt lat="43.37415" lon="-1.48828">
        <ele>76.5</ele>
        <time>2022-08-30T08:32:59Z</time>
      </trkpt>
      <trkpt lat="43.37417" lon="-1.48829">
        <ele>76.6</ele>
        <time>2022-08-30T08:33:00Z</time>
      </trkpt>
      <trkpt lat="43.3742" lon="-1.48832">
        <ele>77</ele>
        <time>2022-08-30T08:33:01Z</time>
      </trkpt>
      <trkpt lat="43.37421" lon="-1.48833">
        <ele>77.1</ele>
        <time>2022-08-30T08:33:02Z</time>
      </trkpt>
      <trkpt lat="43.37423" lon="-1.48835">
        <ele>77.3</ele>
        <time>2022-08-30T08:33:03Z</time>
      </trkpt>
      <trkpt lat="43.37425" lon="-1.48837">
        <ele>77.5</ele>
        <time>2022-08-30T08:33:04Z</time>
      </trkpt>
      <trkpt lat="43.37427" lon="-1.48842">
        <ele>77.8</ele>
        <time>2022-08-30T08:33:05Z</time>
      </trkpt>
      <trkpt lat="43.37428" lon="-1.48844">
        <ele>77.9</ele>
        <time>2022-08-30T08:33:06Z</time>
      </trkpt>
      <trkpt lat="43.3743" lon="-1.48848">
        <ele>78.1</ele>
        <time>2022-08-30T08:33:07Z</time>
      </trkpt>
      <trkpt lat="43.3743" lon="-1.48849">
        <ele>78.2</ele>
        <time>2022-08-30T08:33:08Z</time>
      </trkpt>
      <trkpt lat="43.37432" lon="-1.48854">
        <ele>78.4</ele>
        <time>2022-08-30T08:33:09Z</time>
      </trkpt>
      <trkpt lat="43.37432" lon="-1.48855">
        <ele>78.4</ele>
        <time>2022-08-30T08:33:10Z</time>
      </trkpt>
      <trkpt lat="43.37434" lon="-1.48858">
        <ele>78.6</ele>
        <time>2022-08-30T08:33:11Z</time>
      </trkpt>
      <trkpt lat="43.37437" lon="-1.48862">
        <ele>78.8</ele>
        <time>2022-08-30T08:33:12Z</time>
      </trkpt>
      <trkpt lat="43.37437" lon="-1.48863">
        <ele>78.8</ele>
        <time>2022-08-30T08:33:13Z</time>
      </trkpt>
      <trkpt lat="43.37439" lon="-1.48867">
        <ele>79</ele>
        <time>2022-08-30T08:33:14Z</time>
      </trkpt>
      <trkpt lat="43.3744" lon="-1.48869">
        <ele>79</ele>
        <time>2022-08-30T08:33:15Z</time>
      </trkpt>
      <trkpt lat="43.37442" lon="-1.48873">
        <ele>79.2</ele>
        <time>2022-08-30T08:33:16Z</time>
      </trkpt>
      <trkpt lat="43.37442" lon="-1.48875">
        <ele>79.3</ele>
        <time>2022-08-30T08:33:17Z</time>
      </trkpt>
      <trkpt lat="43.37444" lon="-1.48879">
        <ele>79.5</ele>
        <time>2022-08-30T08:33:18Z</time>
      </trkpt>
      <trkpt lat="43.37444" lon="-1.48881">
        <ele>79.5</ele>
        <time>2022-08-30T08:33:19Z</time>
      </trkpt>
      <trkpt lat="43.37446" lon="-1.48885">
        <ele>79.7</ele>
        <time>2022-08-30T08:33:20Z</time>
      </trkpt>
      <trkpt lat="43.37446" lon="-1.48886">
        <ele>79.8</ele>
        <time>2022-08-30T08:33:21Z</time>
      </trkpt>
      <trkpt lat="43.37448" lon="-1.4889">
        <ele>80</ele>
        <time>2022-08-30T08:33:22Z</time>
      </trkpt>
      <trkpt lat="43.37449" lon="-1.48893">
        <ele>80.2</ele>
        <time>2022-08-30T08:33:23Z</time>
      </trkpt>
      <trkpt lat="43.3745" lon="-1.48897">
        <ele>80.5</ele>
        <time>2022-08-30T08:33:24Z</time>
      </trkpt>
      <trkpt lat="43.37452" lon="-1.489">
        <ele>80.7</ele>
        <time>2022-08-30T08:33:25Z</time>
      </trkpt>
      <trkpt lat="43.37452" lon="-1.48901">
        <ele>80.7</ele>
        <time>2022-08-30T08:33:26Z</time>
      </trkpt>
      <trkpt lat="43.37453" lon="-1.48905">
        <ele>81</ele>
        <time>2022-08-30T08:33:27Z</time>
      </trkpt>
      <trkpt lat="43.37453" lon="-1.48907">
        <ele>81.1</ele>
        <time>2022-08-30T08:33:28Z</time>
      </trkpt>
      <trkpt lat="43.37454" lon="-1.4891">
        <ele>81.2</ele>
        <time>2022-08-30T08:33:29Z</time>
      </trkpt>
      <trkpt lat="43.37455" lon="-1.48911">
        <ele>81.3</ele>
        <time>2022-08-30T08:33:30Z</time>
      </trkpt>
      <trkpt lat="43.37455" lon="-1.48912">
        <ele>81.3</ele>
        <time>2022-08-30T08:33:31Z</time>
      </trkpt>
      <trkpt lat="43.37456" lon="-1.48913">
        <ele>81.4</ele>
        <time>2022-08-30T08:33:32Z</time>
      </trkpt>
      <trkpt lat="43.37457" lon="-1.48916">
        <ele>81.6</ele>
        <time>2022-08-30T08:33:33Z</time>
      </trkpt>
      <trkpt lat="43.37458" lon="-1.48921">
        <ele>81.8</ele>
        <time>2022-08-30T08:33:34Z</time>
      </trkpt>
      <trkpt lat="43.37459" lon="-1.48922">
        <ele>81.9</ele>
        <time>2022-08-30T08:33:35Z</time>
      </trkpt>
      <trkpt lat="43.3746" lon="-1.48926">
        <ele>82.1</ele>
        <time>2022-08-30T08:33:36Z</time>
      </trkpt>
      <trkpt lat="43.3746" lon="-1.48928">
        <ele>82.1</ele>
        <time>2022-08-30T08:33:37Z</time>
      </trkpt>
      <trkpt lat="43.37461" lon="-1.48932">
        <ele>82.3</ele>
        <time>2022-08-30T08:33:38Z</time>
      </trkpt>
      <trkpt lat="43.37461" lon="-1.48933">
        <ele>82.4</ele>
        <time>2022-08-30T08:33:39Z</time>
      </trkpt>
      <trkpt lat="43.37462" lon="-1.48938">
        <ele>82.5</ele>
        <time>2022-08-30T08:33:40Z</time>
      </trkpt>
      <trkpt lat="43.37462" lon="-1.4894">
        <ele>82.6</ele>
        <time>2022-08-30T08:33:41Z</time>
      </trkpt>
      <trkpt lat="43.37463" lon="-1.48946">
        <ele>82.7</ele>
        <time>2022-08-30T08:33:42Z</time>
      </trkpt>
      <trkpt lat="43.37463" lon="-1.48948">
        <ele>82.8</ele>
        <time>2022-08-30T08:33:43Z</time>
      </trkpt>
      <trkpt lat="43.37464" lon="-1.48952">
        <ele>82.9</ele>
        <time>2022-08-30T08:33:44Z</time>
      </trkpt>
      <trkpt lat="43.37465" lon="-1.48956">
        <ele>83</ele>
        <time>2022-08-30T08:33:45Z</time>
      </trkpt>
      <trkpt lat="43.37466" lon="-1.4896">
        <ele>83</ele>
        <time>2022-08-30T08:33:46Z</time>
      </trkpt>
      <trkpt lat="43.37467" lon="-1.48964">
        <ele>83.1</ele>
        <time>2022-08-30T08:33:47Z</time>
      </trkpt>
      <trkpt lat="43.37469" lon="-1.48968">
        <ele>83.2</ele>
        <time>2022-08-30T08:33:48Z</time>
      </trkpt>
      <trkpt lat="43.37469" lon="-1.4897">
        <ele>83.2</ele>
        <time>2022-08-30T08:33:49Z</time>
      </trkpt>
      <trkpt lat="43.37471" lon="-1.48975">
        <ele>83.3</ele>
        <time>2022-08-30T08:33:50Z</time>
      </trkpt>
      <trkpt lat="43.37472" lon="-1.48976">
        <ele>83.3</ele>
        <time>2022-08-30T08:33:51Z</time>
      </trkpt>
      <trkpt lat="43.37473" lon="-1.4898">
        <ele>83.4</ele>
        <time>2022-08-30T08:33:52Z</time>
      </trkpt>
      <trkpt lat="43.37474" lon="-1.48984">
        <ele>83.4</ele>
        <time>2022-08-30T08:33:53Z</time>
      </trkpt>
      <trkpt lat="43.37476" lon="-1.48988">
        <ele>83.5</ele>
        <time>2022-08-30T08:33:54Z</time>
      </trkpt>
      <trkpt lat="43.37477" lon="-1.48993">
        <ele>83.6</ele>
        <time>2022-08-30T08:33:55Z</time>
      </trkpt>
      <trkpt lat="43.37477" lon="-1.48998">
        <ele>83.7</ele>
        <time>2022-08-30T08:33:56Z</time>
      </trkpt>
      <trkpt lat="43.37478" lon="-1.49002">
        <ele>83.8</ele>
        <time>2022-08-30T08:33:57Z</time>
      </trkpt>
      <trkpt lat="43.37479" lon="-1.49007">
        <ele>83.9</ele>
        <time>2022-08-30T08:33:58Z</time>
      </trkpt>
      <trkpt lat="43.37479" lon="-1.49011">
        <ele>84</ele>
        <time>2022-08-30T08:33:59Z</time>
      </trkpt>
      <trkpt lat="43.37479" lon="-1.49016">
        <ele>84.1</ele>
        <time>2022-08-30T08:34:00Z</time>
      </trkpt>
      <trkpt lat="43.37478" lon="-1.4902">
        <ele>84.3</ele>
        <time>2022-08-30T08:34:01Z</time>
      </trkpt>
      <trkpt lat="43.37477" lon="-1.49024">
        <ele>84.4</ele>
        <time>2022-08-30T08:34:02Z</time>
      </trkpt>
      <trkpt lat="43.37476" lon="-1.49028">
        <ele>84.6</ele>
        <time>2022-08-30T08:34:03Z</time>
      </trkpt>
      <trkpt lat="43.37475" lon="-1.49032">
        <ele>84.8</ele>
        <time>2022-08-30T08:34:04Z</time>
      </trkpt>
      <trkpt lat="43.37474" lon="-1.49036">
        <ele>85.1</ele>
        <time>2022-08-30T08:34:05Z</time>
      </trkpt>
      <trkpt lat="43.37474" lon="-1.49041">
        <ele>85.4</ele>
        <time>2022-08-30T08:34:06Z</time>
      </trkpt>
      <trkpt lat="43.37473" lon="-1.49043">
        <ele>85.5</ele>
        <time>2022-08-30T08:34:07Z</time>
      </trkpt>
      <trkpt lat="43.37473" lon="-1.49047">
        <ele>85.7</ele>
        <time>2022-08-30T08:34:08Z</time>
      </trkpt>
      <trkpt lat="43.37473" lon="-1.49052">
        <ele>86.1</ele>
        <time>2022-08-30T08:34:09Z</time>
      </trkpt>
      <trkpt lat="43.37473" lon="-1.49054">
        <ele>86.2</ele>
        <time>2022-08-30T08:34:10Z</time>
      </trkpt>
      <trkpt lat="43.37474" lon="-1.49058">
        <ele>86.6</ele>
        <time>2022-08-30T08:34:11Z</time>
      </trkpt>
      <trkpt lat="43.37475" lon="-1.49063">
        <ele>86.9</ele>
        <time>2022-08-30T08:34:12Z</time>
      </trkpt>
      <trkpt lat="43.37476" lon="-1.49067">
        <ele>87.3</ele>
        <time>2022-08-30T08:34:13Z</time>
      </trkpt>
      <trkpt lat="43.37477" lon="-1.49071">
        <ele>87.7</ele>
        <time>2022-08-30T08:34:14Z</time>
      </trkpt>
      <trkpt lat="43.37478" lon="-1.49075">
        <ele>88.1</ele>
        <time>2022-08-30T08:34:15Z</time>
      </trkpt>
      <trkpt lat="43.37479" lon="-1.49078">
        <ele>88.4</ele>
        <time>2022-08-30T08:34:16Z</time>
      </trkpt>
      <trkpt lat="43.37481" lon="-1.49083">
        <ele>88.9</ele>
        <time>2022-08-30T08:34:17Z</time>
      </trkpt>
      <trkpt lat="43.37482" lon="-1.49085">
        <ele>89.1</ele>
        <time>2022-08-30T08:34:18Z</time>
      </trkpt>
      <trkpt lat="43.37484" lon="-1.49088">
        <ele>89.4</ele>
        <time>2022-08-30T08:34:19Z</time>
      </trkpt>
      <trkpt lat="43.37486" lon="-1.49092">
        <ele>89.9</ele>
        <time>2022-08-30T08:34:20Z</time>
      </trkpt>
      <trkpt lat="43.37487" lon="-1.49093">
        <ele>90.1</ele>
        <time>2022-08-30T08:34:21Z</time>
      </trkpt>
      <trkpt lat="43.3749" lon="-1.49096">
        <ele>90.5</ele>
        <time>2022-08-30T08:34:22Z</time>
      </trkpt>
      <trkpt lat="43.37491" lon="-1.49098">
        <ele>90.7</ele>
        <time>2022-08-30T08:34:23Z</time>
      </trkpt>
      <trkpt lat="43.37494" lon="-1.49101">
        <ele>91.1</ele>
        <time>2022-08-30T08:34:24Z</time>
      </trkpt>
      <trkpt lat="43.37495" lon="-1.49102">
        <ele>91.3</ele>
        <time>2022-08-30T08:34:25Z</time>
      </trkpt>
      <trkpt lat="43.37498" lon="-1.49103">
        <ele>91.6</ele>
        <time>2022-08-30T08:34:26Z</time>
      </trkpt>
      <trkpt lat="43.37499" lon="-1.49104">
        <ele>91.8</ele>
        <time>2022-08-30T08:34:27Z</time>
      </trkpt>
      <trkpt lat="43.37502" lon="-1.49107">
        <ele>92.1</ele>
        <time>2022-08-30T08:34:28Z</time>
      </trkpt>
      <trkpt lat="43.37503" lon="-1.49108">
        <ele>92.2</ele>
        <time>2022-08-30T08:34:29Z</time>
      </trkpt>
      <trkpt lat="43.37507" lon="-1.4911">
        <ele>92.6</ele>
        <time>2022-08-30T08:34:30Z</time>
      </trkpt>
      <trkpt lat="43.37508" lon="-1.49111">
        <ele>92.7</ele>
        <time>2022-08-30T08:34:31Z</time>
      </trkpt>
      <trkpt lat="43.37511" lon="-1.49113">
        <ele>92.9</ele>
        <time>2022-08-30T08:34:32Z</time>
      </trkpt>
      <trkpt lat="43.37512" lon="-1.49114">
        <ele>93</ele>
        <time>2022-08-30T08:34:33Z</time>
      </trkpt>
      <trkpt lat="43.37514" lon="-1.49117">
        <ele>93.3</ele>
        <time>2022-08-30T08:34:34Z</time>
      </trkpt>
      <trkpt lat="43.37515" lon="-1.49118">
        <ele>93.3</ele>
        <time>2022-08-30T08:34:35Z</time>
      </trkpt>
      <trkpt lat="43.37517" lon="-1.49122">
        <ele>93.6</ele>
        <time>2022-08-30T08:34:36Z</time>
      </trkpt>
      <trkpt lat="43.37518" lon="-1.49123">
        <ele>93.7</ele>
        <time>2022-08-30T08:34:37Z</time>
      </trkpt>
      <trkpt lat="43.37521" lon="-1.49126">
        <ele>93.8</ele>
        <time>2022-08-30T08:34:38Z</time>
      </trkpt>
      <trkpt lat="43.37522" lon="-1.49128">
        <ele>93.8</ele>
        <time>2022-08-30T08:34:39Z</time>
      </trkpt>
      <trkpt lat="43.37525" lon="-1.49131">
        <ele>93.8</ele>
        <time>2022-08-30T08:34:40Z</time>
      </trkpt>
      <trkpt lat="43.37526" lon="-1.49133">
        <ele>93.8</ele>
        <time>2022-08-30T08:34:41Z</time>
      </trkpt>
      <trkpt lat="43.37529" lon="-1.49136">
        <ele>93.9</ele>
        <time>2022-08-30T08:34:42Z</time>
      </trkpt>
      <trkpt lat="43.37529" lon="-1.49138">
        <ele>93.9</ele>
        <time>2022-08-30T08:34:43Z</time>
      </trkpt>
      <trkpt lat="43.37532" lon="-1.49141">
        <ele>93.9</ele>
        <time>2022-08-30T08:34:44Z</time>
      </trkpt>
      <trkpt lat="43.37533" lon="-1.49143">
        <ele>94</ele>
        <time>2022-08-30T08:34:45Z</time>
      </trkpt>
      <trkpt lat="43.37535" lon="-1.49146">
        <ele>94</ele>
        <time>2022-08-30T08:34:46Z</time>
      </trkpt>
      <trkpt lat="43.37537" lon="-1.49148">
        <ele>94</ele>
        <time>2022-08-30T08:34:47Z</time>
      </trkpt>
      <trkpt lat="43.37539" lon="-1.49151">
        <ele>94</ele>
        <time>2022-08-30T08:34:48Z</time>
      </trkpt>
      <trkpt lat="43.37543" lon="-1.49153">
        <ele>93.9</ele>
        <time>2022-08-30T08:34:49Z</time>
      </trkpt>
      <trkpt lat="43.37545" lon="-1.49156">
        <ele>93.8</ele>
        <time>2022-08-30T08:34:50Z</time>
      </trkpt>
      <trkpt lat="43.37548" lon="-1.49158">
        <ele>93.8</ele>
        <time>2022-08-30T08:34:51Z</time>
      </trkpt>
      <trkpt lat="43.37551" lon="-1.4916">
        <ele>93.7</ele>
        <time>2022-08-30T08:34:52Z</time>
      </trkpt>
      <trkpt lat="43.37554" lon="-1.49162">
        <ele>93.6</ele>
        <time>2022-08-30T08:34:53Z</time>
      </trkpt>
      <trkpt lat="43.37556" lon="-1.49164">
        <ele>93.6</ele>
        <time>2022-08-30T08:34:54Z</time>
      </trkpt>
      <trkpt lat="43.37559" lon="-1.49166">
        <ele>93.5</ele>
        <time>2022-08-30T08:34:55Z</time>
      </trkpt>
      <trkpt lat="43.37562" lon="-1.49168">
        <ele>93.4</ele>
        <time>2022-08-30T08:34:56Z</time>
      </trkpt>
      <trkpt lat="43.37565" lon="-1.49169">
        <ele>93.3</ele>
        <time>2022-08-30T08:34:57Z</time>
      </trkpt>
      <trkpt lat="43.37568" lon="-1.49169">
        <ele>93.3</ele>
        <time>2022-08-30T08:34:58Z</time>
      </trkpt>
      <trkpt lat="43.37572" lon="-1.49169">
        <ele>93.2</ele>
        <time>2022-08-30T08:34:59Z</time>
      </trkpt>
      <trkpt lat="43.37575" lon="-1.49169">
        <ele>93.1</ele>
        <time>2022-08-30T08:35:00Z</time>
      </trkpt>
      <trkpt lat="43.37579" lon="-1.4917">
        <ele>93</ele>
        <time>2022-08-30T08:35:01Z</time>
      </trkpt>
      <trkpt lat="43.37584" lon="-1.4917">
        <ele>92.9</ele>
        <time>2022-08-30T08:35:02Z</time>
      </trkpt>
      <trkpt lat="43.37588" lon="-1.49171">
        <ele>92.8</ele>
        <time>2022-08-30T08:35:03Z</time>
      </trkpt>
      <trkpt lat="43.37592" lon="-1.49171">
        <ele>92.7</ele>
        <time>2022-08-30T08:35:04Z</time>
      </trkpt>
      <trkpt lat="43.37596" lon="-1.49171">
        <ele>92.7</ele>
        <time>2022-08-30T08:35:05Z</time>
      </trkpt>
      <trkpt lat="43.376" lon="-1.49172">
        <ele>92.7</ele>
        <time>2022-08-30T08:35:06Z</time>
      </trkpt>
      <trkpt lat="43.37603" lon="-1.49172">
        <ele>92.7</ele>
        <time>2022-08-30T08:35:07Z</time>
      </trkpt>
      <trkpt lat="43.37607" lon="-1.49173">
        <ele>92.7</ele>
        <time>2022-08-30T08:35:08Z</time>
      </trkpt>
      <trkpt lat="43.3761" lon="-1.49174">
        <ele>92.7</ele>
        <time>2022-08-30T08:35:09Z</time>
      </trkpt>
      <trkpt lat="43.37616" lon="-1.49177">
        <ele>92.9</ele>
        <time>2022-08-30T08:35:11Z</time>
      </trkpt>
      <trkpt lat="43.3762" lon="-1.49177">
        <ele>93</ele>
        <time>2022-08-30T08:35:12Z</time>
      </trkpt>
      <trkpt lat="43.37624" lon="-1.49178">
        <ele>93.1</ele>
        <time>2022-08-30T08:35:13Z</time>
      </trkpt>
      <trkpt lat="43.37627" lon="-1.49178">
        <ele>93.2</ele>
        <time>2022-08-30T08:35:14Z</time>
      </trkpt>
      <trkpt lat="43.37631" lon="-1.49177">
        <ele>93.3</ele>
        <time>2022-08-30T08:35:15Z</time>
      </trkpt>
      <trkpt lat="43.37635" lon="-1.49177">
        <ele>93.5</ele>
        <time>2022-08-30T08:35:16Z</time>
      </trkpt>
      <trkpt lat="43.37639" lon="-1.49177">
        <ele>93.6</ele>
        <time>2022-08-30T08:35:17Z</time>
      </trkpt>
      <trkpt lat="43.37644" lon="-1.49175">
        <ele>93.8</ele>
        <time>2022-08-30T08:35:18Z</time>
      </trkpt>
      <trkpt lat="43.3765" lon="-1.49174">
        <ele>93.9</ele>
        <time>2022-08-30T08:35:19Z</time>
      </trkpt>
      <trkpt lat="43.37655" lon="-1.49173">
        <ele>94</ele>
        <time>2022-08-30T08:35:20Z</time>
      </trkpt>
      <trkpt lat="43.37658" lon="-1.49173">
        <ele>94.1</ele>
        <time>2022-08-30T08:35:21Z</time>
      </trkpt>
      <trkpt lat="43.37662" lon="-1.49173">
        <ele>94.2</ele>
        <time>2022-08-30T08:35:22Z</time>
      </trkpt>
      <trkpt lat="43.37665" lon="-1.49173">
        <ele>94.3</ele>
        <time>2022-08-30T08:35:23Z</time>
      </trkpt>
      <trkpt lat="43.37669" lon="-1.49174">
        <ele>94.5</ele>
        <time>2022-08-30T08:35:24Z</time>
      </trkpt>
      <trkpt lat="43.37673" lon="-1.49174">
        <ele>94.6</ele>
        <time>2022-08-30T08:35:25Z</time>
      </trkpt>
      <trkpt lat="43.37677" lon="-1.49174">
        <ele>94.8</ele>
        <time>2022-08-30T08:35:26Z</time>
      </trkpt>
      <trkpt lat="43.37682" lon="-1.49174">
        <ele>95.1</ele>
        <time>2022-08-30T08:35:27Z</time>
      </trkpt>
      <trkpt lat="43.37686" lon="-1.49174">
        <ele>95.2</ele>
        <time>2022-08-30T08:35:28Z</time>
      </trkpt>
      <trkpt lat="43.37691" lon="-1.49174">
        <ele>95.4</ele>
        <time>2022-08-30T08:35:29Z</time>
      </trkpt>
      <trkpt lat="43.37694" lon="-1.49174">
        <ele>95.6</ele>
        <time>2022-08-30T08:35:30Z</time>
      </trkpt>
      <trkpt lat="43.37698" lon="-1.49175">
        <ele>95.7</ele>
        <time>2022-08-30T08:35:31Z</time>
      </trkpt>
      <trkpt lat="43.37701" lon="-1.49177">
        <ele>95.8</ele>
        <time>2022-08-30T08:35:32Z</time>
      </trkpt>
      <trkpt lat="43.37705" lon="-1.49178">
        <ele>95.9</ele>
        <time>2022-08-30T08:35:33Z</time>
      </trkpt>
      <trkpt lat="43.37708" lon="-1.49181">
        <ele>96</ele>
        <time>2022-08-30T08:35:34Z</time>
      </trkpt>
      <trkpt lat="43.37712" lon="-1.49182">
        <ele>96.1</ele>
        <time>2022-08-30T08:35:35Z</time>
      </trkpt>
      <trkpt lat="43.37715" lon="-1.49184">
        <ele>96.2</ele>
        <time>2022-08-30T08:35:36Z</time>
      </trkpt>
      <trkpt lat="43.37719" lon="-1.49186">
        <ele>96.3</ele>
        <time>2022-08-30T08:35:37Z</time>
      </trkpt>
      <trkpt lat="43.37722" lon="-1.49188">
        <ele>96.3</ele>
        <time>2022-08-30T08:35:38Z</time>
      </trkpt>
      <trkpt lat="43.37725" lon="-1.49189">
        <ele>96.4</ele>
        <time>2022-08-30T08:35:39Z</time>
      </trkpt>
      <trkpt lat="43.37729" lon="-1.49191">
        <ele>96.4</ele>
        <time>2022-08-30T08:35:40Z</time>
      </trkpt>
      <trkpt lat="43.37733" lon="-1.49192">
        <ele>96.4</ele>
        <time>2022-08-30T08:35:41Z</time>
      </trkpt>
      <trkpt lat="43.37736" lon="-1.49193">
        <ele>96.4</ele>
        <time>2022-08-30T08:35:42Z</time>
      </trkpt>
      <trkpt lat="43.3774" lon="-1.49194">
        <ele>96.4</ele>
        <time>2022-08-30T08:35:43Z</time>
      </trkpt>
      <trkpt lat="43.37744" lon="-1.49196">
        <ele>96.4</ele>
        <time>2022-08-30T08:35:44Z</time>
      </trkpt>
      <trkpt lat="43.37747" lon="-1.49198">
        <ele>96.3</ele>
        <time>2022-08-30T08:35:45Z</time>
      </trkpt>
      <trkpt lat="43.37751" lon="-1.492">
        <ele>96.3</ele>
        <time>2022-08-30T08:35:46Z</time>
      </trkpt>
      <trkpt lat="43.37754" lon="-1.49201">
        <ele>96.3</ele>
        <time>2022-08-30T08:35:47Z</time>
      </trkpt>
      <trkpt lat="43.37758" lon="-1.49203">
        <ele>96.3</ele>
        <time>2022-08-30T08:35:48Z</time>
      </trkpt>
      <trkpt lat="43.37761" lon="-1.49204">
        <ele>96.3</ele>
        <time>2022-08-30T08:35:49Z</time>
      </trkpt>
      <trkpt lat="43.37764" lon="-1.49206">
        <ele>96.3</ele>
        <time>2022-08-30T08:35:50Z</time>
      </trkpt>
      <trkpt lat="43.37767" lon="-1.49207">
        <ele>96.3</ele>
        <time>2022-08-30T08:35:51Z</time>
      </trkpt>
      <trkpt lat="43.3777" lon="-1.49209">
        <ele>96.3</ele>
        <time>2022-08-30T08:35:52Z</time>
      </trkpt>
      <trkpt lat="43.37774" lon="-1.49211">
        <ele>96.3</ele>
        <time>2022-08-30T08:35:53Z</time>
      </trkpt>
      <trkpt lat="43.37777" lon="-1.49213">
        <ele>96.4</ele>
        <time>2022-08-30T08:35:54Z</time>
      </trkpt>
      <trkpt lat="43.3778" lon="-1.49215">
        <ele>96.4</ele>
        <time>2022-08-30T08:35:55Z</time>
      </trkpt>
      <trkpt lat="43.37782" lon="-1.49218">
        <ele>96.5</ele>
        <time>2022-08-30T08:35:56Z</time>
      </trkpt>
      <trkpt lat="43.37785" lon="-1.49221">
        <ele>96.6</ele>
        <time>2022-08-30T08:35:57Z</time>
      </trkpt>
      <trkpt lat="43.37788" lon="-1.49223">
        <ele>96.7</ele>
        <time>2022-08-30T08:35:58Z</time>
      </trkpt>
      <trkpt lat="43.37791" lon="-1.49225">
        <ele>96.8</ele>
        <time>2022-08-30T08:35:59Z</time>
      </trkpt>
      <trkpt lat="43.37793" lon="-1.49228">
        <ele>96.9</ele>
        <time>2022-08-30T08:36:00Z</time>
      </trkpt>
      <trkpt lat="43.37795" lon="-1.49231">
        <ele>97</ele>
        <time>2022-08-30T08:36:01Z</time>
      </trkpt>
      <trkpt lat="43.37797" lon="-1.49234">
        <ele>97.1</ele>
        <time>2022-08-30T08:36:02Z</time>
      </trkpt>
      <trkpt lat="43.37799" lon="-1.49237">
        <ele>97.3</ele>
        <time>2022-08-30T08:36:03Z</time>
      </trkpt>
      <trkpt lat="43.37801" lon="-1.4924">
        <ele>97.4</ele>
        <time>2022-08-30T08:36:04Z</time>
      </trkpt>
      <trkpt lat="43.37804" lon="-1.49244">
        <ele>97.6</ele>
        <time>2022-08-30T08:36:05Z</time>
      </trkpt>
      <trkpt lat="43.37806" lon="-1.49247">
        <ele>97.8</ele>
        <time>2022-08-30T08:36:06Z</time>
      </trkpt>
      <trkpt lat="43.37809" lon="-1.4925">
        <ele>98</ele>
        <time>2022-08-30T08:36:07Z</time>
      </trkpt>
      <trkpt lat="43.37812" lon="-1.49252">
        <ele>98.1</ele>
        <time>2022-08-30T08:36:08Z</time>
      </trkpt>
      <trkpt lat="43.37815" lon="-1.49254">
        <ele>98.4</ele>
        <time>2022-08-30T08:36:09Z</time>
      </trkpt>
      <trkpt lat="43.37819" lon="-1.49256">
        <ele>98.6</ele>
        <time>2022-08-30T08:36:10Z</time>
      </trkpt>
      <trkpt lat="43.37822" lon="-1.49257">
        <ele>98.8</ele>
        <time>2022-08-30T08:36:11Z</time>
      </trkpt>
      <trkpt lat="43.37826" lon="-1.49258">
        <ele>99.1</ele>
        <time>2022-08-30T08:36:12Z</time>
      </trkpt>
      <trkpt lat="43.37829" lon="-1.49259">
        <ele>99.4</ele>
        <time>2022-08-30T08:36:13Z</time>
      </trkpt>
      <trkpt lat="43.37833" lon="-1.4926">
        <ele>99.6</ele>
        <time>2022-08-30T08:36:14Z</time>
      </trkpt>
      <trkpt lat="43.37837" lon="-1.49261">
        <ele>100</ele>
        <time>2022-08-30T08:36:15Z</time>
      </trkpt>
      <trkpt lat="43.37841" lon="-1.49262">
        <ele>100.4</ele>
        <time>2022-08-30T08:36:16Z</time>
      </trkpt>
      <trkpt lat="43.37845" lon="-1.49264">
        <ele>100.8</ele>
        <time>2022-08-30T08:36:17Z</time>
      </trkpt>
      <trkpt lat="43.37848" lon="-1.49265">
        <ele>101.1</ele>
        <time>2022-08-30T08:36:18Z</time>
      </trkpt>
      <trkpt lat="43.37851" lon="-1.49267">
        <ele>101.4</ele>
        <time>2022-08-30T08:36:19Z</time>
      </trkpt>
      <trkpt lat="43.37855" lon="-1.49268">
        <ele>101.8</ele>
        <time>2022-08-30T08:36:20Z</time>
      </trkpt>
      <trkpt lat="43.37857" lon="-1.4927">
        <ele>102.1</ele>
        <time>2022-08-30T08:36:21Z</time>
      </trkpt>
      <trkpt lat="43.3786" lon="-1.49272">
        <ele>102.5</ele>
        <time>2022-08-30T08:36:22Z</time>
      </trkpt>
      <trkpt lat="43.37862" lon="-1.49275">
        <ele>102.8</ele>
        <time>2022-08-30T08:36:23Z</time>
      </trkpt>
      <trkpt lat="43.37863" lon="-1.49278">
        <ele>103.1</ele>
        <time>2022-08-30T08:36:24Z</time>
      </trkpt>
      <trkpt lat="43.37865" lon="-1.49282">
        <ele>103.4</ele>
        <time>2022-08-30T08:36:25Z</time>
      </trkpt>
      <trkpt lat="43.37866" lon="-1.49285">
        <ele>103.7</ele>
        <time>2022-08-30T08:36:26Z</time>
      </trkpt>
      <trkpt lat="43.37867" lon="-1.4929">
        <ele>104.1</ele>
        <time>2022-08-30T08:36:27Z</time>
      </trkpt>
      <trkpt lat="43.37868" lon="-1.49292">
        <ele>104.2</ele>
        <time>2022-08-30T08:36:28Z</time>
      </trkpt>
      <trkpt lat="43.37868" lon="-1.49295">
        <ele>104.6</ele>
        <time>2022-08-30T08:36:29Z</time>
      </trkpt>
      <trkpt lat="43.37869" lon="-1.49299">
        <ele>104.9</ele>
        <time>2022-08-30T08:36:30Z</time>
      </trkpt>
      <trkpt lat="43.3787" lon="-1.49303">
        <ele>105.2</ele>
        <time>2022-08-30T08:36:31Z</time>
      </trkpt>
      <trkpt lat="43.37871" lon="-1.49307">
        <ele>105.5</ele>
        <time>2022-08-30T08:36:32Z</time>
      </trkpt>
      <trkpt lat="43.37871" lon="-1.4931">
        <ele>105.8</ele>
        <time>2022-08-30T08:36:33Z</time>
      </trkpt>
      <trkpt lat="43.37872" lon="-1.49314">
        <ele>106</ele>
        <time>2022-08-30T08:36:34Z</time>
      </trkpt>
      <trkpt lat="43.37873" lon="-1.49318">
        <ele>106.3</ele>
        <time>2022-08-30T08:36:35Z</time>
      </trkpt>
      <trkpt lat="43.37874" lon="-1.49323">
        <ele>106.7</ele>
        <time>2022-08-30T08:36:36Z</time>
      </trkpt>
      <trkpt lat="43.37875" lon="-1.49325">
        <ele>106.8</ele>
        <time>2022-08-30T08:36:37Z</time>
      </trkpt>
      <trkpt lat="43.37876" lon="-1.49328">
        <ele>107.1</ele>
        <time>2022-08-30T08:36:38Z</time>
      </trkpt>
      <trkpt lat="43.37877" lon="-1.49332">
        <ele>107.3</ele>
        <time>2022-08-30T08:36:39Z</time>
      </trkpt>
      <trkpt lat="43.37879" lon="-1.49335">
        <ele>107.6</ele>
        <time>2022-08-30T08:36:40Z</time>
      </trkpt>
      <trkpt lat="43.3788" lon="-1.49339">
        <ele>107.8</ele>
        <time>2022-08-30T08:36:41Z</time>
      </trkpt>
      <trkpt lat="43.37882" lon="-1.49344">
        <ele>108.1</ele>
        <time>2022-08-30T08:36:42Z</time>
      </trkpt>
      <trkpt lat="43.37883" lon="-1.49346">
        <ele>108.2</ele>
        <time>2022-08-30T08:36:43Z</time>
      </trkpt>
      <trkpt lat="43.37884" lon="-1.49349">
        <ele>108.4</ele>
        <time>2022-08-30T08:36:44Z</time>
      </trkpt>
      <trkpt lat="43.37885" lon="-1.49352">
        <ele>108.5</ele>
        <time>2022-08-30T08:36:45Z</time>
      </trkpt>
      <trkpt lat="43.37887" lon="-1.49356">
        <ele>108.7</ele>
        <time>2022-08-30T08:36:46Z</time>
      </trkpt>
      <trkpt lat="43.37888" lon="-1.49359">
        <ele>108.9</ele>
        <time>2022-08-30T08:36:47Z</time>
      </trkpt>
      <trkpt lat="43.3789" lon="-1.49363">
        <ele>109.1</ele>
        <time>2022-08-30T08:36:48Z</time>
      </trkpt>
      <trkpt lat="43.37891" lon="-1.49366">
        <ele>109.3</ele>
        <time>2022-08-30T08:36:49Z</time>
      </trkpt>
      <trkpt lat="43.37893" lon="-1.4937">
        <ele>109.5</ele>
        <time>2022-08-30T08:36:50Z</time>
      </trkpt>
      <trkpt lat="43.37895" lon="-1.49373">
        <ele>109.7</ele>
        <time>2022-08-30T08:36:51Z</time>
      </trkpt>
      <trkpt lat="43.37896" lon="-1.49376">
        <ele>110</ele>
        <time>2022-08-30T08:36:52Z</time>
      </trkpt>
      <trkpt lat="43.37899" lon="-1.49381">
        <ele>110.4</ele>
        <time>2022-08-30T08:36:53Z</time>
      </trkpt>
      <trkpt lat="43.37899" lon="-1.49382">
        <ele>110.5</ele>
        <time>2022-08-30T08:36:54Z</time>
      </trkpt>
      <trkpt lat="43.37901" lon="-1.49387">
        <ele>110.9</ele>
        <time>2022-08-30T08:36:55Z</time>
      </trkpt>
      <trkpt lat="43.37902" lon="-1.49388">
        <ele>111</ele>
        <time>2022-08-30T08:36:56Z</time>
      </trkpt>
      <trkpt lat="43.37904" lon="-1.49392">
        <ele>111.4</ele>
        <time>2022-08-30T08:36:57Z</time>
      </trkpt>
      <trkpt lat="43.37905" lon="-1.49394">
        <ele>111.5</ele>
        <time>2022-08-30T08:36:58Z</time>
      </trkpt>
      <trkpt lat="43.37908" lon="-1.49396">
        <ele>111.9</ele>
        <time>2022-08-30T08:36:59Z</time>
      </trkpt>
      <trkpt lat="43.37909" lon="-1.49396">
        <ele>112</ele>
        <time>2022-08-30T08:37:00Z</time>
      </trkpt>
      <trkpt lat="43.37911" lon="-1.49397">
        <ele>112.2</ele>
        <time>2022-08-30T08:37:01Z</time>
      </trkpt>
      <trkpt lat="43.37913" lon="-1.49396">
        <ele>112.3</ele>
        <time>2022-08-30T08:37:02Z</time>
      </trkpt>
      <trkpt lat="43.37915" lon="-1.49394">
        <ele>112.6</ele>
        <time>2022-08-30T08:37:03Z</time>
      </trkpt>
      <trkpt lat="43.37916" lon="-1.49393">
        <ele>112.8</ele>
        <time>2022-08-30T08:37:04Z</time>
      </trkpt>
      <trkpt lat="43.37918" lon="-1.49389">
        <ele>113.1</ele>
        <time>2022-08-30T08:37:05Z</time>
      </trkpt>
      <trkpt lat="43.37919" lon="-1.49388">
        <ele>113.2</ele>
        <time>2022-08-30T08:37:06Z</time>
      </trkpt>
      <trkpt lat="43.37919" lon="-1.49386">
        <ele>113.3</ele>
        <time>2022-08-30T08:37:07Z</time>
      </trkpt>
      <trkpt lat="43.3792" lon="-1.49384">
        <ele>113.4</ele>
        <time>2022-08-30T08:37:08Z</time>
      </trkpt>
      <trkpt lat="43.3792" lon="-1.49382">
        <ele>113.5</ele>
        <time>2022-08-30T08:37:09Z</time>
      </trkpt>
      <trkpt lat="43.37919" lon="-1.49379">
        <ele>113.7</ele>
        <time>2022-08-30T08:37:10Z</time>
      </trkpt>
      <trkpt lat="43.3792" lon="-1.49375">
        <ele>113.9</ele>
        <time>2022-08-30T08:37:11Z</time>
      </trkpt>
      <trkpt lat="43.37921" lon="-1.49373">
        <ele>114</ele>
        <time>2022-08-30T08:37:12Z</time>
      </trkpt>
      <trkpt lat="43.37922" lon="-1.49369">
        <ele>114.2</ele>
        <time>2022-08-30T08:37:13Z</time>
      </trkpt>
      <trkpt lat="43.37923" lon="-1.49368">
        <ele>114.3</ele>
        <time>2022-08-30T08:37:14Z</time>
      </trkpt>
      <trkpt lat="43.37924" lon="-1.49364">
        <ele>114.5</ele>
        <time>2022-08-30T08:37:15Z</time>
      </trkpt>
      <trkpt lat="43.37925" lon="-1.49363">
        <ele>114.6</ele>
        <time>2022-08-30T08:37:16Z</time>
      </trkpt>
      <trkpt lat="43.37926" lon="-1.49358">
        <ele>114.8</ele>
        <time>2022-08-30T08:37:17Z</time>
      </trkpt>
      <trkpt lat="43.37927" lon="-1.49356">
        <ele>114.9</ele>
        <time>2022-08-30T08:37:18Z</time>
      </trkpt>
      <trkpt lat="43.37928" lon="-1.49352">
        <ele>115.1</ele>
        <time>2022-08-30T08:37:19Z</time>
      </trkpt>
      <trkpt lat="43.37929" lon="-1.4935">
        <ele>115.1</ele>
        <time>2022-08-30T08:37:20Z</time>
      </trkpt>
      <trkpt lat="43.3793" lon="-1.49347">
        <ele>115.3</ele>
        <time>2022-08-30T08:37:21Z</time>
      </trkpt>
      <trkpt lat="43.37931" lon="-1.49346">
        <ele>115.3</ele>
        <time>2022-08-30T08:37:22Z</time>
      </trkpt>
      <trkpt lat="43.37932" lon="-1.49341">
        <ele>115.5</ele>
        <time>2022-08-30T08:37:23Z</time>
      </trkpt>
      <trkpt lat="43.37932" lon="-1.4934">
        <ele>115.6</ele>
        <time>2022-08-30T08:37:24Z</time>
      </trkpt>
      <trkpt lat="43.37933" lon="-1.49336">
        <ele>115.7</ele>
        <time>2022-08-30T08:37:25Z</time>
      </trkpt>
      <trkpt lat="43.37934" lon="-1.49334">
        <ele>115.8</ele>
        <time>2022-08-30T08:37:26Z</time>
      </trkpt>
      <trkpt lat="43.37935" lon="-1.4933">
        <ele>116</ele>
        <time>2022-08-30T08:37:27Z</time>
      </trkpt>
      <trkpt lat="43.37936" lon="-1.49329">
        <ele>116</ele>
        <time>2022-08-30T08:37:28Z</time>
      </trkpt>
      <trkpt lat="43.37937" lon="-1.49324">
        <ele>116.2</ele>
        <time>2022-08-30T08:37:29Z</time>
      </trkpt>
      <trkpt lat="43.37937" lon="-1.49322">
        <ele>116.2</ele>
        <time>2022-08-30T08:37:30Z</time>
      </trkpt>
      <trkpt lat="43.37939" lon="-1.49317">
        <ele>116.4</ele>
        <time>2022-08-30T08:37:31Z</time>
      </trkpt>
      <trkpt lat="43.37939" lon="-1.49316">
        <ele>116.5</ele>
        <time>2022-08-30T08:37:32Z</time>
      </trkpt>
      <trkpt lat="43.3794" lon="-1.49312">
        <ele>116.6</ele>
        <time>2022-08-30T08:37:33Z</time>
      </trkpt>
      <trkpt lat="43.37941" lon="-1.49307">
        <ele>116.8</ele>
        <time>2022-08-30T08:37:34Z</time>
      </trkpt>
      <trkpt lat="43.37942" lon="-1.49305">
        <ele>116.9</ele>
        <time>2022-08-30T08:37:35Z</time>
      </trkpt>
      <trkpt lat="43.37943" lon="-1.49301">
        <ele>117</ele>
        <time>2022-08-30T08:37:36Z</time>
      </trkpt>
      <trkpt lat="43.37945" lon="-1.49298">
        <ele>117.2</ele>
        <time>2022-08-30T08:37:37Z</time>
      </trkpt>
      <trkpt lat="43.37947" lon="-1.49294">
        <ele>117.3</ele>
        <time>2022-08-30T08:37:38Z</time>
      </trkpt>
      <trkpt lat="43.37949" lon="-1.49289">
        <ele>117.5</ele>
        <time>2022-08-30T08:37:39Z</time>
      </trkpt>
      <trkpt lat="43.37951" lon="-1.49286">
        <ele>117.7</ele>
        <time>2022-08-30T08:37:40Z</time>
      </trkpt>
      <trkpt lat="43.37953" lon="-1.49282">
        <ele>117.9</ele>
        <time>2022-08-30T08:37:41Z</time>
      </trkpt>
      <trkpt lat="43.37955" lon="-1.49278">
        <ele>118</ele>
        <time>2022-08-30T08:37:42Z</time>
      </trkpt>
      <trkpt lat="43.37957" lon="-1.49276">
        <ele>118.2</ele>
        <time>2022-08-30T08:37:43Z</time>
      </trkpt>
      <trkpt lat="43.37959" lon="-1.49272">
        <ele>118.4</ele>
        <time>2022-08-30T08:37:44Z</time>
      </trkpt>
      <trkpt lat="43.37961" lon="-1.4927">
        <ele>118.6</ele>
        <time>2022-08-30T08:37:45Z</time>
      </trkpt>
      <trkpt lat="43.37964" lon="-1.49268">
        <ele>118.8</ele>
        <time>2022-08-30T08:37:46Z</time>
      </trkpt>
      <trkpt lat="43.37967" lon="-1.49266">
        <ele>119</ele>
        <time>2022-08-30T08:37:47Z</time>
      </trkpt>
      <trkpt lat="43.37971" lon="-1.49264">
        <ele>119.2</ele>
        <time>2022-08-30T08:37:48Z</time>
      </trkpt>
      <trkpt lat="43.37974" lon="-1.49263">
        <ele>119.5</ele>
        <time>2022-08-30T08:37:49Z</time>
      </trkpt>
      <trkpt lat="43.37978" lon="-1.49262">
        <ele>119.8</ele>
        <time>2022-08-30T08:37:50Z</time>
      </trkpt>
      <trkpt lat="43.37981" lon="-1.49262">
        <ele>120</ele>
        <time>2022-08-30T08:37:51Z</time>
      </trkpt>
      <trkpt lat="43.37984" lon="-1.49261">
        <ele>120.2</ele>
        <time>2022-08-30T08:37:52Z</time>
      </trkpt>
      <trkpt lat="43.37987" lon="-1.49261">
        <ele>120.4</ele>
        <time>2022-08-30T08:37:53Z</time>
      </trkpt>
      <trkpt lat="43.3799" lon="-1.49262">
        <ele>120.7</ele>
        <time>2022-08-30T08:37:54Z</time>
      </trkpt>
      <trkpt lat="43.37994" lon="-1.49262">
        <ele>120.9</ele>
        <time>2022-08-30T08:37:55Z</time>
      </trkpt>
      <trkpt lat="43.37996" lon="-1.49263">
        <ele>121.1</ele>
        <time>2022-08-30T08:37:56Z</time>
      </trkpt>
      <trkpt lat="43.37999" lon="-1.49265">
        <ele>121.3</ele>
        <time>2022-08-30T08:37:57Z</time>
      </trkpt>
      <trkpt lat="43.38001" lon="-1.49267">
        <ele>121.5</ele>
        <time>2022-08-30T08:37:58Z</time>
      </trkpt>
      <trkpt lat="43.38005" lon="-1.4927">
        <ele>121.7</ele>
        <time>2022-08-30T08:37:59Z</time>
      </trkpt>
      <trkpt lat="43.38006" lon="-1.49271">
        <ele>121.8</ele>
        <time>2022-08-30T08:38:00Z</time>
      </trkpt>
      <trkpt lat="43.38008" lon="-1.49274">
        <ele>122</ele>
        <time>2022-08-30T08:38:01Z</time>
      </trkpt>
      <trkpt lat="43.3801" lon="-1.49276">
        <ele>122.1</ele>
        <time>2022-08-30T08:38:02Z</time>
      </trkpt>
      <trkpt lat="43.38014" lon="-1.49278">
        <ele>122.3</ele>
        <time>2022-08-30T08:38:03Z</time>
      </trkpt>
      <trkpt lat="43.38015" lon="-1.49279">
        <ele>122.4</ele>
        <time>2022-08-30T08:38:04Z</time>
      </trkpt>
      <trkpt lat="43.38018" lon="-1.49281">
        <ele>122.5</ele>
        <time>2022-08-30T08:38:05Z</time>
      </trkpt>
      <trkpt lat="43.38019" lon="-1.49282">
        <ele>122.6</ele>
        <time>2022-08-30T08:38:06Z</time>
      </trkpt>
      <trkpt lat="43.38022" lon="-1.49283">
        <ele>122.7</ele>
        <time>2022-08-30T08:38:07Z</time>
      </trkpt>
      <trkpt lat="43.38023" lon="-1.49284">
        <ele>122.7</ele>
        <time>2022-08-30T08:38:08Z</time>
      </trkpt>
      <trkpt lat="43.38026" lon="-1.49285">
        <ele>122.8</ele>
        <time>2022-08-30T08:38:09Z</time>
      </trkpt>
      <trkpt lat="43.38029" lon="-1.49286">
        <ele>122.9</ele>
        <time>2022-08-30T08:38:10Z</time>
      </trkpt>
      <trkpt lat="43.3803" lon="-1.49287">
        <ele>123</ele>
        <time>2022-08-30T08:38:11Z</time>
      </trkpt>
      <trkpt lat="43.38034" lon="-1.49289">
        <ele>123</ele>
        <time>2022-08-30T08:38:12Z</time>
      </trkpt>
      <trkpt lat="43.38035" lon="-1.49289">
        <ele>123.1</ele>
        <time>2022-08-30T08:38:13Z</time>
      </trkpt>
      <trkpt lat="43.38038" lon="-1.49292">
        <ele>123.1</ele>
        <time>2022-08-30T08:38:14Z</time>
      </trkpt>
      <trkpt lat="43.38039" lon="-1.49293">
        <ele>123.2</ele>
        <time>2022-08-30T08:38:15Z</time>
      </trkpt>
      <trkpt lat="43.38042" lon="-1.49296">
        <ele>123.2</ele>
        <time>2022-08-30T08:38:16Z</time>
      </trkpt>
      <trkpt lat="43.38042" lon="-1.49298">
        <ele>123.2</ele>
        <time>2022-08-30T08:38:17Z</time>
      </trkpt>
      <trkpt lat="43.38044" lon="-1.49302">
        <ele>123.3</ele>
        <time>2022-08-30T08:38:18Z</time>
      </trkpt>
      <trkpt lat="43.38044" lon="-1.49303">
        <ele>123.3</ele>
        <time>2022-08-30T08:38:19Z</time>
      </trkpt>
      <trkpt lat="43.38046" lon="-1.49307">
        <ele>123.3</ele>
        <time>2022-08-30T08:38:20Z</time>
      </trkpt>
      <trkpt lat="43.38046" lon="-1.49308">
        <ele>123.4</ele>
        <time>2022-08-30T08:38:21Z</time>
      </trkpt>
      <trkpt lat="43.38047" lon="-1.49313">
        <ele>123.4</ele>
        <time>2022-08-30T08:38:22Z</time>
      </trkpt>
      <trkpt lat="43.38048" lon="-1.49315">
        <ele>123.4</ele>
        <time>2022-08-30T08:38:23Z</time>
      </trkpt>
      <trkpt lat="43.38049" lon="-1.49319">
        <ele>123.5</ele>
        <time>2022-08-30T08:38:24Z</time>
      </trkpt>
      <trkpt lat="43.3805" lon="-1.49321">
        <ele>123.5</ele>
        <time>2022-08-30T08:38:25Z</time>
      </trkpt>
      <trkpt lat="43.38051" lon="-1.49325">
        <ele>123.6</ele>
        <time>2022-08-30T08:38:26Z</time>
      </trkpt>
      <trkpt lat="43.38052" lon="-1.49327">
        <ele>123.6</ele>
        <time>2022-08-30T08:38:27Z</time>
      </trkpt>
      <trkpt lat="43.38054" lon="-1.49331">
        <ele>123.6</ele>
        <time>2022-08-30T08:38:28Z</time>
      </trkpt>
      <trkpt lat="43.38054" lon="-1.49333">
        <ele>123.7</ele>
        <time>2022-08-30T08:38:29Z</time>
      </trkpt>
      <trkpt lat="43.38056" lon="-1.49337">
        <ele>123.7</ele>
        <time>2022-08-30T08:38:30Z</time>
      </trkpt>
      <trkpt lat="43.38057" lon="-1.49339">
        <ele>123.8</ele>
        <time>2022-08-30T08:38:31Z</time>
      </trkpt>
      <trkpt lat="43.38058" lon="-1.49344">
        <ele>123.8</ele>
        <time>2022-08-30T08:38:32Z</time>
      </trkpt>
      <trkpt lat="43.38059" lon="-1.49345">
        <ele>123.9</ele>
        <time>2022-08-30T08:38:33Z</time>
      </trkpt>
      <trkpt lat="43.38061" lon="-1.4935">
        <ele>124</ele>
        <time>2022-08-30T08:38:34Z</time>
      </trkpt>
      <trkpt lat="43.38062" lon="-1.49352">
        <ele>124</ele>
        <time>2022-08-30T08:38:35Z</time>
      </trkpt>
      <trkpt lat="43.38064" lon="-1.49357">
        <ele>124.1</ele>
        <time>2022-08-30T08:38:36Z</time>
      </trkpt>
      <trkpt lat="43.38066" lon="-1.49361">
        <ele>124.2</ele>
        <time>2022-08-30T08:38:37Z</time>
      </trkpt>
      <trkpt lat="43.38068" lon="-1.49366">
        <ele>124.4</ele>
        <time>2022-08-30T08:38:38Z</time>
      </trkpt>
      <trkpt lat="43.38071" lon="-1.4937">
        <ele>124.5</ele>
        <time>2022-08-30T08:38:39Z</time>
      </trkpt>
      <trkpt lat="43.38073" lon="-1.49375">
        <ele>124.7</ele>
        <time>2022-08-30T08:38:40Z</time>
      </trkpt>
      <trkpt lat="43.38074" lon="-1.49379">
        <ele>124.8</ele>
        <time>2022-08-30T08:38:41Z</time>
      </trkpt>
      <trkpt lat="43.38076" lon="-1.49384">
        <ele>125</ele>
        <time>2022-08-30T08:38:42Z</time>
      </trkpt>
      <trkpt lat="43.38078" lon="-1.49389">
        <ele>125.1</ele>
        <time>2022-08-30T08:38:43Z</time>
      </trkpt>
      <trkpt lat="43.3808" lon="-1.49393">
        <ele>125.2</ele>
        <time>2022-08-30T08:38:44Z</time>
      </trkpt>
      <trkpt lat="43.38082" lon="-1.49397">
        <ele>125.4</ele>
        <time>2022-08-30T08:38:45Z</time>
      </trkpt>
      <trkpt lat="43.38084" lon="-1.49401">
        <ele>125.5</ele>
        <time>2022-08-30T08:38:46Z</time>
      </trkpt>
      <trkpt lat="43.38087" lon="-1.49405">
        <ele>125.6</ele>
        <time>2022-08-30T08:38:47Z</time>
      </trkpt>
      <trkpt lat="43.38089" lon="-1.49408">
        <ele>125.7</ele>
        <time>2022-08-30T08:38:48Z</time>
      </trkpt>
      <trkpt lat="43.38091" lon="-1.49411">
        <ele>125.8</ele>
        <time>2022-08-30T08:38:49Z</time>
      </trkpt>
      <trkpt lat="43.38094" lon="-1.49414">
        <ele>125.8</ele>
        <time>2022-08-30T08:38:50Z</time>
      </trkpt>
      <trkpt lat="43.38097" lon="-1.49416">
        <ele>125.9</ele>
        <time>2022-08-30T08:38:51Z</time>
      </trkpt>
      <trkpt lat="43.38101" lon="-1.49419">
        <ele>126</ele>
        <time>2022-08-30T08:38:52Z</time>
      </trkpt>
      <trkpt lat="43.38104" lon="-1.49421">
        <ele>126.1</ele>
        <time>2022-08-30T08:38:53Z</time>
      </trkpt>
      <trkpt lat="43.38108" lon="-1.49423">
        <ele>126.2</ele>
        <time>2022-08-30T08:38:54Z</time>
      </trkpt>
      <trkpt lat="43.38111" lon="-1.49425">
        <ele>126.3</ele>
        <time>2022-08-30T08:38:55Z</time>
      </trkpt>
      <trkpt lat="43.38114" lon="-1.49427">
        <ele>126.4</ele>
        <time>2022-08-30T08:38:56Z</time>
      </trkpt>
      <trkpt lat="43.38117" lon="-1.49429">
        <ele>126.5</ele>
        <time>2022-08-30T08:38:57Z</time>
      </trkpt>
      <trkpt lat="43.38121" lon="-1.49431">
        <ele>126.6</ele>
        <time>2022-08-30T08:38:58Z</time>
      </trkpt>
      <trkpt lat="43.38124" lon="-1.49432">
        <ele>126.7</ele>
        <time>2022-08-30T08:38:59Z</time>
      </trkpt>
      <trkpt lat="43.38127" lon="-1.49434">
        <ele>126.8</ele>
        <time>2022-08-30T08:39:00Z</time>
      </trkpt>
      <trkpt lat="43.38131" lon="-1.49435">
        <ele>126.9</ele>
        <time>2022-08-30T08:39:01Z</time>
      </trkpt>
      <trkpt lat="43.38134" lon="-1.49436">
        <ele>127</ele>
        <time>2022-08-30T08:39:02Z</time>
      </trkpt>
      <trkpt lat="43.38137" lon="-1.49438">
        <ele>127.1</ele>
        <time>2022-08-30T08:39:03Z</time>
      </trkpt>
      <trkpt lat="43.3814" lon="-1.4944">
        <ele>127.1</ele>
        <time>2022-08-30T08:39:04Z</time>
      </trkpt>
      <trkpt lat="43.38144" lon="-1.49442">
        <ele>127.2</ele>
        <time>2022-08-30T08:39:05Z</time>
      </trkpt>
      <trkpt lat="43.38147" lon="-1.49444">
        <ele>127.3</ele>
        <time>2022-08-30T08:39:06Z</time>
      </trkpt>
      <trkpt lat="43.3815" lon="-1.49446">
        <ele>127.4</ele>
        <time>2022-08-30T08:39:07Z</time>
      </trkpt>
      <trkpt lat="43.38153" lon="-1.49448">
        <ele>127.5</ele>
        <time>2022-08-30T08:39:08Z</time>
      </trkpt>
      <trkpt lat="43.38156" lon="-1.4945">
        <ele>127.5</ele>
        <time>2022-08-30T08:39:09Z</time>
      </trkpt>
      <trkpt lat="43.3816" lon="-1.49451">
        <ele>127.6</ele>
        <time>2022-08-30T08:39:10Z</time>
      </trkpt>
      <trkpt lat="43.38163" lon="-1.49453">
        <ele>127.7</ele>
        <time>2022-08-30T08:39:11Z</time>
      </trkpt>
      <trkpt lat="43.38166" lon="-1.49455">
        <ele>127.8</ele>
        <time>2022-08-30T08:39:12Z</time>
      </trkpt>
      <trkpt lat="43.38169" lon="-1.49457">
        <ele>127.8</ele>
        <time>2022-08-30T08:39:13Z</time>
      </trkpt>
      <trkpt lat="43.38173" lon="-1.49458">
        <ele>127.9</ele>
        <time>2022-08-30T08:39:14Z</time>
      </trkpt>
      <trkpt lat="43.38176" lon="-1.4946">
        <ele>128</ele>
        <time>2022-08-30T08:39:15Z</time>
      </trkpt>
      <trkpt lat="43.38179" lon="-1.49462">
        <ele>128</ele>
        <time>2022-08-30T08:39:16Z</time>
      </trkpt>
      <trkpt lat="43.38182" lon="-1.49464">
        <ele>128.1</ele>
        <time>2022-08-30T08:39:17Z</time>
      </trkpt>
      <trkpt lat="43.38186" lon="-1.49466">
        <ele>128.2</ele>
        <time>2022-08-30T08:39:18Z</time>
      </trkpt>
      <trkpt lat="43.38189" lon="-1.49468">
        <ele>128.2</ele>
        <time>2022-08-30T08:39:19Z</time>
      </trkpt>
      <trkpt lat="43.38192" lon="-1.4947">
        <ele>128.3</ele>
        <time>2022-08-30T08:39:20Z</time>
      </trkpt>
      <trkpt lat="43.38195" lon="-1.49473">
        <ele>128.3</ele>
        <time>2022-08-30T08:39:21Z</time>
      </trkpt>
      <trkpt lat="43.38198" lon="-1.49476">
        <ele>128.4</ele>
        <time>2022-08-30T08:39:22Z</time>
      </trkpt>
      <trkpt lat="43.38202" lon="-1.49477">
        <ele>128.4</ele>
        <time>2022-08-30T08:39:23Z</time>
      </trkpt>
      <trkpt lat="43.38205" lon="-1.49479">
        <ele>128.5</ele>
        <time>2022-08-30T08:39:24Z</time>
      </trkpt>
      <trkpt lat="43.38208" lon="-1.49481">
        <ele>128.5</ele>
        <time>2022-08-30T08:39:25Z</time>
      </trkpt>
      <trkpt lat="43.38212" lon="-1.49483">
        <ele>128.6</ele>
        <time>2022-08-30T08:39:26Z</time>
      </trkpt>
      <trkpt lat="43.38215" lon="-1.49484">
        <ele>128.6</ele>
        <time>2022-08-30T08:39:27Z</time>
      </trkpt>
      <trkpt lat="43.38219" lon="-1.49484">
        <ele>128.7</ele>
        <time>2022-08-30T08:39:28Z</time>
      </trkpt>
      <trkpt lat="43.38222" lon="-1.49484">
        <ele>128.8</ele>
        <time>2022-08-30T08:39:29Z</time>
      </trkpt>
      <trkpt lat="43.38226" lon="-1.49483">
        <ele>128.9</ele>
        <time>2022-08-30T08:39:30Z</time>
      </trkpt>
      <trkpt lat="43.38229" lon="-1.49482">
        <ele>129</ele>
        <time>2022-08-30T08:39:31Z</time>
      </trkpt>
      <trkpt lat="43.38232" lon="-1.49481">
        <ele>129</ele>
        <time>2022-08-30T08:39:32Z</time>
      </trkpt>
      <trkpt lat="43.38235" lon="-1.49479">
        <ele>129.1</ele>
        <time>2022-08-30T08:39:33Z</time>
      </trkpt>
      <trkpt lat="43.38238" lon="-1.49476">
        <ele>129.2</ele>
        <time>2022-08-30T08:39:34Z</time>
      </trkpt>
      <trkpt lat="43.38241" lon="-1.49474">
        <ele>129.3</ele>
        <time>2022-08-30T08:39:35Z</time>
      </trkpt>
      <trkpt lat="43.38243" lon="-1.49471">
        <ele>129.3</ele>
        <time>2022-08-30T08:39:36Z</time>
      </trkpt>
      <trkpt lat="43.38246" lon="-1.49468">
        <ele>129.4</ele>
        <time>2022-08-30T08:39:37Z</time>
      </trkpt>
      <trkpt lat="43.38248" lon="-1.49465">
        <ele>129.5</ele>
        <time>2022-08-30T08:39:38Z</time>
      </trkpt>
      <trkpt lat="43.38251" lon="-1.49462">
        <ele>129.5</ele>
        <time>2022-08-30T08:39:39Z</time>
      </trkpt>
      <trkpt lat="43.38253" lon="-1.49459">
        <ele>129.6</ele>
        <time>2022-08-30T08:39:40Z</time>
      </trkpt>
      <trkpt lat="43.38256" lon="-1.49456">
        <ele>129.6</ele>
        <time>2022-08-30T08:39:41Z</time>
      </trkpt>
      <trkpt lat="43.38258" lon="-1.49453">
        <ele>129.7</ele>
        <time>2022-08-30T08:39:42Z</time>
      </trkpt>
      <trkpt lat="43.3826" lon="-1.4945">
        <ele>129.7</ele>
        <time>2022-08-30T08:39:43Z</time>
      </trkpt>
      <trkpt lat="43.38263" lon="-1.49446">
        <ele>129.8</ele>
        <time>2022-08-30T08:39:44Z</time>
      </trkpt>
      <trkpt lat="43.38265" lon="-1.49443">
        <ele>129.8</ele>
        <time>2022-08-30T08:39:45Z</time>
      </trkpt>
      <trkpt lat="43.38268" lon="-1.4944">
        <ele>129.8</ele>
        <time>2022-08-30T08:39:46Z</time>
      </trkpt>
      <trkpt lat="43.38271" lon="-1.49437">
        <ele>129.9</ele>
        <time>2022-08-30T08:39:47Z</time>
      </trkpt>
      <trkpt lat="43.38274" lon="-1.49435">
        <ele>129.9</ele>
        <time>2022-08-30T08:39:48Z</time>
      </trkpt>
      <trkpt lat="43.38277" lon="-1.49433">
        <ele>130</ele>
        <time>2022-08-30T08:39:49Z</time>
      </trkpt>
      <trkpt lat="43.38281" lon="-1.49431">
        <ele>130</ele>
        <time>2022-08-30T08:39:50Z</time>
      </trkpt>
      <trkpt lat="43.38284" lon="-1.49429">
        <ele>130</ele>
        <time>2022-08-30T08:39:51Z</time>
      </trkpt>
      <trkpt lat="43.38288" lon="-1.49429">
        <ele>130</ele>
        <time>2022-08-30T08:39:52Z</time>
      </trkpt>
      <trkpt lat="43.38291" lon="-1.49429">
        <ele>130</ele>
        <time>2022-08-30T08:39:53Z</time>
      </trkpt>
      <trkpt lat="43.38294" lon="-1.4943">
        <ele>130</ele>
        <time>2022-08-30T08:39:54Z</time>
      </trkpt>
      <trkpt lat="43.38298" lon="-1.4943">
        <ele>130</ele>
        <time>2022-08-30T08:39:55Z</time>
      </trkpt>
      <trkpt lat="43.38301" lon="-1.49431">
        <ele>130</ele>
        <time>2022-08-30T08:39:56Z</time>
      </trkpt>
      <trkpt lat="43.38305" lon="-1.49432">
        <ele>129.9</ele>
        <time>2022-08-30T08:39:57Z</time>
      </trkpt>
      <trkpt lat="43.38309" lon="-1.49435">
        <ele>129.9</ele>
        <time>2022-08-30T08:39:58Z</time>
      </trkpt>
      <trkpt lat="43.38313" lon="-1.49437">
        <ele>129.8</ele>
        <time>2022-08-30T08:39:59Z</time>
      </trkpt>
      <trkpt lat="43.38316" lon="-1.49441">
        <ele>129.7</ele>
        <time>2022-08-30T08:40:00Z</time>
      </trkpt>
      <trkpt lat="43.3832" lon="-1.49445">
        <ele>129.5</ele>
        <time>2022-08-30T08:40:01Z</time>
      </trkpt>
      <trkpt lat="43.38324" lon="-1.4945">
        <ele>129.4</ele>
        <time>2022-08-30T08:40:02Z</time>
      </trkpt>
      <trkpt lat="43.38328" lon="-1.49455">
        <ele>129.3</ele>
        <time>2022-08-30T08:40:03Z</time>
      </trkpt>
      <trkpt lat="43.38332" lon="-1.49459">
        <ele>129.2</ele>
        <time>2022-08-30T08:40:04Z</time>
      </trkpt>
      <trkpt lat="43.38336" lon="-1.49463">
        <ele>129.1</ele>
        <time>2022-08-30T08:40:05Z</time>
      </trkpt>
      <trkpt lat="43.3834" lon="-1.49467">
        <ele>129</ele>
        <time>2022-08-30T08:40:06Z</time>
      </trkpt>
      <trkpt lat="43.38343" lon="-1.4947">
        <ele>128.9</ele>
        <time>2022-08-30T08:40:07Z</time>
      </trkpt>
      <trkpt lat="43.38348" lon="-1.49474">
        <ele>128.9</ele>
        <time>2022-08-30T08:40:08Z</time>
      </trkpt>
      <trkpt lat="43.38352" lon="-1.49477">
        <ele>128.9</ele>
        <time>2022-08-30T08:40:09Z</time>
      </trkpt>
      <trkpt lat="43.38356" lon="-1.4948">
        <ele>128.9</ele>
        <time>2022-08-30T08:40:10Z</time>
      </trkpt>
      <trkpt lat="43.38359" lon="-1.49482">
        <ele>128.9</ele>
        <time>2022-08-30T08:40:11Z</time>
      </trkpt>
      <trkpt lat="43.38363" lon="-1.49484">
        <ele>128.9</ele>
        <time>2022-08-30T08:40:12Z</time>
      </trkpt>
      <trkpt lat="43.38367" lon="-1.49486">
        <ele>128.9</ele>
        <time>2022-08-30T08:40:13Z</time>
      </trkpt>
      <trkpt lat="43.38371" lon="-1.49488">
        <ele>128.9</ele>
        <time>2022-08-30T08:40:14Z</time>
      </trkpt>
      <trkpt lat="43.38374" lon="-1.4949">
        <ele>128.9</ele>
        <time>2022-08-30T08:40:15Z</time>
      </trkpt>
      <trkpt lat="43.38378" lon="-1.49492">
        <ele>129</ele>
        <time>2022-08-30T08:40:16Z</time>
      </trkpt>
      <trkpt lat="43.38382" lon="-1.49494">
        <ele>129</ele>
        <time>2022-08-30T08:40:17Z</time>
      </trkpt>
      <trkpt lat="43.38385" lon="-1.49496">
        <ele>129</ele>
        <time>2022-08-30T08:40:18Z</time>
      </trkpt>
      <trkpt lat="43.38389" lon="-1.49498">
        <ele>129.1</ele>
        <time>2022-08-30T08:40:19Z</time>
      </trkpt>
      <trkpt lat="43.38392" lon="-1.49501">
        <ele>129.1</ele>
        <time>2022-08-30T08:40:20Z</time>
      </trkpt>
      <trkpt lat="43.38395" lon="-1.49503">
        <ele>129.1</ele>
        <time>2022-08-30T08:40:21Z</time>
      </trkpt>
      <trkpt lat="43.38397" lon="-1.49505">
        <ele>129.2</ele>
        <time>2022-08-30T08:40:22Z</time>
      </trkpt>
      <trkpt lat="43.384" lon="-1.49507">
        <ele>129.2</ele>
        <time>2022-08-30T08:40:23Z</time>
      </trkpt>
      <trkpt lat="43.38402" lon="-1.49508">
        <ele>129.3</ele>
        <time>2022-08-30T08:40:24Z</time>
      </trkpt>
      <trkpt lat="43.38405" lon="-1.4951">
        <ele>129.3</ele>
        <time>2022-08-30T08:40:25Z</time>
      </trkpt>
      <trkpt lat="43.38408" lon="-1.49512">
        <ele>129.4</ele>
        <time>2022-08-30T08:40:26Z</time>
      </trkpt>
      <trkpt lat="43.38411" lon="-1.49514">
        <ele>129.4</ele>
        <time>2022-08-30T08:40:27Z</time>
      </trkpt>
      <trkpt lat="43.38414" lon="-1.49516">
        <ele>129.5</ele>
        <time>2022-08-30T08:40:28Z</time>
      </trkpt>
      <trkpt lat="43.38416" lon="-1.49518">
        <ele>129.6</ele>
        <time>2022-08-30T08:40:29Z</time>
      </trkpt>
      <trkpt lat="43.38419" lon="-1.49521">
        <ele>129.6</ele>
        <time>2022-08-30T08:40:30Z</time>
      </trkpt>
      <trkpt lat="43.38421" lon="-1.49523">
        <ele>129.7</ele>
        <time>2022-08-30T08:40:31Z</time>
      </trkpt>
      <trkpt lat="43.38424" lon="-1.49525">
        <ele>129.8</ele>
        <time>2022-08-30T08:40:32Z</time>
      </trkpt>
      <trkpt lat="43.38426" lon="-1.49527">
        <ele>129.8</ele>
        <time>2022-08-30T08:40:33Z</time>
      </trkpt>
      <trkpt lat="43.38429" lon="-1.49529">
        <ele>129.9</ele>
        <time>2022-08-30T08:40:34Z</time>
      </trkpt>
      <trkpt lat="43.38432" lon="-1.49531">
        <ele>130</ele>
        <time>2022-08-30T08:40:35Z</time>
      </trkpt>
      <trkpt lat="43.38435" lon="-1.49533">
        <ele>130.1</ele>
        <time>2022-08-30T08:40:36Z</time>
      </trkpt>
      <trkpt lat="43.38438" lon="-1.49536">
        <ele>130.2</ele>
        <time>2022-08-30T08:40:37Z</time>
      </trkpt>
      <trkpt lat="43.38442" lon="-1.49545">
        <ele>130.5</ele>
        <time>2022-08-30T08:40:39Z</time>
      </trkpt>
      <trkpt lat="43.38443" lon="-1.4955">
        <ele>130.5</ele>
        <time>2022-08-30T08:40:40Z</time>
      </trkpt>
      <trkpt lat="43.38444" lon="-1.49555">
        <ele>131</ele>
        <time>2022-08-30T08:40:41Z</time>
      </trkpt>
      <trkpt lat="43.38444" lon="-1.4956">
        <ele>130.9</ele>
        <time>2022-08-30T08:40:42Z</time>
      </trkpt>
      <trkpt lat="43.38444" lon="-1.49565">
        <ele>130.9</ele>
        <time>2022-08-30T08:40:43Z</time>
      </trkpt>
      <trkpt lat="43.38444" lon="-1.49569">
        <ele>131.3</ele>
        <time>2022-08-30T08:40:44Z</time>
      </trkpt>
      <trkpt lat="43.38444" lon="-1.49574">
        <ele>131.2</ele>
        <time>2022-08-30T08:40:45Z</time>
      </trkpt>
      <trkpt lat="43.38444" lon="-1.49579">
        <ele>131.2</ele>
        <time>2022-08-30T08:40:46Z</time>
      </trkpt>
      <trkpt lat="43.38444" lon="-1.49584">
        <ele>131.2</ele>
        <time>2022-08-30T08:40:47Z</time>
      </trkpt>
      <trkpt lat="43.38445" lon="-1.49589">
        <ele>131.3</ele>
        <time>2022-08-30T08:40:48Z</time>
      </trkpt>
      <trkpt lat="43.38445" lon="-1.49593">
        <ele>131.3</ele>
        <time>2022-08-30T08:40:49Z</time>
      </trkpt>
      <trkpt lat="43.38446" lon="-1.49598">
        <ele>131.3</ele>
        <time>2022-08-30T08:40:50Z</time>
      </trkpt>
      <trkpt lat="43.38446" lon="-1.49604">
        <ele>130.8</ele>
        <time>2022-08-30T08:40:51Z</time>
      </trkpt>
      <trkpt lat="43.38447" lon="-1.49615">
        <ele>131.6</ele>
        <time>2022-08-30T08:40:53Z</time>
      </trkpt>
      <trkpt lat="43.38448" lon="-1.4962">
        <ele>131.6</ele>
        <time>2022-08-30T08:40:54Z</time>
      </trkpt>
      <trkpt lat="43.38448" lon="-1.49625">
        <ele>131.1</ele>
        <time>2022-08-30T08:40:55Z</time>
      </trkpt>
      <trkpt lat="43.38449" lon="-1.4963">
        <ele>131.1</ele>
        <time>2022-08-30T08:40:56Z</time>
      </trkpt>
      <trkpt lat="43.3845" lon="-1.49636">
        <ele>131.1</ele>
        <time>2022-08-30T08:40:57Z</time>
      </trkpt>
      <trkpt lat="43.3845" lon="-1.49641">
        <ele>130.6</ele>
        <time>2022-08-30T08:40:58Z</time>
      </trkpt>
      <trkpt lat="43.38451" lon="-1.49646">
        <ele>130.6</ele>
        <time>2022-08-30T08:40:59Z</time>
      </trkpt>
      <trkpt lat="43.38452" lon="-1.49651">
        <ele>130.6</ele>
        <time>2022-08-30T08:41:00Z</time>
      </trkpt>
      <trkpt lat="43.38452" lon="-1.49656">
        <ele>130.4</ele>
        <time>2022-08-30T08:41:01Z</time>
      </trkpt>
      <trkpt lat="43.38452" lon="-1.49661">
        <ele>130.4</ele>
        <time>2022-08-30T08:41:02Z</time>
      </trkpt>
      <trkpt lat="43.38452" lon="-1.49665">
        <ele>130.4</ele>
        <time>2022-08-30T08:41:03Z</time>
      </trkpt>
      <trkpt lat="43.38452" lon="-1.4967">
        <ele>130.4</ele>
        <time>2022-08-30T08:41:04Z</time>
      </trkpt>
      <trkpt lat="43.38452" lon="-1.49676">
        <ele>130.4</ele>
        <time>2022-08-30T08:41:05Z</time>
      </trkpt>
      <trkpt lat="43.38452" lon="-1.49681">
        <ele>130.3</ele>
        <time>2022-08-30T08:41:06Z</time>
      </trkpt>
      <trkpt lat="43.38452" lon="-1.49686">
        <ele>130.3</ele>
        <time>2022-08-30T08:41:07Z</time>
      </trkpt>
      <trkpt lat="43.38452" lon="-1.49691">
        <ele>130.4</ele>
        <time>2022-08-30T08:41:08Z</time>
      </trkpt>
      <trkpt lat="43.38453" lon="-1.49696">
        <ele>130.4</ele>
        <time>2022-08-30T08:41:09Z</time>
      </trkpt>
      <trkpt lat="43.38454" lon="-1.49701">
        <ele>130.4</ele>
        <time>2022-08-30T08:41:10Z</time>
      </trkpt>
      <trkpt lat="43.38456" lon="-1.49705">
        <ele>130.4</ele>
        <time>2022-08-30T08:41:11Z</time>
      </trkpt>
      <trkpt lat="43.38459" lon="-1.4971">
        <ele>130.6</ele>
        <time>2022-08-30T08:41:12Z</time>
      </trkpt>
      <trkpt lat="43.38461" lon="-1.49714">
        <ele>132.1</ele>
        <time>2022-08-30T08:41:13Z</time>
      </trkpt>
      <trkpt lat="43.38462" lon="-1.49719">
        <ele>132.1</ele>
        <time>2022-08-30T08:41:14Z</time>
      </trkpt>
      <trkpt lat="43.38464" lon="-1.49723">
        <ele>132.4</ele>
        <time>2022-08-30T08:41:15Z</time>
      </trkpt>
      <trkpt lat="43.38466" lon="-1.49728">
        <ele>132.4</ele>
        <time>2022-08-30T08:41:16Z</time>
      </trkpt>
      <trkpt lat="43.38467" lon="-1.49732">
        <ele>132.4</ele>
        <time>2022-08-30T08:41:17Z</time>
      </trkpt>
      <trkpt lat="43.38468" lon="-1.49736">
        <ele>132.4</ele>
        <time>2022-08-30T08:41:18Z</time>
      </trkpt>
      <trkpt lat="43.3847" lon="-1.4974">
        <ele>132.3</ele>
        <time>2022-08-30T08:41:19Z</time>
      </trkpt>
      <trkpt lat="43.38471" lon="-1.49743">
        <ele>132.4</ele>
        <time>2022-08-30T08:41:20Z</time>
      </trkpt>
      <trkpt lat="43.38473" lon="-1.49747">
        <ele>134</ele>
        <time>2022-08-30T08:41:21Z</time>
      </trkpt>
      <trkpt lat="43.38474" lon="-1.49751">
        <ele>134</ele>
        <time>2022-08-30T08:41:22Z</time>
      </trkpt>
      <trkpt lat="43.38475" lon="-1.49755">
        <ele>134</ele>
        <time>2022-08-30T08:41:23Z</time>
      </trkpt>
      <trkpt lat="43.38476" lon="-1.49759">
        <ele>134.1</ele>
        <time>2022-08-30T08:41:24Z</time>
      </trkpt>
      <trkpt lat="43.38477" lon="-1.49763">
        <ele>134.1</ele>
        <time>2022-08-30T08:41:25Z</time>
      </trkpt>
      <trkpt lat="43.38479" lon="-1.49766">
        <ele>134.1</ele>
        <time>2022-08-30T08:41:26Z</time>
      </trkpt>
      <trkpt lat="43.3848" lon="-1.4977">
        <ele>134.1</ele>
        <time>2022-08-30T08:41:27Z</time>
      </trkpt>
      <trkpt lat="43.38481" lon="-1.49775">
        <ele>134.2</ele>
        <time>2022-08-30T08:41:28Z</time>
      </trkpt>
      <trkpt lat="43.38483" lon="-1.49779">
        <ele>134.2</ele>
        <time>2022-08-30T08:41:29Z</time>
      </trkpt>
      <trkpt lat="43.38483" lon="-1.49784">
        <ele>134.2</ele>
        <time>2022-08-30T08:41:30Z</time>
      </trkpt>
      <trkpt lat="43.38484" lon="-1.49788">
        <ele>135.5</ele>
        <time>2022-08-30T08:41:31Z</time>
      </trkpt>
      <trkpt lat="43.38485" lon="-1.49793">
        <ele>135.4</ele>
        <time>2022-08-30T08:41:32Z</time>
      </trkpt>
      <trkpt lat="43.38486" lon="-1.49798">
        <ele>135.4</ele>
        <time>2022-08-30T08:41:33Z</time>
      </trkpt>
      <trkpt lat="43.38487" lon="-1.49802">
        <ele>135.4</ele>
        <time>2022-08-30T08:41:34Z</time>
      </trkpt>
      <trkpt lat="43.38487" lon="-1.49807">
        <ele>135.4</ele>
        <time>2022-08-30T08:41:35Z</time>
      </trkpt>
      <trkpt lat="43.38487" lon="-1.49811">
        <ele>135</ele>
        <time>2022-08-30T08:41:36Z</time>
      </trkpt>
      <trkpt lat="43.38487" lon="-1.49815">
        <ele>135</ele>
        <time>2022-08-30T08:41:37Z</time>
      </trkpt>
      <trkpt lat="43.38488" lon="-1.49819">
        <ele>135</ele>
        <time>2022-08-30T08:41:38Z</time>
      </trkpt>
      <trkpt lat="43.38488" lon="-1.49822">
        <ele>135</ele>
        <time>2022-08-30T08:41:39Z</time>
      </trkpt>
      <trkpt lat="43.38488" lon="-1.49827">
        <ele>134.5</ele>
        <time>2022-08-30T08:41:40Z</time>
      </trkpt>
      <trkpt lat="43.38488" lon="-1.49831">
        <ele>134.5</ele>
        <time>2022-08-30T08:41:41Z</time>
      </trkpt>
      <trkpt lat="43.38488" lon="-1.49835">
        <ele>134.5</ele>
        <time>2022-08-30T08:41:42Z</time>
      </trkpt>
      <trkpt lat="43.38488" lon="-1.4984">
        <ele>134.5</ele>
        <time>2022-08-30T08:41:43Z</time>
      </trkpt>
      <trkpt lat="43.38488" lon="-1.49844">
        <ele>134.1</ele>
        <time>2022-08-30T08:41:44Z</time>
      </trkpt>
      <trkpt lat="43.38487" lon="-1.49848">
        <ele>134.1</ele>
        <time>2022-08-30T08:41:45Z</time>
      </trkpt>
      <trkpt lat="43.38487" lon="-1.49852">
        <ele>134.1</ele>
        <time>2022-08-30T08:41:46Z</time>
      </trkpt>
      <trkpt lat="43.38486" lon="-1.49856">
        <ele>134.1</ele>
        <time>2022-08-30T08:41:47Z</time>
      </trkpt>
      <trkpt lat="43.38485" lon="-1.49861">
        <ele>133.7</ele>
        <time>2022-08-30T08:41:48Z</time>
      </trkpt>
      <trkpt lat="43.38485" lon="-1.49865">
        <ele>133.7</ele>
        <time>2022-08-30T08:41:49Z</time>
      </trkpt>
      <trkpt lat="43.38484" lon="-1.4987">
        <ele>133.1</ele>
        <time>2022-08-30T08:41:50Z</time>
      </trkpt>
      <trkpt lat="43.38483" lon="-1.49875">
        <ele>133.1</ele>
        <time>2022-08-30T08:41:51Z</time>
      </trkpt>
      <trkpt lat="43.38483" lon="-1.4988">
        <ele>132.8</ele>
        <time>2022-08-30T08:41:52Z</time>
      </trkpt>
      <trkpt lat="43.38482" lon="-1.49886">
        <ele>132.8</ele>
        <time>2022-08-30T08:41:53Z</time>
      </trkpt>
      <trkpt lat="43.38482" lon="-1.49891">
        <ele>132.8</ele>
        <time>2022-08-30T08:41:54Z</time>
      </trkpt>
      <trkpt lat="43.38482" lon="-1.49896">
        <ele>132.4</ele>
        <time>2022-08-30T08:41:55Z</time>
      </trkpt>
      <trkpt lat="43.38483" lon="-1.49902">
        <ele>132.3</ele>
        <time>2022-08-30T08:41:56Z</time>
      </trkpt>
      <trkpt lat="43.38483" lon="-1.49907">
        <ele>132.3</ele>
        <time>2022-08-30T08:41:57Z</time>
      </trkpt>
      <trkpt lat="43.38484" lon="-1.49912">
        <ele>131.7</ele>
        <time>2022-08-30T08:41:58Z</time>
      </trkpt>
      <trkpt lat="43.38484" lon="-1.49918">
        <ele>131.7</ele>
        <time>2022-08-30T08:41:59Z</time>
      </trkpt>
      <trkpt lat="43.38484" lon="-1.49923">
        <ele>131.7</ele>
        <time>2022-08-30T08:42:00Z</time>
      </trkpt>
      <trkpt lat="43.38483" lon="-1.49928">
        <ele>131.7</ele>
        <time>2022-08-30T08:42:01Z</time>
      </trkpt>
      <trkpt lat="43.38482" lon="-1.49933">
        <ele>131</ele>
        <time>2022-08-30T08:42:02Z</time>
      </trkpt>
      <trkpt lat="43.3848" lon="-1.49937">
        <ele>131</ele>
        <time>2022-08-30T08:42:03Z</time>
      </trkpt>
      <trkpt lat="43.38476" lon="-1.4994">
        <ele>131</ele>
        <time>2022-08-30T08:42:04Z</time>
      </trkpt>
      <trkpt lat="43.38473" lon="-1.49941">
        <ele>131</ele>
        <time>2022-08-30T08:42:05Z</time>
      </trkpt>
      <trkpt lat="43.38469" lon="-1.49943">
        <ele>130.4</ele>
        <time>2022-08-30T08:42:06Z</time>
      </trkpt>
      <trkpt lat="43.38466" lon="-1.49946">
        <ele>130.4</ele>
        <time>2022-08-30T08:42:07Z</time>
      </trkpt>
      <trkpt lat="43.38462" lon="-1.49949">
        <ele>129.8</ele>
        <time>2022-08-30T08:42:08Z</time>
      </trkpt>
      <trkpt lat="43.38458" lon="-1.49952">
        <ele>129.7</ele>
        <time>2022-08-30T08:42:09Z</time>
      </trkpt>
      <trkpt lat="43.38454" lon="-1.49953">
        <ele>129.7</ele>
        <time>2022-08-30T08:42:10Z</time>
      </trkpt>
      <trkpt lat="43.38451" lon="-1.49955">
        <ele>129.7</ele>
        <time>2022-08-30T08:42:11Z</time>
      </trkpt>
      <trkpt lat="43.38448" lon="-1.49957">
        <ele>129.7</ele>
        <time>2022-08-30T08:42:12Z</time>
      </trkpt>
      <trkpt lat="43.38444" lon="-1.49959">
        <ele>129.5</ele>
        <time>2022-08-30T08:42:13Z</time>
      </trkpt>
      <trkpt lat="43.38442" lon="-1.49961">
        <ele>129.5</ele>
        <time>2022-08-30T08:42:14Z</time>
      </trkpt>
      <trkpt lat="43.3844" lon="-1.49964">
        <ele>129.2</ele>
        <time>2022-08-30T08:42:15Z</time>
      </trkpt>
      <trkpt lat="43.38438" lon="-1.49967">
        <ele>129.2</ele>
        <time>2022-08-30T08:42:16Z</time>
      </trkpt>
      <trkpt lat="43.38438" lon="-1.49971">
        <ele>129.2</ele>
        <time>2022-08-30T08:42:17Z</time>
      </trkpt>
      <trkpt lat="43.38438" lon="-1.49975">
        <ele>129.2</ele>
        <time>2022-08-30T08:42:18Z</time>
      </trkpt>
      <trkpt lat="43.38438" lon="-1.49981">
        <ele>128.8</ele>
        <time>2022-08-30T08:42:19Z</time>
      </trkpt>
      <trkpt lat="43.38438" lon="-1.49988">
        <ele>128.8</ele>
        <time>2022-08-30T08:42:20Z</time>
      </trkpt>
      <trkpt lat="43.38437" lon="-1.49994">
        <ele>128.8</ele>
        <time>2022-08-30T08:42:21Z</time>
      </trkpt>
      <trkpt lat="43.38437" lon="-1.50001">
        <ele>128.3</ele>
        <time>2022-08-30T08:42:22Z</time>
      </trkpt>
      <trkpt lat="43.38436" lon="-1.50008">
        <ele>128.3</ele>
        <time>2022-08-30T08:42:23Z</time>
      </trkpt>
      <trkpt lat="43.38436" lon="-1.50015">
        <ele>127.8</ele>
        <time>2022-08-30T08:42:24Z</time>
      </trkpt>
      <trkpt lat="43.38437" lon="-1.50021">
        <ele>127.8</ele>
        <time>2022-08-30T08:42:25Z</time>
      </trkpt>
      <trkpt lat="43.38438" lon="-1.50026">
        <ele>127.8</ele>
        <time>2022-08-30T08:42:26Z</time>
      </trkpt>
      <trkpt lat="43.3844" lon="-1.50032">
        <ele>127.8</ele>
        <time>2022-08-30T08:42:27Z</time>
      </trkpt>
      <trkpt lat="43.38443" lon="-1.50037">
        <ele>127.3</ele>
        <time>2022-08-30T08:42:28Z</time>
      </trkpt>
      <trkpt lat="43.38446" lon="-1.50044">
        <ele>127.2</ele>
        <time>2022-08-30T08:42:29Z</time>
      </trkpt>
      <trkpt lat="43.38447" lon="-1.50051">
        <ele>126.7</ele>
        <time>2022-08-30T08:42:30Z</time>
      </trkpt>
      <trkpt lat="43.38449" lon="-1.50059">
        <ele>126.7</ele>
        <time>2022-08-30T08:42:31Z</time>
      </trkpt>
      <trkpt lat="43.38449" lon="-1.50067">
        <ele>126</ele>
        <time>2022-08-30T08:42:32Z</time>
      </trkpt>
      <trkpt lat="43.38447" lon="-1.50075">
        <ele>126</ele>
        <time>2022-08-30T08:42:33Z</time>
      </trkpt>
      <trkpt lat="43.38446" lon="-1.50082">
        <ele>126</ele>
        <time>2022-08-30T08:42:34Z</time>
      </trkpt>
      <trkpt lat="43.38445" lon="-1.5009">
        <ele>125.4</ele>
        <time>2022-08-30T08:42:35Z</time>
      </trkpt>
      <trkpt lat="43.38443" lon="-1.50098">
        <ele>125.3</ele>
        <time>2022-08-30T08:42:36Z</time>
      </trkpt>
      <trkpt lat="43.38441" lon="-1.50105">
        <ele>124.7</ele>
        <time>2022-08-30T08:42:37Z</time>
      </trkpt>
      <trkpt lat="43.3844" lon="-1.50113">
        <ele>124.7</ele>
        <time>2022-08-30T08:42:38Z</time>
      </trkpt>
      <trkpt lat="43.38438" lon="-1.50121">
        <ele>123.9</ele>
        <time>2022-08-30T08:42:39Z</time>
      </trkpt>
      <trkpt lat="43.38436" lon="-1.5013">
        <ele>123.9</ele>
        <time>2022-08-30T08:42:40Z</time>
      </trkpt>
      <trkpt lat="43.38435" lon="-1.50138">
        <ele>123.1</ele>
        <time>2022-08-30T08:42:41Z</time>
      </trkpt>
      <trkpt lat="43.38433" lon="-1.50146">
        <ele>123.4</ele>
        <time>2022-08-30T08:42:42Z</time>
      </trkpt>
      <trkpt lat="43.38432" lon="-1.50153">
        <ele>122.6</ele>
        <time>2022-08-30T08:42:43Z</time>
      </trkpt>
      <trkpt lat="43.3843" lon="-1.50161">
        <ele>122.6</ele>
        <time>2022-08-30T08:42:44Z</time>
      </trkpt>
      <trkpt lat="43.38426" lon="-1.50169">
        <ele>122.6</ele>
        <time>2022-08-30T08:42:45Z</time>
      </trkpt>
      <trkpt lat="43.38423" lon="-1.50177">
        <ele>121.8</ele>
        <time>2022-08-30T08:42:46Z</time>
      </trkpt>
      <trkpt lat="43.38419" lon="-1.50187">
        <ele>121.9</ele>
        <time>2022-08-30T08:42:47Z</time>
      </trkpt>
      <trkpt lat="43.38416" lon="-1.50195">
        <ele>121.5</ele>
        <time>2022-08-30T08:42:48Z</time>
      </trkpt>
      <trkpt lat="43.38413" lon="-1.50201">
        <ele>121.5</ele>
        <time>2022-08-30T08:42:49Z</time>
      </trkpt>
      <trkpt lat="43.38409" lon="-1.50205">
        <ele>121.2</ele>
        <time>2022-08-30T08:42:50Z</time>
      </trkpt>
      <trkpt lat="43.38405" lon="-1.50209">
        <ele>121</ele>
        <time>2022-08-30T08:42:51Z</time>
      </trkpt>
      <trkpt lat="43.384" lon="-1.50211">
        <ele>121</ele>
        <time>2022-08-30T08:42:52Z</time>
      </trkpt>
      <trkpt lat="43.38396" lon="-1.50215">
        <ele>120.7</ele>
        <time>2022-08-30T08:42:53Z</time>
      </trkpt>
      <trkpt lat="43.38392" lon="-1.50217">
        <ele>120.7</ele>
        <time>2022-08-30T08:42:54Z</time>
      </trkpt>
      <trkpt lat="43.38389" lon="-1.50219">
        <ele>120.7</ele>
        <time>2022-08-30T08:42:55Z</time>
      </trkpt>
      <trkpt lat="43.38385" lon="-1.50219">
        <ele>120.6</ele>
        <time>2022-08-30T08:42:56Z</time>
      </trkpt>
      <trkpt lat="43.38383" lon="-1.50219">
        <ele>120.7</ele>
        <time>2022-08-30T08:42:57Z</time>
      </trkpt>
      <trkpt lat="43.3838" lon="-1.5022">
        <ele>120.6</ele>
        <time>2022-08-30T08:42:58Z</time>
      </trkpt>
      <trkpt lat="43.38376" lon="-1.50219">
        <ele>120.6</ele>
        <time>2022-08-30T08:42:59Z</time>
      </trkpt>
      <trkpt lat="43.38373" lon="-1.50218">
        <ele>120.6</ele>
        <time>2022-08-30T08:43:00Z</time>
      </trkpt>
      <trkpt lat="43.38369" lon="-1.50217">
        <ele>121</ele>
        <time>2022-08-30T08:43:01Z</time>
      </trkpt>
      <trkpt lat="43.38366" lon="-1.50216">
        <ele>121</ele>
        <time>2022-08-30T08:43:02Z</time>
      </trkpt>
      <trkpt lat="43.38363" lon="-1.50214">
        <ele>121</ele>
        <time>2022-08-30T08:43:03Z</time>
      </trkpt>
      <trkpt lat="43.3836" lon="-1.50212">
        <ele>121</ele>
        <time>2022-08-30T08:43:04Z</time>
      </trkpt>
      <trkpt lat="43.38356" lon="-1.50211">
        <ele>121.8</ele>
        <time>2022-08-30T08:43:05Z</time>
      </trkpt>
      <trkpt lat="43.38353" lon="-1.5021">
        <ele>121.8</ele>
        <time>2022-08-30T08:43:06Z</time>
      </trkpt>
      <trkpt lat="43.3835" lon="-1.50209">
        <ele>121.8</ele>
        <time>2022-08-30T08:43:07Z</time>
      </trkpt>
      <trkpt lat="43.38346" lon="-1.50209">
        <ele>122.7</ele>
        <time>2022-08-30T08:43:08Z</time>
      </trkpt>
      <trkpt lat="43.38342" lon="-1.50208">
        <ele>122.7</ele>
        <time>2022-08-30T08:43:09Z</time>
      </trkpt>
      <trkpt lat="43.38339" lon="-1.50208">
        <ele>122.7</ele>
        <time>2022-08-30T08:43:10Z</time>
      </trkpt>
      <trkpt lat="43.38336" lon="-1.50209">
        <ele>122.7</ele>
        <time>2022-08-30T08:43:11Z</time>
      </trkpt>
      <trkpt lat="43.38333" lon="-1.50209">
        <ele>123.1</ele>
        <time>2022-08-30T08:43:12Z</time>
      </trkpt>
      <trkpt lat="43.3833" lon="-1.5021">
        <ele>123</ele>
        <time>2022-08-30T08:43:13Z</time>
      </trkpt>
      <trkpt lat="43.38327" lon="-1.50211">
        <ele>123</ele>
        <time>2022-08-30T08:43:14Z</time>
      </trkpt>
      <trkpt lat="43.38326" lon="-1.50212">
        <ele>123</ele>
        <time>2022-08-30T08:43:15Z</time>
      </trkpt>
      <trkpt lat="43.38325" lon="-1.50217">
        <ele>123</ele>
        <time>2022-08-30T08:43:16Z</time>
      </trkpt>
      <trkpt lat="43.38325" lon="-1.50218">
        <ele>123</ele>
        <time>2022-08-30T08:43:17Z</time>
      </trkpt>
      <trkpt lat="43.38326" lon="-1.50223">
        <ele>123</ele>
        <time>2022-08-30T08:43:18Z</time>
      </trkpt>
      <trkpt lat="43.38327" lon="-1.50225">
        <ele>123</ele>
        <time>2022-08-30T08:43:19Z</time>
      </trkpt>
      <trkpt lat="43.38327" lon="-1.50229">
        <ele>123.1</ele>
        <time>2022-08-30T08:43:20Z</time>
      </trkpt>
      <trkpt lat="43.38327" lon="-1.50234">
        <ele>123.2</ele>
        <time>2022-08-30T08:43:21Z</time>
      </trkpt>
      <trkpt lat="43.38327" lon="-1.50238">
        <ele>123.3</ele>
        <time>2022-08-30T08:43:22Z</time>
      </trkpt>
      <trkpt lat="43.38327" lon="-1.50243">
        <ele>123.3</ele>
        <time>2022-08-30T08:43:23Z</time>
      </trkpt>
      <trkpt lat="43.38327" lon="-1.50247">
        <ele>123.3</ele>
        <time>2022-08-30T08:43:24Z</time>
      </trkpt>
      <trkpt lat="43.38325" lon="-1.50251">
        <ele>123.2</ele>
        <time>2022-08-30T08:43:25Z</time>
      </trkpt>
      <trkpt lat="43.38324" lon="-1.50256">
        <ele>123.1</ele>
        <time>2022-08-30T08:43:26Z</time>
      </trkpt>
      <trkpt lat="43.38324" lon="-1.50261">
        <ele>123</ele>
        <time>2022-08-30T08:43:27Z</time>
      </trkpt>
      <trkpt lat="43.38323" lon="-1.50267">
        <ele>122.8</ele>
        <time>2022-08-30T08:43:28Z</time>
      </trkpt>
      <trkpt lat="43.38322" lon="-1.50274">
        <ele>122.6</ele>
        <time>2022-08-30T08:43:29Z</time>
      </trkpt>
      <trkpt lat="43.38321" lon="-1.5028">
        <ele>122.5</ele>
        <time>2022-08-30T08:43:30Z</time>
      </trkpt>
      <trkpt lat="43.3832" lon="-1.50286">
        <ele>122.3</ele>
        <time>2022-08-30T08:43:31Z</time>
      </trkpt>
      <trkpt lat="43.38318" lon="-1.50291">
        <ele>122.2</ele>
        <time>2022-08-30T08:43:32Z</time>
      </trkpt>
      <trkpt lat="43.38317" lon="-1.50295">
        <ele>122.1</ele>
        <time>2022-08-30T08:43:33Z</time>
      </trkpt>
      <trkpt lat="43.38315" lon="-1.503">
        <ele>122</ele>
        <time>2022-08-30T08:43:34Z</time>
      </trkpt>
      <trkpt lat="43.38315" lon="-1.50301">
        <ele>121.9</ele>
        <time>2022-08-30T08:43:35Z</time>
      </trkpt>
      <trkpt lat="43.38314" lon="-1.50304">
        <ele>121.9</ele>
        <time>2022-08-30T08:43:36Z</time>
      </trkpt>
      <trkpt lat="43.38314" lon="-1.50305">
        <ele>121.9</ele>
        <time>2022-08-30T08:43:37Z</time>
      </trkpt>
      <trkpt lat="43.38313" lon="-1.50307">
        <ele>121.8</ele>
        <time>2022-08-30T08:43:38Z</time>
      </trkpt>
      <trkpt lat="43.38313" lon="-1.50311">
        <ele>121.8</ele>
        <time>2022-08-30T08:43:39Z</time>
      </trkpt>
      <trkpt lat="43.38311" lon="-1.50316">
        <ele>121.7</ele>
        <time>2022-08-30T08:43:40Z</time>
      </trkpt>
      <trkpt lat="43.38311" lon="-1.50318">
        <ele>121.7</ele>
        <time>2022-08-30T08:43:41Z</time>
      </trkpt>
      <trkpt lat="43.38309" lon="-1.50322">
        <ele>121.6</ele>
        <time>2022-08-30T08:43:42Z</time>
      </trkpt>
      <trkpt lat="43.38307" lon="-1.50325">
        <ele>121.5</ele>
        <time>2022-08-30T08:43:43Z</time>
      </trkpt>
      <trkpt lat="43.38306" lon="-1.5033">
        <ele>121.5</ele>
        <time>2022-08-30T08:43:44Z</time>
      </trkpt>
      <trkpt lat="43.38306" lon="-1.50332">
        <ele>121.5</ele>
        <time>2022-08-30T08:43:45Z</time>
      </trkpt>
      <trkpt lat="43.38304" lon="-1.50337">
        <ele>121.4</ele>
        <time>2022-08-30T08:43:46Z</time>
      </trkpt>
      <trkpt lat="43.38304" lon="-1.50338">
        <ele>121.4</ele>
        <time>2022-08-30T08:43:47Z</time>
      </trkpt>
      <trkpt lat="43.38302" lon="-1.50341">
        <ele>121.4</ele>
        <time>2022-08-30T08:43:48Z</time>
      </trkpt>
      <trkpt lat="43.383" lon="-1.50344">
        <ele>121.3</ele>
        <time>2022-08-30T08:43:49Z</time>
      </trkpt>
      <trkpt lat="43.38298" lon="-1.50349">
        <ele>121.3</ele>
        <time>2022-08-30T08:43:50Z</time>
      </trkpt>
      <trkpt lat="43.38297" lon="-1.5035">
        <ele>121.3</ele>
        <time>2022-08-30T08:43:51Z</time>
      </trkpt>
      <trkpt lat="43.38295" lon="-1.50353">
        <ele>121.2</ele>
        <time>2022-08-30T08:43:52Z</time>
      </trkpt>
      <trkpt lat="43.38293" lon="-1.50357">
        <ele>121.1</ele>
        <time>2022-08-30T08:43:53Z</time>
      </trkpt>
      <trkpt lat="43.3829" lon="-1.50361">
        <ele>121.1</ele>
        <time>2022-08-30T08:43:54Z</time>
      </trkpt>
      <trkpt lat="43.38288" lon="-1.50365">
        <ele>121</ele>
        <time>2022-08-30T08:43:55Z</time>
      </trkpt>
      <trkpt lat="43.38287" lon="-1.50369">
        <ele>121</ele>
        <time>2022-08-30T08:43:56Z</time>
      </trkpt>
      <trkpt lat="43.38285" lon="-1.50373">
        <ele>120.9</ele>
        <time>2022-08-30T08:43:57Z</time>
      </trkpt>
      <trkpt lat="43.38284" lon="-1.50377">
        <ele>120.9</ele>
        <time>2022-08-30T08:43:58Z</time>
      </trkpt>
      <trkpt lat="43.38282" lon="-1.50381">
        <ele>120.8</ele>
        <time>2022-08-30T08:43:59Z</time>
      </trkpt>
      <trkpt lat="43.38281" lon="-1.50385">
        <ele>120.8</ele>
        <time>2022-08-30T08:44:00Z</time>
      </trkpt>
      <trkpt lat="43.38278" lon="-1.50389">
        <ele>120.7</ele>
        <time>2022-08-30T08:44:01Z</time>
      </trkpt>
      <trkpt lat="43.38276" lon="-1.50393">
        <ele>120.7</ele>
        <time>2022-08-30T08:44:02Z</time>
      </trkpt>
      <trkpt lat="43.38274" lon="-1.50396">
        <ele>120.6</ele>
        <time>2022-08-30T08:44:03Z</time>
      </trkpt>
      <trkpt lat="43.38273" lon="-1.50399">
        <ele>120.6</ele>
        <time>2022-08-30T08:44:04Z</time>
      </trkpt>
      <trkpt lat="43.38271" lon="-1.50403">
        <ele>120.6</ele>
        <time>2022-08-30T08:44:05Z</time>
      </trkpt>
      <trkpt lat="43.3827" lon="-1.50404">
        <ele>120.6</ele>
        <time>2022-08-30T08:44:06Z</time>
      </trkpt>
      <trkpt lat="43.38269" lon="-1.50408">
        <ele>120.6</ele>
        <time>2022-08-30T08:44:07Z</time>
      </trkpt>
      <trkpt lat="43.38269" lon="-1.50409">
        <ele>120.6</ele>
        <time>2022-08-30T08:44:08Z</time>
      </trkpt>
      <trkpt lat="43.38267" lon="-1.50413">
        <ele>120.6</ele>
        <time>2022-08-30T08:44:09Z</time>
      </trkpt>
      <trkpt lat="43.38266" lon="-1.50414">
        <ele>120.6</ele>
        <time>2022-08-30T08:44:10Z</time>
      </trkpt>
      <trkpt lat="43.38265" lon="-1.50418">
        <ele>120.6</ele>
        <time>2022-08-30T08:44:11Z</time>
      </trkpt>
      <trkpt lat="43.38264" lon="-1.50419">
        <ele>120.6</ele>
        <time>2022-08-30T08:44:12Z</time>
      </trkpt>
      <trkpt lat="43.38263" lon="-1.50421">
        <ele>120.6</ele>
        <time>2022-08-30T08:44:13Z</time>
      </trkpt>
      <trkpt lat="43.38262" lon="-1.50422">
        <ele>120.6</ele>
        <time>2022-08-30T08:44:14Z</time>
      </trkpt>
      <trkpt lat="43.38259" lon="-1.50425">
        <ele>120.7</ele>
        <time>2022-08-30T08:44:15Z</time>
      </trkpt>
      <trkpt lat="43.38259" lon="-1.50426">
        <ele>120.7</ele>
        <time>2022-08-30T08:44:16Z</time>
      </trkpt>
      <trkpt lat="43.38257" lon="-1.50429">
        <ele>120.8</ele>
        <time>2022-08-30T08:44:17Z</time>
      </trkpt>
      <trkpt lat="43.38254" lon="-1.5043">
        <ele>120.8</ele>
        <time>2022-08-30T08:44:18Z</time>
      </trkpt>
      <trkpt lat="43.38251" lon="-1.50432">
        <ele>120.8</ele>
        <time>2022-08-30T08:44:19Z</time>
      </trkpt>
      <trkpt lat="43.38248" lon="-1.50434">
        <ele>120.9</ele>
        <time>2022-08-30T08:44:20Z</time>
      </trkpt>
      <trkpt lat="43.38247" lon="-1.50434">
        <ele>120.9</ele>
        <time>2022-08-30T08:44:21Z</time>
      </trkpt>
      <trkpt lat="43.38243" lon="-1.50435">
        <ele>121</ele>
        <time>2022-08-30T08:44:22Z</time>
      </trkpt>
      <trkpt lat="43.38242" lon="-1.50435">
        <ele>121</ele>
        <time>2022-08-30T08:44:23Z</time>
      </trkpt>
      <trkpt lat="43.38239" lon="-1.50437">
        <ele>121.1</ele>
        <time>2022-08-30T08:44:24Z</time>
      </trkpt>
      <trkpt lat="43.38238" lon="-1.50437">
        <ele>121.3</ele>
        <time>2022-08-30T08:44:25Z</time>
      </trkpt>
      <trkpt lat="43.38235" lon="-1.50436">
        <ele>121.3</ele>
        <time>2022-08-30T08:44:26Z</time>
      </trkpt>
      <trkpt lat="43.38234" lon="-1.50436">
        <ele>121.3</ele>
        <time>2022-08-30T08:44:27Z</time>
      </trkpt>
      <trkpt lat="43.3823" lon="-1.50435">
        <ele>121.3</ele>
        <time>2022-08-30T08:44:28Z</time>
      </trkpt>
      <trkpt lat="43.38229" lon="-1.50434">
        <ele>121.3</ele>
        <time>2022-08-30T08:44:29Z</time>
      </trkpt>
      <trkpt lat="43.38226" lon="-1.50433">
        <ele>121.3</ele>
        <time>2022-08-30T08:44:30Z</time>
      </trkpt>
      <trkpt lat="43.38225" lon="-1.50432">
        <ele>121.3</ele>
        <time>2022-08-30T08:44:31Z</time>
      </trkpt>
      <trkpt lat="43.38222" lon="-1.5043">
        <ele>121.3</ele>
        <time>2022-08-30T08:44:32Z</time>
      </trkpt>
      <trkpt lat="43.38221" lon="-1.5043">
        <ele>121.3</ele>
        <time>2022-08-30T08:44:33Z</time>
      </trkpt>
      <trkpt lat="43.38218" lon="-1.50429">
        <ele>121.3</ele>
        <time>2022-08-30T08:44:34Z</time>
      </trkpt>
      <trkpt lat="43.38217" lon="-1.50429">
        <ele>121.3</ele>
        <time>2022-08-30T08:44:35Z</time>
      </trkpt>
      <trkpt lat="43.38216" lon="-1.50429">
        <ele>121.3</ele>
        <time>2022-08-30T08:44:36Z</time>
      </trkpt>
      <trkpt lat="43.38214" lon="-1.50429">
        <ele>121.3</ele>
        <time>2022-08-30T08:44:37Z</time>
      </trkpt>
      <trkpt lat="43.38211" lon="-1.50427">
        <ele>121.3</ele>
        <time>2022-08-30T08:44:38Z</time>
      </trkpt>
      <trkpt lat="43.38208" lon="-1.50426">
        <ele>121.3</ele>
        <time>2022-08-30T08:44:39Z</time>
      </trkpt>
      <trkpt lat="43.38204" lon="-1.50425">
        <ele>121.3</ele>
        <time>2022-08-30T08:44:40Z</time>
      </trkpt>
      <trkpt lat="43.38203" lon="-1.50424">
        <ele>121.3</ele>
        <time>2022-08-30T08:44:41Z</time>
      </trkpt>
      <trkpt lat="43.38199" lon="-1.50424">
        <ele>121.3</ele>
        <time>2022-08-30T08:44:42Z</time>
      </trkpt>
      <trkpt lat="43.38198" lon="-1.50424">
        <ele>121.3</ele>
        <time>2022-08-30T08:44:43Z</time>
      </trkpt>
      <trkpt lat="43.38195" lon="-1.50423">
        <ele>121.3</ele>
        <time>2022-08-30T08:44:44Z</time>
      </trkpt>
      <trkpt lat="43.38194" lon="-1.50423">
        <ele>121.3</ele>
        <time>2022-08-30T08:44:45Z</time>
      </trkpt>
      <trkpt lat="43.38191" lon="-1.50423">
        <ele>121.3</ele>
        <time>2022-08-30T08:44:46Z</time>
      </trkpt>
      <trkpt lat="43.38188" lon="-1.50423">
        <ele>121.3</ele>
        <time>2022-08-30T08:44:47Z</time>
      </trkpt>
      <trkpt lat="43.38185" lon="-1.50422">
        <ele>121.3</ele>
        <time>2022-08-30T08:44:48Z</time>
      </trkpt>
      <trkpt lat="43.38182" lon="-1.50422">
        <ele>121.3</ele>
        <time>2022-08-30T08:44:49Z</time>
      </trkpt>
      <trkpt lat="43.38179" lon="-1.50422">
        <ele>121.3</ele>
        <time>2022-08-30T08:44:50Z</time>
      </trkpt>
      <trkpt lat="43.38176" lon="-1.50422">
        <ele>121.3</ele>
        <time>2022-08-30T08:44:51Z</time>
      </trkpt>
      <trkpt lat="43.38173" lon="-1.50421">
        <ele>121.4</ele>
        <time>2022-08-30T08:44:52Z</time>
      </trkpt>
      <trkpt lat="43.3817" lon="-1.5042">
        <ele>121.4</ele>
        <time>2022-08-30T08:44:53Z</time>
      </trkpt>
      <trkpt lat="43.38167" lon="-1.50419">
        <ele>121.4</ele>
        <time>2022-08-30T08:44:54Z</time>
      </trkpt>
      <trkpt lat="43.38163" lon="-1.50418">
        <ele>121.4</ele>
        <time>2022-08-30T08:44:55Z</time>
      </trkpt>
      <trkpt lat="43.38159" lon="-1.50418">
        <ele>121.4</ele>
        <time>2022-08-30T08:44:56Z</time>
      </trkpt>
      <trkpt lat="43.38156" lon="-1.50416">
        <ele>121.4</ele>
        <time>2022-08-30T08:44:57Z</time>
      </trkpt>
      <trkpt lat="43.38152" lon="-1.50415">
        <ele>121.4</ele>
        <time>2022-08-30T08:44:58Z</time>
      </trkpt>
      <trkpt lat="43.38149" lon="-1.50413">
        <ele>121.5</ele>
        <time>2022-08-30T08:44:59Z</time>
      </trkpt>
      <trkpt lat="43.38146" lon="-1.50411">
        <ele>121.5</ele>
        <time>2022-08-30T08:45:00Z</time>
      </trkpt>
      <trkpt lat="43.38143" lon="-1.50409">
        <ele>121.5</ele>
        <time>2022-08-30T08:45:01Z</time>
      </trkpt>
      <trkpt lat="43.3814" lon="-1.50408">
        <ele>121.5</ele>
        <time>2022-08-30T08:45:02Z</time>
      </trkpt>
      <trkpt lat="43.38137" lon="-1.50407">
        <ele>121.5</ele>
        <time>2022-08-30T08:45:03Z</time>
      </trkpt>
      <trkpt lat="43.38133" lon="-1.50407">
        <ele>121.5</ele>
        <time>2022-08-30T08:45:04Z</time>
      </trkpt>
      <trkpt lat="43.38131" lon="-1.50407">
        <ele>121.5</ele>
        <time>2022-08-30T08:45:05Z</time>
      </trkpt>
      <trkpt lat="43.38129" lon="-1.50407">
        <ele>121.5</ele>
        <time>2022-08-30T08:45:06Z</time>
      </trkpt>
      <trkpt lat="43.38126" lon="-1.50408">
        <ele>121.5</ele>
        <time>2022-08-30T08:45:07Z</time>
      </trkpt>
      <trkpt lat="43.38122" lon="-1.50408">
        <ele>121.5</ele>
        <time>2022-08-30T08:45:08Z</time>
      </trkpt>
      <trkpt lat="43.38119" lon="-1.50408">
        <ele>121.5</ele>
        <time>2022-08-30T08:45:09Z</time>
      </trkpt>
      <trkpt lat="43.38116" lon="-1.50408">
        <ele>121.5</ele>
        <time>2022-08-30T08:45:10Z</time>
      </trkpt>
      <trkpt lat="43.38113" lon="-1.50409">
        <ele>121.5</ele>
        <time>2022-08-30T08:45:11Z</time>
      </trkpt>
      <trkpt lat="43.3811" lon="-1.50408">
        <ele>121.5</ele>
        <time>2022-08-30T08:45:12Z</time>
      </trkpt>
      <trkpt lat="43.38107" lon="-1.50408">
        <ele>121.6</ele>
        <time>2022-08-30T08:45:13Z</time>
      </trkpt>
      <trkpt lat="43.38104" lon="-1.50407">
        <ele>121.6</ele>
        <time>2022-08-30T08:45:14Z</time>
      </trkpt>
      <trkpt lat="43.381" lon="-1.50407">
        <ele>121.6</ele>
        <time>2022-08-30T08:45:15Z</time>
      </trkpt>
      <trkpt lat="43.38097" lon="-1.50406">
        <ele>121.6</ele>
        <time>2022-08-30T08:45:16Z</time>
      </trkpt>
      <trkpt lat="43.38094" lon="-1.50406">
        <ele>121.6</ele>
        <time>2022-08-30T08:45:17Z</time>
      </trkpt>
      <trkpt lat="43.38091" lon="-1.50406">
        <ele>121.7</ele>
        <time>2022-08-30T08:45:18Z</time>
      </trkpt>
      <trkpt lat="43.38087" lon="-1.50406">
        <ele>121.7</ele>
        <time>2022-08-30T08:45:19Z</time>
      </trkpt>
      <trkpt lat="43.38084" lon="-1.50407">
        <ele>121.7</ele>
        <time>2022-08-30T08:45:20Z</time>
      </trkpt>
      <trkpt lat="43.38081" lon="-1.50408">
        <ele>121.7</ele>
        <time>2022-08-30T08:45:21Z</time>
      </trkpt>
      <trkpt lat="43.38078" lon="-1.50409">
        <ele>121.7</ele>
        <time>2022-08-30T08:45:22Z</time>
      </trkpt>
      <trkpt lat="43.38075" lon="-1.50411">
        <ele>121.8</ele>
        <time>2022-08-30T08:45:23Z</time>
      </trkpt>
      <trkpt lat="43.38072" lon="-1.50413">
        <ele>121.8</ele>
        <time>2022-08-30T08:45:24Z</time>
      </trkpt>
      <trkpt lat="43.38068" lon="-1.50415">
        <ele>121.8</ele>
        <time>2022-08-30T08:45:25Z</time>
      </trkpt>
      <trkpt lat="43.38064" lon="-1.50416">
        <ele>121.8</ele>
        <time>2022-08-30T08:45:26Z</time>
      </trkpt>
      <trkpt lat="43.3806" lon="-1.50417">
        <ele>121.8</ele>
        <time>2022-08-30T08:45:27Z</time>
      </trkpt>
      <trkpt lat="43.38056" lon="-1.50418">
        <ele>121.9</ele>
        <time>2022-08-30T08:45:28Z</time>
      </trkpt>
      <trkpt lat="43.38051" lon="-1.50418">
        <ele>121.9</ele>
        <time>2022-08-30T08:45:29Z</time>
      </trkpt>
      <trkpt lat="43.38047" lon="-1.50418">
        <ele>122</ele>
        <time>2022-08-30T08:45:30Z</time>
      </trkpt>
      <trkpt lat="43.38043" lon="-1.50417">
        <ele>122.1</ele>
        <time>2022-08-30T08:45:31Z</time>
      </trkpt>
      <trkpt lat="43.38038" lon="-1.50418">
        <ele>122.1</ele>
        <time>2022-08-30T08:45:32Z</time>
      </trkpt>
      <trkpt lat="43.38033" lon="-1.50419">
        <ele>122.2</ele>
        <time>2022-08-30T08:45:33Z</time>
      </trkpt>
      <trkpt lat="43.38029" lon="-1.50419">
        <ele>122.3</ele>
        <time>2022-08-30T08:45:34Z</time>
      </trkpt>
      <trkpt lat="43.38025" lon="-1.5042">
        <ele>122.4</ele>
        <time>2022-08-30T08:45:35Z</time>
      </trkpt>
      <trkpt lat="43.38022" lon="-1.50421">
        <ele>122.4</ele>
        <time>2022-08-30T08:45:36Z</time>
      </trkpt>
      <trkpt lat="43.38018" lon="-1.50422">
        <ele>122.5</ele>
        <time>2022-08-30T08:45:37Z</time>
      </trkpt>
      <trkpt lat="43.38014" lon="-1.50423">
        <ele>122.5</ele>
        <time>2022-08-30T08:45:38Z</time>
      </trkpt>
      <trkpt lat="43.3801" lon="-1.50424">
        <ele>122.6</ele>
        <time>2022-08-30T08:45:39Z</time>
      </trkpt>
      <trkpt lat="43.38005" lon="-1.50426">
        <ele>122.7</ele>
        <time>2022-08-30T08:45:40Z</time>
      </trkpt>
      <trkpt lat="43.38001" lon="-1.50428">
        <ele>122.8</ele>
        <time>2022-08-30T08:45:41Z</time>
      </trkpt>
      <trkpt lat="43.37997" lon="-1.5043">
        <ele>122.9</ele>
        <time>2022-08-30T08:45:42Z</time>
      </trkpt>
      <trkpt lat="43.37993" lon="-1.50433">
        <ele>123</ele>
        <time>2022-08-30T08:45:43Z</time>
      </trkpt>
      <trkpt lat="43.37988" lon="-1.50435">
        <ele>123.1</ele>
        <time>2022-08-30T08:45:44Z</time>
      </trkpt>
      <trkpt lat="43.37983" lon="-1.50436">
        <ele>123.2</ele>
        <time>2022-08-30T08:45:45Z</time>
      </trkpt>
      <trkpt lat="43.37978" lon="-1.50438">
        <ele>123.3</ele>
        <time>2022-08-30T08:45:46Z</time>
      </trkpt>
      <trkpt lat="43.37973" lon="-1.50439">
        <ele>123.4</ele>
        <time>2022-08-30T08:45:47Z</time>
      </trkpt>
      <trkpt lat="43.3797" lon="-1.50439">
        <ele>123.4</ele>
        <time>2022-08-30T08:45:48Z</time>
      </trkpt>
      <trkpt lat="43.37966" lon="-1.50439">
        <ele>123.5</ele>
        <time>2022-08-30T08:45:49Z</time>
      </trkpt>
      <trkpt lat="43.37963" lon="-1.50438">
        <ele>123.6</ele>
        <time>2022-08-30T08:45:50Z</time>
      </trkpt>
      <trkpt lat="43.3796" lon="-1.50436">
        <ele>123.6</ele>
        <time>2022-08-30T08:45:51Z</time>
      </trkpt>
      <trkpt lat="43.37956" lon="-1.50435">
        <ele>123.7</ele>
        <time>2022-08-30T08:45:52Z</time>
      </trkpt>
      <trkpt lat="43.37952" lon="-1.50433">
        <ele>123.8</ele>
        <time>2022-08-30T08:45:53Z</time>
      </trkpt>
      <trkpt lat="43.37949" lon="-1.5043">
        <ele>123.9</ele>
        <time>2022-08-30T08:45:54Z</time>
      </trkpt>
      <trkpt lat="43.37945" lon="-1.50427">
        <ele>124</ele>
        <time>2022-08-30T08:45:55Z</time>
      </trkpt>
      <trkpt lat="43.37942" lon="-1.50424">
        <ele>124.1</ele>
        <time>2022-08-30T08:45:56Z</time>
      </trkpt>
      <trkpt lat="43.37939" lon="-1.50423">
        <ele>124.1</ele>
        <time>2022-08-30T08:45:57Z</time>
      </trkpt>
      <trkpt lat="43.37936" lon="-1.50421">
        <ele>124.2</ele>
        <time>2022-08-30T08:45:58Z</time>
      </trkpt>
      <trkpt lat="43.37932" lon="-1.5042">
        <ele>124.3</ele>
        <time>2022-08-30T08:45:59Z</time>
      </trkpt>
      <trkpt lat="43.37931" lon="-1.50419">
        <ele>124.3</ele>
        <time>2022-08-30T08:46:00Z</time>
      </trkpt>
      <trkpt lat="43.37928" lon="-1.50417">
        <ele>124.2</ele>
        <time>2022-08-30T08:46:01Z</time>
      </trkpt>
      <trkpt lat="43.37924" lon="-1.50415">
        <ele>124.1</ele>
        <time>2022-08-30T08:46:02Z</time>
      </trkpt>
      <trkpt lat="43.37921" lon="-1.50413">
        <ele>123.9</ele>
        <time>2022-08-30T08:46:03Z</time>
      </trkpt>
      <trkpt lat="43.37919" lon="-1.5041">
        <ele>123.8</ele>
        <time>2022-08-30T08:46:04Z</time>
      </trkpt>
      <trkpt lat="43.37916" lon="-1.50408">
        <ele>123.6</ele>
        <time>2022-08-30T08:46:05Z</time>
      </trkpt>
      <trkpt lat="43.37913" lon="-1.50407">
        <ele>123.4</ele>
        <time>2022-08-30T08:46:06Z</time>
      </trkpt>
      <trkpt lat="43.3791" lon="-1.50406">
        <ele>123.2</ele>
        <time>2022-08-30T08:46:07Z</time>
      </trkpt>
      <trkpt lat="43.37906" lon="-1.50407">
        <ele>122.9</ele>
        <time>2022-08-30T08:46:08Z</time>
      </trkpt>
      <trkpt lat="43.37905" lon="-1.50407">
        <ele>122.8</ele>
        <time>2022-08-30T08:46:09Z</time>
      </trkpt>
      <trkpt lat="43.37904" lon="-1.50411">
        <ele>122.6</ele>
        <time>2022-08-30T08:46:10Z</time>
      </trkpt>
      <trkpt lat="43.37904" lon="-1.50413">
        <ele>122.5</ele>
        <time>2022-08-30T08:46:11Z</time>
      </trkpt>
      <trkpt lat="43.37902" lon="-1.50416">
        <ele>122.2</ele>
        <time>2022-08-30T08:46:12Z</time>
      </trkpt>
      <trkpt lat="43.37898" lon="-1.50418">
        <ele>121.9</ele>
        <time>2022-08-30T08:46:13Z</time>
      </trkpt>
      <trkpt lat="43.37897" lon="-1.50418">
        <ele>121.7</ele>
        <time>2022-08-30T08:46:14Z</time>
      </trkpt>
      <trkpt lat="43.37894" lon="-1.50417">
        <ele>121.4</ele>
        <time>2022-08-30T08:46:15Z</time>
      </trkpt>
      <trkpt lat="43.37891" lon="-1.50415">
        <ele>121.1</ele>
        <time>2022-08-30T08:46:16Z</time>
      </trkpt>
      <trkpt lat="43.37889" lon="-1.50413">
        <ele>120.8</ele>
        <time>2022-08-30T08:46:17Z</time>
      </trkpt>
      <trkpt lat="43.37885" lon="-1.50411">
        <ele>120.4</ele>
        <time>2022-08-30T08:46:18Z</time>
      </trkpt>
      <trkpt lat="43.37881" lon="-1.50408">
        <ele>119.9</ele>
        <time>2022-08-30T08:46:19Z</time>
      </trkpt>
      <trkpt lat="43.37876" lon="-1.50406">
        <ele>119.4</ele>
        <time>2022-08-30T08:46:20Z</time>
      </trkpt>
      <trkpt lat="43.37872" lon="-1.50404">
        <ele>119</ele>
        <time>2022-08-30T08:46:21Z</time>
      </trkpt>
      <trkpt lat="43.37868" lon="-1.50402">
        <ele>118.6</ele>
        <time>2022-08-30T08:46:22Z</time>
      </trkpt>
      <trkpt lat="43.37864" lon="-1.504">
        <ele>118.2</ele>
        <time>2022-08-30T08:46:23Z</time>
      </trkpt>
      <trkpt lat="43.37859" lon="-1.50398">
        <ele>117.8</ele>
        <time>2022-08-30T08:46:24Z</time>
      </trkpt>
      <trkpt lat="43.37853" lon="-1.50396">
        <ele>117.3</ele>
        <time>2022-08-30T08:46:25Z</time>
      </trkpt>
      <trkpt lat="43.37847" lon="-1.50394">
        <ele>116.8</ele>
        <time>2022-08-30T08:46:26Z</time>
      </trkpt>
      <trkpt lat="43.37841" lon="-1.50392">
        <ele>116.3</ele>
        <time>2022-08-30T08:46:27Z</time>
      </trkpt>
      <trkpt lat="43.37835" lon="-1.50389">
        <ele>116.3</ele>
        <time>2022-08-30T08:46:28Z</time>
      </trkpt>
      <trkpt lat="43.37829" lon="-1.50387">
        <ele>115.7</ele>
        <time>2022-08-30T08:46:29Z</time>
      </trkpt>
      <trkpt lat="43.37823" lon="-1.50385">
        <ele>115.6</ele>
        <time>2022-08-30T08:46:30Z</time>
      </trkpt>
      <trkpt lat="43.37817" lon="-1.50383">
        <ele>114.7</ele>
        <time>2022-08-30T08:46:31Z</time>
      </trkpt>
      <trkpt lat="43.37811" lon="-1.50382">
        <ele>114.7</ele>
        <time>2022-08-30T08:46:32Z</time>
      </trkpt>
      <trkpt lat="43.37806" lon="-1.5038">
        <ele>113.4</ele>
        <time>2022-08-30T08:46:33Z</time>
      </trkpt>
      <trkpt lat="43.37801" lon="-1.5038">
        <ele>113.3</ele>
        <time>2022-08-30T08:46:34Z</time>
      </trkpt>
      <trkpt lat="43.37796" lon="-1.5038">
        <ele>112.1</ele>
        <time>2022-08-30T08:46:35Z</time>
      </trkpt>
      <trkpt lat="43.37792" lon="-1.50381">
        <ele>112</ele>
        <time>2022-08-30T08:46:36Z</time>
      </trkpt>
      <trkpt lat="43.37789" lon="-1.5038">
        <ele>111.9</ele>
        <time>2022-08-30T08:46:37Z</time>
      </trkpt>
      <trkpt lat="43.37786" lon="-1.5038">
        <ele>111.9</ele>
        <time>2022-08-30T08:46:38Z</time>
      </trkpt>
      <trkpt lat="43.37785" lon="-1.5038">
        <ele>110.7</ele>
        <time>2022-08-30T08:46:39Z</time>
      </trkpt>
      <trkpt lat="43.37783" lon="-1.5038">
        <ele>110.7</ele>
        <time>2022-08-30T08:46:40Z</time>
      </trkpt>
      <trkpt lat="43.37781" lon="-1.5038">
        <ele>110.6</ele>
        <time>2022-08-30T08:46:41Z</time>
      </trkpt>
      <trkpt lat="43.37779" lon="-1.50384">
        <ele>110.5</ele>
        <time>2022-08-30T08:46:42Z</time>
      </trkpt>
      <trkpt lat="43.37778" lon="-1.50386">
        <ele>110.5</ele>
        <time>2022-08-30T08:46:43Z</time>
      </trkpt>
      <trkpt lat="43.37778" lon="-1.50391">
        <ele>110.4</ele>
        <time>2022-08-30T08:46:44Z</time>
      </trkpt>
      <trkpt lat="43.37778" lon="-1.50393">
        <ele>110.5</ele>
        <time>2022-08-30T08:46:45Z</time>
      </trkpt>
      <trkpt lat="43.37779" lon="-1.50398">
        <ele>110.6</ele>
        <time>2022-08-30T08:46:46Z</time>
      </trkpt>
      <trkpt lat="43.3778" lon="-1.50399">
        <ele>110.7</ele>
        <time>2022-08-30T08:46:47Z</time>
      </trkpt>
      <trkpt lat="43.37782" lon="-1.50404">
        <ele>110.9</ele>
        <time>2022-08-30T08:46:48Z</time>
      </trkpt>
      <trkpt lat="43.37782" lon="-1.50406">
        <ele>111</ele>
        <time>2022-08-30T08:46:49Z</time>
      </trkpt>
      <trkpt lat="43.37784" lon="-1.50411">
        <ele>111.2</ele>
        <time>2022-08-30T08:46:50Z</time>
      </trkpt>
      <trkpt lat="43.37785" lon="-1.50416">
        <ele>111.5</ele>
        <time>2022-08-30T08:46:51Z</time>
      </trkpt>
      <trkpt lat="43.37786" lon="-1.50421">
        <ele>111.7</ele>
        <time>2022-08-30T08:46:52Z</time>
      </trkpt>
      <trkpt lat="43.37787" lon="-1.50426">
        <ele>112</ele>
        <time>2022-08-30T08:46:53Z</time>
      </trkpt>
      <trkpt lat="43.37787" lon="-1.5043">
        <ele>112.3</ele>
        <time>2022-08-30T08:46:54Z</time>
      </trkpt>
      <trkpt lat="43.37789" lon="-1.50435">
        <ele>112.6</ele>
        <time>2022-08-30T08:46:55Z</time>
      </trkpt>
      <trkpt lat="43.3779" lon="-1.50439">
        <ele>113</ele>
        <time>2022-08-30T08:46:56Z</time>
      </trkpt>
      <trkpt lat="43.37792" lon="-1.50444">
        <ele>113.4</ele>
        <time>2022-08-30T08:46:57Z</time>
      </trkpt>
      <trkpt lat="43.37793" lon="-1.50447">
        <ele>113.7</ele>
        <time>2022-08-30T08:46:58Z</time>
      </trkpt>
      <trkpt lat="43.37795" lon="-1.5045">
        <ele>114</ele>
        <time>2022-08-30T08:46:59Z</time>
      </trkpt>
      <trkpt lat="43.37796" lon="-1.50452">
        <ele>114.1</ele>
        <time>2022-08-30T08:47:00Z</time>
      </trkpt>
      <trkpt lat="43.37798" lon="-1.50456">
        <ele>114.6</ele>
        <time>2022-08-30T08:47:01Z</time>
      </trkpt>
      <trkpt lat="43.37799" lon="-1.50458">
        <ele>114.8</ele>
        <time>2022-08-30T08:47:02Z</time>
      </trkpt>
      <trkpt lat="43.378" lon="-1.50462">
        <ele>115.1</ele>
        <time>2022-08-30T08:47:03Z</time>
      </trkpt>
      <trkpt lat="43.37803" lon="-1.50466">
        <ele>115.5</ele>
        <time>2022-08-30T08:47:04Z</time>
      </trkpt>
      <trkpt lat="43.37803" lon="-1.50467">
        <ele>115.7</ele>
        <time>2022-08-30T08:47:05Z</time>
      </trkpt>
      <trkpt lat="43.37805" lon="-1.50472">
        <ele>116.1</ele>
        <time>2022-08-30T08:47:06Z</time>
      </trkpt>
      <trkpt lat="43.37806" lon="-1.50473">
        <ele>116.2</ele>
        <time>2022-08-30T08:47:07Z</time>
      </trkpt>
      <trkpt lat="43.37808" lon="-1.50477">
        <ele>116.5</ele>
        <time>2022-08-30T08:47:08Z</time>
      </trkpt>
      <trkpt lat="43.37808" lon="-1.50478">
        <ele>116.6</ele>
        <time>2022-08-30T08:47:09Z</time>
      </trkpt>
      <trkpt lat="43.3781" lon="-1.50482">
        <ele>116.9</ele>
        <time>2022-08-30T08:47:10Z</time>
      </trkpt>
      <trkpt lat="43.3781" lon="-1.50483">
        <ele>116.9</ele>
        <time>2022-08-30T08:47:11Z</time>
      </trkpt>
      <trkpt lat="43.37811" lon="-1.50487">
        <ele>117.1</ele>
        <time>2022-08-30T08:47:12Z</time>
      </trkpt>
      <trkpt lat="43.37811" lon="-1.50489">
        <ele>117.2</ele>
        <time>2022-08-30T08:47:13Z</time>
      </trkpt>
      <trkpt lat="43.37812" lon="-1.50493">
        <ele>117.3</ele>
        <time>2022-08-30T08:47:14Z</time>
      </trkpt>
      <trkpt lat="43.37813" lon="-1.50497">
        <ele>117.5</ele>
        <time>2022-08-30T08:47:15Z</time>
      </trkpt>
      <trkpt lat="43.37814" lon="-1.50501">
        <ele>117.5</ele>
        <time>2022-08-30T08:47:16Z</time>
      </trkpt>
      <trkpt lat="43.37815" lon="-1.50505">
        <ele>117.5</ele>
        <time>2022-08-30T08:47:17Z</time>
      </trkpt>
      <trkpt lat="43.37816" lon="-1.5051">
        <ele>117.4</ele>
        <time>2022-08-30T08:47:18Z</time>
      </trkpt>
      <trkpt lat="43.37816" lon="-1.50515">
        <ele>117.4</ele>
        <time>2022-08-30T08:47:19Z</time>
      </trkpt>
      <trkpt lat="43.37816" lon="-1.50519">
        <ele>117.2</ele>
        <time>2022-08-30T08:47:20Z</time>
      </trkpt>
      <trkpt lat="43.37815" lon="-1.50525">
        <ele>117</ele>
        <time>2022-08-30T08:47:21Z</time>
      </trkpt>
      <trkpt lat="43.37815" lon="-1.50532">
        <ele>116.7</ele>
        <time>2022-08-30T08:47:22Z</time>
      </trkpt>
      <trkpt lat="43.37814" lon="-1.50541">
        <ele>116.4</ele>
        <time>2022-08-30T08:47:23Z</time>
      </trkpt>
      <trkpt lat="43.37813" lon="-1.50548">
        <ele>116.1</ele>
        <time>2022-08-30T08:47:24Z</time>
      </trkpt>
      <trkpt lat="43.37813" lon="-1.50555">
        <ele>115.8</ele>
        <time>2022-08-30T08:47:25Z</time>
      </trkpt>
      <trkpt lat="43.37814" lon="-1.50562">
        <ele>115.6</ele>
        <time>2022-08-30T08:47:26Z</time>
      </trkpt>
      <trkpt lat="43.37814" lon="-1.50569">
        <ele>115.5</ele>
        <time>2022-08-30T08:47:27Z</time>
      </trkpt>
      <trkpt lat="43.37815" lon="-1.50575">
        <ele>115.5</ele>
        <time>2022-08-30T08:47:28Z</time>
      </trkpt>
      <trkpt lat="43.37815" lon="-1.50582">
        <ele>115.5</ele>
        <time>2022-08-30T08:47:29Z</time>
      </trkpt>
      <trkpt lat="43.37815" lon="-1.50589">
        <ele>115.6</ele>
        <time>2022-08-30T08:47:30Z</time>
      </trkpt>
      <trkpt lat="43.37815" lon="-1.50595">
        <ele>115.8</ele>
        <time>2022-08-30T08:47:31Z</time>
      </trkpt>
      <trkpt lat="43.37816" lon="-1.50599">
        <ele>115.9</ele>
        <time>2022-08-30T08:47:32Z</time>
      </trkpt>
      <trkpt lat="43.37818" lon="-1.50602">
        <ele>116</ele>
        <time>2022-08-30T08:47:33Z</time>
      </trkpt>
      <trkpt lat="43.3782" lon="-1.50605">
        <ele>116.2</ele>
        <time>2022-08-30T08:47:34Z</time>
      </trkpt>
      <trkpt lat="43.37822" lon="-1.50609">
        <ele>116.4</ele>
        <time>2022-08-30T08:47:35Z</time>
      </trkpt>
      <trkpt lat="43.37823" lon="-1.50614">
        <ele>116.6</ele>
        <time>2022-08-30T08:47:36Z</time>
      </trkpt>
      <trkpt lat="43.37824" lon="-1.50619">
        <ele>116.8</ele>
        <time>2022-08-30T08:47:37Z</time>
      </trkpt>
      <trkpt lat="43.37826" lon="-1.50624">
        <ele>117</ele>
        <time>2022-08-30T08:47:38Z</time>
      </trkpt>
      <trkpt lat="43.37827" lon="-1.5063">
        <ele>117.3</ele>
        <time>2022-08-30T08:47:39Z</time>
      </trkpt>
      <trkpt lat="43.37828" lon="-1.50636">
        <ele>117.5</ele>
        <time>2022-08-30T08:47:40Z</time>
      </trkpt>
      <trkpt lat="43.37828" lon="-1.50641">
        <ele>117.8</ele>
        <time>2022-08-30T08:47:41Z</time>
      </trkpt>
      <trkpt lat="43.37829" lon="-1.50647">
        <ele>118</ele>
        <time>2022-08-30T08:47:42Z</time>
      </trkpt>
      <trkpt lat="43.37829" lon="-1.50652">
        <ele>118.3</ele>
        <time>2022-08-30T08:47:43Z</time>
      </trkpt>
      <trkpt lat="43.37831" lon="-1.50657">
        <ele>118.5</ele>
        <time>2022-08-30T08:47:44Z</time>
      </trkpt>
      <trkpt lat="43.37833" lon="-1.50661">
        <ele>118.8</ele>
        <time>2022-08-30T08:47:45Z</time>
      </trkpt>
      <trkpt lat="43.37834" lon="-1.50666">
        <ele>119.2</ele>
        <time>2022-08-30T08:47:46Z</time>
      </trkpt>
      <trkpt lat="43.37834" lon="-1.5067">
        <ele>119.5</ele>
        <time>2022-08-30T08:47:47Z</time>
      </trkpt>
      <trkpt lat="43.37834" lon="-1.50674">
        <ele>119.8</ele>
        <time>2022-08-30T08:47:48Z</time>
      </trkpt>
      <trkpt lat="43.37835" lon="-1.50678">
        <ele>120.1</ele>
        <time>2022-08-30T08:47:49Z</time>
      </trkpt>
      <trkpt lat="43.37835" lon="-1.50683">
        <ele>120.5</ele>
        <time>2022-08-30T08:47:50Z</time>
      </trkpt>
      <trkpt lat="43.37835" lon="-1.50685">
        <ele>120.7</ele>
        <time>2022-08-30T08:47:51Z</time>
      </trkpt>
      <trkpt lat="43.37834" lon="-1.50689">
        <ele>121</ele>
        <time>2022-08-30T08:47:52Z</time>
      </trkpt>
      <trkpt lat="43.37833" lon="-1.5069">
        <ele>121.1</ele>
        <time>2022-08-30T08:47:53Z</time>
      </trkpt>
      <trkpt lat="43.37832" lon="-1.50694">
        <ele>121.5</ele>
        <time>2022-08-30T08:47:54Z</time>
      </trkpt>
      <trkpt lat="43.37832" lon="-1.50696">
        <ele>121.6</ele>
        <time>2022-08-30T08:47:55Z</time>
      </trkpt>
      <trkpt lat="43.37832" lon="-1.50701">
        <ele>122</ele>
        <time>2022-08-30T08:47:56Z</time>
      </trkpt>
      <trkpt lat="43.37831" lon="-1.50702">
        <ele>122.1</ele>
        <time>2022-08-30T08:47:57Z</time>
      </trkpt>
      <trkpt lat="43.37831" lon="-1.50707">
        <ele>122.5</ele>
        <time>2022-08-30T08:47:58Z</time>
      </trkpt>
      <trkpt lat="43.37831" lon="-1.50709">
        <ele>122.7</ele>
        <time>2022-08-30T08:47:59Z</time>
      </trkpt>
      <trkpt lat="43.37831" lon="-1.50713">
        <ele>122.9</ele>
        <time>2022-08-30T08:48:00Z</time>
      </trkpt>
      <trkpt lat="43.37831" lon="-1.50718">
        <ele>123.3</ele>
        <time>2022-08-30T08:48:01Z</time>
      </trkpt>
      <trkpt lat="43.37831" lon="-1.50719">
        <ele>123.4</ele>
        <time>2022-08-30T08:48:02Z</time>
      </trkpt>
      <trkpt lat="43.3783" lon="-1.50724">
        <ele>123.7</ele>
        <time>2022-08-30T08:48:03Z</time>
      </trkpt>
      <trkpt lat="43.3783" lon="-1.50726">
        <ele>123.8</ele>
        <time>2022-08-30T08:48:04Z</time>
      </trkpt>
      <trkpt lat="43.3783" lon="-1.50731">
        <ele>124.1</ele>
        <time>2022-08-30T08:48:05Z</time>
      </trkpt>
      <trkpt lat="43.3783" lon="-1.50732">
        <ele>124.2</ele>
        <time>2022-08-30T08:48:06Z</time>
      </trkpt>
      <trkpt lat="43.37831" lon="-1.50738">
        <ele>124.6</ele>
        <time>2022-08-30T08:48:07Z</time>
      </trkpt>
      <trkpt lat="43.37831" lon="-1.50739">
        <ele>124.7</ele>
        <time>2022-08-30T08:48:08Z</time>
      </trkpt>
      <trkpt lat="43.37832" lon="-1.50743">
        <ele>124.9</ele>
        <time>2022-08-30T08:48:09Z</time>
      </trkpt>
      <trkpt lat="43.37833" lon="-1.50748">
        <ele>125.3</ele>
        <time>2022-08-30T08:48:10Z</time>
      </trkpt>
      <trkpt lat="43.37833" lon="-1.50749">
        <ele>125.4</ele>
        <time>2022-08-30T08:48:11Z</time>
      </trkpt>
      <trkpt lat="43.37833" lon="-1.50751">
        <ele>125.5</ele>
        <time>2022-08-30T08:48:12Z</time>
      </trkpt>
      <trkpt lat="43.37834" lon="-1.50753">
        <ele>125.7</ele>
        <time>2022-08-30T08:48:13Z</time>
      </trkpt>
      <trkpt lat="43.37836" lon="-1.50757">
        <ele>126.1</ele>
        <time>2022-08-30T08:48:14Z</time>
      </trkpt>
      <trkpt lat="43.37836" lon="-1.50758">
        <ele>126.2</ele>
        <time>2022-08-30T08:48:15Z</time>
      </trkpt>
      <trkpt lat="43.37838" lon="-1.50763">
        <ele>126.6</ele>
        <time>2022-08-30T08:48:16Z</time>
      </trkpt>
      <trkpt lat="43.37839" lon="-1.50765">
        <ele>126.7</ele>
        <time>2022-08-30T08:48:17Z</time>
      </trkpt>
      <trkpt lat="43.3784" lon="-1.50768">
        <ele>127</ele>
        <time>2022-08-30T08:48:18Z</time>
      </trkpt>
      <trkpt lat="43.3784" lon="-1.50772">
        <ele>127.3</ele>
        <time>2022-08-30T08:48:19Z</time>
      </trkpt>
      <trkpt lat="43.37841" lon="-1.50776">
        <ele>127.6</ele>
        <time>2022-08-30T08:48:20Z</time>
      </trkpt>
      <trkpt lat="43.37842" lon="-1.5078">
        <ele>127.8</ele>
        <time>2022-08-30T08:48:21Z</time>
      </trkpt>
      <trkpt lat="43.37841" lon="-1.50785">
        <ele>128</ele>
        <time>2022-08-30T08:48:22Z</time>
      </trkpt>
      <trkpt lat="43.37841" lon="-1.50787">
        <ele>128.1</ele>
        <time>2022-08-30T08:48:23Z</time>
      </trkpt>
      <trkpt lat="43.37841" lon="-1.50791">
        <ele>128.2</ele>
        <time>2022-08-30T08:48:24Z</time>
      </trkpt>
      <trkpt lat="43.3784" lon="-1.50795">
        <ele>128.3</ele>
        <time>2022-08-30T08:48:25Z</time>
      </trkpt>
      <trkpt lat="43.3784" lon="-1.508">
        <ele>128.4</ele>
        <time>2022-08-30T08:48:26Z</time>
      </trkpt>
      <trkpt lat="43.37839" lon="-1.50802">
        <ele>128.5</ele>
        <time>2022-08-30T08:48:27Z</time>
      </trkpt>
      <trkpt lat="43.37838" lon="-1.50806">
        <ele>128.6</ele>
        <time>2022-08-30T08:48:28Z</time>
      </trkpt>
      <trkpt lat="43.37838" lon="-1.5081">
        <ele>128.6</ele>
        <time>2022-08-30T08:48:29Z</time>
      </trkpt>
      <trkpt lat="43.37836" lon="-1.50815">
        <ele>128.7</ele>
        <time>2022-08-30T08:48:30Z</time>
      </trkpt>
      <trkpt lat="43.37836" lon="-1.50816">
        <ele>128.7</ele>
        <time>2022-08-30T08:48:31Z</time>
      </trkpt>
      <trkpt lat="43.37835" lon="-1.50822">
        <ele>128.8</ele>
        <time>2022-08-30T08:48:32Z</time>
      </trkpt>
      <trkpt lat="43.37835" lon="-1.50823">
        <ele>128.8</ele>
        <time>2022-08-30T08:48:33Z</time>
      </trkpt>
      <trkpt lat="43.37833" lon="-1.50827">
        <ele>128.9</ele>
        <time>2022-08-30T08:48:34Z</time>
      </trkpt>
      <trkpt lat="43.37831" lon="-1.50831">
        <ele>128.9</ele>
        <time>2022-08-30T08:48:35Z</time>
      </trkpt>
      <trkpt lat="43.3783" lon="-1.50834">
        <ele>129</ele>
        <time>2022-08-30T08:48:36Z</time>
      </trkpt>
      <trkpt lat="43.37828" lon="-1.50838">
        <ele>129</ele>
        <time>2022-08-30T08:48:37Z</time>
      </trkpt>
      <trkpt lat="43.37827" lon="-1.50841">
        <ele>129.1</ele>
        <time>2022-08-30T08:48:38Z</time>
      </trkpt>
      <trkpt lat="43.37825" lon="-1.50845">
        <ele>129.1</ele>
        <time>2022-08-30T08:48:39Z</time>
      </trkpt>
      <trkpt lat="43.37823" lon="-1.50849">
        <ele>129.1</ele>
        <time>2022-08-30T08:48:40Z</time>
      </trkpt>
      <trkpt lat="43.37821" lon="-1.50852">
        <ele>129.1</ele>
        <time>2022-08-30T08:48:41Z</time>
      </trkpt>
      <trkpt lat="43.37819" lon="-1.50855">
        <ele>129.1</ele>
        <time>2022-08-30T08:48:42Z</time>
      </trkpt>
      <trkpt lat="43.37816" lon="-1.50858">
        <ele>129.1</ele>
        <time>2022-08-30T08:48:43Z</time>
      </trkpt>
      <trkpt lat="43.37814" lon="-1.50861">
        <ele>129.1</ele>
        <time>2022-08-30T08:48:44Z</time>
      </trkpt>
      <trkpt lat="43.3781" lon="-1.50864">
        <ele>129.1</ele>
        <time>2022-08-30T08:48:45Z</time>
      </trkpt>
      <trkpt lat="43.37807" lon="-1.50868">
        <ele>129.2</ele>
        <time>2022-08-30T08:48:46Z</time>
      </trkpt>
      <trkpt lat="43.37803" lon="-1.50872">
        <ele>129.2</ele>
        <time>2022-08-30T08:48:47Z</time>
      </trkpt>
      <trkpt lat="43.37799" lon="-1.50877">
        <ele>129.2</ele>
        <time>2022-08-30T08:48:48Z</time>
      </trkpt>
      <trkpt lat="43.37794" lon="-1.50881">
        <ele>129.2</ele>
        <time>2022-08-30T08:48:49Z</time>
      </trkpt>
      <trkpt lat="43.3779" lon="-1.50885">
        <ele>129.2</ele>
        <time>2022-08-30T08:48:50Z</time>
      </trkpt>
      <trkpt lat="43.37787" lon="-1.50889">
        <ele>129.2</ele>
        <time>2022-08-30T08:48:51Z</time>
      </trkpt>
      <trkpt lat="43.37785" lon="-1.50893">
        <ele>129.3</ele>
        <time>2022-08-30T08:48:52Z</time>
      </trkpt>
      <trkpt lat="43.37783" lon="-1.50898">
        <ele>129.3</ele>
        <time>2022-08-30T08:48:53Z</time>
      </trkpt>
      <trkpt lat="43.37782" lon="-1.50902">
        <ele>129.3</ele>
        <time>2022-08-30T08:48:54Z</time>
      </trkpt>
      <trkpt lat="43.37781" lon="-1.50906">
        <ele>129.4</ele>
        <time>2022-08-30T08:48:55Z</time>
      </trkpt>
      <trkpt lat="43.3778" lon="-1.50909">
        <ele>129.4</ele>
        <time>2022-08-30T08:48:56Z</time>
      </trkpt>
      <trkpt lat="43.37779" lon="-1.50913">
        <ele>130.5</ele>
        <time>2022-08-30T08:48:57Z</time>
      </trkpt>
      <trkpt lat="43.37779" lon="-1.50917">
        <ele>130.7</ele>
        <time>2022-08-30T08:48:58Z</time>
      </trkpt>
      <trkpt lat="43.37779" lon="-1.50921">
        <ele>130.9</ele>
        <time>2022-08-30T08:48:59Z</time>
      </trkpt>
      <trkpt lat="43.37778" lon="-1.50925">
        <ele>131.1</ele>
        <time>2022-08-30T08:49:00Z</time>
      </trkpt>
      <trkpt lat="43.37778" lon="-1.5093">
        <ele>131.4</ele>
        <time>2022-08-30T08:49:01Z</time>
      </trkpt>
      <trkpt lat="43.37777" lon="-1.50934">
        <ele>131.7</ele>
        <time>2022-08-30T08:49:02Z</time>
      </trkpt>
      <trkpt lat="43.37776" lon="-1.50938">
        <ele>132</ele>
        <time>2022-08-30T08:49:03Z</time>
      </trkpt>
      <trkpt lat="43.37774" lon="-1.50941">
        <ele>132.3</ele>
        <time>2022-08-30T08:49:04Z</time>
      </trkpt>
      <trkpt lat="43.37771" lon="-1.50944">
        <ele>132.7</ele>
        <time>2022-08-30T08:49:05Z</time>
      </trkpt>
      <trkpt lat="43.37767" lon="-1.50948">
        <ele>133.2</ele>
        <time>2022-08-30T08:49:06Z</time>
      </trkpt>
      <trkpt lat="43.37763" lon="-1.50951">
        <ele>133.8</ele>
        <time>2022-08-30T08:49:07Z</time>
      </trkpt>
      <trkpt lat="43.37759" lon="-1.50954">
        <ele>134.2</ele>
        <time>2022-08-30T08:49:08Z</time>
      </trkpt>
      <trkpt lat="43.37756" lon="-1.50956">
        <ele>134.6</ele>
        <time>2022-08-30T08:49:09Z</time>
      </trkpt>
      <trkpt lat="43.37754" lon="-1.50958">
        <ele>135</ele>
        <time>2022-08-30T08:49:10Z</time>
      </trkpt>
      <trkpt lat="43.37751" lon="-1.50959">
        <ele>135.3</ele>
        <time>2022-08-30T08:49:11Z</time>
      </trkpt>
      <trkpt lat="43.37748" lon="-1.50961">
        <ele>135.7</ele>
        <time>2022-08-30T08:49:12Z</time>
      </trkpt>
      <trkpt lat="43.37744" lon="-1.50963">
        <ele>136.1</ele>
        <time>2022-08-30T08:49:13Z</time>
      </trkpt>
      <trkpt lat="43.37741" lon="-1.50965">
        <ele>136.5</ele>
        <time>2022-08-30T08:49:14Z</time>
      </trkpt>
      <trkpt lat="43.37738" lon="-1.50967">
        <ele>136.9</ele>
        <time>2022-08-30T08:49:15Z</time>
      </trkpt>
      <trkpt lat="43.37734" lon="-1.50969">
        <ele>137.3</ele>
        <time>2022-08-30T08:49:16Z</time>
      </trkpt>
      <trkpt lat="43.37731" lon="-1.50971">
        <ele>137.7</ele>
        <time>2022-08-30T08:49:17Z</time>
      </trkpt>
      <trkpt lat="43.37727" lon="-1.50972">
        <ele>138</ele>
        <time>2022-08-30T08:49:18Z</time>
      </trkpt>
      <trkpt lat="43.37724" lon="-1.50974">
        <ele>138.3</ele>
        <time>2022-08-30T08:49:19Z</time>
      </trkpt>
      <trkpt lat="43.37721" lon="-1.50976">
        <ele>138.5</ele>
        <time>2022-08-30T08:49:20Z</time>
      </trkpt>
      <trkpt lat="43.37718" lon="-1.50977">
        <ele>138.8</ele>
        <time>2022-08-30T08:49:21Z</time>
      </trkpt>
      <trkpt lat="43.37715" lon="-1.50978">
        <ele>138.9</ele>
        <time>2022-08-30T08:49:22Z</time>
      </trkpt>
      <trkpt lat="43.37712" lon="-1.5098">
        <ele>139.1</ele>
        <time>2022-08-30T08:49:23Z</time>
      </trkpt>
      <trkpt lat="43.3771" lon="-1.50982">
        <ele>139.3</ele>
        <time>2022-08-30T08:49:24Z</time>
      </trkpt>
      <trkpt lat="43.37707" lon="-1.50984">
        <ele>139.5</ele>
        <time>2022-08-30T08:49:25Z</time>
      </trkpt>
      <trkpt lat="43.37705" lon="-1.50986">
        <ele>139.7</ele>
        <time>2022-08-30T08:49:26Z</time>
      </trkpt>
      <trkpt lat="43.37702" lon="-1.50987">
        <ele>139.8</ele>
        <time>2022-08-30T08:49:27Z</time>
      </trkpt>
      <trkpt lat="43.37699" lon="-1.50988">
        <ele>140</ele>
        <time>2022-08-30T08:49:28Z</time>
      </trkpt>
      <trkpt lat="43.37696" lon="-1.50989">
        <ele>140.1</ele>
        <time>2022-08-30T08:49:29Z</time>
      </trkpt>
      <trkpt lat="43.37694" lon="-1.5099">
        <ele>140.3</ele>
        <time>2022-08-30T08:49:30Z</time>
      </trkpt>
      <trkpt lat="43.37691" lon="-1.50992">
        <ele>140.4</ele>
        <time>2022-08-30T08:49:31Z</time>
      </trkpt>
      <trkpt lat="43.37688" lon="-1.50994">
        <ele>140.5</ele>
        <time>2022-08-30T08:49:32Z</time>
      </trkpt>
      <trkpt lat="43.37686" lon="-1.50995">
        <ele>140.7</ele>
        <time>2022-08-30T08:49:33Z</time>
      </trkpt>
      <trkpt lat="43.37683" lon="-1.50997">
        <ele>140.8</ele>
        <time>2022-08-30T08:49:34Z</time>
      </trkpt>
      <trkpt lat="43.3768" lon="-1.50999">
        <ele>140.9</ele>
        <time>2022-08-30T08:49:35Z</time>
      </trkpt>
      <trkpt lat="43.37678" lon="-1.51001">
        <ele>141</ele>
        <time>2022-08-30T08:49:36Z</time>
      </trkpt>
      <trkpt lat="43.37674" lon="-1.51003">
        <ele>141.1</ele>
        <time>2022-08-30T08:49:37Z</time>
      </trkpt>
      <trkpt lat="43.37673" lon="-1.51003">
        <ele>141.1</ele>
        <time>2022-08-30T08:49:38Z</time>
      </trkpt>
      <trkpt lat="43.37669" lon="-1.51004">
        <ele>141.2</ele>
        <time>2022-08-30T08:49:39Z</time>
      </trkpt>
      <trkpt lat="43.37668" lon="-1.51004">
        <ele>141.2</ele>
        <time>2022-08-30T08:49:40Z</time>
      </trkpt>
      <trkpt lat="43.37665" lon="-1.51005">
        <ele>141.3</ele>
        <time>2022-08-30T08:49:41Z</time>
      </trkpt>
      <trkpt lat="43.37662" lon="-1.51007">
        <ele>141.3</ele>
        <time>2022-08-30T08:49:42Z</time>
      </trkpt>
      <trkpt lat="43.37659" lon="-1.5101">
        <ele>141.2</ele>
        <time>2022-08-30T08:49:43Z</time>
      </trkpt>
      <trkpt lat="43.37657" lon="-1.51012">
        <ele>141.2</ele>
        <time>2022-08-30T08:49:44Z</time>
      </trkpt>
      <trkpt lat="43.37654" lon="-1.51013">
        <ele>141.1</ele>
        <time>2022-08-30T08:49:45Z</time>
      </trkpt>
      <trkpt lat="43.37651" lon="-1.51015">
        <ele>141</ele>
        <time>2022-08-30T08:49:46Z</time>
      </trkpt>
      <trkpt lat="43.37648" lon="-1.51017">
        <ele>140.9</ele>
        <time>2022-08-30T08:49:47Z</time>
      </trkpt>
      <trkpt lat="43.37645" lon="-1.51019">
        <ele>140.8</ele>
        <time>2022-08-30T08:49:48Z</time>
      </trkpt>
      <trkpt lat="43.37642" lon="-1.51021">
        <ele>140.6</ele>
        <time>2022-08-30T08:49:49Z</time>
      </trkpt>
      <trkpt lat="43.37638" lon="-1.51022">
        <ele>140.5</ele>
        <time>2022-08-30T08:49:50Z</time>
      </trkpt>
      <trkpt lat="43.37633" lon="-1.51025">
        <ele>140.3</ele>
        <time>2022-08-30T08:49:51Z</time>
      </trkpt>
      <trkpt lat="43.37629" lon="-1.51029">
        <ele>140.2</ele>
        <time>2022-08-30T08:49:52Z</time>
      </trkpt>
      <trkpt lat="43.37625" lon="-1.51031">
        <ele>140.1</ele>
        <time>2022-08-30T08:49:53Z</time>
      </trkpt>
      <trkpt lat="43.37622" lon="-1.51033">
        <ele>140</ele>
        <time>2022-08-30T08:49:54Z</time>
      </trkpt>
      <trkpt lat="43.37618" lon="-1.51036">
        <ele>139.9</ele>
        <time>2022-08-30T08:49:55Z</time>
      </trkpt>
      <trkpt lat="43.37614" lon="-1.51038">
        <ele>139.8</ele>
        <time>2022-08-30T08:49:56Z</time>
      </trkpt>
      <trkpt lat="43.3761" lon="-1.51041">
        <ele>139.7</ele>
        <time>2022-08-30T08:49:57Z</time>
      </trkpt>
      <trkpt lat="43.37607" lon="-1.51043">
        <ele>139.6</ele>
        <time>2022-08-30T08:49:58Z</time>
      </trkpt>
      <trkpt lat="43.37604" lon="-1.51046">
        <ele>139.6</ele>
        <time>2022-08-30T08:49:59Z</time>
      </trkpt>
      <trkpt lat="43.376" lon="-1.51048">
        <ele>139.5</ele>
        <time>2022-08-30T08:50:00Z</time>
      </trkpt>
      <trkpt lat="43.37597" lon="-1.5105">
        <ele>139.4</ele>
        <time>2022-08-30T08:50:01Z</time>
      </trkpt>
      <trkpt lat="43.37593" lon="-1.51052">
        <ele>139.3</ele>
        <time>2022-08-30T08:50:02Z</time>
      </trkpt>
      <trkpt lat="43.3759" lon="-1.51054">
        <ele>139.2</ele>
        <time>2022-08-30T08:50:03Z</time>
      </trkpt>
      <trkpt lat="43.37587" lon="-1.51056">
        <ele>139.1</ele>
        <time>2022-08-30T08:50:04Z</time>
      </trkpt>
      <trkpt lat="43.37584" lon="-1.51059">
        <ele>139</ele>
        <time>2022-08-30T08:50:05Z</time>
      </trkpt>
      <trkpt lat="43.37581" lon="-1.51063">
        <ele>138.8</ele>
        <time>2022-08-30T08:50:06Z</time>
      </trkpt>
      <trkpt lat="43.37578" lon="-1.51067">
        <ele>138.6</ele>
        <time>2022-08-30T08:50:07Z</time>
      </trkpt>
      <trkpt lat="43.37575" lon="-1.51071">
        <ele>138.3</ele>
        <time>2022-08-30T08:50:08Z</time>
      </trkpt>
      <trkpt lat="43.37571" lon="-1.51074">
        <ele>138</ele>
        <time>2022-08-30T08:50:09Z</time>
      </trkpt>
      <trkpt lat="43.37567" lon="-1.51078">
        <ele>137.7</ele>
        <time>2022-08-30T08:50:10Z</time>
      </trkpt>
      <trkpt lat="43.37563" lon="-1.51083">
        <ele>137.3</ele>
        <time>2022-08-30T08:50:11Z</time>
      </trkpt>
      <trkpt lat="43.37559" lon="-1.51087">
        <ele>136.9</ele>
        <time>2022-08-30T08:50:12Z</time>
      </trkpt>
      <trkpt lat="43.37556" lon="-1.51091">
        <ele>136.5</ele>
        <time>2022-08-30T08:50:13Z</time>
      </trkpt>
      <trkpt lat="43.37553" lon="-1.51095">
        <ele>136.2</ele>
        <time>2022-08-30T08:50:14Z</time>
      </trkpt>
      <trkpt lat="43.37549" lon="-1.51099">
        <ele>135.8</ele>
        <time>2022-08-30T08:50:15Z</time>
      </trkpt>
      <trkpt lat="43.37545" lon="-1.51103">
        <ele>135.4</ele>
        <time>2022-08-30T08:50:16Z</time>
      </trkpt>
      <trkpt lat="43.3754" lon="-1.51108">
        <ele>135</ele>
        <time>2022-08-30T08:50:17Z</time>
      </trkpt>
      <trkpt lat="43.37535" lon="-1.51113">
        <ele>134.6</ele>
        <time>2022-08-30T08:50:18Z</time>
      </trkpt>
      <trkpt lat="43.37529" lon="-1.51118">
        <ele>134.3</ele>
        <time>2022-08-30T08:50:19Z</time>
      </trkpt>
      <trkpt lat="43.37524" lon="-1.51122">
        <ele>134.1</ele>
        <time>2022-08-30T08:50:20Z</time>
      </trkpt>
      <trkpt lat="43.3752" lon="-1.51125">
        <ele>134</ele>
        <time>2022-08-30T08:50:21Z</time>
      </trkpt>
      <trkpt lat="43.37517" lon="-1.51127">
        <ele>134</ele>
        <time>2022-08-30T08:50:22Z</time>
      </trkpt>
      <trkpt lat="43.37514" lon="-1.51128">
        <ele>133.9</ele>
        <time>2022-08-30T08:50:23Z</time>
      </trkpt>
      <trkpt lat="43.3751" lon="-1.51127">
        <ele>133.9</ele>
        <time>2022-08-30T08:50:24Z</time>
      </trkpt>
      <trkpt lat="43.37509" lon="-1.51127">
        <ele>133.9</ele>
        <time>2022-08-30T08:50:25Z</time>
      </trkpt>
      <trkpt lat="43.37508" lon="-1.51126">
        <ele>133.9</ele>
        <time>2022-08-30T08:50:26Z</time>
      </trkpt>
      <trkpt lat="43.37507" lon="-1.51125">
        <ele>133.9</ele>
        <time>2022-08-30T08:50:27Z</time>
      </trkpt>
      <trkpt lat="43.37503" lon="-1.51125">
        <ele>133.8</ele>
        <time>2022-08-30T08:50:28Z</time>
      </trkpt>
      <trkpt lat="43.37501" lon="-1.51125">
        <ele>133.8</ele>
        <time>2022-08-30T08:50:29Z</time>
      </trkpt>
      <trkpt lat="43.37498" lon="-1.51126">
        <ele>133.7</ele>
        <time>2022-08-30T08:50:30Z</time>
      </trkpt>
      <trkpt lat="43.37495" lon="-1.51129">
        <ele>133.6</ele>
        <time>2022-08-30T08:50:31Z</time>
      </trkpt>
      <trkpt lat="43.37492" lon="-1.51132">
        <ele>133.5</ele>
        <time>2022-08-30T08:50:32Z</time>
      </trkpt>
      <trkpt lat="43.37489" lon="-1.51135">
        <ele>133.3</ele>
        <time>2022-08-30T08:50:33Z</time>
      </trkpt>
      <trkpt lat="43.37486" lon="-1.51139">
        <ele>133.2</ele>
        <time>2022-08-30T08:50:34Z</time>
      </trkpt>
      <trkpt lat="43.37483" lon="-1.51143">
        <ele>133.1</ele>
        <time>2022-08-30T08:50:35Z</time>
      </trkpt>
      <trkpt lat="43.37479" lon="-1.51147">
        <ele>133</ele>
        <time>2022-08-30T08:50:36Z</time>
      </trkpt>
      <trkpt lat="43.37476" lon="-1.5115">
        <ele>132.9</ele>
        <time>2022-08-30T08:50:37Z</time>
      </trkpt>
      <trkpt lat="43.37473" lon="-1.51153">
        <ele>132.8</ele>
        <time>2022-08-30T08:50:38Z</time>
      </trkpt>
      <trkpt lat="43.3747" lon="-1.51155">
        <ele>132.7</ele>
        <time>2022-08-30T08:50:39Z</time>
      </trkpt>
      <trkpt lat="43.37466" lon="-1.51158">
        <ele>132.6</ele>
        <time>2022-08-30T08:50:40Z</time>
      </trkpt>
      <trkpt lat="43.37462" lon="-1.51161">
        <ele>132.5</ele>
        <time>2022-08-30T08:50:41Z</time>
      </trkpt>
      <trkpt lat="43.37458" lon="-1.51164">
        <ele>132.5</ele>
        <time>2022-08-30T08:50:42Z</time>
      </trkpt>
      <trkpt lat="43.37455" lon="-1.51167">
        <ele>132.5</ele>
        <time>2022-08-30T08:50:43Z</time>
      </trkpt>
      <trkpt lat="43.37451" lon="-1.5117">
        <ele>132.5</ele>
        <time>2022-08-30T08:50:44Z</time>
      </trkpt>
      <trkpt lat="43.37448" lon="-1.51172">
        <ele>132.4</ele>
        <time>2022-08-30T08:50:45Z</time>
      </trkpt>
      <trkpt lat="43.37446" lon="-1.51174">
        <ele>132.5</ele>
        <time>2022-08-30T08:50:46Z</time>
      </trkpt>
      <trkpt lat="43.37444" lon="-1.51177">
        <ele>132.5</ele>
        <time>2022-08-30T08:50:47Z</time>
      </trkpt>
      <trkpt lat="43.37441" lon="-1.5118">
        <ele>132.5</ele>
        <time>2022-08-30T08:50:48Z</time>
      </trkpt>
      <trkpt lat="43.37439" lon="-1.51181">
        <ele>132.5</ele>
        <time>2022-08-30T08:50:49Z</time>
      </trkpt>
      <trkpt lat="43.37437" lon="-1.51183">
        <ele>132.6</ele>
        <time>2022-08-30T08:50:50Z</time>
      </trkpt>
      <trkpt lat="43.37434" lon="-1.51185">
        <ele>132.6</ele>
        <time>2022-08-30T08:50:51Z</time>
      </trkpt>
      <trkpt lat="43.37432" lon="-1.51188">
        <ele>132.7</ele>
        <time>2022-08-30T08:50:52Z</time>
      </trkpt>
      <trkpt lat="43.37429" lon="-1.5119">
        <ele>132.8</ele>
        <time>2022-08-30T08:50:53Z</time>
      </trkpt>
      <trkpt lat="43.37426" lon="-1.51193">
        <ele>132.9</ele>
        <time>2022-08-30T08:50:54Z</time>
      </trkpt>
      <trkpt lat="43.37423" lon="-1.51195">
        <ele>133.1</ele>
        <time>2022-08-30T08:50:55Z</time>
      </trkpt>
      <trkpt lat="43.37421" lon="-1.51199">
        <ele>133.2</ele>
        <time>2022-08-30T08:50:56Z</time>
      </trkpt>
      <trkpt lat="43.37418" lon="-1.51202">
        <ele>133.3</ele>
        <time>2022-08-30T08:50:57Z</time>
      </trkpt>
      <trkpt lat="43.37416" lon="-1.51205">
        <ele>133.5</ele>
        <time>2022-08-30T08:50:58Z</time>
      </trkpt>
      <trkpt lat="43.37413" lon="-1.51208">
        <ele>133.6</ele>
        <time>2022-08-30T08:50:59Z</time>
      </trkpt>
      <trkpt lat="43.3741" lon="-1.51212">
        <ele>133.8</ele>
        <time>2022-08-30T08:51:00Z</time>
      </trkpt>
      <trkpt lat="43.37408" lon="-1.51216">
        <ele>133.9</ele>
        <time>2022-08-30T08:51:01Z</time>
      </trkpt>
      <trkpt lat="43.37406" lon="-1.5122">
        <ele>134</ele>
        <time>2022-08-30T08:51:02Z</time>
      </trkpt>
      <trkpt lat="43.37404" lon="-1.51224">
        <ele>134.1</ele>
        <time>2022-08-30T08:51:03Z</time>
      </trkpt>
      <trkpt lat="43.37403" lon="-1.51228">
        <ele>134.3</ele>
        <time>2022-08-30T08:51:04Z</time>
      </trkpt>
      <trkpt lat="43.37401" lon="-1.51232">
        <ele>134.4</ele>
        <time>2022-08-30T08:51:05Z</time>
      </trkpt>
      <trkpt lat="43.37399" lon="-1.51237">
        <ele>134.5</ele>
        <time>2022-08-30T08:51:06Z</time>
      </trkpt>
      <trkpt lat="43.37397" lon="-1.51241">
        <ele>134.5</ele>
        <time>2022-08-30T08:51:07Z</time>
      </trkpt>
      <trkpt lat="43.37396" lon="-1.51246">
        <ele>134.6</ele>
        <time>2022-08-30T08:51:08Z</time>
      </trkpt>
      <trkpt lat="43.37394" lon="-1.5125">
        <ele>134.7</ele>
        <time>2022-08-30T08:51:09Z</time>
      </trkpt>
      <trkpt lat="43.37392" lon="-1.51255">
        <ele>134.7</ele>
        <time>2022-08-30T08:51:10Z</time>
      </trkpt>
      <trkpt lat="43.37391" lon="-1.51259">
        <ele>134.8</ele>
        <time>2022-08-30T08:51:11Z</time>
      </trkpt>
      <trkpt lat="43.37389" lon="-1.51264">
        <ele>134.8</ele>
        <time>2022-08-30T08:51:12Z</time>
      </trkpt>
      <trkpt lat="43.37387" lon="-1.51269">
        <ele>134.8</ele>
        <time>2022-08-30T08:51:13Z</time>
      </trkpt>
      <trkpt lat="43.37385" lon="-1.51274">
        <ele>134.8</ele>
        <time>2022-08-30T08:51:14Z</time>
      </trkpt>
      <trkpt lat="43.37383" lon="-1.51279">
        <ele>134.8</ele>
        <time>2022-08-30T08:51:15Z</time>
      </trkpt>
      <trkpt lat="43.37381" lon="-1.51284">
        <ele>134.7</ele>
        <time>2022-08-30T08:51:16Z</time>
      </trkpt>
      <trkpt lat="43.37379" lon="-1.51289">
        <ele>134.7</ele>
        <time>2022-08-30T08:51:17Z</time>
      </trkpt>
      <trkpt lat="43.37377" lon="-1.51294">
        <ele>134.7</ele>
        <time>2022-08-30T08:51:18Z</time>
      </trkpt>
      <trkpt lat="43.37376" lon="-1.51298">
        <ele>134.6</ele>
        <time>2022-08-30T08:51:19Z</time>
      </trkpt>
      <trkpt lat="43.37374" lon="-1.51304">
        <ele>134.6</ele>
        <time>2022-08-30T08:51:20Z</time>
      </trkpt>
      <trkpt lat="43.37372" lon="-1.51308">
        <ele>134.6</ele>
        <time>2022-08-30T08:51:21Z</time>
      </trkpt>
      <trkpt lat="43.3737" lon="-1.51313">
        <ele>134.6</ele>
        <time>2022-08-30T08:51:22Z</time>
      </trkpt>
      <trkpt lat="43.37368" lon="-1.51317">
        <ele>134.6</ele>
        <time>2022-08-30T08:51:23Z</time>
      </trkpt>
      <trkpt lat="43.37367" lon="-1.51323">
        <ele>134.7</ele>
        <time>2022-08-30T08:51:24Z</time>
      </trkpt>
      <trkpt lat="43.37365" lon="-1.51328">
        <ele>134.7</ele>
        <time>2022-08-30T08:51:25Z</time>
      </trkpt>
      <trkpt lat="43.37363" lon="-1.51333">
        <ele>134.8</ele>
        <time>2022-08-30T08:51:26Z</time>
      </trkpt>
      <trkpt lat="43.37361" lon="-1.51339">
        <ele>134.9</ele>
        <time>2022-08-30T08:51:27Z</time>
      </trkpt>
      <trkpt lat="43.3736" lon="-1.51344">
        <ele>135</ele>
        <time>2022-08-30T08:51:28Z</time>
      </trkpt>
      <trkpt lat="43.37358" lon="-1.51348">
        <ele>135.1</ele>
        <time>2022-08-30T08:51:29Z</time>
      </trkpt>
      <trkpt lat="43.37357" lon="-1.51353">
        <ele>135.3</ele>
        <time>2022-08-30T08:51:30Z</time>
      </trkpt>
      <trkpt lat="43.37357" lon="-1.51358">
        <ele>135.5</ele>
        <time>2022-08-30T08:51:31Z</time>
      </trkpt>
      <trkpt lat="43.37358" lon="-1.51362">
        <ele>135.6</ele>
        <time>2022-08-30T08:51:32Z</time>
      </trkpt>
      <trkpt lat="43.3736" lon="-1.51365">
        <ele>135.8</ele>
        <time>2022-08-30T08:51:33Z</time>
      </trkpt>
      <trkpt lat="43.37361" lon="-1.51365">
        <ele>135.9</ele>
        <time>2022-08-30T08:51:34Z</time>
      </trkpt>
      <trkpt lat="43.37364" lon="-1.51366">
        <ele>136.1</ele>
        <time>2022-08-30T08:51:35Z</time>
      </trkpt>
      <trkpt lat="43.37365" lon="-1.51367">
        <ele>136.1</ele>
        <time>2022-08-30T08:51:36Z</time>
      </trkpt>
      <trkpt lat="43.37368" lon="-1.51371">
        <ele>136.4</ele>
        <time>2022-08-30T08:51:37Z</time>
      </trkpt>
      <trkpt lat="43.37368" lon="-1.51373">
        <ele>136.5</ele>
        <time>2022-08-30T08:51:38Z</time>
      </trkpt>
      <trkpt lat="43.37371" lon="-1.51377">
        <ele>136.8</ele>
        <time>2022-08-30T08:51:39Z</time>
      </trkpt>
      <trkpt lat="43.37374" lon="-1.51381">
        <ele>137</ele>
        <time>2022-08-30T08:51:40Z</time>
      </trkpt>
      <trkpt lat="43.37376" lon="-1.51385">
        <ele>137.1</ele>
        <time>2022-08-30T08:51:41Z</time>
      </trkpt>
      <trkpt lat="43.37376" lon="-1.5139">
        <ele>137.2</ele>
        <time>2022-08-30T08:51:42Z</time>
      </trkpt>
      <trkpt lat="43.37373" lon="-1.51394">
        <ele>137.3</ele>
        <time>2022-08-30T08:51:43Z</time>
      </trkpt>
      <trkpt lat="43.37371" lon="-1.51397">
        <ele>137.4</ele>
        <time>2022-08-30T08:51:44Z</time>
      </trkpt>
      <trkpt lat="43.37368" lon="-1.51401">
        <ele>137.4</ele>
        <time>2022-08-30T08:51:45Z</time>
      </trkpt>
      <trkpt lat="43.37366" lon="-1.51405">
        <ele>137.4</ele>
        <time>2022-08-30T08:51:46Z</time>
      </trkpt>
      <trkpt lat="43.37364" lon="-1.51408">
        <ele>137.5</ele>
        <time>2022-08-30T08:51:47Z</time>
      </trkpt>
      <trkpt lat="43.37362" lon="-1.51411">
        <ele>137.5</ele>
        <time>2022-08-30T08:51:48Z</time>
      </trkpt>
      <trkpt lat="43.3736" lon="-1.51415">
        <ele>137.5</ele>
        <time>2022-08-30T08:51:49Z</time>
      </trkpt>
      <trkpt lat="43.37359" lon="-1.51418">
        <ele>137.5</ele>
        <time>2022-08-30T08:51:50Z</time>
      </trkpt>
      <trkpt lat="43.37357" lon="-1.51422">
        <ele>137.6</ele>
        <time>2022-08-30T08:51:51Z</time>
      </trkpt>
      <trkpt lat="43.37355" lon="-1.51426">
        <ele>137.6</ele>
        <time>2022-08-30T08:51:52Z</time>
      </trkpt>
      <trkpt lat="43.37353" lon="-1.5143">
        <ele>137.6</ele>
        <time>2022-08-30T08:51:53Z</time>
      </trkpt>
      <trkpt lat="43.37351" lon="-1.51434">
        <ele>137.7</ele>
        <time>2022-08-30T08:51:54Z</time>
      </trkpt>
      <trkpt lat="43.3735" lon="-1.51438">
        <ele>137.7</ele>
        <time>2022-08-30T08:51:55Z</time>
      </trkpt>
      <trkpt lat="43.37348" lon="-1.51442">
        <ele>137.8</ele>
        <time>2022-08-30T08:51:56Z</time>
      </trkpt>
      <trkpt lat="43.37346" lon="-1.51446">
        <ele>137.8</ele>
        <time>2022-08-30T08:51:57Z</time>
      </trkpt>
      <trkpt lat="43.37344" lon="-1.51449">
        <ele>137.8</ele>
        <time>2022-08-30T08:51:58Z</time>
      </trkpt>
      <trkpt lat="43.37342" lon="-1.51453">
        <ele>137.9</ele>
        <time>2022-08-30T08:51:59Z</time>
      </trkpt>
      <trkpt lat="43.3734" lon="-1.51457">
        <ele>138</ele>
        <time>2022-08-30T08:52:00Z</time>
      </trkpt>
      <trkpt lat="43.37338" lon="-1.51461">
        <ele>138</ele>
        <time>2022-08-30T08:52:01Z</time>
      </trkpt>
      <trkpt lat="43.37336" lon="-1.51465">
        <ele>138.1</ele>
        <time>2022-08-30T08:52:02Z</time>
      </trkpt>
      <trkpt lat="43.37334" lon="-1.51468">
        <ele>138.2</ele>
        <time>2022-08-30T08:52:03Z</time>
      </trkpt>
      <trkpt lat="43.37332" lon="-1.51472">
        <ele>138.2</ele>
        <time>2022-08-30T08:52:04Z</time>
      </trkpt>
      <trkpt lat="43.3733" lon="-1.51476">
        <ele>138.3</ele>
        <time>2022-08-30T08:52:05Z</time>
      </trkpt>
      <trkpt lat="43.37328" lon="-1.5148">
        <ele>138.4</ele>
        <time>2022-08-30T08:52:06Z</time>
      </trkpt>
      <trkpt lat="43.37327" lon="-1.51483">
        <ele>138.5</ele>
        <time>2022-08-30T08:52:07Z</time>
      </trkpt>
      <trkpt lat="43.37325" lon="-1.51487">
        <ele>138.6</ele>
        <time>2022-08-30T08:52:08Z</time>
      </trkpt>
      <trkpt lat="43.37323" lon="-1.51491">
        <ele>138.7</ele>
        <time>2022-08-30T08:52:09Z</time>
      </trkpt>
      <trkpt lat="43.37321" lon="-1.51494">
        <ele>138.8</ele>
        <time>2022-08-30T08:52:10Z</time>
      </trkpt>
      <trkpt lat="43.37319" lon="-1.51499">
        <ele>139</ele>
        <time>2022-08-30T08:52:11Z</time>
      </trkpt>
      <trkpt lat="43.37317" lon="-1.51502">
        <ele>139.1</ele>
        <time>2022-08-30T08:52:12Z</time>
      </trkpt>
      <trkpt lat="43.37315" lon="-1.51507">
        <ele>139.3</ele>
        <time>2022-08-30T08:52:13Z</time>
      </trkpt>
      <trkpt lat="43.37312" lon="-1.51511">
        <ele>139.4</ele>
        <time>2022-08-30T08:52:14Z</time>
      </trkpt>
      <trkpt lat="43.37311" lon="-1.51515">
        <ele>139.5</ele>
        <time>2022-08-30T08:52:15Z</time>
      </trkpt>
      <trkpt lat="43.37309" lon="-1.5152">
        <ele>139.7</ele>
        <time>2022-08-30T08:52:16Z</time>
      </trkpt>
      <trkpt lat="43.37308" lon="-1.51524">
        <ele>139.8</ele>
        <time>2022-08-30T08:52:17Z</time>
      </trkpt>
      <trkpt lat="43.37306" lon="-1.51528">
        <ele>139.9</ele>
        <time>2022-08-30T08:52:18Z</time>
      </trkpt>
      <trkpt lat="43.37304" lon="-1.51532">
        <ele>140</ele>
        <time>2022-08-30T08:52:19Z</time>
      </trkpt>
      <trkpt lat="43.37302" lon="-1.51536">
        <ele>140.1</ele>
        <time>2022-08-30T08:52:20Z</time>
      </trkpt>
      <trkpt lat="43.373" lon="-1.5154">
        <ele>140.2</ele>
        <time>2022-08-30T08:52:21Z</time>
      </trkpt>
      <trkpt lat="43.37298" lon="-1.51544">
        <ele>140.3</ele>
        <time>2022-08-30T08:52:22Z</time>
      </trkpt>
      <trkpt lat="43.37297" lon="-1.51548">
        <ele>140.5</ele>
        <time>2022-08-30T08:52:23Z</time>
      </trkpt>
      <trkpt lat="43.37295" lon="-1.51552">
        <ele>140.6</ele>
        <time>2022-08-30T08:52:24Z</time>
      </trkpt>
      <trkpt lat="43.37293" lon="-1.51556">
        <ele>140.6</ele>
        <time>2022-08-30T08:52:25Z</time>
      </trkpt>
      <trkpt lat="43.37291" lon="-1.5156">
        <ele>140.7</ele>
        <time>2022-08-30T08:52:26Z</time>
      </trkpt>
      <trkpt lat="43.3729" lon="-1.51563">
        <ele>140.8</ele>
        <time>2022-08-30T08:52:27Z</time>
      </trkpt>
      <trkpt lat="43.37289" lon="-1.51566">
        <ele>140.8</ele>
        <time>2022-08-30T08:52:28Z</time>
      </trkpt>
      <trkpt lat="43.37287" lon="-1.5157">
        <ele>140.9</ele>
        <time>2022-08-30T08:52:29Z</time>
      </trkpt>
      <trkpt lat="43.37286" lon="-1.51573">
        <ele>140.9</ele>
        <time>2022-08-30T08:52:30Z</time>
      </trkpt>
      <trkpt lat="43.37284" lon="-1.51576">
        <ele>140.9</ele>
        <time>2022-08-30T08:52:31Z</time>
      </trkpt>
      <trkpt lat="43.37283" lon="-1.5158">
        <ele>141</ele>
        <time>2022-08-30T08:52:32Z</time>
      </trkpt>
      <trkpt lat="43.37281" lon="-1.51583">
        <ele>141</ele>
        <time>2022-08-30T08:52:33Z</time>
      </trkpt>
      <trkpt lat="43.3728" lon="-1.51586">
        <ele>141</ele>
        <time>2022-08-30T08:52:34Z</time>
      </trkpt>
      <trkpt lat="43.37277" lon="-1.51589">
        <ele>141</ele>
        <time>2022-08-30T08:52:35Z</time>
      </trkpt>
      <trkpt lat="43.37274" lon="-1.51591">
        <ele>141.1</ele>
        <time>2022-08-30T08:52:36Z</time>
      </trkpt>
      <trkpt lat="43.37271" lon="-1.51593">
        <ele>141</ele>
        <time>2022-08-30T08:52:37Z</time>
      </trkpt>
      <trkpt lat="43.37268" lon="-1.51595">
        <ele>141</ele>
        <time>2022-08-30T08:52:38Z</time>
      </trkpt>
      <trkpt lat="43.37265" lon="-1.51596">
        <ele>141</ele>
        <time>2022-08-30T08:52:39Z</time>
      </trkpt>
      <trkpt lat="43.37264" lon="-1.51597">
        <ele>140.9</ele>
        <time>2022-08-30T08:52:40Z</time>
      </trkpt>
      <trkpt lat="43.37261" lon="-1.51598">
        <ele>140.8</ele>
        <time>2022-08-30T08:52:41Z</time>
      </trkpt>
      <trkpt lat="43.3726" lon="-1.51598">
        <ele>140.8</ele>
        <time>2022-08-30T08:52:42Z</time>
      </trkpt>
      <trkpt lat="43.37257" lon="-1.516">
        <ele>140.7</ele>
        <time>2022-08-30T08:52:43Z</time>
      </trkpt>
      <trkpt lat="43.37255" lon="-1.516">
        <ele>140.6</ele>
        <time>2022-08-30T08:52:44Z</time>
      </trkpt>
      <trkpt lat="43.37252" lon="-1.51602">
        <ele>140.4</ele>
        <time>2022-08-30T08:52:45Z</time>
      </trkpt>
      <trkpt lat="43.37251" lon="-1.51603">
        <ele>140.3</ele>
        <time>2022-08-30T08:52:46Z</time>
      </trkpt>
      <trkpt lat="43.37248" lon="-1.51605">
        <ele>140.1</ele>
        <time>2022-08-30T08:52:47Z</time>
      </trkpt>
      <trkpt lat="43.37246" lon="-1.51606">
        <ele>140</ele>
        <time>2022-08-30T08:52:48Z</time>
      </trkpt>
      <trkpt lat="43.37243" lon="-1.51608">
        <ele>139.8</ele>
        <time>2022-08-30T08:52:49Z</time>
      </trkpt>
      <trkpt lat="43.3724" lon="-1.5161">
        <ele>139.5</ele>
        <time>2022-08-30T08:52:50Z</time>
      </trkpt>
      <trkpt lat="43.37238" lon="-1.51613">
        <ele>139.3</ele>
        <time>2022-08-30T08:52:51Z</time>
      </trkpt>
      <trkpt lat="43.37235" lon="-1.51616">
        <ele>139</ele>
        <time>2022-08-30T08:52:52Z</time>
      </trkpt>
      <trkpt lat="43.37232" lon="-1.51619">
        <ele>138.7</ele>
        <time>2022-08-30T08:52:53Z</time>
      </trkpt>
      <trkpt lat="43.37229" lon="-1.51623">
        <ele>138.4</ele>
        <time>2022-08-30T08:52:54Z</time>
      </trkpt>
      <trkpt lat="43.37226" lon="-1.51627">
        <ele>138.1</ele>
        <time>2022-08-30T08:52:55Z</time>
      </trkpt>
      <trkpt lat="43.37223" lon="-1.51632">
        <ele>137.8</ele>
        <time>2022-08-30T08:52:56Z</time>
      </trkpt>
      <trkpt lat="43.37221" lon="-1.51638">
        <ele>137.6</ele>
        <time>2022-08-30T08:52:57Z</time>
      </trkpt>
      <trkpt lat="43.37219" lon="-1.51645">
        <ele>137.3</ele>
        <time>2022-08-30T08:52:58Z</time>
      </trkpt>
      <trkpt lat="43.37217" lon="-1.51653">
        <ele>137</ele>
        <time>2022-08-30T08:52:59Z</time>
      </trkpt>
      <trkpt lat="43.37216" lon="-1.51661">
        <ele>136.9</ele>
        <time>2022-08-30T08:53:00Z</time>
      </trkpt>
      <trkpt lat="43.37216" lon="-1.51669">
        <ele>136.6</ele>
        <time>2022-08-30T08:53:01Z</time>
      </trkpt>
      <trkpt lat="43.37217" lon="-1.51677">
        <ele>136.6</ele>
        <time>2022-08-30T08:53:02Z</time>
      </trkpt>
      <trkpt lat="43.37218" lon="-1.51686">
        <ele>136.6</ele>
        <time>2022-08-30T08:53:03Z</time>
      </trkpt>
      <trkpt lat="43.37218" lon="-1.51695">
        <ele>136.6</ele>
        <time>2022-08-30T08:53:04Z</time>
      </trkpt>
      <trkpt lat="43.37217" lon="-1.51705">
        <ele>136.6</ele>
        <time>2022-08-30T08:53:05Z</time>
      </trkpt>
      <trkpt lat="43.37217" lon="-1.51712">
        <ele>136.6</ele>
        <time>2022-08-30T08:53:06Z</time>
      </trkpt>
      <trkpt lat="43.37217" lon="-1.51717">
        <ele>136.6</ele>
        <time>2022-08-30T08:53:07Z</time>
      </trkpt>
      <trkpt lat="43.3722" lon="-1.5172">
        <ele>136.6</ele>
        <time>2022-08-30T08:53:08Z</time>
      </trkpt>
      <trkpt lat="43.37223" lon="-1.51723">
        <ele>136.6</ele>
        <time>2022-08-30T08:53:09Z</time>
      </trkpt>
      <trkpt lat="43.37226" lon="-1.51729">
        <ele>136.6</ele>
        <time>2022-08-30T08:53:10Z</time>
      </trkpt>
      <trkpt lat="43.37226" lon="-1.51735">
        <ele>136.6</ele>
        <time>2022-08-30T08:53:11Z</time>
      </trkpt>
      <trkpt lat="43.37226" lon="-1.51741">
        <ele>136.6</ele>
        <time>2022-08-30T08:53:12Z</time>
      </trkpt>
      <trkpt lat="43.37225" lon="-1.51747">
        <ele>136.6</ele>
        <time>2022-08-30T08:53:13Z</time>
      </trkpt>
      <trkpt lat="43.37223" lon="-1.51754">
        <ele>136.6</ele>
        <time>2022-08-30T08:53:14Z</time>
      </trkpt>
      <trkpt lat="43.37221" lon="-1.5176">
        <ele>136.6</ele>
        <time>2022-08-30T08:53:15Z</time>
      </trkpt>
      <trkpt lat="43.37219" lon="-1.51765">
        <ele>136.6</ele>
        <time>2022-08-30T08:53:16Z</time>
      </trkpt>
      <trkpt lat="43.37217" lon="-1.5177">
        <ele>136.6</ele>
        <time>2022-08-30T08:53:17Z</time>
      </trkpt>
      <trkpt lat="43.37216" lon="-1.51776">
        <ele>136.6</ele>
        <time>2022-08-30T08:53:18Z</time>
      </trkpt>
      <trkpt lat="43.37215" lon="-1.51783">
        <ele>136.6</ele>
        <time>2022-08-30T08:53:19Z</time>
      </trkpt>
      <trkpt lat="43.37214" lon="-1.51789">
        <ele>136.6</ele>
        <time>2022-08-30T08:53:20Z</time>
      </trkpt>
      <trkpt lat="43.37212" lon="-1.51796">
        <ele>136.7</ele>
        <time>2022-08-30T08:53:21Z</time>
      </trkpt>
      <trkpt lat="43.37211" lon="-1.51802">
        <ele>136.7</ele>
        <time>2022-08-30T08:53:22Z</time>
      </trkpt>
      <trkpt lat="43.37209" lon="-1.51808">
        <ele>136.7</ele>
        <time>2022-08-30T08:53:23Z</time>
      </trkpt>
      <trkpt lat="43.37208" lon="-1.51815">
        <ele>136.8</ele>
        <time>2022-08-30T08:53:24Z</time>
      </trkpt>
      <trkpt lat="43.37207" lon="-1.51821">
        <ele>136.8</ele>
        <time>2022-08-30T08:53:25Z</time>
      </trkpt>
      <trkpt lat="43.37206" lon="-1.51828">
        <ele>136.9</ele>
        <time>2022-08-30T08:53:26Z</time>
      </trkpt>
      <trkpt lat="43.37205" lon="-1.51835">
        <ele>137</ele>
        <time>2022-08-30T08:53:27Z</time>
      </trkpt>
      <trkpt lat="43.37203" lon="-1.51841">
        <ele>137.1</ele>
        <time>2022-08-30T08:53:28Z</time>
      </trkpt>
      <trkpt lat="43.37203" lon="-1.51846">
        <ele>137.2</ele>
        <time>2022-08-30T08:53:29Z</time>
      </trkpt>
      <trkpt lat="43.37203" lon="-1.51851">
        <ele>137.3</ele>
        <time>2022-08-30T08:53:30Z</time>
      </trkpt>
      <trkpt lat="43.37203" lon="-1.51856">
        <ele>137.4</ele>
        <time>2022-08-30T08:53:31Z</time>
      </trkpt>
      <trkpt lat="43.37204" lon="-1.51861">
        <ele>137.5</ele>
        <time>2022-08-30T08:53:32Z</time>
      </trkpt>
      <trkpt lat="43.37205" lon="-1.51865">
        <ele>137.6</ele>
        <time>2022-08-30T08:53:33Z</time>
      </trkpt>
      <trkpt lat="43.37205" lon="-1.5187">
        <ele>137.8</ele>
        <time>2022-08-30T08:53:34Z</time>
      </trkpt>
      <trkpt lat="43.37205" lon="-1.51874">
        <ele>137.9</ele>
        <time>2022-08-30T08:53:35Z</time>
      </trkpt>
      <trkpt lat="43.37204" lon="-1.51878">
        <ele>138</ele>
        <time>2022-08-30T08:53:36Z</time>
      </trkpt>
      <trkpt lat="43.37203" lon="-1.51882">
        <ele>138.2</ele>
        <time>2022-08-30T08:53:37Z</time>
      </trkpt>
      <trkpt lat="43.37202" lon="-1.51886">
        <ele>138.3</ele>
        <time>2022-08-30T08:53:38Z</time>
      </trkpt>
      <trkpt lat="43.37202" lon="-1.51891">
        <ele>138.5</ele>
        <time>2022-08-30T08:53:39Z</time>
      </trkpt>
      <trkpt lat="43.372" lon="-1.51895">
        <ele>138.7</ele>
        <time>2022-08-30T08:53:40Z</time>
      </trkpt>
      <trkpt lat="43.37199" lon="-1.51899">
        <ele>138.9</ele>
        <time>2022-08-30T08:53:41Z</time>
      </trkpt>
      <trkpt lat="43.37198" lon="-1.51903">
        <ele>139.1</ele>
        <time>2022-08-30T08:53:42Z</time>
      </trkpt>
      <trkpt lat="43.37197" lon="-1.51907">
        <ele>139.3</ele>
        <time>2022-08-30T08:53:43Z</time>
      </trkpt>
      <trkpt lat="43.37196" lon="-1.51912">
        <ele>139.5</ele>
        <time>2022-08-30T08:53:44Z</time>
      </trkpt>
      <trkpt lat="43.37195" lon="-1.51915">
        <ele>139.7</ele>
        <time>2022-08-30T08:53:45Z</time>
      </trkpt>
      <trkpt lat="43.37194" lon="-1.5192">
        <ele>139.9</ele>
        <time>2022-08-30T08:53:46Z</time>
      </trkpt>
      <trkpt lat="43.37194" lon="-1.51922">
        <ele>139.9</ele>
        <time>2022-08-30T08:53:47Z</time>
      </trkpt>
      <trkpt lat="43.37192" lon="-1.51926">
        <ele>140.1</ele>
        <time>2022-08-30T08:53:48Z</time>
      </trkpt>
      <trkpt lat="43.37192" lon="-1.51928">
        <ele>140.1</ele>
        <time>2022-08-30T08:53:49Z</time>
      </trkpt>
      <trkpt lat="43.3719" lon="-1.51932">
        <ele>140.2</ele>
        <time>2022-08-30T08:53:50Z</time>
      </trkpt>
      <trkpt lat="43.3719" lon="-1.51937">
        <ele>140.4</ele>
        <time>2022-08-30T08:53:51Z</time>
      </trkpt>
      <trkpt lat="43.37189" lon="-1.51941">
        <ele>140.5</ele>
        <time>2022-08-30T08:53:52Z</time>
      </trkpt>
      <trkpt lat="43.37188" lon="-1.51947">
        <ele>140.6</ele>
        <time>2022-08-30T08:53:53Z</time>
      </trkpt>
      <trkpt lat="43.37186" lon="-1.51952">
        <ele>140.7</ele>
        <time>2022-08-30T08:53:54Z</time>
      </trkpt>
      <trkpt lat="43.37185" lon="-1.51957">
        <ele>140.9</ele>
        <time>2022-08-30T08:53:55Z</time>
      </trkpt>
      <trkpt lat="43.37184" lon="-1.51961">
        <ele>141</ele>
        <time>2022-08-30T08:53:56Z</time>
      </trkpt>
      <trkpt lat="43.37184" lon="-1.51966">
        <ele>141.1</ele>
        <time>2022-08-30T08:53:57Z</time>
      </trkpt>
      <trkpt lat="43.37183" lon="-1.51971">
        <ele>141.3</ele>
        <time>2022-08-30T08:53:58Z</time>
      </trkpt>
      <trkpt lat="43.37182" lon="-1.51976">
        <ele>141.4</ele>
        <time>2022-08-30T08:53:59Z</time>
      </trkpt>
      <trkpt lat="43.37181" lon="-1.5198">
        <ele>141.5</ele>
        <time>2022-08-30T08:54:00Z</time>
      </trkpt>
      <trkpt lat="43.37181" lon="-1.51983">
        <ele>141.6</ele>
        <time>2022-08-30T08:54:01Z</time>
      </trkpt>
      <trkpt lat="43.3718" lon="-1.51987">
        <ele>141.8</ele>
        <time>2022-08-30T08:54:02Z</time>
      </trkpt>
      <trkpt lat="43.3718" lon="-1.51991">
        <ele>141.9</ele>
        <time>2022-08-30T08:54:03Z</time>
      </trkpt>
      <trkpt lat="43.3718" lon="-1.51996">
        <ele>142</ele>
        <time>2022-08-30T08:54:04Z</time>
      </trkpt>
      <trkpt lat="43.37179" lon="-1.52">
        <ele>142.1</ele>
        <time>2022-08-30T08:54:05Z</time>
      </trkpt>
      <trkpt lat="43.37178" lon="-1.52004">
        <ele>142.2</ele>
        <time>2022-08-30T08:54:06Z</time>
      </trkpt>
      <trkpt lat="43.37177" lon="-1.52008">
        <ele>142.3</ele>
        <time>2022-08-30T08:54:07Z</time>
      </trkpt>
      <trkpt lat="43.37177" lon="-1.52012">
        <ele>142.4</ele>
        <time>2022-08-30T08:54:08Z</time>
      </trkpt>
      <trkpt lat="43.37176" lon="-1.52016">
        <ele>142.6</ele>
        <time>2022-08-30T08:54:09Z</time>
      </trkpt>
      <trkpt lat="43.37176" lon="-1.5202">
        <ele>142.7</ele>
        <time>2022-08-30T08:54:10Z</time>
      </trkpt>
      <trkpt lat="43.37176" lon="-1.52025">
        <ele>142.8</ele>
        <time>2022-08-30T08:54:11Z</time>
      </trkpt>
      <trkpt lat="43.37176" lon="-1.52027">
        <ele>142.8</ele>
        <time>2022-08-30T08:54:12Z</time>
      </trkpt>
      <trkpt lat="43.37176" lon="-1.52032">
        <ele>143</ele>
        <time>2022-08-30T08:54:13Z</time>
      </trkpt>
      <trkpt lat="43.37176" lon="-1.52034">
        <ele>143</ele>
        <time>2022-08-30T08:54:14Z</time>
      </trkpt>
      <trkpt lat="43.37176" lon="-1.52037">
        <ele>143.1</ele>
        <time>2022-08-30T08:54:15Z</time>
      </trkpt>
      <trkpt lat="43.37176" lon="-1.52041">
        <ele>143.2</ele>
        <time>2022-08-30T08:54:16Z</time>
      </trkpt>
      <trkpt lat="43.37174" lon="-1.52045">
        <ele>143.2</ele>
        <time>2022-08-30T08:54:17Z</time>
      </trkpt>
      <trkpt lat="43.37172" lon="-1.52049">
        <ele>143.3</ele>
        <time>2022-08-30T08:54:18Z</time>
      </trkpt>
      <trkpt lat="43.37171" lon="-1.52051">
        <ele>143.4</ele>
        <time>2022-08-30T08:54:19Z</time>
      </trkpt>
      <trkpt lat="43.3717" lon="-1.52055">
        <ele>143.4</ele>
        <time>2022-08-30T08:54:20Z</time>
      </trkpt>
      <trkpt lat="43.37169" lon="-1.52057">
        <ele>143.5</ele>
        <time>2022-08-30T08:54:21Z</time>
      </trkpt>
      <trkpt lat="43.37167" lon="-1.5206">
        <ele>143.5</ele>
        <time>2022-08-30T08:54:22Z</time>
      </trkpt>
      <trkpt lat="43.37166" lon="-1.52065">
        <ele>143.6</ele>
        <time>2022-08-30T08:54:23Z</time>
      </trkpt>
      <trkpt lat="43.37166" lon="-1.52066">
        <ele>143.6</ele>
        <time>2022-08-30T08:54:24Z</time>
      </trkpt>
      <trkpt lat="43.37165" lon="-1.5207">
        <ele>143.6</ele>
        <time>2022-08-30T08:54:25Z</time>
      </trkpt>
      <trkpt lat="43.37164" lon="-1.52075">
        <ele>143.7</ele>
        <time>2022-08-30T08:54:26Z</time>
      </trkpt>
      <trkpt lat="43.37163" lon="-1.52078">
        <ele>143.7</ele>
        <time>2022-08-30T08:54:27Z</time>
      </trkpt>
      <trkpt lat="43.37161" lon="-1.52081">
        <ele>143.8</ele>
        <time>2022-08-30T08:54:28Z</time>
      </trkpt>
      <trkpt lat="43.37159" lon="-1.52084">
        <ele>143.8</ele>
        <time>2022-08-30T08:54:29Z</time>
      </trkpt>
      <trkpt lat="43.37156" lon="-1.52088">
        <ele>143.9</ele>
        <time>2022-08-30T08:54:30Z</time>
      </trkpt>
      <trkpt lat="43.37156" lon="-1.52089">
        <ele>143.9</ele>
        <time>2022-08-30T08:54:31Z</time>
      </trkpt>
      <trkpt lat="43.37154" lon="-1.52092">
        <ele>144</ele>
        <time>2022-08-30T08:54:32Z</time>
      </trkpt>
      <trkpt lat="43.37151" lon="-1.52097">
        <ele>144.1</ele>
        <time>2022-08-30T08:54:33Z</time>
      </trkpt>
      <trkpt lat="43.3715" lon="-1.52099">
        <ele>144.1</ele>
        <time>2022-08-30T08:54:34Z</time>
      </trkpt>
      <trkpt lat="43.37148" lon="-1.52103">
        <ele>144.3</ele>
        <time>2022-08-30T08:54:35Z</time>
      </trkpt>
      <trkpt lat="43.37147" lon="-1.52107">
        <ele>144.4</ele>
        <time>2022-08-30T08:54:36Z</time>
      </trkpt>
      <trkpt lat="43.37145" lon="-1.52111">
        <ele>144.6</ele>
        <time>2022-08-30T08:54:37Z</time>
      </trkpt>
      <trkpt lat="43.37143" lon="-1.52115">
        <ele>144.7</ele>
        <time>2022-08-30T08:54:38Z</time>
      </trkpt>
      <trkpt lat="43.37141" lon="-1.52119">
        <ele>144.9</ele>
        <time>2022-08-30T08:54:39Z</time>
      </trkpt>
      <trkpt lat="43.37139" lon="-1.52123">
        <ele>145</ele>
        <time>2022-08-30T08:54:40Z</time>
      </trkpt>
      <trkpt lat="43.37138" lon="-1.52128">
        <ele>145.2</ele>
        <time>2022-08-30T08:54:41Z</time>
      </trkpt>
      <trkpt lat="43.37136" lon="-1.52133">
        <ele>145.4</ele>
        <time>2022-08-30T08:54:42Z</time>
      </trkpt>
      <trkpt lat="43.37134" lon="-1.52138">
        <ele>145.5</ele>
        <time>2022-08-30T08:54:43Z</time>
      </trkpt>
      <trkpt lat="43.37132" lon="-1.52142">
        <ele>145.7</ele>
        <time>2022-08-30T08:54:44Z</time>
      </trkpt>
      <trkpt lat="43.3713" lon="-1.52145">
        <ele>145.8</ele>
        <time>2022-08-30T08:54:45Z</time>
      </trkpt>
      <trkpt lat="43.37128" lon="-1.52148">
        <ele>145.9</ele>
        <time>2022-08-30T08:54:46Z</time>
      </trkpt>
      <trkpt lat="43.37125" lon="-1.52152">
        <ele>146.1</ele>
        <time>2022-08-30T08:54:47Z</time>
      </trkpt>
      <trkpt lat="43.37125" lon="-1.52153">
        <ele>146.1</ele>
        <time>2022-08-30T08:54:48Z</time>
      </trkpt>
      <trkpt lat="43.37122" lon="-1.52157">
        <ele>146.3</ele>
        <time>2022-08-30T08:54:49Z</time>
      </trkpt>
      <trkpt lat="43.37121" lon="-1.52159">
        <ele>146.3</ele>
        <time>2022-08-30T08:54:50Z</time>
      </trkpt>
      <trkpt lat="43.37118" lon="-1.52162">
        <ele>146.4</ele>
        <time>2022-08-30T08:54:51Z</time>
      </trkpt>
      <trkpt lat="43.37116" lon="-1.52165">
        <ele>146.5</ele>
        <time>2022-08-30T08:54:52Z</time>
      </trkpt>
      <trkpt lat="43.37114" lon="-1.52168">
        <ele>146.6</ele>
        <time>2022-08-30T08:54:53Z</time>
      </trkpt>
      <trkpt lat="43.37112" lon="-1.52171">
        <ele>146.7</ele>
        <time>2022-08-30T08:54:54Z</time>
      </trkpt>
      <trkpt lat="43.3711" lon="-1.52174">
        <ele>146.7</ele>
        <time>2022-08-30T08:54:55Z</time>
      </trkpt>
      <trkpt lat="43.37108" lon="-1.52177">
        <ele>146.8</ele>
        <time>2022-08-30T08:54:56Z</time>
      </trkpt>
      <trkpt lat="43.37105" lon="-1.5218">
        <ele>146.9</ele>
        <time>2022-08-30T08:54:57Z</time>
      </trkpt>
      <trkpt lat="43.37102" lon="-1.52182">
        <ele>147</ele>
        <time>2022-08-30T08:54:58Z</time>
      </trkpt>
      <trkpt lat="43.37099" lon="-1.52184">
        <ele>147.1</ele>
        <time>2022-08-30T08:54:59Z</time>
      </trkpt>
      <trkpt lat="43.37096" lon="-1.52186">
        <ele>147.1</ele>
        <time>2022-08-30T08:55:00Z</time>
      </trkpt>
      <trkpt lat="43.37093" lon="-1.52186">
        <ele>147.2</ele>
        <time>2022-08-30T08:55:01Z</time>
      </trkpt>
      <trkpt lat="43.37089" lon="-1.52187">
        <ele>147.3</ele>
        <time>2022-08-30T08:55:02Z</time>
      </trkpt>
      <trkpt lat="43.37086" lon="-1.52187">
        <ele>147.4</ele>
        <time>2022-08-30T08:55:03Z</time>
      </trkpt>
      <trkpt lat="43.37083" lon="-1.52188">
        <ele>147.4</ele>
        <time>2022-08-30T08:55:04Z</time>
      </trkpt>
      <trkpt lat="43.3708" lon="-1.52189">
        <ele>147.5</ele>
        <time>2022-08-30T08:55:05Z</time>
      </trkpt>
      <trkpt lat="43.37077" lon="-1.5219">
        <ele>147.5</ele>
        <time>2022-08-30T08:55:06Z</time>
      </trkpt>
      <trkpt lat="43.37074" lon="-1.52192">
        <ele>147.5</ele>
        <time>2022-08-30T08:55:07Z</time>
      </trkpt>
      <trkpt lat="43.3707" lon="-1.52193">
        <ele>147.6</ele>
        <time>2022-08-30T08:55:08Z</time>
      </trkpt>
      <trkpt lat="43.37067" lon="-1.52195">
        <ele>147.6</ele>
        <time>2022-08-30T08:55:09Z</time>
      </trkpt>
      <trkpt lat="43.37063" lon="-1.52196">
        <ele>147.6</ele>
        <time>2022-08-30T08:55:10Z</time>
      </trkpt>
      <trkpt lat="43.37059" lon="-1.52196">
        <ele>147.5</ele>
        <time>2022-08-30T08:55:11Z</time>
      </trkpt>
      <trkpt lat="43.37056" lon="-1.52197">
        <ele>147.5</ele>
        <time>2022-08-30T08:55:12Z</time>
      </trkpt>
      <trkpt lat="43.37052" lon="-1.52198">
        <ele>147.5</ele>
        <time>2022-08-30T08:55:13Z</time>
      </trkpt>
      <trkpt lat="43.37049" lon="-1.52199">
        <ele>147.5</ele>
        <time>2022-08-30T08:55:14Z</time>
      </trkpt>
      <trkpt lat="43.37046" lon="-1.52201">
        <ele>147.5</ele>
        <time>2022-08-30T08:55:15Z</time>
      </trkpt>
      <trkpt lat="43.37045" lon="-1.52201">
        <ele>147.5</ele>
        <time>2022-08-30T08:55:16Z</time>
      </trkpt>
      <trkpt lat="43.37042" lon="-1.52203">
        <ele>147.5</ele>
        <time>2022-08-30T08:55:17Z</time>
      </trkpt>
      <trkpt lat="43.37039" lon="-1.52203">
        <ele>147.5</ele>
        <time>2022-08-30T08:55:18Z</time>
      </trkpt>
      <trkpt lat="43.37036" lon="-1.52203">
        <ele>147.6</ele>
        <time>2022-08-30T08:55:19Z</time>
      </trkpt>
      <trkpt lat="43.37032" lon="-1.52204">
        <ele>147.6</ele>
        <time>2022-08-30T08:55:20Z</time>
      </trkpt>
      <trkpt lat="43.37029" lon="-1.52205">
        <ele>147.7</ele>
        <time>2022-08-30T08:55:21Z</time>
      </trkpt>
      <trkpt lat="43.37025" lon="-1.52205">
        <ele>147.7</ele>
        <time>2022-08-30T08:55:22Z</time>
      </trkpt>
      <trkpt lat="43.37022" lon="-1.52206">
        <ele>147.8</ele>
        <time>2022-08-30T08:55:23Z</time>
      </trkpt>
      <trkpt lat="43.37019" lon="-1.52206">
        <ele>147.9</ele>
        <time>2022-08-30T08:55:24Z</time>
      </trkpt>
      <trkpt lat="43.37015" lon="-1.52207">
        <ele>148</ele>
        <time>2022-08-30T08:55:25Z</time>
      </trkpt>
      <trkpt lat="43.37012" lon="-1.52207">
        <ele>148</ele>
        <time>2022-08-30T08:55:26Z</time>
      </trkpt>
      <trkpt lat="43.37009" lon="-1.52208">
        <ele>148.1</ele>
        <time>2022-08-30T08:55:27Z</time>
      </trkpt>
      <trkpt lat="43.37005" lon="-1.52208">
        <ele>148.2</ele>
        <time>2022-08-30T08:55:28Z</time>
      </trkpt>
      <trkpt lat="43.37002" lon="-1.52209">
        <ele>148.3</ele>
        <time>2022-08-30T08:55:29Z</time>
      </trkpt>
      <trkpt lat="43.36999" lon="-1.52209">
        <ele>148.4</ele>
        <time>2022-08-30T08:55:30Z</time>
      </trkpt>
      <trkpt lat="43.36996" lon="-1.5221">
        <ele>148.5</ele>
        <time>2022-08-30T08:55:31Z</time>
      </trkpt>
      <trkpt lat="43.36993" lon="-1.5221">
        <ele>148.6</ele>
        <time>2022-08-30T08:55:32Z</time>
      </trkpt>
      <trkpt lat="43.36989" lon="-1.52211">
        <ele>148.7</ele>
        <time>2022-08-30T08:55:33Z</time>
      </trkpt>
      <trkpt lat="43.36986" lon="-1.52211">
        <ele>148.8</ele>
        <time>2022-08-30T08:55:34Z</time>
      </trkpt>
      <trkpt lat="43.36983" lon="-1.52211">
        <ele>148.9</ele>
        <time>2022-08-30T08:55:35Z</time>
      </trkpt>
      <trkpt lat="43.36979" lon="-1.52211">
        <ele>149.1</ele>
        <time>2022-08-30T08:55:36Z</time>
      </trkpt>
      <trkpt lat="43.36975" lon="-1.52212">
        <ele>149.2</ele>
        <time>2022-08-30T08:55:37Z</time>
      </trkpt>
      <trkpt lat="43.36972" lon="-1.52212">
        <ele>149.4</ele>
        <time>2022-08-30T08:55:38Z</time>
      </trkpt>
      <trkpt lat="43.36968" lon="-1.52212">
        <ele>149.6</ele>
        <time>2022-08-30T08:55:39Z</time>
      </trkpt>
      <trkpt lat="43.36965" lon="-1.52212">
        <ele>149.8</ele>
        <time>2022-08-30T08:55:40Z</time>
      </trkpt>
      <trkpt lat="43.36961" lon="-1.52212">
        <ele>150</ele>
        <time>2022-08-30T08:55:41Z</time>
      </trkpt>
      <trkpt lat="43.36958" lon="-1.52213">
        <ele>150.2</ele>
        <time>2022-08-30T08:55:42Z</time>
      </trkpt>
      <trkpt lat="43.36955" lon="-1.52213">
        <ele>150.5</ele>
        <time>2022-08-30T08:55:43Z</time>
      </trkpt>
      <trkpt lat="43.36952" lon="-1.52213">
        <ele>150.7</ele>
        <time>2022-08-30T08:55:44Z</time>
      </trkpt>
      <trkpt lat="43.36948" lon="-1.52214">
        <ele>150.9</ele>
        <time>2022-08-30T08:55:45Z</time>
      </trkpt>
      <trkpt lat="43.36945" lon="-1.52214">
        <ele>151.2</ele>
        <time>2022-08-30T08:55:46Z</time>
      </trkpt>
      <trkpt lat="43.36942" lon="-1.52215">
        <ele>151.4</ele>
        <time>2022-08-30T08:55:47Z</time>
      </trkpt>
      <trkpt lat="43.36939" lon="-1.52216">
        <ele>151.6</ele>
        <time>2022-08-30T08:55:48Z</time>
      </trkpt>
      <trkpt lat="43.36935" lon="-1.52216">
        <ele>151.9</ele>
        <time>2022-08-30T08:55:49Z</time>
      </trkpt>
      <trkpt lat="43.36932" lon="-1.52216">
        <ele>152.2</ele>
        <time>2022-08-30T08:55:50Z</time>
      </trkpt>
      <trkpt lat="43.36928" lon="-1.52217">
        <ele>152.4</ele>
        <time>2022-08-30T08:55:51Z</time>
      </trkpt>
      <trkpt lat="43.36924" lon="-1.52218">
        <ele>152.7</ele>
        <time>2022-08-30T08:55:52Z</time>
      </trkpt>
      <trkpt lat="43.3692" lon="-1.52218">
        <ele>153.1</ele>
        <time>2022-08-30T08:55:53Z</time>
      </trkpt>
      <trkpt lat="43.36916" lon="-1.52218">
        <ele>153.4</ele>
        <time>2022-08-30T08:55:54Z</time>
      </trkpt>
      <trkpt lat="43.36912" lon="-1.52217">
        <ele>153.7</ele>
        <time>2022-08-30T08:55:55Z</time>
      </trkpt>
      <trkpt lat="43.36909" lon="-1.52217">
        <ele>154</ele>
        <time>2022-08-30T08:55:56Z</time>
      </trkpt>
      <trkpt lat="43.36906" lon="-1.52217">
        <ele>154.2</ele>
        <time>2022-08-30T08:55:57Z</time>
      </trkpt>
      <trkpt lat="43.36903" lon="-1.52218">
        <ele>154.5</ele>
        <time>2022-08-30T08:55:58Z</time>
      </trkpt>
      <trkpt lat="43.369" lon="-1.52219">
        <ele>154.7</ele>
        <time>2022-08-30T08:55:59Z</time>
      </trkpt>
      <trkpt lat="43.36896" lon="-1.5222">
        <ele>155</ele>
        <time>2022-08-30T08:56:00Z</time>
      </trkpt>
      <trkpt lat="43.36892" lon="-1.5222">
        <ele>155.2</ele>
        <time>2022-08-30T08:56:01Z</time>
      </trkpt>
      <trkpt lat="43.36888" lon="-1.52221">
        <ele>155.4</ele>
        <time>2022-08-30T08:56:02Z</time>
      </trkpt>
      <trkpt lat="43.36884" lon="-1.52221">
        <ele>155.6</ele>
        <time>2022-08-30T08:56:03Z</time>
      </trkpt>
      <trkpt lat="43.36881" lon="-1.52221">
        <ele>155.8</ele>
        <time>2022-08-30T08:56:04Z</time>
      </trkpt>
      <trkpt lat="43.36877" lon="-1.52221">
        <ele>155.9</ele>
        <time>2022-08-30T08:56:05Z</time>
      </trkpt>
      <trkpt lat="43.36874" lon="-1.52221">
        <ele>156.1</ele>
        <time>2022-08-30T08:56:06Z</time>
      </trkpt>
      <trkpt lat="43.36871" lon="-1.52221">
        <ele>156.2</ele>
        <time>2022-08-30T08:56:07Z</time>
      </trkpt>
      <trkpt lat="43.36868" lon="-1.52221">
        <ele>156.3</ele>
        <time>2022-08-30T08:56:08Z</time>
      </trkpt>
      <trkpt lat="43.36865" lon="-1.52221">
        <ele>156.4</ele>
        <time>2022-08-30T08:56:09Z</time>
      </trkpt>
      <trkpt lat="43.36861" lon="-1.52221">
        <ele>156.5</ele>
        <time>2022-08-30T08:56:10Z</time>
      </trkpt>
      <trkpt lat="43.36859" lon="-1.52221">
        <ele>156.5</ele>
        <time>2022-08-30T08:56:11Z</time>
      </trkpt>
      <trkpt lat="43.36856" lon="-1.52222">
        <ele>156.5</ele>
        <time>2022-08-30T08:56:12Z</time>
      </trkpt>
      <trkpt lat="43.36853" lon="-1.52222">
        <ele>156.5</ele>
        <time>2022-08-30T08:56:13Z</time>
      </trkpt>
      <trkpt lat="43.36849" lon="-1.52222">
        <ele>156.5</ele>
        <time>2022-08-30T08:56:14Z</time>
      </trkpt>
      <trkpt lat="43.36848" lon="-1.52222">
        <ele>156.4</ele>
        <time>2022-08-30T08:56:15Z</time>
      </trkpt>
      <trkpt lat="43.36845" lon="-1.52222">
        <ele>156.2</ele>
        <time>2022-08-30T08:56:16Z</time>
      </trkpt>
      <trkpt lat="43.36842" lon="-1.52223">
        <ele>156.1</ele>
        <time>2022-08-30T08:56:17Z</time>
      </trkpt>
      <trkpt lat="43.36838" lon="-1.52223">
        <ele>155.9</ele>
        <time>2022-08-30T08:56:18Z</time>
      </trkpt>
      <trkpt lat="43.36835" lon="-1.52223">
        <ele>155.7</ele>
        <time>2022-08-30T08:56:19Z</time>
      </trkpt>
      <trkpt lat="43.36831" lon="-1.52224">
        <ele>155.5</ele>
        <time>2022-08-30T08:56:20Z</time>
      </trkpt>
      <trkpt lat="43.36827" lon="-1.52224">
        <ele>155.2</ele>
        <time>2022-08-30T08:56:21Z</time>
      </trkpt>
      <trkpt lat="43.36822" lon="-1.52224">
        <ele>154.9</ele>
        <time>2022-08-30T08:56:22Z</time>
      </trkpt>
      <trkpt lat="43.36816" lon="-1.52224">
        <ele>154.6</ele>
        <time>2022-08-30T08:56:23Z</time>
      </trkpt>
      <trkpt lat="43.3681" lon="-1.52224">
        <ele>154.4</ele>
        <time>2022-08-30T08:56:24Z</time>
      </trkpt>
      <trkpt lat="43.36803" lon="-1.52224">
        <ele>154.2</ele>
        <time>2022-08-30T08:56:25Z</time>
      </trkpt>
      <trkpt lat="43.36797" lon="-1.52224">
        <ele>154.1</ele>
        <time>2022-08-30T08:56:26Z</time>
      </trkpt>
      <trkpt lat="43.36791" lon="-1.52223">
        <ele>154.1</ele>
        <time>2022-08-30T08:56:27Z</time>
      </trkpt>
      <trkpt lat="43.36785" lon="-1.52224">
        <ele>154</ele>
        <time>2022-08-30T08:56:28Z</time>
      </trkpt>
      <trkpt lat="43.36779" lon="-1.52224">
        <ele>154</ele>
        <time>2022-08-30T08:56:29Z</time>
      </trkpt>
      <trkpt lat="43.36774" lon="-1.52225">
        <ele>153.9</ele>
        <time>2022-08-30T08:56:30Z</time>
      </trkpt>
      <trkpt lat="43.36769" lon="-1.52225">
        <ele>153.9</ele>
        <time>2022-08-30T08:56:31Z</time>
      </trkpt>
      <trkpt lat="43.36764" lon="-1.52225">
        <ele>153.8</ele>
        <time>2022-08-30T08:56:32Z</time>
      </trkpt>
      <trkpt lat="43.3676" lon="-1.52226">
        <ele>153.8</ele>
        <time>2022-08-30T08:56:33Z</time>
      </trkpt>
      <trkpt lat="43.36756" lon="-1.52226">
        <ele>153.7</ele>
        <time>2022-08-30T08:56:34Z</time>
      </trkpt>
      <trkpt lat="43.36752" lon="-1.52227">
        <ele>153.7</ele>
        <time>2022-08-30T08:56:35Z</time>
      </trkpt>
      <trkpt lat="43.36748" lon="-1.52227">
        <ele>153.6</ele>
        <time>2022-08-30T08:56:36Z</time>
      </trkpt>
      <trkpt lat="43.36745" lon="-1.52225">
        <ele>153.5</ele>
        <time>2022-08-30T08:56:37Z</time>
      </trkpt>
      <trkpt lat="43.36741" lon="-1.52224">
        <ele>153.4</ele>
        <time>2022-08-30T08:56:38Z</time>
      </trkpt>
      <trkpt lat="43.36738" lon="-1.52223">
        <ele>153.4</ele>
        <time>2022-08-30T08:56:39Z</time>
      </trkpt>
      <trkpt lat="43.36735" lon="-1.52221">
        <ele>153.3</ele>
        <time>2022-08-30T08:56:40Z</time>
      </trkpt>
      <trkpt lat="43.36734" lon="-1.52218">
        <ele>153</ele>
        <time>2022-08-30T08:56:41Z</time>
      </trkpt>
      <trkpt lat="43.36734" lon="-1.52213">
        <ele>152.9</ele>
        <time>2022-08-30T08:56:42Z</time>
      </trkpt>
      <trkpt lat="43.36735" lon="-1.52207">
        <ele>152.9</ele>
        <time>2022-08-30T08:56:43Z</time>
      </trkpt>
      <trkpt lat="43.36737" lon="-1.52201">
        <ele>153</ele>
        <time>2022-08-30T08:56:44Z</time>
      </trkpt>
      <trkpt lat="43.36738" lon="-1.52196">
        <ele>153.1</ele>
        <time>2022-08-30T08:56:45Z</time>
      </trkpt>
      <trkpt lat="43.36738" lon="-1.52191">
        <ele>153.3</ele>
        <time>2022-08-30T08:56:46Z</time>
      </trkpt>
      <trkpt lat="43.36738" lon="-1.52187">
        <ele>153.4</ele>
        <time>2022-08-30T08:56:47Z</time>
      </trkpt>
      <trkpt lat="43.36739" lon="-1.52182">
        <ele>153.5</ele>
        <time>2022-08-30T08:56:48Z</time>
      </trkpt>
      <trkpt lat="43.36739" lon="-1.52181">
        <ele>153.5</ele>
        <time>2022-08-30T08:56:49Z</time>
      </trkpt>
      <trkpt lat="43.36739" lon="-1.52177">
        <ele>153.6</ele>
        <time>2022-08-30T08:56:50Z</time>
      </trkpt>
      <trkpt lat="43.3674" lon="-1.52175">
        <ele>153.6</ele>
        <time>2022-08-30T08:56:51Z</time>
      </trkpt>
      <trkpt lat="43.3674" lon="-1.52173">
        <ele>153.5</ele>
        <time>2022-08-30T08:56:52Z</time>
      </trkpt>
      <trkpt lat="43.3674" lon="-1.52171">
        <ele>153.5</ele>
        <time>2022-08-30T08:56:53Z</time>
      </trkpt>
      <trkpt lat="43.3674" lon="-1.5217">
        <ele>153.5</ele>
        <time>2022-08-30T08:56:54Z</time>
      </trkpt>
      <trkpt lat="43.36742" lon="-1.52169">
        <ele>153.5</ele>
        <time>2022-08-30T08:56:55Z</time>
      </trkpt>
      <trkpt lat="43.36743" lon="-1.5217">
        <ele>153.4</ele>
        <time>2022-08-30T08:56:56Z</time>
      </trkpt>
      <trkpt lat="43.36743" lon="-1.52171">
        <ele>153.4</ele>
        <time>2022-08-30T08:56:57Z</time>
      </trkpt>
      <trkpt lat="43.36744" lon="-1.52173">
        <ele>153.4</ele>
        <time>2022-08-30T08:56:58Z</time>
      </trkpt>
      <trkpt lat="43.36743" lon="-1.52174">
        <ele>153.4</ele>
        <time>2022-08-30T08:56:59Z</time>
      </trkpt>
      <trkpt lat="43.36743" lon="-1.52175">
        <ele>153.3</ele>
        <time>2022-08-30T08:57:00Z</time>
      </trkpt>
      <trkpt lat="43.36742" lon="-1.52178">
        <ele>153.3</ele>
        <time>2022-08-30T08:57:01Z</time>
      </trkpt>
      <trkpt lat="43.36741" lon="-1.52182">
        <ele>153.2</ele>
        <time>2022-08-30T08:57:02Z</time>
      </trkpt>
      <trkpt lat="43.3674" lon="-1.52183">
        <ele>153.2</ele>
        <time>2022-08-30T08:57:03Z</time>
      </trkpt>
      <trkpt lat="43.36739" lon="-1.52189">
        <ele>153.1</ele>
        <time>2022-08-30T08:57:04Z</time>
      </trkpt>
      <trkpt lat="43.36739" lon="-1.5219">
        <ele>153.1</ele>
        <time>2022-08-30T08:57:05Z</time>
      </trkpt>
      <trkpt lat="43.36739" lon="-1.52195">
        <ele>153</ele>
        <time>2022-08-30T08:57:06Z</time>
      </trkpt>
      <trkpt lat="43.36739" lon="-1.52197">
        <ele>153</ele>
        <time>2022-08-30T08:57:07Z</time>
      </trkpt>
      <trkpt lat="43.36739" lon="-1.52199">
        <ele>153</ele>
        <time>2022-08-30T08:57:08Z</time>
      </trkpt>
      <trkpt lat="43.36739" lon="-1.52201">
        <ele>153</ele>
        <time>2022-08-30T08:57:09Z</time>
      </trkpt>
      <trkpt lat="43.36739" lon="-1.52202">
        <ele>153</ele>
        <time>2022-08-30T08:57:10Z</time>
      </trkpt>
      <trkpt lat="43.36739" lon="-1.52202">
        <ele>152.9</ele>
        <time>2022-08-30T08:57:11Z</time>
      </trkpt>
      <trkpt lat="43.36739" lon="-1.52202">
        <ele>152.9</ele>
        <time>2022-08-30T08:57:12Z</time>
      </trkpt>
      <trkpt lat="43.36739" lon="-1.52202">
        <ele>152.9</ele>
        <time>2022-08-30T08:57:13Z</time>
      </trkpt>
      <trkpt lat="43.36738" lon="-1.52202">
        <ele>152.9</ele>
        <time>2022-08-30T08:57:14Z</time>
      </trkpt>
      <trkpt lat="43.36738" lon="-1.52202">
        <ele>152.9</ele>
        <time>2022-08-30T08:57:15Z</time>
      </trkpt>
      <trkpt lat="43.36737" lon="-1.52202">
        <ele>152.9</ele>
        <time>2022-08-30T08:57:16Z</time>
      </trkpt>
      <trkpt lat="43.36737" lon="-1.52202">
        <ele>152.9</ele>
        <time>2022-08-30T08:57:17Z</time>
      </trkpt>
      <trkpt lat="43.36737" lon="-1.52202">
        <ele>152.9</ele>
        <time>2022-08-30T08:57:18Z</time>
      </trkpt>
      <trkpt lat="43.36736" lon="-1.52202">
        <ele>152.9</ele>
        <time>2022-08-30T08:57:19Z</time>
      </trkpt>
      <trkpt lat="43.36735" lon="-1.52202">
        <ele>152.9</ele>
        <time>2022-08-30T08:57:20Z</time>
      </trkpt>
      <trkpt lat="43.36735" lon="-1.52202">
        <ele>152.9</ele>
        <time>2022-08-30T08:57:21Z</time>
      </trkpt>
      <trkpt lat="43.36735" lon="-1.52203">
        <ele>152.9</ele>
        <time>2022-08-30T08:57:22Z</time>
      </trkpt>
      <trkpt lat="43.36735" lon="-1.52203">
        <ele>152.9</ele>
        <time>2022-08-30T08:57:23Z</time>
      </trkpt>
      <trkpt lat="43.36735" lon="-1.52203">
        <ele>152.9</ele>
        <time>2022-08-30T08:57:24Z</time>
      </trkpt>
      <trkpt lat="43.36735" lon="-1.52204">
        <ele>152.9</ele>
        <time>2022-08-30T08:57:25Z</time>
      </trkpt>
      <trkpt lat="43.36735" lon="-1.52204">
        <ele>152.9</ele>
        <time>2022-08-30T08:57:26Z</time>
      </trkpt>
      <trkpt lat="43.36735" lon="-1.52204">
        <ele>152.9</ele>
        <time>2022-08-30T08:57:27Z</time>
      </trkpt>
      <trkpt lat="43.36735" lon="-1.52205">
        <ele>152.9</ele>
        <time>2022-08-30T08:57:28Z</time>
      </trkpt>
      <trkpt lat="43.36735" lon="-1.52205">
        <ele>152.9</ele>
        <time>2022-08-30T08:57:29Z</time>
      </trkpt>
      <trkpt lat="43.36735" lon="-1.52206">
        <ele>152.9</ele>
        <time>2022-08-30T08:57:30Z</time>
      </trkpt>
      <trkpt lat="43.36736" lon="-1.52206">
        <ele>152.9</ele>
        <time>2022-08-30T08:57:31Z</time>
      </trkpt>
      <trkpt lat="43.36736" lon="-1.52206">
        <ele>152.9</ele>
        <time>2022-08-30T08:57:32Z</time>
      </trkpt>
      <trkpt lat="43.36736" lon="-1.52207">
        <ele>152.9</ele>
        <time>2022-08-30T08:57:33Z</time>
      </trkpt>
      <trkpt lat="43.36736" lon="-1.52207">
        <ele>152.9</ele>
        <time>2022-08-30T08:58:07Z</time>
      </trkpt>
      <trkpt lat="43.36736" lon="-1.52207">
        <ele>153</ele>
        <time>2022-08-30T08:58:08Z</time>
      </trkpt>
      <trkpt lat="43.36736" lon="-1.52208">
        <ele>153</ele>
        <time>2022-08-30T08:58:09Z</time>
      </trkpt>
      <trkpt lat="43.36736" lon="-1.52208">
        <ele>153</ele>
        <time>2022-08-30T08:58:10Z</time>
      </trkpt>
      <trkpt lat="43.36736" lon="-1.52208">
        <ele>153</ele>
        <time>2022-08-30T08:58:11Z</time>
      </trkpt>
      <trkpt lat="43.36736" lon="-1.52209">
        <ele>153</ele>
        <time>2022-08-30T08:58:12Z</time>
      </trkpt>
      <trkpt lat="43.36736" lon="-1.52209">
        <ele>153</ele>
        <time>2022-08-30T08:58:13Z</time>
      </trkpt>
      <trkpt lat="43.36736" lon="-1.52209">
        <ele>153</ele>
        <time>2022-08-30T08:58:14Z</time>
      </trkpt>
      <trkpt lat="43.36736" lon="-1.5221">
        <ele>153</ele>
        <time>2022-08-30T08:58:15Z</time>
      </trkpt>
      <trkpt lat="43.36736" lon="-1.5221">
        <ele>153</ele>
        <time>2022-08-30T08:58:16Z</time>
      </trkpt>
      <trkpt lat="43.36736" lon="-1.5221">
        <ele>153</ele>
        <time>2022-08-30T08:58:17Z</time>
      </trkpt>
      <trkpt lat="43.36736" lon="-1.52211">
        <ele>153</ele>
        <time>2022-08-30T08:58:18Z</time>
      </trkpt>
      <trkpt lat="43.36736" lon="-1.52211">
        <ele>153</ele>
        <time>2022-08-30T08:58:48Z</time>
      </trkpt>
      <trkpt lat="43.36736" lon="-1.52211">
        <ele>153</ele>
        <time>2022-08-30T08:58:49Z</time>
      </trkpt>
      <trkpt lat="43.36736" lon="-1.52212">
        <ele>153</ele>
        <time>2022-08-30T08:58:50Z</time>
      </trkpt>
      <trkpt lat="43.36736" lon="-1.52216">
        <ele>153.1</ele>
        <time>2022-08-30T08:58:51Z</time>
      </trkpt>
      <trkpt lat="43.36735" lon="-1.5222">
        <ele>153.1</ele>
        <time>2022-08-30T08:58:52Z</time>
      </trkpt>
      <trkpt lat="43.36734" lon="-1.52224">
        <ele>153.2</ele>
        <time>2022-08-30T08:58:53Z</time>
      </trkpt>
      <trkpt lat="43.36733" lon="-1.52228">
        <ele>153.3</ele>
        <time>2022-08-30T08:58:54Z</time>
      </trkpt>
      <trkpt lat="43.3673" lon="-1.52232">
        <ele>153.2</ele>
        <time>2022-08-30T08:58:55Z</time>
      </trkpt>
      <trkpt lat="43.36727" lon="-1.52234">
        <ele>153.1</ele>
        <time>2022-08-30T08:58:56Z</time>
      </trkpt>
      <trkpt lat="43.36724" lon="-1.52236">
        <ele>153</ele>
        <time>2022-08-30T08:58:57Z</time>
      </trkpt>
      <trkpt lat="43.3672" lon="-1.52236">
        <ele>152.8</ele>
        <time>2022-08-30T08:58:58Z</time>
      </trkpt>
      <trkpt lat="43.36716" lon="-1.52237">
        <ele>152.7</ele>
        <time>2022-08-30T08:58:59Z</time>
      </trkpt>
      <trkpt lat="43.36713" lon="-1.52238">
        <ele>152.6</ele>
        <time>2022-08-30T08:59:00Z</time>
      </trkpt>
      <trkpt lat="43.36709" lon="-1.52238">
        <ele>152.5</ele>
        <time>2022-08-30T08:59:01Z</time>
      </trkpt>
      <trkpt lat="43.36705" lon="-1.52238">
        <ele>152.4</ele>
        <time>2022-08-30T08:59:02Z</time>
      </trkpt>
      <trkpt lat="43.36702" lon="-1.52239">
        <ele>152.3</ele>
        <time>2022-08-30T08:59:03Z</time>
      </trkpt>
      <trkpt lat="43.36698" lon="-1.5224">
        <ele>152.1</ele>
        <time>2022-08-30T08:59:04Z</time>
      </trkpt>
      <trkpt lat="43.36694" lon="-1.52241">
        <ele>152</ele>
        <time>2022-08-30T08:59:05Z</time>
      </trkpt>
      <trkpt lat="43.3669" lon="-1.52242">
        <ele>151.9</ele>
        <time>2022-08-30T08:59:06Z</time>
      </trkpt>
      <trkpt lat="43.36686" lon="-1.52242">
        <ele>151.7</ele>
        <time>2022-08-30T08:59:07Z</time>
      </trkpt>
      <trkpt lat="43.36682" lon="-1.52243">
        <ele>151.6</ele>
        <time>2022-08-30T08:59:08Z</time>
      </trkpt>
      <trkpt lat="43.36678" lon="-1.52244">
        <ele>151.4</ele>
        <time>2022-08-30T08:59:09Z</time>
      </trkpt>
      <trkpt lat="43.36674" lon="-1.52244">
        <ele>151.2</ele>
        <time>2022-08-30T08:59:10Z</time>
      </trkpt>
      <trkpt lat="43.36671" lon="-1.52244">
        <ele>150.9</ele>
        <time>2022-08-30T08:59:11Z</time>
      </trkpt>
      <trkpt lat="43.36667" lon="-1.52244">
        <ele>150.6</ele>
        <time>2022-08-30T08:59:12Z</time>
      </trkpt>
      <trkpt lat="43.36663" lon="-1.52242">
        <ele>150.3</ele>
        <time>2022-08-30T08:59:13Z</time>
      </trkpt>
      <trkpt lat="43.36659" lon="-1.52239">
        <ele>149.8</ele>
        <time>2022-08-30T08:59:14Z</time>
      </trkpt>
      <trkpt lat="43.36654" lon="-1.52235">
        <ele>149.2</ele>
        <time>2022-08-30T08:59:15Z</time>
      </trkpt>
      <trkpt lat="43.36649" lon="-1.5223">
        <ele>148.5</ele>
        <time>2022-08-30T08:59:16Z</time>
      </trkpt>
      <trkpt lat="43.36644" lon="-1.52224">
        <ele>147.9</ele>
        <time>2022-08-30T08:59:17Z</time>
      </trkpt>
      <trkpt lat="43.36639" lon="-1.52218">
        <ele>147.2</ele>
        <time>2022-08-30T08:59:18Z</time>
      </trkpt>
      <trkpt lat="43.36634" lon="-1.52212">
        <ele>146.5</ele>
        <time>2022-08-30T08:59:19Z</time>
      </trkpt>
      <trkpt lat="43.3663" lon="-1.52206">
        <ele>145.8</ele>
        <time>2022-08-30T08:59:20Z</time>
      </trkpt>
      <trkpt lat="43.36625" lon="-1.52202">
        <ele>145.1</ele>
        <time>2022-08-30T08:59:21Z</time>
      </trkpt>
      <trkpt lat="43.3662" lon="-1.52202">
        <ele>144.4</ele>
        <time>2022-08-30T08:59:22Z</time>
      </trkpt>
      <trkpt lat="43.36614" lon="-1.52203">
        <ele>143.5</ele>
        <time>2022-08-30T08:59:23Z</time>
      </trkpt>
      <trkpt lat="43.36607" lon="-1.52207">
        <ele>142.4</ele>
        <time>2022-08-30T08:59:24Z</time>
      </trkpt>
      <trkpt lat="43.36599" lon="-1.52211">
        <ele>141.1</ele>
        <time>2022-08-30T08:59:25Z</time>
      </trkpt>
      <trkpt lat="43.36591" lon="-1.52217">
        <ele>139.7</ele>
        <time>2022-08-30T08:59:26Z</time>
      </trkpt>
      <trkpt lat="43.36583" lon="-1.52223">
        <ele>138.4</ele>
        <time>2022-08-30T08:59:27Z</time>
      </trkpt>
      <trkpt lat="43.36575" lon="-1.5223">
        <ele>137.2</ele>
        <time>2022-08-30T08:59:28Z</time>
      </trkpt>
      <trkpt lat="43.36567" lon="-1.52237">
        <ele>136.1</ele>
        <time>2022-08-30T08:59:29Z</time>
      </trkpt>
      <trkpt lat="43.36559" lon="-1.52243">
        <ele>135.3</ele>
        <time>2022-08-30T08:59:30Z</time>
      </trkpt>
      <trkpt lat="43.36551" lon="-1.52248">
        <ele>134.7</ele>
        <time>2022-08-30T08:59:31Z</time>
      </trkpt>
      <trkpt lat="43.36545" lon="-1.52253">
        <ele>134.4</ele>
        <time>2022-08-30T08:59:32Z</time>
      </trkpt>
      <trkpt lat="43.36539" lon="-1.52257">
        <ele>134.1</ele>
        <time>2022-08-30T08:59:33Z</time>
      </trkpt>
      <trkpt lat="43.36534" lon="-1.5226">
        <ele>133.9</ele>
        <time>2022-08-30T08:59:34Z</time>
      </trkpt>
      <trkpt lat="43.3653" lon="-1.52262">
        <ele>133.7</ele>
        <time>2022-08-30T08:59:35Z</time>
      </trkpt>
      <trkpt lat="43.36527" lon="-1.52264">
        <ele>133.5</ele>
        <time>2022-08-30T08:59:36Z</time>
      </trkpt>
      <trkpt lat="43.36525" lon="-1.52266">
        <ele>133.4</ele>
        <time>2022-08-30T08:59:37Z</time>
      </trkpt>
      <trkpt lat="43.36522" lon="-1.5227">
        <ele>133.3</ele>
        <time>2022-08-30T08:59:38Z</time>
      </trkpt>
      <trkpt lat="43.36521" lon="-1.52272">
        <ele>133.3</ele>
        <time>2022-08-30T08:59:39Z</time>
      </trkpt>
      <trkpt lat="43.36519" lon="-1.52275">
        <ele>133.1</ele>
        <time>2022-08-30T08:59:40Z</time>
      </trkpt>
      <trkpt lat="43.36516" lon="-1.52277">
        <ele>133</ele>
        <time>2022-08-30T08:59:41Z</time>
      </trkpt>
      <trkpt lat="43.36512" lon="-1.52279">
        <ele>132.9</ele>
        <time>2022-08-30T08:59:42Z</time>
      </trkpt>
      <trkpt lat="43.36507" lon="-1.52281">
        <ele>132.8</ele>
        <time>2022-08-30T08:59:43Z</time>
      </trkpt>
      <trkpt lat="43.36502" lon="-1.52283">
        <ele>132.6</ele>
        <time>2022-08-30T08:59:44Z</time>
      </trkpt>
      <trkpt lat="43.36497" lon="-1.52285">
        <ele>132.4</ele>
        <time>2022-08-30T08:59:45Z</time>
      </trkpt>
      <trkpt lat="43.36492" lon="-1.52287">
        <ele>132.3</ele>
        <time>2022-08-30T08:59:46Z</time>
      </trkpt>
      <trkpt lat="43.36487" lon="-1.52288">
        <ele>132.1</ele>
        <time>2022-08-30T08:59:47Z</time>
      </trkpt>
      <trkpt lat="43.36482" lon="-1.5229">
        <ele>132</ele>
        <time>2022-08-30T08:59:48Z</time>
      </trkpt>
      <trkpt lat="43.36477" lon="-1.52292">
        <ele>131.9</ele>
        <time>2022-08-30T08:59:49Z</time>
      </trkpt>
      <trkpt lat="43.36471" lon="-1.52295">
        <ele>131.7</ele>
        <time>2022-08-30T08:59:50Z</time>
      </trkpt>
      <trkpt lat="43.36466" lon="-1.52298">
        <ele>131.6</ele>
        <time>2022-08-30T08:59:51Z</time>
      </trkpt>
      <trkpt lat="43.36461" lon="-1.523">
        <ele>131.5</ele>
        <time>2022-08-30T08:59:52Z</time>
      </trkpt>
      <trkpt lat="43.36455" lon="-1.52303">
        <ele>131.5</ele>
        <time>2022-08-30T08:59:53Z</time>
      </trkpt>
      <trkpt lat="43.3645" lon="-1.52306">
        <ele>131.4</ele>
        <time>2022-08-30T08:59:54Z</time>
      </trkpt>
      <trkpt lat="43.36445" lon="-1.52309">
        <ele>131.3</ele>
        <time>2022-08-30T08:59:55Z</time>
      </trkpt>
      <trkpt lat="43.36439" lon="-1.52311">
        <ele>131.3</ele>
        <time>2022-08-30T08:59:56Z</time>
      </trkpt>
      <trkpt lat="43.36434" lon="-1.52314">
        <ele>131.3</ele>
        <time>2022-08-30T08:59:57Z</time>
      </trkpt>
      <trkpt lat="43.36429" lon="-1.52318">
        <ele>131.2</ele>
        <time>2022-08-30T08:59:58Z</time>
      </trkpt>
      <trkpt lat="43.36423" lon="-1.52321">
        <ele>131.2</ele>
        <time>2022-08-30T08:59:59Z</time>
      </trkpt>
      <trkpt lat="43.36418" lon="-1.52324">
        <ele>131.3</ele>
        <time>2022-08-30T09:00:00Z</time>
      </trkpt>
      <trkpt lat="43.36413" lon="-1.52328">
        <ele>131.3</ele>
        <time>2022-08-30T09:00:01Z</time>
      </trkpt>
      <trkpt lat="43.36408" lon="-1.52332">
        <ele>131.4</ele>
        <time>2022-08-30T09:00:02Z</time>
      </trkpt>
      <trkpt lat="43.36403" lon="-1.52336">
        <ele>131.5</ele>
        <time>2022-08-30T09:00:03Z</time>
      </trkpt>
      <trkpt lat="43.36398" lon="-1.5234">
        <ele>131.6</ele>
        <time>2022-08-30T09:00:04Z</time>
      </trkpt>
      <trkpt lat="43.36393" lon="-1.52344">
        <ele>131.8</ele>
        <time>2022-08-30T09:00:05Z</time>
      </trkpt>
      <trkpt lat="43.36388" lon="-1.52348">
        <ele>132</ele>
        <time>2022-08-30T09:00:06Z</time>
      </trkpt>
      <trkpt lat="43.36383" lon="-1.52352">
        <ele>132.2</ele>
        <time>2022-08-30T09:00:07Z</time>
      </trkpt>
      <trkpt lat="43.36378" lon="-1.52356">
        <ele>132.4</ele>
        <time>2022-08-30T09:00:08Z</time>
      </trkpt>
      <trkpt lat="43.36373" lon="-1.5236">
        <ele>132.6</ele>
        <time>2022-08-30T09:00:09Z</time>
      </trkpt>
      <trkpt lat="43.36369" lon="-1.52365">
        <ele>132.8</ele>
        <time>2022-08-30T09:00:10Z</time>
      </trkpt>
      <trkpt lat="43.36366" lon="-1.52369">
        <ele>133</ele>
        <time>2022-08-30T09:00:11Z</time>
      </trkpt>
      <trkpt lat="43.36362" lon="-1.52373">
        <ele>133.2</ele>
        <time>2022-08-30T09:00:12Z</time>
      </trkpt>
      <trkpt lat="43.36358" lon="-1.52378">
        <ele>133.3</ele>
        <time>2022-08-30T09:00:13Z</time>
      </trkpt>
      <trkpt lat="43.36355" lon="-1.52382">
        <ele>133.4</ele>
        <time>2022-08-30T09:00:14Z</time>
      </trkpt>
      <trkpt lat="43.36352" lon="-1.52387">
        <ele>133.5</ele>
        <time>2022-08-30T09:00:15Z</time>
      </trkpt>
      <trkpt lat="43.36349" lon="-1.52391">
        <ele>133.6</ele>
        <time>2022-08-30T09:00:16Z</time>
      </trkpt>
      <trkpt lat="43.36347" lon="-1.52394">
        <ele>133.6</ele>
        <time>2022-08-30T09:00:17Z</time>
      </trkpt>
      <trkpt lat="43.36344" lon="-1.52398">
        <ele>133.7</ele>
        <time>2022-08-30T09:00:18Z</time>
      </trkpt>
      <trkpt lat="43.36341" lon="-1.52403">
        <ele>133.7</ele>
        <time>2022-08-30T09:00:19Z</time>
      </trkpt>
      <trkpt lat="43.36338" lon="-1.52407">
        <ele>133.7</ele>
        <time>2022-08-30T09:00:20Z</time>
      </trkpt>
      <trkpt lat="43.36334" lon="-1.52411">
        <ele>133.7</ele>
        <time>2022-08-30T09:00:21Z</time>
      </trkpt>
      <trkpt lat="43.3633" lon="-1.52413">
        <ele>133.7</ele>
        <time>2022-08-30T09:00:22Z</time>
      </trkpt>
      <trkpt lat="43.36325" lon="-1.52416">
        <ele>133.7</ele>
        <time>2022-08-30T09:00:23Z</time>
      </trkpt>
      <trkpt lat="43.3632" lon="-1.52419">
        <ele>133.7</ele>
        <time>2022-08-30T09:00:24Z</time>
      </trkpt>
      <trkpt lat="43.36316" lon="-1.52423">
        <ele>133.6</ele>
        <time>2022-08-30T09:00:25Z</time>
      </trkpt>
      <trkpt lat="43.36313" lon="-1.52428">
        <ele>133.4</ele>
        <time>2022-08-30T09:00:26Z</time>
      </trkpt>
      <trkpt lat="43.3631" lon="-1.52433">
        <ele>133.3</ele>
        <time>2022-08-30T09:00:27Z</time>
      </trkpt>
      <trkpt lat="43.36306" lon="-1.52438">
        <ele>133.1</ele>
        <time>2022-08-30T09:00:28Z</time>
      </trkpt>
      <trkpt lat="43.36302" lon="-1.52444">
        <ele>132.7</ele>
        <time>2022-08-30T09:00:29Z</time>
      </trkpt>
      <trkpt lat="43.36299" lon="-1.5245">
        <ele>132.3</ele>
        <time>2022-08-30T09:00:30Z</time>
      </trkpt>
      <trkpt lat="43.36296" lon="-1.52457">
        <ele>131.8</ele>
        <time>2022-08-30T09:00:31Z</time>
      </trkpt>
      <trkpt lat="43.36293" lon="-1.52465">
        <ele>131.3</ele>
        <time>2022-08-30T09:00:32Z</time>
      </trkpt>
      <trkpt lat="43.3629" lon="-1.52474">
        <ele>130.7</ele>
        <time>2022-08-30T09:00:33Z</time>
      </trkpt>
      <trkpt lat="43.36285" lon="-1.52482">
        <ele>130.1</ele>
        <time>2022-08-30T09:00:34Z</time>
      </trkpt>
      <trkpt lat="43.36279" lon="-1.5249">
        <ele>129.5</ele>
        <time>2022-08-30T09:00:35Z</time>
      </trkpt>
      <trkpt lat="43.36271" lon="-1.52496">
        <ele>128.9</ele>
        <time>2022-08-30T09:00:36Z</time>
      </trkpt>
      <trkpt lat="43.36263" lon="-1.52502">
        <ele>128.4</ele>
        <time>2022-08-30T09:00:37Z</time>
      </trkpt>
      <trkpt lat="43.36256" lon="-1.52507">
        <ele>128.1</ele>
        <time>2022-08-30T09:00:38Z</time>
      </trkpt>
      <trkpt lat="43.36247" lon="-1.52513">
        <ele>127.8</ele>
        <time>2022-08-30T09:00:39Z</time>
      </trkpt>
      <trkpt lat="43.3624" lon="-1.52518">
        <ele>127.6</ele>
        <time>2022-08-30T09:00:40Z</time>
      </trkpt>
      <trkpt lat="43.36232" lon="-1.52523">
        <ele>127.4</ele>
        <time>2022-08-30T09:00:41Z</time>
      </trkpt>
      <trkpt lat="43.36224" lon="-1.52526">
        <ele>127.3</ele>
        <time>2022-08-30T09:00:42Z</time>
      </trkpt>
      <trkpt lat="43.36217" lon="-1.5253">
        <ele>127.2</ele>
        <time>2022-08-30T09:00:43Z</time>
      </trkpt>
      <trkpt lat="43.3621" lon="-1.52533">
        <ele>127.1</ele>
        <time>2022-08-30T09:00:44Z</time>
      </trkpt>
      <trkpt lat="43.36202" lon="-1.52536">
        <ele>127.1</ele>
        <time>2022-08-30T09:00:45Z</time>
      </trkpt>
      <trkpt lat="43.36196" lon="-1.52539">
        <ele>127</ele>
        <time>2022-08-30T09:00:46Z</time>
      </trkpt>
      <trkpt lat="43.36189" lon="-1.52541">
        <ele>127</ele>
        <time>2022-08-30T09:00:47Z</time>
      </trkpt>
      <trkpt lat="43.36182" lon="-1.52544">
        <ele>127</ele>
        <time>2022-08-30T09:00:48Z</time>
      </trkpt>
      <trkpt lat="43.36176" lon="-1.52546">
        <ele>127</ele>
        <time>2022-08-30T09:00:49Z</time>
      </trkpt>
      <trkpt lat="43.36171" lon="-1.52549">
        <ele>127</ele>
        <time>2022-08-30T09:00:50Z</time>
      </trkpt>
      <trkpt lat="43.36165" lon="-1.52552">
        <ele>127.1</ele>
        <time>2022-08-30T09:00:51Z</time>
      </trkpt>
      <trkpt lat="43.3616" lon="-1.52555">
        <ele>127.1</ele>
        <time>2022-08-30T09:00:52Z</time>
      </trkpt>
      <trkpt lat="43.36155" lon="-1.52555">
        <ele>126.8</ele>
        <time>2022-08-30T09:00:53Z</time>
      </trkpt>
      <trkpt lat="43.36149" lon="-1.52553">
        <ele>126.3</ele>
        <time>2022-08-30T09:00:54Z</time>
      </trkpt>
      <trkpt lat="43.36144" lon="-1.52549">
        <ele>125.9</ele>
        <time>2022-08-30T09:00:55Z</time>
      </trkpt>
      <trkpt lat="43.3614" lon="-1.52543">
        <ele>125.4</ele>
        <time>2022-08-30T09:00:56Z</time>
      </trkpt>
      <trkpt lat="43.36134" lon="-1.52539">
        <ele>124.9</ele>
        <time>2022-08-30T09:00:57Z</time>
      </trkpt>
      <trkpt lat="43.36128" lon="-1.52538">
        <ele>124.5</ele>
        <time>2022-08-30T09:00:58Z</time>
      </trkpt>
      <trkpt lat="43.36121" lon="-1.52538">
        <ele>124.1</ele>
        <time>2022-08-30T09:00:59Z</time>
      </trkpt>
      <trkpt lat="43.36114" lon="-1.52538">
        <ele>123.8</ele>
        <time>2022-08-30T09:01:00Z</time>
      </trkpt>
      <trkpt lat="43.36106" lon="-1.5254">
        <ele>123.4</ele>
        <time>2022-08-30T09:01:01Z</time>
      </trkpt>
      <trkpt lat="43.36099" lon="-1.52543">
        <ele>123</ele>
        <time>2022-08-30T09:01:02Z</time>
      </trkpt>
      <trkpt lat="43.36091" lon="-1.52546">
        <ele>122.6</ele>
        <time>2022-08-30T09:01:03Z</time>
      </trkpt>
      <trkpt lat="43.36083" lon="-1.52549">
        <ele>122.2</ele>
        <time>2022-08-30T09:01:04Z</time>
      </trkpt>
      <trkpt lat="43.36076" lon="-1.52551">
        <ele>121.9</ele>
        <time>2022-08-30T09:01:05Z</time>
      </trkpt>
      <trkpt lat="43.36068" lon="-1.52554">
        <ele>121.5</ele>
        <time>2022-08-30T09:01:06Z</time>
      </trkpt>
      <trkpt lat="43.36061" lon="-1.52557">
        <ele>121.2</ele>
        <time>2022-08-30T09:01:07Z</time>
      </trkpt>
      <trkpt lat="43.36054" lon="-1.5256">
        <ele>120.9</ele>
        <time>2022-08-30T09:01:08Z</time>
      </trkpt>
      <trkpt lat="43.36048" lon="-1.52564">
        <ele>120.6</ele>
        <time>2022-08-30T09:01:09Z</time>
      </trkpt>
      <trkpt lat="43.36041" lon="-1.52568">
        <ele>120.4</ele>
        <time>2022-08-30T09:01:10Z</time>
      </trkpt>
      <trkpt lat="43.36034" lon="-1.52571">
        <ele>120.2</ele>
        <time>2022-08-30T09:01:11Z</time>
      </trkpt>
      <trkpt lat="43.36027" lon="-1.52574">
        <ele>119.9</ele>
        <time>2022-08-30T09:01:12Z</time>
      </trkpt>
      <trkpt lat="43.3602" lon="-1.52574">
        <ele>119.7</ele>
        <time>2022-08-30T09:01:13Z</time>
      </trkpt>
      <trkpt lat="43.36013" lon="-1.52574">
        <ele>119.5</ele>
        <time>2022-08-30T09:01:14Z</time>
      </trkpt>
      <trkpt lat="43.36006" lon="-1.52574">
        <ele>119.1</ele>
        <time>2022-08-30T09:01:15Z</time>
      </trkpt>
      <trkpt lat="43.35999" lon="-1.52573">
        <ele>118.8</ele>
        <time>2022-08-30T09:01:16Z</time>
      </trkpt>
      <trkpt lat="43.35992" lon="-1.52572">
        <ele>118.4</ele>
        <time>2022-08-30T09:01:17Z</time>
      </trkpt>
      <trkpt lat="43.35985" lon="-1.5257">
        <ele>118.1</ele>
        <time>2022-08-30T09:01:18Z</time>
      </trkpt>
      <trkpt lat="43.35978" lon="-1.52569">
        <ele>117.7</ele>
        <time>2022-08-30T09:01:19Z</time>
      </trkpt>
      <trkpt lat="43.3597" lon="-1.52569">
        <ele>117.3</ele>
        <time>2022-08-30T09:01:20Z</time>
      </trkpt>
      <trkpt lat="43.35963" lon="-1.52568">
        <ele>116.9</ele>
        <time>2022-08-30T09:01:21Z</time>
      </trkpt>
      <trkpt lat="43.35955" lon="-1.52569">
        <ele>116.5</ele>
        <time>2022-08-30T09:01:22Z</time>
      </trkpt>
      <trkpt lat="43.35948" lon="-1.5257">
        <ele>116.2</ele>
        <time>2022-08-30T09:01:23Z</time>
      </trkpt>
      <trkpt lat="43.3594" lon="-1.52571">
        <ele>115.9</ele>
        <time>2022-08-30T09:01:24Z</time>
      </trkpt>
      <trkpt lat="43.35933" lon="-1.52572">
        <ele>115.6</ele>
        <time>2022-08-30T09:01:25Z</time>
      </trkpt>
      <trkpt lat="43.35925" lon="-1.52573">
        <ele>115.4</ele>
        <time>2022-08-30T09:01:26Z</time>
      </trkpt>
      <trkpt lat="43.35918" lon="-1.52572">
        <ele>115.1</ele>
        <time>2022-08-30T09:01:27Z</time>
      </trkpt>
      <trkpt lat="43.35911" lon="-1.5257">
        <ele>114.9</ele>
        <time>2022-08-30T09:01:28Z</time>
      </trkpt>
      <trkpt lat="43.35903" lon="-1.52567">
        <ele>114.6</ele>
        <time>2022-08-30T09:01:29Z</time>
      </trkpt>
      <trkpt lat="43.35896" lon="-1.52563">
        <ele>114.3</ele>
        <time>2022-08-30T09:01:30Z</time>
      </trkpt>
      <trkpt lat="43.35889" lon="-1.52559">
        <ele>114.1</ele>
        <time>2022-08-30T09:01:31Z</time>
      </trkpt>
      <trkpt lat="43.35882" lon="-1.52556">
        <ele>113.9</ele>
        <time>2022-08-30T09:01:32Z</time>
      </trkpt>
      <trkpt lat="43.35875" lon="-1.52552">
        <ele>113.7</ele>
        <time>2022-08-30T09:01:33Z</time>
      </trkpt>
      <trkpt lat="43.35868" lon="-1.52551">
        <ele>113.5</ele>
        <time>2022-08-30T09:01:34Z</time>
      </trkpt>
      <trkpt lat="43.35861" lon="-1.52549">
        <ele>113.3</ele>
        <time>2022-08-30T09:01:35Z</time>
      </trkpt>
      <trkpt lat="43.35854" lon="-1.52547">
        <ele>113.1</ele>
        <time>2022-08-30T09:01:36Z</time>
      </trkpt>
      <trkpt lat="43.35846" lon="-1.52545">
        <ele>112.9</ele>
        <time>2022-08-30T09:01:37Z</time>
      </trkpt>
      <trkpt lat="43.3584" lon="-1.52543">
        <ele>112.7</ele>
        <time>2022-08-30T09:01:38Z</time>
      </trkpt>
      <trkpt lat="43.35833" lon="-1.52542">
        <ele>112.5</ele>
        <time>2022-08-30T09:01:39Z</time>
      </trkpt>
      <trkpt lat="43.35826" lon="-1.5254">
        <ele>112.3</ele>
        <time>2022-08-30T09:01:40Z</time>
      </trkpt>
      <trkpt lat="43.35819" lon="-1.52539">
        <ele>112.1</ele>
        <time>2022-08-30T09:01:41Z</time>
      </trkpt>
      <trkpt lat="43.35812" lon="-1.52538">
        <ele>111.8</ele>
        <time>2022-08-30T09:01:42Z</time>
      </trkpt>
      <trkpt lat="43.35805" lon="-1.52537">
        <ele>111.6</ele>
        <time>2022-08-30T09:01:43Z</time>
      </trkpt>
      <trkpt lat="43.35798" lon="-1.52536">
        <ele>111.3</ele>
        <time>2022-08-30T09:01:44Z</time>
      </trkpt>
      <trkpt lat="43.35791" lon="-1.52536">
        <ele>110.9</ele>
        <time>2022-08-30T09:01:45Z</time>
      </trkpt>
      <trkpt lat="43.35784" lon="-1.52535">
        <ele>110.6</ele>
        <time>2022-08-30T09:01:46Z</time>
      </trkpt>
      <trkpt lat="43.35777" lon="-1.52534">
        <ele>110.1</ele>
        <time>2022-08-30T09:01:47Z</time>
      </trkpt>
      <trkpt lat="43.35769" lon="-1.52534">
        <ele>109.6</ele>
        <time>2022-08-30T09:01:48Z</time>
      </trkpt>
      <trkpt lat="43.35763" lon="-1.52532">
        <ele>109.1</ele>
        <time>2022-08-30T09:01:49Z</time>
      </trkpt>
      <trkpt lat="43.35755" lon="-1.52531">
        <ele>108.5</ele>
        <time>2022-08-30T09:01:50Z</time>
      </trkpt>
      <trkpt lat="43.35747" lon="-1.52531">
        <ele>107.9</ele>
        <time>2022-08-30T09:01:51Z</time>
      </trkpt>
      <trkpt lat="43.35739" lon="-1.5253">
        <ele>107.4</ele>
        <time>2022-08-30T09:01:52Z</time>
      </trkpt>
      <trkpt lat="43.3573" lon="-1.5253">
        <ele>106.9</ele>
        <time>2022-08-30T09:01:53Z</time>
      </trkpt>
      <trkpt lat="43.35722" lon="-1.5253">
        <ele>106.5</ele>
        <time>2022-08-30T09:01:54Z</time>
      </trkpt>
      <trkpt lat="43.35713" lon="-1.5253">
        <ele>106.2</ele>
        <time>2022-08-30T09:01:55Z</time>
      </trkpt>
      <trkpt lat="43.35704" lon="-1.52531">
        <ele>106</ele>
        <time>2022-08-30T09:01:56Z</time>
      </trkpt>
      <trkpt lat="43.35696" lon="-1.52531">
        <ele>105.8</ele>
        <time>2022-08-30T09:01:57Z</time>
      </trkpt>
      <trkpt lat="43.35687" lon="-1.52531">
        <ele>105.6</ele>
        <time>2022-08-30T09:01:58Z</time>
      </trkpt>
      <trkpt lat="43.35679" lon="-1.52531">
        <ele>105.5</ele>
        <time>2022-08-30T09:01:59Z</time>
      </trkpt>
      <trkpt lat="43.35671" lon="-1.52532">
        <ele>105.4</ele>
        <time>2022-08-30T09:02:00Z</time>
      </trkpt>
      <trkpt lat="43.35663" lon="-1.52532">
        <ele>105.3</ele>
        <time>2022-08-30T09:02:01Z</time>
      </trkpt>
      <trkpt lat="43.35655" lon="-1.52532">
        <ele>105.3</ele>
        <time>2022-08-30T09:02:02Z</time>
      </trkpt>
      <trkpt lat="43.35647" lon="-1.52532">
        <ele>105.3</ele>
        <time>2022-08-30T09:02:03Z</time>
      </trkpt>
      <trkpt lat="43.3564" lon="-1.52534">
        <ele>105.3</ele>
        <time>2022-08-30T09:02:04Z</time>
      </trkpt>
      <trkpt lat="43.35633" lon="-1.52536">
        <ele>105.4</ele>
        <time>2022-08-30T09:02:05Z</time>
      </trkpt>
      <trkpt lat="43.35627" lon="-1.52539">
        <ele>105.5</ele>
        <time>2022-08-30T09:02:06Z</time>
      </trkpt>
      <trkpt lat="43.35621" lon="-1.52541">
        <ele>105.7</ele>
        <time>2022-08-30T09:02:07Z</time>
      </trkpt>
      <trkpt lat="43.35615" lon="-1.52544">
        <ele>105.8</ele>
        <time>2022-08-30T09:02:08Z</time>
      </trkpt>
      <trkpt lat="43.3561" lon="-1.52547">
        <ele>105.9</ele>
        <time>2022-08-30T09:02:09Z</time>
      </trkpt>
      <trkpt lat="43.35605" lon="-1.52549">
        <ele>106</ele>
        <time>2022-08-30T09:02:10Z</time>
      </trkpt>
      <trkpt lat="43.35599" lon="-1.52551">
        <ele>106.1</ele>
        <time>2022-08-30T09:02:11Z</time>
      </trkpt>
      <trkpt lat="43.35593" lon="-1.52553">
        <ele>106.1</ele>
        <time>2022-08-30T09:02:12Z</time>
      </trkpt>
      <trkpt lat="43.35588" lon="-1.52555">
        <ele>106</ele>
        <time>2022-08-30T09:02:13Z</time>
      </trkpt>
      <trkpt lat="43.35582" lon="-1.52556">
        <ele>105.8</ele>
        <time>2022-08-30T09:02:14Z</time>
      </trkpt>
      <trkpt lat="43.35577" lon="-1.52556">
        <ele>105.5</ele>
        <time>2022-08-30T09:02:15Z</time>
      </trkpt>
      <trkpt lat="43.35571" lon="-1.52557">
        <ele>105.2</ele>
        <time>2022-08-30T09:02:16Z</time>
      </trkpt>
      <trkpt lat="43.35565" lon="-1.52557">
        <ele>104.8</ele>
        <time>2022-08-30T09:02:17Z</time>
      </trkpt>
      <trkpt lat="43.35559" lon="-1.52557">
        <ele>104.3</ele>
        <time>2022-08-30T09:02:18Z</time>
      </trkpt>
      <trkpt lat="43.35553" lon="-1.52556">
        <ele>103.9</ele>
        <time>2022-08-30T09:02:19Z</time>
      </trkpt>
      <trkpt lat="43.35546" lon="-1.52556">
        <ele>103.4</ele>
        <time>2022-08-30T09:02:20Z</time>
      </trkpt>
      <trkpt lat="43.35539" lon="-1.52555">
        <ele>102.9</ele>
        <time>2022-08-30T09:02:21Z</time>
      </trkpt>
      <trkpt lat="43.35532" lon="-1.52553">
        <ele>102.4</ele>
        <time>2022-08-30T09:02:22Z</time>
      </trkpt>
      <trkpt lat="43.35525" lon="-1.52552">
        <ele>102</ele>
        <time>2022-08-30T09:02:23Z</time>
      </trkpt>
      <trkpt lat="43.35519" lon="-1.52552">
        <ele>101.6</ele>
        <time>2022-08-30T09:02:24Z</time>
      </trkpt>
      <trkpt lat="43.35513" lon="-1.52551">
        <ele>101.2</ele>
        <time>2022-08-30T09:02:25Z</time>
      </trkpt>
      <trkpt lat="43.35507" lon="-1.5255">
        <ele>100.8</ele>
        <time>2022-08-30T09:02:26Z</time>
      </trkpt>
      <trkpt lat="43.35501" lon="-1.5255">
        <ele>100.4</ele>
        <time>2022-08-30T09:02:27Z</time>
      </trkpt>
      <trkpt lat="43.35494" lon="-1.52549">
        <ele>100</ele>
        <time>2022-08-30T09:02:28Z</time>
      </trkpt>
      <trkpt lat="43.35488" lon="-1.52548">
        <ele>99.7</ele>
        <time>2022-08-30T09:02:29Z</time>
      </trkpt>
      <trkpt lat="43.35482" lon="-1.52547">
        <ele>99.4</ele>
        <time>2022-08-30T09:02:30Z</time>
      </trkpt>
      <trkpt lat="43.35477" lon="-1.52547">
        <ele>99.1</ele>
        <time>2022-08-30T09:02:31Z</time>
      </trkpt>
      <trkpt lat="43.35471" lon="-1.52546">
        <ele>98.9</ele>
        <time>2022-08-30T09:02:32Z</time>
      </trkpt>
      <trkpt lat="43.35465" lon="-1.52545">
        <ele>98.6</ele>
        <time>2022-08-30T09:02:33Z</time>
      </trkpt>
      <trkpt lat="43.3546" lon="-1.52545">
        <ele>98.4</ele>
        <time>2022-08-30T09:02:34Z</time>
      </trkpt>
      <trkpt lat="43.35455" lon="-1.52544">
        <ele>98.2</ele>
        <time>2022-08-30T09:02:35Z</time>
      </trkpt>
      <trkpt lat="43.3545" lon="-1.52544">
        <ele>98</ele>
        <time>2022-08-30T09:02:36Z</time>
      </trkpt>
      <trkpt lat="43.35445" lon="-1.52542">
        <ele>97.8</ele>
        <time>2022-08-30T09:02:37Z</time>
      </trkpt>
      <trkpt lat="43.3544" lon="-1.52541">
        <ele>97.6</ele>
        <time>2022-08-30T09:02:38Z</time>
      </trkpt>
      <trkpt lat="43.35434" lon="-1.52539">
        <ele>97.4</ele>
        <time>2022-08-30T09:02:39Z</time>
      </trkpt>
      <trkpt lat="43.35429" lon="-1.52538">
        <ele>97.2</ele>
        <time>2022-08-30T09:02:40Z</time>
      </trkpt>
      <trkpt lat="43.35424" lon="-1.52536">
        <ele>97</ele>
        <time>2022-08-30T09:02:41Z</time>
      </trkpt>
      <trkpt lat="43.35419" lon="-1.52534">
        <ele>96.8</ele>
        <time>2022-08-30T09:02:42Z</time>
      </trkpt>
      <trkpt lat="43.35414" lon="-1.52533">
        <ele>96.6</ele>
        <time>2022-08-30T09:02:43Z</time>
      </trkpt>
      <trkpt lat="43.3541" lon="-1.52531">
        <ele>96.4</ele>
        <time>2022-08-30T09:02:44Z</time>
      </trkpt>
      <trkpt lat="43.35407" lon="-1.5253">
        <ele>96.2</ele>
        <time>2022-08-30T09:02:45Z</time>
      </trkpt>
      <trkpt lat="43.35403" lon="-1.52529">
        <ele>96</ele>
        <time>2022-08-30T09:02:46Z</time>
      </trkpt>
      <trkpt lat="43.354" lon="-1.52527">
        <ele>95.7</ele>
        <time>2022-08-30T09:02:47Z</time>
      </trkpt>
      <trkpt lat="43.35397" lon="-1.52526">
        <ele>95.5</ele>
        <time>2022-08-30T09:02:48Z</time>
      </trkpt>
      <trkpt lat="43.35394" lon="-1.52524">
        <ele>95.3</ele>
        <time>2022-08-30T09:02:49Z</time>
      </trkpt>
      <trkpt lat="43.35389" lon="-1.52523">
        <ele>94.9</ele>
        <time>2022-08-30T09:02:50Z</time>
      </trkpt>
      <trkpt lat="43.35385" lon="-1.52521">
        <ele>94.5</ele>
        <time>2022-08-30T09:02:51Z</time>
      </trkpt>
      <trkpt lat="43.3538" lon="-1.52521">
        <ele>94.1</ele>
        <time>2022-08-30T09:02:52Z</time>
      </trkpt>
      <trkpt lat="43.35374" lon="-1.52522">
        <ele>93.6</ele>
        <time>2022-08-30T09:02:53Z</time>
      </trkpt>
      <trkpt lat="43.35369" lon="-1.52524">
        <ele>93</ele>
        <time>2022-08-30T09:02:54Z</time>
      </trkpt>
      <trkpt lat="43.35363" lon="-1.52527">
        <ele>92.4</ele>
        <time>2022-08-30T09:02:55Z</time>
      </trkpt>
      <trkpt lat="43.35356" lon="-1.52532">
        <ele>91.8</ele>
        <time>2022-08-30T09:02:56Z</time>
      </trkpt>
      <trkpt lat="43.3535" lon="-1.52537">
        <ele>91.3</ele>
        <time>2022-08-30T09:02:57Z</time>
      </trkpt>
      <trkpt lat="43.35345" lon="-1.52541">
        <ele>90.9</ele>
        <time>2022-08-30T09:02:58Z</time>
      </trkpt>
      <trkpt lat="43.3534" lon="-1.52546">
        <ele>90.6</ele>
        <time>2022-08-30T09:02:59Z</time>
      </trkpt>
      <trkpt lat="43.35336" lon="-1.52551">
        <ele>90.3</ele>
        <time>2022-08-30T09:03:00Z</time>
      </trkpt>
      <trkpt lat="43.35331" lon="-1.52556">
        <ele>90</ele>
        <time>2022-08-30T09:03:01Z</time>
      </trkpt>
      <trkpt lat="43.35326" lon="-1.52561">
        <ele>89.8</ele>
        <time>2022-08-30T09:03:02Z</time>
      </trkpt>
      <trkpt lat="43.35321" lon="-1.52564">
        <ele>89.7</ele>
        <time>2022-08-30T09:03:03Z</time>
      </trkpt>
      <trkpt lat="43.35316" lon="-1.52568">
        <ele>89.6</ele>
        <time>2022-08-30T09:03:04Z</time>
      </trkpt>
      <trkpt lat="43.35312" lon="-1.5257">
        <ele>89.4</ele>
        <time>2022-08-30T09:03:05Z</time>
      </trkpt>
      <trkpt lat="43.35308" lon="-1.52571">
        <ele>89.3</ele>
        <time>2022-08-30T09:03:06Z</time>
      </trkpt>
      <trkpt lat="43.35304" lon="-1.52572">
        <ele>89.2</ele>
        <time>2022-08-30T09:03:07Z</time>
      </trkpt>
      <trkpt lat="43.353" lon="-1.52574">
        <ele>89.1</ele>
        <time>2022-08-30T09:03:08Z</time>
      </trkpt>
      <trkpt lat="43.35296" lon="-1.52575">
        <ele>89</ele>
        <time>2022-08-30T09:03:09Z</time>
      </trkpt>
      <trkpt lat="43.35292" lon="-1.52577">
        <ele>88.8</ele>
        <time>2022-08-30T09:03:10Z</time>
      </trkpt>
      <trkpt lat="43.35288" lon="-1.52579">
        <ele>88.6</ele>
        <time>2022-08-30T09:03:11Z</time>
      </trkpt>
      <trkpt lat="43.35283" lon="-1.52581">
        <ele>88.3</ele>
        <time>2022-08-30T09:03:12Z</time>
      </trkpt>
      <trkpt lat="43.35279" lon="-1.52583">
        <ele>88.1</ele>
        <time>2022-08-30T09:03:13Z</time>
      </trkpt>
      <trkpt lat="43.35276" lon="-1.52584">
        <ele>87.9</ele>
        <time>2022-08-30T09:03:14Z</time>
      </trkpt>
      <trkpt lat="43.35274" lon="-1.52585">
        <ele>87.7</ele>
        <time>2022-08-30T09:03:15Z</time>
      </trkpt>
      <trkpt lat="43.35271" lon="-1.52587">
        <ele>87.6</ele>
        <time>2022-08-30T09:03:16Z</time>
      </trkpt>
      <trkpt lat="43.35268" lon="-1.52589">
        <ele>87.4</ele>
        <time>2022-08-30T09:03:17Z</time>
      </trkpt>
      <trkpt lat="43.35266" lon="-1.52589">
        <ele>87.3</ele>
        <time>2022-08-30T09:03:18Z</time>
      </trkpt>
      <trkpt lat="43.35262" lon="-1.52591">
        <ele>87</ele>
        <time>2022-08-30T09:03:19Z</time>
      </trkpt>
      <trkpt lat="43.35261" lon="-1.52592">
        <ele>86.9</ele>
        <time>2022-08-30T09:03:20Z</time>
      </trkpt>
      <trkpt lat="43.35256" lon="-1.52594">
        <ele>86.6</ele>
        <time>2022-08-30T09:03:21Z</time>
      </trkpt>
      <trkpt lat="43.3525" lon="-1.52597">
        <ele>86.3</ele>
        <time>2022-08-30T09:03:22Z</time>
      </trkpt>
      <trkpt lat="43.35244" lon="-1.52601">
        <ele>86.2</ele>
        <time>2022-08-30T09:03:23Z</time>
      </trkpt>
      <trkpt lat="43.35237" lon="-1.52605">
        <ele>86.1</ele>
        <time>2022-08-30T09:03:24Z</time>
      </trkpt>
      <trkpt lat="43.3523" lon="-1.52608">
        <ele>85.9</ele>
        <time>2022-08-30T09:03:25Z</time>
      </trkpt>
      <trkpt lat="43.35223" lon="-1.5261">
        <ele>85.8</ele>
        <time>2022-08-30T09:03:26Z</time>
      </trkpt>
      <trkpt lat="43.35217" lon="-1.52613">
        <ele>85.7</ele>
        <time>2022-08-30T09:03:27Z</time>
      </trkpt>
      <trkpt lat="43.3521" lon="-1.52615">
        <ele>85.7</ele>
        <time>2022-08-30T09:03:28Z</time>
      </trkpt>
      <trkpt lat="43.35204" lon="-1.52617">
        <ele>85.7</ele>
        <time>2022-08-30T09:03:29Z</time>
      </trkpt>
      <trkpt lat="43.35198" lon="-1.52619">
        <ele>85.7</ele>
        <time>2022-08-30T09:03:30Z</time>
      </trkpt>
      <trkpt lat="43.35192" lon="-1.52621">
        <ele>85.8</ele>
        <time>2022-08-30T09:03:31Z</time>
      </trkpt>
      <trkpt lat="43.35186" lon="-1.52623">
        <ele>85.9</ele>
        <time>2022-08-30T09:03:32Z</time>
      </trkpt>
      <trkpt lat="43.35181" lon="-1.52625">
        <ele>86</ele>
        <time>2022-08-30T09:03:33Z</time>
      </trkpt>
      <trkpt lat="43.35176" lon="-1.52627">
        <ele>86.1</ele>
        <time>2022-08-30T09:03:34Z</time>
      </trkpt>
      <trkpt lat="43.3517" lon="-1.52629">
        <ele>86.3</ele>
        <time>2022-08-30T09:03:35Z</time>
      </trkpt>
      <trkpt lat="43.35165" lon="-1.52631">
        <ele>86.5</ele>
        <time>2022-08-30T09:03:36Z</time>
      </trkpt>
      <trkpt lat="43.35159" lon="-1.52633">
        <ele>86.8</ele>
        <time>2022-08-30T09:03:37Z</time>
      </trkpt>
      <trkpt lat="43.35153" lon="-1.52634">
        <ele>87.1</ele>
        <time>2022-08-30T09:03:38Z</time>
      </trkpt>
      <trkpt lat="43.35148" lon="-1.52636">
        <ele>87.4</ele>
        <time>2022-08-30T09:03:39Z</time>
      </trkpt>
      <trkpt lat="43.35142" lon="-1.52638">
        <ele>87.8</ele>
        <time>2022-08-30T09:03:40Z</time>
      </trkpt>
      <trkpt lat="43.35136" lon="-1.5264">
        <ele>88.1</ele>
        <time>2022-08-30T09:03:41Z</time>
      </trkpt>
      <trkpt lat="43.35131" lon="-1.52642">
        <ele>88.5</ele>
        <time>2022-08-30T09:03:42Z</time>
      </trkpt>
      <trkpt lat="43.35125" lon="-1.52644">
        <ele>88.8</ele>
        <time>2022-08-30T09:03:43Z</time>
      </trkpt>
      <trkpt lat="43.3512" lon="-1.52645">
        <ele>89.1</ele>
        <time>2022-08-30T09:03:44Z</time>
      </trkpt>
      <trkpt lat="43.35114" lon="-1.52646">
        <ele>89.3</ele>
        <time>2022-08-30T09:03:45Z</time>
      </trkpt>
      <trkpt lat="43.35109" lon="-1.52647">
        <ele>89.5</ele>
        <time>2022-08-30T09:03:46Z</time>
      </trkpt>
      <trkpt lat="43.35104" lon="-1.52647">
        <ele>89.6</ele>
        <time>2022-08-30T09:03:47Z</time>
      </trkpt>
      <trkpt lat="43.35099" lon="-1.52647">
        <ele>89.7</ele>
        <time>2022-08-30T09:03:48Z</time>
      </trkpt>
      <trkpt lat="43.35095" lon="-1.52645">
        <ele>89.8</ele>
        <time>2022-08-30T09:03:49Z</time>
      </trkpt>
      <trkpt lat="43.3509" lon="-1.52643">
        <ele>89.9</ele>
        <time>2022-08-30T09:03:50Z</time>
      </trkpt>
      <trkpt lat="43.35085" lon="-1.52641">
        <ele>90</ele>
        <time>2022-08-30T09:03:51Z</time>
      </trkpt>
      <trkpt lat="43.35081" lon="-1.52638">
        <ele>90</ele>
        <time>2022-08-30T09:03:52Z</time>
      </trkpt>
      <trkpt lat="43.35077" lon="-1.52633">
        <ele>90</ele>
        <time>2022-08-30T09:03:53Z</time>
      </trkpt>
      <trkpt lat="43.35073" lon="-1.52628">
        <ele>90</ele>
        <time>2022-08-30T09:03:54Z</time>
      </trkpt>
      <trkpt lat="43.3507" lon="-1.52622">
        <ele>90</ele>
        <time>2022-08-30T09:03:55Z</time>
      </trkpt>
      <trkpt lat="43.35067" lon="-1.52616">
        <ele>89.9</ele>
        <time>2022-08-30T09:03:56Z</time>
      </trkpt>
      <trkpt lat="43.35064" lon="-1.5261">
        <ele>89.8</ele>
        <time>2022-08-30T09:03:57Z</time>
      </trkpt>
      <trkpt lat="43.35062" lon="-1.52604">
        <ele>89.7</ele>
        <time>2022-08-30T09:03:58Z</time>
      </trkpt>
      <trkpt lat="43.35059" lon="-1.52598">
        <ele>89.5</ele>
        <time>2022-08-30T09:03:59Z</time>
      </trkpt>
      <trkpt lat="43.35056" lon="-1.52592">
        <ele>89.3</ele>
        <time>2022-08-30T09:04:00Z</time>
      </trkpt>
      <trkpt lat="43.35054" lon="-1.52585">
        <ele>89.1</ele>
        <time>2022-08-30T09:04:01Z</time>
      </trkpt>
      <trkpt lat="43.35051" lon="-1.52578">
        <ele>88.8</ele>
        <time>2022-08-30T09:04:02Z</time>
      </trkpt>
      <trkpt lat="43.35048" lon="-1.5257">
        <ele>88.5</ele>
        <time>2022-08-30T09:04:03Z</time>
      </trkpt>
      <trkpt lat="43.35044" lon="-1.52562">
        <ele>88.1</ele>
        <time>2022-08-30T09:04:04Z</time>
      </trkpt>
      <trkpt lat="43.3504" lon="-1.52555">
        <ele>87.8</ele>
        <time>2022-08-30T09:04:05Z</time>
      </trkpt>
      <trkpt lat="43.35036" lon="-1.52547">
        <ele>87.5</ele>
        <time>2022-08-30T09:04:06Z</time>
      </trkpt>
      <trkpt lat="43.3503" lon="-1.5254">
        <ele>87.2</ele>
        <time>2022-08-30T09:04:07Z</time>
      </trkpt>
      <trkpt lat="43.35025" lon="-1.52535">
        <ele>86.9</ele>
        <time>2022-08-30T09:04:08Z</time>
      </trkpt>
      <trkpt lat="43.35019" lon="-1.52533">
        <ele>86.5</ele>
        <time>2022-08-30T09:04:09Z</time>
      </trkpt>
      <trkpt lat="43.35014" lon="-1.52535">
        <ele>86.2</ele>
        <time>2022-08-30T09:04:10Z</time>
      </trkpt>
      <trkpt lat="43.35009" lon="-1.5254">
        <ele>85.8</ele>
        <time>2022-08-30T09:04:11Z</time>
      </trkpt>
      <trkpt lat="43.35004" lon="-1.52547">
        <ele>85.4</ele>
        <time>2022-08-30T09:04:12Z</time>
      </trkpt>
      <trkpt lat="43.34999" lon="-1.52556">
        <ele>84.9</ele>
        <time>2022-08-30T09:04:13Z</time>
      </trkpt>
      <trkpt lat="43.34994" lon="-1.52564">
        <ele>84.4</ele>
        <time>2022-08-30T09:04:14Z</time>
      </trkpt>
      <trkpt lat="43.34988" lon="-1.52572">
        <ele>83.9</ele>
        <time>2022-08-30T09:04:15Z</time>
      </trkpt>
      <trkpt lat="43.34982" lon="-1.5258">
        <ele>83.4</ele>
        <time>2022-08-30T09:04:16Z</time>
      </trkpt>
      <trkpt lat="43.34977" lon="-1.52587">
        <ele>83</ele>
        <time>2022-08-30T09:04:17Z</time>
      </trkpt>
      <trkpt lat="43.34971" lon="-1.52592">
        <ele>82.6</ele>
        <time>2022-08-30T09:04:18Z</time>
      </trkpt>
      <trkpt lat="43.34967" lon="-1.52597">
        <ele>82.3</ele>
        <time>2022-08-30T09:04:19Z</time>
      </trkpt>
      <trkpt lat="43.34962" lon="-1.52602">
        <ele>81.9</ele>
        <time>2022-08-30T09:04:20Z</time>
      </trkpt>
      <trkpt lat="43.34958" lon="-1.52606">
        <ele>81.6</ele>
        <time>2022-08-30T09:04:21Z</time>
      </trkpt>
      <trkpt lat="43.34956" lon="-1.52609">
        <ele>81.4</ele>
        <time>2022-08-30T09:04:22Z</time>
      </trkpt>
      <trkpt lat="43.34952" lon="-1.52611">
        <ele>81.1</ele>
        <time>2022-08-30T09:04:23Z</time>
      </trkpt>
      <trkpt lat="43.34947" lon="-1.52611">
        <ele>80.9</ele>
        <time>2022-08-30T09:04:24Z</time>
      </trkpt>
      <trkpt lat="43.34933" lon="-1.52609">
        <ele>81.1</ele>
        <time>2022-08-30T09:04:26Z</time>
      </trkpt>
      <trkpt lat="43.34927" lon="-1.52607">
        <ele>81.2</ele>
        <time>2022-08-30T09:04:27Z</time>
      </trkpt>
      <trkpt lat="43.3492" lon="-1.52606">
        <ele>81.3</ele>
        <time>2022-08-30T09:04:28Z</time>
      </trkpt>
      <trkpt lat="43.34914" lon="-1.52606">
        <ele>81.4</ele>
        <time>2022-08-30T09:04:29Z</time>
      </trkpt>
      <trkpt lat="43.34908" lon="-1.52605">
        <ele>81.4</ele>
        <time>2022-08-30T09:04:30Z</time>
      </trkpt>
      <trkpt lat="43.34901" lon="-1.52604">
        <ele>81.4</ele>
        <time>2022-08-30T09:04:31Z</time>
      </trkpt>
      <trkpt lat="43.34895" lon="-1.52603">
        <ele>81.3</ele>
        <time>2022-08-30T09:04:32Z</time>
      </trkpt>
      <trkpt lat="43.34888" lon="-1.52603">
        <ele>81.3</ele>
        <time>2022-08-30T09:04:33Z</time>
      </trkpt>
      <trkpt lat="43.34883" lon="-1.52602">
        <ele>81.2</ele>
        <time>2022-08-30T09:04:34Z</time>
      </trkpt>
      <trkpt lat="43.34877" lon="-1.52602">
        <ele>81</ele>
        <time>2022-08-30T09:04:35Z</time>
      </trkpt>
      <trkpt lat="43.3487" lon="-1.52602">
        <ele>80.8</ele>
        <time>2022-08-30T09:04:36Z</time>
      </trkpt>
      <trkpt lat="43.34864" lon="-1.52601">
        <ele>80.6</ele>
        <time>2022-08-30T09:04:37Z</time>
      </trkpt>
      <trkpt lat="43.34858" lon="-1.52601">
        <ele>80.3</ele>
        <time>2022-08-30T09:04:38Z</time>
      </trkpt>
      <trkpt lat="43.34852" lon="-1.52599">
        <ele>79.9</ele>
        <time>2022-08-30T09:04:39Z</time>
      </trkpt>
      <trkpt lat="43.34845" lon="-1.52598">
        <ele>79.4</ele>
        <time>2022-08-30T09:04:40Z</time>
      </trkpt>
      <trkpt lat="43.34838" lon="-1.52595">
        <ele>78.7</ele>
        <time>2022-08-30T09:04:41Z</time>
      </trkpt>
      <trkpt lat="43.34831" lon="-1.52592">
        <ele>78.1</ele>
        <time>2022-08-30T09:04:42Z</time>
      </trkpt>
      <trkpt lat="43.34822" lon="-1.5259">
        <ele>77.3</ele>
        <time>2022-08-30T09:04:43Z</time>
      </trkpt>
      <trkpt lat="43.34813" lon="-1.52588">
        <ele>76.4</ele>
        <time>2022-08-30T09:04:44Z</time>
      </trkpt>
      <trkpt lat="43.34804" lon="-1.52586">
        <ele>75.5</ele>
        <time>2022-08-30T09:04:45Z</time>
      </trkpt>
      <trkpt lat="43.34795" lon="-1.52584">
        <ele>74.6</ele>
        <time>2022-08-30T09:04:46Z</time>
      </trkpt>
      <trkpt lat="43.34786" lon="-1.52581">
        <ele>73.8</ele>
        <time>2022-08-30T09:04:47Z</time>
      </trkpt>
      <trkpt lat="43.34777" lon="-1.52578">
        <ele>73</ele>
        <time>2022-08-30T09:04:48Z</time>
      </trkpt>
      <trkpt lat="43.34767" lon="-1.52574">
        <ele>72.2</ele>
        <time>2022-08-30T09:04:49Z</time>
      </trkpt>
      <trkpt lat="43.34758" lon="-1.52569">
        <ele>71.4</ele>
        <time>2022-08-30T09:04:50Z</time>
      </trkpt>
      <trkpt lat="43.3475" lon="-1.52561">
        <ele>70.5</ele>
        <time>2022-08-30T09:04:51Z</time>
      </trkpt>
      <trkpt lat="43.34742" lon="-1.52551">
        <ele>69.3</ele>
        <time>2022-08-30T09:04:52Z</time>
      </trkpt>
      <trkpt lat="43.34735" lon="-1.5254">
        <ele>67.9</ele>
        <time>2022-08-30T09:04:53Z</time>
      </trkpt>
      <trkpt lat="43.34729" lon="-1.52528">
        <ele>66.6</ele>
        <time>2022-08-30T09:04:54Z</time>
      </trkpt>
      <trkpt lat="43.34724" lon="-1.52513">
        <ele>65.2</ele>
        <time>2022-08-30T09:04:55Z</time>
      </trkpt>
      <trkpt lat="43.34721" lon="-1.52497">
        <ele>63.8</ele>
        <time>2022-08-30T09:04:56Z</time>
      </trkpt>
      <trkpt lat="43.3472" lon="-1.52481">
        <ele>62.7</ele>
        <time>2022-08-30T09:04:57Z</time>
      </trkpt>
      <trkpt lat="43.3472" lon="-1.52464">
        <ele>61.7</ele>
        <time>2022-08-30T09:04:58Z</time>
      </trkpt>
      <trkpt lat="43.34722" lon="-1.52446">
        <ele>60.8</ele>
        <time>2022-08-30T09:04:59Z</time>
      </trkpt>
      <trkpt lat="43.34724" lon="-1.52429">
        <ele>59.9</ele>
        <time>2022-08-30T09:05:00Z</time>
      </trkpt>
      <trkpt lat="43.34727" lon="-1.52413">
        <ele>59</ele>
        <time>2022-08-30T09:05:01Z</time>
      </trkpt>
      <trkpt lat="43.34731" lon="-1.52397">
        <ele>58.2</ele>
        <time>2022-08-30T09:05:02Z</time>
      </trkpt>
      <trkpt lat="43.34736" lon="-1.52382">
        <ele>57.5</ele>
        <time>2022-08-30T09:05:03Z</time>
      </trkpt>
      <trkpt lat="43.34742" lon="-1.52367">
        <ele>56.9</ele>
        <time>2022-08-30T09:05:04Z</time>
      </trkpt>
      <trkpt lat="43.34749" lon="-1.52354">
        <ele>56.6</ele>
        <time>2022-08-30T09:05:05Z</time>
      </trkpt>
      <trkpt lat="43.34756" lon="-1.52342">
        <ele>56.6</ele>
        <time>2022-08-30T09:05:06Z</time>
      </trkpt>
      <trkpt lat="43.34764" lon="-1.52331">
        <ele>56.8</ele>
        <time>2022-08-30T09:05:07Z</time>
      </trkpt>
      <trkpt lat="43.34772" lon="-1.52323">
        <ele>57.2</ele>
        <time>2022-08-30T09:05:08Z</time>
      </trkpt>
      <trkpt lat="43.3478" lon="-1.52317">
        <ele>57.7</ele>
        <time>2022-08-30T09:05:09Z</time>
      </trkpt>
      <trkpt lat="43.34788" lon="-1.52312">
        <ele>58.1</ele>
        <time>2022-08-30T09:05:10Z</time>
      </trkpt>
      <trkpt lat="43.34795" lon="-1.52308">
        <ele>58.5</ele>
        <time>2022-08-30T09:05:11Z</time>
      </trkpt>
      <trkpt lat="43.34801" lon="-1.52304">
        <ele>58.8</ele>
        <time>2022-08-30T09:05:12Z</time>
      </trkpt>
      <trkpt lat="43.34807" lon="-1.52301">
        <ele>59</ele>
        <time>2022-08-30T09:05:13Z</time>
      </trkpt>
      <trkpt lat="43.34813" lon="-1.52299">
        <ele>59.2</ele>
        <time>2022-08-30T09:05:14Z</time>
      </trkpt>
      <trkpt lat="43.34818" lon="-1.52297">
        <ele>59.3</ele>
        <time>2022-08-30T09:05:15Z</time>
      </trkpt>
      <trkpt lat="43.34823" lon="-1.52296">
        <ele>59.5</ele>
        <time>2022-08-30T09:05:16Z</time>
      </trkpt>
      <trkpt lat="43.34829" lon="-1.52295">
        <ele>59.9</ele>
        <time>2022-08-30T09:05:17Z</time>
      </trkpt>
      <trkpt lat="43.34835" lon="-1.52295">
        <ele>60.2</ele>
        <time>2022-08-30T09:05:18Z</time>
      </trkpt>
      <trkpt lat="43.34841" lon="-1.52294">
        <ele>60.6</ele>
        <time>2022-08-30T09:05:19Z</time>
      </trkpt>
      <trkpt lat="43.34846" lon="-1.52294">
        <ele>60.9</ele>
        <time>2022-08-30T09:05:20Z</time>
      </trkpt>
      <trkpt lat="43.34852" lon="-1.52293">
        <ele>61.3</ele>
        <time>2022-08-30T09:05:21Z</time>
      </trkpt>
      <trkpt lat="43.34857" lon="-1.52293">
        <ele>61.6</ele>
        <time>2022-08-30T09:05:22Z</time>
      </trkpt>
      <trkpt lat="43.34863" lon="-1.52293">
        <ele>62</ele>
        <time>2022-08-30T09:05:23Z</time>
      </trkpt>
      <trkpt lat="43.34868" lon="-1.52294">
        <ele>62.4</ele>
        <time>2022-08-30T09:05:24Z</time>
      </trkpt>
      <trkpt lat="43.34873" lon="-1.52295">
        <ele>62.7</ele>
        <time>2022-08-30T09:05:25Z</time>
      </trkpt>
      <trkpt lat="43.34878" lon="-1.52296">
        <ele>63</ele>
        <time>2022-08-30T09:05:26Z</time>
      </trkpt>
      <trkpt lat="43.34882" lon="-1.52297">
        <ele>63.4</ele>
        <time>2022-08-30T09:05:27Z</time>
      </trkpt>
      <trkpt lat="43.34887" lon="-1.52297">
        <ele>63.7</ele>
        <time>2022-08-30T09:05:28Z</time>
      </trkpt>
      <trkpt lat="43.34892" lon="-1.52296">
        <ele>63.9</ele>
        <time>2022-08-30T09:05:29Z</time>
      </trkpt>
      <trkpt lat="43.34897" lon="-1.52296">
        <ele>64.2</ele>
        <time>2022-08-30T09:05:30Z</time>
      </trkpt>
      <trkpt lat="43.34901" lon="-1.52295">
        <ele>64.4</ele>
        <time>2022-08-30T09:05:31Z</time>
      </trkpt>
      <trkpt lat="43.34905" lon="-1.52295">
        <ele>64.5</ele>
        <time>2022-08-30T09:05:32Z</time>
      </trkpt>
      <trkpt lat="43.3491" lon="-1.52294">
        <ele>64.7</ele>
        <time>2022-08-30T09:05:33Z</time>
      </trkpt>
      <trkpt lat="43.34914" lon="-1.52293">
        <ele>64.8</ele>
        <time>2022-08-30T09:05:34Z</time>
      </trkpt>
      <trkpt lat="43.34918" lon="-1.52292">
        <ele>64.8</ele>
        <time>2022-08-30T09:05:35Z</time>
      </trkpt>
      <trkpt lat="43.34923" lon="-1.52291">
        <ele>64.9</ele>
        <time>2022-08-30T09:05:36Z</time>
      </trkpt>
      <trkpt lat="43.34927" lon="-1.5229">
        <ele>64.9</ele>
        <time>2022-08-30T09:05:37Z</time>
      </trkpt>
      <trkpt lat="43.34932" lon="-1.5229">
        <ele>64.8</ele>
        <time>2022-08-30T09:05:38Z</time>
      </trkpt>
      <trkpt lat="43.34937" lon="-1.52291">
        <ele>64.7</ele>
        <time>2022-08-30T09:05:39Z</time>
      </trkpt>
      <trkpt lat="43.34942" lon="-1.52291">
        <ele>64.6</ele>
        <time>2022-08-30T09:05:40Z</time>
      </trkpt>
      <trkpt lat="43.34946" lon="-1.52291">
        <ele>64.4</ele>
        <time>2022-08-30T09:05:41Z</time>
      </trkpt>
      <trkpt lat="43.34951" lon="-1.52292">
        <ele>64.2</ele>
        <time>2022-08-30T09:05:42Z</time>
      </trkpt>
      <trkpt lat="43.34956" lon="-1.52294">
        <ele>63.9</ele>
        <time>2022-08-30T09:05:43Z</time>
      </trkpt>
      <trkpt lat="43.34962" lon="-1.52295">
        <ele>63.6</ele>
        <time>2022-08-30T09:05:44Z</time>
      </trkpt>
      <trkpt lat="43.34967" lon="-1.52296">
        <ele>63.3</ele>
        <time>2022-08-30T09:05:45Z</time>
      </trkpt>
      <trkpt lat="43.34972" lon="-1.52298">
        <ele>62.9</ele>
        <time>2022-08-30T09:05:46Z</time>
      </trkpt>
      <trkpt lat="43.34979" lon="-1.523">
        <ele>62.5</ele>
        <time>2022-08-30T09:05:47Z</time>
      </trkpt>
      <trkpt lat="43.34985" lon="-1.52303">
        <ele>61.9</ele>
        <time>2022-08-30T09:05:48Z</time>
      </trkpt>
      <trkpt lat="43.34991" lon="-1.52307">
        <ele>61.1</ele>
        <time>2022-08-30T09:05:49Z</time>
      </trkpt>
      <trkpt lat="43.34998" lon="-1.52311">
        <ele>60.3</ele>
        <time>2022-08-30T09:05:50Z</time>
      </trkpt>
      <trkpt lat="43.35004" lon="-1.52313">
        <ele>59.4</ele>
        <time>2022-08-30T09:05:51Z</time>
      </trkpt>
      <trkpt lat="43.35011" lon="-1.52311">
        <ele>58.4</ele>
        <time>2022-08-30T09:05:52Z</time>
      </trkpt>
      <trkpt lat="43.35017" lon="-1.52303">
        <ele>57.1</ele>
        <time>2022-08-30T09:05:53Z</time>
      </trkpt>
      <trkpt lat="43.35022" lon="-1.52293">
        <ele>55.6</ele>
        <time>2022-08-30T09:05:54Z</time>
      </trkpt>
      <trkpt lat="43.35025" lon="-1.52281">
        <ele>54</ele>
        <time>2022-08-30T09:05:55Z</time>
      </trkpt>
      <trkpt lat="43.35028" lon="-1.5227">
        <ele>52.5</ele>
        <time>2022-08-30T09:05:56Z</time>
      </trkpt>
      <trkpt lat="43.35029" lon="-1.52259">
        <ele>51.3</ele>
        <time>2022-08-30T09:05:57Z</time>
      </trkpt>
      <trkpt lat="43.35031" lon="-1.52249">
        <ele>50.2</ele>
        <time>2022-08-30T09:05:58Z</time>
      </trkpt>
      <trkpt lat="43.35031" lon="-1.52239">
        <ele>49.4</ele>
        <time>2022-08-30T09:05:59Z</time>
      </trkpt>
      <trkpt lat="43.35031" lon="-1.52229">
        <ele>48.7</ele>
        <time>2022-08-30T09:06:00Z</time>
      </trkpt>
      <trkpt lat="43.35031" lon="-1.52219">
        <ele>48.3</ele>
        <time>2022-08-30T09:06:01Z</time>
      </trkpt>
      <trkpt lat="43.35031" lon="-1.5221">
        <ele>48.2</ele>
        <time>2022-08-30T09:06:02Z</time>
      </trkpt>
      <trkpt lat="43.35029" lon="-1.52201">
        <ele>48.1</ele>
        <time>2022-08-30T09:06:03Z</time>
      </trkpt>
      <trkpt lat="43.35026" lon="-1.52194">
        <ele>48.1</ele>
        <time>2022-08-30T09:06:04Z</time>
      </trkpt>
      <trkpt lat="43.35021" lon="-1.52188">
        <ele>48.2</ele>
        <time>2022-08-30T09:06:05Z</time>
      </trkpt>
      <trkpt lat="43.35015" lon="-1.52184">
        <ele>48.2</ele>
        <time>2022-08-30T09:06:06Z</time>
      </trkpt>
      <trkpt lat="43.35009" lon="-1.5218">
        <ele>48.3</ele>
        <time>2022-08-30T09:06:07Z</time>
      </trkpt>
      <trkpt lat="43.35004" lon="-1.52177">
        <ele>48.4</ele>
        <time>2022-08-30T09:06:08Z</time>
      </trkpt>
      <trkpt lat="43.34998" lon="-1.52173">
        <ele>48.4</ele>
        <time>2022-08-30T09:06:09Z</time>
      </trkpt>
      <trkpt lat="43.34993" lon="-1.52169">
        <ele>48.4</ele>
        <time>2022-08-30T09:06:10Z</time>
      </trkpt>
      <trkpt lat="43.34988" lon="-1.52165">
        <ele>48.3</ele>
        <time>2022-08-30T09:06:11Z</time>
      </trkpt>
      <trkpt lat="43.34983" lon="-1.52161">
        <ele>48.3</ele>
        <time>2022-08-30T09:06:12Z</time>
      </trkpt>
      <trkpt lat="43.34978" lon="-1.52158">
        <ele>48.3</ele>
        <time>2022-08-30T09:06:13Z</time>
      </trkpt>
      <trkpt lat="43.34974" lon="-1.52154">
        <ele>48.3</ele>
        <time>2022-08-30T09:06:14Z</time>
      </trkpt>
      <trkpt lat="43.34969" lon="-1.52151">
        <ele>48.3</ele>
        <time>2022-08-30T09:06:15Z</time>
      </trkpt>
      <trkpt lat="43.34965" lon="-1.52147">
        <ele>48.3</ele>
        <time>2022-08-30T09:06:16Z</time>
      </trkpt>
      <trkpt lat="43.3496" lon="-1.52144">
        <ele>48.3</ele>
        <time>2022-08-30T09:06:17Z</time>
      </trkpt>
      <trkpt lat="43.34956" lon="-1.52141">
        <ele>48.3</ele>
        <time>2022-08-30T09:06:18Z</time>
      </trkpt>
      <trkpt lat="43.34952" lon="-1.52138">
        <ele>48.3</ele>
        <time>2022-08-30T09:06:19Z</time>
      </trkpt>
      <trkpt lat="43.34948" lon="-1.52135">
        <ele>48.3</ele>
        <time>2022-08-30T09:06:20Z</time>
      </trkpt>
      <trkpt lat="43.34943" lon="-1.52131">
        <ele>48.4</ele>
        <time>2022-08-30T09:06:21Z</time>
      </trkpt>
      <trkpt lat="43.34939" lon="-1.52128">
        <ele>48.4</ele>
        <time>2022-08-30T09:06:22Z</time>
      </trkpt>
      <trkpt lat="43.34935" lon="-1.52125">
        <ele>48.4</ele>
        <time>2022-08-30T09:06:23Z</time>
      </trkpt>
      <trkpt lat="43.34931" lon="-1.52121">
        <ele>48.4</ele>
        <time>2022-08-30T09:06:24Z</time>
      </trkpt>
      <trkpt lat="43.34927" lon="-1.52118">
        <ele>48.4</ele>
        <time>2022-08-30T09:06:25Z</time>
      </trkpt>
      <trkpt lat="43.34923" lon="-1.52115">
        <ele>48.4</ele>
        <time>2022-08-30T09:06:26Z</time>
      </trkpt>
      <trkpt lat="43.34918" lon="-1.52112">
        <ele>48.4</ele>
        <time>2022-08-30T09:06:27Z</time>
      </trkpt>
      <trkpt lat="43.34914" lon="-1.52109">
        <ele>48.5</ele>
        <time>2022-08-30T09:06:28Z</time>
      </trkpt>
      <trkpt lat="43.34909" lon="-1.52105">
        <ele>48.5</ele>
        <time>2022-08-30T09:06:29Z</time>
      </trkpt>
      <trkpt lat="43.34905" lon="-1.52102">
        <ele>48.5</ele>
        <time>2022-08-30T09:06:30Z</time>
      </trkpt>
      <trkpt lat="43.349" lon="-1.52099">
        <ele>48.4</ele>
        <time>2022-08-30T09:06:31Z</time>
      </trkpt>
      <trkpt lat="43.34896" lon="-1.52096">
        <ele>48.4</ele>
        <time>2022-08-30T09:06:32Z</time>
      </trkpt>
      <trkpt lat="43.34891" lon="-1.52094">
        <ele>48.4</ele>
        <time>2022-08-30T09:06:33Z</time>
      </trkpt>
      <trkpt lat="43.34886" lon="-1.52092">
        <ele>48.4</ele>
        <time>2022-08-30T09:06:34Z</time>
      </trkpt>
      <trkpt lat="43.34882" lon="-1.5209">
        <ele>48.4</ele>
        <time>2022-08-30T09:06:35Z</time>
      </trkpt>
      <trkpt lat="43.34877" lon="-1.5209">
        <ele>48.4</ele>
        <time>2022-08-30T09:06:36Z</time>
      </trkpt>
      <trkpt lat="43.34872" lon="-1.5209">
        <ele>48.4</ele>
        <time>2022-08-30T09:06:37Z</time>
      </trkpt>
      <trkpt lat="43.34867" lon="-1.5209">
        <ele>48.4</ele>
        <time>2022-08-30T09:06:38Z</time>
      </trkpt>
      <trkpt lat="43.34862" lon="-1.52091">
        <ele>48.4</ele>
        <time>2022-08-30T09:06:39Z</time>
      </trkpt>
      <trkpt lat="43.34857" lon="-1.52092">
        <ele>48.5</ele>
        <time>2022-08-30T09:06:40Z</time>
      </trkpt>
      <trkpt lat="43.34852" lon="-1.52092">
        <ele>48.5</ele>
        <time>2022-08-30T09:06:41Z</time>
      </trkpt>
      <trkpt lat="43.34847" lon="-1.52093">
        <ele>48.5</ele>
        <time>2022-08-30T09:06:42Z</time>
      </trkpt>
      <trkpt lat="43.34843" lon="-1.52095">
        <ele>48.6</ele>
        <time>2022-08-30T09:06:43Z</time>
      </trkpt>
      <trkpt lat="43.34838" lon="-1.52096">
        <ele>48.7</ele>
        <time>2022-08-30T09:06:44Z</time>
      </trkpt>
      <trkpt lat="43.34834" lon="-1.52097">
        <ele>48.7</ele>
        <time>2022-08-30T09:06:45Z</time>
      </trkpt>
      <trkpt lat="43.34829" lon="-1.52097">
        <ele>48.8</ele>
        <time>2022-08-30T09:06:46Z</time>
      </trkpt>
      <trkpt lat="43.34824" lon="-1.52097">
        <ele>48.9</ele>
        <time>2022-08-30T09:06:47Z</time>
      </trkpt>
      <trkpt lat="43.34819" lon="-1.52096">
        <ele>48.9</ele>
        <time>2022-08-30T09:06:48Z</time>
      </trkpt>
      <trkpt lat="43.34815" lon="-1.52095">
        <ele>49</ele>
        <time>2022-08-30T09:06:49Z</time>
      </trkpt>
      <trkpt lat="43.3481" lon="-1.52094">
        <ele>49.1</ele>
        <time>2022-08-30T09:06:50Z</time>
      </trkpt>
      <trkpt lat="43.34805" lon="-1.52091">
        <ele>49.2</ele>
        <time>2022-08-30T09:06:51Z</time>
      </trkpt>
      <trkpt lat="43.348" lon="-1.52089">
        <ele>49.2</ele>
        <time>2022-08-30T09:06:52Z</time>
      </trkpt>
      <trkpt lat="43.34796" lon="-1.52085">
        <ele>49.3</ele>
        <time>2022-08-30T09:06:53Z</time>
      </trkpt>
      <trkpt lat="43.34792" lon="-1.52082">
        <ele>49.3</ele>
        <time>2022-08-30T09:06:54Z</time>
      </trkpt>
      <trkpt lat="43.34788" lon="-1.52078">
        <ele>49.4</ele>
        <time>2022-08-30T09:06:55Z</time>
      </trkpt>
      <trkpt lat="43.34784" lon="-1.52074">
        <ele>49.4</ele>
        <time>2022-08-30T09:06:56Z</time>
      </trkpt>
      <trkpt lat="43.3478" lon="-1.5207">
        <ele>49.4</ele>
        <time>2022-08-30T09:06:57Z</time>
      </trkpt>
      <trkpt lat="43.34777" lon="-1.52065">
        <ele>49.5</ele>
        <time>2022-08-30T09:06:58Z</time>
      </trkpt>
      <trkpt lat="43.34773" lon="-1.52061">
        <ele>49.5</ele>
        <time>2022-08-30T09:06:59Z</time>
      </trkpt>
      <trkpt lat="43.34769" lon="-1.52057">
        <ele>49.5</ele>
        <time>2022-08-30T09:07:00Z</time>
      </trkpt>
      <trkpt lat="43.34765" lon="-1.52053">
        <ele>49.6</ele>
        <time>2022-08-30T09:07:01Z</time>
      </trkpt>
      <trkpt lat="43.34761" lon="-1.52048">
        <ele>49.6</ele>
        <time>2022-08-30T09:07:02Z</time>
      </trkpt>
      <trkpt lat="43.34758" lon="-1.52044">
        <ele>49.6</ele>
        <time>2022-08-30T09:07:03Z</time>
      </trkpt>
      <trkpt lat="43.34754" lon="-1.5204">
        <ele>49.7</ele>
        <time>2022-08-30T09:07:04Z</time>
      </trkpt>
      <trkpt lat="43.3475" lon="-1.52036">
        <ele>49.7</ele>
        <time>2022-08-30T09:07:05Z</time>
      </trkpt>
      <trkpt lat="43.34747" lon="-1.52032">
        <ele>49.8</ele>
        <time>2022-08-30T09:07:06Z</time>
      </trkpt>
      <trkpt lat="43.34743" lon="-1.52028">
        <ele>49.8</ele>
        <time>2022-08-30T09:07:07Z</time>
      </trkpt>
      <trkpt lat="43.3474" lon="-1.52024">
        <ele>49.9</ele>
        <time>2022-08-30T09:07:08Z</time>
      </trkpt>
      <trkpt lat="43.34737" lon="-1.52019">
        <ele>50</ele>
        <time>2022-08-30T09:07:09Z</time>
      </trkpt>
      <trkpt lat="43.34734" lon="-1.52014">
        <ele>50</ele>
        <time>2022-08-30T09:07:10Z</time>
      </trkpt>
      <trkpt lat="43.34731" lon="-1.52009">
        <ele>50.1</ele>
        <time>2022-08-30T09:07:11Z</time>
      </trkpt>
      <trkpt lat="43.34728" lon="-1.52003">
        <ele>50.2</ele>
        <time>2022-08-30T09:07:12Z</time>
      </trkpt>
      <trkpt lat="43.34727" lon="-1.51998">
        <ele>50.2</ele>
        <time>2022-08-30T09:07:13Z</time>
      </trkpt>
      <trkpt lat="43.34725" lon="-1.51992">
        <ele>50.3</ele>
        <time>2022-08-30T09:07:14Z</time>
      </trkpt>
      <trkpt lat="43.34724" lon="-1.51986">
        <ele>50.4</ele>
        <time>2022-08-30T09:07:15Z</time>
      </trkpt>
      <trkpt lat="43.34722" lon="-1.5198">
        <ele>50.4</ele>
        <time>2022-08-30T09:07:16Z</time>
      </trkpt>
      <trkpt lat="43.34721" lon="-1.51974">
        <ele>50.5</ele>
        <time>2022-08-30T09:07:17Z</time>
      </trkpt>
      <trkpt lat="43.34721" lon="-1.51967">
        <ele>50.6</ele>
        <time>2022-08-30T09:07:18Z</time>
      </trkpt>
      <trkpt lat="43.3472" lon="-1.51961">
        <ele>50.7</ele>
        <time>2022-08-30T09:07:19Z</time>
      </trkpt>
      <trkpt lat="43.3472" lon="-1.51954">
        <ele>50.7</ele>
        <time>2022-08-30T09:07:20Z</time>
      </trkpt>
      <trkpt lat="43.3472" lon="-1.51948">
        <ele>50.8</ele>
        <time>2022-08-30T09:07:21Z</time>
      </trkpt>
      <trkpt lat="43.34721" lon="-1.51942">
        <ele>50.9</ele>
        <time>2022-08-30T09:07:22Z</time>
      </trkpt>
      <trkpt lat="43.34722" lon="-1.51935">
        <ele>51</ele>
        <time>2022-08-30T09:07:23Z</time>
      </trkpt>
      <trkpt lat="43.34722" lon="-1.51929">
        <ele>51.2</ele>
        <time>2022-08-30T09:07:24Z</time>
      </trkpt>
      <trkpt lat="43.34723" lon="-1.51923">
        <ele>51.3</ele>
        <time>2022-08-30T09:07:25Z</time>
      </trkpt>
      <trkpt lat="43.34723" lon="-1.51917">
        <ele>51.4</ele>
        <time>2022-08-30T09:07:26Z</time>
      </trkpt>
      <trkpt lat="43.34724" lon="-1.51911">
        <ele>51.5</ele>
        <time>2022-08-30T09:07:27Z</time>
      </trkpt>
      <trkpt lat="43.34724" lon="-1.51905">
        <ele>51.6</ele>
        <time>2022-08-30T09:07:28Z</time>
      </trkpt>
      <trkpt lat="43.34725" lon="-1.51898">
        <ele>51.6</ele>
        <time>2022-08-30T09:07:29Z</time>
      </trkpt>
      <trkpt lat="43.34726" lon="-1.51892">
        <ele>51.7</ele>
        <time>2022-08-30T09:07:30Z</time>
      </trkpt>
      <trkpt lat="43.34726" lon="-1.51886">
        <ele>51.8</ele>
        <time>2022-08-30T09:07:31Z</time>
      </trkpt>
      <trkpt lat="43.34727" lon="-1.5188">
        <ele>51.9</ele>
        <time>2022-08-30T09:07:32Z</time>
      </trkpt>
      <trkpt lat="43.34728" lon="-1.51874">
        <ele>52</ele>
        <time>2022-08-30T09:07:33Z</time>
      </trkpt>
      <trkpt lat="43.34729" lon="-1.51868">
        <ele>52.1</ele>
        <time>2022-08-30T09:07:34Z</time>
      </trkpt>
      <trkpt lat="43.3473" lon="-1.51862">
        <ele>52.2</ele>
        <time>2022-08-30T09:07:35Z</time>
      </trkpt>
      <trkpt lat="43.34732" lon="-1.51856">
        <ele>52.4</ele>
        <time>2022-08-30T09:07:36Z</time>
      </trkpt>
      <trkpt lat="43.34733" lon="-1.5185">
        <ele>52.5</ele>
        <time>2022-08-30T09:07:37Z</time>
      </trkpt>
      <trkpt lat="43.34735" lon="-1.51844">
        <ele>52.6</ele>
        <time>2022-08-30T09:07:38Z</time>
      </trkpt>
      <trkpt lat="43.34737" lon="-1.51838">
        <ele>52.8</ele>
        <time>2022-08-30T09:07:39Z</time>
      </trkpt>
      <trkpt lat="43.34738" lon="-1.51832">
        <ele>52.9</ele>
        <time>2022-08-30T09:07:40Z</time>
      </trkpt>
      <trkpt lat="43.3474" lon="-1.51826">
        <ele>53.1</ele>
        <time>2022-08-30T09:07:41Z</time>
      </trkpt>
      <trkpt lat="43.34741" lon="-1.51821">
        <ele>53.3</ele>
        <time>2022-08-30T09:07:42Z</time>
      </trkpt>
      <trkpt lat="43.34742" lon="-1.51814">
        <ele>53.5</ele>
        <time>2022-08-30T09:07:43Z</time>
      </trkpt>
      <trkpt lat="43.34744" lon="-1.51808">
        <ele>53.7</ele>
        <time>2022-08-30T09:07:44Z</time>
      </trkpt>
      <trkpt lat="43.34745" lon="-1.51802">
        <ele>53.9</ele>
        <time>2022-08-30T09:07:45Z</time>
      </trkpt>
      <trkpt lat="43.34747" lon="-1.51797">
        <ele>54.1</ele>
        <time>2022-08-30T09:07:46Z</time>
      </trkpt>
      <trkpt lat="43.34748" lon="-1.51791">
        <ele>54.3</ele>
        <time>2022-08-30T09:07:47Z</time>
      </trkpt>
      <trkpt lat="43.34749" lon="-1.51786">
        <ele>54.5</ele>
        <time>2022-08-30T09:07:48Z</time>
      </trkpt>
      <trkpt lat="43.3475" lon="-1.5178">
        <ele>54.7</ele>
        <time>2022-08-30T09:07:49Z</time>
      </trkpt>
      <trkpt lat="43.34751" lon="-1.51775">
        <ele>54.9</ele>
        <time>2022-08-30T09:07:50Z</time>
      </trkpt>
      <trkpt lat="43.34753" lon="-1.51769">
        <ele>55.1</ele>
        <time>2022-08-30T09:07:51Z</time>
      </trkpt>
      <trkpt lat="43.34754" lon="-1.51763">
        <ele>55.3</ele>
        <time>2022-08-30T09:07:52Z</time>
      </trkpt>
      <trkpt lat="43.34756" lon="-1.51758">
        <ele>55.5</ele>
        <time>2022-08-30T09:07:53Z</time>
      </trkpt>
      <trkpt lat="43.34757" lon="-1.51753">
        <ele>55.7</ele>
        <time>2022-08-30T09:07:54Z</time>
      </trkpt>
      <trkpt lat="43.34758" lon="-1.51747">
        <ele>55.9</ele>
        <time>2022-08-30T09:07:55Z</time>
      </trkpt>
      <trkpt lat="43.34759" lon="-1.51742">
        <ele>56</ele>
        <time>2022-08-30T09:07:56Z</time>
      </trkpt>
      <trkpt lat="43.34759" lon="-1.51737">
        <ele>56.1</ele>
        <time>2022-08-30T09:07:57Z</time>
      </trkpt>
      <trkpt lat="43.34759" lon="-1.51732">
        <ele>56.1</ele>
        <time>2022-08-30T09:07:58Z</time>
      </trkpt>
      <trkpt lat="43.34758" lon="-1.51727">
        <ele>56.1</ele>
        <time>2022-08-30T09:07:59Z</time>
      </trkpt>
      <trkpt lat="43.34757" lon="-1.51722">
        <ele>56</ele>
        <time>2022-08-30T09:08:00Z</time>
      </trkpt>
      <trkpt lat="43.34755" lon="-1.51716">
        <ele>55.9</ele>
        <time>2022-08-30T09:08:01Z</time>
      </trkpt>
      <trkpt lat="43.34752" lon="-1.51711">
        <ele>55.7</ele>
        <time>2022-08-30T09:08:02Z</time>
      </trkpt>
      <trkpt lat="43.3475" lon="-1.51704">
        <ele>55.4</ele>
        <time>2022-08-30T09:08:03Z</time>
      </trkpt>
      <trkpt lat="43.34747" lon="-1.51699">
        <ele>55.2</ele>
        <time>2022-08-30T09:08:04Z</time>
      </trkpt>
      <trkpt lat="43.34743" lon="-1.51693">
        <ele>54.9</ele>
        <time>2022-08-30T09:08:05Z</time>
      </trkpt>
      <trkpt lat="43.34739" lon="-1.51687">
        <ele>54.6</ele>
        <time>2022-08-30T09:08:06Z</time>
      </trkpt>
      <trkpt lat="43.34736" lon="-1.51681">
        <ele>54.3</ele>
        <time>2022-08-30T09:08:07Z</time>
      </trkpt>
      <trkpt lat="43.34732" lon="-1.51674">
        <ele>54</ele>
        <time>2022-08-30T09:08:08Z</time>
      </trkpt>
      <trkpt lat="43.34728" lon="-1.51667">
        <ele>53.7</ele>
        <time>2022-08-30T09:08:09Z</time>
      </trkpt>
      <trkpt lat="43.34724" lon="-1.5166">
        <ele>53.4</ele>
        <time>2022-08-30T09:08:10Z</time>
      </trkpt>
      <trkpt lat="43.3472" lon="-1.51653">
        <ele>53.1</ele>
        <time>2022-08-30T09:08:11Z</time>
      </trkpt>
      <trkpt lat="43.34716" lon="-1.51646">
        <ele>52.8</ele>
        <time>2022-08-30T09:08:12Z</time>
      </trkpt>
      <trkpt lat="43.34712" lon="-1.51638">
        <ele>52.6</ele>
        <time>2022-08-30T09:08:13Z</time>
      </trkpt>
      <trkpt lat="43.34708" lon="-1.51631">
        <ele>52.4</ele>
        <time>2022-08-30T09:08:14Z</time>
      </trkpt>
      <trkpt lat="43.34705" lon="-1.51623">
        <ele>52.3</ele>
        <time>2022-08-30T09:08:15Z</time>
      </trkpt>
      <trkpt lat="43.34704" lon="-1.51614">
        <ele>52.3</ele>
        <time>2022-08-30T09:08:16Z</time>
      </trkpt>
      <trkpt lat="43.34704" lon="-1.51605">
        <ele>52.3</ele>
        <time>2022-08-30T09:08:17Z</time>
      </trkpt>
      <trkpt lat="43.34707" lon="-1.51596">
        <ele>52.4</ele>
        <time>2022-08-30T09:08:18Z</time>
      </trkpt>
      <trkpt lat="43.34709" lon="-1.51589">
        <ele>52.4</ele>
        <time>2022-08-30T09:08:19Z</time>
      </trkpt>
      <trkpt lat="43.3471" lon="-1.51583">
        <ele>52.3</ele>
        <time>2022-08-30T09:08:20Z</time>
      </trkpt>
      <trkpt lat="43.3471" lon="-1.51577">
        <ele>52.3</ele>
        <time>2022-08-30T09:08:21Z</time>
      </trkpt>
      <trkpt lat="43.34709" lon="-1.51571">
        <ele>52.2</ele>
        <time>2022-08-30T09:08:22Z</time>
      </trkpt>
      <trkpt lat="43.34707" lon="-1.51565">
        <ele>52.1</ele>
        <time>2022-08-30T09:08:23Z</time>
      </trkpt>
      <trkpt lat="43.34704" lon="-1.51559">
        <ele>51.9</ele>
        <time>2022-08-30T09:08:24Z</time>
      </trkpt>
      <trkpt lat="43.34702" lon="-1.51553">
        <ele>51.8</ele>
        <time>2022-08-30T09:08:25Z</time>
      </trkpt>
      <trkpt lat="43.34699" lon="-1.51547">
        <ele>51.5</ele>
        <time>2022-08-30T09:08:26Z</time>
      </trkpt>
      <trkpt lat="43.34698" lon="-1.51541">
        <ele>51.2</ele>
        <time>2022-08-30T09:08:27Z</time>
      </trkpt>
      <trkpt lat="43.34696" lon="-1.51534">
        <ele>50.9</ele>
        <time>2022-08-30T09:08:28Z</time>
      </trkpt>
      <trkpt lat="43.34694" lon="-1.51526">
        <ele>50.4</ele>
        <time>2022-08-30T09:08:29Z</time>
      </trkpt>
      <trkpt lat="43.34691" lon="-1.51519">
        <ele>49.8</ele>
        <time>2022-08-30T09:08:30Z</time>
      </trkpt>
      <trkpt lat="43.34686" lon="-1.51512">
        <ele>49.2</ele>
        <time>2022-08-30T09:08:31Z</time>
      </trkpt>
      <trkpt lat="43.3468" lon="-1.51506">
        <ele>48.9</ele>
        <time>2022-08-30T09:08:32Z</time>
      </trkpt>
      <trkpt lat="43.34674" lon="-1.51501">
        <ele>48.6</ele>
        <time>2022-08-30T09:08:33Z</time>
      </trkpt>
      <trkpt lat="43.34667" lon="-1.51497">
        <ele>48.5</ele>
        <time>2022-08-30T09:08:34Z</time>
      </trkpt>
      <trkpt lat="43.34661" lon="-1.51493">
        <ele>48.4</ele>
        <time>2022-08-30T09:08:35Z</time>
      </trkpt>
      <trkpt lat="43.34655" lon="-1.5149">
        <ele>48.4</ele>
        <time>2022-08-30T09:08:36Z</time>
      </trkpt>
      <trkpt lat="43.3465" lon="-1.51485">
        <ele>48.4</ele>
        <time>2022-08-30T09:08:37Z</time>
      </trkpt>
      <trkpt lat="43.34645" lon="-1.5148">
        <ele>48.3</ele>
        <time>2022-08-30T09:08:38Z</time>
      </trkpt>
      <trkpt lat="43.34642" lon="-1.51473">
        <ele>48.3</ele>
        <time>2022-08-30T09:08:39Z</time>
      </trkpt>
      <trkpt lat="43.34639" lon="-1.51468">
        <ele>48.3</ele>
        <time>2022-08-30T09:08:40Z</time>
      </trkpt>
      <trkpt lat="43.34636" lon="-1.51465">
        <ele>48.2</ele>
        <time>2022-08-30T09:08:41Z</time>
      </trkpt>
      <trkpt lat="43.34632" lon="-1.51463">
        <ele>48.2</ele>
        <time>2022-08-30T09:08:42Z</time>
      </trkpt>
      <trkpt lat="43.34629" lon="-1.51463">
        <ele>48.2</ele>
        <time>2022-08-30T09:08:43Z</time>
      </trkpt>
      <trkpt lat="43.34625" lon="-1.51463">
        <ele>48.1</ele>
        <time>2022-08-30T09:08:44Z</time>
      </trkpt>
      <trkpt lat="43.34622" lon="-1.51464">
        <ele>48.1</ele>
        <time>2022-08-30T09:08:45Z</time>
      </trkpt>
      <trkpt lat="43.34619" lon="-1.51465">
        <ele>48.1</ele>
        <time>2022-08-30T09:08:46Z</time>
      </trkpt>
      <trkpt lat="43.34616" lon="-1.51467">
        <ele>48.1</ele>
        <time>2022-08-30T09:08:47Z</time>
      </trkpt>
      <trkpt lat="43.34614" lon="-1.51471">
        <ele>48.1</ele>
        <time>2022-08-30T09:08:48Z</time>
      </trkpt>
      <trkpt lat="43.34613" lon="-1.51472">
        <ele>48.1</ele>
        <time>2022-08-30T09:08:49Z</time>
      </trkpt>
      <trkpt lat="43.34612" lon="-1.51478">
        <ele>48.1</ele>
        <time>2022-08-30T09:08:50Z</time>
      </trkpt>
      <trkpt lat="43.34612" lon="-1.5148">
        <ele>48.1</ele>
        <time>2022-08-30T09:08:51Z</time>
      </trkpt>
      <trkpt lat="43.34612" lon="-1.51484">
        <ele>48</ele>
        <time>2022-08-30T09:08:52Z</time>
      </trkpt>
      <trkpt lat="43.34613" lon="-1.51488">
        <ele>48</ele>
        <time>2022-08-30T09:08:53Z</time>
      </trkpt>
      <trkpt lat="43.34614" lon="-1.51493">
        <ele>47.9</ele>
        <time>2022-08-30T09:08:54Z</time>
      </trkpt>
      <trkpt lat="43.34617" lon="-1.51497">
        <ele>47.9</ele>
        <time>2022-08-30T09:08:55Z</time>
      </trkpt>
      <trkpt lat="43.3462" lon="-1.51502">
        <ele>47.8</ele>
        <time>2022-08-30T09:08:56Z</time>
      </trkpt>
      <trkpt lat="43.34623" lon="-1.51507">
        <ele>47.7</ele>
        <time>2022-08-30T09:08:57Z</time>
      </trkpt>
      <trkpt lat="43.34626" lon="-1.51514">
        <ele>47.7</ele>
        <time>2022-08-30T09:08:58Z</time>
      </trkpt>
      <trkpt lat="43.34628" lon="-1.5152">
        <ele>47.6</ele>
        <time>2022-08-30T09:08:59Z</time>
      </trkpt>
      <trkpt lat="43.34629" lon="-1.51526">
        <ele>47.6</ele>
        <time>2022-08-30T09:09:00Z</time>
      </trkpt>
      <trkpt lat="43.34629" lon="-1.51533">
        <ele>47.5</ele>
        <time>2022-08-30T09:09:01Z</time>
      </trkpt>
      <trkpt lat="43.3463" lon="-1.51538">
        <ele>47.5</ele>
        <time>2022-08-30T09:09:02Z</time>
      </trkpt>
      <trkpt lat="43.3463" lon="-1.51543">
        <ele>47.5</ele>
        <time>2022-08-30T09:09:03Z</time>
      </trkpt>
      <trkpt lat="43.34631" lon="-1.51548">
        <ele>47.4</ele>
        <time>2022-08-30T09:09:04Z</time>
      </trkpt>
      <trkpt lat="43.34633" lon="-1.51552">
        <ele>47.3</ele>
        <time>2022-08-30T09:09:05Z</time>
      </trkpt>
      <trkpt lat="43.34634" lon="-1.51557">
        <ele>47.3</ele>
        <time>2022-08-30T09:09:06Z</time>
      </trkpt>
      <trkpt lat="43.34635" lon="-1.5156">
        <ele>47.2</ele>
        <time>2022-08-30T09:09:07Z</time>
      </trkpt>
      <trkpt lat="43.34636" lon="-1.51564">
        <ele>47.2</ele>
        <time>2022-08-30T09:09:08Z</time>
      </trkpt>
      <trkpt lat="43.34638" lon="-1.51569">
        <ele>47.1</ele>
        <time>2022-08-30T09:09:09Z</time>
      </trkpt>
      <trkpt lat="43.3464" lon="-1.51573">
        <ele>47.1</ele>
        <time>2022-08-30T09:09:10Z</time>
      </trkpt>
      <trkpt lat="43.34642" lon="-1.51578">
        <ele>47.1</ele>
        <time>2022-08-30T09:09:11Z</time>
      </trkpt>
      <trkpt lat="43.34645" lon="-1.51582">
        <ele>47.1</ele>
        <time>2022-08-30T09:09:12Z</time>
      </trkpt>
      <trkpt lat="43.34647" lon="-1.51587">
        <ele>47.1</ele>
        <time>2022-08-30T09:09:13Z</time>
      </trkpt>
      <trkpt lat="43.3465" lon="-1.51592">
        <ele>47.1</ele>
        <time>2022-08-30T09:09:14Z</time>
      </trkpt>
      <trkpt lat="43.34651" lon="-1.51597">
        <ele>47.1</ele>
        <time>2022-08-30T09:09:15Z</time>
      </trkpt>
      <trkpt lat="43.34653" lon="-1.51603">
        <ele>47.2</ele>
        <time>2022-08-30T09:09:16Z</time>
      </trkpt>
      <trkpt lat="43.34655" lon="-1.51608">
        <ele>47.3</ele>
        <time>2022-08-30T09:09:17Z</time>
      </trkpt>
      <trkpt lat="43.34655" lon="-1.51614">
        <ele>47.4</ele>
        <time>2022-08-30T09:09:18Z</time>
      </trkpt>
      <trkpt lat="43.34654" lon="-1.5162">
        <ele>47.6</ele>
        <time>2022-08-30T09:09:19Z</time>
      </trkpt>
      <trkpt lat="43.34653" lon="-1.51626">
        <ele>47.7</ele>
        <time>2022-08-30T09:09:20Z</time>
      </trkpt>
      <trkpt lat="43.34651" lon="-1.51631">
        <ele>47.9</ele>
        <time>2022-08-30T09:09:21Z</time>
      </trkpt>
      <trkpt lat="43.34649" lon="-1.51636">
        <ele>48.1</ele>
        <time>2022-08-30T09:09:22Z</time>
      </trkpt>
      <trkpt lat="43.34647" lon="-1.5164">
        <ele>48.3</ele>
        <time>2022-08-30T09:09:23Z</time>
      </trkpt>
      <trkpt lat="43.34644" lon="-1.51644">
        <ele>48.4</ele>
        <time>2022-08-30T09:09:24Z</time>
      </trkpt>
      <trkpt lat="43.34642" lon="-1.51647">
        <ele>48.5</ele>
        <time>2022-08-30T09:09:25Z</time>
      </trkpt>
      <trkpt lat="43.34639" lon="-1.5165">
        <ele>48.7</ele>
        <time>2022-08-30T09:09:26Z</time>
      </trkpt>
      <trkpt lat="43.34637" lon="-1.51654">
        <ele>48.7</ele>
        <time>2022-08-30T09:09:27Z</time>
      </trkpt>
      <trkpt lat="43.34634" lon="-1.51657">
        <ele>48.8</ele>
        <time>2022-08-30T09:09:28Z</time>
      </trkpt>
      <trkpt lat="43.34631" lon="-1.5166">
        <ele>48.8</ele>
        <time>2022-08-30T09:09:29Z</time>
      </trkpt>
      <trkpt lat="43.34629" lon="-1.51663">
        <ele>48.8</ele>
        <time>2022-08-30T09:09:30Z</time>
      </trkpt>
      <trkpt lat="43.34627" lon="-1.51667">
        <ele>48.7</ele>
        <time>2022-08-30T09:09:31Z</time>
      </trkpt>
      <trkpt lat="43.34625" lon="-1.5167">
        <ele>48.7</ele>
        <time>2022-08-30T09:09:32Z</time>
      </trkpt>
      <trkpt lat="43.34623" lon="-1.51675">
        <ele>48.6</ele>
        <time>2022-08-30T09:09:33Z</time>
      </trkpt>
      <trkpt lat="43.3462" lon="-1.5168">
        <ele>48.5</ele>
        <time>2022-08-30T09:09:34Z</time>
      </trkpt>
      <trkpt lat="43.34618" lon="-1.51686">
        <ele>48.5</ele>
        <time>2022-08-30T09:09:35Z</time>
      </trkpt>
      <trkpt lat="43.34616" lon="-1.51692">
        <ele>48.4</ele>
        <time>2022-08-30T09:09:36Z</time>
      </trkpt>
      <trkpt lat="43.34615" lon="-1.51699">
        <ele>48.4</ele>
        <time>2022-08-30T09:09:37Z</time>
      </trkpt>
      <trkpt lat="43.34614" lon="-1.51705">
        <ele>48.3</ele>
        <time>2022-08-30T09:09:38Z</time>
      </trkpt>
      <trkpt lat="43.34614" lon="-1.51711">
        <ele>48.3</ele>
        <time>2022-08-30T09:09:39Z</time>
      </trkpt>
      <trkpt lat="43.34614" lon="-1.51716">
        <ele>48.3</ele>
        <time>2022-08-30T09:09:40Z</time>
      </trkpt>
      <trkpt lat="43.34614" lon="-1.51721">
        <ele>48.2</ele>
        <time>2022-08-30T09:09:41Z</time>
      </trkpt>
      <trkpt lat="43.34614" lon="-1.51725">
        <ele>48.2</ele>
        <time>2022-08-30T09:09:42Z</time>
      </trkpt>
      <trkpt lat="43.34616" lon="-1.5173">
        <ele>48.2</ele>
        <time>2022-08-30T09:09:43Z</time>
      </trkpt>
      <trkpt lat="43.34617" lon="-1.51734">
        <ele>48.1</ele>
        <time>2022-08-30T09:09:44Z</time>
      </trkpt>
      <trkpt lat="43.3462" lon="-1.51736">
        <ele>48.1</ele>
        <time>2022-08-30T09:09:45Z</time>
      </trkpt>
      <trkpt lat="43.34624" lon="-1.51738">
        <ele>48.1</ele>
        <time>2022-08-30T09:09:46Z</time>
      </trkpt>
      <trkpt lat="43.34627" lon="-1.51739">
        <ele>48.1</ele>
        <time>2022-08-30T09:09:47Z</time>
      </trkpt>
      <trkpt lat="43.34631" lon="-1.5174">
        <ele>48.1</ele>
        <time>2022-08-30T09:09:48Z</time>
      </trkpt>
      <trkpt lat="43.34637" lon="-1.51741">
        <ele>48.1</ele>
        <time>2022-08-30T09:09:49Z</time>
      </trkpt>
      <trkpt lat="43.34642" lon="-1.51744">
        <ele>48.1</ele>
        <time>2022-08-30T09:09:50Z</time>
      </trkpt>
      <trkpt lat="43.34646" lon="-1.51749">
        <ele>48.1</ele>
        <time>2022-08-30T09:09:51Z</time>
      </trkpt>
      <trkpt lat="43.34648" lon="-1.51754">
        <ele>48.1</ele>
        <time>2022-08-30T09:09:52Z</time>
      </trkpt>
      <trkpt lat="43.34649" lon="-1.51759">
        <ele>48.1</ele>
        <time>2022-08-30T09:09:53Z</time>
      </trkpt>
      <trkpt lat="43.34649" lon="-1.51765">
        <ele>48.1</ele>
        <time>2022-08-30T09:09:54Z</time>
      </trkpt>
      <trkpt lat="43.34649" lon="-1.5177">
        <ele>48.2</ele>
        <time>2022-08-30T09:09:55Z</time>
      </trkpt>
      <trkpt lat="43.34648" lon="-1.51776">
        <ele>48.2</ele>
        <time>2022-08-30T09:09:56Z</time>
      </trkpt>
      <trkpt lat="43.34646" lon="-1.51782">
        <ele>48.2</ele>
        <time>2022-08-30T09:09:57Z</time>
      </trkpt>
      <trkpt lat="43.34644" lon="-1.51787">
        <ele>48.2</ele>
        <time>2022-08-30T09:09:58Z</time>
      </trkpt>
      <trkpt lat="43.34642" lon="-1.51791">
        <ele>48.3</ele>
        <time>2022-08-30T09:09:59Z</time>
      </trkpt>
      <trkpt lat="43.3464" lon="-1.51796">
        <ele>48.3</ele>
        <time>2022-08-30T09:10:00Z</time>
      </trkpt>
      <trkpt lat="43.34637" lon="-1.518">
        <ele>48.3</ele>
        <time>2022-08-30T09:10:01Z</time>
      </trkpt>
      <trkpt lat="43.34635" lon="-1.51804">
        <ele>48.4</ele>
        <time>2022-08-30T09:10:02Z</time>
      </trkpt>
      <trkpt lat="43.34633" lon="-1.51809">
        <ele>48.5</ele>
        <time>2022-08-30T09:10:03Z</time>
      </trkpt>
      <trkpt lat="43.34632" lon="-1.51814">
        <ele>48.5</ele>
        <time>2022-08-30T09:10:04Z</time>
      </trkpt>
      <trkpt lat="43.34631" lon="-1.5182">
        <ele>48.6</ele>
        <time>2022-08-30T09:10:05Z</time>
      </trkpt>
      <trkpt lat="43.3463" lon="-1.51825">
        <ele>48.7</ele>
        <time>2022-08-30T09:10:06Z</time>
      </trkpt>
      <trkpt lat="43.3463" lon="-1.5183">
        <ele>48.7</ele>
        <time>2022-08-30T09:10:07Z</time>
      </trkpt>
      <trkpt lat="43.34631" lon="-1.51835">
        <ele>48.8</ele>
        <time>2022-08-30T09:10:08Z</time>
      </trkpt>
      <trkpt lat="43.34632" lon="-1.51839">
        <ele>48.9</ele>
        <time>2022-08-30T09:10:09Z</time>
      </trkpt>
      <trkpt lat="43.34632" lon="-1.51845">
        <ele>48.9</ele>
        <time>2022-08-30T09:10:10Z</time>
      </trkpt>
      <trkpt lat="43.34633" lon="-1.5185">
        <ele>49</ele>
        <time>2022-08-30T09:10:11Z</time>
      </trkpt>
      <trkpt lat="43.34633" lon="-1.51856">
        <ele>49</ele>
        <time>2022-08-30T09:10:12Z</time>
      </trkpt>
      <trkpt lat="43.34632" lon="-1.51861">
        <ele>49</ele>
        <time>2022-08-30T09:10:13Z</time>
      </trkpt>
      <trkpt lat="43.34631" lon="-1.51866">
        <ele>49</ele>
        <time>2022-08-30T09:10:14Z</time>
      </trkpt>
      <trkpt lat="43.34629" lon="-1.51871">
        <ele>49.1</ele>
        <time>2022-08-30T09:10:15Z</time>
      </trkpt>
      <trkpt lat="43.34628" lon="-1.51876">
        <ele>49.1</ele>
        <time>2022-08-30T09:10:16Z</time>
      </trkpt>
      <trkpt lat="43.34626" lon="-1.51881">
        <ele>49.1</ele>
        <time>2022-08-30T09:10:17Z</time>
      </trkpt>
      <trkpt lat="43.34625" lon="-1.51885">
        <ele>49.1</ele>
        <time>2022-08-30T09:10:18Z</time>
      </trkpt>
      <trkpt lat="43.34623" lon="-1.51891">
        <ele>49</ele>
        <time>2022-08-30T09:10:19Z</time>
      </trkpt>
      <trkpt lat="43.34622" lon="-1.51896">
        <ele>49</ele>
        <time>2022-08-30T09:10:20Z</time>
      </trkpt>
      <trkpt lat="43.34621" lon="-1.519">
        <ele>49</ele>
        <time>2022-08-30T09:10:21Z</time>
      </trkpt>
      <trkpt lat="43.3462" lon="-1.51905">
        <ele>48.9</ele>
        <time>2022-08-30T09:10:22Z</time>
      </trkpt>
      <trkpt lat="43.3462" lon="-1.5191">
        <ele>48.9</ele>
        <time>2022-08-30T09:10:23Z</time>
      </trkpt>
      <trkpt lat="43.34619" lon="-1.51916">
        <ele>48.8</ele>
        <time>2022-08-30T09:10:24Z</time>
      </trkpt>
      <trkpt lat="43.34619" lon="-1.51922">
        <ele>48.7</ele>
        <time>2022-08-30T09:10:25Z</time>
      </trkpt>
      <trkpt lat="43.34618" lon="-1.51928">
        <ele>48.7</ele>
        <time>2022-08-30T09:10:26Z</time>
      </trkpt>
      <trkpt lat="43.34617" lon="-1.51934">
        <ele>48.6</ele>
        <time>2022-08-30T09:10:27Z</time>
      </trkpt>
      <trkpt lat="43.34616" lon="-1.5194">
        <ele>48.5</ele>
        <time>2022-08-30T09:10:28Z</time>
      </trkpt>
      <trkpt lat="43.34615" lon="-1.51946">
        <ele>48.5</ele>
        <time>2022-08-30T09:10:29Z</time>
      </trkpt>
      <trkpt lat="43.34614" lon="-1.51951">
        <ele>48.4</ele>
        <time>2022-08-30T09:10:30Z</time>
      </trkpt>
      <trkpt lat="43.34613" lon="-1.51957">
        <ele>48.3</ele>
        <time>2022-08-30T09:10:31Z</time>
      </trkpt>
      <trkpt lat="43.34612" lon="-1.51962">
        <ele>48.3</ele>
        <time>2022-08-30T09:10:32Z</time>
      </trkpt>
      <trkpt lat="43.34611" lon="-1.51969">
        <ele>48.3</ele>
        <time>2022-08-30T09:10:33Z</time>
      </trkpt>
      <trkpt lat="43.3461" lon="-1.51975">
        <ele>48.3</ele>
        <time>2022-08-30T09:10:34Z</time>
      </trkpt>
      <trkpt lat="43.34609" lon="-1.51981">
        <ele>48.3</ele>
        <time>2022-08-30T09:10:35Z</time>
      </trkpt>
      <trkpt lat="43.34607" lon="-1.51987">
        <ele>48.3</ele>
        <time>2022-08-30T09:10:36Z</time>
      </trkpt>
      <trkpt lat="43.34606" lon="-1.51993">
        <ele>48.3</ele>
        <time>2022-08-30T09:10:37Z</time>
      </trkpt>
      <trkpt lat="43.34606" lon="-1.51999">
        <ele>48.3</ele>
        <time>2022-08-30T09:10:38Z</time>
      </trkpt>
      <trkpt lat="43.34605" lon="-1.52004">
        <ele>48.3</ele>
        <time>2022-08-30T09:10:39Z</time>
      </trkpt>
      <trkpt lat="43.34605" lon="-1.5201">
        <ele>48.3</ele>
        <time>2022-08-30T09:10:40Z</time>
      </trkpt>
      <trkpt lat="43.34605" lon="-1.52015">
        <ele>48.3</ele>
        <time>2022-08-30T09:10:41Z</time>
      </trkpt>
      <trkpt lat="43.34604" lon="-1.52021">
        <ele>48.3</ele>
        <time>2022-08-30T09:10:42Z</time>
      </trkpt>
      <trkpt lat="43.34604" lon="-1.52027">
        <ele>48.3</ele>
        <time>2022-08-30T09:10:43Z</time>
      </trkpt>
      <trkpt lat="43.34604" lon="-1.52033">
        <ele>48.3</ele>
        <time>2022-08-30T09:10:44Z</time>
      </trkpt>
      <trkpt lat="43.34603" lon="-1.52038">
        <ele>48.2</ele>
        <time>2022-08-30T09:10:45Z</time>
      </trkpt>
      <trkpt lat="43.34602" lon="-1.52045">
        <ele>48.2</ele>
        <time>2022-08-30T09:10:46Z</time>
      </trkpt>
      <trkpt lat="43.34601" lon="-1.52051">
        <ele>48.2</ele>
        <time>2022-08-30T09:10:47Z</time>
      </trkpt>
      <trkpt lat="43.346" lon="-1.52057">
        <ele>48.2</ele>
        <time>2022-08-30T09:10:48Z</time>
      </trkpt>
      <trkpt lat="43.346" lon="-1.52064">
        <ele>48.2</ele>
        <time>2022-08-30T09:10:49Z</time>
      </trkpt>
      <trkpt lat="43.346" lon="-1.5207">
        <ele>48.2</ele>
        <time>2022-08-30T09:10:50Z</time>
      </trkpt>
      <trkpt lat="43.34601" lon="-1.52077">
        <ele>48.1</ele>
        <time>2022-08-30T09:10:51Z</time>
      </trkpt>
      <trkpt lat="43.34601" lon="-1.52083">
        <ele>48.1</ele>
        <time>2022-08-30T09:10:52Z</time>
      </trkpt>
      <trkpt lat="43.34603" lon="-1.52088">
        <ele>48.2</ele>
        <time>2022-08-30T09:10:53Z</time>
      </trkpt>
      <trkpt lat="43.34604" lon="-1.52093">
        <ele>48.2</ele>
        <time>2022-08-30T09:10:54Z</time>
      </trkpt>
      <trkpt lat="43.34605" lon="-1.52099">
        <ele>48.2</ele>
        <time>2022-08-30T09:10:55Z</time>
      </trkpt>
      <trkpt lat="43.34607" lon="-1.52104">
        <ele>48.2</ele>
        <time>2022-08-30T09:10:56Z</time>
      </trkpt>
      <trkpt lat="43.34608" lon="-1.5211">
        <ele>48.2</ele>
        <time>2022-08-30T09:10:57Z</time>
      </trkpt>
      <trkpt lat="43.34609" lon="-1.52115">
        <ele>48.2</ele>
        <time>2022-08-30T09:10:58Z</time>
      </trkpt>
      <trkpt lat="43.3461" lon="-1.52121">
        <ele>48.2</ele>
        <time>2022-08-30T09:10:59Z</time>
      </trkpt>
      <trkpt lat="43.3461" lon="-1.52126">
        <ele>48.2</ele>
        <time>2022-08-30T09:11:00Z</time>
      </trkpt>
      <trkpt lat="43.3461" lon="-1.52131">
        <ele>48.2</ele>
        <time>2022-08-30T09:11:01Z</time>
      </trkpt>
      <trkpt lat="43.34611" lon="-1.52137">
        <ele>48.2</ele>
        <time>2022-08-30T09:11:02Z</time>
      </trkpt>
      <trkpt lat="43.34611" lon="-1.52142">
        <ele>48.2</ele>
        <time>2022-08-30T09:11:03Z</time>
      </trkpt>
      <trkpt lat="43.3461" lon="-1.52147">
        <ele>48.2</ele>
        <time>2022-08-30T09:11:04Z</time>
      </trkpt>
      <trkpt lat="43.3461" lon="-1.52152">
        <ele>48.3</ele>
        <time>2022-08-30T09:11:05Z</time>
      </trkpt>
      <trkpt lat="43.34609" lon="-1.52158">
        <ele>48.3</ele>
        <time>2022-08-30T09:11:06Z</time>
      </trkpt>
      <trkpt lat="43.34608" lon="-1.52163">
        <ele>48.3</ele>
        <time>2022-08-30T09:11:07Z</time>
      </trkpt>
      <trkpt lat="43.34607" lon="-1.52169">
        <ele>48.3</ele>
        <time>2022-08-30T09:11:08Z</time>
      </trkpt>
      <trkpt lat="43.34606" lon="-1.52175">
        <ele>48.3</ele>
        <time>2022-08-30T09:11:09Z</time>
      </trkpt>
      <trkpt lat="43.34604" lon="-1.5218">
        <ele>48.3</ele>
        <time>2022-08-30T09:11:10Z</time>
      </trkpt>
      <trkpt lat="43.34603" lon="-1.52185">
        <ele>48.3</ele>
        <time>2022-08-30T09:11:11Z</time>
      </trkpt>
      <trkpt lat="43.34601" lon="-1.5219">
        <ele>48.3</ele>
        <time>2022-08-30T09:11:12Z</time>
      </trkpt>
      <trkpt lat="43.346" lon="-1.52195">
        <ele>48.3</ele>
        <time>2022-08-30T09:11:13Z</time>
      </trkpt>
      <trkpt lat="43.34599" lon="-1.522">
        <ele>48.4</ele>
        <time>2022-08-30T09:11:14Z</time>
      </trkpt>
      <trkpt lat="43.34597" lon="-1.52206">
        <ele>48.4</ele>
        <time>2022-08-30T09:11:15Z</time>
      </trkpt>
      <trkpt lat="43.34596" lon="-1.5221">
        <ele>48.4</ele>
        <time>2022-08-30T09:11:16Z</time>
      </trkpt>
      <trkpt lat="43.34595" lon="-1.52215">
        <ele>48.4</ele>
        <time>2022-08-30T09:11:17Z</time>
      </trkpt>
      <trkpt lat="43.34594" lon="-1.52219">
        <ele>48.4</ele>
        <time>2022-08-30T09:11:18Z</time>
      </trkpt>
      <trkpt lat="43.34593" lon="-1.52224">
        <ele>48.4</ele>
        <time>2022-08-30T09:11:19Z</time>
      </trkpt>
      <trkpt lat="43.34592" lon="-1.52228">
        <ele>48.5</ele>
        <time>2022-08-30T09:11:20Z</time>
      </trkpt>
      <trkpt lat="43.34591" lon="-1.52232">
        <ele>48.5</ele>
        <time>2022-08-30T09:11:21Z</time>
      </trkpt>
      <trkpt lat="43.3459" lon="-1.52237">
        <ele>48.5</ele>
        <time>2022-08-30T09:11:22Z</time>
      </trkpt>
      <trkpt lat="43.34589" lon="-1.52242">
        <ele>48.5</ele>
        <time>2022-08-30T09:11:23Z</time>
      </trkpt>
      <trkpt lat="43.34588" lon="-1.52247">
        <ele>48.5</ele>
        <time>2022-08-30T09:11:24Z</time>
      </trkpt>
      <trkpt lat="43.34587" lon="-1.52252">
        <ele>48.5</ele>
        <time>2022-08-30T09:11:25Z</time>
      </trkpt>
      <trkpt lat="43.34585" lon="-1.52256">
        <ele>48.5</ele>
        <time>2022-08-30T09:11:26Z</time>
      </trkpt>
      <trkpt lat="43.34583" lon="-1.5226">
        <ele>48.5</ele>
        <time>2022-08-30T09:11:27Z</time>
      </trkpt>
      <trkpt lat="43.34581" lon="-1.52265">
        <ele>48.5</ele>
        <time>2022-08-30T09:11:28Z</time>
      </trkpt>
      <trkpt lat="43.34579" lon="-1.52269">
        <ele>48.5</ele>
        <time>2022-08-30T09:11:29Z</time>
      </trkpt>
      <trkpt lat="43.34577" lon="-1.52273">
        <ele>48.5</ele>
        <time>2022-08-30T09:11:30Z</time>
      </trkpt>
      <trkpt lat="43.34575" lon="-1.52277">
        <ele>48.6</ele>
        <time>2022-08-30T09:11:31Z</time>
      </trkpt>
      <trkpt lat="43.34572" lon="-1.5228">
        <ele>48.6</ele>
        <time>2022-08-30T09:11:32Z</time>
      </trkpt>
      <trkpt lat="43.3457" lon="-1.52283">
        <ele>48.6</ele>
        <time>2022-08-30T09:11:33Z</time>
      </trkpt>
      <trkpt lat="43.34567" lon="-1.52286">
        <ele>48.6</ele>
        <time>2022-08-30T09:11:34Z</time>
      </trkpt>
      <trkpt lat="43.34564" lon="-1.52289">
        <ele>48.6</ele>
        <time>2022-08-30T09:11:35Z</time>
      </trkpt>
      <trkpt lat="43.34562" lon="-1.52291">
        <ele>48.7</ele>
        <time>2022-08-30T09:11:36Z</time>
      </trkpt>
      <trkpt lat="43.34559" lon="-1.52293">
        <ele>48.7</ele>
        <time>2022-08-30T09:11:37Z</time>
      </trkpt>
      <trkpt lat="43.34555" lon="-1.52296">
        <ele>48.7</ele>
        <time>2022-08-30T09:11:38Z</time>
      </trkpt>
      <trkpt lat="43.34552" lon="-1.52299">
        <ele>48.8</ele>
        <time>2022-08-30T09:11:39Z</time>
      </trkpt>
      <trkpt lat="43.3455" lon="-1.52302">
        <ele>48.8</ele>
        <time>2022-08-30T09:11:40Z</time>
      </trkpt>
      <trkpt lat="43.34547" lon="-1.52305">
        <ele>48.8</ele>
        <time>2022-08-30T09:11:41Z</time>
      </trkpt>
      <trkpt lat="43.34546" lon="-1.52308">
        <ele>48.8</ele>
        <time>2022-08-30T09:11:42Z</time>
      </trkpt>
      <trkpt lat="43.34544" lon="-1.52311">
        <ele>48.9</ele>
        <time>2022-08-30T09:11:43Z</time>
      </trkpt>
      <trkpt lat="43.34542" lon="-1.52315">
        <ele>48.9</ele>
        <time>2022-08-30T09:11:44Z</time>
      </trkpt>
      <trkpt lat="43.34541" lon="-1.52318">
        <ele>48.9</ele>
        <time>2022-08-30T09:11:45Z</time>
      </trkpt>
      <trkpt lat="43.34539" lon="-1.52322">
        <ele>49</ele>
        <time>2022-08-30T09:11:46Z</time>
      </trkpt>
      <trkpt lat="43.34539" lon="-1.52324">
        <ele>49</ele>
        <time>2022-08-30T09:11:47Z</time>
      </trkpt>
      <trkpt lat="43.34537" lon="-1.52328">
        <ele>49</ele>
        <time>2022-08-30T09:11:48Z</time>
      </trkpt>
      <trkpt lat="43.34535" lon="-1.52332">
        <ele>49</ele>
        <time>2022-08-30T09:11:49Z</time>
      </trkpt>
      <trkpt lat="43.34533" lon="-1.52335">
        <ele>49</ele>
        <time>2022-08-30T09:11:50Z</time>
      </trkpt>
      <trkpt lat="43.34531" lon="-1.52339">
        <ele>49</ele>
        <time>2022-08-30T09:11:51Z</time>
      </trkpt>
      <trkpt lat="43.34529" lon="-1.52343">
        <ele>49</ele>
        <time>2022-08-30T09:11:52Z</time>
      </trkpt>
      <trkpt lat="43.34526" lon="-1.52347">
        <ele>49</ele>
        <time>2022-08-30T09:11:53Z</time>
      </trkpt>
      <trkpt lat="43.34524" lon="-1.52351">
        <ele>49</ele>
        <time>2022-08-30T09:11:54Z</time>
      </trkpt>
      <trkpt lat="43.34522" lon="-1.52355">
        <ele>49</ele>
        <time>2022-08-30T09:11:55Z</time>
      </trkpt>
      <trkpt lat="43.34519" lon="-1.52359">
        <ele>49</ele>
        <time>2022-08-30T09:11:56Z</time>
      </trkpt>
      <trkpt lat="43.34517" lon="-1.52364">
        <ele>49</ele>
        <time>2022-08-30T09:11:57Z</time>
      </trkpt>
      <trkpt lat="43.34514" lon="-1.52369">
        <ele>48.9</ele>
        <time>2022-08-30T09:11:58Z</time>
      </trkpt>
      <trkpt lat="43.34511" lon="-1.52375">
        <ele>48.9</ele>
        <time>2022-08-30T09:11:59Z</time>
      </trkpt>
      <trkpt lat="43.34508" lon="-1.52381">
        <ele>48.9</ele>
        <time>2022-08-30T09:12:00Z</time>
      </trkpt>
      <trkpt lat="43.34505" lon="-1.52386">
        <ele>48.9</ele>
        <time>2022-08-30T09:12:01Z</time>
      </trkpt>
      <trkpt lat="43.34503" lon="-1.52392">
        <ele>49</ele>
        <time>2022-08-30T09:12:02Z</time>
      </trkpt>
      <trkpt lat="43.345" lon="-1.52397">
        <ele>49</ele>
        <time>2022-08-30T09:12:03Z</time>
      </trkpt>
      <trkpt lat="43.34497" lon="-1.52402">
        <ele>49</ele>
        <time>2022-08-30T09:12:04Z</time>
      </trkpt>
      <trkpt lat="43.34495" lon="-1.52407">
        <ele>49.1</ele>
        <time>2022-08-30T09:12:05Z</time>
      </trkpt>
      <trkpt lat="43.34494" lon="-1.52412">
        <ele>49.1</ele>
        <time>2022-08-30T09:12:06Z</time>
      </trkpt>
      <trkpt lat="43.34492" lon="-1.52417">
        <ele>49.1</ele>
        <time>2022-08-30T09:12:07Z</time>
      </trkpt>
      <trkpt lat="43.3449" lon="-1.52422">
        <ele>49.2</ele>
        <time>2022-08-30T09:12:08Z</time>
      </trkpt>
      <trkpt lat="43.34488" lon="-1.52427">
        <ele>49.2</ele>
        <time>2022-08-30T09:12:09Z</time>
      </trkpt>
      <trkpt lat="43.34486" lon="-1.52433">
        <ele>49.2</ele>
        <time>2022-08-30T09:12:10Z</time>
      </trkpt>
      <trkpt lat="43.34484" lon="-1.52438">
        <ele>49.3</ele>
        <time>2022-08-30T09:12:11Z</time>
      </trkpt>
      <trkpt lat="43.34483" lon="-1.52442">
        <ele>49.3</ele>
        <time>2022-08-30T09:12:12Z</time>
      </trkpt>
      <trkpt lat="43.34482" lon="-1.52446">
        <ele>49.3</ele>
        <time>2022-08-30T09:12:13Z</time>
      </trkpt>
      <trkpt lat="43.3448" lon="-1.52451">
        <ele>49.3</ele>
        <time>2022-08-30T09:12:14Z</time>
      </trkpt>
      <trkpt lat="43.34479" lon="-1.52456">
        <ele>49.4</ele>
        <time>2022-08-30T09:12:15Z</time>
      </trkpt>
      <trkpt lat="43.34477" lon="-1.52461">
        <ele>49.4</ele>
        <time>2022-08-30T09:12:16Z</time>
      </trkpt>
      <trkpt lat="43.34476" lon="-1.52466">
        <ele>49.4</ele>
        <time>2022-08-30T09:12:17Z</time>
      </trkpt>
      <trkpt lat="43.34474" lon="-1.52471">
        <ele>49.4</ele>
        <time>2022-08-30T09:12:18Z</time>
      </trkpt>
      <trkpt lat="43.34473" lon="-1.52475">
        <ele>49.4</ele>
        <time>2022-08-30T09:12:19Z</time>
      </trkpt>
      <trkpt lat="43.34472" lon="-1.52481">
        <ele>49.4</ele>
        <time>2022-08-30T09:12:20Z</time>
      </trkpt>
      <trkpt lat="43.34471" lon="-1.52486">
        <ele>49.4</ele>
        <time>2022-08-30T09:12:21Z</time>
      </trkpt>
      <trkpt lat="43.3447" lon="-1.52491">
        <ele>49.4</ele>
        <time>2022-08-30T09:12:22Z</time>
      </trkpt>
      <trkpt lat="43.3447" lon="-1.52495">
        <ele>49.4</ele>
        <time>2022-08-30T09:12:23Z</time>
      </trkpt>
      <trkpt lat="43.34469" lon="-1.525">
        <ele>49.4</ele>
        <time>2022-08-30T09:12:24Z</time>
      </trkpt>
      <trkpt lat="43.34469" lon="-1.52505">
        <ele>49.3</ele>
        <time>2022-08-30T09:12:25Z</time>
      </trkpt>
      <trkpt lat="43.34468" lon="-1.52509">
        <ele>49.3</ele>
        <time>2022-08-30T09:12:26Z</time>
      </trkpt>
      <trkpt lat="43.34467" lon="-1.52514">
        <ele>49.3</ele>
        <time>2022-08-30T09:12:27Z</time>
      </trkpt>
      <trkpt lat="43.34466" lon="-1.52518">
        <ele>49.3</ele>
        <time>2022-08-30T09:12:28Z</time>
      </trkpt>
      <trkpt lat="43.34466" lon="-1.52523">
        <ele>49.3</ele>
        <time>2022-08-30T09:12:29Z</time>
      </trkpt>
      <trkpt lat="43.34465" lon="-1.52527">
        <ele>49.3</ele>
        <time>2022-08-30T09:12:30Z</time>
      </trkpt>
      <trkpt lat="43.34465" lon="-1.52531">
        <ele>49.2</ele>
        <time>2022-08-30T09:12:31Z</time>
      </trkpt>
      <trkpt lat="43.34463" lon="-1.52535">
        <ele>49.2</ele>
        <time>2022-08-30T09:12:32Z</time>
      </trkpt>
      <trkpt lat="43.34462" lon="-1.52539">
        <ele>49.2</ele>
        <time>2022-08-30T09:12:33Z</time>
      </trkpt>
      <trkpt lat="43.3446" lon="-1.52542">
        <ele>49.2</ele>
        <time>2022-08-30T09:12:34Z</time>
      </trkpt>
      <trkpt lat="43.34458" lon="-1.52545">
        <ele>49.1</ele>
        <time>2022-08-30T09:12:35Z</time>
      </trkpt>
      <trkpt lat="43.34455" lon="-1.52547">
        <ele>49.1</ele>
        <time>2022-08-30T09:12:36Z</time>
      </trkpt>
      <trkpt lat="43.34452" lon="-1.5255">
        <ele>49</ele>
        <time>2022-08-30T09:12:37Z</time>
      </trkpt>
      <trkpt lat="43.34449" lon="-1.52553">
        <ele>49</ele>
        <time>2022-08-30T09:12:38Z</time>
      </trkpt>
      <trkpt lat="43.34447" lon="-1.52556">
        <ele>48.9</ele>
        <time>2022-08-30T09:12:39Z</time>
      </trkpt>
      <trkpt lat="43.34445" lon="-1.52559">
        <ele>48.8</ele>
        <time>2022-08-30T09:12:40Z</time>
      </trkpt>
      <trkpt lat="43.34443" lon="-1.52561">
        <ele>48.7</ele>
        <time>2022-08-30T09:12:41Z</time>
      </trkpt>
      <trkpt lat="43.3444" lon="-1.52564">
        <ele>48.6</ele>
        <time>2022-08-30T09:12:42Z</time>
      </trkpt>
      <trkpt lat="43.34437" lon="-1.52568">
        <ele>48.5</ele>
        <time>2022-08-30T09:12:43Z</time>
      </trkpt>
      <trkpt lat="43.34434" lon="-1.52571">
        <ele>48.4</ele>
        <time>2022-08-30T09:12:44Z</time>
      </trkpt>
      <trkpt lat="43.34432" lon="-1.52575">
        <ele>48.4</ele>
        <time>2022-08-30T09:12:45Z</time>
      </trkpt>
      <trkpt lat="43.3443" lon="-1.52579">
        <ele>48.3</ele>
        <time>2022-08-30T09:12:46Z</time>
      </trkpt>
      <trkpt lat="43.34428" lon="-1.52583">
        <ele>48.2</ele>
        <time>2022-08-30T09:12:47Z</time>
      </trkpt>
      <trkpt lat="43.34427" lon="-1.52588">
        <ele>48.1</ele>
        <time>2022-08-30T09:12:48Z</time>
      </trkpt>
      <trkpt lat="43.34425" lon="-1.52593">
        <ele>48.1</ele>
        <time>2022-08-30T09:12:49Z</time>
      </trkpt>
      <trkpt lat="43.34423" lon="-1.52598">
        <ele>48</ele>
        <time>2022-08-30T09:12:50Z</time>
      </trkpt>
      <trkpt lat="43.34421" lon="-1.52602">
        <ele>48</ele>
        <time>2022-08-30T09:12:51Z</time>
      </trkpt>
      <trkpt lat="43.34419" lon="-1.52606">
        <ele>47.9</ele>
        <time>2022-08-30T09:12:52Z</time>
      </trkpt>
      <trkpt lat="43.34416" lon="-1.5261">
        <ele>47.9</ele>
        <time>2022-08-30T09:12:53Z</time>
      </trkpt>
      <trkpt lat="43.34414" lon="-1.52614">
        <ele>47.9</ele>
        <time>2022-08-30T09:12:54Z</time>
      </trkpt>
      <trkpt lat="43.34412" lon="-1.52619">
        <ele>47.9</ele>
        <time>2022-08-30T09:12:55Z</time>
      </trkpt>
      <trkpt lat="43.34409" lon="-1.52623">
        <ele>47.9</ele>
        <time>2022-08-30T09:12:56Z</time>
      </trkpt>
      <trkpt lat="43.34406" lon="-1.52628">
        <ele>48</ele>
        <time>2022-08-30T09:12:57Z</time>
      </trkpt>
      <trkpt lat="43.34403" lon="-1.52633">
        <ele>48.2</ele>
        <time>2022-08-30T09:12:58Z</time>
      </trkpt>
      <trkpt lat="43.34401" lon="-1.52639">
        <ele>48.5</ele>
        <time>2022-08-30T09:12:59Z</time>
      </trkpt>
      <trkpt lat="43.344" lon="-1.52645">
        <ele>48.9</ele>
        <time>2022-08-30T09:13:00Z</time>
      </trkpt>
      <trkpt lat="43.34398" lon="-1.52651">
        <ele>49.4</ele>
        <time>2022-08-30T09:13:01Z</time>
      </trkpt>
      <trkpt lat="43.34396" lon="-1.52657">
        <ele>49.8</ele>
        <time>2022-08-30T09:13:02Z</time>
      </trkpt>
      <trkpt lat="43.34394" lon="-1.52662">
        <ele>50.1</ele>
        <time>2022-08-30T09:13:03Z</time>
      </trkpt>
      <trkpt lat="43.34392" lon="-1.52665">
        <ele>50.4</ele>
        <time>2022-08-30T09:13:04Z</time>
      </trkpt>
      <trkpt lat="43.3439" lon="-1.52669">
        <ele>50.7</ele>
        <time>2022-08-30T09:13:05Z</time>
      </trkpt>
      <trkpt lat="43.34387" lon="-1.52672">
        <ele>50.9</ele>
        <time>2022-08-30T09:13:06Z</time>
      </trkpt>
      <trkpt lat="43.34385" lon="-1.52673">
        <ele>51</ele>
        <time>2022-08-30T09:13:07Z</time>
      </trkpt>
      <trkpt lat="43.34382" lon="-1.52674">
        <ele>51.2</ele>
        <time>2022-08-30T09:13:08Z</time>
      </trkpt>
      <trkpt lat="43.34379" lon="-1.52674">
        <ele>51.3</ele>
        <time>2022-08-30T09:13:09Z</time>
      </trkpt>
      <trkpt lat="43.34377" lon="-1.52673">
        <ele>51.4</ele>
        <time>2022-08-30T09:13:10Z</time>
      </trkpt>
      <trkpt lat="43.34376" lon="-1.52673">
        <ele>51.5</ele>
        <time>2022-08-30T09:13:11Z</time>
      </trkpt>
      <trkpt lat="43.34375" lon="-1.52673">
        <ele>51.6</ele>
        <time>2022-08-30T09:13:12Z</time>
      </trkpt>
      <trkpt lat="43.34373" lon="-1.52673">
        <ele>51.5</ele>
        <time>2022-08-30T09:13:13Z</time>
      </trkpt>
      <trkpt lat="43.34372" lon="-1.52673">
        <ele>51.4</ele>
        <time>2022-08-30T09:13:14Z</time>
      </trkpt>
      <trkpt lat="43.3437" lon="-1.52674">
        <ele>51.3</ele>
        <time>2022-08-30T09:13:15Z</time>
      </trkpt>
      <trkpt lat="43.34367" lon="-1.52676">
        <ele>51</ele>
        <time>2022-08-30T09:13:16Z</time>
      </trkpt>
      <trkpt lat="43.34366" lon="-1.52676">
        <ele>50.8</ele>
        <time>2022-08-30T09:13:17Z</time>
      </trkpt>
      <trkpt lat="43.34363" lon="-1.52677">
        <ele>50.5</ele>
        <time>2022-08-30T09:13:18Z</time>
      </trkpt>
      <trkpt lat="43.3436" lon="-1.52676">
        <ele>50.2</ele>
        <time>2022-08-30T09:13:19Z</time>
      </trkpt>
      <trkpt lat="43.34356" lon="-1.52676">
        <ele>49.6</ele>
        <time>2022-08-30T09:13:20Z</time>
      </trkpt>
      <trkpt lat="43.34355" lon="-1.52676">
        <ele>49.5</ele>
        <time>2022-08-30T09:13:21Z</time>
      </trkpt>
      <trkpt lat="43.34352" lon="-1.52676">
        <ele>49</ele>
        <time>2022-08-30T09:13:22Z</time>
      </trkpt>
      <trkpt lat="43.34349" lon="-1.52675">
        <ele>48.4</ele>
        <time>2022-08-30T09:13:23Z</time>
      </trkpt>
      <trkpt lat="43.34346" lon="-1.52674">
        <ele>47.9</ele>
        <time>2022-08-30T09:13:24Z</time>
      </trkpt>
      <trkpt lat="43.34342" lon="-1.52672">
        <ele>47.1</ele>
        <time>2022-08-30T09:13:25Z</time>
      </trkpt>
      <trkpt lat="43.34341" lon="-1.52671">
        <ele>46.9</ele>
        <time>2022-08-30T09:13:26Z</time>
      </trkpt>
      <trkpt lat="43.34339" lon="-1.5267">
        <ele>46.3</ele>
        <time>2022-08-30T09:13:27Z</time>
      </trkpt>
      <trkpt lat="43.34338" lon="-1.5267">
        <ele>46.1</ele>
        <time>2022-08-30T09:13:28Z</time>
      </trkpt>
      <trkpt lat="43.34335" lon="-1.52668">
        <ele>45.5</ele>
        <time>2022-08-30T09:13:29Z</time>
      </trkpt>
      <trkpt lat="43.34334" lon="-1.52667">
        <ele>45.3</ele>
        <time>2022-08-30T09:13:30Z</time>
      </trkpt>
      <trkpt lat="43.34333" lon="-1.52666">
        <ele>45</ele>
        <time>2022-08-30T09:13:31Z</time>
      </trkpt>
      <trkpt lat="43.34332" lon="-1.52666">
        <ele>44.8</ele>
        <time>2022-08-30T09:13:32Z</time>
      </trkpt>
      <trkpt lat="43.34331" lon="-1.52666">
        <ele>44.6</ele>
        <time>2022-08-30T09:13:33Z</time>
      </trkpt>
      <trkpt lat="43.3433" lon="-1.52665">
        <ele>44.5</ele>
        <time>2022-08-30T09:13:34Z</time>
      </trkpt>
      <trkpt lat="43.34329" lon="-1.52665">
        <ele>44.3</ele>
        <time>2022-08-30T09:13:35Z</time>
      </trkpt>
      <trkpt lat="43.34328" lon="-1.52665">
        <ele>44.1</ele>
        <time>2022-08-30T09:13:36Z</time>
      </trkpt>
      <trkpt lat="43.34325" lon="-1.52665">
        <ele>42.4</ele>
        <time>2022-08-30T09:13:37Z</time>
      </trkpt>
      <trkpt lat="43.34324" lon="-1.52664">
        <ele>42</ele>
        <time>2022-08-30T09:13:38Z</time>
      </trkpt>
      <trkpt lat="43.3432" lon="-1.52662">
        <ele>40.9</ele>
        <time>2022-08-30T09:13:39Z</time>
      </trkpt>
      <trkpt lat="43.34319" lon="-1.52662">
        <ele>40.5</ele>
        <time>2022-08-30T09:13:40Z</time>
      </trkpt>
      <trkpt lat="43.34316" lon="-1.52659">
        <ele>39.5</ele>
        <time>2022-08-30T09:13:41Z</time>
      </trkpt>
      <trkpt lat="43.34315" lon="-1.52658">
        <ele>39.2</ele>
        <time>2022-08-30T09:13:42Z</time>
      </trkpt>
      <trkpt lat="43.34313" lon="-1.52657">
        <ele>38.5</ele>
        <time>2022-08-30T09:13:43Z</time>
      </trkpt>
      <trkpt lat="43.3431" lon="-1.52654">
        <ele>37.8</ele>
        <time>2022-08-30T09:13:44Z</time>
      </trkpt>
      <trkpt lat="43.34309" lon="-1.52653">
        <ele>37.6</ele>
        <time>2022-08-30T09:13:45Z</time>
      </trkpt>
      <trkpt lat="43.34307" lon="-1.52652">
        <ele>37.3</ele>
        <time>2022-08-30T09:13:46Z</time>
      </trkpt>
      <trkpt lat="43.34306" lon="-1.52652">
        <ele>37.2</ele>
        <time>2022-08-30T09:13:47Z</time>
      </trkpt>
      <trkpt lat="43.34305" lon="-1.52653">
        <ele>37</ele>
        <time>2022-08-30T09:13:48Z</time>
      </trkpt>
      <trkpt lat="43.34304" lon="-1.52653">
        <ele>36.9</ele>
        <time>2022-08-30T09:13:49Z</time>
      </trkpt>
      <trkpt lat="43.34303" lon="-1.52653">
        <ele>36.8</ele>
        <time>2022-08-30T09:13:50Z</time>
      </trkpt>
      <trkpt lat="43.34302" lon="-1.52654">
        <ele>36.7</ele>
        <time>2022-08-30T09:13:51Z</time>
      </trkpt>
      <trkpt lat="43.34299" lon="-1.52654">
        <ele>36.4</ele>
        <time>2022-08-30T09:13:52Z</time>
      </trkpt>
      <trkpt lat="43.34298" lon="-1.52655">
        <ele>36.3</ele>
        <time>2022-08-30T09:13:53Z</time>
      </trkpt>
      <trkpt lat="43.34297" lon="-1.52655">
        <ele>36.2</ele>
        <time>2022-08-30T09:13:54Z</time>
      </trkpt>
      <trkpt lat="43.34295" lon="-1.52657">
        <ele>36.1</ele>
        <time>2022-08-30T09:13:55Z</time>
      </trkpt>
      <trkpt lat="43.34293" lon="-1.52659">
        <ele>36</ele>
        <time>2022-08-30T09:13:56Z</time>
      </trkpt>
      <trkpt lat="43.34292" lon="-1.5266">
        <ele>36</ele>
        <time>2022-08-30T09:13:57Z</time>
      </trkpt>
      <trkpt lat="43.34289" lon="-1.52664">
        <ele>35.8</ele>
        <time>2022-08-30T09:13:58Z</time>
      </trkpt>
      <trkpt lat="43.34287" lon="-1.52665">
        <ele>35.8</ele>
        <time>2022-08-30T09:13:59Z</time>
      </trkpt>
      <trkpt lat="43.34284" lon="-1.52666">
        <ele>35.7</ele>
        <time>2022-08-30T09:14:00Z</time>
      </trkpt>
      <trkpt lat="43.3428" lon="-1.52666">
        <ele>35.6</ele>
        <time>2022-08-30T09:14:01Z</time>
      </trkpt>
      <trkpt lat="43.34276" lon="-1.52667">
        <ele>35.6</ele>
        <time>2022-08-30T09:14:02Z</time>
      </trkpt>
      <trkpt lat="43.34273" lon="-1.52668">
        <ele>35.6</ele>
        <time>2022-08-30T09:14:03Z</time>
      </trkpt>
      <trkpt lat="43.3427" lon="-1.52672">
        <ele>35.3</ele>
        <time>2022-08-30T09:14:04Z</time>
      </trkpt>
      <trkpt lat="43.34268" lon="-1.52676">
        <ele>35.3</ele>
        <time>2022-08-30T09:14:05Z</time>
      </trkpt>
      <trkpt lat="43.34266" lon="-1.5268">
        <ele>35.2</ele>
        <time>2022-08-30T09:14:06Z</time>
      </trkpt>
      <trkpt lat="43.34264" lon="-1.52685">
        <ele>35.2</ele>
        <time>2022-08-30T09:14:07Z</time>
      </trkpt>
      <trkpt lat="43.34262" lon="-1.5269">
        <ele>35.2</ele>
        <time>2022-08-30T09:14:08Z</time>
      </trkpt>
      <trkpt lat="43.34259" lon="-1.52695">
        <ele>35.2</ele>
        <time>2022-08-30T09:14:09Z</time>
      </trkpt>
      <trkpt lat="43.34258" lon="-1.52699">
        <ele>35.3</ele>
        <time>2022-08-30T09:14:10Z</time>
      </trkpt>
      <trkpt lat="43.34257" lon="-1.52703">
        <ele>35.4</ele>
        <time>2022-08-30T09:14:11Z</time>
      </trkpt>
      <trkpt lat="43.34257" lon="-1.52708">
        <ele>35.5</ele>
        <time>2022-08-30T09:14:12Z</time>
      </trkpt>
      <trkpt lat="43.34256" lon="-1.5271">
        <ele>35.5</ele>
        <time>2022-08-30T09:14:13Z</time>
      </trkpt>
      <trkpt lat="43.34256" lon="-1.52714">
        <ele>35.6</ele>
        <time>2022-08-30T09:14:14Z</time>
      </trkpt>
      <trkpt lat="43.34257" lon="-1.52718">
        <ele>35.7</ele>
        <time>2022-08-30T09:14:15Z</time>
      </trkpt>
      <trkpt lat="43.34258" lon="-1.52722">
        <ele>35.8</ele>
        <time>2022-08-30T09:14:16Z</time>
      </trkpt>
      <trkpt lat="43.34259" lon="-1.52726">
        <ele>35.9</ele>
        <time>2022-08-30T09:14:17Z</time>
      </trkpt>
      <trkpt lat="43.34261" lon="-1.5273">
        <ele>36</ele>
        <time>2022-08-30T09:14:18Z</time>
      </trkpt>
      <trkpt lat="43.34263" lon="-1.52735">
        <ele>36</ele>
        <time>2022-08-30T09:14:19Z</time>
      </trkpt>
      <trkpt lat="43.34265" lon="-1.5274">
        <ele>36</ele>
        <time>2022-08-30T09:14:20Z</time>
      </trkpt>
      <trkpt lat="43.34266" lon="-1.52747">
        <ele>35.9</ele>
        <time>2022-08-30T09:14:21Z</time>
      </trkpt>
      <trkpt lat="43.34269" lon="-1.52753">
        <ele>35.7</ele>
        <time>2022-08-30T09:14:22Z</time>
      </trkpt>
      <trkpt lat="43.34272" lon="-1.5276">
        <ele>35.5</ele>
        <time>2022-08-30T09:14:23Z</time>
      </trkpt>
      <trkpt lat="43.34274" lon="-1.52767">
        <ele>35.2</ele>
        <time>2022-08-30T09:14:24Z</time>
      </trkpt>
      <trkpt lat="43.34276" lon="-1.52773">
        <ele>35</ele>
        <time>2022-08-30T09:14:25Z</time>
      </trkpt>
      <trkpt lat="43.34277" lon="-1.52777">
        <ele>34.8</ele>
        <time>2022-08-30T09:14:26Z</time>
      </trkpt>
      <trkpt lat="43.34278" lon="-1.52781">
        <ele>34.7</ele>
        <time>2022-08-30T09:14:27Z</time>
      </trkpt>
      <trkpt lat="43.3428" lon="-1.52784">
        <ele>34.6</ele>
        <time>2022-08-30T09:14:28Z</time>
      </trkpt>
      <trkpt lat="43.34281" lon="-1.52787">
        <ele>34.5</ele>
        <time>2022-08-30T09:14:29Z</time>
      </trkpt>
      <trkpt lat="43.34282" lon="-1.52791">
        <ele>34.4</ele>
        <time>2022-08-30T09:14:30Z</time>
      </trkpt>
      <trkpt lat="43.34283" lon="-1.52795">
        <ele>34.4</ele>
        <time>2022-08-30T09:14:31Z</time>
      </trkpt>
      <trkpt lat="43.34282" lon="-1.52799">
        <ele>34.3</ele>
        <time>2022-08-30T09:14:32Z</time>
      </trkpt>
      <trkpt lat="43.34282" lon="-1.528">
        <ele>34.3</ele>
        <time>2022-08-30T09:14:33Z</time>
      </trkpt>
      <trkpt lat="43.34281" lon="-1.52805">
        <ele>34.3</ele>
        <time>2022-08-30T09:14:34Z</time>
      </trkpt>
      <trkpt lat="43.34281" lon="-1.52806">
        <ele>34.4</ele>
        <time>2022-08-30T09:14:35Z</time>
      </trkpt>
      <trkpt lat="43.34279" lon="-1.52811">
        <ele>34.4</ele>
        <time>2022-08-30T09:14:36Z</time>
      </trkpt>
      <trkpt lat="43.34279" lon="-1.52812">
        <ele>34.5</ele>
        <time>2022-08-30T09:14:37Z</time>
      </trkpt>
      <trkpt lat="43.34277" lon="-1.52817">
        <ele>34.6</ele>
        <time>2022-08-30T09:14:38Z</time>
      </trkpt>
      <trkpt lat="43.34277" lon="-1.52819">
        <ele>34.7</ele>
        <time>2022-08-30T09:14:39Z</time>
      </trkpt>
      <trkpt lat="43.34276" lon="-1.52822">
        <ele>34.8</ele>
        <time>2022-08-30T09:14:40Z</time>
      </trkpt>
      <trkpt lat="43.34274" lon="-1.52827">
        <ele>35</ele>
        <time>2022-08-30T09:14:41Z</time>
      </trkpt>
      <trkpt lat="43.34273" lon="-1.52831">
        <ele>35.3</ele>
        <time>2022-08-30T09:14:42Z</time>
      </trkpt>
      <trkpt lat="43.34271" lon="-1.52836">
        <ele>35.6</ele>
        <time>2022-08-30T09:14:43Z</time>
      </trkpt>
      <trkpt lat="43.34268" lon="-1.5284">
        <ele>35.9</ele>
        <time>2022-08-30T09:14:44Z</time>
      </trkpt>
      <trkpt lat="43.34265" lon="-1.52845">
        <ele>36.2</ele>
        <time>2022-08-30T09:14:45Z</time>
      </trkpt>
      <trkpt lat="43.34262" lon="-1.52849">
        <ele>36.5</ele>
        <time>2022-08-30T09:14:46Z</time>
      </trkpt>
      <trkpt lat="43.34258" lon="-1.52852">
        <ele>36.9</ele>
        <time>2022-08-30T09:14:47Z</time>
      </trkpt>
      <trkpt lat="43.34255" lon="-1.52855">
        <ele>37.2</ele>
        <time>2022-08-30T09:14:48Z</time>
      </trkpt>
      <trkpt lat="43.34252" lon="-1.52858">
        <ele>37.4</ele>
        <time>2022-08-30T09:14:49Z</time>
      </trkpt>
      <trkpt lat="43.34249" lon="-1.5286">
        <ele>37.7</ele>
        <time>2022-08-30T09:14:50Z</time>
      </trkpt>
      <trkpt lat="43.34247" lon="-1.52862">
        <ele>38</ele>
        <time>2022-08-30T09:14:51Z</time>
      </trkpt>
      <trkpt lat="43.34244" lon="-1.52864">
        <ele>38.3</ele>
        <time>2022-08-30T09:14:52Z</time>
      </trkpt>
      <trkpt lat="43.3424" lon="-1.52866">
        <ele>38.7</ele>
        <time>2022-08-30T09:14:53Z</time>
      </trkpt>
      <trkpt lat="43.34238" lon="-1.52869">
        <ele>39</ele>
        <time>2022-08-30T09:14:54Z</time>
      </trkpt>
      <trkpt lat="43.34235" lon="-1.52871">
        <ele>39.4</ele>
        <time>2022-08-30T09:14:55Z</time>
      </trkpt>
      <trkpt lat="43.34233" lon="-1.52874">
        <ele>39.8</ele>
        <time>2022-08-30T09:14:56Z</time>
      </trkpt>
      <trkpt lat="43.34231" lon="-1.52876">
        <ele>40.1</ele>
        <time>2022-08-30T09:14:57Z</time>
      </trkpt>
      <trkpt lat="43.34228" lon="-1.52879">
        <ele>40.5</ele>
        <time>2022-08-30T09:14:58Z</time>
      </trkpt>
      <trkpt lat="43.34226" lon="-1.52881">
        <ele>40.9</ele>
        <time>2022-08-30T09:14:59Z</time>
      </trkpt>
      <trkpt lat="43.34224" lon="-1.52883">
        <ele>41.2</ele>
        <time>2022-08-30T09:15:00Z</time>
      </trkpt>
      <trkpt lat="43.34221" lon="-1.52886">
        <ele>41.6</ele>
        <time>2022-08-30T09:15:01Z</time>
      </trkpt>
      <trkpt lat="43.34218" lon="-1.52888">
        <ele>41.9</ele>
        <time>2022-08-30T09:15:02Z</time>
      </trkpt>
      <trkpt lat="43.34215" lon="-1.5289">
        <ele>42.3</ele>
        <time>2022-08-30T09:15:03Z</time>
      </trkpt>
      <trkpt lat="43.34213" lon="-1.52891">
        <ele>42.6</ele>
        <time>2022-08-30T09:15:04Z</time>
      </trkpt>
      <trkpt lat="43.3421" lon="-1.52893">
        <ele>42.9</ele>
        <time>2022-08-30T09:15:05Z</time>
      </trkpt>
      <trkpt lat="43.34207" lon="-1.52895">
        <ele>43.2</ele>
        <time>2022-08-30T09:15:06Z</time>
      </trkpt>
      <trkpt lat="43.34204" lon="-1.52897">
        <ele>43.6</ele>
        <time>2022-08-30T09:15:07Z</time>
      </trkpt>
      <trkpt lat="43.342" lon="-1.52899">
        <ele>43.9</ele>
        <time>2022-08-30T09:15:08Z</time>
      </trkpt>
      <trkpt lat="43.34197" lon="-1.52902">
        <ele>44.4</ele>
        <time>2022-08-30T09:15:09Z</time>
      </trkpt>
      <trkpt lat="43.34194" lon="-1.52905">
        <ele>44.8</ele>
        <time>2022-08-30T09:15:10Z</time>
      </trkpt>
      <trkpt lat="43.3419" lon="-1.52907">
        <ele>45.3</ele>
        <time>2022-08-30T09:15:11Z</time>
      </trkpt>
      <trkpt lat="43.34187" lon="-1.5291">
        <ele>45.8</ele>
        <time>2022-08-30T09:15:12Z</time>
      </trkpt>
      <trkpt lat="43.34184" lon="-1.52912">
        <ele>46.3</ele>
        <time>2022-08-30T09:15:13Z</time>
      </trkpt>
      <trkpt lat="43.34182" lon="-1.52913">
        <ele>46.7</ele>
        <time>2022-08-30T09:15:14Z</time>
      </trkpt>
      <trkpt lat="43.34179" lon="-1.52916">
        <ele>47.2</ele>
        <time>2022-08-30T09:15:15Z</time>
      </trkpt>
      <trkpt lat="43.34177" lon="-1.52917">
        <ele>47.7</ele>
        <time>2022-08-30T09:15:16Z</time>
      </trkpt>
      <trkpt lat="43.34174" lon="-1.52919">
        <ele>48.3</ele>
        <time>2022-08-30T09:15:17Z</time>
      </trkpt>
      <trkpt lat="43.34171" lon="-1.52921">
        <ele>48.9</ele>
        <time>2022-08-30T09:15:18Z</time>
      </trkpt>
      <trkpt lat="43.34168" lon="-1.52923">
        <ele>49.6</ele>
        <time>2022-08-30T09:15:19Z</time>
      </trkpt>
      <trkpt lat="43.34167" lon="-1.52924">
        <ele>49.9</ele>
        <time>2022-08-30T09:15:20Z</time>
      </trkpt>
      <trkpt lat="43.34164" lon="-1.52926">
        <ele>50.5</ele>
        <time>2022-08-30T09:15:21Z</time>
      </trkpt>
      <trkpt lat="43.34162" lon="-1.52928">
        <ele>51</ele>
        <time>2022-08-30T09:15:22Z</time>
      </trkpt>
      <trkpt lat="43.34159" lon="-1.52929">
        <ele>51.6</ele>
        <time>2022-08-30T09:15:23Z</time>
      </trkpt>
      <trkpt lat="43.34156" lon="-1.52931">
        <ele>52.1</ele>
        <time>2022-08-30T09:15:24Z</time>
      </trkpt>
      <trkpt lat="43.34152" lon="-1.52932">
        <ele>52.8</ele>
        <time>2022-08-30T09:15:25Z</time>
      </trkpt>
      <trkpt lat="43.34149" lon="-1.52932">
        <ele>53.4</ele>
        <time>2022-08-30T09:15:26Z</time>
      </trkpt>
      <trkpt lat="43.34146" lon="-1.52932">
        <ele>54</ele>
        <time>2022-08-30T09:15:27Z</time>
      </trkpt>
      <trkpt lat="43.34143" lon="-1.52933">
        <ele>54.5</ele>
        <time>2022-08-30T09:15:28Z</time>
      </trkpt>
      <trkpt lat="43.3414" lon="-1.52934">
        <ele>54.9</ele>
        <time>2022-08-30T09:15:29Z</time>
      </trkpt>
      <trkpt lat="43.34137" lon="-1.52934">
        <ele>55.4</ele>
        <time>2022-08-30T09:15:30Z</time>
      </trkpt>
      <trkpt lat="43.34134" lon="-1.52934">
        <ele>55.8</ele>
        <time>2022-08-30T09:15:31Z</time>
      </trkpt>
      <trkpt lat="43.34131" lon="-1.52935">
        <ele>56.2</ele>
        <time>2022-08-30T09:15:32Z</time>
      </trkpt>
      <trkpt lat="43.34128" lon="-1.52935">
        <ele>56.6</ele>
        <time>2022-08-30T09:15:33Z</time>
      </trkpt>
      <trkpt lat="43.34125" lon="-1.52936">
        <ele>57</ele>
        <time>2022-08-30T09:15:34Z</time>
      </trkpt>
      <trkpt lat="43.34123" lon="-1.52937">
        <ele>57.4</ele>
        <time>2022-08-30T09:15:35Z</time>
      </trkpt>
      <trkpt lat="43.3412" lon="-1.52939">
        <ele>57.8</ele>
        <time>2022-08-30T09:15:36Z</time>
      </trkpt>
      <trkpt lat="43.34119" lon="-1.52939">
        <ele>57.9</ele>
        <time>2022-08-30T09:15:37Z</time>
      </trkpt>
      <trkpt lat="43.34116" lon="-1.52942">
        <ele>58.4</ele>
        <time>2022-08-30T09:15:38Z</time>
      </trkpt>
      <trkpt lat="43.34115" lon="-1.52943">
        <ele>58.5</ele>
        <time>2022-08-30T09:15:39Z</time>
      </trkpt>
      <trkpt lat="43.34112" lon="-1.52946">
        <ele>59</ele>
        <time>2022-08-30T09:15:40Z</time>
      </trkpt>
      <trkpt lat="43.34111" lon="-1.52947">
        <ele>59.2</ele>
        <time>2022-08-30T09:15:41Z</time>
      </trkpt>
      <trkpt lat="43.34109" lon="-1.5295">
        <ele>59.7</ele>
        <time>2022-08-30T09:15:42Z</time>
      </trkpt>
      <trkpt lat="43.34108" lon="-1.52951">
        <ele>59.9</ele>
        <time>2022-08-30T09:15:43Z</time>
      </trkpt>
      <trkpt lat="43.34106" lon="-1.52954">
        <ele>60.4</ele>
        <time>2022-08-30T09:15:44Z</time>
      </trkpt>
      <trkpt lat="43.34105" lon="-1.52955">
        <ele>60.5</ele>
        <time>2022-08-30T09:15:45Z</time>
      </trkpt>
      <trkpt lat="43.34102" lon="-1.52957">
        <ele>61</ele>
        <time>2022-08-30T09:15:46Z</time>
      </trkpt>
      <trkpt lat="43.34102" lon="-1.52958">
        <ele>61.2</ele>
        <time>2022-08-30T09:15:47Z</time>
      </trkpt>
      <trkpt lat="43.34099" lon="-1.5296">
        <ele>61.7</ele>
        <time>2022-08-30T09:15:48Z</time>
      </trkpt>
      <trkpt lat="43.34099" lon="-1.52961">
        <ele>61.9</ele>
        <time>2022-08-30T09:15:49Z</time>
      </trkpt>
      <trkpt lat="43.34096" lon="-1.52963">
        <ele>62.4</ele>
        <time>2022-08-30T09:15:50Z</time>
      </trkpt>
      <trkpt lat="43.34095" lon="-1.52964">
        <ele>62.6</ele>
        <time>2022-08-30T09:15:51Z</time>
      </trkpt>
      <trkpt lat="43.34091" lon="-1.52966">
        <ele>63.3</ele>
        <time>2022-08-30T09:15:52Z</time>
      </trkpt>
      <trkpt lat="43.3409" lon="-1.52967">
        <ele>63.5</ele>
        <time>2022-08-30T09:15:53Z</time>
      </trkpt>
      <trkpt lat="43.34087" lon="-1.52969">
        <ele>64</ele>
        <time>2022-08-30T09:15:54Z</time>
      </trkpt>
      <trkpt lat="43.34086" lon="-1.5297">
        <ele>64.2</ele>
        <time>2022-08-30T09:15:55Z</time>
      </trkpt>
      <trkpt lat="43.34083" lon="-1.52972">
        <ele>64.8</ele>
        <time>2022-08-30T09:15:56Z</time>
      </trkpt>
      <trkpt lat="43.34082" lon="-1.52973">
        <ele>65</ele>
        <time>2022-08-30T09:15:57Z</time>
      </trkpt>
      <trkpt lat="43.34079" lon="-1.52975">
        <ele>65.4</ele>
        <time>2022-08-30T09:15:58Z</time>
      </trkpt>
      <trkpt lat="43.34076" lon="-1.52978">
        <ele>66</ele>
        <time>2022-08-30T09:15:59Z</time>
      </trkpt>
      <trkpt lat="43.34075" lon="-1.52979">
        <ele>66.2</ele>
        <time>2022-08-30T09:16:00Z</time>
      </trkpt>
      <trkpt lat="43.34072" lon="-1.52982">
        <ele>66.7</ele>
        <time>2022-08-30T09:16:01Z</time>
      </trkpt>
      <trkpt lat="43.34071" lon="-1.52984">
        <ele>66.9</ele>
        <time>2022-08-30T09:16:02Z</time>
      </trkpt>
      <trkpt lat="43.3407" lon="-1.52988">
        <ele>67.4</ele>
        <time>2022-08-30T09:16:03Z</time>
      </trkpt>
      <trkpt lat="43.34069" lon="-1.5299">
        <ele>67.6</ele>
        <time>2022-08-30T09:16:04Z</time>
      </trkpt>
      <trkpt lat="43.34068" lon="-1.52995">
        <ele>68.1</ele>
        <time>2022-08-30T09:16:05Z</time>
      </trkpt>
      <trkpt lat="43.34068" lon="-1.52997">
        <ele>68.3</ele>
        <time>2022-08-30T09:16:06Z</time>
      </trkpt>
      <trkpt lat="43.34067" lon="-1.53003">
        <ele>68.8</ele>
        <time>2022-08-30T09:16:07Z</time>
      </trkpt>
      <trkpt lat="43.34067" lon="-1.53005">
        <ele>68.9</ele>
        <time>2022-08-30T09:16:08Z</time>
      </trkpt>
      <trkpt lat="43.34067" lon="-1.5301">
        <ele>69.4</ele>
        <time>2022-08-30T09:16:09Z</time>
      </trkpt>
      <trkpt lat="43.34066" lon="-1.53011">
        <ele>69.6</ele>
        <time>2022-08-30T09:16:10Z</time>
      </trkpt>
      <trkpt lat="43.34066" lon="-1.53016">
        <ele>70</ele>
        <time>2022-08-30T09:16:11Z</time>
      </trkpt>
      <trkpt lat="43.34066" lon="-1.53018">
        <ele>70.1</ele>
        <time>2022-08-30T09:16:12Z</time>
      </trkpt>
      <trkpt lat="43.34065" lon="-1.53023">
        <ele>70.6</ele>
        <time>2022-08-30T09:16:13Z</time>
      </trkpt>
      <trkpt lat="43.34065" lon="-1.53025">
        <ele>70.7</ele>
        <time>2022-08-30T09:16:14Z</time>
      </trkpt>
      <trkpt lat="43.34065" lon="-1.5303">
        <ele>71.1</ele>
        <time>2022-08-30T09:16:15Z</time>
      </trkpt>
      <trkpt lat="43.34065" lon="-1.53032">
        <ele>71.3</ele>
        <time>2022-08-30T09:16:16Z</time>
      </trkpt>
      <trkpt lat="43.34064" lon="-1.53037">
        <ele>71.7</ele>
        <time>2022-08-30T09:16:17Z</time>
      </trkpt>
      <trkpt lat="43.34064" lon="-1.53039">
        <ele>71.9</ele>
        <time>2022-08-30T09:16:18Z</time>
      </trkpt>
      <trkpt lat="43.34063" lon="-1.53043">
        <ele>72.2</ele>
        <time>2022-08-30T09:16:19Z</time>
      </trkpt>
      <trkpt lat="43.34062" lon="-1.53047">
        <ele>72.5</ele>
        <time>2022-08-30T09:16:20Z</time>
      </trkpt>
      <trkpt lat="43.3406" lon="-1.53051">
        <ele>72.9</ele>
        <time>2022-08-30T09:16:21Z</time>
      </trkpt>
      <trkpt lat="43.34058" lon="-1.53055">
        <ele>73.2</ele>
        <time>2022-08-30T09:16:22Z</time>
      </trkpt>
      <trkpt lat="43.34055" lon="-1.53058">
        <ele>73.5</ele>
        <time>2022-08-30T09:16:23Z</time>
      </trkpt>
      <trkpt lat="43.34053" lon="-1.53061">
        <ele>73.8</ele>
        <time>2022-08-30T09:16:24Z</time>
      </trkpt>
      <trkpt lat="43.3405" lon="-1.53064">
        <ele>74.1</ele>
        <time>2022-08-30T09:16:25Z</time>
      </trkpt>
      <trkpt lat="43.34047" lon="-1.53068">
        <ele>74.3</ele>
        <time>2022-08-30T09:16:26Z</time>
      </trkpt>
      <trkpt lat="43.34045" lon="-1.53072">
        <ele>74.6</ele>
        <time>2022-08-30T09:16:27Z</time>
      </trkpt>
      <trkpt lat="43.34042" lon="-1.53075">
        <ele>74.8</ele>
        <time>2022-08-30T09:16:28Z</time>
      </trkpt>
      <trkpt lat="43.3404" lon="-1.53079">
        <ele>75.1</ele>
        <time>2022-08-30T09:16:29Z</time>
      </trkpt>
      <trkpt lat="43.34037" lon="-1.53082">
        <ele>75.3</ele>
        <time>2022-08-30T09:16:30Z</time>
      </trkpt>
      <trkpt lat="43.34034" lon="-1.53086">
        <ele>75.6</ele>
        <time>2022-08-30T09:16:31Z</time>
      </trkpt>
      <trkpt lat="43.34032" lon="-1.53089">
        <ele>75.8</ele>
        <time>2022-08-30T09:16:32Z</time>
      </trkpt>
      <trkpt lat="43.3403" lon="-1.53093">
        <ele>76.1</ele>
        <time>2022-08-30T09:16:33Z</time>
      </trkpt>
      <trkpt lat="43.34028" lon="-1.53097">
        <ele>76.4</ele>
        <time>2022-08-30T09:16:34Z</time>
      </trkpt>
      <trkpt lat="43.34026" lon="-1.53101">
        <ele>76.7</ele>
        <time>2022-08-30T09:16:35Z</time>
      </trkpt>
      <trkpt lat="43.34023" lon="-1.53104">
        <ele>77</ele>
        <time>2022-08-30T09:16:36Z</time>
      </trkpt>
      <trkpt lat="43.34022" lon="-1.53108">
        <ele>77.3</ele>
        <time>2022-08-30T09:16:37Z</time>
      </trkpt>
      <trkpt lat="43.3402" lon="-1.53112">
        <ele>77.6</ele>
        <time>2022-08-30T09:16:38Z</time>
      </trkpt>
      <trkpt lat="43.34018" lon="-1.53116">
        <ele>78</ele>
        <time>2022-08-30T09:16:39Z</time>
      </trkpt>
      <trkpt lat="43.34016" lon="-1.5312">
        <ele>78.3</ele>
        <time>2022-08-30T09:16:40Z</time>
      </trkpt>
      <trkpt lat="43.34014" lon="-1.53124">
        <ele>78.7</ele>
        <time>2022-08-30T09:16:41Z</time>
      </trkpt>
      <trkpt lat="43.34012" lon="-1.53128">
        <ele>79.1</ele>
        <time>2022-08-30T09:16:42Z</time>
      </trkpt>
      <trkpt lat="43.3401" lon="-1.53131">
        <ele>79.5</ele>
        <time>2022-08-30T09:16:43Z</time>
      </trkpt>
      <trkpt lat="43.34007" lon="-1.53135">
        <ele>79.8</ele>
        <time>2022-08-30T09:16:44Z</time>
      </trkpt>
      <trkpt lat="43.34005" lon="-1.53138">
        <ele>80.2</ele>
        <time>2022-08-30T09:16:45Z</time>
      </trkpt>
      <trkpt lat="43.34003" lon="-1.53141">
        <ele>80.6</ele>
        <time>2022-08-30T09:16:46Z</time>
      </trkpt>
      <trkpt lat="43.34001" lon="-1.53145">
        <ele>81</ele>
        <time>2022-08-30T09:16:47Z</time>
      </trkpt>
      <trkpt lat="43.33998" lon="-1.53149">
        <ele>81.4</ele>
        <time>2022-08-30T09:16:48Z</time>
      </trkpt>
      <trkpt lat="43.33995" lon="-1.53152">
        <ele>81.7</ele>
        <time>2022-08-30T09:16:49Z</time>
      </trkpt>
      <trkpt lat="43.33993" lon="-1.53154">
        <ele>82</ele>
        <time>2022-08-30T09:16:50Z</time>
      </trkpt>
      <trkpt lat="43.33991" lon="-1.53157">
        <ele>82.4</ele>
        <time>2022-08-30T09:16:51Z</time>
      </trkpt>
      <trkpt lat="43.33989" lon="-1.53161">
        <ele>82.7</ele>
        <time>2022-08-30T09:16:52Z</time>
      </trkpt>
      <trkpt lat="43.33987" lon="-1.53164">
        <ele>83</ele>
        <time>2022-08-30T09:16:53Z</time>
      </trkpt>
      <trkpt lat="43.33986" lon="-1.53168">
        <ele>83.3</ele>
        <time>2022-08-30T09:16:54Z</time>
      </trkpt>
      <trkpt lat="43.33983" lon="-1.53172">
        <ele>83.6</ele>
        <time>2022-08-30T09:16:55Z</time>
      </trkpt>
      <trkpt lat="43.33981" lon="-1.53175">
        <ele>83.9</ele>
        <time>2022-08-30T09:16:56Z</time>
      </trkpt>
      <trkpt lat="43.33978" lon="-1.53178">
        <ele>84.2</ele>
        <time>2022-08-30T09:16:57Z</time>
      </trkpt>
      <trkpt lat="43.33976" lon="-1.53181">
        <ele>84.4</ele>
        <time>2022-08-30T09:16:58Z</time>
      </trkpt>
      <trkpt lat="43.33974" lon="-1.53183">
        <ele>84.7</ele>
        <time>2022-08-30T09:16:59Z</time>
      </trkpt>
      <trkpt lat="43.33971" lon="-1.53185">
        <ele>84.9</ele>
        <time>2022-08-30T09:17:00Z</time>
      </trkpt>
      <trkpt lat="43.33969" lon="-1.53188">
        <ele>85.1</ele>
        <time>2022-08-30T09:17:01Z</time>
      </trkpt>
      <trkpt lat="43.33967" lon="-1.53191">
        <ele>85.4</ele>
        <time>2022-08-30T09:17:02Z</time>
      </trkpt>
      <trkpt lat="43.33965" lon="-1.53195">
        <ele>85.6</ele>
        <time>2022-08-30T09:17:03Z</time>
      </trkpt>
      <trkpt lat="43.33963" lon="-1.53198">
        <ele>85.8</ele>
        <time>2022-08-30T09:17:04Z</time>
      </trkpt>
      <trkpt lat="43.33961" lon="-1.53201">
        <ele>86.1</ele>
        <time>2022-08-30T09:17:05Z</time>
      </trkpt>
      <trkpt lat="43.33959" lon="-1.53203">
        <ele>86.3</ele>
        <time>2022-08-30T09:17:06Z</time>
      </trkpt>
      <trkpt lat="43.33955" lon="-1.53203">
        <ele>86.9</ele>
        <time>2022-08-30T09:17:07Z</time>
      </trkpt>
      <trkpt lat="43.33953" lon="-1.53203">
        <ele>86.9</ele>
        <time>2022-08-30T09:17:08Z</time>
      </trkpt>
      <trkpt lat="43.33951" lon="-1.53199">
        <ele>86.9</ele>
        <time>2022-08-30T09:17:09Z</time>
      </trkpt>
      <trkpt lat="43.3395" lon="-1.53198">
        <ele>86.9</ele>
        <time>2022-08-30T09:17:10Z</time>
      </trkpt>
      <trkpt lat="43.3395" lon="-1.53196">
        <ele>86.9</ele>
        <time>2022-08-30T09:17:11Z</time>
      </trkpt>
      <trkpt lat="43.3395" lon="-1.53194">
        <ele>86.9</ele>
        <time>2022-08-30T09:17:12Z</time>
      </trkpt>
      <trkpt lat="43.33949" lon="-1.5319">
        <ele>86.9</ele>
        <time>2022-08-30T09:17:13Z</time>
      </trkpt>
      <trkpt lat="43.33949" lon="-1.53188">
        <ele>86.9</ele>
        <time>2022-08-30T09:17:14Z</time>
      </trkpt>
      <trkpt lat="43.33948" lon="-1.53184">
        <ele>86.8</ele>
        <time>2022-08-30T09:17:15Z</time>
      </trkpt>
      <trkpt lat="43.33947" lon="-1.53179">
        <ele>86.7</ele>
        <time>2022-08-30T09:17:16Z</time>
      </trkpt>
      <trkpt lat="43.33945" lon="-1.53174">
        <ele>86.5</ele>
        <time>2022-08-30T09:17:17Z</time>
      </trkpt>
      <trkpt lat="43.33944" lon="-1.53167">
        <ele>86.2</ele>
        <time>2022-08-30T09:17:18Z</time>
      </trkpt>
      <trkpt lat="43.33944" lon="-1.53161">
        <ele>85.8</ele>
        <time>2022-08-30T09:17:19Z</time>
      </trkpt>
      <trkpt lat="43.33944" lon="-1.53153">
        <ele>85.4</ele>
        <time>2022-08-30T09:17:20Z</time>
      </trkpt>
      <trkpt lat="43.33943" lon="-1.53146">
        <ele>85</ele>
        <time>2022-08-30T09:17:21Z</time>
      </trkpt>
      <trkpt lat="43.33942" lon="-1.53137">
        <ele>84.6</ele>
        <time>2022-08-30T09:17:22Z</time>
      </trkpt>
      <trkpt lat="43.33942" lon="-1.53128">
        <ele>84.2</ele>
        <time>2022-08-30T09:17:23Z</time>
      </trkpt>
      <trkpt lat="43.33941" lon="-1.53119">
        <ele>84</ele>
        <time>2022-08-30T09:17:24Z</time>
      </trkpt>
      <trkpt lat="43.3394" lon="-1.5311">
        <ele>83.8</ele>
        <time>2022-08-30T09:17:25Z</time>
      </trkpt>
      <trkpt lat="43.33939" lon="-1.53101">
        <ele>83.7</ele>
        <time>2022-08-30T09:17:26Z</time>
      </trkpt>
      <trkpt lat="43.33937" lon="-1.53092">
        <ele>83.6</ele>
        <time>2022-08-30T09:17:27Z</time>
      </trkpt>
      <trkpt lat="43.33936" lon="-1.53084">
        <ele>83.6</ele>
        <time>2022-08-30T09:17:28Z</time>
      </trkpt>
      <trkpt lat="43.33935" lon="-1.53076">
        <ele>83.6</ele>
        <time>2022-08-30T09:17:29Z</time>
      </trkpt>
      <trkpt lat="43.33933" lon="-1.53069">
        <ele>83.6</ele>
        <time>2022-08-30T09:17:30Z</time>
      </trkpt>
      <trkpt lat="43.33931" lon="-1.53062">
        <ele>83.7</ele>
        <time>2022-08-30T09:17:31Z</time>
      </trkpt>
      <trkpt lat="43.33929" lon="-1.53056">
        <ele>83.8</ele>
        <time>2022-08-30T09:17:32Z</time>
      </trkpt>
      <trkpt lat="43.33926" lon="-1.5305">
        <ele>83.9</ele>
        <time>2022-08-30T09:17:33Z</time>
      </trkpt>
      <trkpt lat="43.33923" lon="-1.53045">
        <ele>84</ele>
        <time>2022-08-30T09:17:34Z</time>
      </trkpt>
      <trkpt lat="43.3392" lon="-1.5304">
        <ele>84.1</ele>
        <time>2022-08-30T09:17:35Z</time>
      </trkpt>
      <trkpt lat="43.33917" lon="-1.53035">
        <ele>84.2</ele>
        <time>2022-08-30T09:17:36Z</time>
      </trkpt>
      <trkpt lat="43.33914" lon="-1.5303">
        <ele>84.2</ele>
        <time>2022-08-30T09:17:37Z</time>
      </trkpt>
      <trkpt lat="43.33911" lon="-1.53025">
        <ele>84.3</ele>
        <time>2022-08-30T09:17:38Z</time>
      </trkpt>
      <trkpt lat="43.33908" lon="-1.53021">
        <ele>84.4</ele>
        <time>2022-08-30T09:17:39Z</time>
      </trkpt>
      <trkpt lat="43.33905" lon="-1.53016">
        <ele>84.5</ele>
        <time>2022-08-30T09:17:40Z</time>
      </trkpt>
      <trkpt lat="43.33902" lon="-1.53012">
        <ele>84.6</ele>
        <time>2022-08-30T09:17:41Z</time>
      </trkpt>
      <trkpt lat="43.33899" lon="-1.53008">
        <ele>84.7</ele>
        <time>2022-08-30T09:17:42Z</time>
      </trkpt>
      <trkpt lat="43.33896" lon="-1.53003">
        <ele>84.8</ele>
        <time>2022-08-30T09:17:43Z</time>
      </trkpt>
      <trkpt lat="43.33893" lon="-1.52998">
        <ele>84.9</ele>
        <time>2022-08-30T09:17:44Z</time>
      </trkpt>
      <trkpt lat="43.33891" lon="-1.52993">
        <ele>84.9</ele>
        <time>2022-08-30T09:17:45Z</time>
      </trkpt>
      <trkpt lat="43.33888" lon="-1.52989">
        <ele>85</ele>
        <time>2022-08-30T09:17:46Z</time>
      </trkpt>
      <trkpt lat="43.33885" lon="-1.52985">
        <ele>85.1</ele>
        <time>2022-08-30T09:17:47Z</time>
      </trkpt>
      <trkpt lat="43.33883" lon="-1.5298">
        <ele>85.1</ele>
        <time>2022-08-30T09:17:48Z</time>
      </trkpt>
      <trkpt lat="43.33881" lon="-1.52975">
        <ele>85.2</ele>
        <time>2022-08-30T09:17:49Z</time>
      </trkpt>
      <trkpt lat="43.33879" lon="-1.5297">
        <ele>85.2</ele>
        <time>2022-08-30T09:17:50Z</time>
      </trkpt>
      <trkpt lat="43.33877" lon="-1.52965">
        <ele>85.3</ele>
        <time>2022-08-30T09:17:51Z</time>
      </trkpt>
      <trkpt lat="43.33875" lon="-1.52959">
        <ele>85.3</ele>
        <time>2022-08-30T09:17:52Z</time>
      </trkpt>
      <trkpt lat="43.33873" lon="-1.52954">
        <ele>85.4</ele>
        <time>2022-08-30T09:17:53Z</time>
      </trkpt>
      <trkpt lat="43.33872" lon="-1.52948">
        <ele>85.4</ele>
        <time>2022-08-30T09:17:54Z</time>
      </trkpt>
      <trkpt lat="43.3387" lon="-1.52943">
        <ele>85.4</ele>
        <time>2022-08-30T09:17:55Z</time>
      </trkpt>
      <trkpt lat="43.33869" lon="-1.52937">
        <ele>85.4</ele>
        <time>2022-08-30T09:17:56Z</time>
      </trkpt>
      <trkpt lat="43.33868" lon="-1.52932">
        <ele>85.4</ele>
        <time>2022-08-30T09:17:57Z</time>
      </trkpt>
      <trkpt lat="43.33867" lon="-1.52926">
        <ele>85.4</ele>
        <time>2022-08-30T09:17:58Z</time>
      </trkpt>
      <trkpt lat="43.33865" lon="-1.52921">
        <ele>85.4</ele>
        <time>2022-08-30T09:17:59Z</time>
      </trkpt>
      <trkpt lat="43.33863" lon="-1.52915">
        <ele>85.3</ele>
        <time>2022-08-30T09:18:00Z</time>
      </trkpt>
      <trkpt lat="43.33862" lon="-1.52909">
        <ele>85.3</ele>
        <time>2022-08-30T09:18:01Z</time>
      </trkpt>
      <trkpt lat="43.3386" lon="-1.52903">
        <ele>85.2</ele>
        <time>2022-08-30T09:18:02Z</time>
      </trkpt>
      <trkpt lat="43.33859" lon="-1.52897">
        <ele>85.2</ele>
        <time>2022-08-30T09:18:03Z</time>
      </trkpt>
      <trkpt lat="43.33857" lon="-1.52891">
        <ele>85.1</ele>
        <time>2022-08-30T09:18:04Z</time>
      </trkpt>
      <trkpt lat="43.33856" lon="-1.52885">
        <ele>85</ele>
        <time>2022-08-30T09:18:05Z</time>
      </trkpt>
      <trkpt lat="43.33854" lon="-1.5288">
        <ele>84.9</ele>
        <time>2022-08-30T09:18:06Z</time>
      </trkpt>
      <trkpt lat="43.33853" lon="-1.52874">
        <ele>84.9</ele>
        <time>2022-08-30T09:18:07Z</time>
      </trkpt>
      <trkpt lat="43.33851" lon="-1.52867">
        <ele>84.8</ele>
        <time>2022-08-30T09:18:08Z</time>
      </trkpt>
      <trkpt lat="43.3385" lon="-1.52861">
        <ele>84.8</ele>
        <time>2022-08-30T09:18:09Z</time>
      </trkpt>
      <trkpt lat="43.33848" lon="-1.52855">
        <ele>84.7</ele>
        <time>2022-08-30T09:18:10Z</time>
      </trkpt>
      <trkpt lat="43.33846" lon="-1.52848">
        <ele>84.6</ele>
        <time>2022-08-30T09:18:11Z</time>
      </trkpt>
      <trkpt lat="43.33845" lon="-1.52842">
        <ele>84.6</ele>
        <time>2022-08-30T09:18:12Z</time>
      </trkpt>
      <trkpt lat="43.33843" lon="-1.52836">
        <ele>84.5</ele>
        <time>2022-08-30T09:18:13Z</time>
      </trkpt>
      <trkpt lat="43.33841" lon="-1.5283">
        <ele>84.5</ele>
        <time>2022-08-30T09:18:14Z</time>
      </trkpt>
      <trkpt lat="43.3384" lon="-1.52824">
        <ele>84.5</ele>
        <time>2022-08-30T09:18:15Z</time>
      </trkpt>
      <trkpt lat="43.33838" lon="-1.52818">
        <ele>84.4</ele>
        <time>2022-08-30T09:18:16Z</time>
      </trkpt>
      <trkpt lat="43.33837" lon="-1.52811">
        <ele>84.4</ele>
        <time>2022-08-30T09:18:17Z</time>
      </trkpt>
      <trkpt lat="43.33835" lon="-1.52805">
        <ele>84.4</ele>
        <time>2022-08-30T09:18:18Z</time>
      </trkpt>
      <trkpt lat="43.33834" lon="-1.52798">
        <ele>84.4</ele>
        <time>2022-08-30T09:18:19Z</time>
      </trkpt>
      <trkpt lat="43.33833" lon="-1.52792">
        <ele>84.4</ele>
        <time>2022-08-30T09:18:20Z</time>
      </trkpt>
      <trkpt lat="43.33831" lon="-1.52786">
        <ele>84.4</ele>
        <time>2022-08-30T09:18:21Z</time>
      </trkpt>
      <trkpt lat="43.33829" lon="-1.52779">
        <ele>84.4</ele>
        <time>2022-08-30T09:18:22Z</time>
      </trkpt>
      <trkpt lat="43.33828" lon="-1.52773">
        <ele>84.4</ele>
        <time>2022-08-30T09:18:23Z</time>
      </trkpt>
      <trkpt lat="43.33827" lon="-1.52766">
        <ele>84.4</ele>
        <time>2022-08-30T09:18:24Z</time>
      </trkpt>
      <trkpt lat="43.33825" lon="-1.5276">
        <ele>84.4</ele>
        <time>2022-08-30T09:18:25Z</time>
      </trkpt>
      <trkpt lat="43.33824" lon="-1.52754">
        <ele>84.4</ele>
        <time>2022-08-30T09:18:26Z</time>
      </trkpt>
      <trkpt lat="43.33822" lon="-1.52748">
        <ele>84.5</ele>
        <time>2022-08-30T09:18:27Z</time>
      </trkpt>
      <trkpt lat="43.3382" lon="-1.52742">
        <ele>84.5</ele>
        <time>2022-08-30T09:18:28Z</time>
      </trkpt>
      <trkpt lat="43.33818" lon="-1.52736">
        <ele>84.5</ele>
        <time>2022-08-30T09:18:29Z</time>
      </trkpt>
      <trkpt lat="43.33817" lon="-1.5273">
        <ele>84.5</ele>
        <time>2022-08-30T09:18:30Z</time>
      </trkpt>
      <trkpt lat="43.33815" lon="-1.52723">
        <ele>84.6</ele>
        <time>2022-08-30T09:18:31Z</time>
      </trkpt>
      <trkpt lat="43.33813" lon="-1.52716">
        <ele>84.6</ele>
        <time>2022-08-30T09:18:32Z</time>
      </trkpt>
      <trkpt lat="43.33812" lon="-1.52709">
        <ele>84.6</ele>
        <time>2022-08-30T09:18:33Z</time>
      </trkpt>
      <trkpt lat="43.33811" lon="-1.52703">
        <ele>84.6</ele>
        <time>2022-08-30T09:18:34Z</time>
      </trkpt>
      <trkpt lat="43.3381" lon="-1.52696">
        <ele>84.6</ele>
        <time>2022-08-30T09:18:35Z</time>
      </trkpt>
      <trkpt lat="43.33809" lon="-1.52689">
        <ele>84.6</ele>
        <time>2022-08-30T09:18:36Z</time>
      </trkpt>
      <trkpt lat="43.33808" lon="-1.52682">
        <ele>84.5</ele>
        <time>2022-08-30T09:18:37Z</time>
      </trkpt>
      <trkpt lat="43.33807" lon="-1.52675">
        <ele>84.4</ele>
        <time>2022-08-30T09:18:38Z</time>
      </trkpt>
      <trkpt lat="43.33806" lon="-1.52668">
        <ele>84.3</ele>
        <time>2022-08-30T09:18:39Z</time>
      </trkpt>
      <trkpt lat="43.33806" lon="-1.52661">
        <ele>84.2</ele>
        <time>2022-08-30T09:18:40Z</time>
      </trkpt>
      <trkpt lat="43.33805" lon="-1.52654">
        <ele>84</ele>
        <time>2022-08-30T09:18:41Z</time>
      </trkpt>
      <trkpt lat="43.33804" lon="-1.52646">
        <ele>83.9</ele>
        <time>2022-08-30T09:18:42Z</time>
      </trkpt>
      <trkpt lat="43.33803" lon="-1.52638">
        <ele>83.7</ele>
        <time>2022-08-30T09:18:43Z</time>
      </trkpt>
      <trkpt lat="43.33803" lon="-1.52631">
        <ele>83.6</ele>
        <time>2022-08-30T09:18:44Z</time>
      </trkpt>
      <trkpt lat="43.33802" lon="-1.52623">
        <ele>83.4</ele>
        <time>2022-08-30T09:18:45Z</time>
      </trkpt>
      <trkpt lat="43.33802" lon="-1.52614">
        <ele>83.2</ele>
        <time>2022-08-30T09:18:46Z</time>
      </trkpt>
      <trkpt lat="43.33802" lon="-1.52606">
        <ele>83.1</ele>
        <time>2022-08-30T09:18:47Z</time>
      </trkpt>
      <trkpt lat="43.33802" lon="-1.52598">
        <ele>82.9</ele>
        <time>2022-08-30T09:18:48Z</time>
      </trkpt>
      <trkpt lat="43.33801" lon="-1.5259">
        <ele>82.8</ele>
        <time>2022-08-30T09:18:49Z</time>
      </trkpt>
      <trkpt lat="43.338" lon="-1.52582">
        <ele>82.7</ele>
        <time>2022-08-30T09:18:50Z</time>
      </trkpt>
      <trkpt lat="43.33799" lon="-1.52574">
        <ele>82.7</ele>
        <time>2022-08-30T09:18:51Z</time>
      </trkpt>
      <trkpt lat="43.33797" lon="-1.52566">
        <ele>82.6</ele>
        <time>2022-08-30T09:18:52Z</time>
      </trkpt>
      <trkpt lat="43.33795" lon="-1.52559">
        <ele>82.6</ele>
        <time>2022-08-30T09:18:53Z</time>
      </trkpt>
      <trkpt lat="43.33793" lon="-1.52552">
        <ele>82.5</ele>
        <time>2022-08-30T09:18:54Z</time>
      </trkpt>
      <trkpt lat="43.33791" lon="-1.52545">
        <ele>82.5</ele>
        <time>2022-08-30T09:18:55Z</time>
      </trkpt>
      <trkpt lat="43.33789" lon="-1.52538">
        <ele>82.4</ele>
        <time>2022-08-30T09:18:56Z</time>
      </trkpt>
      <trkpt lat="43.33787" lon="-1.52531">
        <ele>82.4</ele>
        <time>2022-08-30T09:18:57Z</time>
      </trkpt>
      <trkpt lat="43.33785" lon="-1.52524">
        <ele>82.3</ele>
        <time>2022-08-30T09:18:58Z</time>
      </trkpt>
      <trkpt lat="43.33783" lon="-1.52517">
        <ele>82.2</ele>
        <time>2022-08-30T09:18:59Z</time>
      </trkpt>
      <trkpt lat="43.33781" lon="-1.5251">
        <ele>82.2</ele>
        <time>2022-08-30T09:19:00Z</time>
      </trkpt>
      <trkpt lat="43.33779" lon="-1.52503">
        <ele>82.1</ele>
        <time>2022-08-30T09:19:01Z</time>
      </trkpt>
      <trkpt lat="43.33778" lon="-1.52496">
        <ele>82.1</ele>
        <time>2022-08-30T09:19:02Z</time>
      </trkpt>
      <trkpt lat="43.33776" lon="-1.52489">
        <ele>82</ele>
        <time>2022-08-30T09:19:03Z</time>
      </trkpt>
      <trkpt lat="43.33774" lon="-1.52482">
        <ele>82</ele>
        <time>2022-08-30T09:19:04Z</time>
      </trkpt>
      <trkpt lat="43.33772" lon="-1.52474">
        <ele>82</ele>
        <time>2022-08-30T09:19:05Z</time>
      </trkpt>
      <trkpt lat="43.3377" lon="-1.52467">
        <ele>82</ele>
        <time>2022-08-30T09:19:06Z</time>
      </trkpt>
      <trkpt lat="43.33768" lon="-1.52461">
        <ele>82</ele>
        <time>2022-08-30T09:19:07Z</time>
      </trkpt>
      <trkpt lat="43.33764" lon="-1.52454">
        <ele>82</ele>
        <time>2022-08-30T09:19:08Z</time>
      </trkpt>
      <trkpt lat="43.33762" lon="-1.52448">
        <ele>82.1</ele>
        <time>2022-08-30T09:19:09Z</time>
      </trkpt>
      <trkpt lat="43.33759" lon="-1.52442">
        <ele>82.1</ele>
        <time>2022-08-30T09:19:10Z</time>
      </trkpt>
      <trkpt lat="43.33756" lon="-1.52436">
        <ele>82.2</ele>
        <time>2022-08-30T09:19:11Z</time>
      </trkpt>
      <trkpt lat="43.33753" lon="-1.5243">
        <ele>82.2</ele>
        <time>2022-08-30T09:19:12Z</time>
      </trkpt>
      <trkpt lat="43.3375" lon="-1.52424">
        <ele>82.3</ele>
        <time>2022-08-30T09:19:13Z</time>
      </trkpt>
      <trkpt lat="43.33747" lon="-1.52418">
        <ele>82.4</ele>
        <time>2022-08-30T09:19:14Z</time>
      </trkpt>
      <trkpt lat="43.33744" lon="-1.52412">
        <ele>82.5</ele>
        <time>2022-08-30T09:19:15Z</time>
      </trkpt>
      <trkpt lat="43.33742" lon="-1.52406">
        <ele>82.5</ele>
        <time>2022-08-30T09:19:16Z</time>
      </trkpt>
      <trkpt lat="43.3374" lon="-1.52399">
        <ele>82.7</ele>
        <time>2022-08-30T09:19:17Z</time>
      </trkpt>
      <trkpt lat="43.33739" lon="-1.52392">
        <ele>82.8</ele>
        <time>2022-08-30T09:19:18Z</time>
      </trkpt>
      <trkpt lat="43.33738" lon="-1.52386">
        <ele>83</ele>
        <time>2022-08-30T09:19:19Z</time>
      </trkpt>
      <trkpt lat="43.33737" lon="-1.52379">
        <ele>83.1</ele>
        <time>2022-08-30T09:19:20Z</time>
      </trkpt>
      <trkpt lat="43.33737" lon="-1.52372">
        <ele>83.4</ele>
        <time>2022-08-30T09:19:21Z</time>
      </trkpt>
      <trkpt lat="43.33737" lon="-1.52365">
        <ele>83.6</ele>
        <time>2022-08-30T09:19:22Z</time>
      </trkpt>
      <trkpt lat="43.33737" lon="-1.52358">
        <ele>84</ele>
        <time>2022-08-30T09:19:23Z</time>
      </trkpt>
      <trkpt lat="43.33737" lon="-1.52351">
        <ele>84.3</ele>
        <time>2022-08-30T09:19:24Z</time>
      </trkpt>
      <trkpt lat="43.33736" lon="-1.52345">
        <ele>84.6</ele>
        <time>2022-08-30T09:19:25Z</time>
      </trkpt>
      <trkpt lat="43.33736" lon="-1.5234">
        <ele>84.9</ele>
        <time>2022-08-30T09:19:26Z</time>
      </trkpt>
      <trkpt lat="43.33734" lon="-1.52335">
        <ele>85.2</ele>
        <time>2022-08-30T09:19:27Z</time>
      </trkpt>
      <trkpt lat="43.33732" lon="-1.5233">
        <ele>85.5</ele>
        <time>2022-08-30T09:19:28Z</time>
      </trkpt>
      <trkpt lat="43.3373" lon="-1.52325">
        <ele>85.8</ele>
        <time>2022-08-30T09:19:29Z</time>
      </trkpt>
      <trkpt lat="43.33728" lon="-1.52321">
        <ele>86.1</ele>
        <time>2022-08-30T09:19:30Z</time>
      </trkpt>
      <trkpt lat="43.33725" lon="-1.52317">
        <ele>86.4</ele>
        <time>2022-08-30T09:19:31Z</time>
      </trkpt>
      <trkpt lat="43.33722" lon="-1.52313">
        <ele>86.7</ele>
        <time>2022-08-30T09:19:32Z</time>
      </trkpt>
      <trkpt lat="43.33719" lon="-1.5231">
        <ele>87</ele>
        <time>2022-08-30T09:19:33Z</time>
      </trkpt>
      <trkpt lat="43.33715" lon="-1.52307">
        <ele>87.3</ele>
        <time>2022-08-30T09:19:34Z</time>
      </trkpt>
      <trkpt lat="43.33712" lon="-1.52305">
        <ele>87.5</ele>
        <time>2022-08-30T09:19:35Z</time>
      </trkpt>
      <trkpt lat="43.33708" lon="-1.52303">
        <ele>87.8</ele>
        <time>2022-08-30T09:19:36Z</time>
      </trkpt>
      <trkpt lat="43.33704" lon="-1.523">
        <ele>88.1</ele>
        <time>2022-08-30T09:19:37Z</time>
      </trkpt>
      <trkpt lat="43.33701" lon="-1.52298">
        <ele>88.4</ele>
        <time>2022-08-30T09:19:38Z</time>
      </trkpt>
      <trkpt lat="43.33697" lon="-1.52295">
        <ele>88.7</ele>
        <time>2022-08-30T09:19:39Z</time>
      </trkpt>
      <trkpt lat="43.33694" lon="-1.52293">
        <ele>88.9</ele>
        <time>2022-08-30T09:19:40Z</time>
      </trkpt>
      <trkpt lat="43.33686" lon="-1.52288">
        <ele>89.5</ele>
        <time>2022-08-30T09:19:42Z</time>
      </trkpt>
      <trkpt lat="43.33683" lon="-1.52285">
        <ele>89.8</ele>
        <time>2022-08-30T09:19:43Z</time>
      </trkpt>
      <trkpt lat="43.3368" lon="-1.52283">
        <ele>90.1</ele>
        <time>2022-08-30T09:19:44Z</time>
      </trkpt>
      <trkpt lat="43.33677" lon="-1.52281">
        <ele>90.3</ele>
        <time>2022-08-30T09:19:45Z</time>
      </trkpt>
      <trkpt lat="43.33673" lon="-1.52278">
        <ele>90.6</ele>
        <time>2022-08-30T09:19:46Z</time>
      </trkpt>
      <trkpt lat="43.3367" lon="-1.52277">
        <ele>90.9</ele>
        <time>2022-08-30T09:19:47Z</time>
      </trkpt>
      <trkpt lat="43.33666" lon="-1.52275">
        <ele>91.2</ele>
        <time>2022-08-30T09:19:48Z</time>
      </trkpt>
      <trkpt lat="43.33663" lon="-1.52273">
        <ele>91.4</ele>
        <time>2022-08-30T09:19:49Z</time>
      </trkpt>
      <trkpt lat="43.33658" lon="-1.52272">
        <ele>91.7</ele>
        <time>2022-08-30T09:19:50Z</time>
      </trkpt>
      <trkpt lat="43.33654" lon="-1.52271">
        <ele>91.9</ele>
        <time>2022-08-30T09:19:51Z</time>
      </trkpt>
      <trkpt lat="43.3365" lon="-1.5227">
        <ele>92.1</ele>
        <time>2022-08-30T09:19:52Z</time>
      </trkpt>
      <trkpt lat="43.33646" lon="-1.5227">
        <ele>92.3</ele>
        <time>2022-08-30T09:19:53Z</time>
      </trkpt>
      <trkpt lat="43.33642" lon="-1.5227">
        <ele>92.5</ele>
        <time>2022-08-30T09:19:54Z</time>
      </trkpt>
      <trkpt lat="43.33638" lon="-1.5227">
        <ele>92.6</ele>
        <time>2022-08-30T09:19:55Z</time>
      </trkpt>
      <trkpt lat="43.33634" lon="-1.5227">
        <ele>92.8</ele>
        <time>2022-08-30T09:19:56Z</time>
      </trkpt>
      <trkpt lat="43.3363" lon="-1.52271">
        <ele>92.9</ele>
        <time>2022-08-30T09:19:57Z</time>
      </trkpt>
      <trkpt lat="43.33626" lon="-1.52271">
        <ele>93</ele>
        <time>2022-08-30T09:19:58Z</time>
      </trkpt>
      <trkpt lat="43.33622" lon="-1.52272">
        <ele>93.1</ele>
        <time>2022-08-30T09:19:59Z</time>
      </trkpt>
      <trkpt lat="43.33618" lon="-1.52272">
        <ele>93.1</ele>
        <time>2022-08-30T09:20:00Z</time>
      </trkpt>
      <trkpt lat="43.33614" lon="-1.52272">
        <ele>93.2</ele>
        <time>2022-08-30T09:20:01Z</time>
      </trkpt>
      <trkpt lat="43.3361" lon="-1.52272">
        <ele>93.3</ele>
        <time>2022-08-30T09:20:02Z</time>
      </trkpt>
      <trkpt lat="43.33606" lon="-1.52273">
        <ele>93.4</ele>
        <time>2022-08-30T09:20:03Z</time>
      </trkpt>
      <trkpt lat="43.33602" lon="-1.52273">
        <ele>93.4</ele>
        <time>2022-08-30T09:20:04Z</time>
      </trkpt>
      <trkpt lat="43.33598" lon="-1.52273">
        <ele>93.5</ele>
        <time>2022-08-30T09:20:05Z</time>
      </trkpt>
      <trkpt lat="43.33593" lon="-1.52273">
        <ele>93.6</ele>
        <time>2022-08-30T09:20:06Z</time>
      </trkpt>
      <trkpt lat="43.33589" lon="-1.52271">
        <ele>93.7</ele>
        <time>2022-08-30T09:20:07Z</time>
      </trkpt>
      <trkpt lat="43.33585" lon="-1.5227">
        <ele>93.9</ele>
        <time>2022-08-30T09:20:08Z</time>
      </trkpt>
      <trkpt lat="43.3358" lon="-1.52268">
        <ele>94</ele>
        <time>2022-08-30T09:20:09Z</time>
      </trkpt>
      <trkpt lat="43.33575" lon="-1.52266">
        <ele>94.1</ele>
        <time>2022-08-30T09:20:10Z</time>
      </trkpt>
      <trkpt lat="43.33571" lon="-1.52264">
        <ele>94.3</ele>
        <time>2022-08-30T09:20:11Z</time>
      </trkpt>
      <trkpt lat="43.33566" lon="-1.52262">
        <ele>94.4</ele>
        <time>2022-08-30T09:20:12Z</time>
      </trkpt>
      <trkpt lat="43.33562" lon="-1.52259">
        <ele>94.6</ele>
        <time>2022-08-30T09:20:13Z</time>
      </trkpt>
      <trkpt lat="43.33558" lon="-1.52256">
        <ele>94.7</ele>
        <time>2022-08-30T09:20:14Z</time>
      </trkpt>
      <trkpt lat="43.33554" lon="-1.52254">
        <ele>94.8</ele>
        <time>2022-08-30T09:20:15Z</time>
      </trkpt>
      <trkpt lat="43.3355" lon="-1.52251">
        <ele>95</ele>
        <time>2022-08-30T09:20:16Z</time>
      </trkpt>
      <trkpt lat="43.33546" lon="-1.52249">
        <ele>95.1</ele>
        <time>2022-08-30T09:20:17Z</time>
      </trkpt>
      <trkpt lat="43.33541" lon="-1.52246">
        <ele>95.2</ele>
        <time>2022-08-30T09:20:18Z</time>
      </trkpt>
      <trkpt lat="43.33537" lon="-1.52244">
        <ele>95.3</ele>
        <time>2022-08-30T09:20:19Z</time>
      </trkpt>
      <trkpt lat="43.33533" lon="-1.52241">
        <ele>95.4</ele>
        <time>2022-08-30T09:20:20Z</time>
      </trkpt>
      <trkpt lat="43.33529" lon="-1.52239">
        <ele>95.5</ele>
        <time>2022-08-30T09:20:21Z</time>
      </trkpt>
      <trkpt lat="43.33525" lon="-1.52235">
        <ele>95.7</ele>
        <time>2022-08-30T09:20:22Z</time>
      </trkpt>
      <trkpt lat="43.33521" lon="-1.52232">
        <ele>95.8</ele>
        <time>2022-08-30T09:20:23Z</time>
      </trkpt>
      <trkpt lat="43.33517" lon="-1.52228">
        <ele>96</ele>
        <time>2022-08-30T09:20:24Z</time>
      </trkpt>
      <trkpt lat="43.33514" lon="-1.52224">
        <ele>96.2</ele>
        <time>2022-08-30T09:20:25Z</time>
      </trkpt>
      <trkpt lat="43.3351" lon="-1.5222">
        <ele>96.5</ele>
        <time>2022-08-30T09:20:26Z</time>
      </trkpt>
      <trkpt lat="43.33508" lon="-1.52216">
        <ele>96.7</ele>
        <time>2022-08-30T09:20:27Z</time>
      </trkpt>
      <trkpt lat="43.33505" lon="-1.52211">
        <ele>97</ele>
        <time>2022-08-30T09:20:28Z</time>
      </trkpt>
      <trkpt lat="43.33502" lon="-1.52206">
        <ele>97.3</ele>
        <time>2022-08-30T09:20:29Z</time>
      </trkpt>
      <trkpt lat="43.335" lon="-1.52202">
        <ele>97.5</ele>
        <time>2022-08-30T09:20:30Z</time>
      </trkpt>
      <trkpt lat="43.33498" lon="-1.52198">
        <ele>97.7</ele>
        <time>2022-08-30T09:20:31Z</time>
      </trkpt>
      <trkpt lat="43.33495" lon="-1.52194">
        <ele>97.9</ele>
        <time>2022-08-30T09:20:32Z</time>
      </trkpt>
      <trkpt lat="43.33492" lon="-1.5219">
        <ele>98</ele>
        <time>2022-08-30T09:20:33Z</time>
      </trkpt>
      <trkpt lat="43.3349" lon="-1.52186">
        <ele>98.2</ele>
        <time>2022-08-30T09:20:34Z</time>
      </trkpt>
      <trkpt lat="43.33488" lon="-1.52182">
        <ele>98.3</ele>
        <time>2022-08-30T09:20:35Z</time>
      </trkpt>
      <trkpt lat="43.33485" lon="-1.52178">
        <ele>98.5</ele>
        <time>2022-08-30T09:20:36Z</time>
      </trkpt>
      <trkpt lat="43.33483" lon="-1.52173">
        <ele>98.7</ele>
        <time>2022-08-30T09:20:37Z</time>
      </trkpt>
      <trkpt lat="43.33482" lon="-1.52168">
        <ele>98.9</ele>
        <time>2022-08-30T09:20:38Z</time>
      </trkpt>
      <trkpt lat="43.3348" lon="-1.52163">
        <ele>99.1</ele>
        <time>2022-08-30T09:20:39Z</time>
      </trkpt>
      <trkpt lat="43.33479" lon="-1.52157">
        <ele>99.4</ele>
        <time>2022-08-30T09:20:40Z</time>
      </trkpt>
      <trkpt lat="43.33478" lon="-1.52153">
        <ele>99.6</ele>
        <time>2022-08-30T09:20:41Z</time>
      </trkpt>
      <trkpt lat="43.33478" lon="-1.52147">
        <ele>99.9</ele>
        <time>2022-08-30T09:20:42Z</time>
      </trkpt>
      <trkpt lat="43.33477" lon="-1.52142">
        <ele>100.3</ele>
        <time>2022-08-30T09:20:43Z</time>
      </trkpt>
      <trkpt lat="43.33477" lon="-1.52136">
        <ele>100.6</ele>
        <time>2022-08-30T09:20:44Z</time>
      </trkpt>
      <trkpt lat="43.33476" lon="-1.52131">
        <ele>101</ele>
        <time>2022-08-30T09:20:45Z</time>
      </trkpt>
      <trkpt lat="43.33475" lon="-1.52127">
        <ele>101.3</ele>
        <time>2022-08-30T09:20:46Z</time>
      </trkpt>
      <trkpt lat="43.33473" lon="-1.52122">
        <ele>101.7</ele>
        <time>2022-08-30T09:20:47Z</time>
      </trkpt>
      <trkpt lat="43.33472" lon="-1.52117">
        <ele>102</ele>
        <time>2022-08-30T09:20:48Z</time>
      </trkpt>
      <trkpt lat="43.3347" lon="-1.52113">
        <ele>102.4</ele>
        <time>2022-08-30T09:20:49Z</time>
      </trkpt>
      <trkpt lat="43.33468" lon="-1.52108">
        <ele>102.7</ele>
        <time>2022-08-30T09:20:50Z</time>
      </trkpt>
      <trkpt lat="43.33466" lon="-1.52104">
        <ele>102.9</ele>
        <time>2022-08-30T09:20:51Z</time>
      </trkpt>
      <trkpt lat="43.33464" lon="-1.521">
        <ele>103.2</ele>
        <time>2022-08-30T09:20:52Z</time>
      </trkpt>
      <trkpt lat="43.33461" lon="-1.52097">
        <ele>103.4</ele>
        <time>2022-08-30T09:20:53Z</time>
      </trkpt>
      <trkpt lat="43.33458" lon="-1.52094">
        <ele>103.6</ele>
        <time>2022-08-30T09:20:54Z</time>
      </trkpt>
      <trkpt lat="43.33455" lon="-1.52092">
        <ele>103.7</ele>
        <time>2022-08-30T09:20:55Z</time>
      </trkpt>
      <trkpt lat="43.33453" lon="-1.52089">
        <ele>103.9</ele>
        <time>2022-08-30T09:20:56Z</time>
      </trkpt>
      <trkpt lat="43.3345" lon="-1.52086">
        <ele>104</ele>
        <time>2022-08-30T09:20:57Z</time>
      </trkpt>
      <trkpt lat="43.33447" lon="-1.52083">
        <ele>104.1</ele>
        <time>2022-08-30T09:20:58Z</time>
      </trkpt>
      <trkpt lat="43.33445" lon="-1.52079">
        <ele>104.2</ele>
        <time>2022-08-30T09:20:59Z</time>
      </trkpt>
      <trkpt lat="43.33442" lon="-1.52075">
        <ele>104.2</ele>
        <time>2022-08-30T09:21:00Z</time>
      </trkpt>
      <trkpt lat="43.33439" lon="-1.52071">
        <ele>104.3</ele>
        <time>2022-08-30T09:21:01Z</time>
      </trkpt>
      <trkpt lat="43.33436" lon="-1.52067">
        <ele>104.4</ele>
        <time>2022-08-30T09:21:02Z</time>
      </trkpt>
      <trkpt lat="43.33432" lon="-1.52063">
        <ele>104.5</ele>
        <time>2022-08-30T09:21:03Z</time>
      </trkpt>
      <trkpt lat="43.33429" lon="-1.52059">
        <ele>104.5</ele>
        <time>2022-08-30T09:21:04Z</time>
      </trkpt>
      <trkpt lat="43.33426" lon="-1.52055">
        <ele>104.5</ele>
        <time>2022-08-30T09:21:05Z</time>
      </trkpt>
      <trkpt lat="43.33423" lon="-1.5205">
        <ele>104.5</ele>
        <time>2022-08-30T09:21:06Z</time>
      </trkpt>
      <trkpt lat="43.33419" lon="-1.52045">
        <ele>104.4</ele>
        <time>2022-08-30T09:21:07Z</time>
      </trkpt>
      <trkpt lat="43.33416" lon="-1.5204">
        <ele>104.4</ele>
        <time>2022-08-30T09:21:08Z</time>
      </trkpt>
      <trkpt lat="43.33413" lon="-1.52034">
        <ele>104.4</ele>
        <time>2022-08-30T09:21:09Z</time>
      </trkpt>
      <trkpt lat="43.33411" lon="-1.52029">
        <ele>104.3</ele>
        <time>2022-08-30T09:21:10Z</time>
      </trkpt>
      <trkpt lat="43.33408" lon="-1.52024">
        <ele>104.2</ele>
        <time>2022-08-30T09:21:11Z</time>
      </trkpt>
      <trkpt lat="43.33406" lon="-1.52018">
        <ele>104.2</ele>
        <time>2022-08-30T09:21:12Z</time>
      </trkpt>
      <trkpt lat="43.33404" lon="-1.52012">
        <ele>104.1</ele>
        <time>2022-08-30T09:21:13Z</time>
      </trkpt>
      <trkpt lat="43.33402" lon="-1.52007">
        <ele>104.1</ele>
        <time>2022-08-30T09:21:14Z</time>
      </trkpt>
      <trkpt lat="43.334" lon="-1.52001">
        <ele>104</ele>
        <time>2022-08-30T09:21:15Z</time>
      </trkpt>
      <trkpt lat="43.33398" lon="-1.51994">
        <ele>104</ele>
        <time>2022-08-30T09:21:16Z</time>
      </trkpt>
      <trkpt lat="43.33397" lon="-1.51987">
        <ele>103.9</ele>
        <time>2022-08-30T09:21:17Z</time>
      </trkpt>
      <trkpt lat="43.33396" lon="-1.5198">
        <ele>103.9</ele>
        <time>2022-08-30T09:21:18Z</time>
      </trkpt>
      <trkpt lat="43.33395" lon="-1.51973">
        <ele>103.9</ele>
        <time>2022-08-30T09:21:19Z</time>
      </trkpt>
      <trkpt lat="43.33395" lon="-1.51967">
        <ele>103.9</ele>
        <time>2022-08-30T09:21:20Z</time>
      </trkpt>
      <trkpt lat="43.33395" lon="-1.5196">
        <ele>103.9</ele>
        <time>2022-08-30T09:21:21Z</time>
      </trkpt>
      <trkpt lat="43.33395" lon="-1.51953">
        <ele>104</ele>
        <time>2022-08-30T09:21:22Z</time>
      </trkpt>
      <trkpt lat="43.33395" lon="-1.51947">
        <ele>104</ele>
        <time>2022-08-30T09:21:23Z</time>
      </trkpt>
      <trkpt lat="43.33395" lon="-1.51942">
        <ele>104.1</ele>
        <time>2022-08-30T09:21:24Z</time>
      </trkpt>
      <trkpt lat="43.33395" lon="-1.51936">
        <ele>104.2</ele>
        <time>2022-08-30T09:21:25Z</time>
      </trkpt>
      <trkpt lat="43.33396" lon="-1.5193">
        <ele>104.2</ele>
        <time>2022-08-30T09:21:26Z</time>
      </trkpt>
      <trkpt lat="43.33397" lon="-1.51925">
        <ele>104.3</ele>
        <time>2022-08-30T09:21:27Z</time>
      </trkpt>
      <trkpt lat="43.33397" lon="-1.51918">
        <ele>104.5</ele>
        <time>2022-08-30T09:21:28Z</time>
      </trkpt>
      <trkpt lat="43.33398" lon="-1.51912">
        <ele>104.6</ele>
        <time>2022-08-30T09:21:29Z</time>
      </trkpt>
      <trkpt lat="43.33398" lon="-1.51906">
        <ele>104.7</ele>
        <time>2022-08-30T09:21:30Z</time>
      </trkpt>
      <trkpt lat="43.33399" lon="-1.519">
        <ele>104.8</ele>
        <time>2022-08-30T09:21:31Z</time>
      </trkpt>
      <trkpt lat="43.334" lon="-1.51894">
        <ele>104.9</ele>
        <time>2022-08-30T09:21:32Z</time>
      </trkpt>
      <trkpt lat="43.334" lon="-1.51888">
        <ele>105</ele>
        <time>2022-08-30T09:21:33Z</time>
      </trkpt>
      <trkpt lat="43.334" lon="-1.51881">
        <ele>105.1</ele>
        <time>2022-08-30T09:21:34Z</time>
      </trkpt>
      <trkpt lat="43.33401" lon="-1.51876">
        <ele>105.2</ele>
        <time>2022-08-30T09:21:35Z</time>
      </trkpt>
      <trkpt lat="43.33401" lon="-1.5187">
        <ele>105.3</ele>
        <time>2022-08-30T09:21:36Z</time>
      </trkpt>
      <trkpt lat="43.33402" lon="-1.51863">
        <ele>105.4</ele>
        <time>2022-08-30T09:21:37Z</time>
      </trkpt>
      <trkpt lat="43.33402" lon="-1.51857">
        <ele>105.5</ele>
        <time>2022-08-30T09:21:38Z</time>
      </trkpt>
      <trkpt lat="43.33403" lon="-1.51851">
        <ele>105.5</ele>
        <time>2022-08-30T09:21:39Z</time>
      </trkpt>
      <trkpt lat="43.33403" lon="-1.51844">
        <ele>105.6</ele>
        <time>2022-08-30T09:21:40Z</time>
      </trkpt>
      <trkpt lat="43.33404" lon="-1.51838">
        <ele>105.7</ele>
        <time>2022-08-30T09:21:41Z</time>
      </trkpt>
      <trkpt lat="43.33404" lon="-1.51832">
        <ele>105.8</ele>
        <time>2022-08-30T09:21:42Z</time>
      </trkpt>
      <trkpt lat="43.33405" lon="-1.51826">
        <ele>105.9</ele>
        <time>2022-08-30T09:21:43Z</time>
      </trkpt>
      <trkpt lat="43.33406" lon="-1.5182">
        <ele>105.9</ele>
        <time>2022-08-30T09:21:44Z</time>
      </trkpt>
      <trkpt lat="43.33407" lon="-1.51814">
        <ele>105.9</ele>
        <time>2022-08-30T09:21:45Z</time>
      </trkpt>
      <trkpt lat="43.33408" lon="-1.51809">
        <ele>105.9</ele>
        <time>2022-08-30T09:21:46Z</time>
      </trkpt>
      <trkpt lat="43.33409" lon="-1.51804">
        <ele>105.8</ele>
        <time>2022-08-30T09:21:47Z</time>
      </trkpt>
      <trkpt lat="43.33411" lon="-1.51799">
        <ele>105.7</ele>
        <time>2022-08-30T09:21:48Z</time>
      </trkpt>
      <trkpt lat="43.33413" lon="-1.51794">
        <ele>105.6</ele>
        <time>2022-08-30T09:21:49Z</time>
      </trkpt>
      <trkpt lat="43.33415" lon="-1.51789">
        <ele>105.4</ele>
        <time>2022-08-30T09:21:50Z</time>
      </trkpt>
      <trkpt lat="43.33417" lon="-1.51784">
        <ele>105.2</ele>
        <time>2022-08-30T09:21:51Z</time>
      </trkpt>
      <trkpt lat="43.3342" lon="-1.51779">
        <ele>105</ele>
        <time>2022-08-30T09:21:52Z</time>
      </trkpt>
      <trkpt lat="43.33422" lon="-1.51773">
        <ele>104.7</ele>
        <time>2022-08-30T09:21:53Z</time>
      </trkpt>
      <trkpt lat="43.33425" lon="-1.51767">
        <ele>104.4</ele>
        <time>2022-08-30T09:21:54Z</time>
      </trkpt>
      <trkpt lat="43.33429" lon="-1.51761">
        <ele>104</ele>
        <time>2022-08-30T09:21:55Z</time>
      </trkpt>
      <trkpt lat="43.33432" lon="-1.51754">
        <ele>103.7</ele>
        <time>2022-08-30T09:21:56Z</time>
      </trkpt>
      <trkpt lat="43.33435" lon="-1.51748">
        <ele>103.5</ele>
        <time>2022-08-30T09:21:57Z</time>
      </trkpt>
      <trkpt lat="43.33439" lon="-1.51742">
        <ele>103.4</ele>
        <time>2022-08-30T09:21:58Z</time>
      </trkpt>
      <trkpt lat="43.33441" lon="-1.51736">
        <ele>103.2</ele>
        <time>2022-08-30T09:21:59Z</time>
      </trkpt>
      <trkpt lat="43.33442" lon="-1.51729">
        <ele>103.1</ele>
        <time>2022-08-30T09:22:00Z</time>
      </trkpt>
      <trkpt lat="43.33441" lon="-1.51723">
        <ele>103</ele>
        <time>2022-08-30T09:22:01Z</time>
      </trkpt>
      <trkpt lat="43.33437" lon="-1.51719">
        <ele>102.9</ele>
        <time>2022-08-30T09:22:02Z</time>
      </trkpt>
      <trkpt lat="43.33433" lon="-1.51716">
        <ele>102.8</ele>
        <time>2022-08-30T09:22:03Z</time>
      </trkpt>
      <trkpt lat="43.33429" lon="-1.51714">
        <ele>102.8</ele>
        <time>2022-08-30T09:22:04Z</time>
      </trkpt>
      <trkpt lat="43.33423" lon="-1.51713">
        <ele>102.7</ele>
        <time>2022-08-30T09:22:05Z</time>
      </trkpt>
      <trkpt lat="43.33418" lon="-1.51711">
        <ele>102.6</ele>
        <time>2022-08-30T09:22:06Z</time>
      </trkpt>
      <trkpt lat="43.33413" lon="-1.51709">
        <ele>102.5</ele>
        <time>2022-08-30T09:22:07Z</time>
      </trkpt>
      <trkpt lat="43.33409" lon="-1.51706">
        <ele>102.5</ele>
        <time>2022-08-30T09:22:08Z</time>
      </trkpt>
      <trkpt lat="43.33404" lon="-1.51703">
        <ele>102.4</ele>
        <time>2022-08-30T09:22:09Z</time>
      </trkpt>
      <trkpt lat="43.334" lon="-1.517">
        <ele>102.4</ele>
        <time>2022-08-30T09:22:10Z</time>
      </trkpt>
      <trkpt lat="43.33396" lon="-1.51695">
        <ele>102.3</ele>
        <time>2022-08-30T09:22:11Z</time>
      </trkpt>
      <trkpt lat="43.33393" lon="-1.51689">
        <ele>102.3</ele>
        <time>2022-08-30T09:22:12Z</time>
      </trkpt>
      <trkpt lat="43.33391" lon="-1.51682">
        <ele>102.3</ele>
        <time>2022-08-30T09:22:13Z</time>
      </trkpt>
      <trkpt lat="43.3339" lon="-1.51676">
        <ele>102.3</ele>
        <time>2022-08-30T09:22:14Z</time>
      </trkpt>
      <trkpt lat="43.3339" lon="-1.51669">
        <ele>102.3</ele>
        <time>2022-08-30T09:22:15Z</time>
      </trkpt>
      <trkpt lat="43.33389" lon="-1.51662">
        <ele>102.3</ele>
        <time>2022-08-30T09:22:16Z</time>
      </trkpt>
      <trkpt lat="43.33387" lon="-1.51656">
        <ele>102.3</ele>
        <time>2022-08-30T09:22:17Z</time>
      </trkpt>
      <trkpt lat="43.33386" lon="-1.51649">
        <ele>102.4</ele>
        <time>2022-08-30T09:22:18Z</time>
      </trkpt>
      <trkpt lat="43.33385" lon="-1.51642">
        <ele>102.4</ele>
        <time>2022-08-30T09:22:19Z</time>
      </trkpt>
      <trkpt lat="43.33384" lon="-1.51635">
        <ele>102.5</ele>
        <time>2022-08-30T09:22:20Z</time>
      </trkpt>
      <trkpt lat="43.33383" lon="-1.5163">
        <ele>102.5</ele>
        <time>2022-08-30T09:22:21Z</time>
      </trkpt>
      <trkpt lat="43.33383" lon="-1.51624">
        <ele>102.6</ele>
        <time>2022-08-30T09:22:22Z</time>
      </trkpt>
      <trkpt lat="43.33382" lon="-1.51618">
        <ele>102.7</ele>
        <time>2022-08-30T09:22:23Z</time>
      </trkpt>
      <trkpt lat="43.33381" lon="-1.51612">
        <ele>102.7</ele>
        <time>2022-08-30T09:22:24Z</time>
      </trkpt>
      <trkpt lat="43.33381" lon="-1.51606">
        <ele>102.8</ele>
        <time>2022-08-30T09:22:25Z</time>
      </trkpt>
      <trkpt lat="43.33381" lon="-1.51601">
        <ele>102.9</ele>
        <time>2022-08-30T09:22:26Z</time>
      </trkpt>
      <trkpt lat="43.33381" lon="-1.51596">
        <ele>103</ele>
        <time>2022-08-30T09:22:27Z</time>
      </trkpt>
      <trkpt lat="43.33381" lon="-1.5159">
        <ele>103.1</ele>
        <time>2022-08-30T09:22:28Z</time>
      </trkpt>
      <trkpt lat="43.33381" lon="-1.51585">
        <ele>103.3</ele>
        <time>2022-08-30T09:22:29Z</time>
      </trkpt>
      <trkpt lat="43.33379" lon="-1.51579">
        <ele>103.4</ele>
        <time>2022-08-30T09:22:30Z</time>
      </trkpt>
      <trkpt lat="43.33378" lon="-1.51574">
        <ele>103.6</ele>
        <time>2022-08-30T09:22:31Z</time>
      </trkpt>
      <trkpt lat="43.33376" lon="-1.51568">
        <ele>103.8</ele>
        <time>2022-08-30T09:22:32Z</time>
      </trkpt>
      <trkpt lat="43.33374" lon="-1.51563">
        <ele>104</ele>
        <time>2022-08-30T09:22:33Z</time>
      </trkpt>
      <trkpt lat="43.33373" lon="-1.51557">
        <ele>104.2</ele>
        <time>2022-08-30T09:22:34Z</time>
      </trkpt>
      <trkpt lat="43.33371" lon="-1.51551">
        <ele>104.5</ele>
        <time>2022-08-30T09:22:35Z</time>
      </trkpt>
      <trkpt lat="43.3337" lon="-1.51545">
        <ele>104.7</ele>
        <time>2022-08-30T09:22:36Z</time>
      </trkpt>
      <trkpt lat="43.33368" lon="-1.5154">
        <ele>105</ele>
        <time>2022-08-30T09:22:37Z</time>
      </trkpt>
      <trkpt lat="43.33367" lon="-1.51534">
        <ele>105.3</ele>
        <time>2022-08-30T09:22:38Z</time>
      </trkpt>
      <trkpt lat="43.33366" lon="-1.51529">
        <ele>105.6</ele>
        <time>2022-08-30T09:22:39Z</time>
      </trkpt>
      <trkpt lat="43.33364" lon="-1.51525">
        <ele>105.9</ele>
        <time>2022-08-30T09:22:40Z</time>
      </trkpt>
      <trkpt lat="43.33363" lon="-1.5152">
        <ele>106.2</ele>
        <time>2022-08-30T09:22:41Z</time>
      </trkpt>
      <trkpt lat="43.33361" lon="-1.51515">
        <ele>106.6</ele>
        <time>2022-08-30T09:22:42Z</time>
      </trkpt>
      <trkpt lat="43.33358" lon="-1.51511">
        <ele>107</ele>
        <time>2022-08-30T09:22:43Z</time>
      </trkpt>
      <trkpt lat="43.33356" lon="-1.51506">
        <ele>107.4</ele>
        <time>2022-08-30T09:22:44Z</time>
      </trkpt>
      <trkpt lat="43.33355" lon="-1.51502">
        <ele>107.8</ele>
        <time>2022-08-30T09:22:45Z</time>
      </trkpt>
      <trkpt lat="43.33353" lon="-1.51497">
        <ele>108.2</ele>
        <time>2022-08-30T09:22:46Z</time>
      </trkpt>
      <trkpt lat="43.3335" lon="-1.51492">
        <ele>108.6</ele>
        <time>2022-08-30T09:22:47Z</time>
      </trkpt>
      <trkpt lat="43.33348" lon="-1.51488">
        <ele>109.1</ele>
        <time>2022-08-30T09:22:48Z</time>
      </trkpt>
      <trkpt lat="43.33346" lon="-1.51483">
        <ele>109.5</ele>
        <time>2022-08-30T09:22:49Z</time>
      </trkpt>
      <trkpt lat="43.33345" lon="-1.51479">
        <ele>109.9</ele>
        <time>2022-08-30T09:22:50Z</time>
      </trkpt>
      <trkpt lat="43.33343" lon="-1.51474">
        <ele>110.3</ele>
        <time>2022-08-30T09:22:51Z</time>
      </trkpt>
      <trkpt lat="43.33341" lon="-1.51468">
        <ele>110.7</ele>
        <time>2022-08-30T09:22:52Z</time>
      </trkpt>
      <trkpt lat="43.33339" lon="-1.51463">
        <ele>111.1</ele>
        <time>2022-08-30T09:22:53Z</time>
      </trkpt>
      <trkpt lat="43.33338" lon="-1.51458">
        <ele>111.5</ele>
        <time>2022-08-30T09:22:54Z</time>
      </trkpt>
      <trkpt lat="43.33336" lon="-1.51454">
        <ele>111.8</ele>
        <time>2022-08-30T09:22:55Z</time>
      </trkpt>
      <trkpt lat="43.33335" lon="-1.51449">
        <ele>112.2</ele>
        <time>2022-08-30T09:22:56Z</time>
      </trkpt>
      <trkpt lat="43.33333" lon="-1.51444">
        <ele>112.5</ele>
        <time>2022-08-30T09:22:57Z</time>
      </trkpt>
      <trkpt lat="43.33332" lon="-1.51438">
        <ele>112.8</ele>
        <time>2022-08-30T09:22:58Z</time>
      </trkpt>
      <trkpt lat="43.33331" lon="-1.51433">
        <ele>113.1</ele>
        <time>2022-08-30T09:22:59Z</time>
      </trkpt>
      <trkpt lat="43.3333" lon="-1.51427">
        <ele>113.3</ele>
        <time>2022-08-30T09:23:00Z</time>
      </trkpt>
      <trkpt lat="43.33329" lon="-1.51422">
        <ele>113.5</ele>
        <time>2022-08-30T09:23:01Z</time>
      </trkpt>
      <trkpt lat="43.33329" lon="-1.51416">
        <ele>113.7</ele>
        <time>2022-08-30T09:23:02Z</time>
      </trkpt>
      <trkpt lat="43.33328" lon="-1.5141">
        <ele>113.8</ele>
        <time>2022-08-30T09:23:03Z</time>
      </trkpt>
      <trkpt lat="43.33328" lon="-1.51404">
        <ele>113.9</ele>
        <time>2022-08-30T09:23:04Z</time>
      </trkpt>
      <trkpt lat="43.33328" lon="-1.51397">
        <ele>114.1</ele>
        <time>2022-08-30T09:23:05Z</time>
      </trkpt>
      <trkpt lat="43.33328" lon="-1.51391">
        <ele>114.2</ele>
        <time>2022-08-30T09:23:06Z</time>
      </trkpt>
      <trkpt lat="43.33328" lon="-1.51385">
        <ele>114.2</ele>
        <time>2022-08-30T09:23:07Z</time>
      </trkpt>
      <trkpt lat="43.33327" lon="-1.51379">
        <ele>114.3</ele>
        <time>2022-08-30T09:23:08Z</time>
      </trkpt>
      <trkpt lat="43.33327" lon="-1.51373">
        <ele>114.2</ele>
        <time>2022-08-30T09:23:09Z</time>
      </trkpt>
      <trkpt lat="43.33327" lon="-1.51366">
        <ele>114.2</ele>
        <time>2022-08-30T09:23:10Z</time>
      </trkpt>
      <trkpt lat="43.33327" lon="-1.51359">
        <ele>114.2</ele>
        <time>2022-08-30T09:23:11Z</time>
      </trkpt>
      <trkpt lat="43.33326" lon="-1.51353">
        <ele>114.1</ele>
        <time>2022-08-30T09:23:12Z</time>
      </trkpt>
      <trkpt lat="43.33325" lon="-1.51346">
        <ele>114.1</ele>
        <time>2022-08-30T09:23:13Z</time>
      </trkpt>
      <trkpt lat="43.33325" lon="-1.51339">
        <ele>114</ele>
        <time>2022-08-30T09:23:14Z</time>
      </trkpt>
      <trkpt lat="43.33324" lon="-1.51332">
        <ele>113.9</ele>
        <time>2022-08-30T09:23:15Z</time>
      </trkpt>
      <trkpt lat="43.33323" lon="-1.51325">
        <ele>113.7</ele>
        <time>2022-08-30T09:23:16Z</time>
      </trkpt>
      <trkpt lat="43.33322" lon="-1.51318">
        <ele>113.5</ele>
        <time>2022-08-30T09:23:17Z</time>
      </trkpt>
      <trkpt lat="43.33321" lon="-1.51311">
        <ele>113.3</ele>
        <time>2022-08-30T09:23:18Z</time>
      </trkpt>
      <trkpt lat="43.3332" lon="-1.51304">
        <ele>113.2</ele>
        <time>2022-08-30T09:23:19Z</time>
      </trkpt>
      <trkpt lat="43.33319" lon="-1.51296">
        <ele>113</ele>
        <time>2022-08-30T09:23:20Z</time>
      </trkpt>
      <trkpt lat="43.33318" lon="-1.51289">
        <ele>112.9</ele>
        <time>2022-08-30T09:23:21Z</time>
      </trkpt>
      <trkpt lat="43.33317" lon="-1.51282">
        <ele>112.7</ele>
        <time>2022-08-30T09:23:22Z</time>
      </trkpt>
      <trkpt lat="43.33315" lon="-1.51275">
        <ele>112.6</ele>
        <time>2022-08-30T09:23:23Z</time>
      </trkpt>
      <trkpt lat="43.33313" lon="-1.51268">
        <ele>112.4</ele>
        <time>2022-08-30T09:23:24Z</time>
      </trkpt>
      <trkpt lat="43.33311" lon="-1.51261">
        <ele>112.3</ele>
        <time>2022-08-30T09:23:25Z</time>
      </trkpt>
      <trkpt lat="43.33309" lon="-1.51255">
        <ele>112.1</ele>
        <time>2022-08-30T09:23:26Z</time>
      </trkpt>
      <trkpt lat="43.33306" lon="-1.51249">
        <ele>111.9</ele>
        <time>2022-08-30T09:23:27Z</time>
      </trkpt>
      <trkpt lat="43.33303" lon="-1.51243">
        <ele>111.7</ele>
        <time>2022-08-30T09:23:28Z</time>
      </trkpt>
      <trkpt lat="43.333" lon="-1.51237">
        <ele>111.5</ele>
        <time>2022-08-30T09:23:29Z</time>
      </trkpt>
      <trkpt lat="43.33297" lon="-1.51231">
        <ele>111.3</ele>
        <time>2022-08-30T09:23:30Z</time>
      </trkpt>
      <trkpt lat="43.33293" lon="-1.51226">
        <ele>111.1</ele>
        <time>2022-08-30T09:23:31Z</time>
      </trkpt>
      <trkpt lat="43.33288" lon="-1.5122">
        <ele>110.8</ele>
        <time>2022-08-30T09:23:32Z</time>
      </trkpt>
      <trkpt lat="43.33284" lon="-1.51215">
        <ele>110.6</ele>
        <time>2022-08-30T09:23:33Z</time>
      </trkpt>
      <trkpt lat="43.33279" lon="-1.5121">
        <ele>110.3</ele>
        <time>2022-08-30T09:23:34Z</time>
      </trkpt>
      <trkpt lat="43.33274" lon="-1.51205">
        <ele>110</ele>
        <time>2022-08-30T09:23:35Z</time>
      </trkpt>
      <trkpt lat="43.33269" lon="-1.512">
        <ele>109.8</ele>
        <time>2022-08-30T09:23:36Z</time>
      </trkpt>
      <trkpt lat="43.33264" lon="-1.51196">
        <ele>109.5</ele>
        <time>2022-08-30T09:23:37Z</time>
      </trkpt>
      <trkpt lat="43.33259" lon="-1.51191">
        <ele>109.2</ele>
        <time>2022-08-30T09:23:38Z</time>
      </trkpt>
      <trkpt lat="43.33253" lon="-1.51187">
        <ele>108.8</ele>
        <time>2022-08-30T09:23:39Z</time>
      </trkpt>
      <trkpt lat="43.33248" lon="-1.51182">
        <ele>108.5</ele>
        <time>2022-08-30T09:23:40Z</time>
      </trkpt>
      <trkpt lat="43.33242" lon="-1.51177">
        <ele>108.1</ele>
        <time>2022-08-30T09:23:41Z</time>
      </trkpt>
      <trkpt lat="43.33236" lon="-1.51172">
        <ele>107.7</ele>
        <time>2022-08-30T09:23:42Z</time>
      </trkpt>
      <trkpt lat="43.3323" lon="-1.51166">
        <ele>107.3</ele>
        <time>2022-08-30T09:23:43Z</time>
      </trkpt>
      <trkpt lat="43.33224" lon="-1.51161">
        <ele>106.9</ele>
        <time>2022-08-30T09:23:44Z</time>
      </trkpt>
      <trkpt lat="43.33219" lon="-1.51156">
        <ele>106.5</ele>
        <time>2022-08-30T09:23:45Z</time>
      </trkpt>
      <trkpt lat="43.33213" lon="-1.5115">
        <ele>106.1</ele>
        <time>2022-08-30T09:23:46Z</time>
      </trkpt>
      <trkpt lat="43.33207" lon="-1.51144">
        <ele>105.7</ele>
        <time>2022-08-30T09:23:47Z</time>
      </trkpt>
      <trkpt lat="43.33202" lon="-1.51138">
        <ele>105.3</ele>
        <time>2022-08-30T09:23:48Z</time>
      </trkpt>
      <trkpt lat="43.33195" lon="-1.51133">
        <ele>104.9</ele>
        <time>2022-08-30T09:23:49Z</time>
      </trkpt>
      <trkpt lat="43.33189" lon="-1.51127">
        <ele>104.5</ele>
        <time>2022-08-30T09:23:50Z</time>
      </trkpt>
      <trkpt lat="43.33182" lon="-1.51121">
        <ele>104.2</ele>
        <time>2022-08-30T09:23:51Z</time>
      </trkpt>
      <trkpt lat="43.33176" lon="-1.51116">
        <ele>103.9</ele>
        <time>2022-08-30T09:23:52Z</time>
      </trkpt>
      <trkpt lat="43.3317" lon="-1.5111">
        <ele>103.7</ele>
        <time>2022-08-30T09:23:53Z</time>
      </trkpt>
      <trkpt lat="43.33164" lon="-1.51104">
        <ele>103.6</ele>
        <time>2022-08-30T09:23:54Z</time>
      </trkpt>
      <trkpt lat="43.33158" lon="-1.51099">
        <ele>103.6</ele>
        <time>2022-08-30T09:23:55Z</time>
      </trkpt>
      <trkpt lat="43.33153" lon="-1.51094">
        <ele>103.6</ele>
        <time>2022-08-30T09:23:56Z</time>
      </trkpt>
      <trkpt lat="43.33147" lon="-1.51089">
        <ele>103.7</ele>
        <time>2022-08-30T09:23:57Z</time>
      </trkpt>
      <trkpt lat="43.33142" lon="-1.51085">
        <ele>103.8</ele>
        <time>2022-08-30T09:23:58Z</time>
      </trkpt>
      <trkpt lat="43.33138" lon="-1.51081">
        <ele>103.9</ele>
        <time>2022-08-30T09:23:59Z</time>
      </trkpt>
      <trkpt lat="43.33134" lon="-1.51077">
        <ele>104</ele>
        <time>2022-08-30T09:24:00Z</time>
      </trkpt>
      <trkpt lat="43.33131" lon="-1.51073">
        <ele>104.1</ele>
        <time>2022-08-30T09:24:01Z</time>
      </trkpt>
      <trkpt lat="43.33128" lon="-1.5107">
        <ele>104.3</ele>
        <time>2022-08-30T09:24:02Z</time>
      </trkpt>
      <trkpt lat="43.33124" lon="-1.51067">
        <ele>104.4</ele>
        <time>2022-08-30T09:24:03Z</time>
      </trkpt>
      <trkpt lat="43.33121" lon="-1.51065">
        <ele>104.6</ele>
        <time>2022-08-30T09:24:04Z</time>
      </trkpt>
      <trkpt lat="43.33117" lon="-1.51063">
        <ele>104.8</ele>
        <time>2022-08-30T09:24:05Z</time>
      </trkpt>
      <trkpt lat="43.33113" lon="-1.5106">
        <ele>105</ele>
        <time>2022-08-30T09:24:06Z</time>
      </trkpt>
      <trkpt lat="43.3311" lon="-1.51057">
        <ele>105.2</ele>
        <time>2022-08-30T09:24:07Z</time>
      </trkpt>
      <trkpt lat="43.33106" lon="-1.51053">
        <ele>105.4</ele>
        <time>2022-08-30T09:24:08Z</time>
      </trkpt>
      <trkpt lat="43.33103" lon="-1.5105">
        <ele>105.5</ele>
        <time>2022-08-30T09:24:09Z</time>
      </trkpt>
      <trkpt lat="43.331" lon="-1.51047">
        <ele>105.7</ele>
        <time>2022-08-30T09:24:10Z</time>
      </trkpt>
      <trkpt lat="43.33096" lon="-1.51044">
        <ele>105.9</ele>
        <time>2022-08-30T09:24:11Z</time>
      </trkpt>
      <trkpt lat="43.33093" lon="-1.5104">
        <ele>106</ele>
        <time>2022-08-30T09:24:12Z</time>
      </trkpt>
      <trkpt lat="43.33089" lon="-1.51037">
        <ele>106.2</ele>
        <time>2022-08-30T09:24:13Z</time>
      </trkpt>
      <trkpt lat="43.33086" lon="-1.51033">
        <ele>106.4</ele>
        <time>2022-08-30T09:24:14Z</time>
      </trkpt>
      <trkpt lat="43.33083" lon="-1.5103">
        <ele>106.6</ele>
        <time>2022-08-30T09:24:15Z</time>
      </trkpt>
      <trkpt lat="43.3308" lon="-1.51027">
        <ele>106.8</ele>
        <time>2022-08-30T09:24:16Z</time>
      </trkpt>
      <trkpt lat="43.33077" lon="-1.51023">
        <ele>107</ele>
        <time>2022-08-30T09:24:17Z</time>
      </trkpt>
      <trkpt lat="43.33073" lon="-1.5102">
        <ele>107.2</ele>
        <time>2022-08-30T09:24:18Z</time>
      </trkpt>
      <trkpt lat="43.33069" lon="-1.51016">
        <ele>107.4</ele>
        <time>2022-08-30T09:24:19Z</time>
      </trkpt>
      <trkpt lat="43.33066" lon="-1.51013">
        <ele>107.7</ele>
        <time>2022-08-30T09:24:20Z</time>
      </trkpt>
      <trkpt lat="43.33063" lon="-1.51009">
        <ele>107.9</ele>
        <time>2022-08-30T09:24:21Z</time>
      </trkpt>
      <trkpt lat="43.3306" lon="-1.51005">
        <ele>108.1</ele>
        <time>2022-08-30T09:24:22Z</time>
      </trkpt>
      <trkpt lat="43.33058" lon="-1.51003">
        <ele>108.3</ele>
        <time>2022-08-30T09:24:23Z</time>
      </trkpt>
      <trkpt lat="43.33056" lon="-1.51">
        <ele>108.5</ele>
        <time>2022-08-30T09:24:24Z</time>
      </trkpt>
      <trkpt lat="43.33053" lon="-1.50997">
        <ele>108.7</ele>
        <time>2022-08-30T09:24:25Z</time>
      </trkpt>
      <trkpt lat="43.3305" lon="-1.50995">
        <ele>108.9</ele>
        <time>2022-08-30T09:24:26Z</time>
      </trkpt>
      <trkpt lat="43.33047" lon="-1.50992">
        <ele>109</ele>
        <time>2022-08-30T09:24:27Z</time>
      </trkpt>
      <trkpt lat="43.33045" lon="-1.5099">
        <ele>109.2</ele>
        <time>2022-08-30T09:24:28Z</time>
      </trkpt>
      <trkpt lat="43.33042" lon="-1.50987">
        <ele>109.4</ele>
        <time>2022-08-30T09:24:29Z</time>
      </trkpt>
      <trkpt lat="43.3304" lon="-1.50984">
        <ele>109.5</ele>
        <time>2022-08-30T09:24:30Z</time>
      </trkpt>
      <trkpt lat="43.33037" lon="-1.50982">
        <ele>109.6</ele>
        <time>2022-08-30T09:24:31Z</time>
      </trkpt>
      <trkpt lat="43.33034" lon="-1.5098">
        <ele>109.8</ele>
        <time>2022-08-30T09:24:32Z</time>
      </trkpt>
      <trkpt lat="43.3303" lon="-1.50979">
        <ele>110.1</ele>
        <time>2022-08-30T09:24:33Z</time>
      </trkpt>
      <trkpt lat="43.33027" lon="-1.50979">
        <ele>110.1</ele>
        <time>2022-08-30T09:24:34Z</time>
      </trkpt>
      <trkpt lat="43.33024" lon="-1.50979">
        <ele>110.2</ele>
        <time>2022-08-30T09:24:35Z</time>
      </trkpt>
      <trkpt lat="43.3302" lon="-1.5098">
        <ele>110.3</ele>
        <time>2022-08-30T09:24:36Z</time>
      </trkpt>
      <trkpt lat="43.33017" lon="-1.5098">
        <ele>110.3</ele>
        <time>2022-08-30T09:24:37Z</time>
      </trkpt>
      <trkpt lat="43.33014" lon="-1.50981">
        <ele>110.4</ele>
        <time>2022-08-30T09:24:38Z</time>
      </trkpt>
      <trkpt lat="43.33011" lon="-1.50981">
        <ele>110.5</ele>
        <time>2022-08-30T09:24:39Z</time>
      </trkpt>
      <trkpt lat="43.33008" lon="-1.50982">
        <ele>110.7</ele>
        <time>2022-08-30T09:24:40Z</time>
      </trkpt>
      <trkpt lat="43.33004" lon="-1.50983">
        <ele>111</ele>
        <time>2022-08-30T09:24:41Z</time>
      </trkpt>
      <trkpt lat="43.33003" lon="-1.50983">
        <ele>111.2</ele>
        <time>2022-08-30T09:24:42Z</time>
      </trkpt>
      <trkpt lat="43.33" lon="-1.50985">
        <ele>111.4</ele>
        <time>2022-08-30T09:24:43Z</time>
      </trkpt>
      <trkpt lat="43.32998" lon="-1.50986">
        <ele>111.7</ele>
        <time>2022-08-30T09:24:44Z</time>
      </trkpt>
      <trkpt lat="43.32994" lon="-1.50987">
        <ele>112.1</ele>
        <time>2022-08-30T09:24:45Z</time>
      </trkpt>
      <trkpt lat="43.32993" lon="-1.50988">
        <ele>112.2</ele>
        <time>2022-08-30T09:24:46Z</time>
      </trkpt>
      <trkpt lat="43.32989" lon="-1.5099">
        <ele>112.6</ele>
        <time>2022-08-30T09:24:47Z</time>
      </trkpt>
      <trkpt lat="43.32988" lon="-1.5099">
        <ele>112.8</ele>
        <time>2022-08-30T09:24:48Z</time>
      </trkpt>
      <trkpt lat="43.32985" lon="-1.50991">
        <ele>113.2</ele>
        <time>2022-08-30T09:24:49Z</time>
      </trkpt>
      <trkpt lat="43.32984" lon="-1.50992">
        <ele>113.4</ele>
        <time>2022-08-30T09:24:50Z</time>
      </trkpt>
      <trkpt lat="43.3298" lon="-1.5099">
        <ele>113.8</ele>
        <time>2022-08-30T09:24:51Z</time>
      </trkpt>
      <trkpt lat="43.32979" lon="-1.5099">
        <ele>114</ele>
        <time>2022-08-30T09:24:52Z</time>
      </trkpt>
      <trkpt lat="43.32977" lon="-1.50987">
        <ele>114.4</ele>
        <time>2022-08-30T09:24:53Z</time>
      </trkpt>
      <trkpt lat="43.32975" lon="-1.50984">
        <ele>114.8</ele>
        <time>2022-08-30T09:24:54Z</time>
      </trkpt>
      <trkpt lat="43.32974" lon="-1.50981">
        <ele>115.2</ele>
        <time>2022-08-30T09:24:55Z</time>
      </trkpt>
      <trkpt lat="43.32973" lon="-1.50979">
        <ele>115.4</ele>
        <time>2022-08-30T09:24:56Z</time>
      </trkpt>
      <trkpt lat="43.32973" lon="-1.50976">
        <ele>115.8</ele>
        <time>2022-08-30T09:24:57Z</time>
      </trkpt>
      <trkpt lat="43.32972" lon="-1.50974">
        <ele>115.9</ele>
        <time>2022-08-30T09:24:58Z</time>
      </trkpt>
      <trkpt lat="43.32972" lon="-1.50972">
        <ele>116.1</ele>
        <time>2022-08-30T09:24:59Z</time>
      </trkpt>
      <trkpt lat="43.32972" lon="-1.50971">
        <ele>116.3</ele>
        <time>2022-08-30T09:25:00Z</time>
      </trkpt>
      <trkpt lat="43.32971" lon="-1.50969">
        <ele>116.5</ele>
        <time>2022-08-30T09:25:01Z</time>
      </trkpt>
      <trkpt lat="43.3297" lon="-1.50968">
        <ele>116.6</ele>
        <time>2022-08-30T09:25:02Z</time>
      </trkpt>
      <trkpt lat="43.3297" lon="-1.50968">
        <ele>116.7</ele>
        <time>2022-08-30T09:25:03Z</time>
      </trkpt>
      <trkpt lat="43.32969" lon="-1.50967">
        <ele>116.9</ele>
        <time>2022-08-30T09:25:04Z</time>
      </trkpt>
      <trkpt lat="43.32967" lon="-1.50965">
        <ele>117.2</ele>
        <time>2022-08-30T09:25:05Z</time>
      </trkpt>
      <trkpt lat="43.32967" lon="-1.50965">
        <ele>117.3</ele>
        <time>2022-08-30T09:25:06Z</time>
      </trkpt>
      <trkpt lat="43.32966" lon="-1.50964">
        <ele>117.4</ele>
        <time>2022-08-30T09:25:07Z</time>
      </trkpt>
      <trkpt lat="43.32965" lon="-1.50963">
        <ele>117.6</ele>
        <time>2022-08-30T09:25:08Z</time>
      </trkpt>
      <trkpt lat="43.32964" lon="-1.50961">
        <ele>117.9</ele>
        <time>2022-08-30T09:25:09Z</time>
      </trkpt>
      <trkpt lat="43.32963" lon="-1.50957">
        <ele>118.4</ele>
        <time>2022-08-30T09:25:10Z</time>
      </trkpt>
      <trkpt lat="43.32962" lon="-1.50956">
        <ele>118.6</ele>
        <time>2022-08-30T09:25:11Z</time>
      </trkpt>
      <trkpt lat="43.32961" lon="-1.50952">
        <ele>119</ele>
        <time>2022-08-30T09:25:12Z</time>
      </trkpt>
      <trkpt lat="43.3296" lon="-1.50951">
        <ele>119.1</ele>
        <time>2022-08-30T09:25:13Z</time>
      </trkpt>
      <trkpt lat="43.32959" lon="-1.50949">
        <ele>119.4</ele>
        <time>2022-08-30T09:25:14Z</time>
      </trkpt>
      <trkpt lat="43.32959" lon="-1.50947">
        <ele>119.6</ele>
        <time>2022-08-30T09:25:15Z</time>
      </trkpt>
      <trkpt lat="43.32957" lon="-1.50945">
        <ele>120</ele>
        <time>2022-08-30T09:25:16Z</time>
      </trkpt>
      <trkpt lat="43.32957" lon="-1.50943">
        <ele>120.1</ele>
        <time>2022-08-30T09:25:17Z</time>
      </trkpt>
      <trkpt lat="43.32956" lon="-1.50942">
        <ele>120.3</ele>
        <time>2022-08-30T09:25:18Z</time>
      </trkpt>
      <trkpt lat="43.32956" lon="-1.5094">
        <ele>120.5</ele>
        <time>2022-08-30T09:25:19Z</time>
      </trkpt>
      <trkpt lat="43.32955" lon="-1.50938">
        <ele>120.7</ele>
        <time>2022-08-30T09:25:20Z</time>
      </trkpt>
      <trkpt lat="43.32954" lon="-1.50936">
        <ele>121.1</ele>
        <time>2022-08-30T09:25:21Z</time>
      </trkpt>
      <trkpt lat="43.32953" lon="-1.50935">
        <ele>121.2</ele>
        <time>2022-08-30T09:25:22Z</time>
      </trkpt>
      <trkpt lat="43.32953" lon="-1.50933">
        <ele>121.4</ele>
        <time>2022-08-30T09:25:23Z</time>
      </trkpt>
      <trkpt lat="43.32951" lon="-1.50931">
        <ele>121.7</ele>
        <time>2022-08-30T09:25:24Z</time>
      </trkpt>
      <trkpt lat="43.3295" lon="-1.5093">
        <ele>121.9</ele>
        <time>2022-08-30T09:25:25Z</time>
      </trkpt>
      <trkpt lat="43.32947" lon="-1.50926">
        <ele>122.4</ele>
        <time>2022-08-30T09:25:26Z</time>
      </trkpt>
      <trkpt lat="43.32946" lon="-1.50925">
        <ele>122.5</ele>
        <time>2022-08-30T09:25:27Z</time>
      </trkpt>
      <trkpt lat="43.32945" lon="-1.50924">
        <ele>122.8</ele>
        <time>2022-08-30T09:25:28Z</time>
      </trkpt>
      <trkpt lat="43.32944" lon="-1.50923">
        <ele>122.9</ele>
        <time>2022-08-30T09:25:29Z</time>
      </trkpt>
      <trkpt lat="43.32943" lon="-1.50921">
        <ele>123.1</ele>
        <time>2022-08-30T09:25:30Z</time>
      </trkpt>
      <trkpt lat="43.32942" lon="-1.50921">
        <ele>123.2</ele>
        <time>2022-08-30T09:25:31Z</time>
      </trkpt>
      <trkpt lat="43.32942" lon="-1.5092">
        <ele>123.3</ele>
        <time>2022-08-30T09:25:32Z</time>
      </trkpt>
      <trkpt lat="43.32941" lon="-1.50919">
        <ele>123.4</ele>
        <time>2022-08-30T09:25:33Z</time>
      </trkpt>
      <trkpt lat="43.32939" lon="-1.50918">
        <ele>123.7</ele>
        <time>2022-08-30T09:25:34Z</time>
      </trkpt>
      <trkpt lat="43.32938" lon="-1.50918">
        <ele>123.9</ele>
        <time>2022-08-30T09:25:35Z</time>
      </trkpt>
      <trkpt lat="43.32936" lon="-1.50917">
        <ele>124</ele>
        <time>2022-08-30T09:25:36Z</time>
      </trkpt>
      <trkpt lat="43.32935" lon="-1.50917">
        <ele>124.1</ele>
        <time>2022-08-30T09:25:37Z</time>
      </trkpt>
      <trkpt lat="43.32932" lon="-1.50916">
        <ele>124.6</ele>
        <time>2022-08-30T09:25:38Z</time>
      </trkpt>
      <trkpt lat="43.3293" lon="-1.50915">
        <ele>124.8</ele>
        <time>2022-08-30T09:25:39Z</time>
      </trkpt>
      <trkpt lat="43.32927" lon="-1.50914">
        <ele>125.2</ele>
        <time>2022-08-30T09:25:40Z</time>
      </trkpt>
      <trkpt lat="43.32926" lon="-1.50914">
        <ele>125.3</ele>
        <time>2022-08-30T09:25:41Z</time>
      </trkpt>
      <trkpt lat="43.32925" lon="-1.50913">
        <ele>125.5</ele>
        <time>2022-08-30T09:25:42Z</time>
      </trkpt>
      <trkpt lat="43.32924" lon="-1.50913">
        <ele>125.6</ele>
        <time>2022-08-30T09:25:43Z</time>
      </trkpt>
      <trkpt lat="43.32921" lon="-1.50912">
        <ele>126.1</ele>
        <time>2022-08-30T09:25:44Z</time>
      </trkpt>
      <trkpt lat="43.3292" lon="-1.50912">
        <ele>126.2</ele>
        <time>2022-08-30T09:25:45Z</time>
      </trkpt>
      <trkpt lat="43.32918" lon="-1.50912">
        <ele>126.5</ele>
        <time>2022-08-30T09:25:46Z</time>
      </trkpt>
      <trkpt lat="43.32917" lon="-1.50912">
        <ele>126.6</ele>
        <time>2022-08-30T09:25:47Z</time>
      </trkpt>
      <trkpt lat="43.32916" lon="-1.50911">
        <ele>126.8</ele>
        <time>2022-08-30T09:25:48Z</time>
      </trkpt>
      <trkpt lat="43.32915" lon="-1.50911">
        <ele>126.9</ele>
        <time>2022-08-30T09:25:49Z</time>
      </trkpt>
      <trkpt lat="43.32912" lon="-1.50911">
        <ele>127.3</ele>
        <time>2022-08-30T09:25:50Z</time>
      </trkpt>
      <trkpt lat="43.32912" lon="-1.50912">
        <ele>127.4</ele>
        <time>2022-08-30T09:25:51Z</time>
      </trkpt>
      <trkpt lat="43.32909" lon="-1.50912">
        <ele>127.8</ele>
        <time>2022-08-30T09:25:52Z</time>
      </trkpt>
      <trkpt lat="43.32908" lon="-1.50911">
        <ele>128</ele>
        <time>2022-08-30T09:25:53Z</time>
      </trkpt>
      <trkpt lat="43.32906" lon="-1.50911">
        <ele>128.2</ele>
        <time>2022-08-30T09:25:54Z</time>
      </trkpt>
      <trkpt lat="43.32905" lon="-1.50911">
        <ele>128.3</ele>
        <time>2022-08-30T09:25:55Z</time>
      </trkpt>
      <trkpt lat="43.32902" lon="-1.50911">
        <ele>128.9</ele>
        <time>2022-08-30T09:25:56Z</time>
      </trkpt>
      <trkpt lat="43.32901" lon="-1.50911">
        <ele>129</ele>
        <time>2022-08-30T09:25:57Z</time>
      </trkpt>
      <trkpt lat="43.32901" lon="-1.50911">
        <ele>129.1</ele>
        <time>2022-08-30T09:25:58Z</time>
      </trkpt>
      <trkpt lat="43.32901" lon="-1.50911">
        <ele>129.1</ele>
        <time>2022-08-30T09:25:59Z</time>
      </trkpt>
      <trkpt lat="43.32901" lon="-1.50911">
        <ele>129.1</ele>
        <time>2022-08-30T09:26:00Z</time>
      </trkpt>
      <trkpt lat="43.32898" lon="-1.5091">
        <ele>129.6</ele>
        <time>2022-08-30T09:26:01Z</time>
      </trkpt>
      <trkpt lat="43.32894" lon="-1.50909">
        <ele>130.2</ele>
        <time>2022-08-30T09:26:02Z</time>
      </trkpt>
      <trkpt lat="43.32893" lon="-1.50909">
        <ele>130.3</ele>
        <time>2022-08-30T09:26:03Z</time>
      </trkpt>
      <trkpt lat="43.32891" lon="-1.50909">
        <ele>130.8</ele>
        <time>2022-08-30T09:26:04Z</time>
      </trkpt>
      <trkpt lat="43.3289" lon="-1.50908">
        <ele>130.9</ele>
        <time>2022-08-30T09:26:05Z</time>
      </trkpt>
      <trkpt lat="43.32889" lon="-1.50908">
        <ele>131</ele>
        <time>2022-08-30T09:26:06Z</time>
      </trkpt>
      <trkpt lat="43.32888" lon="-1.50908">
        <ele>131.2</ele>
        <time>2022-08-30T09:26:07Z</time>
      </trkpt>
      <trkpt lat="43.32886" lon="-1.50907">
        <ele>131.5</ele>
        <time>2022-08-30T09:26:08Z</time>
      </trkpt>
      <trkpt lat="43.32885" lon="-1.50907">
        <ele>131.8</ele>
        <time>2022-08-30T09:26:09Z</time>
      </trkpt>
      <trkpt lat="43.32882" lon="-1.50907">
        <ele>132.3</ele>
        <time>2022-08-30T09:26:10Z</time>
      </trkpt>
      <trkpt lat="43.32881" lon="-1.50907">
        <ele>132.4</ele>
        <time>2022-08-30T09:26:11Z</time>
      </trkpt>
      <trkpt lat="43.3288" lon="-1.50907">
        <ele>132.6</ele>
        <time>2022-08-30T09:26:12Z</time>
      </trkpt>
      <trkpt lat="43.32879" lon="-1.50907">
        <ele>132.8</ele>
        <time>2022-08-30T09:26:13Z</time>
      </trkpt>
      <trkpt lat="43.32875" lon="-1.50907">
        <ele>133.3</ele>
        <time>2022-08-30T09:26:14Z</time>
      </trkpt>
      <trkpt lat="43.32874" lon="-1.50907">
        <ele>133.5</ele>
        <time>2022-08-30T09:26:15Z</time>
      </trkpt>
      <trkpt lat="43.32871" lon="-1.50906">
        <ele>134</ele>
        <time>2022-08-30T09:26:16Z</time>
      </trkpt>
      <trkpt lat="43.3287" lon="-1.50906">
        <ele>134.2</ele>
        <time>2022-08-30T09:26:17Z</time>
      </trkpt>
      <trkpt lat="43.32867" lon="-1.50905">
        <ele>134.7</ele>
        <time>2022-08-30T09:26:18Z</time>
      </trkpt>
      <trkpt lat="43.32866" lon="-1.50905">
        <ele>134.9</ele>
        <time>2022-08-30T09:26:19Z</time>
      </trkpt>
      <trkpt lat="43.32864" lon="-1.50906">
        <ele>135.2</ele>
        <time>2022-08-30T09:26:20Z</time>
      </trkpt>
      <trkpt lat="43.32863" lon="-1.50906">
        <ele>135.3</ele>
        <time>2022-08-30T09:26:21Z</time>
      </trkpt>
      <trkpt lat="43.32863" lon="-1.50906">
        <ele>135.4</ele>
        <time>2022-08-30T09:26:22Z</time>
      </trkpt>
      <trkpt lat="43.32862" lon="-1.50906">
        <ele>135.6</ele>
        <time>2022-08-30T09:26:23Z</time>
      </trkpt>
      <trkpt lat="43.32861" lon="-1.50907">
        <ele>135.8</ele>
        <time>2022-08-30T09:26:24Z</time>
      </trkpt>
      <trkpt lat="43.3286" lon="-1.50907">
        <ele>136</ele>
        <time>2022-08-30T09:26:25Z</time>
      </trkpt>
      <trkpt lat="43.32859" lon="-1.50907">
        <ele>136.1</ele>
        <time>2022-08-30T09:26:26Z</time>
      </trkpt>
      <trkpt lat="43.32858" lon="-1.50907">
        <ele>136.3</ele>
        <time>2022-08-30T09:26:27Z</time>
      </trkpt>
      <trkpt lat="43.32857" lon="-1.50907">
        <ele>136.4</ele>
        <time>2022-08-30T09:26:28Z</time>
      </trkpt>
      <trkpt lat="43.32856" lon="-1.50907">
        <ele>136.6</ele>
        <time>2022-08-30T09:26:29Z</time>
      </trkpt>
      <trkpt lat="43.32855" lon="-1.50907">
        <ele>136.7</ele>
        <time>2022-08-30T09:26:30Z</time>
      </trkpt>
      <trkpt lat="43.32855" lon="-1.50907">
        <ele>136.8</ele>
        <time>2022-08-30T09:26:31Z</time>
      </trkpt>
      <trkpt lat="43.32854" lon="-1.50907">
        <ele>136.9</ele>
        <time>2022-08-30T09:26:32Z</time>
      </trkpt>
      <trkpt lat="43.32854" lon="-1.50907">
        <ele>137</ele>
        <time>2022-08-30T09:26:33Z</time>
      </trkpt>
      <trkpt lat="43.32853" lon="-1.50907">
        <ele>137.1</ele>
        <time>2022-08-30T09:26:34Z</time>
      </trkpt>
      <trkpt lat="43.32853" lon="-1.50907">
        <ele>137.2</ele>
        <time>2022-08-30T09:26:35Z</time>
      </trkpt>
      <trkpt lat="43.32852" lon="-1.50907">
        <ele>137.3</ele>
        <time>2022-08-30T09:26:36Z</time>
      </trkpt>
      <trkpt lat="43.32852" lon="-1.50907">
        <ele>137.4</ele>
        <time>2022-08-30T09:26:37Z</time>
      </trkpt>
      <trkpt lat="43.32851" lon="-1.50907">
        <ele>137.5</ele>
        <time>2022-08-30T09:26:38Z</time>
      </trkpt>
      <trkpt lat="43.32851" lon="-1.50908">
        <ele>137.6</ele>
        <time>2022-08-30T09:26:39Z</time>
      </trkpt>
      <trkpt lat="43.3285" lon="-1.50908">
        <ele>137.6</ele>
        <time>2022-08-30T09:26:40Z</time>
      </trkpt>
      <trkpt lat="43.3285" lon="-1.50908">
        <ele>137.7</ele>
        <time>2022-08-30T09:26:41Z</time>
      </trkpt>
      <trkpt lat="43.3285" lon="-1.50908">
        <ele>137.7</ele>
        <time>2022-08-30T09:26:42Z</time>
      </trkpt>
      <trkpt lat="43.3285" lon="-1.50908">
        <ele>137.8</ele>
        <time>2022-08-30T09:26:43Z</time>
      </trkpt>
      <trkpt lat="43.32849" lon="-1.50908">
        <ele>137.8</ele>
        <time>2022-08-30T09:26:44Z</time>
      </trkpt>
      <trkpt lat="43.32849" lon="-1.50908">
        <ele>137.9</ele>
        <time>2022-08-30T09:26:45Z</time>
      </trkpt>
      <trkpt lat="43.32849" lon="-1.50908">
        <ele>137.9</ele>
        <time>2022-08-30T09:26:46Z</time>
      </trkpt>
      <trkpt lat="43.32849" lon="-1.50908">
        <ele>138</ele>
        <time>2022-08-30T09:26:47Z</time>
      </trkpt>
      <trkpt lat="43.32848" lon="-1.50908">
        <ele>138</ele>
        <time>2022-08-30T09:26:48Z</time>
      </trkpt>
      <trkpt lat="43.32848" lon="-1.50908">
        <ele>138.1</ele>
        <time>2022-08-30T09:26:49Z</time>
      </trkpt>
      <trkpt lat="43.32848" lon="-1.50908">
        <ele>138.1</ele>
        <time>2022-08-30T09:26:50Z</time>
      </trkpt>
      <trkpt lat="43.32848" lon="-1.50908">
        <ele>138.2</ele>
        <time>2022-08-30T09:26:51Z</time>
      </trkpt>
      <trkpt lat="43.32847" lon="-1.50908">
        <ele>138.4</ele>
        <time>2022-08-30T09:26:52Z</time>
      </trkpt>
      <trkpt lat="43.32846" lon="-1.50909">
        <ele>138.5</ele>
        <time>2022-08-30T09:26:53Z</time>
      </trkpt>
      <trkpt lat="43.32846" lon="-1.50909">
        <ele>138.6</ele>
        <time>2022-08-30T09:26:54Z</time>
      </trkpt>
      <trkpt lat="43.32846" lon="-1.50909">
        <ele>138.6</ele>
        <time>2022-08-30T09:26:55Z</time>
      </trkpt>
      <trkpt lat="43.32846" lon="-1.50909">
        <ele>138.6</ele>
        <time>2022-08-30T09:26:56Z</time>
      </trkpt>
      <trkpt lat="43.32844" lon="-1.50909">
        <ele>139</ele>
        <time>2022-08-30T09:26:57Z</time>
      </trkpt>
      <trkpt lat="43.32844" lon="-1.50909">
        <ele>139.1</ele>
        <time>2022-08-30T09:26:58Z</time>
      </trkpt>
      <trkpt lat="43.32844" lon="-1.5091">
        <ele>139.1</ele>
        <time>2022-08-30T09:26:59Z</time>
      </trkpt>
      <trkpt lat="43.32844" lon="-1.5091">
        <ele>139.2</ele>
        <time>2022-08-30T09:27:00Z</time>
      </trkpt>
      <trkpt lat="43.32844" lon="-1.5091">
        <ele>139.2</ele>
        <time>2022-08-30T09:27:01Z</time>
      </trkpt>
      <trkpt lat="43.32844" lon="-1.5091">
        <ele>139.3</ele>
        <time>2022-08-30T09:27:02Z</time>
      </trkpt>
      <trkpt lat="43.32843" lon="-1.5091">
        <ele>139.4</ele>
        <time>2022-08-30T09:27:03Z</time>
      </trkpt>
      <trkpt lat="43.32843" lon="-1.5091">
        <ele>139.4</ele>
        <time>2022-08-30T09:27:04Z</time>
      </trkpt>
      <trkpt lat="43.32843" lon="-1.5091">
        <ele>139.5</ele>
        <time>2022-08-30T09:27:05Z</time>
      </trkpt>
      <trkpt lat="43.32843" lon="-1.5091">
        <ele>139.5</ele>
        <time>2022-08-30T09:27:06Z</time>
      </trkpt>
      <trkpt lat="43.32842" lon="-1.50909">
        <ele>139.7</ele>
        <time>2022-08-30T09:27:07Z</time>
      </trkpt>
      <trkpt lat="43.32841" lon="-1.5091">
        <ele>139.8</ele>
        <time>2022-08-30T09:27:08Z</time>
      </trkpt>
      <trkpt lat="43.32841" lon="-1.50909">
        <ele>140</ele>
        <time>2022-08-30T09:27:09Z</time>
      </trkpt>
      <trkpt lat="43.3284" lon="-1.5091">
        <ele>140.1</ele>
        <time>2022-08-30T09:27:10Z</time>
      </trkpt>
      <trkpt lat="43.3284" lon="-1.5091">
        <ele>140.2</ele>
        <time>2022-08-30T09:27:11Z</time>
      </trkpt>
      <trkpt lat="43.3284" lon="-1.5091">
        <ele>140.3</ele>
        <time>2022-08-30T09:27:12Z</time>
      </trkpt>
      <trkpt lat="43.3284" lon="-1.5091">
        <ele>140.4</ele>
        <time>2022-08-30T09:27:13Z</time>
      </trkpt>
      <trkpt lat="43.32839" lon="-1.5091">
        <ele>140.5</ele>
        <time>2022-08-30T09:27:14Z</time>
      </trkpt>
      <trkpt lat="43.32839" lon="-1.5091">
        <ele>140.6</ele>
        <time>2022-08-30T09:27:15Z</time>
      </trkpt>
      <trkpt lat="43.32838" lon="-1.5091">
        <ele>140.8</ele>
        <time>2022-08-30T09:27:16Z</time>
      </trkpt>
      <trkpt lat="43.32838" lon="-1.5091">
        <ele>140.8</ele>
        <time>2022-08-30T09:27:17Z</time>
      </trkpt>
      <trkpt lat="43.32838" lon="-1.5091">
        <ele>140.8</ele>
        <time>2022-08-30T09:27:18Z</time>
      </trkpt>
      <trkpt lat="43.32837" lon="-1.5091">
        <ele>141.1</ele>
        <time>2022-08-30T09:27:19Z</time>
      </trkpt>
      <trkpt lat="43.32836" lon="-1.50909">
        <ele>141.3</ele>
        <time>2022-08-30T09:27:20Z</time>
      </trkpt>
      <trkpt lat="43.32836" lon="-1.50909">
        <ele>141.3</ele>
        <time>2022-08-30T09:27:21Z</time>
      </trkpt>
      <trkpt lat="43.32836" lon="-1.50909">
        <ele>141.4</ele>
        <time>2022-08-30T09:27:22Z</time>
      </trkpt>
      <trkpt lat="43.32836" lon="-1.5091">
        <ele>141.4</ele>
        <time>2022-08-30T09:27:23Z</time>
      </trkpt>
      <trkpt lat="43.32836" lon="-1.5091">
        <ele>141.4</ele>
        <time>2022-08-30T09:27:24Z</time>
      </trkpt>
      <trkpt lat="43.32836" lon="-1.5091">
        <ele>141.5</ele>
        <time>2022-08-30T09:27:25Z</time>
      </trkpt>
      <trkpt lat="43.32836" lon="-1.5091">
        <ele>141.5</ele>
        <time>2022-08-30T09:27:26Z</time>
      </trkpt>
      <trkpt lat="43.32836" lon="-1.5091">
        <ele>141.5</ele>
        <time>2022-08-30T09:27:27Z</time>
      </trkpt>
      <trkpt lat="43.32836" lon="-1.5091">
        <ele>141.5</ele>
        <time>2022-08-30T09:27:28Z</time>
      </trkpt>
      <trkpt lat="43.32836" lon="-1.5091">
        <ele>141.6</ele>
        <time>2022-08-30T09:27:29Z</time>
      </trkpt>
      <trkpt lat="43.32836" lon="-1.50911">
        <ele>141.8</ele>
        <time>2022-08-30T09:27:30Z</time>
      </trkpt>
      <trkpt lat="43.32835" lon="-1.50912">
        <ele>142</ele>
        <time>2022-08-30T09:27:31Z</time>
      </trkpt>
      <trkpt lat="43.32833" lon="-1.50914">
        <ele>142.9</ele>
        <time>2022-08-30T09:27:49Z</time>
      </trkpt>
      <trkpt lat="43.32832" lon="-1.50915">
        <ele>143.3</ele>
        <time>2022-08-30T09:27:50Z</time>
      </trkpt>
      <trkpt lat="43.32831" lon="-1.50916">
        <ele>143.7</ele>
        <time>2022-08-30T09:27:51Z</time>
      </trkpt>
      <trkpt lat="43.3283" lon="-1.50916">
        <ele>143.9</ele>
        <time>2022-08-30T09:27:52Z</time>
      </trkpt>
      <trkpt lat="43.3283" lon="-1.50916">
        <ele>143.9</ele>
        <time>2022-08-30T09:27:53Z</time>
      </trkpt>
      <trkpt lat="43.3283" lon="-1.50917">
        <ele>144</ele>
        <time>2022-08-30T09:27:54Z</time>
      </trkpt>
      <trkpt lat="43.3283" lon="-1.50917">
        <ele>144.1</ele>
        <time>2022-08-30T09:27:55Z</time>
      </trkpt>
      <trkpt lat="43.3283" lon="-1.50918">
        <ele>144.3</ele>
        <time>2022-08-30T09:27:56Z</time>
      </trkpt>
      <trkpt lat="43.3283" lon="-1.50918">
        <ele>144.3</ele>
        <time>2022-08-30T09:27:57Z</time>
      </trkpt>
      <trkpt lat="43.3283" lon="-1.50918">
        <ele>144.4</ele>
        <time>2022-08-30T09:27:58Z</time>
      </trkpt>
      <trkpt lat="43.3283" lon="-1.50918">
        <ele>144.4</ele>
        <time>2022-08-30T09:27:59Z</time>
      </trkpt>
      <trkpt lat="43.3283" lon="-1.50918">
        <ele>144.4</ele>
        <time>2022-08-30T09:28:00Z</time>
      </trkpt>
      <trkpt lat="43.3283" lon="-1.50918">
        <ele>144.4</ele>
        <time>2022-08-30T09:28:01Z</time>
      </trkpt>
      <trkpt lat="43.3283" lon="-1.50918">
        <ele>144.4</ele>
        <time>2022-08-30T09:28:02Z</time>
      </trkpt>
      <trkpt lat="43.3283" lon="-1.50918">
        <ele>144.4</ele>
        <time>2022-08-30T09:28:03Z</time>
      </trkpt>
      <trkpt lat="43.3283" lon="-1.50918">
        <ele>144.4</ele>
        <time>2022-08-30T09:28:04Z</time>
      </trkpt>
      <trkpt lat="43.32828" lon="-1.50919">
        <ele>145.2</ele>
        <time>2022-08-30T09:28:19Z</time>
      </trkpt>
      <trkpt lat="43.32828" lon="-1.50919">
        <ele>145.2</ele>
        <time>2022-08-30T09:28:20Z</time>
      </trkpt>
      <trkpt lat="43.32828" lon="-1.50919">
        <ele>145.2</ele>
        <time>2022-08-30T09:28:21Z</time>
      </trkpt>
      <trkpt lat="43.32828" lon="-1.50918">
        <ele>145.5</ele>
        <time>2022-08-30T09:28:22Z</time>
      </trkpt>
      <trkpt lat="43.32827" lon="-1.50918">
        <ele>145.7</ele>
        <time>2022-08-30T09:28:23Z</time>
      </trkpt>
      <trkpt lat="43.32827" lon="-1.50917">
        <ele>145.9</ele>
        <time>2022-08-30T09:28:24Z</time>
      </trkpt>
      <trkpt lat="43.32827" lon="-1.50917">
        <ele>146</ele>
        <time>2022-08-30T09:28:25Z</time>
      </trkpt>
      <trkpt lat="43.32827" lon="-1.50917">
        <ele>146.1</ele>
        <time>2022-08-30T09:28:26Z</time>
      </trkpt>
      <trkpt lat="43.32827" lon="-1.50916">
        <ele>146.3</ele>
        <time>2022-08-30T09:28:27Z</time>
      </trkpt>
      <trkpt lat="43.32827" lon="-1.50916">
        <ele>146.4</ele>
        <time>2022-08-30T09:28:28Z</time>
      </trkpt>
      <trkpt lat="43.32827" lon="-1.50916">
        <ele>146.4</ele>
        <time>2022-08-30T09:28:29Z</time>
      </trkpt>
      <trkpt lat="43.32827" lon="-1.50915">
        <ele>146.5</ele>
        <time>2022-08-30T09:28:30Z</time>
      </trkpt>
      <trkpt lat="43.32827" lon="-1.50915">
        <ele>146.5</ele>
        <time>2022-08-30T09:28:31Z</time>
      </trkpt>
      <trkpt lat="43.32827" lon="-1.50915">
        <ele>146.6</ele>
        <time>2022-08-30T09:28:32Z</time>
      </trkpt>
      <trkpt lat="43.32826" lon="-1.50915">
        <ele>146.6</ele>
        <time>2022-08-30T09:28:33Z</time>
      </trkpt>
      <trkpt lat="43.32826" lon="-1.50915">
        <ele>146.7</ele>
        <time>2022-08-30T09:28:34Z</time>
      </trkpt>
      <trkpt lat="43.32824" lon="-1.50917">
        <ele>147.6</ele>
        <time>2022-08-30T09:28:40Z</time>
      </trkpt>
      <trkpt lat="43.32824" lon="-1.50918">
        <ele>147.9</ele>
        <time>2022-08-30T09:28:41Z</time>
      </trkpt>
      <trkpt lat="43.32823" lon="-1.50918">
        <ele>148</ele>
        <time>2022-08-30T09:28:42Z</time>
      </trkpt>
      <trkpt lat="43.32823" lon="-1.50918">
        <ele>148.1</ele>
        <time>2022-08-30T09:28:43Z</time>
      </trkpt>
      <trkpt lat="43.32823" lon="-1.50918">
        <ele>148.1</ele>
        <time>2022-08-30T09:28:44Z</time>
      </trkpt>
      <trkpt lat="43.32823" lon="-1.50918">
        <ele>148.1</ele>
        <time>2022-08-30T09:28:45Z</time>
      </trkpt>
      <trkpt lat="43.32823" lon="-1.50919">
        <ele>148.2</ele>
        <time>2022-08-30T09:28:46Z</time>
      </trkpt>
      <trkpt lat="43.32823" lon="-1.50919">
        <ele>148.4</ele>
        <time>2022-08-30T09:28:47Z</time>
      </trkpt>
      <trkpt lat="43.32822" lon="-1.50919">
        <ele>148.5</ele>
        <time>2022-08-30T09:28:48Z</time>
      </trkpt>
      <trkpt lat="43.32822" lon="-1.50919">
        <ele>148.7</ele>
        <time>2022-08-30T09:28:49Z</time>
      </trkpt>
      <trkpt lat="43.32822" lon="-1.50919">
        <ele>148.8</ele>
        <time>2022-08-30T09:28:50Z</time>
      </trkpt>
      <trkpt lat="43.32822" lon="-1.50919">
        <ele>148.8</ele>
        <time>2022-08-30T09:28:51Z</time>
      </trkpt>
      <trkpt lat="43.32822" lon="-1.50919">
        <ele>148.9</ele>
        <time>2022-08-30T09:28:52Z</time>
      </trkpt>
      <trkpt lat="43.32819" lon="-1.50921">
        <ele>150</ele>
        <time>2022-08-30T09:29:07Z</time>
      </trkpt>
      <trkpt lat="43.32817" lon="-1.50922">
        <ele>150.6</ele>
        <time>2022-08-30T09:29:08Z</time>
      </trkpt>
      <trkpt lat="43.32816" lon="-1.50923">
        <ele>151.2</ele>
        <time>2022-08-30T09:29:09Z</time>
      </trkpt>
      <trkpt lat="43.32814" lon="-1.50924">
        <ele>151.8</ele>
        <time>2022-08-30T09:29:10Z</time>
      </trkpt>
      <trkpt lat="43.32813" lon="-1.50925">
        <ele>152.3</ele>
        <time>2022-08-30T09:29:11Z</time>
      </trkpt>
      <trkpt lat="43.32811" lon="-1.50926">
        <ele>153.1</ele>
        <time>2022-08-30T09:29:12Z</time>
      </trkpt>
      <trkpt lat="43.32811" lon="-1.50926">
        <ele>153.3</ele>
        <time>2022-08-30T09:29:13Z</time>
      </trkpt>
      <trkpt lat="43.3281" lon="-1.50926">
        <ele>153.6</ele>
        <time>2022-08-30T09:29:14Z</time>
      </trkpt>
      <trkpt lat="43.3281" lon="-1.50927">
        <ele>153.8</ele>
        <time>2022-08-30T09:29:15Z</time>
      </trkpt>
      <trkpt lat="43.32808" lon="-1.50927">
        <ele>154.3</ele>
        <time>2022-08-30T09:29:16Z</time>
      </trkpt>
      <trkpt lat="43.32807" lon="-1.50928">
        <ele>154.8</ele>
        <time>2022-08-30T09:29:17Z</time>
      </trkpt>
      <trkpt lat="43.32805" lon="-1.50928">
        <ele>155.6</ele>
        <time>2022-08-30T09:29:18Z</time>
      </trkpt>
      <trkpt lat="43.32804" lon="-1.50928">
        <ele>155.9</ele>
        <time>2022-08-30T09:29:19Z</time>
      </trkpt>
      <trkpt lat="43.32803" lon="-1.50928">
        <ele>156.2</ele>
        <time>2022-08-30T09:29:20Z</time>
      </trkpt>
      <trkpt lat="43.32802" lon="-1.50928">
        <ele>156.7</ele>
        <time>2022-08-30T09:29:21Z</time>
      </trkpt>
      <trkpt lat="43.328" lon="-1.50927">
        <ele>157.4</ele>
        <time>2022-08-30T09:29:22Z</time>
      </trkpt>
      <trkpt lat="43.32797" lon="-1.50926">
        <ele>158.3</ele>
        <time>2022-08-30T09:29:23Z</time>
      </trkpt>
      <trkpt lat="43.32796" lon="-1.50925">
        <ele>158.6</ele>
        <time>2022-08-30T09:29:24Z</time>
      </trkpt>
      <trkpt lat="43.32795" lon="-1.50925">
        <ele>159.1</ele>
        <time>2022-08-30T09:29:25Z</time>
      </trkpt>
      <trkpt lat="43.32793" lon="-1.50924">
        <ele>159.7</ele>
        <time>2022-08-30T09:29:26Z</time>
      </trkpt>
      <trkpt lat="43.32791" lon="-1.50923">
        <ele>160.6</ele>
        <time>2022-08-30T09:29:27Z</time>
      </trkpt>
      <trkpt lat="43.3279" lon="-1.50922">
        <ele>161</ele>
        <time>2022-08-30T09:29:28Z</time>
      </trkpt>
      <trkpt lat="43.32787" lon="-1.50921">
        <ele>161.9</ele>
        <time>2022-08-30T09:29:29Z</time>
      </trkpt>
      <trkpt lat="43.32786" lon="-1.5092">
        <ele>162.3</ele>
        <time>2022-08-30T09:29:30Z</time>
      </trkpt>
      <trkpt lat="43.32783" lon="-1.50917">
        <ele>163</ele>
        <time>2022-08-30T09:29:31Z</time>
      </trkpt>
      <trkpt lat="43.32783" lon="-1.50917">
        <ele>163.2</ele>
        <time>2022-08-30T09:29:32Z</time>
      </trkpt>
      <trkpt lat="43.3278" lon="-1.50915">
        <ele>163.9</ele>
        <time>2022-08-30T09:29:33Z</time>
      </trkpt>
      <trkpt lat="43.3278" lon="-1.50914">
        <ele>164.1</ele>
        <time>2022-08-30T09:29:34Z</time>
      </trkpt>
      <trkpt lat="43.32779" lon="-1.50912">
        <ele>164.4</ele>
        <time>2022-08-30T09:29:35Z</time>
      </trkpt>
      <trkpt lat="43.32778" lon="-1.5091">
        <ele>164.8</ele>
        <time>2022-08-30T09:29:36Z</time>
      </trkpt>
      <trkpt lat="43.32777" lon="-1.50908">
        <ele>165.1</ele>
        <time>2022-08-30T09:29:37Z</time>
      </trkpt>
      <trkpt lat="43.32776" lon="-1.50907">
        <ele>165.3</ele>
        <time>2022-08-30T09:29:38Z</time>
      </trkpt>
      <trkpt lat="43.32775" lon="-1.50905">
        <ele>165.6</ele>
        <time>2022-08-30T09:29:39Z</time>
      </trkpt>
      <trkpt lat="43.32774" lon="-1.50904">
        <ele>165.8</ele>
        <time>2022-08-30T09:29:40Z</time>
      </trkpt>
      <trkpt lat="43.32773" lon="-1.509">
        <ele>166.2</ele>
        <time>2022-08-30T09:29:41Z</time>
      </trkpt>
      <trkpt lat="43.32773" lon="-1.50899">
        <ele>166.6</ele>
        <time>2022-08-30T09:29:42Z</time>
      </trkpt>
      <trkpt lat="43.32772" lon="-1.50897">
        <ele>166.8</ele>
        <time>2022-08-30T09:29:43Z</time>
      </trkpt>
      <trkpt lat="43.32772" lon="-1.50895">
        <ele>166.9</ele>
        <time>2022-08-30T09:29:44Z</time>
      </trkpt>
      <trkpt lat="43.32772" lon="-1.50894">
        <ele>167</ele>
        <time>2022-08-30T09:29:45Z</time>
      </trkpt>
      <trkpt lat="43.32772" lon="-1.50894">
        <ele>167</ele>
        <time>2022-08-30T09:29:46Z</time>
      </trkpt>
      <trkpt lat="43.32771" lon="-1.5089">
        <ele>167.3</ele>
        <time>2022-08-30T09:29:47Z</time>
      </trkpt>
      <trkpt lat="43.32771" lon="-1.50887">
        <ele>167.6</ele>
        <time>2022-08-30T09:29:48Z</time>
      </trkpt>
      <trkpt lat="43.3277" lon="-1.50883">
        <ele>167.9</ele>
        <time>2022-08-30T09:29:49Z</time>
      </trkpt>
      <trkpt lat="43.3277" lon="-1.50879">
        <ele>168.2</ele>
        <time>2022-08-30T09:29:50Z</time>
      </trkpt>
      <trkpt lat="43.32769" lon="-1.50876">
        <ele>168.5</ele>
        <time>2022-08-30T09:29:51Z</time>
      </trkpt>
      <trkpt lat="43.32767" lon="-1.50871">
        <ele>168.8</ele>
        <time>2022-08-30T09:29:52Z</time>
      </trkpt>
      <trkpt lat="43.32767" lon="-1.50869">
        <ele>168.9</ele>
        <time>2022-08-30T09:29:53Z</time>
      </trkpt>
      <trkpt lat="43.32765" lon="-1.50865">
        <ele>169.2</ele>
        <time>2022-08-30T09:29:54Z</time>
      </trkpt>
      <trkpt lat="43.32764" lon="-1.50864">
        <ele>169.3</ele>
        <time>2022-08-30T09:29:55Z</time>
      </trkpt>
      <trkpt lat="43.32762" lon="-1.50861">
        <ele>169.5</ele>
        <time>2022-08-30T09:29:56Z</time>
      </trkpt>
      <trkpt lat="43.3276" lon="-1.50856">
        <ele>169.8</ele>
        <time>2022-08-30T09:29:57Z</time>
      </trkpt>
      <trkpt lat="43.32759" lon="-1.50854">
        <ele>169.9</ele>
        <time>2022-08-30T09:29:58Z</time>
      </trkpt>
      <trkpt lat="43.32757" lon="-1.5085">
        <ele>170.2</ele>
        <time>2022-08-30T09:29:59Z</time>
      </trkpt>
      <trkpt lat="43.32757" lon="-1.50848">
        <ele>170.3</ele>
        <time>2022-08-30T09:30:00Z</time>
      </trkpt>
      <trkpt lat="43.32754" lon="-1.50845">
        <ele>170.7</ele>
        <time>2022-08-30T09:30:01Z</time>
      </trkpt>
      <trkpt lat="43.32753" lon="-1.50844">
        <ele>170.9</ele>
        <time>2022-08-30T09:30:02Z</time>
      </trkpt>
      <trkpt lat="43.3275" lon="-1.50841">
        <ele>171.4</ele>
        <time>2022-08-30T09:30:03Z</time>
      </trkpt>
      <trkpt lat="43.32748" lon="-1.5084">
        <ele>171.7</ele>
        <time>2022-08-30T09:30:04Z</time>
      </trkpt>
      <trkpt lat="43.32745" lon="-1.50838">
        <ele>172.1</ele>
        <time>2022-08-30T09:30:05Z</time>
      </trkpt>
      <trkpt lat="43.32743" lon="-1.50836">
        <ele>172.6</ele>
        <time>2022-08-30T09:30:06Z</time>
      </trkpt>
      <trkpt lat="43.32741" lon="-1.50834">
        <ele>173.1</ele>
        <time>2022-08-30T09:30:07Z</time>
      </trkpt>
      <trkpt lat="43.32738" lon="-1.50831">
        <ele>173.7</ele>
        <time>2022-08-30T09:30:08Z</time>
      </trkpt>
      <trkpt lat="43.32737" lon="-1.5083">
        <ele>173.9</ele>
        <time>2022-08-30T09:30:09Z</time>
      </trkpt>
      <trkpt lat="43.32733" lon="-1.50828">
        <ele>174.5</ele>
        <time>2022-08-30T09:30:10Z</time>
      </trkpt>
      <trkpt lat="43.32732" lon="-1.50827">
        <ele>174.7</ele>
        <time>2022-08-30T09:30:11Z</time>
      </trkpt>
      <trkpt lat="43.32729" lon="-1.50825">
        <ele>175.2</ele>
        <time>2022-08-30T09:30:12Z</time>
      </trkpt>
      <trkpt lat="43.32728" lon="-1.50825">
        <ele>175.4</ele>
        <time>2022-08-30T09:30:13Z</time>
      </trkpt>
      <trkpt lat="43.32725" lon="-1.50823">
        <ele>175.9</ele>
        <time>2022-08-30T09:30:14Z</time>
      </trkpt>
      <trkpt lat="43.32723" lon="-1.50822">
        <ele>176.1</ele>
        <time>2022-08-30T09:30:15Z</time>
      </trkpt>
      <trkpt lat="43.3272" lon="-1.50821">
        <ele>176.6</ele>
        <time>2022-08-30T09:30:16Z</time>
      </trkpt>
      <trkpt lat="43.32719" lon="-1.5082">
        <ele>176.8</ele>
        <time>2022-08-30T09:30:17Z</time>
      </trkpt>
      <trkpt lat="43.32716" lon="-1.50818">
        <ele>177.2</ele>
        <time>2022-08-30T09:30:18Z</time>
      </trkpt>
      <trkpt lat="43.32715" lon="-1.50818">
        <ele>177.3</ele>
        <time>2022-08-30T09:30:19Z</time>
      </trkpt>
      <trkpt lat="43.32712" lon="-1.50816">
        <ele>177.6</ele>
        <time>2022-08-30T09:30:20Z</time>
      </trkpt>
      <trkpt lat="43.32711" lon="-1.50816">
        <ele>177.7</ele>
        <time>2022-08-30T09:30:21Z</time>
      </trkpt>
      <trkpt lat="43.32708" lon="-1.50815">
        <ele>177.9</ele>
        <time>2022-08-30T09:30:22Z</time>
      </trkpt>
      <trkpt lat="43.32707" lon="-1.50815">
        <ele>178</ele>
        <time>2022-08-30T09:30:23Z</time>
      </trkpt>
      <trkpt lat="43.32706" lon="-1.50814">
        <ele>178.1</ele>
        <time>2022-08-30T09:30:24Z</time>
      </trkpt>
      <trkpt lat="43.32704" lon="-1.50814">
        <ele>178.2</ele>
        <time>2022-08-30T09:30:25Z</time>
      </trkpt>
      <trkpt lat="43.327" lon="-1.50813">
        <ele>178.4</ele>
        <time>2022-08-30T09:30:26Z</time>
      </trkpt>
      <trkpt lat="43.32699" lon="-1.50813">
        <ele>178.5</ele>
        <time>2022-08-30T09:30:27Z</time>
      </trkpt>
      <trkpt lat="43.32697" lon="-1.50812">
        <ele>178.6</ele>
        <time>2022-08-30T09:30:28Z</time>
      </trkpt>
      <trkpt lat="43.32696" lon="-1.50812">
        <ele>178.7</ele>
        <time>2022-08-30T09:30:29Z</time>
      </trkpt>
      <trkpt lat="43.32694" lon="-1.50812">
        <ele>178.8</ele>
        <time>2022-08-30T09:30:30Z</time>
      </trkpt>
      <trkpt lat="43.32693" lon="-1.50811">
        <ele>178.9</ele>
        <time>2022-08-30T09:30:31Z</time>
      </trkpt>
      <trkpt lat="43.32691" lon="-1.50811">
        <ele>178.9</ele>
        <time>2022-08-30T09:30:32Z</time>
      </trkpt>
      <trkpt lat="43.3269" lon="-1.50812">
        <ele>179</ele>
        <time>2022-08-30T09:30:33Z</time>
      </trkpt>
      <trkpt lat="43.32687" lon="-1.50813">
        <ele>179.1</ele>
        <time>2022-08-30T09:30:34Z</time>
      </trkpt>
      <trkpt lat="43.32686" lon="-1.50813">
        <ele>179.2</ele>
        <time>2022-08-30T09:30:35Z</time>
      </trkpt>
      <trkpt lat="43.32685" lon="-1.50812">
        <ele>179.2</ele>
        <time>2022-08-30T09:30:36Z</time>
      </trkpt>
      <trkpt lat="43.32684" lon="-1.5081">
        <ele>179.2</ele>
        <time>2022-08-30T09:30:37Z</time>
      </trkpt>
      <trkpt lat="43.32683" lon="-1.50808">
        <ele>179.3</ele>
        <time>2022-08-30T09:30:38Z</time>
      </trkpt>
      <trkpt lat="43.32682" lon="-1.50807">
        <ele>179.3</ele>
        <time>2022-08-30T09:30:39Z</time>
      </trkpt>
      <trkpt lat="43.32681" lon="-1.50806">
        <ele>179.4</ele>
        <time>2022-08-30T09:30:40Z</time>
      </trkpt>
      <trkpt lat="43.32679" lon="-1.50806">
        <ele>179.4</ele>
        <time>2022-08-30T09:30:41Z</time>
      </trkpt>
      <trkpt lat="43.32676" lon="-1.50804">
        <ele>179.8</ele>
        <time>2022-08-30T09:30:42Z</time>
      </trkpt>
      <trkpt lat="43.32675" lon="-1.50803">
        <ele>180</ele>
        <time>2022-08-30T09:30:43Z</time>
      </trkpt>
      <trkpt lat="43.32673" lon="-1.508">
        <ele>180.2</ele>
        <time>2022-08-30T09:30:44Z</time>
      </trkpt>
      <trkpt lat="43.32671" lon="-1.50796">
        <ele>180.8</ele>
        <time>2022-08-30T09:30:45Z</time>
      </trkpt>
      <trkpt lat="43.3267" lon="-1.50792">
        <ele>180.8</ele>
        <time>2022-08-30T09:30:46Z</time>
      </trkpt>
      <trkpt lat="43.32669" lon="-1.50788">
        <ele>180.8</ele>
        <time>2022-08-30T09:30:47Z</time>
      </trkpt>
      <trkpt lat="43.32668" lon="-1.50785">
        <ele>180.7</ele>
        <time>2022-08-30T09:30:48Z</time>
      </trkpt>
      <trkpt lat="43.32666" lon="-1.5078">
        <ele>180.7</ele>
        <time>2022-08-30T09:30:49Z</time>
      </trkpt>
      <trkpt lat="43.32665" lon="-1.50776">
        <ele>180.7</ele>
        <time>2022-08-30T09:30:50Z</time>
      </trkpt>
      <trkpt lat="43.32664" lon="-1.50772">
        <ele>180.7</ele>
        <time>2022-08-30T09:30:51Z</time>
      </trkpt>
      <trkpt lat="43.32662" lon="-1.50768">
        <ele>180.7</ele>
        <time>2022-08-30T09:30:52Z</time>
      </trkpt>
      <trkpt lat="43.32661" lon="-1.50764">
        <ele>180.7</ele>
        <time>2022-08-30T09:30:53Z</time>
      </trkpt>
      <trkpt lat="43.3266" lon="-1.50761">
        <ele>180.8</ele>
        <time>2022-08-30T09:30:54Z</time>
      </trkpt>
      <trkpt lat="43.32658" lon="-1.50757">
        <ele>180.8</ele>
        <time>2022-08-30T09:30:55Z</time>
      </trkpt>
      <trkpt lat="43.32657" lon="-1.50754">
        <ele>180.9</ele>
        <time>2022-08-30T09:30:56Z</time>
      </trkpt>
      <trkpt lat="43.32655" lon="-1.5075">
        <ele>180.9</ele>
        <time>2022-08-30T09:30:57Z</time>
      </trkpt>
      <trkpt lat="43.32654" lon="-1.50746">
        <ele>181</ele>
        <time>2022-08-30T09:30:58Z</time>
      </trkpt>
      <trkpt lat="43.32652" lon="-1.50743">
        <ele>181.1</ele>
        <time>2022-08-30T09:30:59Z</time>
      </trkpt>
      <trkpt lat="43.32651" lon="-1.50739">
        <ele>181.2</ele>
        <time>2022-08-30T09:31:00Z</time>
      </trkpt>
      <trkpt lat="43.3265" lon="-1.50736">
        <ele>181.3</ele>
        <time>2022-08-30T09:31:01Z</time>
      </trkpt>
      <trkpt lat="43.32648" lon="-1.50732">
        <ele>181.4</ele>
        <time>2022-08-30T09:31:02Z</time>
      </trkpt>
      <trkpt lat="43.32647" lon="-1.50728">
        <ele>181.5</ele>
        <time>2022-08-30T09:31:03Z</time>
      </trkpt>
      <trkpt lat="43.32645" lon="-1.50725">
        <ele>181.7</ele>
        <time>2022-08-30T09:31:04Z</time>
      </trkpt>
      <trkpt lat="43.32644" lon="-1.50721">
        <ele>181.8</ele>
        <time>2022-08-30T09:31:05Z</time>
      </trkpt>
      <trkpt lat="43.32643" lon="-1.50718">
        <ele>182</ele>
        <time>2022-08-30T09:31:06Z</time>
      </trkpt>
      <trkpt lat="43.32641" lon="-1.50714">
        <ele>182.2</ele>
        <time>2022-08-30T09:31:07Z</time>
      </trkpt>
      <trkpt lat="43.3264" lon="-1.50711">
        <ele>182.4</ele>
        <time>2022-08-30T09:31:08Z</time>
      </trkpt>
      <trkpt lat="43.32639" lon="-1.50707">
        <ele>182.6</ele>
        <time>2022-08-30T09:31:09Z</time>
      </trkpt>
      <trkpt lat="43.32637" lon="-1.50704">
        <ele>182.8</ele>
        <time>2022-08-30T09:31:10Z</time>
      </trkpt>
      <trkpt lat="43.32636" lon="-1.507">
        <ele>183</ele>
        <time>2022-08-30T09:31:11Z</time>
      </trkpt>
      <trkpt lat="43.32635" lon="-1.50697">
        <ele>183.3</ele>
        <time>2022-08-30T09:31:12Z</time>
      </trkpt>
      <trkpt lat="43.32633" lon="-1.50692">
        <ele>183.6</ele>
        <time>2022-08-30T09:31:13Z</time>
      </trkpt>
      <trkpt lat="43.32632" lon="-1.5069">
        <ele>183.8</ele>
        <time>2022-08-30T09:31:14Z</time>
      </trkpt>
      <trkpt lat="43.3263" lon="-1.50685">
        <ele>184.2</ele>
        <time>2022-08-30T09:31:15Z</time>
      </trkpt>
      <trkpt lat="43.3263" lon="-1.50684">
        <ele>184.3</ele>
        <time>2022-08-30T09:31:16Z</time>
      </trkpt>
      <trkpt lat="43.32629" lon="-1.5068">
        <ele>184.6</ele>
        <time>2022-08-30T09:31:17Z</time>
      </trkpt>
      <trkpt lat="43.32627" lon="-1.50676">
        <ele>185</ele>
        <time>2022-08-30T09:31:18Z</time>
      </trkpt>
      <trkpt lat="43.32626" lon="-1.50673">
        <ele>185.3</ele>
        <time>2022-08-30T09:31:19Z</time>
      </trkpt>
      <trkpt lat="43.32624" lon="-1.50668">
        <ele>185.8</ele>
        <time>2022-08-30T09:31:20Z</time>
      </trkpt>
      <trkpt lat="43.32624" lon="-1.50666">
        <ele>185.9</ele>
        <time>2022-08-30T09:31:21Z</time>
      </trkpt>
      <trkpt lat="43.32622" lon="-1.50662">
        <ele>186.4</ele>
        <time>2022-08-30T09:31:22Z</time>
      </trkpt>
      <trkpt lat="43.32621" lon="-1.5066">
        <ele>186.6</ele>
        <time>2022-08-30T09:31:23Z</time>
      </trkpt>
      <trkpt lat="43.32619" lon="-1.50657">
        <ele>187</ele>
        <time>2022-08-30T09:31:24Z</time>
      </trkpt>
      <trkpt lat="43.32618" lon="-1.50654">
        <ele>187.4</ele>
        <time>2022-08-30T09:31:25Z</time>
      </trkpt>
      <trkpt lat="43.32616" lon="-1.50649">
        <ele>188</ele>
        <time>2022-08-30T09:31:26Z</time>
      </trkpt>
      <trkpt lat="43.32616" lon="-1.50647">
        <ele>188.2</ele>
        <time>2022-08-30T09:31:27Z</time>
      </trkpt>
      <trkpt lat="43.32614" lon="-1.50642">
        <ele>188.7</ele>
        <time>2022-08-30T09:31:28Z</time>
      </trkpt>
      <trkpt lat="43.32613" lon="-1.50641">
        <ele>189</ele>
        <time>2022-08-30T09:31:29Z</time>
      </trkpt>
      <trkpt lat="43.32612" lon="-1.50637">
        <ele>189.4</ele>
        <time>2022-08-30T09:31:30Z</time>
      </trkpt>
      <trkpt lat="43.3261" lon="-1.50633">
        <ele>190</ele>
        <time>2022-08-30T09:31:31Z</time>
      </trkpt>
      <trkpt lat="43.32609" lon="-1.50632">
        <ele>190.2</ele>
        <time>2022-08-30T09:31:32Z</time>
      </trkpt>
      <trkpt lat="43.32607" lon="-1.50627">
        <ele>190.8</ele>
        <time>2022-08-30T09:31:33Z</time>
      </trkpt>
      <trkpt lat="43.32606" lon="-1.50625">
        <ele>191.1</ele>
        <time>2022-08-30T09:31:34Z</time>
      </trkpt>
      <trkpt lat="43.32605" lon="-1.50622">
        <ele>191.5</ele>
        <time>2022-08-30T09:31:35Z</time>
      </trkpt>
      <trkpt lat="43.32603" lon="-1.50617">
        <ele>192.2</ele>
        <time>2022-08-30T09:31:36Z</time>
      </trkpt>
      <trkpt lat="43.32602" lon="-1.50616">
        <ele>192.4</ele>
        <time>2022-08-30T09:31:37Z</time>
      </trkpt>
      <trkpt lat="43.326" lon="-1.50611">
        <ele>193.1</ele>
        <time>2022-08-30T09:31:38Z</time>
      </trkpt>
      <trkpt lat="43.32599" lon="-1.5061">
        <ele>193.3</ele>
        <time>2022-08-30T09:31:39Z</time>
      </trkpt>
      <trkpt lat="43.32597" lon="-1.50607">
        <ele>193.7</ele>
        <time>2022-08-30T09:31:40Z</time>
      </trkpt>
      <trkpt lat="43.32595" lon="-1.50603">
        <ele>194.4</ele>
        <time>2022-08-30T09:31:41Z</time>
      </trkpt>
      <trkpt lat="43.32594" lon="-1.50602">
        <ele>194.6</ele>
        <time>2022-08-30T09:31:42Z</time>
      </trkpt>
      <trkpt lat="43.32591" lon="-1.50598">
        <ele>195.2</ele>
        <time>2022-08-30T09:31:43Z</time>
      </trkpt>
      <trkpt lat="43.32591" lon="-1.50597">
        <ele>195.4</ele>
        <time>2022-08-30T09:31:44Z</time>
      </trkpt>
      <trkpt lat="43.32589" lon="-1.50593">
        <ele>196</ele>
        <time>2022-08-30T09:31:45Z</time>
      </trkpt>
      <trkpt lat="43.32587" lon="-1.5059">
        <ele>196.4</ele>
        <time>2022-08-30T09:31:46Z</time>
      </trkpt>
      <trkpt lat="43.32586" lon="-1.50586">
        <ele>197</ele>
        <time>2022-08-30T09:31:47Z</time>
      </trkpt>
      <trkpt lat="43.32584" lon="-1.50583">
        <ele>197.4</ele>
        <time>2022-08-30T09:31:48Z</time>
      </trkpt>
      <trkpt lat="43.32582" lon="-1.50578">
        <ele>198.2</ele>
        <time>2022-08-30T09:31:49Z</time>
      </trkpt>
      <trkpt lat="43.32581" lon="-1.50577">
        <ele>198.4</ele>
        <time>2022-08-30T09:31:50Z</time>
      </trkpt>
      <trkpt lat="43.32579" lon="-1.50572">
        <ele>199.1</ele>
        <time>2022-08-30T09:31:51Z</time>
      </trkpt>
      <trkpt lat="43.32578" lon="-1.50571">
        <ele>199.4</ele>
        <time>2022-08-30T09:31:52Z</time>
      </trkpt>
      <trkpt lat="43.32577" lon="-1.50567">
        <ele>199.9</ele>
        <time>2022-08-30T09:31:53Z</time>
      </trkpt>
      <trkpt lat="43.32575" lon="-1.50564">
        <ele>200.4</ele>
        <time>2022-08-30T09:31:54Z</time>
      </trkpt>
      <trkpt lat="43.32573" lon="-1.5056">
        <ele>201</ele>
        <time>2022-08-30T09:31:55Z</time>
      </trkpt>
      <trkpt lat="43.32572" lon="-1.50557">
        <ele>201.6</ele>
        <time>2022-08-30T09:31:56Z</time>
      </trkpt>
      <trkpt lat="43.32571" lon="-1.50553">
        <ele>202.1</ele>
        <time>2022-08-30T09:31:57Z</time>
      </trkpt>
      <trkpt lat="43.3257" lon="-1.50549">
        <ele>202.8</ele>
        <time>2022-08-30T09:31:58Z</time>
      </trkpt>
      <trkpt lat="43.32569" lon="-1.50547">
        <ele>203.1</ele>
        <time>2022-08-30T09:31:59Z</time>
      </trkpt>
      <trkpt lat="43.32568" lon="-1.50544">
        <ele>203.6</ele>
        <time>2022-08-30T09:32:00Z</time>
      </trkpt>
      <trkpt lat="43.32566" lon="-1.5054">
        <ele>204.2</ele>
        <time>2022-08-30T09:32:01Z</time>
      </trkpt>
      <trkpt lat="43.32565" lon="-1.50537">
        <ele>204.7</ele>
        <time>2022-08-30T09:32:02Z</time>
      </trkpt>
      <trkpt lat="43.32563" lon="-1.50533">
        <ele>205.3</ele>
        <time>2022-08-30T09:32:03Z</time>
      </trkpt>
      <trkpt lat="43.32562" lon="-1.5053">
        <ele>205.9</ele>
        <time>2022-08-30T09:32:04Z</time>
      </trkpt>
      <trkpt lat="43.3256" lon="-1.50525">
        <ele>206.7</ele>
        <time>2022-08-30T09:32:05Z</time>
      </trkpt>
      <trkpt lat="43.32559" lon="-1.50523">
        <ele>207</ele>
        <time>2022-08-30T09:32:06Z</time>
      </trkpt>
      <trkpt lat="43.32558" lon="-1.5052">
        <ele>207.6</ele>
        <time>2022-08-30T09:32:07Z</time>
      </trkpt>
      <trkpt lat="43.32556" lon="-1.50517">
        <ele>208.1</ele>
        <time>2022-08-30T09:32:08Z</time>
      </trkpt>
      <trkpt lat="43.32555" lon="-1.50514">
        <ele>208.7</ele>
        <time>2022-08-30T09:32:09Z</time>
      </trkpt>
      <trkpt lat="43.32553" lon="-1.50511">
        <ele>209.3</ele>
        <time>2022-08-30T09:32:10Z</time>
      </trkpt>
      <trkpt lat="43.32552" lon="-1.50508">
        <ele>209.9</ele>
        <time>2022-08-30T09:32:11Z</time>
      </trkpt>
      <trkpt lat="43.3255" lon="-1.50504">
        <ele>210.5</ele>
        <time>2022-08-30T09:32:12Z</time>
      </trkpt>
      <trkpt lat="43.32548" lon="-1.505">
        <ele>211.3</ele>
        <time>2022-08-30T09:32:13Z</time>
      </trkpt>
      <trkpt lat="43.32547" lon="-1.50498">
        <ele>211.5</ele>
        <time>2022-08-30T09:32:14Z</time>
      </trkpt>
      <trkpt lat="43.32546" lon="-1.50495">
        <ele>212</ele>
        <time>2022-08-30T09:32:15Z</time>
      </trkpt>
      <trkpt lat="43.32544" lon="-1.50491">
        <ele>212.6</ele>
        <time>2022-08-30T09:32:16Z</time>
      </trkpt>
      <trkpt lat="43.32542" lon="-1.50488">
        <ele>213.2</ele>
        <time>2022-08-30T09:32:17Z</time>
      </trkpt>
      <trkpt lat="43.32541" lon="-1.50485">
        <ele>213.8</ele>
        <time>2022-08-30T09:32:18Z</time>
      </trkpt>
      <trkpt lat="43.32539" lon="-1.50482">
        <ele>214.3</ele>
        <time>2022-08-30T09:32:19Z</time>
      </trkpt>
      <trkpt lat="43.32537" lon="-1.50477">
        <ele>215.1</ele>
        <time>2022-08-30T09:32:20Z</time>
      </trkpt>
      <trkpt lat="43.32536" lon="-1.50476">
        <ele>215.3</ele>
        <time>2022-08-30T09:32:21Z</time>
      </trkpt>
      <trkpt lat="43.32534" lon="-1.50471">
        <ele>216.1</ele>
        <time>2022-08-30T09:32:22Z</time>
      </trkpt>
      <trkpt lat="43.32533" lon="-1.5047">
        <ele>216.4</ele>
        <time>2022-08-30T09:32:23Z</time>
      </trkpt>
      <trkpt lat="43.32532" lon="-1.50466">
        <ele>216.9</ele>
        <time>2022-08-30T09:32:24Z</time>
      </trkpt>
      <trkpt lat="43.3253" lon="-1.50463">
        <ele>217.5</ele>
        <time>2022-08-30T09:32:25Z</time>
      </trkpt>
      <trkpt lat="43.32528" lon="-1.50458">
        <ele>218.3</ele>
        <time>2022-08-30T09:32:26Z</time>
      </trkpt>
      <trkpt lat="43.32527" lon="-1.50457">
        <ele>218.5</ele>
        <time>2022-08-30T09:32:27Z</time>
      </trkpt>
      <trkpt lat="43.32524" lon="-1.50452">
        <ele>219.3</ele>
        <time>2022-08-30T09:32:28Z</time>
      </trkpt>
      <trkpt lat="43.32524" lon="-1.50451">
        <ele>219.5</ele>
        <time>2022-08-30T09:32:29Z</time>
      </trkpt>
      <trkpt lat="43.32523" lon="-1.50447">
        <ele>220</ele>
        <time>2022-08-30T09:32:30Z</time>
      </trkpt>
      <trkpt lat="43.32522" lon="-1.50444">
        <ele>220.5</ele>
        <time>2022-08-30T09:32:31Z</time>
      </trkpt>
      <trkpt lat="43.3252" lon="-1.5044">
        <ele>221.2</ele>
        <time>2022-08-30T09:32:32Z</time>
      </trkpt>
      <trkpt lat="43.32519" lon="-1.50438">
        <ele>221.4</ele>
        <time>2022-08-30T09:32:33Z</time>
      </trkpt>
      <trkpt lat="43.32518" lon="-1.50433">
        <ele>222.1</ele>
        <time>2022-08-30T09:32:34Z</time>
      </trkpt>
      <trkpt lat="43.32517" lon="-1.50432">
        <ele>222.4</ele>
        <time>2022-08-30T09:32:35Z</time>
      </trkpt>
      <trkpt lat="43.32516" lon="-1.50427">
        <ele>223.1</ele>
        <time>2022-08-30T09:32:36Z</time>
      </trkpt>
      <trkpt lat="43.32515" lon="-1.50425">
        <ele>223.3</ele>
        <time>2022-08-30T09:32:37Z</time>
      </trkpt>
      <trkpt lat="43.32514" lon="-1.50421">
        <ele>223.8</ele>
        <time>2022-08-30T09:32:38Z</time>
      </trkpt>
      <trkpt lat="43.32513" lon="-1.50418">
        <ele>224.4</ele>
        <time>2022-08-30T09:32:39Z</time>
      </trkpt>
      <trkpt lat="43.32512" lon="-1.50414">
        <ele>224.8</ele>
        <time>2022-08-30T09:32:40Z</time>
      </trkpt>
      <trkpt lat="43.3251" lon="-1.50411">
        <ele>225.4</ele>
        <time>2022-08-30T09:32:41Z</time>
      </trkpt>
      <trkpt lat="43.32508" lon="-1.50407">
        <ele>226.1</ele>
        <time>2022-08-30T09:32:42Z</time>
      </trkpt>
      <trkpt lat="43.32507" lon="-1.50405">
        <ele>226.3</ele>
        <time>2022-08-30T09:32:43Z</time>
      </trkpt>
      <trkpt lat="43.32506" lon="-1.50401">
        <ele>226.9</ele>
        <time>2022-08-30T09:32:44Z</time>
      </trkpt>
      <trkpt lat="43.32505" lon="-1.50399">
        <ele>227.1</ele>
        <time>2022-08-30T09:32:45Z</time>
      </trkpt>
      <trkpt lat="43.32503" lon="-1.50395">
        <ele>227.8</ele>
        <time>2022-08-30T09:32:46Z</time>
      </trkpt>
      <trkpt lat="43.32502" lon="-1.50394">
        <ele>228</ele>
        <time>2022-08-30T09:32:47Z</time>
      </trkpt>
      <trkpt lat="43.325" lon="-1.50391">
        <ele>228.4</ele>
        <time>2022-08-30T09:32:48Z</time>
      </trkpt>
      <trkpt lat="43.32498" lon="-1.50387">
        <ele>229</ele>
        <time>2022-08-30T09:32:49Z</time>
      </trkpt>
      <trkpt lat="43.32497" lon="-1.50386">
        <ele>229.2</ele>
        <time>2022-08-30T09:32:50Z</time>
      </trkpt>
      <trkpt lat="43.32494" lon="-1.50382">
        <ele>229.8</ele>
        <time>2022-08-30T09:32:51Z</time>
      </trkpt>
      <trkpt lat="43.32494" lon="-1.50381">
        <ele>230</ele>
        <time>2022-08-30T09:32:52Z</time>
      </trkpt>
      <trkpt lat="43.32491" lon="-1.50376">
        <ele>230.7</ele>
        <time>2022-08-30T09:32:53Z</time>
      </trkpt>
      <trkpt lat="43.32491" lon="-1.50375">
        <ele>230.9</ele>
        <time>2022-08-30T09:32:54Z</time>
      </trkpt>
      <trkpt lat="43.32488" lon="-1.50371">
        <ele>231.4</ele>
        <time>2022-08-30T09:32:55Z</time>
      </trkpt>
      <trkpt lat="43.32488" lon="-1.50369">
        <ele>231.6</ele>
        <time>2022-08-30T09:32:56Z</time>
      </trkpt>
      <trkpt lat="43.32486" lon="-1.50365">
        <ele>232.2</ele>
        <time>2022-08-30T09:32:57Z</time>
      </trkpt>
      <trkpt lat="43.32485" lon="-1.50364">
        <ele>232.3</ele>
        <time>2022-08-30T09:32:58Z</time>
      </trkpt>
      <trkpt lat="43.32483" lon="-1.50359">
        <ele>232.9</ele>
        <time>2022-08-30T09:32:59Z</time>
      </trkpt>
      <trkpt lat="43.32482" lon="-1.50358">
        <ele>233.1</ele>
        <time>2022-08-30T09:33:00Z</time>
      </trkpt>
      <trkpt lat="43.32481" lon="-1.50352">
        <ele>233.7</ele>
        <time>2022-08-30T09:33:01Z</time>
      </trkpt>
      <trkpt lat="43.32481" lon="-1.5035">
        <ele>233.8</ele>
        <time>2022-08-30T09:33:02Z</time>
      </trkpt>
      <trkpt lat="43.32481" lon="-1.50346">
        <ele>234.3</ele>
        <time>2022-08-30T09:33:03Z</time>
      </trkpt>
      <trkpt lat="43.32481" lon="-1.50342">
        <ele>234.6</ele>
        <time>2022-08-30T09:33:04Z</time>
      </trkpt>
      <trkpt lat="43.32482" lon="-1.50337">
        <ele>235.1</ele>
        <time>2022-08-30T09:33:05Z</time>
      </trkpt>
      <trkpt lat="43.32482" lon="-1.50336">
        <ele>235.2</ele>
        <time>2022-08-30T09:33:06Z</time>
      </trkpt>
      <trkpt lat="43.32484" lon="-1.50331">
        <ele>235.6</ele>
        <time>2022-08-30T09:33:07Z</time>
      </trkpt>
      <trkpt lat="43.32484" lon="-1.50329">
        <ele>235.8</ele>
        <time>2022-08-30T09:33:08Z</time>
      </trkpt>
      <trkpt lat="43.32486" lon="-1.50326">
        <ele>236.1</ele>
        <time>2022-08-30T09:33:09Z</time>
      </trkpt>
      <trkpt lat="43.32488" lon="-1.50322">
        <ele>236.4</ele>
        <time>2022-08-30T09:33:10Z</time>
      </trkpt>
      <trkpt lat="43.32488" lon="-1.50321">
        <ele>236.5</ele>
        <time>2022-08-30T09:33:11Z</time>
      </trkpt>
      <trkpt lat="43.3249" lon="-1.50317">
        <ele>236.7</ele>
        <time>2022-08-30T09:33:12Z</time>
      </trkpt>
      <trkpt lat="43.32491" lon="-1.50316">
        <ele>236.8</ele>
        <time>2022-08-30T09:33:13Z</time>
      </trkpt>
      <trkpt lat="43.32493" lon="-1.50312">
        <ele>237.1</ele>
        <time>2022-08-30T09:33:14Z</time>
      </trkpt>
      <trkpt lat="43.32493" lon="-1.5031">
        <ele>237.2</ele>
        <time>2022-08-30T09:33:15Z</time>
      </trkpt>
      <trkpt lat="43.32495" lon="-1.50305">
        <ele>237.4</ele>
        <time>2022-08-30T09:33:16Z</time>
      </trkpt>
      <trkpt lat="43.32495" lon="-1.50304">
        <ele>237.5</ele>
        <time>2022-08-30T09:33:17Z</time>
      </trkpt>
      <trkpt lat="43.32495" lon="-1.50299">
        <ele>237.7</ele>
        <time>2022-08-30T09:33:18Z</time>
      </trkpt>
      <trkpt lat="43.32495" lon="-1.50297">
        <ele>237.8</ele>
        <time>2022-08-30T09:33:19Z</time>
      </trkpt>
      <trkpt lat="43.32494" lon="-1.50292">
        <ele>238</ele>
        <time>2022-08-30T09:33:20Z</time>
      </trkpt>
      <trkpt lat="43.32493" lon="-1.50291">
        <ele>238.1</ele>
        <time>2022-08-30T09:33:21Z</time>
      </trkpt>
      <trkpt lat="43.32491" lon="-1.50287">
        <ele>238.2</ele>
        <time>2022-08-30T09:33:22Z</time>
      </trkpt>
      <trkpt lat="43.3249" lon="-1.50284">
        <ele>238.4</ele>
        <time>2022-08-30T09:33:23Z</time>
      </trkpt>
      <trkpt lat="43.32489" lon="-1.5028">
        <ele>238.6</ele>
        <time>2022-08-30T09:33:24Z</time>
      </trkpt>
      <trkpt lat="43.32488" lon="-1.50276">
        <ele>238.7</ele>
        <time>2022-08-30T09:33:25Z</time>
      </trkpt>
      <trkpt lat="43.32487" lon="-1.50272">
        <ele>238.9</ele>
        <time>2022-08-30T09:33:26Z</time>
      </trkpt>
      <trkpt lat="43.32486" lon="-1.50269">
        <ele>239</ele>
        <time>2022-08-30T09:33:27Z</time>
      </trkpt>
      <trkpt lat="43.32485" lon="-1.50265">
        <ele>239.2</ele>
        <time>2022-08-30T09:33:28Z</time>
      </trkpt>
      <trkpt lat="43.32484" lon="-1.50262">
        <ele>239.3</ele>
        <time>2022-08-30T09:33:29Z</time>
      </trkpt>
      <trkpt lat="43.32483" lon="-1.50258">
        <ele>239.5</ele>
        <time>2022-08-30T09:33:30Z</time>
      </trkpt>
      <trkpt lat="43.32482" lon="-1.50255">
        <ele>239.7</ele>
        <time>2022-08-30T09:33:31Z</time>
      </trkpt>
      <trkpt lat="43.32481" lon="-1.50251">
        <ele>239.8</ele>
        <time>2022-08-30T09:33:32Z</time>
      </trkpt>
      <trkpt lat="43.3248" lon="-1.50247">
        <ele>240</ele>
        <time>2022-08-30T09:33:33Z</time>
      </trkpt>
      <trkpt lat="43.32479" lon="-1.50244">
        <ele>240.1</ele>
        <time>2022-08-30T09:33:34Z</time>
      </trkpt>
      <trkpt lat="43.32479" lon="-1.5024">
        <ele>240.3</ele>
        <time>2022-08-30T09:33:35Z</time>
      </trkpt>
      <trkpt lat="43.32478" lon="-1.50235">
        <ele>240.5</ele>
        <time>2022-08-30T09:33:36Z</time>
      </trkpt>
      <trkpt lat="43.32478" lon="-1.50234">
        <ele>240.6</ele>
        <time>2022-08-30T09:33:37Z</time>
      </trkpt>
      <trkpt lat="43.32477" lon="-1.50228">
        <ele>240.8</ele>
        <time>2022-08-30T09:33:38Z</time>
      </trkpt>
      <trkpt lat="43.32476" lon="-1.50226">
        <ele>240.9</ele>
        <time>2022-08-30T09:33:39Z</time>
      </trkpt>
      <trkpt lat="43.32476" lon="-1.50221">
        <ele>241.1</ele>
        <time>2022-08-30T09:33:40Z</time>
      </trkpt>
      <trkpt lat="43.32475" lon="-1.50219">
        <ele>241.2</ele>
        <time>2022-08-30T09:33:41Z</time>
      </trkpt>
      <trkpt lat="43.32475" lon="-1.50214">
        <ele>241.4</ele>
        <time>2022-08-30T09:33:42Z</time>
      </trkpt>
      <trkpt lat="43.32475" lon="-1.50212">
        <ele>241.4</ele>
        <time>2022-08-30T09:33:43Z</time>
      </trkpt>
      <trkpt lat="43.32475" lon="-1.50208">
        <ele>241.6</ele>
        <time>2022-08-30T09:33:44Z</time>
      </trkpt>
      <trkpt lat="43.32475" lon="-1.50204">
        <ele>241.7</ele>
        <time>2022-08-30T09:33:45Z</time>
      </trkpt>
      <trkpt lat="43.32474" lon="-1.502">
        <ele>241.8</ele>
        <time>2022-08-30T09:33:46Z</time>
      </trkpt>
      <trkpt lat="43.32474" lon="-1.50196">
        <ele>241.9</ele>
        <time>2022-08-30T09:33:47Z</time>
      </trkpt>
      <trkpt lat="43.32474" lon="-1.50192">
        <ele>242</ele>
        <time>2022-08-30T09:33:48Z</time>
      </trkpt>
      <trkpt lat="43.32474" lon="-1.50188">
        <ele>242.1</ele>
        <time>2022-08-30T09:33:49Z</time>
      </trkpt>
      <trkpt lat="43.32474" lon="-1.50185">
        <ele>242.2</ele>
        <time>2022-08-30T09:33:50Z</time>
      </trkpt>
      <trkpt lat="43.32474" lon="-1.50181">
        <ele>242.2</ele>
        <time>2022-08-30T09:33:51Z</time>
      </trkpt>
      <trkpt lat="43.32474" lon="-1.50175">
        <ele>242.4</ele>
        <time>2022-08-30T09:33:52Z</time>
      </trkpt>
      <trkpt lat="43.32474" lon="-1.50173">
        <ele>242.4</ele>
        <time>2022-08-30T09:33:53Z</time>
      </trkpt>
      <trkpt lat="43.32475" lon="-1.50169">
        <ele>242.5</ele>
        <time>2022-08-30T09:33:54Z</time>
      </trkpt>
      <trkpt lat="43.32475" lon="-1.50166">
        <ele>242.6</ele>
        <time>2022-08-30T09:33:55Z</time>
      </trkpt>
      <trkpt lat="43.32476" lon="-1.50162">
        <ele>242.7</ele>
        <time>2022-08-30T09:33:56Z</time>
      </trkpt>
      <trkpt lat="43.32476" lon="-1.50157">
        <ele>242.8</ele>
        <time>2022-08-30T09:33:57Z</time>
      </trkpt>
      <trkpt lat="43.32476" lon="-1.50155">
        <ele>242.8</ele>
        <time>2022-08-30T09:33:58Z</time>
      </trkpt>
      <trkpt lat="43.32477" lon="-1.50151">
        <ele>242.9</ele>
        <time>2022-08-30T09:33:59Z</time>
      </trkpt>
      <trkpt lat="43.32478" lon="-1.50146">
        <ele>243.1</ele>
        <time>2022-08-30T09:34:00Z</time>
      </trkpt>
      <trkpt lat="43.32478" lon="-1.50144">
        <ele>243.1</ele>
        <time>2022-08-30T09:34:01Z</time>
      </trkpt>
      <trkpt lat="43.32479" lon="-1.5014">
        <ele>243.2</ele>
        <time>2022-08-30T09:34:02Z</time>
      </trkpt>
      <trkpt lat="43.3248" lon="-1.50137">
        <ele>243.3</ele>
        <time>2022-08-30T09:34:03Z</time>
      </trkpt>
      <trkpt lat="43.32481" lon="-1.50134">
        <ele>243.4</ele>
        <time>2022-08-30T09:34:04Z</time>
      </trkpt>
      <trkpt lat="43.32483" lon="-1.50129">
        <ele>243.6</ele>
        <time>2022-08-30T09:34:05Z</time>
      </trkpt>
      <trkpt lat="43.32484" lon="-1.50128">
        <ele>243.6</ele>
        <time>2022-08-30T09:34:06Z</time>
      </trkpt>
      <trkpt lat="43.32485" lon="-1.50123">
        <ele>243.8</ele>
        <time>2022-08-30T09:34:07Z</time>
      </trkpt>
      <trkpt lat="43.32485" lon="-1.50121">
        <ele>243.9</ele>
        <time>2022-08-30T09:34:08Z</time>
      </trkpt>
      <trkpt lat="43.32486" lon="-1.50115">
        <ele>244.1</ele>
        <time>2022-08-30T09:34:09Z</time>
      </trkpt>
      <trkpt lat="43.32486" lon="-1.50114">
        <ele>244.1</ele>
        <time>2022-08-30T09:34:10Z</time>
      </trkpt>
      <trkpt lat="43.32487" lon="-1.50109">
        <ele>244.3</ele>
        <time>2022-08-30T09:34:11Z</time>
      </trkpt>
      <trkpt lat="43.32487" lon="-1.50107">
        <ele>244.4</ele>
        <time>2022-08-30T09:34:12Z</time>
      </trkpt>
      <trkpt lat="43.32488" lon="-1.50102">
        <ele>244.6</ele>
        <time>2022-08-30T09:34:13Z</time>
      </trkpt>
      <trkpt lat="43.32488" lon="-1.501">
        <ele>244.7</ele>
        <time>2022-08-30T09:34:14Z</time>
      </trkpt>
      <trkpt lat="43.32488" lon="-1.50095">
        <ele>244.9</ele>
        <time>2022-08-30T09:34:15Z</time>
      </trkpt>
      <trkpt lat="43.32488" lon="-1.50093">
        <ele>244.9</ele>
        <time>2022-08-30T09:34:16Z</time>
      </trkpt>
      <trkpt lat="43.32488" lon="-1.50088">
        <ele>245.2</ele>
        <time>2022-08-30T09:34:17Z</time>
      </trkpt>
      <trkpt lat="43.32488" lon="-1.50086">
        <ele>245.2</ele>
        <time>2022-08-30T09:34:18Z</time>
      </trkpt>
      <trkpt lat="43.32488" lon="-1.50083">
        <ele>245.4</ele>
        <time>2022-08-30T09:34:19Z</time>
      </trkpt>
      <trkpt lat="43.32488" lon="-1.50078">
        <ele>245.6</ele>
        <time>2022-08-30T09:34:20Z</time>
      </trkpt>
      <trkpt lat="43.32488" lon="-1.50076">
        <ele>245.7</ele>
        <time>2022-08-30T09:34:21Z</time>
      </trkpt>
      <trkpt lat="43.32488" lon="-1.50071">
        <ele>246</ele>
        <time>2022-08-30T09:34:22Z</time>
      </trkpt>
      <trkpt lat="43.32488" lon="-1.50069">
        <ele>246.1</ele>
        <time>2022-08-30T09:34:23Z</time>
      </trkpt>
      <trkpt lat="43.32487" lon="-1.50064">
        <ele>246.3</ele>
        <time>2022-08-30T09:34:24Z</time>
      </trkpt>
      <trkpt lat="43.32487" lon="-1.50062">
        <ele>246.4</ele>
        <time>2022-08-30T09:34:25Z</time>
      </trkpt>
      <trkpt lat="43.32486" lon="-1.50058">
        <ele>246.6</ele>
        <time>2022-08-30T09:34:26Z</time>
      </trkpt>
      <trkpt lat="43.32485" lon="-1.50055">
        <ele>246.8</ele>
        <time>2022-08-30T09:34:27Z</time>
      </trkpt>
      <trkpt lat="43.32484" lon="-1.5005">
        <ele>247.1</ele>
        <time>2022-08-30T09:34:28Z</time>
      </trkpt>
      <trkpt lat="43.32484" lon="-1.50048">
        <ele>247.2</ele>
        <time>2022-08-30T09:34:29Z</time>
      </trkpt>
      <trkpt lat="43.32483" lon="-1.50043">
        <ele>247.4</ele>
        <time>2022-08-30T09:34:30Z</time>
      </trkpt>
      <trkpt lat="43.32482" lon="-1.50041">
        <ele>247.5</ele>
        <time>2022-08-30T09:34:31Z</time>
      </trkpt>
      <trkpt lat="43.32481" lon="-1.50037">
        <ele>247.7</ele>
        <time>2022-08-30T09:34:32Z</time>
      </trkpt>
      <trkpt lat="43.3248" lon="-1.50034">
        <ele>247.8</ele>
        <time>2022-08-30T09:34:33Z</time>
      </trkpt>
      <trkpt lat="43.32479" lon="-1.5003">
        <ele>248</ele>
        <time>2022-08-30T09:34:34Z</time>
      </trkpt>
      <trkpt lat="43.32477" lon="-1.50025">
        <ele>248.3</ele>
        <time>2022-08-30T09:34:35Z</time>
      </trkpt>
      <trkpt lat="43.32477" lon="-1.50024">
        <ele>248.3</ele>
        <time>2022-08-30T09:34:36Z</time>
      </trkpt>
      <trkpt lat="43.32475" lon="-1.50019">
        <ele>248.6</ele>
        <time>2022-08-30T09:34:37Z</time>
      </trkpt>
      <trkpt lat="43.32475" lon="-1.50017">
        <ele>248.7</ele>
        <time>2022-08-30T09:34:38Z</time>
      </trkpt>
      <trkpt lat="43.32473" lon="-1.50013">
        <ele>248.8</ele>
        <time>2022-08-30T09:34:39Z</time>
      </trkpt>
      <trkpt lat="43.32471" lon="-1.5001">
        <ele>249</ele>
        <time>2022-08-30T09:34:40Z</time>
      </trkpt>
      <trkpt lat="43.32469" lon="-1.50007">
        <ele>249.2</ele>
        <time>2022-08-30T09:34:41Z</time>
      </trkpt>
      <trkpt lat="43.32467" lon="-1.50004">
        <ele>249.4</ele>
        <time>2022-08-30T09:34:42Z</time>
      </trkpt>
      <trkpt lat="43.32466" lon="-1.5">
        <ele>249.6</ele>
        <time>2022-08-30T09:34:43Z</time>
      </trkpt>
      <trkpt lat="43.32464" lon="-1.49997">
        <ele>249.8</ele>
        <time>2022-08-30T09:34:44Z</time>
      </trkpt>
      <trkpt lat="43.32463" lon="-1.49994">
        <ele>250</ele>
        <time>2022-08-30T09:34:45Z</time>
      </trkpt>
      <trkpt lat="43.32462" lon="-1.4999">
        <ele>250.2</ele>
        <time>2022-08-30T09:34:46Z</time>
      </trkpt>
      <trkpt lat="43.3246" lon="-1.49986">
        <ele>250.4</ele>
        <time>2022-08-30T09:34:47Z</time>
      </trkpt>
      <trkpt lat="43.32459" lon="-1.49982">
        <ele>250.6</ele>
        <time>2022-08-30T09:34:48Z</time>
      </trkpt>
      <trkpt lat="43.32458" lon="-1.49978">
        <ele>250.9</ele>
        <time>2022-08-30T09:34:49Z</time>
      </trkpt>
      <trkpt lat="43.32456" lon="-1.49974">
        <ele>251.1</ele>
        <time>2022-08-30T09:34:50Z</time>
      </trkpt>
      <trkpt lat="43.32455" lon="-1.4997">
        <ele>251.3</ele>
        <time>2022-08-30T09:34:51Z</time>
      </trkpt>
      <trkpt lat="43.32454" lon="-1.49966">
        <ele>251.5</ele>
        <time>2022-08-30T09:34:52Z</time>
      </trkpt>
      <trkpt lat="43.32453" lon="-1.49963">
        <ele>251.7</ele>
        <time>2022-08-30T09:34:53Z</time>
      </trkpt>
      <trkpt lat="43.32451" lon="-1.49959">
        <ele>251.9</ele>
        <time>2022-08-30T09:34:54Z</time>
      </trkpt>
      <trkpt lat="43.3245" lon="-1.49955">
        <ele>252</ele>
        <time>2022-08-30T09:34:55Z</time>
      </trkpt>
      <trkpt lat="43.32449" lon="-1.49951">
        <ele>252.2</ele>
        <time>2022-08-30T09:34:56Z</time>
      </trkpt>
      <trkpt lat="43.32448" lon="-1.49948">
        <ele>252.4</ele>
        <time>2022-08-30T09:34:57Z</time>
      </trkpt>
      <trkpt lat="43.32447" lon="-1.49944">
        <ele>252.6</ele>
        <time>2022-08-30T09:34:58Z</time>
      </trkpt>
      <trkpt lat="43.32446" lon="-1.4994">
        <ele>252.7</ele>
        <time>2022-08-30T09:34:59Z</time>
      </trkpt>
      <trkpt lat="43.32445" lon="-1.49936">
        <ele>252.9</ele>
        <time>2022-08-30T09:35:00Z</time>
      </trkpt>
      <trkpt lat="43.32445" lon="-1.49931">
        <ele>253.1</ele>
        <time>2022-08-30T09:35:01Z</time>
      </trkpt>
      <trkpt lat="43.32444" lon="-1.49927">
        <ele>253.2</ele>
        <time>2022-08-30T09:35:02Z</time>
      </trkpt>
      <trkpt lat="43.32444" lon="-1.49922">
        <ele>253.4</ele>
        <time>2022-08-30T09:35:03Z</time>
      </trkpt>
      <trkpt lat="43.32444" lon="-1.49916">
        <ele>253.6</ele>
        <time>2022-08-30T09:35:04Z</time>
      </trkpt>
      <trkpt lat="43.32444" lon="-1.49911">
        <ele>253.7</ele>
        <time>2022-08-30T09:35:05Z</time>
      </trkpt>
      <trkpt lat="43.32445" lon="-1.49906">
        <ele>253.9</ele>
        <time>2022-08-30T09:35:06Z</time>
      </trkpt>
      <trkpt lat="43.32446" lon="-1.49902">
        <ele>254</ele>
        <time>2022-08-30T09:35:07Z</time>
      </trkpt>
      <trkpt lat="43.32446" lon="-1.49897">
        <ele>254.1</ele>
        <time>2022-08-30T09:35:08Z</time>
      </trkpt>
      <trkpt lat="43.32446" lon="-1.49892">
        <ele>254.3</ele>
        <time>2022-08-30T09:35:09Z</time>
      </trkpt>
      <trkpt lat="43.32447" lon="-1.49888">
        <ele>254.4</ele>
        <time>2022-08-30T09:35:10Z</time>
      </trkpt>
      <trkpt lat="43.32447" lon="-1.49883">
        <ele>254.5</ele>
        <time>2022-08-30T09:35:11Z</time>
      </trkpt>
      <trkpt lat="43.32447" lon="-1.49879">
        <ele>254.6</ele>
        <time>2022-08-30T09:35:12Z</time>
      </trkpt>
      <trkpt lat="43.32448" lon="-1.49875">
        <ele>254.7</ele>
        <time>2022-08-30T09:35:13Z</time>
      </trkpt>
      <trkpt lat="43.32449" lon="-1.4987">
        <ele>254.8</ele>
        <time>2022-08-30T09:35:14Z</time>
      </trkpt>
      <trkpt lat="43.3245" lon="-1.49866">
        <ele>254.9</ele>
        <time>2022-08-30T09:35:15Z</time>
      </trkpt>
      <trkpt lat="43.32451" lon="-1.49861">
        <ele>255</ele>
        <time>2022-08-30T09:35:16Z</time>
      </trkpt>
      <trkpt lat="43.32452" lon="-1.49856">
        <ele>255.1</ele>
        <time>2022-08-30T09:35:17Z</time>
      </trkpt>
      <trkpt lat="43.32454" lon="-1.49852">
        <ele>255.1</ele>
        <time>2022-08-30T09:35:18Z</time>
      </trkpt>
      <trkpt lat="43.32456" lon="-1.49847">
        <ele>255.1</ele>
        <time>2022-08-30T09:35:19Z</time>
      </trkpt>
      <trkpt lat="43.32458" lon="-1.49842">
        <ele>255.1</ele>
        <time>2022-08-30T09:35:20Z</time>
      </trkpt>
      <trkpt lat="43.3246" lon="-1.49838">
        <ele>255</ele>
        <time>2022-08-30T09:35:21Z</time>
      </trkpt>
      <trkpt lat="43.32463" lon="-1.49833">
        <ele>255</ele>
        <time>2022-08-30T09:35:22Z</time>
      </trkpt>
      <trkpt lat="43.32465" lon="-1.49828">
        <ele>254.8</ele>
        <time>2022-08-30T09:35:23Z</time>
      </trkpt>
      <trkpt lat="43.32468" lon="-1.49823">
        <ele>254.7</ele>
        <time>2022-08-30T09:35:24Z</time>
      </trkpt>
      <trkpt lat="43.3247" lon="-1.49817">
        <ele>254.5</ele>
        <time>2022-08-30T09:35:25Z</time>
      </trkpt>
      <trkpt lat="43.32472" lon="-1.49811">
        <ele>254.3</ele>
        <time>2022-08-30T09:35:26Z</time>
      </trkpt>
      <trkpt lat="43.32475" lon="-1.49805">
        <ele>254.1</ele>
        <time>2022-08-30T09:35:27Z</time>
      </trkpt>
      <trkpt lat="43.32477" lon="-1.49799">
        <ele>253.9</ele>
        <time>2022-08-30T09:35:28Z</time>
      </trkpt>
      <trkpt lat="43.32479" lon="-1.49792">
        <ele>253.7</ele>
        <time>2022-08-30T09:35:29Z</time>
      </trkpt>
      <trkpt lat="43.32481" lon="-1.49784">
        <ele>253.5</ele>
        <time>2022-08-30T09:35:30Z</time>
      </trkpt>
      <trkpt lat="43.32482" lon="-1.49777">
        <ele>253.3</ele>
        <time>2022-08-30T09:35:31Z</time>
      </trkpt>
      <trkpt lat="43.32483" lon="-1.49769">
        <ele>253.1</ele>
        <time>2022-08-30T09:35:32Z</time>
      </trkpt>
      <trkpt lat="43.32483" lon="-1.49762">
        <ele>253</ele>
        <time>2022-08-30T09:35:33Z</time>
      </trkpt>
      <trkpt lat="43.32483" lon="-1.49754">
        <ele>252.8</ele>
        <time>2022-08-30T09:35:34Z</time>
      </trkpt>
      <trkpt lat="43.32483" lon="-1.49747">
        <ele>252.7</ele>
        <time>2022-08-30T09:35:35Z</time>
      </trkpt>
      <trkpt lat="43.32483" lon="-1.49739">
        <ele>252.5</ele>
        <time>2022-08-30T09:35:36Z</time>
      </trkpt>
      <trkpt lat="43.32482" lon="-1.49731">
        <ele>252.3</ele>
        <time>2022-08-30T09:35:37Z</time>
      </trkpt>
      <trkpt lat="43.32481" lon="-1.49723">
        <ele>252.2</ele>
        <time>2022-08-30T09:35:38Z</time>
      </trkpt>
      <trkpt lat="43.3248" lon="-1.49716">
        <ele>252</ele>
        <time>2022-08-30T09:35:39Z</time>
      </trkpt>
      <trkpt lat="43.32478" lon="-1.49709">
        <ele>251.9</ele>
        <time>2022-08-30T09:35:40Z</time>
      </trkpt>
      <trkpt lat="43.32476" lon="-1.49702">
        <ele>251.7</ele>
        <time>2022-08-30T09:35:41Z</time>
      </trkpt>
      <trkpt lat="43.32473" lon="-1.49695">
        <ele>251.6</ele>
        <time>2022-08-30T09:35:42Z</time>
      </trkpt>
      <trkpt lat="43.32471" lon="-1.49689">
        <ele>251.4</ele>
        <time>2022-08-30T09:35:43Z</time>
      </trkpt>
      <trkpt lat="43.32468" lon="-1.49682">
        <ele>251.3</ele>
        <time>2022-08-30T09:35:44Z</time>
      </trkpt>
      <trkpt lat="43.32464" lon="-1.49676">
        <ele>251.1</ele>
        <time>2022-08-30T09:35:45Z</time>
      </trkpt>
      <trkpt lat="43.32461" lon="-1.49669">
        <ele>251</ele>
        <time>2022-08-30T09:35:46Z</time>
      </trkpt>
      <trkpt lat="43.32458" lon="-1.49662">
        <ele>250.8</ele>
        <time>2022-08-30T09:35:47Z</time>
      </trkpt>
      <trkpt lat="43.32455" lon="-1.49655">
        <ele>250.6</ele>
        <time>2022-08-30T09:35:48Z</time>
      </trkpt>
      <trkpt lat="43.32452" lon="-1.49647">
        <ele>250.5</ele>
        <time>2022-08-30T09:35:49Z</time>
      </trkpt>
      <trkpt lat="43.3245" lon="-1.49639">
        <ele>250.3</ele>
        <time>2022-08-30T09:35:50Z</time>
      </trkpt>
      <trkpt lat="43.32449" lon="-1.4963">
        <ele>250.1</ele>
        <time>2022-08-30T09:35:51Z</time>
      </trkpt>
      <trkpt lat="43.32449" lon="-1.4962">
        <ele>249.9</ele>
        <time>2022-08-30T09:35:52Z</time>
      </trkpt>
      <trkpt lat="43.32449" lon="-1.49611">
        <ele>249.7</ele>
        <time>2022-08-30T09:35:53Z</time>
      </trkpt>
      <trkpt lat="43.32449" lon="-1.49602">
        <ele>249.6</ele>
        <time>2022-08-30T09:35:54Z</time>
      </trkpt>
      <trkpt lat="43.3245" lon="-1.49593">
        <ele>249.4</ele>
        <time>2022-08-30T09:35:55Z</time>
      </trkpt>
      <trkpt lat="43.3245" lon="-1.49584">
        <ele>249.3</ele>
        <time>2022-08-30T09:35:56Z</time>
      </trkpt>
      <trkpt lat="43.32451" lon="-1.49575">
        <ele>249.2</ele>
        <time>2022-08-30T09:35:57Z</time>
      </trkpt>
      <trkpt lat="43.32452" lon="-1.49567">
        <ele>249.2</ele>
        <time>2022-08-30T09:35:58Z</time>
      </trkpt>
      <trkpt lat="43.32453" lon="-1.49559">
        <ele>249.1</ele>
        <time>2022-08-30T09:35:59Z</time>
      </trkpt>
      <trkpt lat="43.32455" lon="-1.49551">
        <ele>249</ele>
        <time>2022-08-30T09:36:00Z</time>
      </trkpt>
      <trkpt lat="43.32456" lon="-1.49543">
        <ele>248.9</ele>
        <time>2022-08-30T09:36:01Z</time>
      </trkpt>
      <trkpt lat="43.32458" lon="-1.49535">
        <ele>248.9</ele>
        <time>2022-08-30T09:36:02Z</time>
      </trkpt>
      <trkpt lat="43.3246" lon="-1.49527">
        <ele>248.8</ele>
        <time>2022-08-30T09:36:03Z</time>
      </trkpt>
      <trkpt lat="43.32462" lon="-1.49519">
        <ele>248.7</ele>
        <time>2022-08-30T09:36:04Z</time>
      </trkpt>
      <trkpt lat="43.32464" lon="-1.49512">
        <ele>248.7</ele>
        <time>2022-08-30T09:36:05Z</time>
      </trkpt>
      <trkpt lat="43.32466" lon="-1.49504">
        <ele>248.6</ele>
        <time>2022-08-30T09:36:06Z</time>
      </trkpt>
      <trkpt lat="43.32467" lon="-1.49496">
        <ele>248.6</ele>
        <time>2022-08-30T09:36:07Z</time>
      </trkpt>
      <trkpt lat="43.32468" lon="-1.49489">
        <ele>248.5</ele>
        <time>2022-08-30T09:36:08Z</time>
      </trkpt>
      <trkpt lat="43.32469" lon="-1.49481">
        <ele>248.5</ele>
        <time>2022-08-30T09:36:09Z</time>
      </trkpt>
      <trkpt lat="43.3247" lon="-1.49474">
        <ele>248.4</ele>
        <time>2022-08-30T09:36:10Z</time>
      </trkpt>
      <trkpt lat="43.32472" lon="-1.49466">
        <ele>248.4</ele>
        <time>2022-08-30T09:36:11Z</time>
      </trkpt>
      <trkpt lat="43.32473" lon="-1.49458">
        <ele>248.4</ele>
        <time>2022-08-30T09:36:12Z</time>
      </trkpt>
      <trkpt lat="43.32474" lon="-1.4945">
        <ele>248.3</ele>
        <time>2022-08-30T09:36:13Z</time>
      </trkpt>
      <trkpt lat="43.32476" lon="-1.49443">
        <ele>248.3</ele>
        <time>2022-08-30T09:36:14Z</time>
      </trkpt>
      <trkpt lat="43.32477" lon="-1.49435">
        <ele>248.3</ele>
        <time>2022-08-30T09:36:15Z</time>
      </trkpt>
      <trkpt lat="43.32478" lon="-1.49428">
        <ele>248.3</ele>
        <time>2022-08-30T09:36:16Z</time>
      </trkpt>
      <trkpt lat="43.32479" lon="-1.4942">
        <ele>248.3</ele>
        <time>2022-08-30T09:36:17Z</time>
      </trkpt>
      <trkpt lat="43.32481" lon="-1.49413">
        <ele>248.3</ele>
        <time>2022-08-30T09:36:18Z</time>
      </trkpt>
      <trkpt lat="43.32482" lon="-1.49406">
        <ele>248.4</ele>
        <time>2022-08-30T09:36:19Z</time>
      </trkpt>
      <trkpt lat="43.32484" lon="-1.49399">
        <ele>248.4</ele>
        <time>2022-08-30T09:36:20Z</time>
      </trkpt>
      <trkpt lat="43.32485" lon="-1.49392">
        <ele>248.5</ele>
        <time>2022-08-30T09:36:21Z</time>
      </trkpt>
      <trkpt lat="43.32486" lon="-1.49385">
        <ele>248.5</ele>
        <time>2022-08-30T09:36:22Z</time>
      </trkpt>
      <trkpt lat="43.32488" lon="-1.49377">
        <ele>248.6</ele>
        <time>2022-08-30T09:36:23Z</time>
      </trkpt>
      <trkpt lat="43.32489" lon="-1.4937">
        <ele>248.7</ele>
        <time>2022-08-30T09:36:24Z</time>
      </trkpt>
      <trkpt lat="43.32491" lon="-1.49364">
        <ele>248.7</ele>
        <time>2022-08-30T09:36:25Z</time>
      </trkpt>
      <trkpt lat="43.32492" lon="-1.49357">
        <ele>248.8</ele>
        <time>2022-08-30T09:36:26Z</time>
      </trkpt>
      <trkpt lat="43.32493" lon="-1.4935">
        <ele>248.8</ele>
        <time>2022-08-30T09:36:27Z</time>
      </trkpt>
      <trkpt lat="43.32495" lon="-1.49344">
        <ele>248.9</ele>
        <time>2022-08-30T09:36:28Z</time>
      </trkpt>
      <trkpt lat="43.32496" lon="-1.49338">
        <ele>249</ele>
        <time>2022-08-30T09:36:29Z</time>
      </trkpt>
      <trkpt lat="43.32497" lon="-1.49331">
        <ele>249.1</ele>
        <time>2022-08-30T09:36:30Z</time>
      </trkpt>
      <trkpt lat="43.32498" lon="-1.49324">
        <ele>249.2</ele>
        <time>2022-08-30T09:36:31Z</time>
      </trkpt>
      <trkpt lat="43.32499" lon="-1.49317">
        <ele>249.3</ele>
        <time>2022-08-30T09:36:32Z</time>
      </trkpt>
      <trkpt lat="43.32501" lon="-1.4931">
        <ele>249.3</ele>
        <time>2022-08-30T09:36:33Z</time>
      </trkpt>
      <trkpt lat="43.32501" lon="-1.49303">
        <ele>249.4</ele>
        <time>2022-08-30T09:36:34Z</time>
      </trkpt>
      <trkpt lat="43.32502" lon="-1.49296">
        <ele>249.5</ele>
        <time>2022-08-30T09:36:35Z</time>
      </trkpt>
      <trkpt lat="43.32504" lon="-1.4929">
        <ele>249.6</ele>
        <time>2022-08-30T09:36:36Z</time>
      </trkpt>
      <trkpt lat="43.32505" lon="-1.49284">
        <ele>249.7</ele>
        <time>2022-08-30T09:36:37Z</time>
      </trkpt>
      <trkpt lat="43.32507" lon="-1.49278">
        <ele>249.8</ele>
        <time>2022-08-30T09:36:38Z</time>
      </trkpt>
      <trkpt lat="43.32508" lon="-1.49272">
        <ele>249.9</ele>
        <time>2022-08-30T09:36:39Z</time>
      </trkpt>
      <trkpt lat="43.32509" lon="-1.49267">
        <ele>250</ele>
        <time>2022-08-30T09:36:40Z</time>
      </trkpt>
      <trkpt lat="43.3251" lon="-1.49262">
        <ele>250.2</ele>
        <time>2022-08-30T09:36:41Z</time>
      </trkpt>
      <trkpt lat="43.32511" lon="-1.49256">
        <ele>250.3</ele>
        <time>2022-08-30T09:36:42Z</time>
      </trkpt>
      <trkpt lat="43.32512" lon="-1.49251">
        <ele>250.4</ele>
        <time>2022-08-30T09:36:43Z</time>
      </trkpt>
      <trkpt lat="43.32513" lon="-1.49244">
        <ele>250.5</ele>
        <time>2022-08-30T09:36:44Z</time>
      </trkpt>
      <trkpt lat="43.32513" lon="-1.49237">
        <ele>250.6</ele>
        <time>2022-08-30T09:36:45Z</time>
      </trkpt>
      <trkpt lat="43.32514" lon="-1.49231">
        <ele>250.7</ele>
        <time>2022-08-30T09:36:46Z</time>
      </trkpt>
      <trkpt lat="43.32515" lon="-1.49225">
        <ele>250.8</ele>
        <time>2022-08-30T09:36:47Z</time>
      </trkpt>
      <trkpt lat="43.32516" lon="-1.49218">
        <ele>251</ele>
        <time>2022-08-30T09:36:48Z</time>
      </trkpt>
      <trkpt lat="43.32517" lon="-1.49212">
        <ele>251.1</ele>
        <time>2022-08-30T09:36:49Z</time>
      </trkpt>
      <trkpt lat="43.32518" lon="-1.49205">
        <ele>251.3</ele>
        <time>2022-08-30T09:36:50Z</time>
      </trkpt>
      <trkpt lat="43.32519" lon="-1.49199">
        <ele>251.4</ele>
        <time>2022-08-30T09:36:51Z</time>
      </trkpt>
      <trkpt lat="43.3252" lon="-1.49194">
        <ele>251.6</ele>
        <time>2022-08-30T09:36:52Z</time>
      </trkpt>
      <trkpt lat="43.3252" lon="-1.49189">
        <ele>251.7</ele>
        <time>2022-08-30T09:36:53Z</time>
      </trkpt>
      <trkpt lat="43.32521" lon="-1.49185">
        <ele>251.8</ele>
        <time>2022-08-30T09:36:54Z</time>
      </trkpt>
      <trkpt lat="43.32521" lon="-1.49181">
        <ele>251.9</ele>
        <time>2022-08-30T09:36:55Z</time>
      </trkpt>
      <trkpt lat="43.32522" lon="-1.49177">
        <ele>252.1</ele>
        <time>2022-08-30T09:36:56Z</time>
      </trkpt>
      <trkpt lat="43.32522" lon="-1.49172">
        <ele>252.2</ele>
        <time>2022-08-30T09:36:57Z</time>
      </trkpt>
      <trkpt lat="43.32523" lon="-1.49168">
        <ele>252.3</ele>
        <time>2022-08-30T09:36:58Z</time>
      </trkpt>
      <trkpt lat="43.32524" lon="-1.49163">
        <ele>252.5</ele>
        <time>2022-08-30T09:36:59Z</time>
      </trkpt>
      <trkpt lat="43.32525" lon="-1.49158">
        <ele>252.6</ele>
        <time>2022-08-30T09:37:00Z</time>
      </trkpt>
      <trkpt lat="43.32526" lon="-1.49153">
        <ele>252.8</ele>
        <time>2022-08-30T09:37:01Z</time>
      </trkpt>
      <trkpt lat="43.32527" lon="-1.49147">
        <ele>253</ele>
        <time>2022-08-30T09:37:02Z</time>
      </trkpt>
      <trkpt lat="43.32528" lon="-1.49142">
        <ele>253.2</ele>
        <time>2022-08-30T09:37:03Z</time>
      </trkpt>
      <trkpt lat="43.32529" lon="-1.49136">
        <ele>253.4</ele>
        <time>2022-08-30T09:37:04Z</time>
      </trkpt>
      <trkpt lat="43.3253" lon="-1.4913">
        <ele>253.5</ele>
        <time>2022-08-30T09:37:05Z</time>
      </trkpt>
      <trkpt lat="43.32531" lon="-1.49125">
        <ele>253.7</ele>
        <time>2022-08-30T09:37:06Z</time>
      </trkpt>
      <trkpt lat="43.32532" lon="-1.49119">
        <ele>254</ele>
        <time>2022-08-30T09:37:07Z</time>
      </trkpt>
      <trkpt lat="43.32533" lon="-1.49113">
        <ele>254.2</ele>
        <time>2022-08-30T09:37:08Z</time>
      </trkpt>
      <trkpt lat="43.32534" lon="-1.49108">
        <ele>254.4</ele>
        <time>2022-08-30T09:37:09Z</time>
      </trkpt>
      <trkpt lat="43.32535" lon="-1.49102">
        <ele>254.6</ele>
        <time>2022-08-30T09:37:10Z</time>
      </trkpt>
      <trkpt lat="43.32536" lon="-1.49097">
        <ele>254.8</ele>
        <time>2022-08-30T09:37:11Z</time>
      </trkpt>
      <trkpt lat="43.32537" lon="-1.49092">
        <ele>255</ele>
        <time>2022-08-30T09:37:12Z</time>
      </trkpt>
      <trkpt lat="43.32538" lon="-1.49088">
        <ele>255.2</ele>
        <time>2022-08-30T09:37:13Z</time>
      </trkpt>
      <trkpt lat="43.32539" lon="-1.49083">
        <ele>255.3</ele>
        <time>2022-08-30T09:37:14Z</time>
      </trkpt>
      <trkpt lat="43.3254" lon="-1.49078">
        <ele>255.5</ele>
        <time>2022-08-30T09:37:15Z</time>
      </trkpt>
      <trkpt lat="43.32541" lon="-1.49074">
        <ele>255.7</ele>
        <time>2022-08-30T09:37:16Z</time>
      </trkpt>
      <trkpt lat="43.32542" lon="-1.4907">
        <ele>255.9</ele>
        <time>2022-08-30T09:37:17Z</time>
      </trkpt>
      <trkpt lat="43.32542" lon="-1.49066">
        <ele>256.1</ele>
        <time>2022-08-30T09:37:18Z</time>
      </trkpt>
      <trkpt lat="43.32543" lon="-1.49062">
        <ele>256.3</ele>
        <time>2022-08-30T09:37:19Z</time>
      </trkpt>
      <trkpt lat="43.32544" lon="-1.49058">
        <ele>256.5</ele>
        <time>2022-08-30T09:37:20Z</time>
      </trkpt>
      <trkpt lat="43.32546" lon="-1.49055">
        <ele>256.8</ele>
        <time>2022-08-30T09:37:21Z</time>
      </trkpt>
      <trkpt lat="43.32547" lon="-1.4905">
        <ele>257.1</ele>
        <time>2022-08-30T09:37:22Z</time>
      </trkpt>
      <trkpt lat="43.32547" lon="-1.49048">
        <ele>257.3</ele>
        <time>2022-08-30T09:37:23Z</time>
      </trkpt>
      <trkpt lat="43.32548" lon="-1.49044">
        <ele>257.5</ele>
        <time>2022-08-30T09:37:24Z</time>
      </trkpt>
      <trkpt lat="43.32549" lon="-1.4904">
        <ele>257.9</ele>
        <time>2022-08-30T09:37:25Z</time>
      </trkpt>
      <trkpt lat="43.32549" lon="-1.49036">
        <ele>258.2</ele>
        <time>2022-08-30T09:37:26Z</time>
      </trkpt>
      <trkpt lat="43.3255" lon="-1.49032">
        <ele>258.5</ele>
        <time>2022-08-30T09:37:27Z</time>
      </trkpt>
      <trkpt lat="43.3255" lon="-1.49028">
        <ele>258.8</ele>
        <time>2022-08-30T09:37:28Z</time>
      </trkpt>
      <trkpt lat="43.3255" lon="-1.49024">
        <ele>259.1</ele>
        <time>2022-08-30T09:37:29Z</time>
      </trkpt>
      <trkpt lat="43.32551" lon="-1.4902">
        <ele>259.5</ele>
        <time>2022-08-30T09:37:30Z</time>
      </trkpt>
      <trkpt lat="43.32551" lon="-1.49016">
        <ele>259.8</ele>
        <time>2022-08-30T09:37:31Z</time>
      </trkpt>
      <trkpt lat="43.32551" lon="-1.49012">
        <ele>260.2</ele>
        <time>2022-08-30T09:37:32Z</time>
      </trkpt>
      <trkpt lat="43.32552" lon="-1.49008">
        <ele>260.6</ele>
        <time>2022-08-30T09:37:33Z</time>
      </trkpt>
      <trkpt lat="43.32552" lon="-1.49004">
        <ele>261</ele>
        <time>2022-08-30T09:37:34Z</time>
      </trkpt>
      <trkpt lat="43.32553" lon="-1.49">
        <ele>261.4</ele>
        <time>2022-08-30T09:37:35Z</time>
      </trkpt>
      <trkpt lat="43.32554" lon="-1.48996">
        <ele>261.7</ele>
        <time>2022-08-30T09:37:36Z</time>
      </trkpt>
      <trkpt lat="43.32554" lon="-1.48992">
        <ele>262.1</ele>
        <time>2022-08-30T09:37:37Z</time>
      </trkpt>
      <trkpt lat="43.32555" lon="-1.48988">
        <ele>262.5</ele>
        <time>2022-08-30T09:37:38Z</time>
      </trkpt>
      <trkpt lat="43.32555" lon="-1.48983">
        <ele>262.9</ele>
        <time>2022-08-30T09:37:39Z</time>
      </trkpt>
      <trkpt lat="43.32555" lon="-1.48979">
        <ele>263.3</ele>
        <time>2022-08-30T09:37:40Z</time>
      </trkpt>
      <trkpt lat="43.32555" lon="-1.48975">
        <ele>263.6</ele>
        <time>2022-08-30T09:37:41Z</time>
      </trkpt>
      <trkpt lat="43.32556" lon="-1.48972">
        <ele>264</ele>
        <time>2022-08-30T09:37:42Z</time>
      </trkpt>
      <trkpt lat="43.32555" lon="-1.48968">
        <ele>264.3</ele>
        <time>2022-08-30T09:37:43Z</time>
      </trkpt>
      <trkpt lat="43.32555" lon="-1.48964">
        <ele>264.7</ele>
        <time>2022-08-30T09:37:44Z</time>
      </trkpt>
      <trkpt lat="43.32555" lon="-1.48959">
        <ele>265.1</ele>
        <time>2022-08-30T09:37:45Z</time>
      </trkpt>
      <trkpt lat="43.32555" lon="-1.48955">
        <ele>265.5</ele>
        <time>2022-08-30T09:37:46Z</time>
      </trkpt>
      <trkpt lat="43.32556" lon="-1.48951">
        <ele>265.8</ele>
        <time>2022-08-30T09:37:47Z</time>
      </trkpt>
      <trkpt lat="43.32556" lon="-1.48948">
        <ele>266.2</ele>
        <time>2022-08-30T09:37:48Z</time>
      </trkpt>
      <trkpt lat="43.32557" lon="-1.48944">
        <ele>266.5</ele>
        <time>2022-08-30T09:37:49Z</time>
      </trkpt>
      <trkpt lat="43.32557" lon="-1.4894">
        <ele>266.8</ele>
        <time>2022-08-30T09:37:50Z</time>
      </trkpt>
      <trkpt lat="43.32558" lon="-1.48936">
        <ele>267.2</ele>
        <time>2022-08-30T09:37:51Z</time>
      </trkpt>
      <trkpt lat="43.32558" lon="-1.48931">
        <ele>267.5</ele>
        <time>2022-08-30T09:37:52Z</time>
      </trkpt>
      <trkpt lat="43.32558" lon="-1.48927">
        <ele>267.8</ele>
        <time>2022-08-30T09:37:53Z</time>
      </trkpt>
      <trkpt lat="43.32558" lon="-1.48923">
        <ele>268</ele>
        <time>2022-08-30T09:37:54Z</time>
      </trkpt>
      <trkpt lat="43.32558" lon="-1.48919">
        <ele>268.3</ele>
        <time>2022-08-30T09:37:55Z</time>
      </trkpt>
      <trkpt lat="43.32559" lon="-1.48915">
        <ele>268.6</ele>
        <time>2022-08-30T09:37:56Z</time>
      </trkpt>
      <trkpt lat="43.32559" lon="-1.4891">
        <ele>268.9</ele>
        <time>2022-08-30T09:37:57Z</time>
      </trkpt>
      <trkpt lat="43.3256" lon="-1.48906">
        <ele>269.2</ele>
        <time>2022-08-30T09:37:58Z</time>
      </trkpt>
      <trkpt lat="43.3256" lon="-1.48902">
        <ele>269.4</ele>
        <time>2022-08-30T09:37:59Z</time>
      </trkpt>
      <trkpt lat="43.32561" lon="-1.48898">
        <ele>269.6</ele>
        <time>2022-08-30T09:38:00Z</time>
      </trkpt>
      <trkpt lat="43.32561" lon="-1.48894">
        <ele>269.8</ele>
        <time>2022-08-30T09:38:01Z</time>
      </trkpt>
      <trkpt lat="43.32561" lon="-1.4889">
        <ele>270</ele>
        <time>2022-08-30T09:38:02Z</time>
      </trkpt>
      <trkpt lat="43.32562" lon="-1.48885">
        <ele>270.2</ele>
        <time>2022-08-30T09:38:03Z</time>
      </trkpt>
      <trkpt lat="43.32562" lon="-1.48881">
        <ele>270.4</ele>
        <time>2022-08-30T09:38:04Z</time>
      </trkpt>
      <trkpt lat="43.32563" lon="-1.48877">
        <ele>270.5</ele>
        <time>2022-08-30T09:38:05Z</time>
      </trkpt>
      <trkpt lat="43.32564" lon="-1.48872">
        <ele>270.6</ele>
        <time>2022-08-30T09:38:06Z</time>
      </trkpt>
      <trkpt lat="43.32564" lon="-1.48867">
        <ele>270.7</ele>
        <time>2022-08-30T09:38:07Z</time>
      </trkpt>
      <trkpt lat="43.32565" lon="-1.48863">
        <ele>270.8</ele>
        <time>2022-08-30T09:38:08Z</time>
      </trkpt>
      <trkpt lat="43.32566" lon="-1.48859">
        <ele>270.8</ele>
        <time>2022-08-30T09:38:09Z</time>
      </trkpt>
      <trkpt lat="43.32566" lon="-1.48854">
        <ele>270.9</ele>
        <time>2022-08-30T09:38:10Z</time>
      </trkpt>
      <trkpt lat="43.32567" lon="-1.4885">
        <ele>270.9</ele>
        <time>2022-08-30T09:38:11Z</time>
      </trkpt>
      <trkpt lat="43.32567" lon="-1.48844">
        <ele>270.8</ele>
        <time>2022-08-30T09:38:12Z</time>
      </trkpt>
      <trkpt lat="43.32568" lon="-1.48838">
        <ele>270.8</ele>
        <time>2022-08-30T09:38:13Z</time>
      </trkpt>
      <trkpt lat="43.32568" lon="-1.48833">
        <ele>270.7</ele>
        <time>2022-08-30T09:38:14Z</time>
      </trkpt>
      <trkpt lat="43.32569" lon="-1.48828">
        <ele>270.6</ele>
        <time>2022-08-30T09:38:15Z</time>
      </trkpt>
      <trkpt lat="43.32569" lon="-1.48822">
        <ele>270.5</ele>
        <time>2022-08-30T09:38:16Z</time>
      </trkpt>
      <trkpt lat="43.3257" lon="-1.48816">
        <ele>270.3</ele>
        <time>2022-08-30T09:38:17Z</time>
      </trkpt>
      <trkpt lat="43.3257" lon="-1.4881">
        <ele>270.2</ele>
        <time>2022-08-30T09:38:18Z</time>
      </trkpt>
      <trkpt lat="43.32571" lon="-1.48803">
        <ele>270</ele>
        <time>2022-08-30T09:38:19Z</time>
      </trkpt>
      <trkpt lat="43.32571" lon="-1.48797">
        <ele>269.8</ele>
        <time>2022-08-30T09:38:20Z</time>
      </trkpt>
      <trkpt lat="43.32572" lon="-1.4879">
        <ele>269.6</ele>
        <time>2022-08-30T09:38:21Z</time>
      </trkpt>
      <trkpt lat="43.32573" lon="-1.48784">
        <ele>269.4</ele>
        <time>2022-08-30T09:38:22Z</time>
      </trkpt>
      <trkpt lat="43.32573" lon="-1.48778">
        <ele>269.1</ele>
        <time>2022-08-30T09:38:23Z</time>
      </trkpt>
      <trkpt lat="43.32574" lon="-1.48771">
        <ele>268.9</ele>
        <time>2022-08-30T09:38:24Z</time>
      </trkpt>
      <trkpt lat="43.32575" lon="-1.48764">
        <ele>268.6</ele>
        <time>2022-08-30T09:38:25Z</time>
      </trkpt>
      <trkpt lat="43.32576" lon="-1.48757">
        <ele>268.4</ele>
        <time>2022-08-30T09:38:26Z</time>
      </trkpt>
      <trkpt lat="43.32577" lon="-1.4875">
        <ele>268.1</ele>
        <time>2022-08-30T09:38:27Z</time>
      </trkpt>
      <trkpt lat="43.32579" lon="-1.48743">
        <ele>267.8</ele>
        <time>2022-08-30T09:38:28Z</time>
      </trkpt>
      <trkpt lat="43.32581" lon="-1.48736">
        <ele>267.5</ele>
        <time>2022-08-30T09:38:29Z</time>
      </trkpt>
      <trkpt lat="43.32583" lon="-1.4873">
        <ele>267.3</ele>
        <time>2022-08-30T09:38:30Z</time>
      </trkpt>
      <trkpt lat="43.32584" lon="-1.48726">
        <ele>267.1</ele>
        <time>2022-08-30T09:38:31Z</time>
      </trkpt>
      <trkpt lat="43.32586" lon="-1.48723">
        <ele>267</ele>
        <time>2022-08-30T09:38:32Z</time>
      </trkpt>
      <trkpt lat="43.32587" lon="-1.4872">
        <ele>266.9</ele>
        <time>2022-08-30T09:38:33Z</time>
      </trkpt>
      <trkpt lat="43.32588" lon="-1.48719">
        <ele>266.8</ele>
        <time>2022-08-30T09:38:34Z</time>
      </trkpt>
      <trkpt lat="43.32588" lon="-1.48718">
        <ele>266.8</ele>
        <time>2022-08-30T09:38:35Z</time>
      </trkpt>
      <trkpt lat="43.32588" lon="-1.48718">
        <ele>266.8</ele>
        <time>2022-08-30T09:38:36Z</time>
      </trkpt>
      <trkpt lat="43.32589" lon="-1.48717">
        <ele>266.7</ele>
        <time>2022-08-30T09:38:37Z</time>
      </trkpt>
      <trkpt lat="43.32589" lon="-1.48716">
        <ele>266.7</ele>
        <time>2022-08-30T09:38:38Z</time>
      </trkpt>
      <trkpt lat="43.32589" lon="-1.48716">
        <ele>266.7</ele>
        <time>2022-08-30T09:38:39Z</time>
      </trkpt>
      <trkpt lat="43.3259" lon="-1.48715">
        <ele>266.7</ele>
        <time>2022-08-30T09:38:40Z</time>
      </trkpt>
      <trkpt lat="43.3259" lon="-1.48715">
        <ele>266.6</ele>
        <time>2022-08-30T09:38:41Z</time>
      </trkpt>
      <trkpt lat="43.32591" lon="-1.48714">
        <ele>266.6</ele>
        <time>2022-08-30T09:38:42Z</time>
      </trkpt>
      <trkpt lat="43.32591" lon="-1.48713">
        <ele>266.6</ele>
        <time>2022-08-30T09:38:43Z</time>
      </trkpt>
      <trkpt lat="43.32591" lon="-1.48713">
        <ele>266.5</ele>
        <time>2022-08-30T09:38:44Z</time>
      </trkpt>
      <trkpt lat="43.32592" lon="-1.48712">
        <ele>266.5</ele>
        <time>2022-08-30T09:38:45Z</time>
      </trkpt>
      <trkpt lat="43.32592" lon="-1.48712">
        <ele>266.5</ele>
        <time>2022-08-30T09:39:34Z</time>
      </trkpt>
      <trkpt lat="43.32593" lon="-1.48711">
        <ele>266.5</ele>
        <time>2022-08-30T09:39:35Z</time>
      </trkpt>
      <trkpt lat="43.32593" lon="-1.4871">
        <ele>266.4</ele>
        <time>2022-08-30T09:39:36Z</time>
      </trkpt>
      <trkpt lat="43.32595" lon="-1.48706">
        <ele>266.3</ele>
        <time>2022-08-30T09:39:37Z</time>
      </trkpt>
      <trkpt lat="43.32596" lon="-1.48702">
        <ele>266.2</ele>
        <time>2022-08-30T09:39:38Z</time>
      </trkpt>
      <trkpt lat="43.32598" lon="-1.48699">
        <ele>266</ele>
        <time>2022-08-30T09:39:39Z</time>
      </trkpt>
      <trkpt lat="43.326" lon="-1.48694">
        <ele>265.9</ele>
        <time>2022-08-30T09:39:40Z</time>
      </trkpt>
      <trkpt lat="43.32602" lon="-1.4869">
        <ele>265.8</ele>
        <time>2022-08-30T09:39:41Z</time>
      </trkpt>
      <trkpt lat="43.32603" lon="-1.48686">
        <ele>265.6</ele>
        <time>2022-08-30T09:39:42Z</time>
      </trkpt>
      <trkpt lat="43.32605" lon="-1.48682">
        <ele>265.5</ele>
        <time>2022-08-30T09:39:43Z</time>
      </trkpt>
      <trkpt lat="43.32607" lon="-1.48679">
        <ele>265.4</ele>
        <time>2022-08-30T09:39:44Z</time>
      </trkpt>
      <trkpt lat="43.32609" lon="-1.48675">
        <ele>265.3</ele>
        <time>2022-08-30T09:39:45Z</time>
      </trkpt>
      <trkpt lat="43.3261" lon="-1.48672">
        <ele>265.2</ele>
        <time>2022-08-30T09:39:46Z</time>
      </trkpt>
      <trkpt lat="43.32612" lon="-1.48668">
        <ele>265.1</ele>
        <time>2022-08-30T09:39:47Z</time>
      </trkpt>
      <trkpt lat="43.32614" lon="-1.48663">
        <ele>264.9</ele>
        <time>2022-08-30T09:39:48Z</time>
      </trkpt>
      <trkpt lat="43.32617" lon="-1.48658">
        <ele>264.6</ele>
        <time>2022-08-30T09:39:49Z</time>
      </trkpt>
      <trkpt lat="43.32619" lon="-1.48653">
        <ele>264.3</ele>
        <time>2022-08-30T09:39:50Z</time>
      </trkpt>
      <trkpt lat="43.32621" lon="-1.48647">
        <ele>264</ele>
        <time>2022-08-30T09:39:51Z</time>
      </trkpt>
      <trkpt lat="43.32623" lon="-1.48641">
        <ele>263.7</ele>
        <time>2022-08-30T09:39:52Z</time>
      </trkpt>
      <trkpt lat="43.32625" lon="-1.48634">
        <ele>263.3</ele>
        <time>2022-08-30T09:39:53Z</time>
      </trkpt>
      <trkpt lat="43.32627" lon="-1.48627">
        <ele>262.8</ele>
        <time>2022-08-30T09:39:54Z</time>
      </trkpt>
      <trkpt lat="43.32628" lon="-1.48619">
        <ele>262.3</ele>
        <time>2022-08-30T09:39:55Z</time>
      </trkpt>
      <trkpt lat="43.3263" lon="-1.48612">
        <ele>261.8</ele>
        <time>2022-08-30T09:39:56Z</time>
      </trkpt>
      <trkpt lat="43.32631" lon="-1.48603">
        <ele>261.2</ele>
        <time>2022-08-30T09:39:57Z</time>
      </trkpt>
      <trkpt lat="43.32632" lon="-1.48594">
        <ele>260.5</ele>
        <time>2022-08-30T09:39:58Z</time>
      </trkpt>
      <trkpt lat="43.32634" lon="-1.48583">
        <ele>259.7</ele>
        <time>2022-08-30T09:39:59Z</time>
      </trkpt>
      <trkpt lat="43.32635" lon="-1.48572">
        <ele>258.8</ele>
        <time>2022-08-30T09:40:00Z</time>
      </trkpt>
      <trkpt lat="43.32637" lon="-1.4856">
        <ele>257.5</ele>
        <time>2022-08-30T09:40:01Z</time>
      </trkpt>
      <trkpt lat="43.3264" lon="-1.48546">
        <ele>256.1</ele>
        <time>2022-08-30T09:40:02Z</time>
      </trkpt>
      <trkpt lat="43.32643" lon="-1.48531">
        <ele>254.5</ele>
        <time>2022-08-30T09:40:03Z</time>
      </trkpt>
      <trkpt lat="43.32645" lon="-1.48515">
        <ele>252.8</ele>
        <time>2022-08-30T09:40:04Z</time>
      </trkpt>
      <trkpt lat="43.32648" lon="-1.48498">
        <ele>251</ele>
        <time>2022-08-30T09:40:05Z</time>
      </trkpt>
      <trkpt lat="43.32652" lon="-1.4848">
        <ele>249.3</ele>
        <time>2022-08-30T09:40:06Z</time>
      </trkpt>
      <trkpt lat="43.32655" lon="-1.48463">
        <ele>247.7</ele>
        <time>2022-08-30T09:40:07Z</time>
      </trkpt>
      <trkpt lat="43.32659" lon="-1.48445">
        <ele>246.3</ele>
        <time>2022-08-30T09:40:08Z</time>
      </trkpt>
      <trkpt lat="43.32663" lon="-1.48428">
        <ele>245</ele>
        <time>2022-08-30T09:40:09Z</time>
      </trkpt>
      <trkpt lat="43.32664" lon="-1.48411">
        <ele>243.7</ele>
        <time>2022-08-30T09:40:10Z</time>
      </trkpt>
      <trkpt lat="43.32663" lon="-1.48394">
        <ele>242.4</ele>
        <time>2022-08-30T09:40:11Z</time>
      </trkpt>
      <trkpt lat="43.32661" lon="-1.48377">
        <ele>241.3</ele>
        <time>2022-08-30T09:40:12Z</time>
      </trkpt>
      <trkpt lat="43.32658" lon="-1.48361">
        <ele>240.2</ele>
        <time>2022-08-30T09:40:13Z</time>
      </trkpt>
      <trkpt lat="43.32656" lon="-1.48346">
        <ele>239.2</ele>
        <time>2022-08-30T09:40:14Z</time>
      </trkpt>
      <trkpt lat="43.32654" lon="-1.48331">
        <ele>238.3</ele>
        <time>2022-08-30T09:40:15Z</time>
      </trkpt>
      <trkpt lat="43.32654" lon="-1.48317">
        <ele>237.6</ele>
        <time>2022-08-30T09:40:16Z</time>
      </trkpt>
      <trkpt lat="43.32653" lon="-1.48303">
        <ele>236.9</ele>
        <time>2022-08-30T09:40:17Z</time>
      </trkpt>
      <trkpt lat="43.32654" lon="-1.4829">
        <ele>236.3</ele>
        <time>2022-08-30T09:40:18Z</time>
      </trkpt>
      <trkpt lat="43.32654" lon="-1.48277">
        <ele>235.6</ele>
        <time>2022-08-30T09:40:19Z</time>
      </trkpt>
      <trkpt lat="43.32654" lon="-1.48263">
        <ele>235</ele>
        <time>2022-08-30T09:40:20Z</time>
      </trkpt>
      <trkpt lat="43.32655" lon="-1.48251">
        <ele>234.3</ele>
        <time>2022-08-30T09:40:21Z</time>
      </trkpt>
      <trkpt lat="43.32655" lon="-1.48238">
        <ele>233.7</ele>
        <time>2022-08-30T09:40:22Z</time>
      </trkpt>
      <trkpt lat="43.32655" lon="-1.48226">
        <ele>233.1</ele>
        <time>2022-08-30T09:40:23Z</time>
      </trkpt>
      <trkpt lat="43.32655" lon="-1.48213">
        <ele>232.4</ele>
        <time>2022-08-30T09:40:24Z</time>
      </trkpt>
      <trkpt lat="43.32654" lon="-1.48199">
        <ele>231.6</ele>
        <time>2022-08-30T09:40:25Z</time>
      </trkpt>
      <trkpt lat="43.32655" lon="-1.48185">
        <ele>230.7</ele>
        <time>2022-08-30T09:40:26Z</time>
      </trkpt>
      <trkpt lat="43.32656" lon="-1.4817">
        <ele>229.6</ele>
        <time>2022-08-30T09:40:27Z</time>
      </trkpt>
      <trkpt lat="43.32659" lon="-1.48155">
        <ele>228.4</ele>
        <time>2022-08-30T09:40:28Z</time>
      </trkpt>
      <trkpt lat="43.32662" lon="-1.48139">
        <ele>227.1</ele>
        <time>2022-08-30T09:40:29Z</time>
      </trkpt>
      <trkpt lat="43.32664" lon="-1.48123">
        <ele>225.7</ele>
        <time>2022-08-30T09:40:30Z</time>
      </trkpt>
      <trkpt lat="43.32664" lon="-1.48105">
        <ele>224.2</ele>
        <time>2022-08-30T09:40:31Z</time>
      </trkpt>
      <trkpt lat="43.32664" lon="-1.48087">
        <ele>222.6</ele>
        <time>2022-08-30T09:40:32Z</time>
      </trkpt>
      <trkpt lat="43.32663" lon="-1.48068">
        <ele>221.1</ele>
        <time>2022-08-30T09:40:33Z</time>
      </trkpt>
      <trkpt lat="43.32662" lon="-1.4805">
        <ele>219.7</ele>
        <time>2022-08-30T09:40:34Z</time>
      </trkpt>
      <trkpt lat="43.32662" lon="-1.48032">
        <ele>218.3</ele>
        <time>2022-08-30T09:40:35Z</time>
      </trkpt>
      <trkpt lat="43.32663" lon="-1.48015">
        <ele>216.9</ele>
        <time>2022-08-30T09:40:36Z</time>
      </trkpt>
      <trkpt lat="43.32665" lon="-1.47999">
        <ele>215.2</ele>
        <time>2022-08-30T09:40:37Z</time>
      </trkpt>
      <trkpt lat="43.32667" lon="-1.47983">
        <ele>213.5</ele>
        <time>2022-08-30T09:40:38Z</time>
      </trkpt>
      <trkpt lat="43.3267" lon="-1.47967">
        <ele>211.7</ele>
        <time>2022-08-30T09:40:39Z</time>
      </trkpt>
      <trkpt lat="43.32672" lon="-1.47951">
        <ele>209.8</ele>
        <time>2022-08-30T09:40:40Z</time>
      </trkpt>
      <trkpt lat="43.32674" lon="-1.47935">
        <ele>208</ele>
        <time>2022-08-30T09:40:41Z</time>
      </trkpt>
      <trkpt lat="43.32677" lon="-1.47921">
        <ele>206.3</ele>
        <time>2022-08-30T09:40:42Z</time>
      </trkpt>
      <trkpt lat="43.32679" lon="-1.47908">
        <ele>204.7</ele>
        <time>2022-08-30T09:40:43Z</time>
      </trkpt>
      <trkpt lat="43.32683" lon="-1.47894">
        <ele>202.8</ele>
        <time>2022-08-30T09:40:44Z</time>
      </trkpt>
      <trkpt lat="43.32689" lon="-1.47881">
        <ele>200.9</ele>
        <time>2022-08-30T09:40:45Z</time>
      </trkpt>
      <trkpt lat="43.32696" lon="-1.47867">
        <ele>198.8</ele>
        <time>2022-08-30T09:40:46Z</time>
      </trkpt>
      <trkpt lat="43.32703" lon="-1.47853">
        <ele>196.8</ele>
        <time>2022-08-30T09:40:47Z</time>
      </trkpt>
      <trkpt lat="43.32711" lon="-1.4784">
        <ele>195</ele>
        <time>2022-08-30T09:40:48Z</time>
      </trkpt>
      <trkpt lat="43.3272" lon="-1.47828">
        <ele>193.4</ele>
        <time>2022-08-30T09:40:49Z</time>
      </trkpt>
      <trkpt lat="43.32728" lon="-1.47816">
        <ele>192.1</ele>
        <time>2022-08-30T09:40:50Z</time>
      </trkpt>
      <trkpt lat="43.32735" lon="-1.47805">
        <ele>190.8</ele>
        <time>2022-08-30T09:40:51Z</time>
      </trkpt>
      <trkpt lat="43.32742" lon="-1.47794">
        <ele>189.5</ele>
        <time>2022-08-30T09:40:52Z</time>
      </trkpt>
      <trkpt lat="43.32749" lon="-1.47783">
        <ele>188.2</ele>
        <time>2022-08-30T09:40:53Z</time>
      </trkpt>
      <trkpt lat="43.32755" lon="-1.47773">
        <ele>186.8</ele>
        <time>2022-08-30T09:40:54Z</time>
      </trkpt>
      <trkpt lat="43.32761" lon="-1.47762">
        <ele>185.4</ele>
        <time>2022-08-30T09:40:55Z</time>
      </trkpt>
      <trkpt lat="43.32766" lon="-1.47752">
        <ele>184.1</ele>
        <time>2022-08-30T09:40:56Z</time>
      </trkpt>
      <trkpt lat="43.32771" lon="-1.47742">
        <ele>182.9</ele>
        <time>2022-08-30T09:40:57Z</time>
      </trkpt>
      <trkpt lat="43.32775" lon="-1.47731">
        <ele>181.6</ele>
        <time>2022-08-30T09:40:58Z</time>
      </trkpt>
      <trkpt lat="43.32777" lon="-1.47719">
        <ele>180.2</ele>
        <time>2022-08-30T09:40:59Z</time>
      </trkpt>
      <trkpt lat="43.32779" lon="-1.47707">
        <ele>179.1</ele>
        <time>2022-08-30T09:41:00Z</time>
      </trkpt>
      <trkpt lat="43.3278" lon="-1.47698">
        <ele>178.1</ele>
        <time>2022-08-30T09:41:01Z</time>
      </trkpt>
      <trkpt lat="43.3278" lon="-1.47691">
        <ele>177.3</ele>
        <time>2022-08-30T09:41:02Z</time>
      </trkpt>
      <trkpt lat="43.3278" lon="-1.47685">
        <ele>176.5</ele>
        <time>2022-08-30T09:41:03Z</time>
      </trkpt>
      <trkpt lat="43.32779" lon="-1.47679">
        <ele>175.7</ele>
        <time>2022-08-30T09:41:04Z</time>
      </trkpt>
      <trkpt lat="43.32778" lon="-1.47675">
        <ele>175</ele>
        <time>2022-08-30T09:41:05Z</time>
      </trkpt>
      <trkpt lat="43.32776" lon="-1.47671">
        <ele>174.4</ele>
        <time>2022-08-30T09:41:06Z</time>
      </trkpt>
      <trkpt lat="43.32775" lon="-1.47668">
        <ele>173.6</ele>
        <time>2022-08-30T09:41:07Z</time>
      </trkpt>
      <trkpt lat="43.32773" lon="-1.47663">
        <ele>173.6</ele>
        <time>2022-08-30T09:41:08Z</time>
      </trkpt>
      <trkpt lat="43.32772" lon="-1.47661">
        <ele>173.6</ele>
        <time>2022-08-30T09:41:09Z</time>
      </trkpt>
      <trkpt lat="43.3277" lon="-1.47658">
        <ele>173.7</ele>
        <time>2022-08-30T09:41:10Z</time>
      </trkpt>
      <trkpt lat="43.32768" lon="-1.47654">
        <ele>173.7</ele>
        <time>2022-08-30T09:41:11Z</time>
      </trkpt>
      <trkpt lat="43.32765" lon="-1.4765">
        <ele>173.7</ele>
        <time>2022-08-30T09:41:12Z</time>
      </trkpt>
      <trkpt lat="43.32763" lon="-1.47645">
        <ele>173.8</ele>
        <time>2022-08-30T09:41:13Z</time>
      </trkpt>
      <trkpt lat="43.32761" lon="-1.47639">
        <ele>173.7</ele>
        <time>2022-08-30T09:41:14Z</time>
      </trkpt>
      <trkpt lat="43.3276" lon="-1.47633">
        <ele>173.6</ele>
        <time>2022-08-30T09:41:15Z</time>
      </trkpt>
      <trkpt lat="43.32759" lon="-1.47626">
        <ele>173.4</ele>
        <time>2022-08-30T09:41:16Z</time>
      </trkpt>
      <trkpt lat="43.32759" lon="-1.47619">
        <ele>173.3</ele>
        <time>2022-08-30T09:41:17Z</time>
      </trkpt>
      <trkpt lat="43.32759" lon="-1.47612">
        <ele>173.2</ele>
        <time>2022-08-30T09:41:18Z</time>
      </trkpt>
      <trkpt lat="43.32759" lon="-1.47604">
        <ele>173.1</ele>
        <time>2022-08-30T09:41:19Z</time>
      </trkpt>
      <trkpt lat="43.32759" lon="-1.47597">
        <ele>173</ele>
        <time>2022-08-30T09:41:20Z</time>
      </trkpt>
      <trkpt lat="43.3276" lon="-1.47589">
        <ele>173</ele>
        <time>2022-08-30T09:41:21Z</time>
      </trkpt>
      <trkpt lat="43.3276" lon="-1.47583">
        <ele>172.9</ele>
        <time>2022-08-30T09:41:22Z</time>
      </trkpt>
      <trkpt lat="43.3276" lon="-1.47575">
        <ele>172.9</ele>
        <time>2022-08-30T09:41:23Z</time>
      </trkpt>
      <trkpt lat="43.3276" lon="-1.47568">
        <ele>172.9</ele>
        <time>2022-08-30T09:41:24Z</time>
      </trkpt>
      <trkpt lat="43.3276" lon="-1.47561">
        <ele>172.9</ele>
        <time>2022-08-30T09:41:25Z</time>
      </trkpt>
      <trkpt lat="43.3276" lon="-1.47554">
        <ele>172.9</ele>
        <time>2022-08-30T09:41:26Z</time>
      </trkpt>
      <trkpt lat="43.32761" lon="-1.47547">
        <ele>172.9</ele>
        <time>2022-08-30T09:41:27Z</time>
      </trkpt>
      <trkpt lat="43.32761" lon="-1.47541">
        <ele>173</ele>
        <time>2022-08-30T09:41:28Z</time>
      </trkpt>
      <trkpt lat="43.32761" lon="-1.47534">
        <ele>173.1</ele>
        <time>2022-08-30T09:41:29Z</time>
      </trkpt>
      <trkpt lat="43.32761" lon="-1.47528">
        <ele>173.1</ele>
        <time>2022-08-30T09:41:30Z</time>
      </trkpt>
      <trkpt lat="43.32761" lon="-1.47522">
        <ele>173.3</ele>
        <time>2022-08-30T09:41:31Z</time>
      </trkpt>
      <trkpt lat="43.32761" lon="-1.47516">
        <ele>173.4</ele>
        <time>2022-08-30T09:41:32Z</time>
      </trkpt>
      <trkpt lat="43.32762" lon="-1.4751">
        <ele>173.5</ele>
        <time>2022-08-30T09:41:33Z</time>
      </trkpt>
      <trkpt lat="43.32762" lon="-1.47504">
        <ele>173.7</ele>
        <time>2022-08-30T09:41:34Z</time>
      </trkpt>
      <trkpt lat="43.32762" lon="-1.47498">
        <ele>173.8</ele>
        <time>2022-08-30T09:41:35Z</time>
      </trkpt>
      <trkpt lat="43.32763" lon="-1.47493">
        <ele>174</ele>
        <time>2022-08-30T09:41:36Z</time>
      </trkpt>
      <trkpt lat="43.32764" lon="-1.47488">
        <ele>174.1</ele>
        <time>2022-08-30T09:41:37Z</time>
      </trkpt>
      <trkpt lat="43.32764" lon="-1.47483">
        <ele>174.2</ele>
        <time>2022-08-30T09:41:38Z</time>
      </trkpt>
      <trkpt lat="43.32765" lon="-1.47479">
        <ele>174.3</ele>
        <time>2022-08-30T09:41:39Z</time>
      </trkpt>
      <trkpt lat="43.32766" lon="-1.47475">
        <ele>174.5</ele>
        <time>2022-08-30T09:41:40Z</time>
      </trkpt>
      <trkpt lat="43.32767" lon="-1.47471">
        <ele>174.6</ele>
        <time>2022-08-30T09:41:41Z</time>
      </trkpt>
      <trkpt lat="43.32767" lon="-1.47467">
        <ele>174.7</ele>
        <time>2022-08-30T09:41:42Z</time>
      </trkpt>
      <trkpt lat="43.32768" lon="-1.47462">
        <ele>174.8</ele>
        <time>2022-08-30T09:41:43Z</time>
      </trkpt>
      <trkpt lat="43.32769" lon="-1.47461">
        <ele>174.8</ele>
        <time>2022-08-30T09:41:44Z</time>
      </trkpt>
      <trkpt lat="43.32769" lon="-1.47456">
        <ele>175</ele>
        <time>2022-08-30T09:41:45Z</time>
      </trkpt>
      <trkpt lat="43.32769" lon="-1.47455">
        <ele>175</ele>
        <time>2022-08-30T09:41:46Z</time>
      </trkpt>
      <trkpt lat="43.32769" lon="-1.47453">
        <ele>175</ele>
        <time>2022-08-30T09:41:47Z</time>
      </trkpt>
      <trkpt lat="43.32769" lon="-1.47451">
        <ele>175</ele>
        <time>2022-08-30T09:41:48Z</time>
      </trkpt>
      <trkpt lat="43.3277" lon="-1.47447">
        <ele>175.1</ele>
        <time>2022-08-30T09:41:49Z</time>
      </trkpt>
      <trkpt lat="43.3277" lon="-1.47445">
        <ele>175.1</ele>
        <time>2022-08-30T09:41:50Z</time>
      </trkpt>
      <trkpt lat="43.32769" lon="-1.47441">
        <ele>175.1</ele>
        <time>2022-08-30T09:41:51Z</time>
      </trkpt>
      <trkpt lat="43.32769" lon="-1.4744">
        <ele>175.1</ele>
        <time>2022-08-30T09:41:52Z</time>
      </trkpt>
      <trkpt lat="43.32767" lon="-1.47439">
        <ele>175.1</ele>
        <time>2022-08-30T09:41:53Z</time>
      </trkpt>
      <trkpt lat="43.32766" lon="-1.47438">
        <ele>175.2</ele>
        <time>2022-08-30T09:41:54Z</time>
      </trkpt>
      <trkpt lat="43.32764" lon="-1.47437">
        <ele>175.2</ele>
        <time>2022-08-30T09:41:55Z</time>
      </trkpt>
      <trkpt lat="43.32763" lon="-1.47436">
        <ele>175.2</ele>
        <time>2022-08-30T09:41:56Z</time>
      </trkpt>
      <trkpt lat="43.32763" lon="-1.47435">
        <ele>175.2</ele>
        <time>2022-08-30T09:41:57Z</time>
      </trkpt>
      <trkpt lat="43.32761" lon="-1.47431">
        <ele>175.3</ele>
        <time>2022-08-30T09:41:58Z</time>
      </trkpt>
      <trkpt lat="43.3276" lon="-1.47429">
        <ele>175.3</ele>
        <time>2022-08-30T09:41:59Z</time>
      </trkpt>
      <trkpt lat="43.32759" lon="-1.47425">
        <ele>175.4</ele>
        <time>2022-08-30T09:42:00Z</time>
      </trkpt>
      <trkpt lat="43.32759" lon="-1.47421">
        <ele>175.8</ele>
        <time>2022-08-30T09:42:01Z</time>
      </trkpt>
      <trkpt lat="43.32759" lon="-1.47417">
        <ele>176</ele>
        <time>2022-08-30T09:42:02Z</time>
      </trkpt>
      <trkpt lat="43.32759" lon="-1.47413">
        <ele>176.2</ele>
        <time>2022-08-30T09:42:03Z</time>
      </trkpt>
      <trkpt lat="43.32759" lon="-1.47411">
        <ele>176.2</ele>
        <time>2022-08-30T09:42:04Z</time>
      </trkpt>
      <trkpt lat="43.32758" lon="-1.47409">
        <ele>176.3</ele>
        <time>2022-08-30T09:42:05Z</time>
      </trkpt>
      <trkpt lat="43.32757" lon="-1.47407">
        <ele>176.5</ele>
        <time>2022-08-30T09:42:06Z</time>
      </trkpt>
      <trkpt lat="43.32755" lon="-1.47403">
        <ele>176.7</ele>
        <time>2022-08-30T09:42:07Z</time>
      </trkpt>
      <trkpt lat="43.32755" lon="-1.47402">
        <ele>176.8</ele>
        <time>2022-08-30T09:42:08Z</time>
      </trkpt>
      <trkpt lat="43.32753" lon="-1.47398">
        <ele>177.1</ele>
        <time>2022-08-30T09:42:09Z</time>
      </trkpt>
      <trkpt lat="43.32753" lon="-1.47396">
        <ele>177.2</ele>
        <time>2022-08-30T09:42:10Z</time>
      </trkpt>
      <trkpt lat="43.32751" lon="-1.47392">
        <ele>177.5</ele>
        <time>2022-08-30T09:42:11Z</time>
      </trkpt>
      <trkpt lat="43.3275" lon="-1.47391">
        <ele>177.6</ele>
        <time>2022-08-30T09:42:12Z</time>
      </trkpt>
      <trkpt lat="43.32748" lon="-1.47387">
        <ele>177.9</ele>
        <time>2022-08-30T09:42:13Z</time>
      </trkpt>
      <trkpt lat="43.32747" lon="-1.47385">
        <ele>178</ele>
        <time>2022-08-30T09:42:14Z</time>
      </trkpt>
      <trkpt lat="43.32745" lon="-1.47381">
        <ele>178.3</ele>
        <time>2022-08-30T09:42:15Z</time>
      </trkpt>
      <trkpt lat="43.32745" lon="-1.4738">
        <ele>178.4</ele>
        <time>2022-08-30T09:42:16Z</time>
      </trkpt>
      <trkpt lat="43.32742" lon="-1.47376">
        <ele>178.8</ele>
        <time>2022-08-30T09:42:17Z</time>
      </trkpt>
      <trkpt lat="43.32741" lon="-1.47375">
        <ele>178.9</ele>
        <time>2022-08-30T09:42:18Z</time>
      </trkpt>
      <trkpt lat="43.32739" lon="-1.47372">
        <ele>179.2</ele>
        <time>2022-08-30T09:42:19Z</time>
      </trkpt>
      <trkpt lat="43.32738" lon="-1.4737">
        <ele>179.3</ele>
        <time>2022-08-30T09:42:20Z</time>
      </trkpt>
      <trkpt lat="43.32736" lon="-1.47366">
        <ele>179.7</ele>
        <time>2022-08-30T09:42:21Z</time>
      </trkpt>
      <trkpt lat="43.32735" lon="-1.47365">
        <ele>179.8</ele>
        <time>2022-08-30T09:42:22Z</time>
      </trkpt>
      <trkpt lat="43.32733" lon="-1.47361">
        <ele>180</ele>
        <time>2022-08-30T09:42:23Z</time>
      </trkpt>
      <trkpt lat="43.32731" lon="-1.47357">
        <ele>180.4</ele>
        <time>2022-08-30T09:42:24Z</time>
      </trkpt>
      <trkpt lat="43.32731" lon="-1.47356">
        <ele>180.5</ele>
        <time>2022-08-30T09:42:25Z</time>
      </trkpt>
      <trkpt lat="43.32728" lon="-1.47351">
        <ele>180.8</ele>
        <time>2022-08-30T09:42:26Z</time>
      </trkpt>
      <trkpt lat="43.32728" lon="-1.4735">
        <ele>181</ele>
        <time>2022-08-30T09:42:27Z</time>
      </trkpt>
      <trkpt lat="43.32726" lon="-1.47346">
        <ele>181.3</ele>
        <time>2022-08-30T09:42:28Z</time>
      </trkpt>
      <trkpt lat="43.32725" lon="-1.47345">
        <ele>181.4</ele>
        <time>2022-08-30T09:42:29Z</time>
      </trkpt>
      <trkpt lat="43.32722" lon="-1.47341">
        <ele>181.7</ele>
        <time>2022-08-30T09:42:30Z</time>
      </trkpt>
      <trkpt lat="43.32721" lon="-1.47339">
        <ele>181.9</ele>
        <time>2022-08-30T09:42:31Z</time>
      </trkpt>
      <trkpt lat="43.32719" lon="-1.47335">
        <ele>182.2</ele>
        <time>2022-08-30T09:42:32Z</time>
      </trkpt>
      <trkpt lat="43.32718" lon="-1.47334">
        <ele>182.3</ele>
        <time>2022-08-30T09:42:33Z</time>
      </trkpt>
      <trkpt lat="43.32716" lon="-1.4733">
        <ele>182.7</ele>
        <time>2022-08-30T09:42:34Z</time>
      </trkpt>
      <trkpt lat="43.32715" lon="-1.47329">
        <ele>182.8</ele>
        <time>2022-08-30T09:42:35Z</time>
      </trkpt>
      <trkpt lat="43.32713" lon="-1.47324">
        <ele>183.1</ele>
        <time>2022-08-30T09:42:36Z</time>
      </trkpt>
      <trkpt lat="43.32712" lon="-1.47323">
        <ele>183.3</ele>
        <time>2022-08-30T09:42:37Z</time>
      </trkpt>
      <trkpt lat="43.32709" lon="-1.47319">
        <ele>183.6</ele>
        <time>2022-08-30T09:42:38Z</time>
      </trkpt>
      <trkpt lat="43.32708" lon="-1.47318">
        <ele>183.8</ele>
        <time>2022-08-30T09:42:39Z</time>
      </trkpt>
      <trkpt lat="43.32707" lon="-1.47315">
        <ele>184</ele>
        <time>2022-08-30T09:42:40Z</time>
      </trkpt>
      <trkpt lat="43.32704" lon="-1.47311">
        <ele>184.4</ele>
        <time>2022-08-30T09:42:41Z</time>
      </trkpt>
      <trkpt lat="43.32703" lon="-1.47309">
        <ele>184.6</ele>
        <time>2022-08-30T09:42:42Z</time>
      </trkpt>
      <trkpt lat="43.32701" lon="-1.47305">
        <ele>184.9</ele>
        <time>2022-08-30T09:42:43Z</time>
      </trkpt>
      <trkpt lat="43.327" lon="-1.47304">
        <ele>185.1</ele>
        <time>2022-08-30T09:42:44Z</time>
      </trkpt>
      <trkpt lat="43.32698" lon="-1.473">
        <ele>185.5</ele>
        <time>2022-08-30T09:42:45Z</time>
      </trkpt>
      <trkpt lat="43.32697" lon="-1.47298">
        <ele>185.6</ele>
        <time>2022-08-30T09:42:46Z</time>
      </trkpt>
      <trkpt lat="43.32695" lon="-1.47296">
        <ele>185.9</ele>
        <time>2022-08-30T09:42:47Z</time>
      </trkpt>
      <trkpt lat="43.32693" lon="-1.47291">
        <ele>186.3</ele>
        <time>2022-08-30T09:42:48Z</time>
      </trkpt>
      <trkpt lat="43.32692" lon="-1.4729">
        <ele>186.4</ele>
        <time>2022-08-30T09:42:49Z</time>
      </trkpt>
      <trkpt lat="43.32689" lon="-1.47286">
        <ele>186.8</ele>
        <time>2022-08-30T09:42:50Z</time>
      </trkpt>
      <trkpt lat="43.32689" lon="-1.47285">
        <ele>187</ele>
        <time>2022-08-30T09:42:51Z</time>
      </trkpt>
      <trkpt lat="43.32686" lon="-1.47281">
        <ele>187.4</ele>
        <time>2022-08-30T09:42:52Z</time>
      </trkpt>
      <trkpt lat="43.32685" lon="-1.4728">
        <ele>187.5</ele>
        <time>2022-08-30T09:42:53Z</time>
      </trkpt>
      <trkpt lat="43.32683" lon="-1.47276">
        <ele>187.9</ele>
        <time>2022-08-30T09:42:54Z</time>
      </trkpt>
      <trkpt lat="43.32682" lon="-1.47274">
        <ele>188</ele>
        <time>2022-08-30T09:42:55Z</time>
      </trkpt>
      <trkpt lat="43.3268" lon="-1.4727">
        <ele>188.4</ele>
        <time>2022-08-30T09:42:56Z</time>
      </trkpt>
      <trkpt lat="43.3268" lon="-1.47269">
        <ele>188.5</ele>
        <time>2022-08-30T09:42:57Z</time>
      </trkpt>
      <trkpt lat="43.32678" lon="-1.47265">
        <ele>188.9</ele>
        <time>2022-08-30T09:42:58Z</time>
      </trkpt>
      <trkpt lat="43.32677" lon="-1.47263">
        <ele>189</ele>
        <time>2022-08-30T09:42:59Z</time>
      </trkpt>
      <trkpt lat="43.32675" lon="-1.4726">
        <ele>189.4</ele>
        <time>2022-08-30T09:43:00Z</time>
      </trkpt>
      <trkpt lat="43.32674" lon="-1.47259">
        <ele>189.5</ele>
        <time>2022-08-30T09:43:01Z</time>
      </trkpt>
      <trkpt lat="43.32672" lon="-1.47255">
        <ele>189.9</ele>
        <time>2022-08-30T09:43:02Z</time>
      </trkpt>
      <trkpt lat="43.32671" lon="-1.47254">
        <ele>190</ele>
        <time>2022-08-30T09:43:03Z</time>
      </trkpt>
      <trkpt lat="43.32669" lon="-1.47251">
        <ele>190.4</ele>
        <time>2022-08-30T09:43:04Z</time>
      </trkpt>
      <trkpt lat="43.32668" lon="-1.47249">
        <ele>190.5</ele>
        <time>2022-08-30T09:43:05Z</time>
      </trkpt>
      <trkpt lat="43.32666" lon="-1.47246">
        <ele>190.8</ele>
        <time>2022-08-30T09:43:06Z</time>
      </trkpt>
      <trkpt lat="43.32665" lon="-1.47244">
        <ele>190.9</ele>
        <time>2022-08-30T09:43:07Z</time>
      </trkpt>
      <trkpt lat="43.32663" lon="-1.47242">
        <ele>191.3</ele>
        <time>2022-08-30T09:43:08Z</time>
      </trkpt>
      <trkpt lat="43.32662" lon="-1.47241">
        <ele>191.4</ele>
        <time>2022-08-30T09:43:09Z</time>
      </trkpt>
      <trkpt lat="43.32658" lon="-1.47239">
        <ele>191.7</ele>
        <time>2022-08-30T09:43:10Z</time>
      </trkpt>
      <trkpt lat="43.32657" lon="-1.47238">
        <ele>191.8</ele>
        <time>2022-08-30T09:43:11Z</time>
      </trkpt>
      <trkpt lat="43.32653" lon="-1.47237">
        <ele>192.1</ele>
        <time>2022-08-30T09:43:12Z</time>
      </trkpt>
      <trkpt lat="43.32652" lon="-1.47237">
        <ele>192.1</ele>
        <time>2022-08-30T09:43:13Z</time>
      </trkpt>
      <trkpt lat="43.32649" lon="-1.47236">
        <ele>192.6</ele>
        <time>2022-08-30T09:43:14Z</time>
      </trkpt>
      <trkpt lat="43.32648" lon="-1.47235">
        <ele>192.6</ele>
        <time>2022-08-30T09:43:15Z</time>
      </trkpt>
      <trkpt lat="43.32645" lon="-1.47236">
        <ele>192.6</ele>
        <time>2022-08-30T09:43:16Z</time>
      </trkpt>
      <trkpt lat="43.32644" lon="-1.47237">
        <ele>192.6</ele>
        <time>2022-08-30T09:43:17Z</time>
      </trkpt>
      <trkpt lat="43.32641" lon="-1.47238">
        <ele>192.7</ele>
        <time>2022-08-30T09:43:18Z</time>
      </trkpt>
      <trkpt lat="43.3264" lon="-1.47238">
        <ele>192.7</ele>
        <time>2022-08-30T09:43:19Z</time>
      </trkpt>
      <trkpt lat="43.32636" lon="-1.4724">
        <ele>192.9</ele>
        <time>2022-08-30T09:43:20Z</time>
      </trkpt>
      <trkpt lat="43.32635" lon="-1.4724">
        <ele>193</ele>
        <time>2022-08-30T09:43:21Z</time>
      </trkpt>
      <trkpt lat="43.32632" lon="-1.47241">
        <ele>193.1</ele>
        <time>2022-08-30T09:43:22Z</time>
      </trkpt>
      <trkpt lat="43.32629" lon="-1.47243">
        <ele>193.3</ele>
        <time>2022-08-30T09:43:23Z</time>
      </trkpt>
      <trkpt lat="43.32628" lon="-1.47243">
        <ele>193.4</ele>
        <time>2022-08-30T09:43:24Z</time>
      </trkpt>
      <trkpt lat="43.32625" lon="-1.47245">
        <ele>193.5</ele>
        <time>2022-08-30T09:43:25Z</time>
      </trkpt>
      <trkpt lat="43.32622" lon="-1.47247">
        <ele>193.8</ele>
        <time>2022-08-30T09:43:26Z</time>
      </trkpt>
      <trkpt lat="43.3262" lon="-1.47249">
        <ele>193.9</ele>
        <time>2022-08-30T09:43:27Z</time>
      </trkpt>
      <trkpt lat="43.32617" lon="-1.4725">
        <ele>194.1</ele>
        <time>2022-08-30T09:43:28Z</time>
      </trkpt>
      <trkpt lat="43.32613" lon="-1.47253">
        <ele>194.4</ele>
        <time>2022-08-30T09:43:29Z</time>
      </trkpt>
      <trkpt lat="43.32612" lon="-1.47254">
        <ele>194.5</ele>
        <time>2022-08-30T09:43:30Z</time>
      </trkpt>
      <trkpt lat="43.32609" lon="-1.47256">
        <ele>194.8</ele>
        <time>2022-08-30T09:43:31Z</time>
      </trkpt>
      <trkpt lat="43.32607" lon="-1.47257">
        <ele>194.9</ele>
        <time>2022-08-30T09:43:32Z</time>
      </trkpt>
      <trkpt lat="43.32604" lon="-1.4726">
        <ele>195.2</ele>
        <time>2022-08-30T09:43:33Z</time>
      </trkpt>
      <trkpt lat="43.32603" lon="-1.47261">
        <ele>195.3</ele>
        <time>2022-08-30T09:43:34Z</time>
      </trkpt>
      <trkpt lat="43.32599" lon="-1.47264">
        <ele>195.7</ele>
        <time>2022-08-30T09:43:35Z</time>
      </trkpt>
      <trkpt lat="43.32598" lon="-1.47265">
        <ele>195.8</ele>
        <time>2022-08-30T09:43:36Z</time>
      </trkpt>
      <trkpt lat="43.32594" lon="-1.47267">
        <ele>196.1</ele>
        <time>2022-08-30T09:43:37Z</time>
      </trkpt>
      <trkpt lat="43.32593" lon="-1.47267">
        <ele>196.2</ele>
        <time>2022-08-30T09:43:38Z</time>
      </trkpt>
      <trkpt lat="43.32589" lon="-1.47269">
        <ele>196.5</ele>
        <time>2022-08-30T09:43:39Z</time>
      </trkpt>
      <trkpt lat="43.32588" lon="-1.4727">
        <ele>196.6</ele>
        <time>2022-08-30T09:43:40Z</time>
      </trkpt>
      <trkpt lat="43.32585" lon="-1.47272">
        <ele>196.9</ele>
        <time>2022-08-30T09:43:41Z</time>
      </trkpt>
      <trkpt lat="43.32584" lon="-1.47272">
        <ele>197</ele>
        <time>2022-08-30T09:43:42Z</time>
      </trkpt>
      <trkpt lat="43.32581" lon="-1.47273">
        <ele>197.2</ele>
        <time>2022-08-30T09:43:43Z</time>
      </trkpt>
      <trkpt lat="43.32578" lon="-1.47275">
        <ele>197.5</ele>
        <time>2022-08-30T09:43:44Z</time>
      </trkpt>
      <trkpt lat="43.32577" lon="-1.47276">
        <ele>197.6</ele>
        <time>2022-08-30T09:43:45Z</time>
      </trkpt>
      <trkpt lat="43.32573" lon="-1.47278">
        <ele>197.8</ele>
        <time>2022-08-30T09:43:46Z</time>
      </trkpt>
      <trkpt lat="43.32572" lon="-1.47278">
        <ele>197.9</ele>
        <time>2022-08-30T09:43:47Z</time>
      </trkpt>
      <trkpt lat="43.32569" lon="-1.4728">
        <ele>198.2</ele>
        <time>2022-08-30T09:43:48Z</time>
      </trkpt>
      <trkpt lat="43.32567" lon="-1.47281">
        <ele>198.4</ele>
        <time>2022-08-30T09:43:49Z</time>
      </trkpt>
      <trkpt lat="43.32565" lon="-1.47282">
        <ele>198.6</ele>
        <time>2022-08-30T09:43:50Z</time>
      </trkpt>
      <trkpt lat="43.32561" lon="-1.47283">
        <ele>198.9</ele>
        <time>2022-08-30T09:43:51Z</time>
      </trkpt>
      <trkpt lat="43.3256" lon="-1.47283">
        <ele>199</ele>
        <time>2022-08-30T09:43:52Z</time>
      </trkpt>
      <trkpt lat="43.32556" lon="-1.47285">
        <ele>199.3</ele>
        <time>2022-08-30T09:43:53Z</time>
      </trkpt>
      <trkpt lat="43.32555" lon="-1.47285">
        <ele>199.4</ele>
        <time>2022-08-30T09:43:54Z</time>
      </trkpt>
      <trkpt lat="43.32552" lon="-1.47288">
        <ele>199.7</ele>
        <time>2022-08-30T09:43:55Z</time>
      </trkpt>
      <trkpt lat="43.32551" lon="-1.47288">
        <ele>199.8</ele>
        <time>2022-08-30T09:43:56Z</time>
      </trkpt>
      <trkpt lat="43.32547" lon="-1.47291">
        <ele>200.1</ele>
        <time>2022-08-30T09:43:57Z</time>
      </trkpt>
      <trkpt lat="43.32546" lon="-1.47292">
        <ele>200.2</ele>
        <time>2022-08-30T09:43:58Z</time>
      </trkpt>
      <trkpt lat="43.32544" lon="-1.47294">
        <ele>200.4</ele>
        <time>2022-08-30T09:43:59Z</time>
      </trkpt>
      <trkpt lat="43.32541" lon="-1.47296">
        <ele>200.7</ele>
        <time>2022-08-30T09:44:00Z</time>
      </trkpt>
      <trkpt lat="43.32538" lon="-1.47298">
        <ele>201</ele>
        <time>2022-08-30T09:44:01Z</time>
      </trkpt>
      <trkpt lat="43.32536" lon="-1.47299">
        <ele>201.1</ele>
        <time>2022-08-30T09:44:02Z</time>
      </trkpt>
      <trkpt lat="43.32533" lon="-1.473">
        <ele>201.4</ele>
        <time>2022-08-30T09:44:03Z</time>
      </trkpt>
      <trkpt lat="43.32531" lon="-1.47301">
        <ele>201.6</ele>
        <time>2022-08-30T09:44:04Z</time>
      </trkpt>
      <trkpt lat="43.32528" lon="-1.47303">
        <ele>201.9</ele>
        <time>2022-08-30T09:44:05Z</time>
      </trkpt>
      <trkpt lat="43.32526" lon="-1.47304">
        <ele>202.2</ele>
        <time>2022-08-30T09:44:06Z</time>
      </trkpt>
      <trkpt lat="43.32522" lon="-1.47306">
        <ele>202.7</ele>
        <time>2022-08-30T09:44:07Z</time>
      </trkpt>
      <trkpt lat="43.32521" lon="-1.47307">
        <ele>202.8</ele>
        <time>2022-08-30T09:44:08Z</time>
      </trkpt>
      <trkpt lat="43.32517" lon="-1.47309">
        <ele>203.2</ele>
        <time>2022-08-30T09:44:09Z</time>
      </trkpt>
      <trkpt lat="43.32516" lon="-1.4731">
        <ele>203.3</ele>
        <time>2022-08-30T09:44:10Z</time>
      </trkpt>
      <trkpt lat="43.32513" lon="-1.47312">
        <ele>203.7</ele>
        <time>2022-08-30T09:44:11Z</time>
      </trkpt>
      <trkpt lat="43.32512" lon="-1.47313">
        <ele>203.9</ele>
        <time>2022-08-30T09:44:12Z</time>
      </trkpt>
      <trkpt lat="43.32509" lon="-1.47315">
        <ele>204.3</ele>
        <time>2022-08-30T09:44:13Z</time>
      </trkpt>
      <trkpt lat="43.32508" lon="-1.47315">
        <ele>204.4</ele>
        <time>2022-08-30T09:44:14Z</time>
      </trkpt>
      <trkpt lat="43.32504" lon="-1.47317">
        <ele>204.8</ele>
        <time>2022-08-30T09:44:15Z</time>
      </trkpt>
      <trkpt lat="43.32503" lon="-1.47317">
        <ele>205</ele>
        <time>2022-08-30T09:44:16Z</time>
      </trkpt>
      <trkpt lat="43.325" lon="-1.4732">
        <ele>205.4</ele>
        <time>2022-08-30T09:44:17Z</time>
      </trkpt>
      <trkpt lat="43.32499" lon="-1.47321">
        <ele>205.5</ele>
        <time>2022-08-30T09:44:18Z</time>
      </trkpt>
      <trkpt lat="43.32496" lon="-1.47323">
        <ele>205.9</ele>
        <time>2022-08-30T09:44:19Z</time>
      </trkpt>
      <trkpt lat="43.32495" lon="-1.47324">
        <ele>206</ele>
        <time>2022-08-30T09:44:20Z</time>
      </trkpt>
      <trkpt lat="43.32491" lon="-1.47326">
        <ele>206.5</ele>
        <time>2022-08-30T09:44:21Z</time>
      </trkpt>
      <trkpt lat="43.3249" lon="-1.47326">
        <ele>206.6</ele>
        <time>2022-08-30T09:44:22Z</time>
      </trkpt>
      <trkpt lat="43.32487" lon="-1.47329">
        <ele>207</ele>
        <time>2022-08-30T09:44:23Z</time>
      </trkpt>
      <trkpt lat="43.32486" lon="-1.47329">
        <ele>207.2</ele>
        <time>2022-08-30T09:44:24Z</time>
      </trkpt>
      <trkpt lat="43.32484" lon="-1.47331">
        <ele>207.6</ele>
        <time>2022-08-30T09:44:25Z</time>
      </trkpt>
      <trkpt lat="43.32483" lon="-1.47332">
        <ele>207.7</ele>
        <time>2022-08-30T09:44:26Z</time>
      </trkpt>
      <trkpt lat="43.3248" lon="-1.47334">
        <ele>208.1</ele>
        <time>2022-08-30T09:44:27Z</time>
      </trkpt>
      <trkpt lat="43.32479" lon="-1.47335">
        <ele>208.2</ele>
        <time>2022-08-30T09:44:28Z</time>
      </trkpt>
      <trkpt lat="43.32476" lon="-1.47337">
        <ele>208.6</ele>
        <time>2022-08-30T09:44:29Z</time>
      </trkpt>
      <trkpt lat="43.32475" lon="-1.47337">
        <ele>208.7</ele>
        <time>2022-08-30T09:44:30Z</time>
      </trkpt>
      <trkpt lat="43.32473" lon="-1.47339">
        <ele>209</ele>
        <time>2022-08-30T09:44:31Z</time>
      </trkpt>
      <trkpt lat="43.32472" lon="-1.4734">
        <ele>209.2</ele>
        <time>2022-08-30T09:44:32Z</time>
      </trkpt>
      <trkpt lat="43.32469" lon="-1.47343">
        <ele>209.5</ele>
        <time>2022-08-30T09:44:33Z</time>
      </trkpt>
      <trkpt lat="43.32469" lon="-1.47343">
        <ele>209.6</ele>
        <time>2022-08-30T09:44:34Z</time>
      </trkpt>
      <trkpt lat="43.32466" lon="-1.47345">
        <ele>210</ele>
        <time>2022-08-30T09:44:35Z</time>
      </trkpt>
      <trkpt lat="43.32465" lon="-1.47346">
        <ele>210.1</ele>
        <time>2022-08-30T09:44:36Z</time>
      </trkpt>
      <trkpt lat="43.32463" lon="-1.47348">
        <ele>210.4</ele>
        <time>2022-08-30T09:44:37Z</time>
      </trkpt>
      <trkpt lat="43.32462" lon="-1.47348">
        <ele>210.5</ele>
        <time>2022-08-30T09:44:38Z</time>
      </trkpt>
      <trkpt lat="43.32459" lon="-1.4735">
        <ele>210.9</ele>
        <time>2022-08-30T09:44:39Z</time>
      </trkpt>
      <trkpt lat="43.32458" lon="-1.47351">
        <ele>211</ele>
        <time>2022-08-30T09:44:40Z</time>
      </trkpt>
      <trkpt lat="43.32455" lon="-1.47352">
        <ele>211.3</ele>
        <time>2022-08-30T09:44:41Z</time>
      </trkpt>
      <trkpt lat="43.32454" lon="-1.47353">
        <ele>211.4</ele>
        <time>2022-08-30T09:44:42Z</time>
      </trkpt>
      <trkpt lat="43.32452" lon="-1.47355">
        <ele>211.8</ele>
        <time>2022-08-30T09:44:43Z</time>
      </trkpt>
      <trkpt lat="43.32451" lon="-1.47356">
        <ele>211.9</ele>
        <time>2022-08-30T09:44:44Z</time>
      </trkpt>
      <trkpt lat="43.32448" lon="-1.47358">
        <ele>212.2</ele>
        <time>2022-08-30T09:44:45Z</time>
      </trkpt>
      <trkpt lat="43.32447" lon="-1.47358">
        <ele>212.3</ele>
        <time>2022-08-30T09:44:46Z</time>
      </trkpt>
      <trkpt lat="43.32444" lon="-1.4736">
        <ele>212.6</ele>
        <time>2022-08-30T09:44:47Z</time>
      </trkpt>
      <trkpt lat="43.32443" lon="-1.47361">
        <ele>212.7</ele>
        <time>2022-08-30T09:44:48Z</time>
      </trkpt>
      <trkpt lat="43.32441" lon="-1.47362">
        <ele>212.9</ele>
        <time>2022-08-30T09:44:49Z</time>
      </trkpt>
      <trkpt lat="43.3244" lon="-1.47363">
        <ele>213</ele>
        <time>2022-08-30T09:44:50Z</time>
      </trkpt>
      <trkpt lat="43.32437" lon="-1.47364">
        <ele>213.3</ele>
        <time>2022-08-30T09:44:51Z</time>
      </trkpt>
      <trkpt lat="43.32436" lon="-1.47365">
        <ele>213.4</ele>
        <time>2022-08-30T09:44:52Z</time>
      </trkpt>
      <trkpt lat="43.32432" lon="-1.47365">
        <ele>213.8</ele>
        <time>2022-08-30T09:44:53Z</time>
      </trkpt>
      <trkpt lat="43.32431" lon="-1.47366">
        <ele>213.9</ele>
        <time>2022-08-30T09:44:54Z</time>
      </trkpt>
      <trkpt lat="43.32428" lon="-1.47367">
        <ele>214.2</ele>
        <time>2022-08-30T09:44:55Z</time>
      </trkpt>
      <trkpt lat="43.32427" lon="-1.47367">
        <ele>214.3</ele>
        <time>2022-08-30T09:44:56Z</time>
      </trkpt>
      <trkpt lat="43.32424" lon="-1.47369">
        <ele>214.6</ele>
        <time>2022-08-30T09:44:57Z</time>
      </trkpt>
      <trkpt lat="43.32423" lon="-1.4737">
        <ele>214.7</ele>
        <time>2022-08-30T09:44:58Z</time>
      </trkpt>
      <trkpt lat="43.3242" lon="-1.47372">
        <ele>215.1</ele>
        <time>2022-08-30T09:44:59Z</time>
      </trkpt>
      <trkpt lat="43.32419" lon="-1.47373">
        <ele>215.2</ele>
        <time>2022-08-30T09:45:00Z</time>
      </trkpt>
      <trkpt lat="43.32417" lon="-1.47375">
        <ele>215.5</ele>
        <time>2022-08-30T09:45:01Z</time>
      </trkpt>
      <trkpt lat="43.32416" lon="-1.47376">
        <ele>215.6</ele>
        <time>2022-08-30T09:45:02Z</time>
      </trkpt>
      <trkpt lat="43.32413" lon="-1.47378">
        <ele>216</ele>
        <time>2022-08-30T09:45:03Z</time>
      </trkpt>
      <trkpt lat="43.32412" lon="-1.47379">
        <ele>216.1</ele>
        <time>2022-08-30T09:45:04Z</time>
      </trkpt>
      <trkpt lat="43.3241" lon="-1.47382">
        <ele>216.5</ele>
        <time>2022-08-30T09:45:05Z</time>
      </trkpt>
      <trkpt lat="43.32409" lon="-1.47383">
        <ele>216.6</ele>
        <time>2022-08-30T09:45:06Z</time>
      </trkpt>
      <trkpt lat="43.32406" lon="-1.47385">
        <ele>217</ele>
        <time>2022-08-30T09:45:07Z</time>
      </trkpt>
      <trkpt lat="43.32405" lon="-1.47386">
        <ele>217.1</ele>
        <time>2022-08-30T09:45:08Z</time>
      </trkpt>
      <trkpt lat="43.32403" lon="-1.47389">
        <ele>217.5</ele>
        <time>2022-08-30T09:45:09Z</time>
      </trkpt>
      <trkpt lat="43.32402" lon="-1.4739">
        <ele>217.6</ele>
        <time>2022-08-30T09:45:10Z</time>
      </trkpt>
      <trkpt lat="43.324" lon="-1.47394">
        <ele>218</ele>
        <time>2022-08-30T09:45:11Z</time>
      </trkpt>
      <trkpt lat="43.324" lon="-1.47395">
        <ele>218.1</ele>
        <time>2022-08-30T09:45:12Z</time>
      </trkpt>
      <trkpt lat="43.32398" lon="-1.47398">
        <ele>218.5</ele>
        <time>2022-08-30T09:45:13Z</time>
      </trkpt>
      <trkpt lat="43.32397" lon="-1.47399">
        <ele>218.6</ele>
        <time>2022-08-30T09:45:14Z</time>
      </trkpt>
      <trkpt lat="43.32395" lon="-1.47402">
        <ele>218.9</ele>
        <time>2022-08-30T09:45:15Z</time>
      </trkpt>
      <trkpt lat="43.32394" lon="-1.47403">
        <ele>219</ele>
        <time>2022-08-30T09:45:16Z</time>
      </trkpt>
      <trkpt lat="43.32392" lon="-1.47406">
        <ele>219.3</ele>
        <time>2022-08-30T09:45:17Z</time>
      </trkpt>
      <trkpt lat="43.32391" lon="-1.47407">
        <ele>219.4</ele>
        <time>2022-08-30T09:45:18Z</time>
      </trkpt>
      <trkpt lat="43.32389" lon="-1.47409">
        <ele>219.8</ele>
        <time>2022-08-30T09:45:19Z</time>
      </trkpt>
      <trkpt lat="43.32388" lon="-1.4741">
        <ele>219.9</ele>
        <time>2022-08-30T09:45:20Z</time>
      </trkpt>
      <trkpt lat="43.32386" lon="-1.47413">
        <ele>220.2</ele>
        <time>2022-08-30T09:45:21Z</time>
      </trkpt>
      <trkpt lat="43.32385" lon="-1.47415">
        <ele>220.3</ele>
        <time>2022-08-30T09:45:22Z</time>
      </trkpt>
      <trkpt lat="43.32383" lon="-1.47417">
        <ele>220.6</ele>
        <time>2022-08-30T09:45:23Z</time>
      </trkpt>
      <trkpt lat="43.32382" lon="-1.47418">
        <ele>220.7</ele>
        <time>2022-08-30T09:45:24Z</time>
      </trkpt>
      <trkpt lat="43.3238" lon="-1.47421">
        <ele>221</ele>
        <time>2022-08-30T09:45:25Z</time>
      </trkpt>
      <trkpt lat="43.32379" lon="-1.47422">
        <ele>221.1</ele>
        <time>2022-08-30T09:45:26Z</time>
      </trkpt>
      <trkpt lat="43.32377" lon="-1.47425">
        <ele>221.4</ele>
        <time>2022-08-30T09:45:27Z</time>
      </trkpt>
      <trkpt lat="43.32376" lon="-1.47425">
        <ele>221.5</ele>
        <time>2022-08-30T09:45:28Z</time>
      </trkpt>
      <trkpt lat="43.32373" lon="-1.47427">
        <ele>221.8</ele>
        <time>2022-08-30T09:45:29Z</time>
      </trkpt>
      <trkpt lat="43.32372" lon="-1.47428">
        <ele>222</ele>
        <time>2022-08-30T09:45:30Z</time>
      </trkpt>
      <trkpt lat="43.32369" lon="-1.4743">
        <ele>222.3</ele>
        <time>2022-08-30T09:45:31Z</time>
      </trkpt>
      <trkpt lat="43.32368" lon="-1.47431">
        <ele>222.4</ele>
        <time>2022-08-30T09:45:32Z</time>
      </trkpt>
      <trkpt lat="43.32365" lon="-1.47434">
        <ele>222.7</ele>
        <time>2022-08-30T09:45:33Z</time>
      </trkpt>
      <trkpt lat="43.32364" lon="-1.47434">
        <ele>222.8</ele>
        <time>2022-08-30T09:45:34Z</time>
      </trkpt>
      <trkpt lat="43.32362" lon="-1.47437">
        <ele>223.1</ele>
        <time>2022-08-30T09:45:35Z</time>
      </trkpt>
      <trkpt lat="43.32361" lon="-1.47438">
        <ele>223.2</ele>
        <time>2022-08-30T09:45:36Z</time>
      </trkpt>
      <trkpt lat="43.32358" lon="-1.47442">
        <ele>223.6</ele>
        <time>2022-08-30T09:45:37Z</time>
      </trkpt>
      <trkpt lat="43.32357" lon="-1.47443">
        <ele>223.7</ele>
        <time>2022-08-30T09:45:38Z</time>
      </trkpt>
      <trkpt lat="43.32355" lon="-1.47445">
        <ele>223.9</ele>
        <time>2022-08-30T09:45:39Z</time>
      </trkpt>
      <trkpt lat="43.32354" lon="-1.47446">
        <ele>224</ele>
        <time>2022-08-30T09:45:40Z</time>
      </trkpt>
      <trkpt lat="43.32352" lon="-1.47449">
        <ele>224.3</ele>
        <time>2022-08-30T09:45:41Z</time>
      </trkpt>
      <trkpt lat="43.32351" lon="-1.4745">
        <ele>224.4</ele>
        <time>2022-08-30T09:45:42Z</time>
      </trkpt>
      <trkpt lat="43.32349" lon="-1.47453">
        <ele>224.7</ele>
        <time>2022-08-30T09:45:43Z</time>
      </trkpt>
      <trkpt lat="43.32348" lon="-1.47454">
        <ele>224.8</ele>
        <time>2022-08-30T09:45:44Z</time>
      </trkpt>
      <trkpt lat="43.32346" lon="-1.47457">
        <ele>225</ele>
        <time>2022-08-30T09:45:45Z</time>
      </trkpt>
      <trkpt lat="43.32345" lon="-1.47458">
        <ele>225.1</ele>
        <time>2022-08-30T09:45:46Z</time>
      </trkpt>
      <trkpt lat="43.32342" lon="-1.47461">
        <ele>225.4</ele>
        <time>2022-08-30T09:45:47Z</time>
      </trkpt>
      <trkpt lat="43.32341" lon="-1.47462">
        <ele>225.5</ele>
        <time>2022-08-30T09:45:48Z</time>
      </trkpt>
      <trkpt lat="43.32339" lon="-1.47465">
        <ele>225.7</ele>
        <time>2022-08-30T09:45:49Z</time>
      </trkpt>
      <trkpt lat="43.32338" lon="-1.47466">
        <ele>225.8</ele>
        <time>2022-08-30T09:45:50Z</time>
      </trkpt>
      <trkpt lat="43.32335" lon="-1.47469">
        <ele>226.1</ele>
        <time>2022-08-30T09:45:51Z</time>
      </trkpt>
      <trkpt lat="43.32334" lon="-1.4747">
        <ele>226.2</ele>
        <time>2022-08-30T09:45:52Z</time>
      </trkpt>
      <trkpt lat="43.32331" lon="-1.47473">
        <ele>226.5</ele>
        <time>2022-08-30T09:45:53Z</time>
      </trkpt>
      <trkpt lat="43.3233" lon="-1.47474">
        <ele>226.5</ele>
        <time>2022-08-30T09:45:54Z</time>
      </trkpt>
      <trkpt lat="43.32328" lon="-1.47477">
        <ele>226.8</ele>
        <time>2022-08-30T09:45:55Z</time>
      </trkpt>
      <trkpt lat="43.32327" lon="-1.47477">
        <ele>226.9</ele>
        <time>2022-08-30T09:45:56Z</time>
      </trkpt>
      <trkpt lat="43.32324" lon="-1.47481">
        <ele>227.1</ele>
        <time>2022-08-30T09:45:57Z</time>
      </trkpt>
      <trkpt lat="43.32323" lon="-1.47482">
        <ele>227.2</ele>
        <time>2022-08-30T09:45:58Z</time>
      </trkpt>
      <trkpt lat="43.32321" lon="-1.47485">
        <ele>227.4</ele>
        <time>2022-08-30T09:45:59Z</time>
      </trkpt>
      <trkpt lat="43.32319" lon="-1.47486">
        <ele>227.5</ele>
        <time>2022-08-30T09:46:00Z</time>
      </trkpt>
      <trkpt lat="43.32316" lon="-1.4749">
        <ele>227.8</ele>
        <time>2022-08-30T09:46:01Z</time>
      </trkpt>
      <trkpt lat="43.32315" lon="-1.47491">
        <ele>227.9</ele>
        <time>2022-08-30T09:46:02Z</time>
      </trkpt>
      <trkpt lat="43.32312" lon="-1.47494">
        <ele>228.1</ele>
        <time>2022-08-30T09:46:03Z</time>
      </trkpt>
      <trkpt lat="43.32311" lon="-1.47496">
        <ele>228.2</ele>
        <time>2022-08-30T09:46:04Z</time>
      </trkpt>
      <trkpt lat="43.32309" lon="-1.47499">
        <ele>228.4</ele>
        <time>2022-08-30T09:46:05Z</time>
      </trkpt>
      <trkpt lat="43.32307" lon="-1.47502">
        <ele>228.6</ele>
        <time>2022-08-30T09:46:06Z</time>
      </trkpt>
      <trkpt lat="43.32305" lon="-1.47505">
        <ele>228.7</ele>
        <time>2022-08-30T09:46:07Z</time>
      </trkpt>
      <trkpt lat="43.32303" lon="-1.47507">
        <ele>228.9</ele>
        <time>2022-08-30T09:46:08Z</time>
      </trkpt>
      <trkpt lat="43.323" lon="-1.4751">
        <ele>229.1</ele>
        <time>2022-08-30T09:46:09Z</time>
      </trkpt>
      <trkpt lat="43.32298" lon="-1.47512">
        <ele>229.3</ele>
        <time>2022-08-30T09:46:10Z</time>
      </trkpt>
      <trkpt lat="43.32295" lon="-1.47515">
        <ele>229.5</ele>
        <time>2022-08-30T09:46:11Z</time>
      </trkpt>
      <trkpt lat="43.32293" lon="-1.47517">
        <ele>229.7</ele>
        <time>2022-08-30T09:46:12Z</time>
      </trkpt>
      <trkpt lat="43.3229" lon="-1.47519">
        <ele>229.8</ele>
        <time>2022-08-30T09:46:13Z</time>
      </trkpt>
      <trkpt lat="43.32288" lon="-1.47522">
        <ele>230</ele>
        <time>2022-08-30T09:46:14Z</time>
      </trkpt>
      <trkpt lat="43.32285" lon="-1.47524">
        <ele>230.2</ele>
        <time>2022-08-30T09:46:15Z</time>
      </trkpt>
      <trkpt lat="43.32283" lon="-1.47527">
        <ele>230.4</ele>
        <time>2022-08-30T09:46:16Z</time>
      </trkpt>
      <trkpt lat="43.3228" lon="-1.47529">
        <ele>230.6</ele>
        <time>2022-08-30T09:46:17Z</time>
      </trkpt>
      <trkpt lat="43.32277" lon="-1.47531">
        <ele>230.8</ele>
        <time>2022-08-30T09:46:18Z</time>
      </trkpt>
      <trkpt lat="43.32274" lon="-1.47534">
        <ele>231</ele>
        <time>2022-08-30T09:46:19Z</time>
      </trkpt>
      <trkpt lat="43.32272" lon="-1.47536">
        <ele>231.1</ele>
        <time>2022-08-30T09:46:20Z</time>
      </trkpt>
      <trkpt lat="43.32269" lon="-1.47539">
        <ele>231.3</ele>
        <time>2022-08-30T09:46:21Z</time>
      </trkpt>
      <trkpt lat="43.32266" lon="-1.47541">
        <ele>231.4</ele>
        <time>2022-08-30T09:46:22Z</time>
      </trkpt>
      <trkpt lat="43.32263" lon="-1.47544">
        <ele>231.6</ele>
        <time>2022-08-30T09:46:23Z</time>
      </trkpt>
      <trkpt lat="43.32261" lon="-1.47546">
        <ele>231.7</ele>
        <time>2022-08-30T09:46:24Z</time>
      </trkpt>
      <trkpt lat="43.32258" lon="-1.47549">
        <ele>231.9</ele>
        <time>2022-08-30T09:46:25Z</time>
      </trkpt>
      <trkpt lat="43.32255" lon="-1.47552">
        <ele>232</ele>
        <time>2022-08-30T09:46:26Z</time>
      </trkpt>
      <trkpt lat="43.32252" lon="-1.47554">
        <ele>232.2</ele>
        <time>2022-08-30T09:46:27Z</time>
      </trkpt>
      <trkpt lat="43.3225" lon="-1.47556">
        <ele>232.3</ele>
        <time>2022-08-30T09:46:28Z</time>
      </trkpt>
      <trkpt lat="43.32247" lon="-1.47559">
        <ele>232.4</ele>
        <time>2022-08-30T09:46:29Z</time>
      </trkpt>
      <trkpt lat="43.32245" lon="-1.47561">
        <ele>232.6</ele>
        <time>2022-08-30T09:46:30Z</time>
      </trkpt>
      <trkpt lat="43.32242" lon="-1.47564">
        <ele>232.7</ele>
        <time>2022-08-30T09:46:31Z</time>
      </trkpt>
      <trkpt lat="43.32239" lon="-1.47567">
        <ele>232.8</ele>
        <time>2022-08-30T09:46:32Z</time>
      </trkpt>
      <trkpt lat="43.32237" lon="-1.47569">
        <ele>233</ele>
        <time>2022-08-30T09:46:33Z</time>
      </trkpt>
      <trkpt lat="43.32234" lon="-1.47571">
        <ele>233.1</ele>
        <time>2022-08-30T09:46:34Z</time>
      </trkpt>
      <trkpt lat="43.32231" lon="-1.47573">
        <ele>233.2</ele>
        <time>2022-08-30T09:46:35Z</time>
      </trkpt>
      <trkpt lat="43.32229" lon="-1.47576">
        <ele>233.4</ele>
        <time>2022-08-30T09:46:36Z</time>
      </trkpt>
      <trkpt lat="43.32226" lon="-1.47579">
        <ele>233.6</ele>
        <time>2022-08-30T09:46:37Z</time>
      </trkpt>
      <trkpt lat="43.32223" lon="-1.47581">
        <ele>233.7</ele>
        <time>2022-08-30T09:46:38Z</time>
      </trkpt>
      <trkpt lat="43.32219" lon="-1.47584">
        <ele>233.9</ele>
        <time>2022-08-30T09:46:39Z</time>
      </trkpt>
      <trkpt lat="43.32216" lon="-1.47586">
        <ele>234.1</ele>
        <time>2022-08-30T09:46:40Z</time>
      </trkpt>
      <trkpt lat="43.32213" lon="-1.47589">
        <ele>234.3</ele>
        <time>2022-08-30T09:46:41Z</time>
      </trkpt>
      <trkpt lat="43.3221" lon="-1.47591">
        <ele>234.6</ele>
        <time>2022-08-30T09:46:42Z</time>
      </trkpt>
      <trkpt lat="43.32207" lon="-1.47594">
        <ele>234.8</ele>
        <time>2022-08-30T09:46:43Z</time>
      </trkpt>
      <trkpt lat="43.32204" lon="-1.47597">
        <ele>235</ele>
        <time>2022-08-30T09:46:44Z</time>
      </trkpt>
      <trkpt lat="43.32201" lon="-1.476">
        <ele>235.3</ele>
        <time>2022-08-30T09:46:45Z</time>
      </trkpt>
      <trkpt lat="43.32198" lon="-1.47603">
        <ele>235.6</ele>
        <time>2022-08-30T09:46:46Z</time>
      </trkpt>
      <trkpt lat="43.32194" lon="-1.47605">
        <ele>235.9</ele>
        <time>2022-08-30T09:46:47Z</time>
      </trkpt>
      <trkpt lat="43.32191" lon="-1.47607">
        <ele>236.1</ele>
        <time>2022-08-30T09:46:48Z</time>
      </trkpt>
      <trkpt lat="43.32188" lon="-1.47609">
        <ele>236.4</ele>
        <time>2022-08-30T09:46:49Z</time>
      </trkpt>
      <trkpt lat="43.32186" lon="-1.47613">
        <ele>236.7</ele>
        <time>2022-08-30T09:46:50Z</time>
      </trkpt>
      <trkpt lat="43.32184" lon="-1.47616">
        <ele>237</ele>
        <time>2022-08-30T09:46:51Z</time>
      </trkpt>
      <trkpt lat="43.32181" lon="-1.47619">
        <ele>237.3</ele>
        <time>2022-08-30T09:46:52Z</time>
      </trkpt>
      <trkpt lat="43.32179" lon="-1.47621">
        <ele>237.5</ele>
        <time>2022-08-30T09:46:53Z</time>
      </trkpt>
      <trkpt lat="43.32176" lon="-1.47623">
        <ele>237.8</ele>
        <time>2022-08-30T09:46:54Z</time>
      </trkpt>
      <trkpt lat="43.32173" lon="-1.47626">
        <ele>238.1</ele>
        <time>2022-08-30T09:46:55Z</time>
      </trkpt>
      <trkpt lat="43.32171" lon="-1.47628">
        <ele>238.4</ele>
        <time>2022-08-30T09:46:56Z</time>
      </trkpt>
      <trkpt lat="43.32168" lon="-1.47631">
        <ele>238.6</ele>
        <time>2022-08-30T09:46:57Z</time>
      </trkpt>
      <trkpt lat="43.32166" lon="-1.47633">
        <ele>238.9</ele>
        <time>2022-08-30T09:46:58Z</time>
      </trkpt>
      <trkpt lat="43.32163" lon="-1.47635">
        <ele>239.1</ele>
        <time>2022-08-30T09:46:59Z</time>
      </trkpt>
      <trkpt lat="43.3216" lon="-1.47637">
        <ele>239.4</ele>
        <time>2022-08-30T09:47:00Z</time>
      </trkpt>
      <trkpt lat="43.32157" lon="-1.47639">
        <ele>239.6</ele>
        <time>2022-08-30T09:47:01Z</time>
      </trkpt>
      <trkpt lat="43.32154" lon="-1.47641">
        <ele>239.9</ele>
        <time>2022-08-30T09:47:02Z</time>
      </trkpt>
      <trkpt lat="43.32151" lon="-1.47643">
        <ele>240.1</ele>
        <time>2022-08-30T09:47:03Z</time>
      </trkpt>
      <trkpt lat="43.32148" lon="-1.47644">
        <ele>240.3</ele>
        <time>2022-08-30T09:47:04Z</time>
      </trkpt>
      <trkpt lat="43.32145" lon="-1.47647">
        <ele>240.5</ele>
        <time>2022-08-30T09:47:05Z</time>
      </trkpt>
      <trkpt lat="43.32144" lon="-1.47648">
        <ele>240.6</ele>
        <time>2022-08-30T09:47:06Z</time>
      </trkpt>
      <trkpt lat="43.32141" lon="-1.4765">
        <ele>240.8</ele>
        <time>2022-08-30T09:47:07Z</time>
      </trkpt>
      <trkpt lat="43.32139" lon="-1.47652">
        <ele>240.9</ele>
        <time>2022-08-30T09:47:08Z</time>
      </trkpt>
      <trkpt lat="43.32137" lon="-1.47654">
        <ele>241.1</ele>
        <time>2022-08-30T09:47:09Z</time>
      </trkpt>
      <trkpt lat="43.32134" lon="-1.47656">
        <ele>241.2</ele>
        <time>2022-08-30T09:47:10Z</time>
      </trkpt>
      <trkpt lat="43.32131" lon="-1.47658">
        <ele>241.4</ele>
        <time>2022-08-30T09:47:11Z</time>
      </trkpt>
      <trkpt lat="43.32128" lon="-1.4766">
        <ele>241.5</ele>
        <time>2022-08-30T09:47:12Z</time>
      </trkpt>
      <trkpt lat="43.32126" lon="-1.47663">
        <ele>241.7</ele>
        <time>2022-08-30T09:47:13Z</time>
      </trkpt>
      <trkpt lat="43.32123" lon="-1.47665">
        <ele>241.8</ele>
        <time>2022-08-30T09:47:14Z</time>
      </trkpt>
      <trkpt lat="43.32121" lon="-1.47667">
        <ele>241.9</ele>
        <time>2022-08-30T09:47:15Z</time>
      </trkpt>
      <trkpt lat="43.32118" lon="-1.47669">
        <ele>242</ele>
        <time>2022-08-30T09:47:16Z</time>
      </trkpt>
      <trkpt lat="43.32116" lon="-1.47672">
        <ele>242.1</ele>
        <time>2022-08-30T09:47:17Z</time>
      </trkpt>
      <trkpt lat="43.32113" lon="-1.47674">
        <ele>242.2</ele>
        <time>2022-08-30T09:47:18Z</time>
      </trkpt>
      <trkpt lat="43.3211" lon="-1.47676">
        <ele>242.3</ele>
        <time>2022-08-30T09:47:19Z</time>
      </trkpt>
      <trkpt lat="43.32108" lon="-1.47679">
        <ele>242.3</ele>
        <time>2022-08-30T09:47:20Z</time>
      </trkpt>
      <trkpt lat="43.32105" lon="-1.47681">
        <ele>242.4</ele>
        <time>2022-08-30T09:47:21Z</time>
      </trkpt>
      <trkpt lat="43.32103" lon="-1.47683">
        <ele>242.4</ele>
        <time>2022-08-30T09:47:22Z</time>
      </trkpt>
      <trkpt lat="43.321" lon="-1.47685">
        <ele>242.5</ele>
        <time>2022-08-30T09:47:23Z</time>
      </trkpt>
      <trkpt lat="43.32097" lon="-1.47687">
        <ele>242.5</ele>
        <time>2022-08-30T09:47:24Z</time>
      </trkpt>
      <trkpt lat="43.32095" lon="-1.4769">
        <ele>242.5</ele>
        <time>2022-08-30T09:47:25Z</time>
      </trkpt>
      <trkpt lat="43.32092" lon="-1.47693">
        <ele>242.5</ele>
        <time>2022-08-30T09:47:26Z</time>
      </trkpt>
      <trkpt lat="43.32088" lon="-1.47695">
        <ele>242.4</ele>
        <time>2022-08-30T09:47:27Z</time>
      </trkpt>
      <trkpt lat="43.32086" lon="-1.47697">
        <ele>242.4</ele>
        <time>2022-08-30T09:47:28Z</time>
      </trkpt>
      <trkpt lat="43.32082" lon="-1.477">
        <ele>242.4</ele>
        <time>2022-08-30T09:47:29Z</time>
      </trkpt>
      <trkpt lat="43.32079" lon="-1.47702">
        <ele>242.3</ele>
        <time>2022-08-30T09:47:30Z</time>
      </trkpt>
      <trkpt lat="43.32075" lon="-1.47704">
        <ele>242.3</ele>
        <time>2022-08-30T09:47:31Z</time>
      </trkpt>
      <trkpt lat="43.32072" lon="-1.47707">
        <ele>242.3</ele>
        <time>2022-08-30T09:47:32Z</time>
      </trkpt>
      <trkpt lat="43.32068" lon="-1.47709">
        <ele>242.2</ele>
        <time>2022-08-30T09:47:33Z</time>
      </trkpt>
      <trkpt lat="43.32065" lon="-1.47711">
        <ele>242.2</ele>
        <time>2022-08-30T09:47:34Z</time>
      </trkpt>
      <trkpt lat="43.32062" lon="-1.47713">
        <ele>242.1</ele>
        <time>2022-08-30T09:47:35Z</time>
      </trkpt>
      <trkpt lat="43.32058" lon="-1.47715">
        <ele>242.1</ele>
        <time>2022-08-30T09:47:36Z</time>
      </trkpt>
      <trkpt lat="43.32055" lon="-1.47716">
        <ele>242.1</ele>
        <time>2022-08-30T09:47:37Z</time>
      </trkpt>
      <trkpt lat="43.32052" lon="-1.47718">
        <ele>242</ele>
        <time>2022-08-30T09:47:38Z</time>
      </trkpt>
      <trkpt lat="43.32048" lon="-1.47719">
        <ele>242</ele>
        <time>2022-08-30T09:47:39Z</time>
      </trkpt>
      <trkpt lat="43.32044" lon="-1.4772">
        <ele>242</ele>
        <time>2022-08-30T09:47:40Z</time>
      </trkpt>
      <trkpt lat="43.32041" lon="-1.47721">
        <ele>242</ele>
        <time>2022-08-30T09:47:41Z</time>
      </trkpt>
      <trkpt lat="43.32038" lon="-1.47722">
        <ele>242</ele>
        <time>2022-08-30T09:47:42Z</time>
      </trkpt>
      <trkpt lat="43.32035" lon="-1.47723">
        <ele>242</ele>
        <time>2022-08-30T09:47:43Z</time>
      </trkpt>
      <trkpt lat="43.32032" lon="-1.47724">
        <ele>242.1</ele>
        <time>2022-08-30T09:47:44Z</time>
      </trkpt>
      <trkpt lat="43.32028" lon="-1.47725">
        <ele>242.1</ele>
        <time>2022-08-30T09:47:45Z</time>
      </trkpt>
      <trkpt lat="43.32025" lon="-1.47725">
        <ele>242.1</ele>
        <time>2022-08-30T09:47:46Z</time>
      </trkpt>
      <trkpt lat="43.32022" lon="-1.47726">
        <ele>242.1</ele>
        <time>2022-08-30T09:47:47Z</time>
      </trkpt>
      <trkpt lat="43.3202" lon="-1.47726">
        <ele>242.1</ele>
        <time>2022-08-30T09:47:48Z</time>
      </trkpt>
      <trkpt lat="43.32017" lon="-1.47726">
        <ele>242.2</ele>
        <time>2022-08-30T09:47:49Z</time>
      </trkpt>
      <trkpt lat="43.32013" lon="-1.47726">
        <ele>242.2</ele>
        <time>2022-08-30T09:47:50Z</time>
      </trkpt>
      <trkpt lat="43.32011" lon="-1.47726">
        <ele>242.2</ele>
        <time>2022-08-30T09:47:51Z</time>
      </trkpt>
      <trkpt lat="43.32008" lon="-1.47726">
        <ele>242.3</ele>
        <time>2022-08-30T09:47:52Z</time>
      </trkpt>
      <trkpt lat="43.32006" lon="-1.47726">
        <ele>242.3</ele>
        <time>2022-08-30T09:47:53Z</time>
      </trkpt>
      <trkpt lat="43.32003" lon="-1.47725">
        <ele>242.3</ele>
        <time>2022-08-30T09:47:54Z</time>
      </trkpt>
      <trkpt lat="43.32002" lon="-1.47725">
        <ele>242.4</ele>
        <time>2022-08-30T09:47:55Z</time>
      </trkpt>
      <trkpt lat="43.31998" lon="-1.47725">
        <ele>242.4</ele>
        <time>2022-08-30T09:47:56Z</time>
      </trkpt>
      <trkpt lat="43.31997" lon="-1.47725">
        <ele>242.4</ele>
        <time>2022-08-30T09:47:57Z</time>
      </trkpt>
      <trkpt lat="43.31994" lon="-1.47725">
        <ele>242.6</ele>
        <time>2022-08-30T09:47:58Z</time>
      </trkpt>
      <trkpt lat="43.31993" lon="-1.47725">
        <ele>242.7</ele>
        <time>2022-08-30T09:47:59Z</time>
      </trkpt>
      <trkpt lat="43.31989" lon="-1.47725">
        <ele>243</ele>
        <time>2022-08-30T09:48:00Z</time>
      </trkpt>
      <trkpt lat="43.31988" lon="-1.47725">
        <ele>243</ele>
        <time>2022-08-30T09:48:01Z</time>
      </trkpt>
      <trkpt lat="43.31985" lon="-1.47724">
        <ele>243.3</ele>
        <time>2022-08-30T09:48:02Z</time>
      </trkpt>
      <trkpt lat="43.31984" lon="-1.47724">
        <ele>243.3</ele>
        <time>2022-08-30T09:48:03Z</time>
      </trkpt>
      <trkpt lat="43.3198" lon="-1.47723">
        <ele>243.7</ele>
        <time>2022-08-30T09:48:04Z</time>
      </trkpt>
      <trkpt lat="43.31978" lon="-1.47723">
        <ele>243.8</ele>
        <time>2022-08-30T09:48:05Z</time>
      </trkpt>
      <trkpt lat="43.31975" lon="-1.47724">
        <ele>244.1</ele>
        <time>2022-08-30T09:48:06Z</time>
      </trkpt>
      <trkpt lat="43.31971" lon="-1.47724">
        <ele>244.4</ele>
        <time>2022-08-30T09:48:07Z</time>
      </trkpt>
      <trkpt lat="43.31968" lon="-1.47725">
        <ele>244.7</ele>
        <time>2022-08-30T09:48:08Z</time>
      </trkpt>
      <trkpt lat="43.31964" lon="-1.47725">
        <ele>245</ele>
        <time>2022-08-30T09:48:09Z</time>
      </trkpt>
      <trkpt lat="43.31961" lon="-1.47724">
        <ele>245.4</ele>
        <time>2022-08-30T09:48:10Z</time>
      </trkpt>
      <trkpt lat="43.31958" lon="-1.47724">
        <ele>245.7</ele>
        <time>2022-08-30T09:48:11Z</time>
      </trkpt>
      <trkpt lat="43.31955" lon="-1.47724">
        <ele>246.1</ele>
        <time>2022-08-30T09:48:12Z</time>
      </trkpt>
      <trkpt lat="43.31952" lon="-1.47724">
        <ele>246.5</ele>
        <time>2022-08-30T09:48:13Z</time>
      </trkpt>
      <trkpt lat="43.31948" lon="-1.47724">
        <ele>246.8</ele>
        <time>2022-08-30T09:48:14Z</time>
      </trkpt>
      <trkpt lat="43.31945" lon="-1.47724">
        <ele>247.2</ele>
        <time>2022-08-30T09:48:15Z</time>
      </trkpt>
      <trkpt lat="43.31942" lon="-1.47724">
        <ele>247.6</ele>
        <time>2022-08-30T09:48:16Z</time>
      </trkpt>
      <trkpt lat="43.31939" lon="-1.47724">
        <ele>248</ele>
        <time>2022-08-30T09:48:17Z</time>
      </trkpt>
      <trkpt lat="43.31936" lon="-1.47725">
        <ele>248.4</ele>
        <time>2022-08-30T09:48:18Z</time>
      </trkpt>
      <trkpt lat="43.31934" lon="-1.47725">
        <ele>248.7</ele>
        <time>2022-08-30T09:48:19Z</time>
      </trkpt>
      <trkpt lat="43.3193" lon="-1.47726">
        <ele>249.3</ele>
        <time>2022-08-30T09:48:20Z</time>
      </trkpt>
      <trkpt lat="43.31928" lon="-1.47727">
        <ele>249.4</ele>
        <time>2022-08-30T09:48:21Z</time>
      </trkpt>
      <trkpt lat="43.31925" lon="-1.47728">
        <ele>249.8</ele>
        <time>2022-08-30T09:48:22Z</time>
      </trkpt>
      <trkpt lat="43.31922" lon="-1.47729">
        <ele>250.2</ele>
        <time>2022-08-30T09:48:23Z</time>
      </trkpt>
      <trkpt lat="43.3192" lon="-1.47731">
        <ele>250.5</ele>
        <time>2022-08-30T09:48:24Z</time>
      </trkpt>
      <trkpt lat="43.31917" lon="-1.47733">
        <ele>250.9</ele>
        <time>2022-08-30T09:48:25Z</time>
      </trkpt>
      <trkpt lat="43.31915" lon="-1.47735">
        <ele>251.2</ele>
        <time>2022-08-30T09:48:26Z</time>
      </trkpt>
      <trkpt lat="43.31913" lon="-1.47738">
        <ele>251.5</ele>
        <time>2022-08-30T09:48:27Z</time>
      </trkpt>
      <trkpt lat="43.3191" lon="-1.4774">
        <ele>251.8</ele>
        <time>2022-08-30T09:48:28Z</time>
      </trkpt>
      <trkpt lat="43.31909" lon="-1.47743">
        <ele>252.1</ele>
        <time>2022-08-30T09:48:29Z</time>
      </trkpt>
      <trkpt lat="43.31907" lon="-1.47747">
        <ele>252.4</ele>
        <time>2022-08-30T09:48:30Z</time>
      </trkpt>
      <trkpt lat="43.31905" lon="-1.4775">
        <ele>252.7</ele>
        <time>2022-08-30T09:48:31Z</time>
      </trkpt>
      <trkpt lat="43.31904" lon="-1.47753">
        <ele>253.1</ele>
        <time>2022-08-30T09:48:32Z</time>
      </trkpt>
      <trkpt lat="43.31901" lon="-1.47758">
        <ele>253.5</ele>
        <time>2022-08-30T09:48:33Z</time>
      </trkpt>
      <trkpt lat="43.31901" lon="-1.47759">
        <ele>253.7</ele>
        <time>2022-08-30T09:48:34Z</time>
      </trkpt>
      <trkpt lat="43.31898" lon="-1.47763">
        <ele>254.1</ele>
        <time>2022-08-30T09:48:35Z</time>
      </trkpt>
      <trkpt lat="43.31898" lon="-1.47764">
        <ele>254.2</ele>
        <time>2022-08-30T09:48:36Z</time>
      </trkpt>
      <trkpt lat="43.31895" lon="-1.47768">
        <ele>254.7</ele>
        <time>2022-08-30T09:48:37Z</time>
      </trkpt>
      <trkpt lat="43.31894" lon="-1.4777">
        <ele>254.8</ele>
        <time>2022-08-30T09:48:38Z</time>
      </trkpt>
      <trkpt lat="43.31892" lon="-1.47774">
        <ele>255.3</ele>
        <time>2022-08-30T09:48:39Z</time>
      </trkpt>
      <trkpt lat="43.31892" lon="-1.47776">
        <ele>255.5</ele>
        <time>2022-08-30T09:48:40Z</time>
      </trkpt>
      <trkpt lat="43.31889" lon="-1.4778">
        <ele>256</ele>
        <time>2022-08-30T09:48:41Z</time>
      </trkpt>
      <trkpt lat="43.31888" lon="-1.47781">
        <ele>256.1</ele>
        <time>2022-08-30T09:48:42Z</time>
      </trkpt>
      <trkpt lat="43.31886" lon="-1.47783">
        <ele>256.5</ele>
        <time>2022-08-30T09:48:43Z</time>
      </trkpt>
      <trkpt lat="43.31883" lon="-1.47786">
        <ele>256.9</ele>
        <time>2022-08-30T09:48:44Z</time>
      </trkpt>
      <trkpt lat="43.31882" lon="-1.47788">
        <ele>257.1</ele>
        <time>2022-08-30T09:48:45Z</time>
      </trkpt>
      <trkpt lat="43.31878" lon="-1.4779">
        <ele>257.6</ele>
        <time>2022-08-30T09:48:46Z</time>
      </trkpt>
      <trkpt lat="43.31877" lon="-1.47791">
        <ele>257.7</ele>
        <time>2022-08-30T09:48:47Z</time>
      </trkpt>
      <trkpt lat="43.31875" lon="-1.47793">
        <ele>258.1</ele>
        <time>2022-08-30T09:48:48Z</time>
      </trkpt>
      <trkpt lat="43.31873" lon="-1.47796">
        <ele>258.4</ele>
        <time>2022-08-30T09:48:49Z</time>
      </trkpt>
      <trkpt lat="43.3187" lon="-1.47798">
        <ele>258.8</ele>
        <time>2022-08-30T09:48:50Z</time>
      </trkpt>
      <trkpt lat="43.31869" lon="-1.47798">
        <ele>259</ele>
        <time>2022-08-30T09:48:51Z</time>
      </trkpt>
      <trkpt lat="43.31865" lon="-1.478">
        <ele>259.4</ele>
        <time>2022-08-30T09:48:52Z</time>
      </trkpt>
      <trkpt lat="43.31864" lon="-1.47801">
        <ele>259.6</ele>
        <time>2022-08-30T09:48:53Z</time>
      </trkpt>
      <trkpt lat="43.3186" lon="-1.47803">
        <ele>260.1</ele>
        <time>2022-08-30T09:48:54Z</time>
      </trkpt>
      <trkpt lat="43.31859" lon="-1.47803">
        <ele>260.3</ele>
        <time>2022-08-30T09:48:55Z</time>
      </trkpt>
      <trkpt lat="43.31855" lon="-1.47805">
        <ele>260.9</ele>
        <time>2022-08-30T09:48:56Z</time>
      </trkpt>
      <trkpt lat="43.31854" lon="-1.47806">
        <ele>261.1</ele>
        <time>2022-08-30T09:48:57Z</time>
      </trkpt>
      <trkpt lat="43.3185" lon="-1.47807">
        <ele>261.6</ele>
        <time>2022-08-30T09:48:58Z</time>
      </trkpt>
      <trkpt lat="43.31849" lon="-1.47807">
        <ele>261.7</ele>
        <time>2022-08-30T09:48:59Z</time>
      </trkpt>
      <trkpt lat="43.31846" lon="-1.47808">
        <ele>262.2</ele>
        <time>2022-08-30T09:49:00Z</time>
      </trkpt>
      <trkpt lat="43.31845" lon="-1.47808">
        <ele>262.3</ele>
        <time>2022-08-30T09:49:01Z</time>
      </trkpt>
      <trkpt lat="43.31842" lon="-1.47808">
        <ele>262.8</ele>
        <time>2022-08-30T09:49:02Z</time>
      </trkpt>
      <trkpt lat="43.31841" lon="-1.47809">
        <ele>262.9</ele>
        <time>2022-08-30T09:49:03Z</time>
      </trkpt>
      <trkpt lat="43.31838" lon="-1.47809">
        <ele>263.4</ele>
        <time>2022-08-30T09:49:04Z</time>
      </trkpt>
      <trkpt lat="43.31837" lon="-1.47809">
        <ele>263.5</ele>
        <time>2022-08-30T09:49:05Z</time>
      </trkpt>
      <trkpt lat="43.31834" lon="-1.47809">
        <ele>263.9</ele>
        <time>2022-08-30T09:49:06Z</time>
      </trkpt>
      <trkpt lat="43.31833" lon="-1.47809">
        <ele>264</ele>
        <time>2022-08-30T09:49:07Z</time>
      </trkpt>
      <trkpt lat="43.3183" lon="-1.47809">
        <ele>264.4</ele>
        <time>2022-08-30T09:49:08Z</time>
      </trkpt>
      <trkpt lat="43.31829" lon="-1.47809">
        <ele>264.5</ele>
        <time>2022-08-30T09:49:09Z</time>
      </trkpt>
      <trkpt lat="43.31826" lon="-1.4781">
        <ele>264.9</ele>
        <time>2022-08-30T09:49:10Z</time>
      </trkpt>
      <trkpt lat="43.31824" lon="-1.47811">
        <ele>265.2</ele>
        <time>2022-08-30T09:49:11Z</time>
      </trkpt>
      <trkpt lat="43.3182" lon="-1.47811">
        <ele>265.7</ele>
        <time>2022-08-30T09:49:12Z</time>
      </trkpt>
      <trkpt lat="43.31818" lon="-1.47811">
        <ele>265.9</ele>
        <time>2022-08-30T09:49:13Z</time>
      </trkpt>
      <trkpt lat="43.31815" lon="-1.47812">
        <ele>266.3</ele>
        <time>2022-08-30T09:49:14Z</time>
      </trkpt>
      <trkpt lat="43.31814" lon="-1.47812">
        <ele>266.4</ele>
        <time>2022-08-30T09:49:15Z</time>
      </trkpt>
      <trkpt lat="43.3181" lon="-1.47812">
        <ele>266.9</ele>
        <time>2022-08-30T09:49:16Z</time>
      </trkpt>
      <trkpt lat="43.31809" lon="-1.47812">
        <ele>267</ele>
        <time>2022-08-30T09:49:17Z</time>
      </trkpt>
      <trkpt lat="43.31805" lon="-1.47813">
        <ele>267.4</ele>
        <time>2022-08-30T09:49:18Z</time>
      </trkpt>
      <trkpt lat="43.31804" lon="-1.47813">
        <ele>267.6</ele>
        <time>2022-08-30T09:49:19Z</time>
      </trkpt>
      <trkpt lat="43.31801" lon="-1.47813">
        <ele>267.9</ele>
        <time>2022-08-30T09:49:20Z</time>
      </trkpt>
      <trkpt lat="43.318" lon="-1.47814">
        <ele>268.1</ele>
        <time>2022-08-30T09:49:21Z</time>
      </trkpt>
      <trkpt lat="43.31797" lon="-1.47815">
        <ele>268.5</ele>
        <time>2022-08-30T09:49:22Z</time>
      </trkpt>
      <trkpt lat="43.31795" lon="-1.47815">
        <ele>268.6</ele>
        <time>2022-08-30T09:49:23Z</time>
      </trkpt>
      <trkpt lat="43.31792" lon="-1.47816">
        <ele>269</ele>
        <time>2022-08-30T09:49:24Z</time>
      </trkpt>
      <trkpt lat="43.31791" lon="-1.47816">
        <ele>269.1</ele>
        <time>2022-08-30T09:49:25Z</time>
      </trkpt>
      <trkpt lat="43.31787" lon="-1.47817">
        <ele>269.5</ele>
        <time>2022-08-30T09:49:26Z</time>
      </trkpt>
      <trkpt lat="43.31786" lon="-1.47817">
        <ele>269.6</ele>
        <time>2022-08-30T09:49:27Z</time>
      </trkpt>
      <trkpt lat="43.31783" lon="-1.47818">
        <ele>270</ele>
        <time>2022-08-30T09:49:28Z</time>
      </trkpt>
      <trkpt lat="43.31782" lon="-1.47818">
        <ele>270.1</ele>
        <time>2022-08-30T09:49:29Z</time>
      </trkpt>
      <trkpt lat="43.31778" lon="-1.47818">
        <ele>270.4</ele>
        <time>2022-08-30T09:49:30Z</time>
      </trkpt>
      <trkpt lat="43.31777" lon="-1.47818">
        <ele>270.6</ele>
        <time>2022-08-30T09:49:31Z</time>
      </trkpt>
      <trkpt lat="43.31774" lon="-1.47819">
        <ele>270.9</ele>
        <time>2022-08-30T09:49:32Z</time>
      </trkpt>
      <trkpt lat="43.31772" lon="-1.47819">
        <ele>271</ele>
        <time>2022-08-30T09:49:33Z</time>
      </trkpt>
      <trkpt lat="43.31769" lon="-1.47819">
        <ele>271.3</ele>
        <time>2022-08-30T09:49:34Z</time>
      </trkpt>
      <trkpt lat="43.31768" lon="-1.47819">
        <ele>271.4</ele>
        <time>2022-08-30T09:49:35Z</time>
      </trkpt>
      <trkpt lat="43.31765" lon="-1.4782">
        <ele>271.8</ele>
        <time>2022-08-30T09:49:36Z</time>
      </trkpt>
      <trkpt lat="43.31763" lon="-1.4782">
        <ele>271.9</ele>
        <time>2022-08-30T09:49:37Z</time>
      </trkpt>
      <trkpt lat="43.3176" lon="-1.47821">
        <ele>272.3</ele>
        <time>2022-08-30T09:49:38Z</time>
      </trkpt>
      <trkpt lat="43.31759" lon="-1.47821">
        <ele>272.4</ele>
        <time>2022-08-30T09:49:39Z</time>
      </trkpt>
      <trkpt lat="43.31756" lon="-1.47821">
        <ele>272.7</ele>
        <time>2022-08-30T09:49:40Z</time>
      </trkpt>
      <trkpt lat="43.31755" lon="-1.47821">
        <ele>272.8</ele>
        <time>2022-08-30T09:49:41Z</time>
      </trkpt>
      <trkpt lat="43.31752" lon="-1.47821">
        <ele>273.1</ele>
        <time>2022-08-30T09:49:42Z</time>
      </trkpt>
      <trkpt lat="43.31751" lon="-1.47821">
        <ele>273.2</ele>
        <time>2022-08-30T09:49:43Z</time>
      </trkpt>
      <trkpt lat="43.31748" lon="-1.47821">
        <ele>273.5</ele>
        <time>2022-08-30T09:49:44Z</time>
      </trkpt>
      <trkpt lat="43.31747" lon="-1.47821">
        <ele>273.6</ele>
        <time>2022-08-30T09:49:45Z</time>
      </trkpt>
      <trkpt lat="43.31744" lon="-1.47822">
        <ele>273.9</ele>
        <time>2022-08-30T09:49:46Z</time>
      </trkpt>
      <trkpt lat="43.31743" lon="-1.47822">
        <ele>274</ele>
        <time>2022-08-30T09:49:47Z</time>
      </trkpt>
      <trkpt lat="43.3174" lon="-1.47822">
        <ele>274.3</ele>
        <time>2022-08-30T09:49:48Z</time>
      </trkpt>
      <trkpt lat="43.31739" lon="-1.47822">
        <ele>274.4</ele>
        <time>2022-08-30T09:49:49Z</time>
      </trkpt>
      <trkpt lat="43.31736" lon="-1.47822">
        <ele>274.6</ele>
        <time>2022-08-30T09:49:50Z</time>
      </trkpt>
      <trkpt lat="43.31735" lon="-1.47822">
        <ele>274.7</ele>
        <time>2022-08-30T09:49:51Z</time>
      </trkpt>
      <trkpt lat="43.31731" lon="-1.47822">
        <ele>275</ele>
        <time>2022-08-30T09:49:52Z</time>
      </trkpt>
      <trkpt lat="43.3173" lon="-1.47822">
        <ele>275.1</ele>
        <time>2022-08-30T09:49:53Z</time>
      </trkpt>
      <trkpt lat="43.31726" lon="-1.47823">
        <ele>275.4</ele>
        <time>2022-08-30T09:49:54Z</time>
      </trkpt>
      <trkpt lat="43.31725" lon="-1.47823">
        <ele>275.5</ele>
        <time>2022-08-30T09:49:55Z</time>
      </trkpt>
      <trkpt lat="43.31721" lon="-1.47822">
        <ele>275.7</ele>
        <time>2022-08-30T09:49:56Z</time>
      </trkpt>
      <trkpt lat="43.31719" lon="-1.47822">
        <ele>275.8</ele>
        <time>2022-08-30T09:49:57Z</time>
      </trkpt>
      <trkpt lat="43.31716" lon="-1.47822">
        <ele>275.9</ele>
        <time>2022-08-30T09:49:58Z</time>
      </trkpt>
      <trkpt lat="43.31712" lon="-1.47822">
        <ele>276.1</ele>
        <time>2022-08-30T09:49:59Z</time>
      </trkpt>
      <trkpt lat="43.31711" lon="-1.47822">
        <ele>276.2</ele>
        <time>2022-08-30T09:50:00Z</time>
      </trkpt>
      <trkpt lat="43.31707" lon="-1.47822">
        <ele>276.3</ele>
        <time>2022-08-30T09:50:01Z</time>
      </trkpt>
      <trkpt lat="43.31706" lon="-1.47822">
        <ele>276.3</ele>
        <time>2022-08-30T09:50:02Z</time>
      </trkpt>
      <trkpt lat="43.31703" lon="-1.47821">
        <ele>276.4</ele>
        <time>2022-08-30T09:50:03Z</time>
      </trkpt>
      <trkpt lat="43.31701" lon="-1.47821">
        <ele>276.5</ele>
        <time>2022-08-30T09:50:04Z</time>
      </trkpt>
      <trkpt lat="43.31699" lon="-1.4782">
        <ele>276.5</ele>
        <time>2022-08-30T09:50:05Z</time>
      </trkpt>
      <trkpt lat="43.31696" lon="-1.47819">
        <ele>276.6</ele>
        <time>2022-08-30T09:50:06Z</time>
      </trkpt>
      <trkpt lat="43.31692" lon="-1.47818">
        <ele>276.6</ele>
        <time>2022-08-30T09:50:07Z</time>
      </trkpt>
      <trkpt lat="43.3169" lon="-1.47818">
        <ele>276.6</ele>
        <time>2022-08-30T09:50:08Z</time>
      </trkpt>
      <trkpt lat="43.31687" lon="-1.47816">
        <ele>276.7</ele>
        <time>2022-08-30T09:50:09Z</time>
      </trkpt>
      <trkpt lat="43.31686" lon="-1.47815">
        <ele>276.7</ele>
        <time>2022-08-30T09:50:10Z</time>
      </trkpt>
      <trkpt lat="43.31683" lon="-1.47814">
        <ele>276.7</ele>
        <time>2022-08-30T09:50:11Z</time>
      </trkpt>
      <trkpt lat="43.31679" lon="-1.47812">
        <ele>276.8</ele>
        <time>2022-08-30T09:50:12Z</time>
      </trkpt>
      <trkpt lat="43.31678" lon="-1.47812">
        <ele>276.8</ele>
        <time>2022-08-30T09:50:13Z</time>
      </trkpt>
      <trkpt lat="43.31674" lon="-1.4781">
        <ele>276.9</ele>
        <time>2022-08-30T09:50:14Z</time>
      </trkpt>
      <trkpt lat="43.31673" lon="-1.4781">
        <ele>276.9</ele>
        <time>2022-08-30T09:50:15Z</time>
      </trkpt>
      <trkpt lat="43.3167" lon="-1.47809">
        <ele>276.9</ele>
        <time>2022-08-30T09:50:16Z</time>
      </trkpt>
      <trkpt lat="43.31667" lon="-1.47808">
        <ele>277</ele>
        <time>2022-08-30T09:50:17Z</time>
      </trkpt>
      <trkpt lat="43.31665" lon="-1.47808">
        <ele>277</ele>
        <time>2022-08-30T09:50:18Z</time>
      </trkpt>
      <trkpt lat="43.31662" lon="-1.47807">
        <ele>277.1</ele>
        <time>2022-08-30T09:50:19Z</time>
      </trkpt>
      <trkpt lat="43.31659" lon="-1.47807">
        <ele>277.2</ele>
        <time>2022-08-30T09:50:20Z</time>
      </trkpt>
      <trkpt lat="43.31655" lon="-1.47807">
        <ele>277.3</ele>
        <time>2022-08-30T09:50:21Z</time>
      </trkpt>
      <trkpt lat="43.31654" lon="-1.47807">
        <ele>277.3</ele>
        <time>2022-08-30T09:50:22Z</time>
      </trkpt>
      <trkpt lat="43.3165" lon="-1.47807">
        <ele>277.4</ele>
        <time>2022-08-30T09:50:23Z</time>
      </trkpt>
      <trkpt lat="43.31649" lon="-1.47808">
        <ele>277.6</ele>
        <time>2022-08-30T09:50:24Z</time>
      </trkpt>
      <trkpt lat="43.31646" lon="-1.47809">
        <ele>277.7</ele>
        <time>2022-08-30T09:50:25Z</time>
      </trkpt>
      <trkpt lat="43.31643" lon="-1.4781">
        <ele>277.9</ele>
        <time>2022-08-30T09:50:26Z</time>
      </trkpt>
      <trkpt lat="43.3164" lon="-1.47813">
        <ele>278</ele>
        <time>2022-08-30T09:50:27Z</time>
      </trkpt>
      <trkpt lat="43.31638" lon="-1.47815">
        <ele>278.2</ele>
        <time>2022-08-30T09:50:28Z</time>
      </trkpt>
      <trkpt lat="43.31635" lon="-1.47818">
        <ele>278.4</ele>
        <time>2022-08-30T09:50:29Z</time>
      </trkpt>
      <trkpt lat="43.31633" lon="-1.47822">
        <ele>278.6</ele>
        <time>2022-08-30T09:50:30Z</time>
      </trkpt>
      <trkpt lat="43.3163" lon="-1.47826">
        <ele>278.9</ele>
        <time>2022-08-30T09:50:31Z</time>
      </trkpt>
      <trkpt lat="43.31628" lon="-1.47831">
        <ele>279.3</ele>
        <time>2022-08-30T09:50:32Z</time>
      </trkpt>
      <trkpt lat="43.31626" lon="-1.47836">
        <ele>279.6</ele>
        <time>2022-08-30T09:50:33Z</time>
      </trkpt>
      <trkpt lat="43.31625" lon="-1.4784">
        <ele>279.8</ele>
        <time>2022-08-30T09:50:34Z</time>
      </trkpt>
      <trkpt lat="43.31624" lon="-1.47845">
        <ele>280.1</ele>
        <time>2022-08-30T09:50:35Z</time>
      </trkpt>
      <trkpt lat="43.31624" lon="-1.47847">
        <ele>280.2</ele>
        <time>2022-08-30T09:50:36Z</time>
      </trkpt>
      <trkpt lat="43.31623" lon="-1.47851">
        <ele>280.5</ele>
        <time>2022-08-30T09:50:37Z</time>
      </trkpt>
      <trkpt lat="43.31623" lon="-1.47853">
        <ele>280.6</ele>
        <time>2022-08-30T09:50:38Z</time>
      </trkpt>
      <trkpt lat="43.31622" lon="-1.47859">
        <ele>280.9</ele>
        <time>2022-08-30T09:50:39Z</time>
      </trkpt>
      <trkpt lat="43.31621" lon="-1.4786">
        <ele>281</ele>
        <time>2022-08-30T09:50:40Z</time>
      </trkpt>
      <trkpt lat="43.31621" lon="-1.47864">
        <ele>281.2</ele>
        <time>2022-08-30T09:50:41Z</time>
      </trkpt>
      <trkpt lat="43.3162" lon="-1.47869">
        <ele>281.5</ele>
        <time>2022-08-30T09:50:42Z</time>
      </trkpt>
      <trkpt lat="43.31618" lon="-1.47873">
        <ele>281.7</ele>
        <time>2022-08-30T09:50:43Z</time>
      </trkpt>
      <trkpt lat="43.31617" lon="-1.47876">
        <ele>281.9</ele>
        <time>2022-08-30T09:50:44Z</time>
      </trkpt>
      <trkpt lat="43.31615" lon="-1.4788">
        <ele>282.2</ele>
        <time>2022-08-30T09:50:45Z</time>
      </trkpt>
      <trkpt lat="43.31614" lon="-1.47881">
        <ele>282.2</ele>
        <time>2022-08-30T09:50:46Z</time>
      </trkpt>
      <trkpt lat="43.31612" lon="-1.47885">
        <ele>282.5</ele>
        <time>2022-08-30T09:50:47Z</time>
      </trkpt>
      <trkpt lat="43.31611" lon="-1.47887">
        <ele>282.6</ele>
        <time>2022-08-30T09:50:48Z</time>
      </trkpt>
      <trkpt lat="43.31608" lon="-1.47889">
        <ele>282.8</ele>
        <time>2022-08-30T09:50:49Z</time>
      </trkpt>
      <trkpt lat="43.31607" lon="-1.4789">
        <ele>282.9</ele>
        <time>2022-08-30T09:50:50Z</time>
      </trkpt>
      <trkpt lat="43.31604" lon="-1.47891">
        <ele>283.1</ele>
        <time>2022-08-30T09:50:51Z</time>
      </trkpt>
      <trkpt lat="43.316" lon="-1.47893">
        <ele>283.3</ele>
        <time>2022-08-30T09:50:52Z</time>
      </trkpt>
      <trkpt lat="43.31599" lon="-1.47893">
        <ele>283.4</ele>
        <time>2022-08-30T09:50:53Z</time>
      </trkpt>
      <trkpt lat="43.31595" lon="-1.47893">
        <ele>283.7</ele>
        <time>2022-08-30T09:50:54Z</time>
      </trkpt>
      <trkpt lat="43.31593" lon="-1.47893">
        <ele>283.8</ele>
        <time>2022-08-30T09:50:55Z</time>
      </trkpt>
      <trkpt lat="43.3159" lon="-1.47893">
        <ele>284</ele>
        <time>2022-08-30T09:50:56Z</time>
      </trkpt>
      <trkpt lat="43.31588" lon="-1.47893">
        <ele>284.1</ele>
        <time>2022-08-30T09:50:57Z</time>
      </trkpt>
      <trkpt lat="43.31585" lon="-1.47894">
        <ele>284.3</ele>
        <time>2022-08-30T09:50:58Z</time>
      </trkpt>
      <trkpt lat="43.31584" lon="-1.47894">
        <ele>284.4</ele>
        <time>2022-08-30T09:50:59Z</time>
      </trkpt>
      <trkpt lat="43.3158" lon="-1.47894">
        <ele>284.6</ele>
        <time>2022-08-30T09:51:00Z</time>
      </trkpt>
      <trkpt lat="43.31578" lon="-1.47895">
        <ele>284.6</ele>
        <time>2022-08-30T09:51:01Z</time>
      </trkpt>
      <trkpt lat="43.31574" lon="-1.47894">
        <ele>284.8</ele>
        <time>2022-08-30T09:51:02Z</time>
      </trkpt>
      <trkpt lat="43.31573" lon="-1.47894">
        <ele>284.9</ele>
        <time>2022-08-30T09:51:03Z</time>
      </trkpt>
      <trkpt lat="43.3157" lon="-1.47893">
        <ele>285</ele>
        <time>2022-08-30T09:51:04Z</time>
      </trkpt>
      <trkpt lat="43.31567" lon="-1.47893">
        <ele>285.1</ele>
        <time>2022-08-30T09:51:05Z</time>
      </trkpt>
      <trkpt lat="43.31564" lon="-1.47892">
        <ele>285.2</ele>
        <time>2022-08-30T09:51:06Z</time>
      </trkpt>
      <trkpt lat="43.31563" lon="-1.47892">
        <ele>285.3</ele>
        <time>2022-08-30T09:51:07Z</time>
      </trkpt>
      <trkpt lat="43.3156" lon="-1.47891">
        <ele>285.4</ele>
        <time>2022-08-30T09:51:08Z</time>
      </trkpt>
      <trkpt lat="43.31557" lon="-1.47891">
        <ele>285.5</ele>
        <time>2022-08-30T09:51:09Z</time>
      </trkpt>
      <trkpt lat="43.31554" lon="-1.47891">
        <ele>285.6</ele>
        <time>2022-08-30T09:51:10Z</time>
      </trkpt>
      <trkpt lat="43.31551" lon="-1.47891">
        <ele>285.8</ele>
        <time>2022-08-30T09:51:11Z</time>
      </trkpt>
      <trkpt lat="43.31547" lon="-1.47891">
        <ele>285.9</ele>
        <time>2022-08-30T09:51:12Z</time>
      </trkpt>
      <trkpt lat="43.31545" lon="-1.47891">
        <ele>286</ele>
        <time>2022-08-30T09:51:13Z</time>
      </trkpt>
      <trkpt lat="43.31542" lon="-1.47891">
        <ele>286.1</ele>
        <time>2022-08-30T09:51:14Z</time>
      </trkpt>
      <trkpt lat="43.31539" lon="-1.47892">
        <ele>286.2</ele>
        <time>2022-08-30T09:51:15Z</time>
      </trkpt>
      <trkpt lat="43.31536" lon="-1.47892">
        <ele>286.3</ele>
        <time>2022-08-30T09:51:16Z</time>
      </trkpt>
      <trkpt lat="43.31533" lon="-1.47893">
        <ele>286.4</ele>
        <time>2022-08-30T09:51:17Z</time>
      </trkpt>
      <trkpt lat="43.3153" lon="-1.47894">
        <ele>286.5</ele>
        <time>2022-08-30T09:51:18Z</time>
      </trkpt>
      <trkpt lat="43.31527" lon="-1.47895">
        <ele>286.6</ele>
        <time>2022-08-30T09:51:19Z</time>
      </trkpt>
      <trkpt lat="43.31524" lon="-1.47895">
        <ele>286.7</ele>
        <time>2022-08-30T09:51:20Z</time>
      </trkpt>
      <trkpt lat="43.31521" lon="-1.47896">
        <ele>286.8</ele>
        <time>2022-08-30T09:51:21Z</time>
      </trkpt>
      <trkpt lat="43.31518" lon="-1.47896">
        <ele>286.9</ele>
        <time>2022-08-30T09:51:22Z</time>
      </trkpt>
      <trkpt lat="43.31515" lon="-1.47897">
        <ele>287</ele>
        <time>2022-08-30T09:51:23Z</time>
      </trkpt>
      <trkpt lat="43.31512" lon="-1.47898">
        <ele>287</ele>
        <time>2022-08-30T09:51:24Z</time>
      </trkpt>
      <trkpt lat="43.31509" lon="-1.47898">
        <ele>287.1</ele>
        <time>2022-08-30T09:51:25Z</time>
      </trkpt>
      <trkpt lat="43.31506" lon="-1.47899">
        <ele>287.1</ele>
        <time>2022-08-30T09:51:26Z</time>
      </trkpt>
      <trkpt lat="43.31503" lon="-1.479">
        <ele>287.1</ele>
        <time>2022-08-30T09:51:27Z</time>
      </trkpt>
      <trkpt lat="43.31499" lon="-1.479">
        <ele>287.1</ele>
        <time>2022-08-30T09:51:28Z</time>
      </trkpt>
      <trkpt lat="43.31496" lon="-1.47901">
        <ele>287.2</ele>
        <time>2022-08-30T09:51:29Z</time>
      </trkpt>
      <trkpt lat="43.31493" lon="-1.47901">
        <ele>287.2</ele>
        <time>2022-08-30T09:51:30Z</time>
      </trkpt>
      <trkpt lat="43.3149" lon="-1.47902">
        <ele>287.2</ele>
        <time>2022-08-30T09:51:31Z</time>
      </trkpt>
      <trkpt lat="43.31487" lon="-1.47902">
        <ele>287.2</ele>
        <time>2022-08-30T09:51:32Z</time>
      </trkpt>
      <trkpt lat="43.31484" lon="-1.47903">
        <ele>287.2</ele>
        <time>2022-08-30T09:51:33Z</time>
      </trkpt>
      <trkpt lat="43.31481" lon="-1.47904">
        <ele>287.2</ele>
        <time>2022-08-30T09:51:34Z</time>
      </trkpt>
      <trkpt lat="43.3148" lon="-1.47904">
        <ele>287.2</ele>
        <time>2022-08-30T09:51:35Z</time>
      </trkpt>
      <trkpt lat="43.31478" lon="-1.47905">
        <ele>287.2</ele>
        <time>2022-08-30T09:51:36Z</time>
      </trkpt>
      <trkpt lat="43.31477" lon="-1.47905">
        <ele>287.2</ele>
        <time>2022-08-30T09:51:37Z</time>
      </trkpt>
      <trkpt lat="43.31476" lon="-1.47905">
        <ele>287.2</ele>
        <time>2022-08-30T09:51:38Z</time>
      </trkpt>
      <trkpt lat="43.31474" lon="-1.47906">
        <ele>287.3</ele>
        <time>2022-08-30T09:51:39Z</time>
      </trkpt>
      <trkpt lat="43.31473" lon="-1.47906">
        <ele>287.3</ele>
        <time>2022-08-30T09:51:40Z</time>
      </trkpt>
      <trkpt lat="43.31472" lon="-1.47906">
        <ele>287.3</ele>
        <time>2022-08-30T09:51:41Z</time>
      </trkpt>
      <trkpt lat="43.31469" lon="-1.47907">
        <ele>287.3</ele>
        <time>2022-08-30T09:51:42Z</time>
      </trkpt>
      <trkpt lat="43.31468" lon="-1.47907">
        <ele>287.3</ele>
        <time>2022-08-30T09:51:43Z</time>
      </trkpt>
      <trkpt lat="43.31463" lon="-1.47907">
        <ele>287.1</ele>
        <time>2022-08-30T09:51:44Z</time>
      </trkpt>
      <trkpt lat="43.31462" lon="-1.47908">
        <ele>287.1</ele>
        <time>2022-08-30T09:51:45Z</time>
      </trkpt>
      <trkpt lat="43.31458" lon="-1.47908">
        <ele>286.9</ele>
        <time>2022-08-30T09:51:46Z</time>
      </trkpt>
      <trkpt lat="43.31454" lon="-1.47908">
        <ele>286.7</ele>
        <time>2022-08-30T09:51:47Z</time>
      </trkpt>
      <trkpt lat="43.31451" lon="-1.47909">
        <ele>286.5</ele>
        <time>2022-08-30T09:51:48Z</time>
      </trkpt>
      <trkpt lat="43.31446" lon="-1.4791">
        <ele>286.2</ele>
        <time>2022-08-30T09:51:49Z</time>
      </trkpt>
      <trkpt lat="43.31443" lon="-1.47912">
        <ele>286.1</ele>
        <time>2022-08-30T09:51:50Z</time>
      </trkpt>
      <trkpt lat="43.3144" lon="-1.47915">
        <ele>285.9</ele>
        <time>2022-08-30T09:51:51Z</time>
      </trkpt>
      <trkpt lat="43.3144" lon="-1.47916">
        <ele>285.8</ele>
        <time>2022-08-30T09:51:52Z</time>
      </trkpt>
      <trkpt lat="43.31437" lon="-1.47919">
        <ele>285.7</ele>
        <time>2022-08-30T09:51:53Z</time>
      </trkpt>
      <trkpt lat="43.31437" lon="-1.4792">
        <ele>285.6</ele>
        <time>2022-08-30T09:51:54Z</time>
      </trkpt>
      <trkpt lat="43.31437" lon="-1.47922">
        <ele>285.6</ele>
        <time>2022-08-30T09:51:55Z</time>
      </trkpt>
      <trkpt lat="43.31437" lon="-1.47924">
        <ele>285.5</ele>
        <time>2022-08-30T09:51:56Z</time>
      </trkpt>
      <trkpt lat="43.31437" lon="-1.47929">
        <ele>285.3</ele>
        <time>2022-08-30T09:51:58Z</time>
      </trkpt>
      <trkpt lat="43.31438" lon="-1.47936">
        <ele>285.1</ele>
        <time>2022-08-30T09:52:00Z</time>
      </trkpt>
      <trkpt lat="43.31438" lon="-1.4794">
        <ele>284.9</ele>
        <time>2022-08-30T09:52:01Z</time>
      </trkpt>
      <trkpt lat="43.31438" lon="-1.47942">
        <ele>284.9</ele>
        <time>2022-08-30T09:52:02Z</time>
      </trkpt>
      <trkpt lat="43.31438" lon="-1.47947">
        <ele>284.7</ele>
        <time>2022-08-30T09:52:03Z</time>
      </trkpt>
      <trkpt lat="43.31439" lon="-1.47949">
        <ele>284.7</ele>
        <time>2022-08-30T09:52:04Z</time>
      </trkpt>
      <trkpt lat="43.31439" lon="-1.47952">
        <ele>284.6</ele>
        <time>2022-08-30T09:52:05Z</time>
      </trkpt>
      <trkpt lat="43.31439" lon="-1.47957">
        <ele>284.4</ele>
        <time>2022-08-30T09:52:06Z</time>
      </trkpt>
      <trkpt lat="43.3144" lon="-1.47962">
        <ele>284.4</ele>
        <time>2022-08-30T09:52:07Z</time>
      </trkpt>
      <trkpt lat="43.3144" lon="-1.47968">
        <ele>284.3</ele>
        <time>2022-08-30T09:52:08Z</time>
      </trkpt>
      <trkpt lat="43.3144" lon="-1.47974">
        <ele>284.2</ele>
        <time>2022-08-30T09:52:09Z</time>
      </trkpt>
      <trkpt lat="43.3144" lon="-1.4798">
        <ele>284.2</ele>
        <time>2022-08-30T09:52:10Z</time>
      </trkpt>
      <trkpt lat="43.31439" lon="-1.47985">
        <ele>284.2</ele>
        <time>2022-08-30T09:52:11Z</time>
      </trkpt>
      <trkpt lat="43.31439" lon="-1.47989">
        <ele>284.2</ele>
        <time>2022-08-30T09:52:12Z</time>
      </trkpt>
      <trkpt lat="43.3144" lon="-1.47994">
        <ele>284.3</ele>
        <time>2022-08-30T09:52:13Z</time>
      </trkpt>
      <trkpt lat="43.3144" lon="-1.47996">
        <ele>284.3</ele>
        <time>2022-08-30T09:52:14Z</time>
      </trkpt>
      <trkpt lat="43.31441" lon="-1.48">
        <ele>284.4</ele>
        <time>2022-08-30T09:52:15Z</time>
      </trkpt>
      <trkpt lat="43.31442" lon="-1.48003">
        <ele>284.4</ele>
        <time>2022-08-30T09:52:16Z</time>
      </trkpt>
      <trkpt lat="43.31443" lon="-1.48008">
        <ele>284.5</ele>
        <time>2022-08-30T09:52:17Z</time>
      </trkpt>
      <trkpt lat="43.31444" lon="-1.48009">
        <ele>284.5</ele>
        <time>2022-08-30T09:52:18Z</time>
      </trkpt>
      <trkpt lat="43.31445" lon="-1.48014">
        <ele>284.6</ele>
        <time>2022-08-30T09:52:19Z</time>
      </trkpt>
      <trkpt lat="43.31446" lon="-1.48016">
        <ele>284.6</ele>
        <time>2022-08-30T09:52:20Z</time>
      </trkpt>
      <trkpt lat="43.31447" lon="-1.4802">
        <ele>284.7</ele>
        <time>2022-08-30T09:52:21Z</time>
      </trkpt>
      <trkpt lat="43.31448" lon="-1.48025">
        <ele>284.8</ele>
        <time>2022-08-30T09:52:22Z</time>
      </trkpt>
      <trkpt lat="43.31449" lon="-1.48029">
        <ele>284.8</ele>
        <time>2022-08-30T09:52:23Z</time>
      </trkpt>
      <trkpt lat="43.31451" lon="-1.48033">
        <ele>284.9</ele>
        <time>2022-08-30T09:52:24Z</time>
      </trkpt>
      <trkpt lat="43.31452" lon="-1.48037">
        <ele>284.9</ele>
        <time>2022-08-30T09:52:25Z</time>
      </trkpt>
      <trkpt lat="43.31453" lon="-1.4804">
        <ele>285</ele>
        <time>2022-08-30T09:52:26Z</time>
      </trkpt>
      <trkpt lat="43.31455" lon="-1.48043">
        <ele>285</ele>
        <time>2022-08-30T09:52:27Z</time>
      </trkpt>
      <trkpt lat="43.31456" lon="-1.48049">
        <ele>285.1</ele>
        <time>2022-08-30T09:52:28Z</time>
      </trkpt>
      <trkpt lat="43.31456" lon="-1.4805">
        <ele>285.1</ele>
        <time>2022-08-30T09:52:29Z</time>
      </trkpt>
      <trkpt lat="43.31457" lon="-1.48055">
        <ele>285.1</ele>
        <time>2022-08-30T09:52:30Z</time>
      </trkpt>
      <trkpt lat="43.31457" lon="-1.48059">
        <ele>285.2</ele>
        <time>2022-08-30T09:52:31Z</time>
      </trkpt>
      <trkpt lat="43.31458" lon="-1.48064">
        <ele>285.2</ele>
        <time>2022-08-30T09:52:32Z</time>
      </trkpt>
      <trkpt lat="43.31458" lon="-1.48068">
        <ele>285.2</ele>
        <time>2022-08-30T09:52:33Z</time>
      </trkpt>
      <trkpt lat="43.31458" lon="-1.48073">
        <ele>285.2</ele>
        <time>2022-08-30T09:52:34Z</time>
      </trkpt>
      <trkpt lat="43.31457" lon="-1.48077">
        <ele>285.2</ele>
        <time>2022-08-30T09:52:35Z</time>
      </trkpt>
      <trkpt lat="43.31456" lon="-1.48081">
        <ele>285.2</ele>
        <time>2022-08-30T09:52:36Z</time>
      </trkpt>
      <trkpt lat="43.31454" lon="-1.48085">
        <ele>285.2</ele>
        <time>2022-08-30T09:52:37Z</time>
      </trkpt>
      <trkpt lat="43.31454" lon="-1.48087">
        <ele>285.2</ele>
        <time>2022-08-30T09:52:38Z</time>
      </trkpt>
      <trkpt lat="43.31452" lon="-1.48092">
        <ele>285.3</ele>
        <time>2022-08-30T09:52:39Z</time>
      </trkpt>
      <trkpt lat="43.31452" lon="-1.48094">
        <ele>285.3</ele>
        <time>2022-08-30T09:52:40Z</time>
      </trkpt>
      <trkpt lat="43.31452" lon="-1.48097">
        <ele>285.3</ele>
        <time>2022-08-30T09:52:41Z</time>
      </trkpt>
      <trkpt lat="43.31451" lon="-1.48101">
        <ele>285.1</ele>
        <time>2022-08-30T09:52:42Z</time>
      </trkpt>
      <trkpt lat="43.3145" lon="-1.48105">
        <ele>285</ele>
        <time>2022-08-30T09:52:43Z</time>
      </trkpt>
      <trkpt lat="43.31448" lon="-1.4811">
        <ele>284.8</ele>
        <time>2022-08-30T09:52:44Z</time>
      </trkpt>
      <trkpt lat="43.31446" lon="-1.48114">
        <ele>284.6</ele>
        <time>2022-08-30T09:52:45Z</time>
      </trkpt>
      <trkpt lat="43.31443" lon="-1.48118">
        <ele>284.4</ele>
        <time>2022-08-30T09:52:46Z</time>
      </trkpt>
      <trkpt lat="43.31439" lon="-1.48122">
        <ele>284.2</ele>
        <time>2022-08-30T09:52:47Z</time>
      </trkpt>
      <trkpt lat="43.31435" lon="-1.48125">
        <ele>284.1</ele>
        <time>2022-08-30T09:52:48Z</time>
      </trkpt>
      <trkpt lat="43.31431" lon="-1.48128">
        <ele>283.9</ele>
        <time>2022-08-30T09:52:49Z</time>
      </trkpt>
      <trkpt lat="43.31427" lon="-1.48132">
        <ele>283.8</ele>
        <time>2022-08-30T09:52:50Z</time>
      </trkpt>
      <trkpt lat="43.31425" lon="-1.48136">
        <ele>283.7</ele>
        <time>2022-08-30T09:52:51Z</time>
      </trkpt>
      <trkpt lat="43.31422" lon="-1.4814">
        <ele>283.7</ele>
        <time>2022-08-30T09:52:52Z</time>
      </trkpt>
      <trkpt lat="43.3142" lon="-1.48145">
        <ele>283.7</ele>
        <time>2022-08-30T09:52:53Z</time>
      </trkpt>
      <trkpt lat="43.31417" lon="-1.48149">
        <ele>283.7</ele>
        <time>2022-08-30T09:52:54Z</time>
      </trkpt>
      <trkpt lat="43.31416" lon="-1.48154">
        <ele>283.8</ele>
        <time>2022-08-30T09:52:55Z</time>
      </trkpt>
      <trkpt lat="43.31416" lon="-1.48158">
        <ele>283.9</ele>
        <time>2022-08-30T09:52:56Z</time>
      </trkpt>
      <trkpt lat="43.31415" lon="-1.48163">
        <ele>284.1</ele>
        <time>2022-08-30T09:52:57Z</time>
      </trkpt>
      <trkpt lat="43.31415" lon="-1.48169">
        <ele>284.3</ele>
        <time>2022-08-30T09:52:58Z</time>
      </trkpt>
      <trkpt lat="43.31415" lon="-1.48176">
        <ele>284.7</ele>
        <time>2022-08-30T09:52:59Z</time>
      </trkpt>
      <trkpt lat="43.31414" lon="-1.48184">
        <ele>285.1</ele>
        <time>2022-08-30T09:53:00Z</time>
      </trkpt>
      <trkpt lat="43.31411" lon="-1.48189">
        <ele>285.5</ele>
        <time>2022-08-30T09:53:01Z</time>
      </trkpt>
      <trkpt lat="43.31409" lon="-1.48194">
        <ele>285.8</ele>
        <time>2022-08-30T09:53:02Z</time>
      </trkpt>
      <trkpt lat="43.31405" lon="-1.48198">
        <ele>286.1</ele>
        <time>2022-08-30T09:53:03Z</time>
      </trkpt>
      <trkpt lat="43.31402" lon="-1.48201">
        <ele>286.3</ele>
        <time>2022-08-30T09:53:04Z</time>
      </trkpt>
      <trkpt lat="43.31399" lon="-1.48206">
        <ele>286.5</ele>
        <time>2022-08-30T09:53:05Z</time>
      </trkpt>
      <trkpt lat="43.31397" lon="-1.4821">
        <ele>286.5</ele>
        <time>2022-08-30T09:53:06Z</time>
      </trkpt>
      <trkpt lat="43.31395" lon="-1.48213">
        <ele>286.5</ele>
        <time>2022-08-30T09:53:07Z</time>
      </trkpt>
      <trkpt lat="43.31393" lon="-1.48217">
        <ele>286.4</ele>
        <time>2022-08-30T09:53:08Z</time>
      </trkpt>
      <trkpt lat="43.31392" lon="-1.48218">
        <ele>286.4</ele>
        <time>2022-08-30T09:53:09Z</time>
      </trkpt>
      <trkpt lat="43.31391" lon="-1.48221">
        <ele>286.2</ele>
        <time>2022-08-30T09:53:10Z</time>
      </trkpt>
      <trkpt lat="43.31391" lon="-1.48223">
        <ele>286.1</ele>
        <time>2022-08-30T09:53:11Z</time>
      </trkpt>
      <trkpt lat="43.31391" lon="-1.48227">
        <ele>285.7</ele>
        <time>2022-08-30T09:53:12Z</time>
      </trkpt>
      <trkpt lat="43.31391" lon="-1.4823">
        <ele>285.6</ele>
        <time>2022-08-30T09:53:13Z</time>
      </trkpt>
      <trkpt lat="43.3139" lon="-1.48235">
        <ele>285.1</ele>
        <time>2022-08-30T09:53:14Z</time>
      </trkpt>
      <trkpt lat="43.31388" lon="-1.48239">
        <ele>284.5</ele>
        <time>2022-08-30T09:53:15Z</time>
      </trkpt>
      <trkpt lat="43.31385" lon="-1.48243">
        <ele>283.9</ele>
        <time>2022-08-30T09:53:16Z</time>
      </trkpt>
      <trkpt lat="43.31383" lon="-1.48246">
        <ele>283.5</ele>
        <time>2022-08-30T09:53:17Z</time>
      </trkpt>
      <trkpt lat="43.31381" lon="-1.4825">
        <ele>282.9</ele>
        <time>2022-08-30T09:53:18Z</time>
      </trkpt>
      <trkpt lat="43.31378" lon="-1.48254">
        <ele>282.4</ele>
        <time>2022-08-30T09:53:19Z</time>
      </trkpt>
      <trkpt lat="43.31376" lon="-1.48258">
        <ele>281.8</ele>
        <time>2022-08-30T09:53:20Z</time>
      </trkpt>
      <trkpt lat="43.31374" lon="-1.48262">
        <ele>281.3</ele>
        <time>2022-08-30T09:53:21Z</time>
      </trkpt>
      <trkpt lat="43.31372" lon="-1.48266">
        <ele>280.8</ele>
        <time>2022-08-30T09:53:22Z</time>
      </trkpt>
      <trkpt lat="43.31369" lon="-1.4827">
        <ele>280.4</ele>
        <time>2022-08-30T09:53:23Z</time>
      </trkpt>
      <trkpt lat="43.31367" lon="-1.48274">
        <ele>280</ele>
        <time>2022-08-30T09:53:24Z</time>
      </trkpt>
      <trkpt lat="43.31364" lon="-1.48277">
        <ele>279.7</ele>
        <time>2022-08-30T09:53:25Z</time>
      </trkpt>
      <trkpt lat="43.31361" lon="-1.48282">
        <ele>279.3</ele>
        <time>2022-08-30T09:53:26Z</time>
      </trkpt>
      <trkpt lat="43.31358" lon="-1.48287">
        <ele>279</ele>
        <time>2022-08-30T09:53:27Z</time>
      </trkpt>
      <trkpt lat="43.31355" lon="-1.48291">
        <ele>278.7</ele>
        <time>2022-08-30T09:53:28Z</time>
      </trkpt>
      <trkpt lat="43.3135" lon="-1.48295">
        <ele>278.4</ele>
        <time>2022-08-30T09:53:29Z</time>
      </trkpt>
      <trkpt lat="43.31346" lon="-1.48298">
        <ele>278.2</ele>
        <time>2022-08-30T09:53:30Z</time>
      </trkpt>
      <trkpt lat="43.31343" lon="-1.48302">
        <ele>277.9</ele>
        <time>2022-08-30T09:53:31Z</time>
      </trkpt>
      <trkpt lat="43.3134" lon="-1.48306">
        <ele>277.7</ele>
        <time>2022-08-30T09:53:32Z</time>
      </trkpt>
      <trkpt lat="43.31337" lon="-1.4831">
        <ele>277.4</ele>
        <time>2022-08-30T09:53:33Z</time>
      </trkpt>
      <trkpt lat="43.31334" lon="-1.48314">
        <ele>277.1</ele>
        <time>2022-08-30T09:53:34Z</time>
      </trkpt>
      <trkpt lat="43.3133" lon="-1.48318">
        <ele>276.7</ele>
        <time>2022-08-30T09:53:35Z</time>
      </trkpt>
      <trkpt lat="43.31325" lon="-1.48323">
        <ele>276.3</ele>
        <time>2022-08-30T09:53:36Z</time>
      </trkpt>
      <trkpt lat="43.31322" lon="-1.48328">
        <ele>275.8</ele>
        <time>2022-08-30T09:53:37Z</time>
      </trkpt>
      <trkpt lat="43.31318" lon="-1.48334">
        <ele>275.3</ele>
        <time>2022-08-30T09:53:38Z</time>
      </trkpt>
      <trkpt lat="43.31315" lon="-1.48338">
        <ele>274.8</ele>
        <time>2022-08-30T09:53:39Z</time>
      </trkpt>
      <trkpt lat="43.31311" lon="-1.48342">
        <ele>274.3</ele>
        <time>2022-08-30T09:53:40Z</time>
      </trkpt>
      <trkpt lat="43.31307" lon="-1.48347">
        <ele>273.7</ele>
        <time>2022-08-30T09:53:41Z</time>
      </trkpt>
      <trkpt lat="43.31304" lon="-1.48353">
        <ele>273</ele>
        <time>2022-08-30T09:53:42Z</time>
      </trkpt>
      <trkpt lat="43.31301" lon="-1.4836">
        <ele>272.4</ele>
        <time>2022-08-30T09:53:43Z</time>
      </trkpt>
      <trkpt lat="43.31297" lon="-1.48364">
        <ele>271.9</ele>
        <time>2022-08-30T09:53:44Z</time>
      </trkpt>
      <trkpt lat="43.31294" lon="-1.48367">
        <ele>271.6</ele>
        <time>2022-08-30T09:53:45Z</time>
      </trkpt>
      <trkpt lat="43.31292" lon="-1.48371">
        <ele>271.3</ele>
        <time>2022-08-30T09:53:46Z</time>
      </trkpt>
      <trkpt lat="43.31291" lon="-1.48373">
        <ele>271.2</ele>
        <time>2022-08-30T09:53:47Z</time>
      </trkpt>
      <trkpt lat="43.31289" lon="-1.48377">
        <ele>270.8</ele>
        <time>2022-08-30T09:53:48Z</time>
      </trkpt>
      <trkpt lat="43.31287" lon="-1.48384">
        <ele>270.2</ele>
        <time>2022-08-30T09:53:49Z</time>
      </trkpt>
      <trkpt lat="43.31285" lon="-1.4839">
        <ele>269.6</ele>
        <time>2022-08-30T09:53:50Z</time>
      </trkpt>
      <trkpt lat="43.31282" lon="-1.48397">
        <ele>268.9</ele>
        <time>2022-08-30T09:53:51Z</time>
      </trkpt>
      <trkpt lat="43.31279" lon="-1.48404">
        <ele>268.1</ele>
        <time>2022-08-30T09:53:52Z</time>
      </trkpt>
      <trkpt lat="43.31277" lon="-1.4841">
        <ele>267.4</ele>
        <time>2022-08-30T09:53:53Z</time>
      </trkpt>
      <trkpt lat="43.31274" lon="-1.48415">
        <ele>266.7</ele>
        <time>2022-08-30T09:53:54Z</time>
      </trkpt>
      <trkpt lat="43.31273" lon="-1.4842">
        <ele>266</ele>
        <time>2022-08-30T09:53:55Z</time>
      </trkpt>
      <trkpt lat="43.31271" lon="-1.48426">
        <ele>265.4</ele>
        <time>2022-08-30T09:53:56Z</time>
      </trkpt>
      <trkpt lat="43.31271" lon="-1.48433">
        <ele>264.6</ele>
        <time>2022-08-30T09:53:57Z</time>
      </trkpt>
      <trkpt lat="43.31272" lon="-1.48442">
        <ele>263.7</ele>
        <time>2022-08-30T09:53:58Z</time>
      </trkpt>
      <trkpt lat="43.31272" lon="-1.48451">
        <ele>262.8</ele>
        <time>2022-08-30T09:53:59Z</time>
      </trkpt>
      <trkpt lat="43.31272" lon="-1.48459">
        <ele>262.1</ele>
        <time>2022-08-30T09:54:00Z</time>
      </trkpt>
      <trkpt lat="43.31271" lon="-1.48464">
        <ele>261.6</ele>
        <time>2022-08-30T09:54:01Z</time>
      </trkpt>
      <trkpt lat="43.31269" lon="-1.48469">
        <ele>261.2</ele>
        <time>2022-08-30T09:54:02Z</time>
      </trkpt>
      <trkpt lat="43.31269" lon="-1.4847">
        <ele>261.1</ele>
        <time>2022-08-30T09:54:03Z</time>
      </trkpt>
      <trkpt lat="43.31268" lon="-1.48472">
        <ele>260.8</ele>
        <time>2022-08-30T09:54:04Z</time>
      </trkpt>
      <trkpt lat="43.31266" lon="-1.48473">
        <ele>260.7</ele>
        <time>2022-08-30T09:54:05Z</time>
      </trkpt>
      <trkpt lat="43.31265" lon="-1.48475">
        <ele>260.4</ele>
        <time>2022-08-30T09:54:06Z</time>
      </trkpt>
      <trkpt lat="43.31264" lon="-1.48475">
        <ele>260.3</ele>
        <time>2022-08-30T09:54:07Z</time>
      </trkpt>
      <trkpt lat="43.31264" lon="-1.48475">
        <ele>260.2</ele>
        <time>2022-08-30T09:54:08Z</time>
      </trkpt>
      <trkpt lat="43.31263" lon="-1.48475">
        <ele>260.2</ele>
        <time>2022-08-30T09:54:09Z</time>
      </trkpt>
      <trkpt lat="43.31263" lon="-1.48476">
        <ele>260.1</ele>
        <time>2022-08-30T09:54:10Z</time>
      </trkpt>
      <trkpt lat="43.31262" lon="-1.48476">
        <ele>260</ele>
        <time>2022-08-30T09:54:11Z</time>
      </trkpt>
      <trkpt lat="43.31262" lon="-1.48476">
        <ele>259.9</ele>
        <time>2022-08-30T09:54:12Z</time>
      </trkpt>
      <trkpt lat="43.31262" lon="-1.48476">
        <ele>259.8</ele>
        <time>2022-08-30T09:54:13Z</time>
      </trkpt>
      <trkpt lat="43.31261" lon="-1.48477">
        <ele>259.7</ele>
        <time>2022-08-30T09:54:14Z</time>
      </trkpt>
      <trkpt lat="43.31261" lon="-1.48477">
        <ele>259.6</ele>
        <time>2022-08-30T09:54:15Z</time>
      </trkpt>
      <trkpt lat="43.3126" lon="-1.48477">
        <ele>259.6</ele>
        <time>2022-08-30T09:54:16Z</time>
      </trkpt>
      <trkpt lat="43.3126" lon="-1.48477">
        <ele>259.5</ele>
        <time>2022-08-30T09:54:17Z</time>
      </trkpt>
      <trkpt lat="43.31259" lon="-1.48478">
        <ele>259.4</ele>
        <time>2022-08-30T09:54:39Z</time>
      </trkpt>
      <trkpt lat="43.31259" lon="-1.48478">
        <ele>259.3</ele>
        <time>2022-08-30T09:54:40Z</time>
      </trkpt>
      <trkpt lat="43.31258" lon="-1.48478">
        <ele>259.2</ele>
        <time>2022-08-30T09:54:41Z</time>
      </trkpt>
      <trkpt lat="43.31256" lon="-1.4848">
        <ele>258.8</ele>
        <time>2022-08-30T09:54:42Z</time>
      </trkpt>
      <trkpt lat="43.31252" lon="-1.48481">
        <ele>258.1</ele>
        <time>2022-08-30T09:54:43Z</time>
      </trkpt>
      <trkpt lat="43.31251" lon="-1.48482">
        <ele>257.8</ele>
        <time>2022-08-30T09:54:44Z</time>
      </trkpt>
      <trkpt lat="43.31247" lon="-1.48485">
        <ele>257.1</ele>
        <time>2022-08-30T09:54:45Z</time>
      </trkpt>
      <trkpt lat="43.31246" lon="-1.48487">
        <ele>256.8</ele>
        <time>2022-08-30T09:54:46Z</time>
      </trkpt>
      <trkpt lat="43.31244" lon="-1.48489">
        <ele>256.2</ele>
        <time>2022-08-30T09:54:47Z</time>
      </trkpt>
      <trkpt lat="43.31241" lon="-1.48492">
        <ele>255.5</ele>
        <time>2022-08-30T09:54:48Z</time>
      </trkpt>
      <trkpt lat="43.31238" lon="-1.48495">
        <ele>254.7</ele>
        <time>2022-08-30T09:54:49Z</time>
      </trkpt>
      <trkpt lat="43.31236" lon="-1.485">
        <ele>253.9</ele>
        <time>2022-08-30T09:54:50Z</time>
      </trkpt>
      <trkpt lat="43.31236" lon="-1.48506">
        <ele>252.9</ele>
        <time>2022-08-30T09:54:51Z</time>
      </trkpt>
      <trkpt lat="43.31236" lon="-1.48513">
        <ele>251.9</ele>
        <time>2022-08-30T09:54:52Z</time>
      </trkpt>
      <trkpt lat="43.31236" lon="-1.48519">
        <ele>251</ele>
        <time>2022-08-30T09:54:53Z</time>
      </trkpt>
      <trkpt lat="43.31236" lon="-1.48526">
        <ele>250.2</ele>
        <time>2022-08-30T09:54:54Z</time>
      </trkpt>
      <trkpt lat="43.31235" lon="-1.48532">
        <ele>249.3</ele>
        <time>2022-08-30T09:54:55Z</time>
      </trkpt>
      <trkpt lat="43.31233" lon="-1.48538">
        <ele>248.4</ele>
        <time>2022-08-30T09:54:56Z</time>
      </trkpt>
      <trkpt lat="43.31231" lon="-1.48543">
        <ele>247.5</ele>
        <time>2022-08-30T09:54:57Z</time>
      </trkpt>
      <trkpt lat="43.3123" lon="-1.48549">
        <ele>246.6</ele>
        <time>2022-08-30T09:54:58Z</time>
      </trkpt>
      <trkpt lat="43.31229" lon="-1.48555">
        <ele>245.7</ele>
        <time>2022-08-30T09:54:59Z</time>
      </trkpt>
      <trkpt lat="43.31229" lon="-1.4856">
        <ele>244.9</ele>
        <time>2022-08-30T09:55:00Z</time>
      </trkpt>
      <trkpt lat="43.31229" lon="-1.48565">
        <ele>244.1</ele>
        <time>2022-08-30T09:55:01Z</time>
      </trkpt>
      <trkpt lat="43.31229" lon="-1.48571">
        <ele>243.2</ele>
        <time>2022-08-30T09:55:02Z</time>
      </trkpt>
      <trkpt lat="43.31228" lon="-1.48575">
        <ele>242.5</ele>
        <time>2022-08-30T09:55:03Z</time>
      </trkpt>
      <trkpt lat="43.31225" lon="-1.48576">
        <ele>241.8</ele>
        <time>2022-08-30T09:55:04Z</time>
      </trkpt>
      <trkpt lat="43.3122" lon="-1.48575">
        <ele>241</ele>
        <time>2022-08-30T09:55:05Z</time>
      </trkpt>
      <trkpt lat="43.31216" lon="-1.48571">
        <ele>240.3</ele>
        <time>2022-08-30T09:55:06Z</time>
      </trkpt>
      <trkpt lat="43.31214" lon="-1.48566">
        <ele>239.6</ele>
        <time>2022-08-30T09:55:07Z</time>
      </trkpt>
      <trkpt lat="43.31211" lon="-1.4856">
        <ele>239</ele>
        <time>2022-08-30T09:55:08Z</time>
      </trkpt>
      <trkpt lat="43.31209" lon="-1.48554">
        <ele>238.4</ele>
        <time>2022-08-30T09:55:09Z</time>
      </trkpt>
      <trkpt lat="43.31207" lon="-1.48549">
        <ele>237.8</ele>
        <time>2022-08-30T09:55:10Z</time>
      </trkpt>
      <trkpt lat="43.31204" lon="-1.48544">
        <ele>237.2</ele>
        <time>2022-08-30T09:55:11Z</time>
      </trkpt>
      <trkpt lat="43.31201" lon="-1.48539">
        <ele>236.5</ele>
        <time>2022-08-30T09:55:12Z</time>
      </trkpt>
      <trkpt lat="43.31199" lon="-1.48535">
        <ele>236</ele>
        <time>2022-08-30T09:55:13Z</time>
      </trkpt>
      <trkpt lat="43.31196" lon="-1.4853">
        <ele>235.3</ele>
        <time>2022-08-30T09:55:14Z</time>
      </trkpt>
      <trkpt lat="43.31194" lon="-1.48523">
        <ele>234.6</ele>
        <time>2022-08-30T09:55:15Z</time>
      </trkpt>
      <trkpt lat="43.31191" lon="-1.48517">
        <ele>233.9</ele>
        <time>2022-08-30T09:55:16Z</time>
      </trkpt>
      <trkpt lat="43.31187" lon="-1.48511">
        <ele>233.1</ele>
        <time>2022-08-30T09:55:17Z</time>
      </trkpt>
      <trkpt lat="43.31183" lon="-1.48505">
        <ele>232.4</ele>
        <time>2022-08-30T09:55:18Z</time>
      </trkpt>
      <trkpt lat="43.3118" lon="-1.48499">
        <ele>231.7</ele>
        <time>2022-08-30T09:55:19Z</time>
      </trkpt>
      <trkpt lat="43.31176" lon="-1.48496">
        <ele>231.1</ele>
        <time>2022-08-30T09:55:20Z</time>
      </trkpt>
      <trkpt lat="43.31174" lon="-1.48492">
        <ele>230.6</ele>
        <time>2022-08-30T09:55:21Z</time>
      </trkpt>
      <trkpt lat="43.31172" lon="-1.4849">
        <ele>230.2</ele>
        <time>2022-08-30T09:55:22Z</time>
      </trkpt>
      <trkpt lat="43.3117" lon="-1.48486">
        <ele>229.7</ele>
        <time>2022-08-30T09:55:23Z</time>
      </trkpt>
      <trkpt lat="43.31169" lon="-1.48482">
        <ele>229.2</ele>
        <time>2022-08-30T09:55:24Z</time>
      </trkpt>
      <trkpt lat="43.31168" lon="-1.48477">
        <ele>228.6</ele>
        <time>2022-08-30T09:55:25Z</time>
      </trkpt>
      <trkpt lat="43.31165" lon="-1.48475">
        <ele>228.1</ele>
        <time>2022-08-30T09:55:26Z</time>
      </trkpt>
      <trkpt lat="43.31165" lon="-1.48475">
        <ele>228</ele>
        <time>2022-08-30T09:55:27Z</time>
      </trkpt>
      <trkpt lat="43.31162" lon="-1.48477">
        <ele>227.5</ele>
        <time>2022-08-30T09:55:28Z</time>
      </trkpt>
      <trkpt lat="43.31162" lon="-1.48478">
        <ele>227.3</ele>
        <time>2022-08-30T09:55:29Z</time>
      </trkpt>
      <trkpt lat="43.31161" lon="-1.48481">
        <ele>226.8</ele>
        <time>2022-08-30T09:55:30Z</time>
      </trkpt>
      <trkpt lat="43.3116" lon="-1.48487">
        <ele>226.1</ele>
        <time>2022-08-30T09:55:31Z</time>
      </trkpt>
      <trkpt lat="43.3116" lon="-1.48494">
        <ele>225.3</ele>
        <time>2022-08-30T09:55:32Z</time>
      </trkpt>
      <trkpt lat="43.3116" lon="-1.48504">
        <ele>224.3</ele>
        <time>2022-08-30T09:55:33Z</time>
      </trkpt>
      <trkpt lat="43.3116" lon="-1.48513">
        <ele>223.4</ele>
        <time>2022-08-30T09:55:34Z</time>
      </trkpt>
      <trkpt lat="43.31161" lon="-1.48523">
        <ele>222.5</ele>
        <time>2022-08-30T09:55:35Z</time>
      </trkpt>
      <trkpt lat="43.31163" lon="-1.48533">
        <ele>221.7</ele>
        <time>2022-08-30T09:55:36Z</time>
      </trkpt>
      <trkpt lat="43.31165" lon="-1.48542">
        <ele>221.1</ele>
        <time>2022-08-30T09:55:37Z</time>
      </trkpt>
      <trkpt lat="43.31167" lon="-1.48549">
        <ele>220.6</ele>
        <time>2022-08-30T09:55:38Z</time>
      </trkpt>
      <trkpt lat="43.31168" lon="-1.48556">
        <ele>220.1</ele>
        <time>2022-08-30T09:55:39Z</time>
      </trkpt>
      <trkpt lat="43.31169" lon="-1.48563">
        <ele>219.5</ele>
        <time>2022-08-30T09:55:40Z</time>
      </trkpt>
      <trkpt lat="43.3117" lon="-1.48568">
        <ele>219.1</ele>
        <time>2022-08-30T09:55:41Z</time>
      </trkpt>
      <trkpt lat="43.3117" lon="-1.48574">
        <ele>218.5</ele>
        <time>2022-08-30T09:55:42Z</time>
      </trkpt>
      <trkpt lat="43.3117" lon="-1.48579">
        <ele>217.9</ele>
        <time>2022-08-30T09:55:43Z</time>
      </trkpt>
      <trkpt lat="43.3117" lon="-1.48584">
        <ele>217.4</ele>
        <time>2022-08-30T09:55:44Z</time>
      </trkpt>
      <trkpt lat="43.3117" lon="-1.48588">
        <ele>216.8</ele>
        <time>2022-08-30T09:55:45Z</time>
      </trkpt>
      <trkpt lat="43.3117" lon="-1.48593">
        <ele>216.2</ele>
        <time>2022-08-30T09:55:46Z</time>
      </trkpt>
      <trkpt lat="43.3117" lon="-1.48598">
        <ele>215.4</ele>
        <time>2022-08-30T09:55:47Z</time>
      </trkpt>
      <trkpt lat="43.3117" lon="-1.48603">
        <ele>214.6</ele>
        <time>2022-08-30T09:55:48Z</time>
      </trkpt>
      <trkpt lat="43.31171" lon="-1.48609">
        <ele>213.7</ele>
        <time>2022-08-30T09:55:49Z</time>
      </trkpt>
      <trkpt lat="43.31172" lon="-1.48615">
        <ele>212.8</ele>
        <time>2022-08-30T09:55:50Z</time>
      </trkpt>
      <trkpt lat="43.31174" lon="-1.48621">
        <ele>211.8</ele>
        <time>2022-08-30T09:55:51Z</time>
      </trkpt>
      <trkpt lat="43.31176" lon="-1.48627">
        <ele>210.8</ele>
        <time>2022-08-30T09:55:52Z</time>
      </trkpt>
      <trkpt lat="43.31178" lon="-1.48633">
        <ele>209.8</ele>
        <time>2022-08-30T09:55:53Z</time>
      </trkpt>
      <trkpt lat="43.3118" lon="-1.48639">
        <ele>208.6</ele>
        <time>2022-08-30T09:55:54Z</time>
      </trkpt>
      <trkpt lat="43.31182" lon="-1.48646">
        <ele>207.5</ele>
        <time>2022-08-30T09:55:55Z</time>
      </trkpt>
      <trkpt lat="43.31183" lon="-1.48653">
        <ele>206.1</ele>
        <time>2022-08-30T09:55:56Z</time>
      </trkpt>
      <trkpt lat="43.31183" lon="-1.48661">
        <ele>204.8</ele>
        <time>2022-08-30T09:55:57Z</time>
      </trkpt>
      <trkpt lat="43.31184" lon="-1.48668">
        <ele>203.6</ele>
        <time>2022-08-30T09:55:58Z</time>
      </trkpt>
      <trkpt lat="43.31184" lon="-1.48675">
        <ele>202.4</ele>
        <time>2022-08-30T09:55:59Z</time>
      </trkpt>
      <trkpt lat="43.31184" lon="-1.48682">
        <ele>201.3</ele>
        <time>2022-08-30T09:56:00Z</time>
      </trkpt>
      <trkpt lat="43.31184" lon="-1.48689">
        <ele>200.2</ele>
        <time>2022-08-30T09:56:01Z</time>
      </trkpt>
      <trkpt lat="43.31185" lon="-1.48696">
        <ele>199</ele>
        <time>2022-08-30T09:56:02Z</time>
      </trkpt>
      <trkpt lat="43.31185" lon="-1.48702">
        <ele>198</ele>
        <time>2022-08-30T09:56:03Z</time>
      </trkpt>
      <trkpt lat="43.31185" lon="-1.48709">
        <ele>196.8</ele>
        <time>2022-08-30T09:56:04Z</time>
      </trkpt>
      <trkpt lat="43.31185" lon="-1.48715">
        <ele>195.6</ele>
        <time>2022-08-30T09:56:05Z</time>
      </trkpt>
      <trkpt lat="43.31184" lon="-1.48721">
        <ele>194.4</ele>
        <time>2022-08-30T09:56:06Z</time>
      </trkpt>
      <trkpt lat="43.31182" lon="-1.48726">
        <ele>193.4</ele>
        <time>2022-08-30T09:56:07Z</time>
      </trkpt>
      <trkpt lat="43.31178" lon="-1.48728">
        <ele>192.5</ele>
        <time>2022-08-30T09:56:08Z</time>
      </trkpt>
      <trkpt lat="43.31174" lon="-1.48729">
        <ele>191.4</ele>
        <time>2022-08-30T09:56:09Z</time>
      </trkpt>
      <trkpt lat="43.3117" lon="-1.4873">
        <ele>190.4</ele>
        <time>2022-08-30T09:56:10Z</time>
      </trkpt>
      <trkpt lat="43.31165" lon="-1.48731">
        <ele>189.2</ele>
        <time>2022-08-30T09:56:11Z</time>
      </trkpt>
      <trkpt lat="43.31161" lon="-1.48733">
        <ele>188.1</ele>
        <time>2022-08-30T09:56:12Z</time>
      </trkpt>
      <trkpt lat="43.31157" lon="-1.48734">
        <ele>187</ele>
        <time>2022-08-30T09:56:13Z</time>
      </trkpt>
      <trkpt lat="43.31152" lon="-1.48734">
        <ele>185.7</ele>
        <time>2022-08-30T09:56:14Z</time>
      </trkpt>
      <trkpt lat="43.31147" lon="-1.48734">
        <ele>184.5</ele>
        <time>2022-08-30T09:56:15Z</time>
      </trkpt>
      <trkpt lat="43.31142" lon="-1.48734">
        <ele>183.2</ele>
        <time>2022-08-30T09:56:16Z</time>
      </trkpt>
      <trkpt lat="43.31136" lon="-1.48734">
        <ele>181.9</ele>
        <time>2022-08-30T09:56:17Z</time>
      </trkpt>
      <trkpt lat="43.31131" lon="-1.48735">
        <ele>180.6</ele>
        <time>2022-08-30T09:56:18Z</time>
      </trkpt>
      <trkpt lat="43.31126" lon="-1.48736">
        <ele>179.4</ele>
        <time>2022-08-30T09:56:19Z</time>
      </trkpt>
      <trkpt lat="43.31121" lon="-1.48738">
        <ele>178.1</ele>
        <time>2022-08-30T09:56:20Z</time>
      </trkpt>
      <trkpt lat="43.31115" lon="-1.48739">
        <ele>176.8</ele>
        <time>2022-08-30T09:56:21Z</time>
      </trkpt>
      <trkpt lat="43.3111" lon="-1.48741">
        <ele>175.5</ele>
        <time>2022-08-30T09:56:22Z</time>
      </trkpt>
      <trkpt lat="43.31105" lon="-1.48742">
        <ele>174.1</ele>
        <time>2022-08-30T09:56:23Z</time>
      </trkpt>
      <trkpt lat="43.311" lon="-1.48744">
        <ele>172.9</ele>
        <time>2022-08-30T09:56:24Z</time>
      </trkpt>
      <trkpt lat="43.31096" lon="-1.48746">
        <ele>171.9</ele>
        <time>2022-08-30T09:56:25Z</time>
      </trkpt>
      <trkpt lat="43.31093" lon="-1.4875">
        <ele>171</ele>
        <time>2022-08-30T09:56:26Z</time>
      </trkpt>
      <trkpt lat="43.31092" lon="-1.48755">
        <ele>170.2</ele>
        <time>2022-08-30T09:56:27Z</time>
      </trkpt>
      <trkpt lat="43.31091" lon="-1.48761">
        <ele>169.2</ele>
        <time>2022-08-30T09:56:28Z</time>
      </trkpt>
      <trkpt lat="43.3109" lon="-1.48767">
        <ele>168.5</ele>
        <time>2022-08-30T09:56:29Z</time>
      </trkpt>
      <trkpt lat="43.3109" lon="-1.48773">
        <ele>167.6</ele>
        <time>2022-08-30T09:56:30Z</time>
      </trkpt>
      <trkpt lat="43.3109" lon="-1.4878">
        <ele>166.8</ele>
        <time>2022-08-30T09:56:31Z</time>
      </trkpt>
      <trkpt lat="43.31089" lon="-1.48786">
        <ele>166.1</ele>
        <time>2022-08-30T09:56:32Z</time>
      </trkpt>
      <trkpt lat="43.31089" lon="-1.48793">
        <ele>165.4</ele>
        <time>2022-08-30T09:56:33Z</time>
      </trkpt>
      <trkpt lat="43.31089" lon="-1.48798">
        <ele>164.8</ele>
        <time>2022-08-30T09:56:34Z</time>
      </trkpt>
      <trkpt lat="43.31088" lon="-1.48804">
        <ele>164.3</ele>
        <time>2022-08-30T09:56:35Z</time>
      </trkpt>
      <trkpt lat="43.31088" lon="-1.4881">
        <ele>163.7</ele>
        <time>2022-08-30T09:56:36Z</time>
      </trkpt>
      <trkpt lat="43.31088" lon="-1.48817">
        <ele>163.1</ele>
        <time>2022-08-30T09:56:37Z</time>
      </trkpt>
      <trkpt lat="43.31087" lon="-1.48824">
        <ele>162.4</ele>
        <time>2022-08-30T09:56:38Z</time>
      </trkpt>
      <trkpt lat="43.31087" lon="-1.48832">
        <ele>161.8</ele>
        <time>2022-08-30T09:56:39Z</time>
      </trkpt>
      <trkpt lat="43.31086" lon="-1.48841">
        <ele>161.1</ele>
        <time>2022-08-30T09:56:40Z</time>
      </trkpt>
      <trkpt lat="43.31085" lon="-1.48848">
        <ele>160.5</ele>
        <time>2022-08-30T09:56:41Z</time>
      </trkpt>
      <trkpt lat="43.31084" lon="-1.48857">
        <ele>159.8</ele>
        <time>2022-08-30T09:56:42Z</time>
      </trkpt>
      <trkpt lat="43.31082" lon="-1.48865">
        <ele>159.5</ele>
        <time>2022-08-30T09:56:43Z</time>
      </trkpt>
      <trkpt lat="43.3108" lon="-1.48873">
        <ele>158.9</ele>
        <time>2022-08-30T09:56:44Z</time>
      </trkpt>
      <trkpt lat="43.31078" lon="-1.48881">
        <ele>158.2</ele>
        <time>2022-08-30T09:56:45Z</time>
      </trkpt>
      <trkpt lat="43.31075" lon="-1.4889">
        <ele>157.3</ele>
        <time>2022-08-30T09:56:46Z</time>
      </trkpt>
      <trkpt lat="43.31071" lon="-1.48899">
        <ele>156.3</ele>
        <time>2022-08-30T09:56:47Z</time>
      </trkpt>
      <trkpt lat="43.31067" lon="-1.48908">
        <ele>155.1</ele>
        <time>2022-08-30T09:56:48Z</time>
      </trkpt>
      <trkpt lat="43.31063" lon="-1.4892">
        <ele>154</ele>
        <time>2022-08-30T09:56:49Z</time>
      </trkpt>
      <trkpt lat="43.31058" lon="-1.48931">
        <ele>153.1</ele>
        <time>2022-08-30T09:56:50Z</time>
      </trkpt>
      <trkpt lat="43.31054" lon="-1.48943">
        <ele>152.5</ele>
        <time>2022-08-30T09:56:51Z</time>
      </trkpt>
      <trkpt lat="43.31049" lon="-1.48954">
        <ele>152</ele>
        <time>2022-08-30T09:56:52Z</time>
      </trkpt>
      <trkpt lat="43.31045" lon="-1.48965">
        <ele>151.5</ele>
        <time>2022-08-30T09:56:53Z</time>
      </trkpt>
      <trkpt lat="43.31041" lon="-1.48975">
        <ele>151</ele>
        <time>2022-08-30T09:56:54Z</time>
      </trkpt>
      <trkpt lat="43.31038" lon="-1.48985">
        <ele>150.6</ele>
        <time>2022-08-30T09:56:55Z</time>
      </trkpt>
      <trkpt lat="43.31035" lon="-1.48992">
        <ele>150.2</ele>
        <time>2022-08-30T09:56:56Z</time>
      </trkpt>
      <trkpt lat="43.31032" lon="-1.48999">
        <ele>149.8</ele>
        <time>2022-08-30T09:56:57Z</time>
      </trkpt>
      <trkpt lat="43.31029" lon="-1.49006">
        <ele>149.4</ele>
        <time>2022-08-30T09:56:58Z</time>
      </trkpt>
      <trkpt lat="43.31027" lon="-1.49011">
        <ele>149.1</ele>
        <time>2022-08-30T09:56:59Z</time>
      </trkpt>
      <trkpt lat="43.31024" lon="-1.49016">
        <ele>148.8</ele>
        <time>2022-08-30T09:57:00Z</time>
      </trkpt>
      <trkpt lat="43.31021" lon="-1.49023">
        <ele>148.5</ele>
        <time>2022-08-30T09:57:01Z</time>
      </trkpt>
      <trkpt lat="43.31019" lon="-1.4903">
        <ele>148.2</ele>
        <time>2022-08-30T09:57:02Z</time>
      </trkpt>
      <trkpt lat="43.31017" lon="-1.49038">
        <ele>148</ele>
        <time>2022-08-30T09:57:03Z</time>
      </trkpt>
      <trkpt lat="43.31016" lon="-1.49045">
        <ele>147.7</ele>
        <time>2022-08-30T09:57:04Z</time>
      </trkpt>
      <trkpt lat="43.31015" lon="-1.49052">
        <ele>147.3</ele>
        <time>2022-08-30T09:57:05Z</time>
      </trkpt>
      <trkpt lat="43.31014" lon="-1.49059">
        <ele>146.9</ele>
        <time>2022-08-30T09:57:06Z</time>
      </trkpt>
      <trkpt lat="43.31013" lon="-1.49067">
        <ele>146.4</ele>
        <time>2022-08-30T09:57:07Z</time>
      </trkpt>
      <trkpt lat="43.31011" lon="-1.49077">
        <ele>145.6</ele>
        <time>2022-08-30T09:57:08Z</time>
      </trkpt>
      <trkpt lat="43.3101" lon="-1.49087">
        <ele>144.8</ele>
        <time>2022-08-30T09:57:09Z</time>
      </trkpt>
      <trkpt lat="43.31008" lon="-1.49097">
        <ele>144</ele>
        <time>2022-08-30T09:57:10Z</time>
      </trkpt>
      <trkpt lat="43.31007" lon="-1.49107">
        <ele>143.2</ele>
        <time>2022-08-30T09:57:11Z</time>
      </trkpt>
      <trkpt lat="43.31005" lon="-1.49118">
        <ele>142.5</ele>
        <time>2022-08-30T09:57:12Z</time>
      </trkpt>
      <trkpt lat="43.31002" lon="-1.4913">
        <ele>141.8</ele>
        <time>2022-08-30T09:57:13Z</time>
      </trkpt>
      <trkpt lat="43.31" lon="-1.49142">
        <ele>141.2</ele>
        <time>2022-08-30T09:57:14Z</time>
      </trkpt>
      <trkpt lat="43.30998" lon="-1.49154">
        <ele>140.6</ele>
        <time>2022-08-30T09:57:15Z</time>
      </trkpt>
      <trkpt lat="43.30995" lon="-1.49166">
        <ele>140.1</ele>
        <time>2022-08-30T09:57:16Z</time>
      </trkpt>
      <trkpt lat="43.30993" lon="-1.49179">
        <ele>139.6</ele>
        <time>2022-08-30T09:57:17Z</time>
      </trkpt>
      <trkpt lat="43.30991" lon="-1.49191">
        <ele>139.2</ele>
        <time>2022-08-30T09:57:18Z</time>
      </trkpt>
      <trkpt lat="43.30988" lon="-1.49203">
        <ele>138.8</ele>
        <time>2022-08-30T09:57:19Z</time>
      </trkpt>
      <trkpt lat="43.30987" lon="-1.49215">
        <ele>138.4</ele>
        <time>2022-08-30T09:57:20Z</time>
      </trkpt>
      <trkpt lat="43.30985" lon="-1.49227">
        <ele>138.1</ele>
        <time>2022-08-30T09:57:21Z</time>
      </trkpt>
      <trkpt lat="43.30982" lon="-1.49239">
        <ele>137.8</ele>
        <time>2022-08-30T09:57:22Z</time>
      </trkpt>
      <trkpt lat="43.3098" lon="-1.4925">
        <ele>137.5</ele>
        <time>2022-08-30T09:57:23Z</time>
      </trkpt>
      <trkpt lat="43.30979" lon="-1.49259">
        <ele>137.2</ele>
        <time>2022-08-30T09:57:24Z</time>
      </trkpt>
      <trkpt lat="43.30982" lon="-1.49268">
        <ele>136.8</ele>
        <time>2022-08-30T09:57:25Z</time>
      </trkpt>
      <trkpt lat="43.30988" lon="-1.49276">
        <ele>136.3</ele>
        <time>2022-08-30T09:57:26Z</time>
      </trkpt>
      <trkpt lat="43.30994" lon="-1.49282">
        <ele>135.7</ele>
        <time>2022-08-30T09:57:27Z</time>
      </trkpt>
      <trkpt lat="43.31" lon="-1.49291">
        <ele>135.1</ele>
        <time>2022-08-30T09:57:28Z</time>
      </trkpt>
      <trkpt lat="43.31004" lon="-1.49301">
        <ele>134.3</ele>
        <time>2022-08-30T09:57:29Z</time>
      </trkpt>
      <trkpt lat="43.31009" lon="-1.49311">
        <ele>133.5</ele>
        <time>2022-08-30T09:57:30Z</time>
      </trkpt>
      <trkpt lat="43.31014" lon="-1.49321">
        <ele>132.5</ele>
        <time>2022-08-30T09:57:31Z</time>
      </trkpt>
      <trkpt lat="43.31021" lon="-1.49331">
        <ele>131.3</ele>
        <time>2022-08-30T09:57:32Z</time>
      </trkpt>
      <trkpt lat="43.31027" lon="-1.4934">
        <ele>130</ele>
        <time>2022-08-30T09:57:33Z</time>
      </trkpt>
      <trkpt lat="43.31034" lon="-1.49347">
        <ele>128.7</ele>
        <time>2022-08-30T09:57:34Z</time>
      </trkpt>
      <trkpt lat="43.31041" lon="-1.49354">
        <ele>127.4</ele>
        <time>2022-08-30T09:57:35Z</time>
      </trkpt>
      <trkpt lat="43.31046" lon="-1.4936">
        <ele>126.3</ele>
        <time>2022-08-30T09:57:36Z</time>
      </trkpt>
      <trkpt lat="43.31051" lon="-1.49366">
        <ele>125.3</ele>
        <time>2022-08-30T09:57:37Z</time>
      </trkpt>
      <trkpt lat="43.31054" lon="-1.49372">
        <ele>124.3</ele>
        <time>2022-08-30T09:57:38Z</time>
      </trkpt>
      <trkpt lat="43.31056" lon="-1.4938">
        <ele>120.9</ele>
        <time>2022-08-30T09:57:39Z</time>
      </trkpt>
      <trkpt lat="43.31056" lon="-1.49387">
        <ele>120.6</ele>
        <time>2022-08-30T09:57:40Z</time>
      </trkpt>
      <trkpt lat="43.31055" lon="-1.49394">
        <ele>120.3</ele>
        <time>2022-08-30T09:57:41Z</time>
      </trkpt>
      <trkpt lat="43.31054" lon="-1.49401">
        <ele>119.9</ele>
        <time>2022-08-30T09:57:42Z</time>
      </trkpt>
      <trkpt lat="43.31052" lon="-1.49407">
        <ele>119.6</ele>
        <time>2022-08-30T09:57:43Z</time>
      </trkpt>
      <trkpt lat="43.31049" lon="-1.49413">
        <ele>119.2</ele>
        <time>2022-08-30T09:57:44Z</time>
      </trkpt>
      <trkpt lat="43.31045" lon="-1.49418">
        <ele>118.8</ele>
        <time>2022-08-30T09:57:45Z</time>
      </trkpt>
      <trkpt lat="43.3104" lon="-1.49423">
        <ele>118.3</ele>
        <time>2022-08-30T09:57:46Z</time>
      </trkpt>
      <trkpt lat="43.31035" lon="-1.49428">
        <ele>117.7</ele>
        <time>2022-08-30T09:57:47Z</time>
      </trkpt>
      <trkpt lat="43.31028" lon="-1.49431">
        <ele>117</ele>
        <time>2022-08-30T09:57:48Z</time>
      </trkpt>
      <trkpt lat="43.31022" lon="-1.49436">
        <ele>116.3</ele>
        <time>2022-08-30T09:57:49Z</time>
      </trkpt>
      <trkpt lat="43.31015" lon="-1.49441">
        <ele>115.5</ele>
        <time>2022-08-30T09:57:50Z</time>
      </trkpt>
      <trkpt lat="43.31007" lon="-1.49447">
        <ele>114.6</ele>
        <time>2022-08-30T09:57:51Z</time>
      </trkpt>
      <trkpt lat="43.31" lon="-1.49454">
        <ele>113.7</ele>
        <time>2022-08-30T09:57:52Z</time>
      </trkpt>
      <trkpt lat="43.30993" lon="-1.49461">
        <ele>112.7</ele>
        <time>2022-08-30T09:57:53Z</time>
      </trkpt>
      <trkpt lat="43.30987" lon="-1.49468">
        <ele>111.7</ele>
        <time>2022-08-30T09:57:54Z</time>
      </trkpt>
      <trkpt lat="43.3098" lon="-1.49473">
        <ele>110.7</ele>
        <time>2022-08-30T09:57:55Z</time>
      </trkpt>
      <trkpt lat="43.30972" lon="-1.49477">
        <ele>109.5</ele>
        <time>2022-08-30T09:57:56Z</time>
      </trkpt>
      <trkpt lat="43.30964" lon="-1.49479">
        <ele>108.2</ele>
        <time>2022-08-30T09:57:57Z</time>
      </trkpt>
      <trkpt lat="43.30957" lon="-1.49481">
        <ele>107</ele>
        <time>2022-08-30T09:57:58Z</time>
      </trkpt>
      <trkpt lat="43.3095" lon="-1.49484">
        <ele>105.8</ele>
        <time>2022-08-30T09:57:59Z</time>
      </trkpt>
      <trkpt lat="43.30944" lon="-1.49488">
        <ele>104.7</ele>
        <time>2022-08-30T09:58:00Z</time>
      </trkpt>
      <trkpt lat="43.30937" lon="-1.49493">
        <ele>103.7</ele>
        <time>2022-08-30T09:58:01Z</time>
      </trkpt>
      <trkpt lat="43.30931" lon="-1.49502">
        <ele>103</ele>
        <time>2022-08-30T09:58:02Z</time>
      </trkpt>
      <trkpt lat="43.30927" lon="-1.49514">
        <ele>102.6</ele>
        <time>2022-08-30T09:58:03Z</time>
      </trkpt>
      <trkpt lat="43.30923" lon="-1.49528">
        <ele>102.6</ele>
        <time>2022-08-30T09:58:04Z</time>
      </trkpt>
      <trkpt lat="43.3092" lon="-1.49539">
        <ele>103</ele>
        <time>2022-08-30T09:58:05Z</time>
      </trkpt>
      <trkpt lat="43.30915" lon="-1.49548">
        <ele>103.5</ele>
        <time>2022-08-30T09:58:06Z</time>
      </trkpt>
      <trkpt lat="43.30909" lon="-1.49554">
        <ele>104.1</ele>
        <time>2022-08-30T09:58:07Z</time>
      </trkpt>
      <trkpt lat="43.30903" lon="-1.49558">
        <ele>104.7</ele>
        <time>2022-08-30T09:58:08Z</time>
      </trkpt>
      <trkpt lat="43.30897" lon="-1.4956">
        <ele>105.2</ele>
        <time>2022-08-30T09:58:09Z</time>
      </trkpt>
      <trkpt lat="43.30892" lon="-1.49561">
        <ele>105.7</ele>
        <time>2022-08-30T09:58:10Z</time>
      </trkpt>
      <trkpt lat="43.30888" lon="-1.49563">
        <ele>106.2</ele>
        <time>2022-08-30T09:58:11Z</time>
      </trkpt>
      <trkpt lat="43.30884" lon="-1.49564">
        <ele>106.5</ele>
        <time>2022-08-30T09:58:12Z</time>
      </trkpt>
      <trkpt lat="43.30877" lon="-1.49567">
        <ele>107.2</ele>
        <time>2022-08-30T09:58:14Z</time>
      </trkpt>
      <trkpt lat="43.30874" lon="-1.49569">
        <ele>107.5</ele>
        <time>2022-08-30T09:58:15Z</time>
      </trkpt>
      <trkpt lat="43.30872" lon="-1.49571">
        <ele>107.7</ele>
        <time>2022-08-30T09:58:16Z</time>
      </trkpt>
      <trkpt lat="43.3087" lon="-1.49574">
        <ele>107.9</ele>
        <time>2022-08-30T09:58:17Z</time>
      </trkpt>
      <trkpt lat="43.30868" lon="-1.49578">
        <ele>108</ele>
        <time>2022-08-30T09:58:18Z</time>
      </trkpt>
      <trkpt lat="43.30867" lon="-1.49582">
        <ele>108.2</ele>
        <time>2022-08-30T09:58:19Z</time>
      </trkpt>
      <trkpt lat="43.30865" lon="-1.49587">
        <ele>108.4</ele>
        <time>2022-08-30T09:58:20Z</time>
      </trkpt>
      <trkpt lat="43.30864" lon="-1.49593">
        <ele>108.6</ele>
        <time>2022-08-30T09:58:21Z</time>
      </trkpt>
      <trkpt lat="43.30864" lon="-1.49598">
        <ele>108.8</ele>
        <time>2022-08-30T09:58:22Z</time>
      </trkpt>
      <trkpt lat="43.30864" lon="-1.49603">
        <ele>109</ele>
        <time>2022-08-30T09:58:23Z</time>
      </trkpt>
      <trkpt lat="43.30863" lon="-1.49612">
        <ele>109.4</ele>
        <time>2022-08-30T09:58:25Z</time>
      </trkpt>
      <trkpt lat="43.30862" lon="-1.49615">
        <ele>109.6</ele>
        <time>2022-08-30T09:58:26Z</time>
      </trkpt>
      <trkpt lat="43.30858" lon="-1.49617">
        <ele>109.8</ele>
        <time>2022-08-30T09:58:27Z</time>
      </trkpt>
      <trkpt lat="43.30854" lon="-1.49619">
        <ele>110.5</ele>
        <time>2022-08-30T09:58:28Z</time>
      </trkpt>
      <trkpt lat="43.30849" lon="-1.49621">
        <ele>110.6</ele>
        <time>2022-08-30T09:58:29Z</time>
      </trkpt>
      <trkpt lat="43.30845" lon="-1.49622">
        <ele>110.8</ele>
        <time>2022-08-30T09:58:30Z</time>
      </trkpt>
      <trkpt lat="43.30842" lon="-1.49624">
        <ele>110.9</ele>
        <time>2022-08-30T09:58:31Z</time>
      </trkpt>
      <trkpt lat="43.30838" lon="-1.49625">
        <ele>111.1</ele>
        <time>2022-08-30T09:58:32Z</time>
      </trkpt>
      <trkpt lat="43.30834" lon="-1.49626">
        <ele>111.2</ele>
        <time>2022-08-30T09:58:33Z</time>
      </trkpt>
      <trkpt lat="43.30831" lon="-1.49627">
        <ele>111.3</ele>
        <time>2022-08-30T09:58:34Z</time>
      </trkpt>
      <trkpt lat="43.30827" lon="-1.49628">
        <ele>111.4</ele>
        <time>2022-08-30T09:58:35Z</time>
      </trkpt>
      <trkpt lat="43.30823" lon="-1.49629">
        <ele>111.5</ele>
        <time>2022-08-30T09:58:36Z</time>
      </trkpt>
      <trkpt lat="43.3082" lon="-1.49631">
        <ele>111.6</ele>
        <time>2022-08-30T09:58:37Z</time>
      </trkpt>
      <trkpt lat="43.30817" lon="-1.49632">
        <ele>111.7</ele>
        <time>2022-08-30T09:58:38Z</time>
      </trkpt>
      <trkpt lat="43.30813" lon="-1.49633">
        <ele>111.8</ele>
        <time>2022-08-30T09:58:39Z</time>
      </trkpt>
      <trkpt lat="43.30806" lon="-1.49636">
        <ele>111.9</ele>
        <time>2022-08-30T09:58:41Z</time>
      </trkpt>
      <trkpt lat="43.30802" lon="-1.49638">
        <ele>112</ele>
        <time>2022-08-30T09:58:42Z</time>
      </trkpt>
      <trkpt lat="43.30799" lon="-1.4964">
        <ele>112.1</ele>
        <time>2022-08-30T09:58:43Z</time>
      </trkpt>
      <trkpt lat="43.30796" lon="-1.49642">
        <ele>112.2</ele>
        <time>2022-08-30T09:58:44Z</time>
      </trkpt>
      <trkpt lat="43.30793" lon="-1.49643">
        <ele>112.3</ele>
        <time>2022-08-30T09:58:45Z</time>
      </trkpt>
      <trkpt lat="43.3079" lon="-1.49645">
        <ele>112.4</ele>
        <time>2022-08-30T09:58:46Z</time>
      </trkpt>
      <trkpt lat="43.30787" lon="-1.49647">
        <ele>112.5</ele>
        <time>2022-08-30T09:58:47Z</time>
      </trkpt>
      <trkpt lat="43.30784" lon="-1.49649">
        <ele>112.6</ele>
        <time>2022-08-30T09:58:48Z</time>
      </trkpt>
      <trkpt lat="43.30781" lon="-1.4965">
        <ele>112.7</ele>
        <time>2022-08-30T09:58:49Z</time>
      </trkpt>
      <trkpt lat="43.30777" lon="-1.49652">
        <ele>112.7</ele>
        <time>2022-08-30T09:58:50Z</time>
      </trkpt>
      <trkpt lat="43.3077" lon="-1.49655">
        <ele>112.9</ele>
        <time>2022-08-30T09:58:52Z</time>
      </trkpt>
      <trkpt lat="43.30767" lon="-1.49656">
        <ele>113</ele>
        <time>2022-08-30T09:58:53Z</time>
      </trkpt>
      <trkpt lat="43.30763" lon="-1.49658">
        <ele>113.1</ele>
        <time>2022-08-30T09:58:54Z</time>
      </trkpt>
      <trkpt lat="43.3076" lon="-1.4966">
        <ele>113.1</ele>
        <time>2022-08-30T09:58:55Z</time>
      </trkpt>
      <trkpt lat="43.30756" lon="-1.49662">
        <ele>113.2</ele>
        <time>2022-08-30T09:58:56Z</time>
      </trkpt>
      <trkpt lat="43.30753" lon="-1.49663">
        <ele>113.3</ele>
        <time>2022-08-30T09:58:57Z</time>
      </trkpt>
      <trkpt lat="43.3075" lon="-1.49665">
        <ele>113.4</ele>
        <time>2022-08-30T09:58:58Z</time>
      </trkpt>
      <trkpt lat="43.30747" lon="-1.49667">
        <ele>113.4</ele>
        <time>2022-08-30T09:58:59Z</time>
      </trkpt>
      <trkpt lat="43.30744" lon="-1.49668">
        <ele>113.5</ele>
        <time>2022-08-30T09:59:00Z</time>
      </trkpt>
      <trkpt lat="43.30741" lon="-1.4967">
        <ele>113.6</ele>
        <time>2022-08-30T09:59:01Z</time>
      </trkpt>
      <trkpt lat="43.30735" lon="-1.49673">
        <ele>113.8</ele>
        <time>2022-08-30T09:59:03Z</time>
      </trkpt>
      <trkpt lat="43.30732" lon="-1.49674">
        <ele>113.8</ele>
        <time>2022-08-30T09:59:04Z</time>
      </trkpt>
      <trkpt lat="43.30728" lon="-1.49676">
        <ele>113.9</ele>
        <time>2022-08-30T09:59:05Z</time>
      </trkpt>
      <trkpt lat="43.30725" lon="-1.49678">
        <ele>114</ele>
        <time>2022-08-30T09:59:06Z</time>
      </trkpt>
      <trkpt lat="43.30721" lon="-1.4968">
        <ele>114.1</ele>
        <time>2022-08-30T09:59:07Z</time>
      </trkpt>
      <trkpt lat="43.30718" lon="-1.49682">
        <ele>114.3</ele>
        <time>2022-08-30T09:59:08Z</time>
      </trkpt>
      <trkpt lat="43.30714" lon="-1.49683">
        <ele>114.4</ele>
        <time>2022-08-30T09:59:09Z</time>
      </trkpt>
      <trkpt lat="43.30711" lon="-1.49685">
        <ele>114.4</ele>
        <time>2022-08-30T09:59:10Z</time>
      </trkpt>
      <trkpt lat="43.30709" lon="-1.49686">
        <ele>114.5</ele>
        <time>2022-08-30T09:59:11Z</time>
      </trkpt>
      <trkpt lat="43.30706" lon="-1.49687">
        <ele>114.6</ele>
        <time>2022-08-30T09:59:12Z</time>
      </trkpt>
      <trkpt lat="43.30701" lon="-1.49688">
        <ele>114.8</ele>
        <time>2022-08-30T09:59:14Z</time>
      </trkpt>
      <trkpt lat="43.30697" lon="-1.49688">
        <ele>114.9</ele>
        <time>2022-08-30T09:59:15Z</time>
      </trkpt>
      <trkpt lat="43.30693" lon="-1.49686">
        <ele>115.1</ele>
        <time>2022-08-30T09:59:16Z</time>
      </trkpt>
      <trkpt lat="43.30691" lon="-1.49684">
        <ele>115.5</ele>
        <time>2022-08-30T09:59:17Z</time>
      </trkpt>
      <trkpt lat="43.3069" lon="-1.4968">
        <ele>115.7</ele>
        <time>2022-08-30T09:59:18Z</time>
      </trkpt>
      <trkpt lat="43.3069" lon="-1.49676">
        <ele>115.9</ele>
        <time>2022-08-30T09:59:19Z</time>
      </trkpt>
      <trkpt lat="43.30691" lon="-1.49672">
        <ele>116.1</ele>
        <time>2022-08-30T09:59:20Z</time>
      </trkpt>
      <trkpt lat="43.3069" lon="-1.49668">
        <ele>116.4</ele>
        <time>2022-08-30T09:59:21Z</time>
      </trkpt>
      <trkpt lat="43.3069" lon="-1.49664">
        <ele>116.7</ele>
        <time>2022-08-30T09:59:22Z</time>
      </trkpt>
      <trkpt lat="43.3069" lon="-1.4966">
        <ele>117</ele>
        <time>2022-08-30T09:59:23Z</time>
      </trkpt>
      <trkpt lat="43.3069" lon="-1.49656">
        <ele>117.3</ele>
        <time>2022-08-30T09:59:24Z</time>
      </trkpt>
      <trkpt lat="43.3069" lon="-1.49652">
        <ele>117.7</ele>
        <time>2022-08-30T09:59:25Z</time>
      </trkpt>
      <trkpt lat="43.3069" lon="-1.49648">
        <ele>118</ele>
        <time>2022-08-30T09:59:26Z</time>
      </trkpt>
      <trkpt lat="43.3069" lon="-1.49644">
        <ele>118.4</ele>
        <time>2022-08-30T09:59:27Z</time>
      </trkpt>
      <trkpt lat="43.30691" lon="-1.4964">
        <ele>118.8</ele>
        <time>2022-08-30T09:59:28Z</time>
      </trkpt>
      <trkpt lat="43.30691" lon="-1.49635">
        <ele>119.1</ele>
        <time>2022-08-30T09:59:29Z</time>
      </trkpt>
      <trkpt lat="43.30691" lon="-1.49631">
        <ele>119.5</ele>
        <time>2022-08-30T09:59:30Z</time>
      </trkpt>
      <trkpt lat="43.30691" lon="-1.49627">
        <ele>119.9</ele>
        <time>2022-08-30T09:59:31Z</time>
      </trkpt>
      <trkpt lat="43.30691" lon="-1.49623">
        <ele>120.3</ele>
        <time>2022-08-30T09:59:32Z</time>
      </trkpt>
      <trkpt lat="43.30691" lon="-1.49619">
        <ele>120.7</ele>
        <time>2022-08-30T09:59:33Z</time>
      </trkpt>
      <trkpt lat="43.3069" lon="-1.49615">
        <ele>121.1</ele>
        <time>2022-08-30T09:59:34Z</time>
      </trkpt>
      <trkpt lat="43.3069" lon="-1.49611">
        <ele>121.5</ele>
        <time>2022-08-30T09:59:35Z</time>
      </trkpt>
      <trkpt lat="43.3069" lon="-1.49605">
        <ele>122.1</ele>
        <time>2022-08-30T09:59:36Z</time>
      </trkpt>
      <trkpt lat="43.30689" lon="-1.49604">
        <ele>122.3</ele>
        <time>2022-08-30T09:59:37Z</time>
      </trkpt>
      <trkpt lat="43.30689" lon="-1.496">
        <ele>122.7</ele>
        <time>2022-08-30T09:59:38Z</time>
      </trkpt>
      <trkpt lat="43.30689" lon="-1.49595">
        <ele>123.1</ele>
        <time>2022-08-30T09:59:39Z</time>
      </trkpt>
      <trkpt lat="43.30688" lon="-1.49591">
        <ele>123.5</ele>
        <time>2022-08-30T09:59:40Z</time>
      </trkpt>
      <trkpt lat="43.30688" lon="-1.49587">
        <ele>123.9</ele>
        <time>2022-08-30T09:59:41Z</time>
      </trkpt>
      <trkpt lat="43.30687" lon="-1.49583">
        <ele>124.3</ele>
        <time>2022-08-30T09:59:42Z</time>
      </trkpt>
      <trkpt lat="43.30687" lon="-1.49578">
        <ele>124.8</ele>
        <time>2022-08-30T09:59:43Z</time>
      </trkpt>
      <trkpt lat="43.30687" lon="-1.49574">
        <ele>125.2</ele>
        <time>2022-08-30T09:59:44Z</time>
      </trkpt>
      <trkpt lat="43.30687" lon="-1.4957">
        <ele>125.6</ele>
        <time>2022-08-30T09:59:45Z</time>
      </trkpt>
      <trkpt lat="43.30687" lon="-1.49566">
        <ele>126</ele>
        <time>2022-08-30T09:59:46Z</time>
      </trkpt>
      <trkpt lat="43.30686" lon="-1.49562">
        <ele>126.4</ele>
        <time>2022-08-30T09:59:47Z</time>
      </trkpt>
      <trkpt lat="43.30686" lon="-1.49557">
        <ele>126.8</ele>
        <time>2022-08-30T09:59:48Z</time>
      </trkpt>
      <trkpt lat="43.30686" lon="-1.49553">
        <ele>127.2</ele>
        <time>2022-08-30T09:59:49Z</time>
      </trkpt>
      <trkpt lat="43.30685" lon="-1.49549">
        <ele>127.6</ele>
        <time>2022-08-30T09:59:50Z</time>
      </trkpt>
      <trkpt lat="43.30685" lon="-1.49545">
        <ele>128</ele>
        <time>2022-08-30T09:59:51Z</time>
      </trkpt>
      <trkpt lat="43.30684" lon="-1.49542">
        <ele>128.4</ele>
        <time>2022-08-30T09:59:53Z</time>
      </trkpt>
      <trkpt lat="43.30683" lon="-1.49538">
        <ele>128.8</ele>
        <time>2022-08-30T09:59:54Z</time>
      </trkpt>
      <trkpt lat="43.30682" lon="-1.4953">
        <ele>129.6</ele>
        <time>2022-08-30T09:59:55Z</time>
      </trkpt>
      <trkpt lat="43.30681" lon="-1.49522">
        <ele>130.5</ele>
        <time>2022-08-30T09:59:57Z</time>
      </trkpt>
      <trkpt lat="43.3068" lon="-1.49518">
        <ele>130.9</ele>
        <time>2022-08-30T09:59:58Z</time>
      </trkpt>
      <trkpt lat="43.30679" lon="-1.49513">
        <ele>131.5</ele>
        <time>2022-08-30T09:59:59Z</time>
      </trkpt>
      <trkpt lat="43.30679" lon="-1.49511">
        <ele>131.7</ele>
        <time>2022-08-30T10:00:00Z</time>
      </trkpt>
      <trkpt lat="43.30678" lon="-1.49507">
        <ele>132.1</ele>
        <time>2022-08-30T10:00:01Z</time>
      </trkpt>
      <trkpt lat="43.30677" lon="-1.49499">
        <ele>132.9</ele>
        <time>2022-08-30T10:00:03Z</time>
      </trkpt>
      <trkpt lat="43.30676" lon="-1.49495">
        <ele>133.3</ele>
        <time>2022-08-30T10:00:04Z</time>
      </trkpt>
      <trkpt lat="43.30675" lon="-1.49492">
        <ele>133.6</ele>
        <time>2022-08-30T10:00:05Z</time>
      </trkpt>
      <trkpt lat="43.30673" lon="-1.49487">
        <ele>134.1</ele>
        <time>2022-08-30T10:00:06Z</time>
      </trkpt>
      <trkpt lat="43.30672" lon="-1.49485">
        <ele>134.2</ele>
        <time>2022-08-30T10:00:07Z</time>
      </trkpt>
      <trkpt lat="43.30671" lon="-1.4948">
        <ele>134.6</ele>
        <time>2022-08-30T10:00:08Z</time>
      </trkpt>
      <trkpt lat="43.30671" lon="-1.49479">
        <ele>134.7</ele>
        <time>2022-08-30T10:00:09Z</time>
      </trkpt>
      <trkpt lat="43.3067" lon="-1.49475">
        <ele>135</ele>
        <time>2022-08-30T10:00:10Z</time>
      </trkpt>
      <trkpt lat="43.30669" lon="-1.49471">
        <ele>135.3</ele>
        <time>2022-08-30T10:00:11Z</time>
      </trkpt>
      <trkpt lat="43.30669" lon="-1.49467">
        <ele>135.5</ele>
        <time>2022-08-30T10:00:12Z</time>
      </trkpt>
      <trkpt lat="43.30668" lon="-1.4946">
        <ele>136</ele>
        <time>2022-08-30T10:00:14Z</time>
      </trkpt>
      <trkpt lat="43.30667" lon="-1.49457">
        <ele>136.3</ele>
        <time>2022-08-30T10:00:15Z</time>
      </trkpt>
      <trkpt lat="43.30666" lon="-1.49452">
        <ele>136.6</ele>
        <time>2022-08-30T10:00:16Z</time>
      </trkpt>
      <trkpt lat="43.30666" lon="-1.4945">
        <ele>136.7</ele>
        <time>2022-08-30T10:00:17Z</time>
      </trkpt>
      <trkpt lat="43.30666" lon="-1.49446">
        <ele>137</ele>
        <time>2022-08-30T10:00:18Z</time>
      </trkpt>
      <trkpt lat="43.30665" lon="-1.49442">
        <ele>137.2</ele>
        <time>2022-08-30T10:00:19Z</time>
      </trkpt>
      <trkpt lat="43.30664" lon="-1.49437">
        <ele>137.6</ele>
        <time>2022-08-30T10:00:20Z</time>
      </trkpt>
      <trkpt lat="43.30663" lon="-1.49436">
        <ele>137.7</ele>
        <time>2022-08-30T10:00:21Z</time>
      </trkpt>
      <trkpt lat="43.30662" lon="-1.49433">
        <ele>138</ele>
        <time>2022-08-30T10:00:22Z</time>
      </trkpt>
      <trkpt lat="43.30661" lon="-1.49429">
        <ele>138.2</ele>
        <time>2022-08-30T10:00:23Z</time>
      </trkpt>
      <trkpt lat="43.30659" lon="-1.49423">
        <ele>138.7</ele>
        <time>2022-08-30T10:00:25Z</time>
      </trkpt>
      <trkpt lat="43.30658" lon="-1.4942">
        <ele>139</ele>
        <time>2022-08-30T10:00:26Z</time>
      </trkpt>
      <trkpt lat="43.30657" lon="-1.49416">
        <ele>139.3</ele>
        <time>2022-08-30T10:00:27Z</time>
      </trkpt>
      <trkpt lat="43.30657" lon="-1.49415">
        <ele>139.4</ele>
        <time>2022-08-30T10:00:28Z</time>
      </trkpt>
      <trkpt lat="43.30656" lon="-1.49411">
        <ele>139.8</ele>
        <time>2022-08-30T10:00:29Z</time>
      </trkpt>
      <trkpt lat="43.30655" lon="-1.4941">
        <ele>139.9</ele>
        <time>2022-08-30T10:00:30Z</time>
      </trkpt>
      <trkpt lat="43.30654" lon="-1.49406">
        <ele>140.2</ele>
        <time>2022-08-30T10:00:31Z</time>
      </trkpt>
      <trkpt lat="43.30654" lon="-1.49405">
        <ele>140.3</ele>
        <time>2022-08-30T10:00:32Z</time>
      </trkpt>
      <trkpt lat="43.30652" lon="-1.49401">
        <ele>140.7</ele>
        <time>2022-08-30T10:00:33Z</time>
      </trkpt>
      <trkpt lat="43.30652" lon="-1.49399">
        <ele>140.9</ele>
        <time>2022-08-30T10:00:34Z</time>
      </trkpt>
      <trkpt lat="43.3065" lon="-1.49393">
        <ele>141.4</ele>
        <time>2022-08-30T10:00:36Z</time>
      </trkpt>
      <trkpt lat="43.30648" lon="-1.49388">
        <ele>141.9</ele>
        <time>2022-08-30T10:00:37Z</time>
      </trkpt>
      <trkpt lat="43.30648" lon="-1.49387">
        <ele>142</ele>
        <time>2022-08-30T10:00:38Z</time>
      </trkpt>
      <trkpt lat="43.30647" lon="-1.49382">
        <ele>142.4</ele>
        <time>2022-08-30T10:00:39Z</time>
      </trkpt>
      <trkpt lat="43.30646" lon="-1.49377">
        <ele>142.9</ele>
        <time>2022-08-30T10:00:40Z</time>
      </trkpt>
      <trkpt lat="43.30645" lon="-1.49375">
        <ele>143.1</ele>
        <time>2022-08-30T10:00:41Z</time>
      </trkpt>
      <trkpt lat="43.30644" lon="-1.49372">
        <ele>143.4</ele>
        <time>2022-08-30T10:00:42Z</time>
      </trkpt>
      <trkpt lat="43.30643" lon="-1.49367">
        <ele>143.8</ele>
        <time>2022-08-30T10:00:43Z</time>
      </trkpt>
      <trkpt lat="43.30642" lon="-1.49362">
        <ele>144.3</ele>
        <time>2022-08-30T10:00:44Z</time>
      </trkpt>
      <trkpt lat="43.3064" lon="-1.49358">
        <ele>144.8</ele>
        <time>2022-08-30T10:00:45Z</time>
      </trkpt>
      <trkpt lat="43.30637" lon="-1.49349">
        <ele>145.7</ele>
        <time>2022-08-30T10:00:47Z</time>
      </trkpt>
      <trkpt lat="43.30635" lon="-1.49345">
        <ele>146.2</ele>
        <time>2022-08-30T10:00:48Z</time>
      </trkpt>
      <trkpt lat="43.30634" lon="-1.49342">
        <ele>146.6</ele>
        <time>2022-08-30T10:00:49Z</time>
      </trkpt>
      <trkpt lat="43.30634" lon="-1.49337">
        <ele>147.1</ele>
        <time>2022-08-30T10:00:50Z</time>
      </trkpt>
      <trkpt lat="43.30633" lon="-1.49333">
        <ele>147.6</ele>
        <time>2022-08-30T10:00:51Z</time>
      </trkpt>
      <trkpt lat="43.30632" lon="-1.49329">
        <ele>148.1</ele>
        <time>2022-08-30T10:00:52Z</time>
      </trkpt>
      <trkpt lat="43.30631" lon="-1.49325">
        <ele>148.6</ele>
        <time>2022-08-30T10:00:53Z</time>
      </trkpt>
      <trkpt lat="43.30629" lon="-1.49321">
        <ele>149</ele>
        <time>2022-08-30T10:00:54Z</time>
      </trkpt>
      <trkpt lat="43.30628" lon="-1.49317">
        <ele>149.5</ele>
        <time>2022-08-30T10:00:55Z</time>
      </trkpt>
      <trkpt lat="43.30627" lon="-1.49313">
        <ele>149.9</ele>
        <time>2022-08-30T10:00:56Z</time>
      </trkpt>
      <trkpt lat="43.30625" lon="-1.49305">
        <ele>150.7</ele>
        <time>2022-08-30T10:00:58Z</time>
      </trkpt>
      <trkpt lat="43.30624" lon="-1.49301">
        <ele>151.1</ele>
        <time>2022-08-30T10:00:59Z</time>
      </trkpt>
      <trkpt lat="43.30623" lon="-1.49296">
        <ele>151.6</ele>
        <time>2022-08-30T10:01:00Z</time>
      </trkpt>
      <trkpt lat="43.30623" lon="-1.49291">
        <ele>152</ele>
        <time>2022-08-30T10:01:01Z</time>
      </trkpt>
      <trkpt lat="43.30622" lon="-1.49286">
        <ele>152.4</ele>
        <time>2022-08-30T10:01:02Z</time>
      </trkpt>
      <trkpt lat="43.30622" lon="-1.49282">
        <ele>152.8</ele>
        <time>2022-08-30T10:01:03Z</time>
      </trkpt>
      <trkpt lat="43.30622" lon="-1.49279">
        <ele>153.1</ele>
        <time>2022-08-30T10:01:04Z</time>
      </trkpt>
      <trkpt lat="43.30621" lon="-1.49275">
        <ele>153.5</ele>
        <time>2022-08-30T10:01:05Z</time>
      </trkpt>
      <trkpt lat="43.3062" lon="-1.49271">
        <ele>153.8</ele>
        <time>2022-08-30T10:01:06Z</time>
      </trkpt>
      <trkpt lat="43.30619" lon="-1.49267">
        <ele>154.2</ele>
        <time>2022-08-30T10:01:07Z</time>
      </trkpt>
      <trkpt lat="43.30618" lon="-1.49263">
        <ele>154.5</ele>
        <time>2022-08-30T10:01:08Z</time>
      </trkpt>
      <trkpt lat="43.30618" lon="-1.4926">
        <ele>154.8</ele>
        <time>2022-08-30T10:01:09Z</time>
      </trkpt>
      <trkpt lat="43.30618" lon="-1.49256">
        <ele>155.1</ele>
        <time>2022-08-30T10:01:10Z</time>
      </trkpt>
      <trkpt lat="43.30618" lon="-1.4925">
        <ele>155.5</ele>
        <time>2022-08-30T10:01:11Z</time>
      </trkpt>
      <trkpt lat="43.30618" lon="-1.49249">
        <ele>155.7</ele>
        <time>2022-08-30T10:01:12Z</time>
      </trkpt>
      <trkpt lat="43.30617" lon="-1.49244">
        <ele>156.1</ele>
        <time>2022-08-30T10:01:13Z</time>
      </trkpt>
      <trkpt lat="43.30617" lon="-1.49242">
        <ele>156.2</ele>
        <time>2022-08-30T10:01:14Z</time>
      </trkpt>
      <trkpt lat="43.30617" lon="-1.49237">
        <ele>156.6</ele>
        <time>2022-08-30T10:01:15Z</time>
      </trkpt>
      <trkpt lat="43.30617" lon="-1.49235">
        <ele>156.8</ele>
        <time>2022-08-30T10:01:16Z</time>
      </trkpt>
      <trkpt lat="43.30615" lon="-1.4923">
        <ele>157.2</ele>
        <time>2022-08-30T10:01:17Z</time>
      </trkpt>
      <trkpt lat="43.30614" lon="-1.49229">
        <ele>157.3</ele>
        <time>2022-08-30T10:01:18Z</time>
      </trkpt>
      <trkpt lat="43.30612" lon="-1.49227">
        <ele>157.7</ele>
        <time>2022-08-30T10:01:19Z</time>
      </trkpt>
      <trkpt lat="43.30609" lon="-1.49225">
        <ele>158.2</ele>
        <time>2022-08-30T10:01:20Z</time>
      </trkpt>
      <trkpt lat="43.30606" lon="-1.49224">
        <ele>158.3</ele>
        <time>2022-08-30T10:01:21Z</time>
      </trkpt>
      <trkpt lat="43.30604" lon="-1.49224">
        <ele>158.4</ele>
        <time>2022-08-30T10:01:22Z</time>
      </trkpt>
      <trkpt lat="43.306" lon="-1.49224">
        <ele>158.5</ele>
        <time>2022-08-30T10:01:23Z</time>
      </trkpt>
      <trkpt lat="43.30597" lon="-1.49224">
        <ele>158.6</ele>
        <time>2022-08-30T10:01:24Z</time>
      </trkpt>
      <trkpt lat="43.30594" lon="-1.49224">
        <ele>158.6</ele>
        <time>2022-08-30T10:01:25Z</time>
      </trkpt>
      <trkpt lat="43.30591" lon="-1.49224">
        <ele>158.7</ele>
        <time>2022-08-30T10:01:26Z</time>
      </trkpt>
      <trkpt lat="43.30587" lon="-1.49225">
        <ele>158.9</ele>
        <time>2022-08-30T10:01:27Z</time>
      </trkpt>
      <trkpt lat="43.30584" lon="-1.49225">
        <ele>159.2</ele>
        <time>2022-08-30T10:01:28Z</time>
      </trkpt>
      <trkpt lat="43.30581" lon="-1.49225">
        <ele>159.4</ele>
        <time>2022-08-30T10:01:29Z</time>
      </trkpt>
      <trkpt lat="43.30578" lon="-1.49225">
        <ele>159.7</ele>
        <time>2022-08-30T10:01:30Z</time>
      </trkpt>
      <trkpt lat="43.30575" lon="-1.49226">
        <ele>159.9</ele>
        <time>2022-08-30T10:01:31Z</time>
      </trkpt>
      <trkpt lat="43.30572" lon="-1.49227">
        <ele>160.2</ele>
        <time>2022-08-30T10:01:32Z</time>
      </trkpt>
      <trkpt lat="43.30569" lon="-1.49229">
        <ele>160.5</ele>
        <time>2022-08-30T10:01:33Z</time>
      </trkpt>
      <trkpt lat="43.30566" lon="-1.4923">
        <ele>160.7</ele>
        <time>2022-08-30T10:01:34Z</time>
      </trkpt>
      <trkpt lat="43.30563" lon="-1.49231">
        <ele>161</ele>
        <time>2022-08-30T10:01:35Z</time>
      </trkpt>
      <trkpt lat="43.3056" lon="-1.49233">
        <ele>161.2</ele>
        <time>2022-08-30T10:01:36Z</time>
      </trkpt>
      <trkpt lat="43.30554" lon="-1.49235">
        <ele>161.6</ele>
        <time>2022-08-30T10:01:38Z</time>
      </trkpt>
      <trkpt lat="43.3055" lon="-1.49237">
        <ele>162</ele>
        <time>2022-08-30T10:01:40Z</time>
      </trkpt>
      <trkpt lat="43.30547" lon="-1.49238">
        <ele>162.2</ele>
        <time>2022-08-30T10:01:41Z</time>
      </trkpt>
      <trkpt lat="43.30544" lon="-1.49239">
        <ele>162.3</ele>
        <time>2022-08-30T10:01:42Z</time>
      </trkpt>
      <trkpt lat="43.30539" lon="-1.49242">
        <ele>162.7</ele>
        <time>2022-08-30T10:01:44Z</time>
      </trkpt>
      <trkpt lat="43.30536" lon="-1.49243">
        <ele>162.9</ele>
        <time>2022-08-30T10:01:45Z</time>
      </trkpt>
      <trkpt lat="43.30533" lon="-1.49243">
        <ele>163.1</ele>
        <time>2022-08-30T10:01:46Z</time>
      </trkpt>
      <trkpt lat="43.3053" lon="-1.49243">
        <ele>163.4</ele>
        <time>2022-08-30T10:01:47Z</time>
      </trkpt>
      <trkpt lat="43.30524" lon="-1.4924">
        <ele>163.9</ele>
        <time>2022-08-30T10:01:49Z</time>
      </trkpt>
      <trkpt lat="43.30522" lon="-1.49238">
        <ele>164.4</ele>
        <time>2022-08-30T10:01:50Z</time>
      </trkpt>
      <trkpt lat="43.30519" lon="-1.49236">
        <ele>164.9</ele>
        <time>2022-08-30T10:01:51Z</time>
      </trkpt>
      <trkpt lat="43.30513" lon="-1.49234">
        <ele>165.7</ele>
        <time>2022-08-30T10:01:53Z</time>
      </trkpt>
      <trkpt lat="43.3051" lon="-1.49233">
        <ele>166.2</ele>
        <time>2022-08-30T10:01:54Z</time>
      </trkpt>
      <trkpt lat="43.30507" lon="-1.49232">
        <ele>166.7</ele>
        <time>2022-08-30T10:01:55Z</time>
      </trkpt>
      <trkpt lat="43.30505" lon="-1.4923">
        <ele>167.2</ele>
        <time>2022-08-30T10:01:56Z</time>
      </trkpt>
      <trkpt lat="43.30502" lon="-1.49227">
        <ele>167.9</ele>
        <time>2022-08-30T10:01:57Z</time>
      </trkpt>
      <trkpt lat="43.30501" lon="-1.49226">
        <ele>168.1</ele>
        <time>2022-08-30T10:01:58Z</time>
      </trkpt>
      <trkpt lat="43.30499" lon="-1.49224">
        <ele>168.6</ele>
        <time>2022-08-30T10:01:59Z</time>
      </trkpt>
      <trkpt lat="43.30496" lon="-1.49222">
        <ele>169.2</ele>
        <time>2022-08-30T10:02:00Z</time>
      </trkpt>
      <trkpt lat="43.30493" lon="-1.4922">
        <ele>169.8</ele>
        <time>2022-08-30T10:02:01Z</time>
      </trkpt>
      <trkpt lat="43.30491" lon="-1.49218">
        <ele>170.3</ele>
        <time>2022-08-30T10:02:02Z</time>
      </trkpt>
      <trkpt lat="43.30487" lon="-1.49213">
        <ele>171.3</ele>
        <time>2022-08-30T10:02:04Z</time>
      </trkpt>
      <trkpt lat="43.30484" lon="-1.4921">
        <ele>172.1</ele>
        <time>2022-08-30T10:02:05Z</time>
      </trkpt>
      <trkpt lat="43.30483" lon="-1.49209">
        <ele>172.3</ele>
        <time>2022-08-30T10:02:06Z</time>
      </trkpt>
      <trkpt lat="43.30479" lon="-1.49206">
        <ele>173</ele>
        <time>2022-08-30T10:02:07Z</time>
      </trkpt>
      <trkpt lat="43.30478" lon="-1.49206">
        <ele>173.3</ele>
        <time>2022-08-30T10:02:08Z</time>
      </trkpt>
      <trkpt lat="43.30475" lon="-1.49204">
        <ele>173.9</ele>
        <time>2022-08-30T10:02:09Z</time>
      </trkpt>
      <trkpt lat="43.30474" lon="-1.49203">
        <ele>174.1</ele>
        <time>2022-08-30T10:02:10Z</time>
      </trkpt>
      <trkpt lat="43.30471" lon="-1.49202">
        <ele>174.7</ele>
        <time>2022-08-30T10:02:11Z</time>
      </trkpt>
      <trkpt lat="43.3047" lon="-1.49202">
        <ele>174.9</ele>
        <time>2022-08-30T10:02:12Z</time>
      </trkpt>
      <trkpt lat="43.30468" lon="-1.49201">
        <ele>175.3</ele>
        <time>2022-08-30T10:02:13Z</time>
      </trkpt>
      <trkpt lat="43.30464" lon="-1.492">
        <ele>176.1</ele>
        <time>2022-08-30T10:02:15Z</time>
      </trkpt>
      <trkpt lat="43.30461" lon="-1.492">
        <ele>176.4</ele>
        <time>2022-08-30T10:02:16Z</time>
      </trkpt>
      <trkpt lat="43.30458" lon="-1.49199">
        <ele>176.9</ele>
        <time>2022-08-30T10:02:17Z</time>
      </trkpt>
      <trkpt lat="43.30457" lon="-1.49199">
        <ele>177.1</ele>
        <time>2022-08-30T10:02:18Z</time>
      </trkpt>
      <trkpt lat="43.30453" lon="-1.492">
        <ele>177.6</ele>
        <time>2022-08-30T10:02:19Z</time>
      </trkpt>
      <trkpt lat="43.30452" lon="-1.492">
        <ele>177.7</ele>
        <time>2022-08-30T10:02:20Z</time>
      </trkpt>
      <trkpt lat="43.30449" lon="-1.49201">
        <ele>178.2</ele>
        <time>2022-08-30T10:02:21Z</time>
      </trkpt>
      <trkpt lat="43.30448" lon="-1.49201">
        <ele>178.3</ele>
        <time>2022-08-30T10:02:22Z</time>
      </trkpt>
      <trkpt lat="43.30444" lon="-1.49201">
        <ele>178.8</ele>
        <time>2022-08-30T10:02:23Z</time>
      </trkpt>
      <trkpt lat="43.30443" lon="-1.492">
        <ele>179</ele>
        <time>2022-08-30T10:02:24Z</time>
      </trkpt>
      <trkpt lat="43.30438" lon="-1.492">
        <ele>179.6</ele>
        <time>2022-08-30T10:02:26Z</time>
      </trkpt>
      <trkpt lat="43.30435" lon="-1.492">
        <ele>179.9</ele>
        <time>2022-08-30T10:02:27Z</time>
      </trkpt>
      <trkpt lat="43.30431" lon="-1.49199">
        <ele>180.4</ele>
        <time>2022-08-30T10:02:28Z</time>
      </trkpt>
      <trkpt lat="43.3043" lon="-1.49199">
        <ele>180.5</ele>
        <time>2022-08-30T10:02:29Z</time>
      </trkpt>
      <trkpt lat="43.30427" lon="-1.49198">
        <ele>180.9</ele>
        <time>2022-08-30T10:02:30Z</time>
      </trkpt>
      <trkpt lat="43.30426" lon="-1.49198">
        <ele>181.1</ele>
        <time>2022-08-30T10:02:31Z</time>
      </trkpt>
      <trkpt lat="43.30423" lon="-1.49199">
        <ele>181.4</ele>
        <time>2022-08-30T10:02:32Z</time>
      </trkpt>
      <trkpt lat="43.3042" lon="-1.49198">
        <ele>181.8</ele>
        <time>2022-08-30T10:02:33Z</time>
      </trkpt>
      <trkpt lat="43.30417" lon="-1.49198">
        <ele>182.3</ele>
        <time>2022-08-30T10:02:34Z</time>
      </trkpt>
      <trkpt lat="43.30416" lon="-1.49198">
        <ele>182.5</ele>
        <time>2022-08-30T10:02:35Z</time>
      </trkpt>
      <trkpt lat="43.30412" lon="-1.49197">
        <ele>183.1</ele>
        <time>2022-08-30T10:02:37Z</time>
      </trkpt>
      <trkpt lat="43.30409" lon="-1.49198">
        <ele>183.6</ele>
        <time>2022-08-30T10:02:38Z</time>
      </trkpt>
      <trkpt lat="43.30408" lon="-1.49198">
        <ele>183.8</ele>
        <time>2022-08-30T10:02:39Z</time>
      </trkpt>
      <trkpt lat="43.30405" lon="-1.49197">
        <ele>184.3</ele>
        <time>2022-08-30T10:02:40Z</time>
      </trkpt>
      <trkpt lat="43.30404" lon="-1.49197">
        <ele>184.5</ele>
        <time>2022-08-30T10:02:41Z</time>
      </trkpt>
      <trkpt lat="43.30402" lon="-1.49194">
        <ele>185.1</ele>
        <time>2022-08-30T10:02:42Z</time>
      </trkpt>
      <trkpt lat="43.30401" lon="-1.49193">
        <ele>185.3</ele>
        <time>2022-08-30T10:02:43Z</time>
      </trkpt>
      <trkpt lat="43.30401" lon="-1.49189">
        <ele>185.9</ele>
        <time>2022-08-30T10:02:44Z</time>
      </trkpt>
      <trkpt lat="43.30402" lon="-1.49185">
        <ele>186.6</ele>
        <time>2022-08-30T10:02:45Z</time>
      </trkpt>
      <trkpt lat="43.30403" lon="-1.49184">
        <ele>186.8</ele>
        <time>2022-08-30T10:02:46Z</time>
      </trkpt>
      <trkpt lat="43.30405" lon="-1.49179">
        <ele>187.6</ele>
        <time>2022-08-30T10:02:48Z</time>
      </trkpt>
      <trkpt lat="43.30408" lon="-1.49176">
        <ele>188.3</ele>
        <time>2022-08-30T10:02:49Z</time>
      </trkpt>
      <trkpt lat="43.30409" lon="-1.49175">
        <ele>188.6</ele>
        <time>2022-08-30T10:02:50Z</time>
      </trkpt>
      <trkpt lat="43.30412" lon="-1.49172">
        <ele>189.3</ele>
        <time>2022-08-30T10:02:51Z</time>
      </trkpt>
      <trkpt lat="43.30412" lon="-1.49171">
        <ele>189.5</ele>
        <time>2022-08-30T10:02:52Z</time>
      </trkpt>
      <trkpt lat="43.30415" lon="-1.49169">
        <ele>190.1</ele>
        <time>2022-08-30T10:02:53Z</time>
      </trkpt>
      <trkpt lat="43.30416" lon="-1.49168">
        <ele>190.3</ele>
        <time>2022-08-30T10:02:54Z</time>
      </trkpt>
      <trkpt lat="43.30418" lon="-1.49167">
        <ele>190.8</ele>
        <time>2022-08-30T10:02:55Z</time>
      </trkpt>
      <trkpt lat="43.30422" lon="-1.49164">
        <ele>191.4</ele>
        <time>2022-08-30T10:02:56Z</time>
      </trkpt>
      <trkpt lat="43.30423" lon="-1.49163">
        <ele>191.6</ele>
        <time>2022-08-30T10:02:57Z</time>
      </trkpt>
      <trkpt lat="43.30426" lon="-1.49161">
        <ele>192.2</ele>
        <time>2022-08-30T10:02:59Z</time>
      </trkpt>
      <trkpt lat="43.30427" lon="-1.49159">
        <ele>192.5</ele>
        <time>2022-08-30T10:03:00Z</time>
      </trkpt>
      <trkpt lat="43.30428" lon="-1.49157">
        <ele>192.8</ele>
        <time>2022-08-30T10:03:01Z</time>
      </trkpt>
      <trkpt lat="43.3043" lon="-1.49153">
        <ele>193.3</ele>
        <time>2022-08-30T10:03:02Z</time>
      </trkpt>
      <trkpt lat="43.3043" lon="-1.49152">
        <ele>193.5</ele>
        <time>2022-08-30T10:03:03Z</time>
      </trkpt>
      <trkpt lat="43.30433" lon="-1.49148">
        <ele>194.3</ele>
        <time>2022-08-30T10:03:05Z</time>
      </trkpt>
      <trkpt lat="43.30435" lon="-1.49145">
        <ele>194.8</ele>
        <time>2022-08-30T10:03:06Z</time>
      </trkpt>
      <trkpt lat="43.30436" lon="-1.49144">
        <ele>195</ele>
        <time>2022-08-30T10:03:07Z</time>
      </trkpt>
      <trkpt lat="43.30438" lon="-1.49141">
        <ele>195.5</ele>
        <time>2022-08-30T10:03:08Z</time>
      </trkpt>
      <trkpt lat="43.30439" lon="-1.49141">
        <ele>195.7</ele>
        <time>2022-08-30T10:03:09Z</time>
      </trkpt>
      <trkpt lat="43.30442" lon="-1.49138">
        <ele>196.2</ele>
        <time>2022-08-30T10:03:10Z</time>
      </trkpt>
      <trkpt lat="43.30443" lon="-1.49138">
        <ele>196.4</ele>
        <time>2022-08-30T10:03:11Z</time>
      </trkpt>
      <trkpt lat="43.30444" lon="-1.49134">
        <ele>197</ele>
        <time>2022-08-30T10:03:12Z</time>
      </trkpt>
      <trkpt lat="43.30445" lon="-1.49133">
        <ele>197.1</ele>
        <time>2022-08-30T10:03:13Z</time>
      </trkpt>
      <trkpt lat="43.30446" lon="-1.4913">
        <ele>197.6</ele>
        <time>2022-08-30T10:03:14Z</time>
      </trkpt>
      <trkpt lat="43.30448" lon="-1.49123">
        <ele>198.5</ele>
        <time>2022-08-30T10:03:16Z</time>
      </trkpt>
      <trkpt lat="43.3045" lon="-1.49121">
        <ele>199</ele>
        <time>2022-08-30T10:03:17Z</time>
      </trkpt>
      <trkpt lat="43.30451" lon="-1.49117">
        <ele>199.6</ele>
        <time>2022-08-30T10:03:18Z</time>
      </trkpt>
      <trkpt lat="43.30452" lon="-1.49116">
        <ele>199.7</ele>
        <time>2022-08-30T10:03:19Z</time>
      </trkpt>
      <trkpt lat="43.30453" lon="-1.49112">
        <ele>200.4</ele>
        <time>2022-08-30T10:03:20Z</time>
      </trkpt>
      <trkpt lat="43.30453" lon="-1.4911">
        <ele>200.6</ele>
        <time>2022-08-30T10:03:21Z</time>
      </trkpt>
      <trkpt lat="43.30455" lon="-1.49106">
        <ele>201.3</ele>
        <time>2022-08-30T10:03:22Z</time>
      </trkpt>
      <trkpt lat="43.30456" lon="-1.49105">
        <ele>201.5</ele>
        <time>2022-08-30T10:03:23Z</time>
      </trkpt>
      <trkpt lat="43.30458" lon="-1.49102">
        <ele>202.1</ele>
        <time>2022-08-30T10:03:24Z</time>
      </trkpt>
      <trkpt lat="43.30458" lon="-1.49101">
        <ele>202.2</ele>
        <time>2022-08-30T10:03:25Z</time>
      </trkpt>
      <trkpt lat="43.30458" lon="-1.49095">
        <ele>203.1</ele>
        <time>2022-08-30T10:03:27Z</time>
      </trkpt>
      <trkpt lat="43.30457" lon="-1.49091">
        <ele>203.7</ele>
        <time>2022-08-30T10:03:28Z</time>
      </trkpt>
      <trkpt lat="43.30456" lon="-1.4909">
        <ele>203.9</ele>
        <time>2022-08-30T10:03:29Z</time>
      </trkpt>
      <trkpt lat="43.30453" lon="-1.49087">
        <ele>204.5</ele>
        <time>2022-08-30T10:03:30Z</time>
      </trkpt>
      <trkpt lat="43.30452" lon="-1.49086">
        <ele>204.7</ele>
        <time>2022-08-30T10:03:31Z</time>
      </trkpt>
      <trkpt lat="43.30449" lon="-1.49085">
        <ele>205.3</ele>
        <time>2022-08-30T10:03:32Z</time>
      </trkpt>
      <trkpt lat="43.30448" lon="-1.49085">
        <ele>205.4</ele>
        <time>2022-08-30T10:03:33Z</time>
      </trkpt>
      <trkpt lat="43.30446" lon="-1.49086">
        <ele>206</ele>
        <time>2022-08-30T10:03:34Z</time>
      </trkpt>
      <trkpt lat="43.30445" lon="-1.49086">
        <ele>206.1</ele>
        <time>2022-08-30T10:03:35Z</time>
      </trkpt>
      <trkpt lat="43.30443" lon="-1.49086">
        <ele>206.4</ele>
        <time>2022-08-30T10:03:36Z</time>
      </trkpt>
      <trkpt lat="43.30439" lon="-1.49087">
        <ele>207.1</ele>
        <time>2022-08-30T10:03:38Z</time>
      </trkpt>
      <trkpt lat="43.30437" lon="-1.49088">
        <ele>207.5</ele>
        <time>2022-08-30T10:03:39Z</time>
      </trkpt>
      <trkpt lat="43.30434" lon="-1.49089">
        <ele>208.1</ele>
        <time>2022-08-30T10:03:40Z</time>
      </trkpt>
      <trkpt lat="43.30433" lon="-1.49089">
        <ele>208.2</ele>
        <time>2022-08-30T10:03:41Z</time>
      </trkpt>
      <trkpt lat="43.3043" lon="-1.4909">
        <ele>208.9</ele>
        <time>2022-08-30T10:03:42Z</time>
      </trkpt>
      <trkpt lat="43.30429" lon="-1.49091">
        <ele>209.1</ele>
        <time>2022-08-30T10:03:43Z</time>
      </trkpt>
      <trkpt lat="43.30426" lon="-1.49091">
        <ele>209.7</ele>
        <time>2022-08-30T10:03:44Z</time>
      </trkpt>
      <trkpt lat="43.30425" lon="-1.49091">
        <ele>209.9</ele>
        <time>2022-08-30T10:03:45Z</time>
      </trkpt>
      <trkpt lat="43.30421" lon="-1.49091">
        <ele>210.5</ele>
        <time>2022-08-30T10:03:46Z</time>
      </trkpt>
      <trkpt lat="43.3042" lon="-1.49091">
        <ele>210.7</ele>
        <time>2022-08-30T10:03:47Z</time>
      </trkpt>
      <trkpt lat="43.30417" lon="-1.4909">
        <ele>211.3</ele>
        <time>2022-08-30T10:03:48Z</time>
      </trkpt>
      <trkpt lat="43.30416" lon="-1.4909">
        <ele>211.5</ele>
        <time>2022-08-30T10:03:49Z</time>
      </trkpt>
      <trkpt lat="43.30413" lon="-1.4909">
        <ele>212</ele>
        <time>2022-08-30T10:03:50Z</time>
      </trkpt>
      <trkpt lat="43.30412" lon="-1.49089">
        <ele>212.1</ele>
        <time>2022-08-30T10:03:51Z</time>
      </trkpt>
      <trkpt lat="43.30408" lon="-1.49089">
        <ele>212.7</ele>
        <time>2022-08-30T10:03:52Z</time>
      </trkpt>
      <trkpt lat="43.30407" lon="-1.49089">
        <ele>212.9</ele>
        <time>2022-08-30T10:03:53Z</time>
      </trkpt>
      <trkpt lat="43.30404" lon="-1.49089">
        <ele>213.4</ele>
        <time>2022-08-30T10:03:54Z</time>
      </trkpt>
      <trkpt lat="43.30403" lon="-1.49089">
        <ele>213.6</ele>
        <time>2022-08-30T10:03:55Z</time>
      </trkpt>
      <trkpt lat="43.304" lon="-1.49088">
        <ele>214.1</ele>
        <time>2022-08-30T10:03:56Z</time>
      </trkpt>
      <trkpt lat="43.30399" lon="-1.49088">
        <ele>214.3</ele>
        <time>2022-08-30T10:03:57Z</time>
      </trkpt>
      <trkpt lat="43.30396" lon="-1.49088">
        <ele>214.8</ele>
        <time>2022-08-30T10:03:58Z</time>
      </trkpt>
      <trkpt lat="43.30395" lon="-1.49088">
        <ele>214.9</ele>
        <time>2022-08-30T10:03:59Z</time>
      </trkpt>
      <trkpt lat="43.30393" lon="-1.49087">
        <ele>215.3</ele>
        <time>2022-08-30T10:04:00Z</time>
      </trkpt>
      <trkpt lat="43.30392" lon="-1.49086">
        <ele>215.6</ele>
        <time>2022-08-30T10:04:01Z</time>
      </trkpt>
      <trkpt lat="43.3039" lon="-1.49085">
        <ele>215.8</ele>
        <time>2022-08-30T10:04:02Z</time>
      </trkpt>
      <trkpt lat="43.30389" lon="-1.49084">
        <ele>217</ele>
        <time>2022-08-30T10:04:03Z</time>
      </trkpt>
      <trkpt lat="43.30387" lon="-1.49083">
        <ele>217.3</ele>
        <time>2022-08-30T10:04:04Z</time>
      </trkpt>
      <trkpt lat="43.30386" lon="-1.49082">
        <ele>217.7</ele>
        <time>2022-08-30T10:04:05Z</time>
      </trkpt>
      <trkpt lat="43.30384" lon="-1.49079">
        <ele>218.3</ele>
        <time>2022-08-30T10:04:06Z</time>
      </trkpt>
      <trkpt lat="43.30384" lon="-1.49077">
        <ele>218.6</ele>
        <time>2022-08-30T10:04:07Z</time>
      </trkpt>
      <trkpt lat="43.30384" lon="-1.49073">
        <ele>219.1</ele>
        <time>2022-08-30T10:04:08Z</time>
      </trkpt>
      <trkpt lat="43.30385" lon="-1.49072">
        <ele>219.3</ele>
        <time>2022-08-30T10:04:09Z</time>
      </trkpt>
      <trkpt lat="43.30387" lon="-1.4907">
        <ele>219.9</ele>
        <time>2022-08-30T10:04:10Z</time>
      </trkpt>
      <trkpt lat="43.30388" lon="-1.49069">
        <ele>220.1</ele>
        <time>2022-08-30T10:04:11Z</time>
      </trkpt>
      <trkpt lat="43.30391" lon="-1.49067">
        <ele>220.8</ele>
        <time>2022-08-30T10:04:12Z</time>
      </trkpt>
      <trkpt lat="43.30392" lon="-1.49067">
        <ele>221</ele>
        <time>2022-08-30T10:04:13Z</time>
      </trkpt>
      <trkpt lat="43.30395" lon="-1.49064">
        <ele>221.7</ele>
        <time>2022-08-30T10:04:14Z</time>
      </trkpt>
      <trkpt lat="43.30395" lon="-1.49063">
        <ele>221.9</ele>
        <time>2022-08-30T10:04:15Z</time>
      </trkpt>
      <trkpt lat="43.30397" lon="-1.49061">
        <ele>222.4</ele>
        <time>2022-08-30T10:04:16Z</time>
      </trkpt>
      <trkpt lat="43.30401" lon="-1.49057">
        <ele>223.2</ele>
        <time>2022-08-30T10:04:18Z</time>
      </trkpt>
      <trkpt lat="43.30404" lon="-1.49053">
        <ele>224.2</ele>
        <time>2022-08-30T10:04:20Z</time>
      </trkpt>
      <trkpt lat="43.30406" lon="-1.49051">
        <ele>224.6</ele>
        <time>2022-08-30T10:04:21Z</time>
      </trkpt>
      <trkpt lat="43.30407" lon="-1.49048">
        <ele>225.2</ele>
        <time>2022-08-30T10:04:22Z</time>
      </trkpt>
      <trkpt lat="43.30408" lon="-1.49047">
        <ele>225.4</ele>
        <time>2022-08-30T10:04:23Z</time>
      </trkpt>
      <trkpt lat="43.30409" lon="-1.49045">
        <ele>225.7</ele>
        <time>2022-08-30T10:04:24Z</time>
      </trkpt>
      <trkpt lat="43.30411" lon="-1.49045">
        <ele>226</ele>
        <time>2022-08-30T10:04:25Z</time>
      </trkpt>
      <trkpt lat="43.30414" lon="-1.49041">
        <ele>226.8</ele>
        <time>2022-08-30T10:04:27Z</time>
      </trkpt>
      <trkpt lat="43.30416" lon="-1.49038">
        <ele>227.4</ele>
        <time>2022-08-30T10:04:28Z</time>
      </trkpt>
      <trkpt lat="43.30416" lon="-1.49037">
        <ele>227.6</ele>
        <time>2022-08-30T10:04:29Z</time>
      </trkpt>
      <trkpt lat="43.30418" lon="-1.49033">
        <ele>228.2</ele>
        <time>2022-08-30T10:04:30Z</time>
      </trkpt>
      <trkpt lat="43.30419" lon="-1.49032">
        <ele>228.4</ele>
        <time>2022-08-30T10:04:31Z</time>
      </trkpt>
      <trkpt lat="43.30421" lon="-1.49029">
        <ele>229</ele>
        <time>2022-08-30T10:04:32Z</time>
      </trkpt>
      <trkpt lat="43.30422" lon="-1.49028">
        <ele>229.2</ele>
        <time>2022-08-30T10:04:33Z</time>
      </trkpt>
      <trkpt lat="43.30423" lon="-1.49026">
        <ele>229.5</ele>
        <time>2022-08-30T10:04:34Z</time>
      </trkpt>
      <trkpt lat="43.30424" lon="-1.49024">
        <ele>229.8</ele>
        <time>2022-08-30T10:04:35Z</time>
      </trkpt>
      <trkpt lat="43.30425" lon="-1.49022">
        <ele>230.2</ele>
        <time>2022-08-30T10:04:36Z</time>
      </trkpt>
      <trkpt lat="43.30428" lon="-1.49019">
        <ele>230.9</ele>
        <time>2022-08-30T10:04:38Z</time>
      </trkpt>
      <trkpt lat="43.30429" lon="-1.49016">
        <ele>231.3</ele>
        <time>2022-08-30T10:04:39Z</time>
      </trkpt>
      <trkpt lat="43.30432" lon="-1.49013">
        <ele>232</ele>
        <time>2022-08-30T10:04:40Z</time>
      </trkpt>
      <trkpt lat="43.30432" lon="-1.49012">
        <ele>232.2</ele>
        <time>2022-08-30T10:04:41Z</time>
      </trkpt>
      <trkpt lat="43.30434" lon="-1.49009">
        <ele>232.8</ele>
        <time>2022-08-30T10:04:42Z</time>
      </trkpt>
      <trkpt lat="43.30435" lon="-1.49008">
        <ele>233</ele>
        <time>2022-08-30T10:04:43Z</time>
      </trkpt>
      <trkpt lat="43.30437" lon="-1.49004">
        <ele>233.7</ele>
        <time>2022-08-30T10:04:44Z</time>
      </trkpt>
      <trkpt lat="43.30438" lon="-1.49003">
        <ele>233.9</ele>
        <time>2022-08-30T10:04:45Z</time>
      </trkpt>
      <trkpt lat="43.3044" lon="-1.48999">
        <ele>234.6</ele>
        <time>2022-08-30T10:04:46Z</time>
      </trkpt>
      <trkpt lat="43.30441" lon="-1.48998">
        <ele>234.8</ele>
        <time>2022-08-30T10:04:47Z</time>
      </trkpt>
      <trkpt lat="43.30442" lon="-1.48994">
        <ele>235.4</ele>
        <time>2022-08-30T10:04:48Z</time>
      </trkpt>
      <trkpt lat="43.30443" lon="-1.48993">
        <ele>235.6</ele>
        <time>2022-08-30T10:04:49Z</time>
      </trkpt>
      <trkpt lat="43.30446" lon="-1.4899">
        <ele>236.3</ele>
        <time>2022-08-30T10:04:50Z</time>
      </trkpt>
      <trkpt lat="43.30446" lon="-1.48989">
        <ele>236.5</ele>
        <time>2022-08-30T10:04:51Z</time>
      </trkpt>
      <trkpt lat="43.30448" lon="-1.48987">
        <ele>236.9</ele>
        <time>2022-08-30T10:04:52Z</time>
      </trkpt>
      <trkpt lat="43.30451" lon="-1.48983">
        <ele>237.7</ele>
        <time>2022-08-30T10:04:54Z</time>
      </trkpt>
      <trkpt lat="43.30453" lon="-1.4898">
        <ele>238.1</ele>
        <time>2022-08-30T10:04:55Z</time>
      </trkpt>
      <trkpt lat="43.30455" lon="-1.48977">
        <ele>238.7</ele>
        <time>2022-08-30T10:04:56Z</time>
      </trkpt>
      <trkpt lat="43.30456" lon="-1.48976">
        <ele>238.9</ele>
        <time>2022-08-30T10:04:57Z</time>
      </trkpt>
      <trkpt lat="43.30458" lon="-1.48973">
        <ele>239.4</ele>
        <time>2022-08-30T10:04:58Z</time>
      </trkpt>
      <trkpt lat="43.30459" lon="-1.48972">
        <ele>239.6</ele>
        <time>2022-08-30T10:04:59Z</time>
      </trkpt>
      <trkpt lat="43.30461" lon="-1.48968">
        <ele>240.2</ele>
        <time>2022-08-30T10:05:00Z</time>
      </trkpt>
      <trkpt lat="43.30462" lon="-1.48967">
        <ele>240.4</ele>
        <time>2022-08-30T10:05:01Z</time>
      </trkpt>
      <trkpt lat="43.30464" lon="-1.48964">
        <ele>240.9</ele>
        <time>2022-08-30T10:05:02Z</time>
      </trkpt>
      <trkpt lat="43.30465" lon="-1.48962">
        <ele>241.1</ele>
        <time>2022-08-30T10:05:03Z</time>
      </trkpt>
      <trkpt lat="43.30467" lon="-1.48958">
        <ele>241.7</ele>
        <time>2022-08-30T10:05:05Z</time>
      </trkpt>
      <trkpt lat="43.30468" lon="-1.48954">
        <ele>242.2</ele>
        <time>2022-08-30T10:05:06Z</time>
      </trkpt>
      <trkpt lat="43.30469" lon="-1.48952">
        <ele>242.4</ele>
        <time>2022-08-30T10:05:07Z</time>
      </trkpt>
      <trkpt lat="43.30471" lon="-1.48948">
        <ele>242.9</ele>
        <time>2022-08-30T10:05:08Z</time>
      </trkpt>
      <trkpt lat="43.30471" lon="-1.48947">
        <ele>243</ele>
        <time>2022-08-30T10:05:09Z</time>
      </trkpt>
      <trkpt lat="43.30472" lon="-1.48943">
        <ele>243.5</ele>
        <time>2022-08-30T10:05:10Z</time>
      </trkpt>
      <trkpt lat="43.30473" lon="-1.48941">
        <ele>243.7</ele>
        <time>2022-08-30T10:05:11Z</time>
      </trkpt>
      <trkpt lat="43.30475" lon="-1.48937">
        <ele>244.3</ele>
        <time>2022-08-30T10:05:12Z</time>
      </trkpt>
      <trkpt lat="43.30475" lon="-1.48936">
        <ele>244.4</ele>
        <time>2022-08-30T10:05:13Z</time>
      </trkpt>
      <trkpt lat="43.30477" lon="-1.48933">
        <ele>244.8</ele>
        <time>2022-08-30T10:05:14Z</time>
      </trkpt>
      <trkpt lat="43.30478" lon="-1.48926">
        <ele>245.6</ele>
        <time>2022-08-30T10:05:16Z</time>
      </trkpt>
      <trkpt lat="43.30479" lon="-1.48923">
        <ele>246</ele>
        <time>2022-08-30T10:05:17Z</time>
      </trkpt>
      <trkpt lat="43.3048" lon="-1.48919">
        <ele>246.5</ele>
        <time>2022-08-30T10:05:18Z</time>
      </trkpt>
      <trkpt lat="43.30481" lon="-1.48917">
        <ele>246.7</ele>
        <time>2022-08-30T10:05:19Z</time>
      </trkpt>
      <trkpt lat="43.30482" lon="-1.48913">
        <ele>247.2</ele>
        <time>2022-08-30T10:05:20Z</time>
      </trkpt>
      <trkpt lat="43.30482" lon="-1.48911">
        <ele>247.4</ele>
        <time>2022-08-30T10:05:21Z</time>
      </trkpt>
      <trkpt lat="43.30482" lon="-1.48906">
        <ele>248.1</ele>
        <time>2022-08-30T10:05:22Z</time>
      </trkpt>
      <trkpt lat="43.30483" lon="-1.48904">
        <ele>248.3</ele>
        <time>2022-08-30T10:05:23Z</time>
      </trkpt>
      <trkpt lat="43.30484" lon="-1.489">
        <ele>249</ele>
        <time>2022-08-30T10:05:24Z</time>
      </trkpt>
      <trkpt lat="43.30485" lon="-1.48898">
        <ele>249.2</ele>
        <time>2022-08-30T10:05:25Z</time>
      </trkpt>
      <trkpt lat="43.30485" lon="-1.48893">
        <ele>249.9</ele>
        <time>2022-08-30T10:05:26Z</time>
      </trkpt>
      <trkpt lat="43.30485" lon="-1.48892">
        <ele>250.2</ele>
        <time>2022-08-30T10:05:27Z</time>
      </trkpt>
      <trkpt lat="43.30485" lon="-1.48887">
        <ele>250.8</ele>
        <time>2022-08-30T10:05:28Z</time>
      </trkpt>
      <trkpt lat="43.30485" lon="-1.48886">
        <ele>251</ele>
        <time>2022-08-30T10:05:29Z</time>
      </trkpt>
      <trkpt lat="43.30485" lon="-1.48883">
        <ele>251.4</ele>
        <time>2022-08-30T10:05:30Z</time>
      </trkpt>
      <trkpt lat="43.30485" lon="-1.48878">
        <ele>252.2</ele>
        <time>2022-08-30T10:05:32Z</time>
      </trkpt>
      <trkpt lat="43.30485" lon="-1.48874">
        <ele>252.7</ele>
        <time>2022-08-30T10:05:33Z</time>
      </trkpt>
      <trkpt lat="43.30484" lon="-1.4887">
        <ele>253.3</ele>
        <time>2022-08-30T10:05:34Z</time>
      </trkpt>
      <trkpt lat="43.30484" lon="-1.48869">
        <ele>253.5</ele>
        <time>2022-08-30T10:05:35Z</time>
      </trkpt>
      <trkpt lat="43.30482" lon="-1.48865">
        <ele>254.2</ele>
        <time>2022-08-30T10:05:36Z</time>
      </trkpt>
      <trkpt lat="43.30482" lon="-1.48864">
        <ele>254.5</ele>
        <time>2022-08-30T10:05:37Z</time>
      </trkpt>
      <trkpt lat="43.3048" lon="-1.4886">
        <ele>255.1</ele>
        <time>2022-08-30T10:05:38Z</time>
      </trkpt>
      <trkpt lat="43.30479" lon="-1.4886">
        <ele>255.3</ele>
        <time>2022-08-30T10:05:39Z</time>
      </trkpt>
      <trkpt lat="43.30477" lon="-1.48857">
        <ele>255.9</ele>
        <time>2022-08-30T10:05:40Z</time>
      </trkpt>
      <trkpt lat="43.30476" lon="-1.48856">
        <ele>256.1</ele>
        <time>2022-08-30T10:05:41Z</time>
      </trkpt>
      <trkpt lat="43.30473" lon="-1.48853">
        <ele>256.8</ele>
        <time>2022-08-30T10:05:42Z</time>
      </trkpt>
      <trkpt lat="43.30472" lon="-1.48852">
        <ele>257.1</ele>
        <time>2022-08-30T10:05:43Z</time>
      </trkpt>
      <trkpt lat="43.30469" lon="-1.48851">
        <ele>257.7</ele>
        <time>2022-08-30T10:05:44Z</time>
      </trkpt>
      <trkpt lat="43.30468" lon="-1.4885">
        <ele>258</ele>
        <time>2022-08-30T10:05:45Z</time>
      </trkpt>
      <trkpt lat="43.30465" lon="-1.48848">
        <ele>258.6</ele>
        <time>2022-08-30T10:05:46Z</time>
      </trkpt>
      <trkpt lat="43.30464" lon="-1.48848">
        <ele>258.8</ele>
        <time>2022-08-30T10:05:47Z</time>
      </trkpt>
      <trkpt lat="43.30462" lon="-1.48847">
        <ele>259.3</ele>
        <time>2022-08-30T10:05:48Z</time>
      </trkpt>
      <trkpt lat="43.30461" lon="-1.48846">
        <ele>259.5</ele>
        <time>2022-08-30T10:05:49Z</time>
      </trkpt>
      <trkpt lat="43.30458" lon="-1.48844">
        <ele>260.1</ele>
        <time>2022-08-30T10:05:50Z</time>
      </trkpt>
      <trkpt lat="43.30457" lon="-1.48844">
        <ele>260.3</ele>
        <time>2022-08-30T10:05:51Z</time>
      </trkpt>
      <trkpt lat="43.30454" lon="-1.48843">
        <ele>260.9</ele>
        <time>2022-08-30T10:05:52Z</time>
      </trkpt>
      <trkpt lat="43.30453" lon="-1.48842">
        <ele>261</ele>
        <time>2022-08-30T10:05:53Z</time>
      </trkpt>
      <trkpt lat="43.30451" lon="-1.4884">
        <ele>261.6</ele>
        <time>2022-08-30T10:05:54Z</time>
      </trkpt>
      <trkpt lat="43.3045" lon="-1.48839">
        <ele>261.8</ele>
        <time>2022-08-30T10:05:55Z</time>
      </trkpt>
      <trkpt lat="43.30447" lon="-1.48837">
        <ele>262.4</ele>
        <time>2022-08-30T10:05:56Z</time>
      </trkpt>
      <trkpt lat="43.30446" lon="-1.48837">
        <ele>262.6</ele>
        <time>2022-08-30T10:05:57Z</time>
      </trkpt>
      <trkpt lat="43.30443" lon="-1.48836">
        <ele>263.1</ele>
        <time>2022-08-30T10:05:58Z</time>
      </trkpt>
      <trkpt lat="43.30442" lon="-1.48836">
        <ele>263.3</ele>
        <time>2022-08-30T10:05:59Z</time>
      </trkpt>
      <trkpt lat="43.30439" lon="-1.48835">
        <ele>263.8</ele>
        <time>2022-08-30T10:06:00Z</time>
      </trkpt>
      <trkpt lat="43.30438" lon="-1.48834">
        <ele>264</ele>
        <time>2022-08-30T10:06:01Z</time>
      </trkpt>
      <trkpt lat="43.30435" lon="-1.48832">
        <ele>264.5</ele>
        <time>2022-08-30T10:06:02Z</time>
      </trkpt>
      <trkpt lat="43.30434" lon="-1.48831">
        <ele>264.7</ele>
        <time>2022-08-30T10:06:03Z</time>
      </trkpt>
      <trkpt lat="43.30431" lon="-1.4883">
        <ele>265.2</ele>
        <time>2022-08-30T10:06:04Z</time>
      </trkpt>
      <trkpt lat="43.3043" lon="-1.4883">
        <ele>265.4</ele>
        <time>2022-08-30T10:06:05Z</time>
      </trkpt>
      <trkpt lat="43.30427" lon="-1.48828">
        <ele>265.9</ele>
        <time>2022-08-30T10:06:06Z</time>
      </trkpt>
      <trkpt lat="43.30426" lon="-1.48828">
        <ele>266.2</ele>
        <time>2022-08-30T10:06:07Z</time>
      </trkpt>
      <trkpt lat="43.30423" lon="-1.48825">
        <ele>266.9</ele>
        <time>2022-08-30T10:06:08Z</time>
      </trkpt>
      <trkpt lat="43.30422" lon="-1.48825">
        <ele>267.1</ele>
        <time>2022-08-30T10:06:09Z</time>
      </trkpt>
      <trkpt lat="43.30419" lon="-1.48824">
        <ele>267.7</ele>
        <time>2022-08-30T10:06:10Z</time>
      </trkpt>
      <trkpt lat="43.30418" lon="-1.48823">
        <ele>267.9</ele>
        <time>2022-08-30T10:06:11Z</time>
      </trkpt>
      <trkpt lat="43.30415" lon="-1.48822">
        <ele>268.5</ele>
        <time>2022-08-30T10:06:12Z</time>
      </trkpt>
      <trkpt lat="43.30414" lon="-1.48821">
        <ele>268.7</ele>
        <time>2022-08-30T10:06:13Z</time>
      </trkpt>
      <trkpt lat="43.30411" lon="-1.48819">
        <ele>269.4</ele>
        <time>2022-08-30T10:06:14Z</time>
      </trkpt>
      <trkpt lat="43.3041" lon="-1.48819">
        <ele>269.6</ele>
        <time>2022-08-30T10:06:15Z</time>
      </trkpt>
      <trkpt lat="43.30407" lon="-1.48816">
        <ele>270.2</ele>
        <time>2022-08-30T10:06:16Z</time>
      </trkpt>
      <trkpt lat="43.30407" lon="-1.48816">
        <ele>270.3</ele>
        <time>2022-08-30T10:06:17Z</time>
      </trkpt>
      <trkpt lat="43.30404" lon="-1.48814">
        <ele>270.9</ele>
        <time>2022-08-30T10:06:18Z</time>
      </trkpt>
      <trkpt lat="43.30403" lon="-1.48814">
        <ele>271.1</ele>
        <time>2022-08-30T10:06:19Z</time>
      </trkpt>
      <trkpt lat="43.304" lon="-1.48812">
        <ele>271.7</ele>
        <time>2022-08-30T10:06:20Z</time>
      </trkpt>
      <trkpt lat="43.30399" lon="-1.48811">
        <ele>272</ele>
        <time>2022-08-30T10:06:21Z</time>
      </trkpt>
      <trkpt lat="43.30396" lon="-1.48809">
        <ele>272.5</ele>
        <time>2022-08-30T10:06:22Z</time>
      </trkpt>
      <trkpt lat="43.30396" lon="-1.48808">
        <ele>272.7</ele>
        <time>2022-08-30T10:06:23Z</time>
      </trkpt>
      <trkpt lat="43.30393" lon="-1.48807">
        <ele>273.3</ele>
        <time>2022-08-30T10:06:24Z</time>
      </trkpt>
      <trkpt lat="43.30392" lon="-1.48807">
        <ele>273.5</ele>
        <time>2022-08-30T10:06:25Z</time>
      </trkpt>
      <trkpt lat="43.30389" lon="-1.48805">
        <ele>274.1</ele>
        <time>2022-08-30T10:06:26Z</time>
      </trkpt>
      <trkpt lat="43.30388" lon="-1.48804">
        <ele>274.3</ele>
        <time>2022-08-30T10:06:27Z</time>
      </trkpt>
      <trkpt lat="43.30385" lon="-1.48803">
        <ele>274.8</ele>
        <time>2022-08-30T10:06:28Z</time>
      </trkpt>
      <trkpt lat="43.30384" lon="-1.48803">
        <ele>275</ele>
        <time>2022-08-30T10:06:29Z</time>
      </trkpt>
      <trkpt lat="43.3038" lon="-1.48802">
        <ele>275.6</ele>
        <time>2022-08-30T10:06:30Z</time>
      </trkpt>
      <trkpt lat="43.30379" lon="-1.48802">
        <ele>275.8</ele>
        <time>2022-08-30T10:06:31Z</time>
      </trkpt>
      <trkpt lat="43.30376" lon="-1.488">
        <ele>276.3</ele>
        <time>2022-08-30T10:06:32Z</time>
      </trkpt>
      <trkpt lat="43.30375" lon="-1.488">
        <ele>276.5</ele>
        <time>2022-08-30T10:06:33Z</time>
      </trkpt>
      <trkpt lat="43.30372" lon="-1.488">
        <ele>277.1</ele>
        <time>2022-08-30T10:06:34Z</time>
      </trkpt>
      <trkpt lat="43.30371" lon="-1.488">
        <ele>277.3</ele>
        <time>2022-08-30T10:06:35Z</time>
      </trkpt>
      <trkpt lat="43.30367" lon="-1.488">
        <ele>277.8</ele>
        <time>2022-08-30T10:06:36Z</time>
      </trkpt>
      <trkpt lat="43.30366" lon="-1.48799">
        <ele>278</ele>
        <time>2022-08-30T10:06:37Z</time>
      </trkpt>
      <trkpt lat="43.30364" lon="-1.48799">
        <ele>278.4</ele>
        <time>2022-08-30T10:06:38Z</time>
      </trkpt>
      <trkpt lat="43.3036" lon="-1.48799">
        <ele>279.1</ele>
        <time>2022-08-30T10:06:40Z</time>
      </trkpt>
      <trkpt lat="43.30357" lon="-1.48799">
        <ele>279.5</ele>
        <time>2022-08-30T10:06:41Z</time>
      </trkpt>
      <trkpt lat="43.30355" lon="-1.48798">
        <ele>279.9</ele>
        <time>2022-08-30T10:06:42Z</time>
      </trkpt>
      <trkpt lat="43.30351" lon="-1.48795">
        <ele>280.7</ele>
        <time>2022-08-30T10:06:44Z</time>
      </trkpt>
      <trkpt lat="43.30349" lon="-1.48793">
        <ele>281.1</ele>
        <time>2022-08-30T10:06:45Z</time>
      </trkpt>
      <trkpt lat="43.30344" lon="-1.4879">
        <ele>281.9</ele>
        <time>2022-08-30T10:06:47Z</time>
      </trkpt>
      <trkpt lat="43.30342" lon="-1.48789">
        <ele>282.3</ele>
        <time>2022-08-30T10:06:48Z</time>
      </trkpt>
      <trkpt lat="43.30339" lon="-1.48786">
        <ele>283.1</ele>
        <time>2022-08-30T10:06:50Z</time>
      </trkpt>
      <trkpt lat="43.30337" lon="-1.48784">
        <ele>283.6</ele>
        <time>2022-08-30T10:06:51Z</time>
      </trkpt>
      <trkpt lat="43.30335" lon="-1.48782">
        <ele>284</ele>
        <time>2022-08-30T10:06:52Z</time>
      </trkpt>
      <trkpt lat="43.30331" lon="-1.48778">
        <ele>284.9</ele>
        <time>2022-08-30T10:06:54Z</time>
      </trkpt>
      <trkpt lat="43.30329" lon="-1.48776">
        <ele>285.3</ele>
        <time>2022-08-30T10:06:55Z</time>
      </trkpt>
      <trkpt lat="43.30328" lon="-1.48774">
        <ele>285.7</ele>
        <time>2022-08-30T10:06:56Z</time>
      </trkpt>
      <trkpt lat="43.30325" lon="-1.48769">
        <ele>286.4</ele>
        <time>2022-08-30T10:06:58Z</time>
      </trkpt>
      <trkpt lat="43.30324" lon="-1.48767">
        <ele>286.9</ele>
        <time>2022-08-30T10:06:59Z</time>
      </trkpt>
      <trkpt lat="43.30321" lon="-1.48764">
        <ele>287.5</ele>
        <time>2022-08-30T10:07:00Z</time>
      </trkpt>
      <trkpt lat="43.30321" lon="-1.48763">
        <ele>287.7</ele>
        <time>2022-08-30T10:07:01Z</time>
      </trkpt>
      <trkpt lat="43.30319" lon="-1.48759">
        <ele>288.3</ele>
        <time>2022-08-30T10:07:02Z</time>
      </trkpt>
      <trkpt lat="43.30318" lon="-1.48758">
        <ele>288.4</ele>
        <time>2022-08-30T10:07:03Z</time>
      </trkpt>
      <trkpt lat="43.30317" lon="-1.48753">
        <ele>289.1</ele>
        <time>2022-08-30T10:07:04Z</time>
      </trkpt>
      <trkpt lat="43.30317" lon="-1.48751">
        <ele>289.3</ele>
        <time>2022-08-30T10:07:05Z</time>
      </trkpt>
      <trkpt lat="43.30318" lon="-1.48747">
        <ele>290</ele>
        <time>2022-08-30T10:07:06Z</time>
      </trkpt>
      <trkpt lat="43.30319" lon="-1.48745">
        <ele>290</ele>
        <time>2022-08-30T10:07:07Z</time>
      </trkpt>
      <trkpt lat="43.30321" lon="-1.48739">
        <ele>290.9</ele>
        <time>2022-08-30T10:07:09Z</time>
      </trkpt>
      <trkpt lat="43.30322" lon="-1.48736">
        <ele>291.5</ele>
        <time>2022-08-30T10:07:10Z</time>
      </trkpt>
      <trkpt lat="43.30322" lon="-1.48735">
        <ele>291.7</ele>
        <time>2022-08-30T10:07:11Z</time>
      </trkpt>
      <trkpt lat="43.30324" lon="-1.48731">
        <ele>292.3</ele>
        <time>2022-08-30T10:07:12Z</time>
      </trkpt>
      <trkpt lat="43.30325" lon="-1.4873">
        <ele>292.5</ele>
        <time>2022-08-30T10:07:13Z</time>
      </trkpt>
      <trkpt lat="43.30327" lon="-1.48727">
        <ele>293.1</ele>
        <time>2022-08-30T10:07:14Z</time>
      </trkpt>
      <trkpt lat="43.30328" lon="-1.48726">
        <ele>293.3</ele>
        <time>2022-08-30T10:07:15Z</time>
      </trkpt>
      <trkpt lat="43.30331" lon="-1.48723">
        <ele>294</ele>
        <time>2022-08-30T10:07:16Z</time>
      </trkpt>
      <trkpt lat="43.30332" lon="-1.48722">
        <ele>294.2</ele>
        <time>2022-08-30T10:07:17Z</time>
      </trkpt>
      <trkpt lat="43.30334" lon="-1.4872">
        <ele>294.6</ele>
        <time>2022-08-30T10:07:18Z</time>
      </trkpt>
      <trkpt lat="43.30338" lon="-1.48717">
        <ele>295.5</ele>
        <time>2022-08-30T10:07:20Z</time>
      </trkpt>
      <trkpt lat="43.3034" lon="-1.48715">
        <ele>295.9</ele>
        <time>2022-08-30T10:07:21Z</time>
      </trkpt>
      <trkpt lat="43.30343" lon="-1.48713">
        <ele>296.6</ele>
        <time>2022-08-30T10:07:22Z</time>
      </trkpt>
      <trkpt lat="43.30344" lon="-1.48712">
        <ele>296.8</ele>
        <time>2022-08-30T10:07:23Z</time>
      </trkpt>
      <trkpt lat="43.30347" lon="-1.4871">
        <ele>297.3</ele>
        <time>2022-08-30T10:07:24Z</time>
      </trkpt>
      <trkpt lat="43.30348" lon="-1.48709">
        <ele>297.4</ele>
        <time>2022-08-30T10:07:25Z</time>
      </trkpt>
      <trkpt lat="43.3035" lon="-1.48706">
        <ele>297.9</ele>
        <time>2022-08-30T10:07:26Z</time>
      </trkpt>
      <trkpt lat="43.30351" lon="-1.48705">
        <ele>298.1</ele>
        <time>2022-08-30T10:07:27Z</time>
      </trkpt>
      <trkpt lat="43.30354" lon="-1.48703">
        <ele>298.5</ele>
        <time>2022-08-30T10:07:28Z</time>
      </trkpt>
      <trkpt lat="43.30355" lon="-1.48703">
        <ele>298.7</ele>
        <time>2022-08-30T10:07:29Z</time>
      </trkpt>
      <trkpt lat="43.30359" lon="-1.48699">
        <ele>299.4</ele>
        <time>2022-08-30T10:07:31Z</time>
      </trkpt>
      <trkpt lat="43.30361" lon="-1.48697">
        <ele>299.7</ele>
        <time>2022-08-30T10:07:32Z</time>
      </trkpt>
      <trkpt lat="43.30363" lon="-1.48693">
        <ele>300.2</ele>
        <time>2022-08-30T10:07:33Z</time>
      </trkpt>
      <trkpt lat="43.30364" lon="-1.48692">
        <ele>300.3</ele>
        <time>2022-08-30T10:07:34Z</time>
      </trkpt>
      <trkpt lat="43.30366" lon="-1.48689">
        <ele>300.7</ele>
        <time>2022-08-30T10:07:35Z</time>
      </trkpt>
      <trkpt lat="43.30367" lon="-1.48688">
        <ele>300.9</ele>
        <time>2022-08-30T10:07:36Z</time>
      </trkpt>
      <trkpt lat="43.30369" lon="-1.48683">
        <ele>301.4</ele>
        <time>2022-08-30T10:07:37Z</time>
      </trkpt>
      <trkpt lat="43.3037" lon="-1.48682">
        <ele>301.5</ele>
        <time>2022-08-30T10:07:38Z</time>
      </trkpt>
      <trkpt lat="43.30372" lon="-1.48678">
        <ele>302</ele>
        <time>2022-08-30T10:07:39Z</time>
      </trkpt>
      <trkpt lat="43.30372" lon="-1.48676">
        <ele>302.1</ele>
        <time>2022-08-30T10:07:40Z</time>
      </trkpt>
      <trkpt lat="43.30374" lon="-1.48669">
        <ele>302.9</ele>
        <time>2022-08-30T10:07:42Z</time>
      </trkpt>
      <trkpt lat="43.30375" lon="-1.48666">
        <ele>303.2</ele>
        <time>2022-08-30T10:07:43Z</time>
      </trkpt>
      <trkpt lat="43.30376" lon="-1.48661">
        <ele>303.8</ele>
        <time>2022-08-30T10:07:44Z</time>
      </trkpt>
      <trkpt lat="43.30377" lon="-1.4866">
        <ele>304</ele>
        <time>2022-08-30T10:07:45Z</time>
      </trkpt>
      <trkpt lat="43.30378" lon="-1.48655">
        <ele>304.6</ele>
        <time>2022-08-30T10:07:46Z</time>
      </trkpt>
      <trkpt lat="43.30378" lon="-1.48653">
        <ele>304.8</ele>
        <time>2022-08-30T10:07:47Z</time>
      </trkpt>
      <trkpt lat="43.3038" lon="-1.48648">
        <ele>305.5</ele>
        <time>2022-08-30T10:07:48Z</time>
      </trkpt>
      <trkpt lat="43.3038" lon="-1.48646">
        <ele>305.7</ele>
        <time>2022-08-30T10:07:49Z</time>
      </trkpt>
      <trkpt lat="43.30382" lon="-1.48641">
        <ele>306.4</ele>
        <time>2022-08-30T10:07:50Z</time>
      </trkpt>
      <trkpt lat="43.30382" lon="-1.48639">
        <ele>306.7</ele>
        <time>2022-08-30T10:07:51Z</time>
      </trkpt>
      <trkpt lat="43.30384" lon="-1.48632">
        <ele>307.6</ele>
        <time>2022-08-30T10:07:53Z</time>
      </trkpt>
      <trkpt lat="43.30384" lon="-1.48629">
        <ele>308.1</ele>
        <time>2022-08-30T10:07:54Z</time>
      </trkpt>
      <trkpt lat="43.30386" lon="-1.48625">
        <ele>308.6</ele>
        <time>2022-08-30T10:07:55Z</time>
      </trkpt>
      <trkpt lat="43.30387" lon="-1.48622">
        <ele>309.2</ele>
        <time>2022-08-30T10:07:56Z</time>
      </trkpt>
      <trkpt lat="43.30389" lon="-1.48617">
        <ele>309.9</ele>
        <time>2022-08-30T10:07:57Z</time>
      </trkpt>
      <trkpt lat="43.30389" lon="-1.48615">
        <ele>310.1</ele>
        <time>2022-08-30T10:07:58Z</time>
      </trkpt>
      <trkpt lat="43.3039" lon="-1.48612">
        <ele>310.6</ele>
        <time>2022-08-30T10:07:59Z</time>
      </trkpt>
      <trkpt lat="43.30391" lon="-1.48608">
        <ele>311.1</ele>
        <time>2022-08-30T10:08:00Z</time>
      </trkpt>
      <trkpt lat="43.30392" lon="-1.48603">
        <ele>311.8</ele>
        <time>2022-08-30T10:08:01Z</time>
      </trkpt>
      <trkpt lat="43.30393" lon="-1.48601">
        <ele>312</ele>
        <time>2022-08-30T10:08:02Z</time>
      </trkpt>
      <trkpt lat="43.30394" lon="-1.48594">
        <ele>313</ele>
        <time>2022-08-30T10:08:04Z</time>
      </trkpt>
      <trkpt lat="43.30395" lon="-1.4859">
        <ele>313.7</ele>
        <time>2022-08-30T10:08:05Z</time>
      </trkpt>
      <trkpt lat="43.30395" lon="-1.48588">
        <ele>313.9</ele>
        <time>2022-08-30T10:08:06Z</time>
      </trkpt>
      <trkpt lat="43.30396" lon="-1.48583">
        <ele>314.5</ele>
        <time>2022-08-30T10:08:07Z</time>
      </trkpt>
      <trkpt lat="43.30396" lon="-1.48582">
        <ele>314.8</ele>
        <time>2022-08-30T10:08:08Z</time>
      </trkpt>
      <trkpt lat="43.30395" lon="-1.48578">
        <ele>315.3</ele>
        <time>2022-08-30T10:08:09Z</time>
      </trkpt>
      <trkpt lat="43.30395" lon="-1.48573">
        <ele>315.9</ele>
        <time>2022-08-30T10:08:10Z</time>
      </trkpt>
      <trkpt lat="43.30395" lon="-1.48571">
        <ele>316.2</ele>
        <time>2022-08-30T10:08:11Z</time>
      </trkpt>
      <trkpt lat="43.30394" lon="-1.48566">
        <ele>316.9</ele>
        <time>2022-08-30T10:08:12Z</time>
      </trkpt>
      <trkpt lat="43.30394" lon="-1.48565">
        <ele>317.1</ele>
        <time>2022-08-30T10:08:13Z</time>
      </trkpt>
      <trkpt lat="43.30393" lon="-1.48559">
        <ele>317.9</ele>
        <time>2022-08-30T10:08:15Z</time>
      </trkpt>
      <trkpt lat="43.30392" lon="-1.48554">
        <ele>318.5</ele>
        <time>2022-08-30T10:08:16Z</time>
      </trkpt>
      <trkpt lat="43.30391" lon="-1.48553">
        <ele>318.8</ele>
        <time>2022-08-30T10:08:17Z</time>
      </trkpt>
      <trkpt lat="43.3039" lon="-1.48548">
        <ele>319.5</ele>
        <time>2022-08-30T10:08:18Z</time>
      </trkpt>
      <trkpt lat="43.3039" lon="-1.48546">
        <ele>319.7</ele>
        <time>2022-08-30T10:08:19Z</time>
      </trkpt>
      <trkpt lat="43.30388" lon="-1.48542">
        <ele>320.3</ele>
        <time>2022-08-30T10:08:20Z</time>
      </trkpt>
      <trkpt lat="43.30388" lon="-1.48541">
        <ele>320.5</ele>
        <time>2022-08-30T10:08:21Z</time>
      </trkpt>
      <trkpt lat="43.30387" lon="-1.48536">
        <ele>321.3</ele>
        <time>2022-08-30T10:08:22Z</time>
      </trkpt>
      <trkpt lat="43.30386" lon="-1.48534">
        <ele>321.5</ele>
        <time>2022-08-30T10:08:23Z</time>
      </trkpt>
      <trkpt lat="43.30386" lon="-1.48531">
        <ele>322</ele>
        <time>2022-08-30T10:08:24Z</time>
      </trkpt>
      <trkpt lat="43.30384" lon="-1.48525">
        <ele>323</ele>
        <time>2022-08-30T10:08:26Z</time>
      </trkpt>
      <trkpt lat="43.30384" lon="-1.48521">
        <ele>323.4</ele>
        <time>2022-08-30T10:08:27Z</time>
      </trkpt>
      <trkpt lat="43.30383" lon="-1.48518">
        <ele>324</ele>
        <time>2022-08-30T10:08:28Z</time>
      </trkpt>
      <trkpt lat="43.30383" lon="-1.48514">
        <ele>324.5</ele>
        <time>2022-08-30T10:08:29Z</time>
      </trkpt>
      <trkpt lat="43.30383" lon="-1.48509">
        <ele>325.2</ele>
        <time>2022-08-30T10:08:30Z</time>
      </trkpt>
      <trkpt lat="43.30383" lon="-1.48507">
        <ele>325.4</ele>
        <time>2022-08-30T10:08:31Z</time>
      </trkpt>
      <trkpt lat="43.30383" lon="-1.48503">
        <ele>326</ele>
        <time>2022-08-30T10:08:32Z</time>
      </trkpt>
      <trkpt lat="43.30383" lon="-1.48501">
        <ele>326.1</ele>
        <time>2022-08-30T10:08:33Z</time>
      </trkpt>
      <trkpt lat="43.30383" lon="-1.48497">
        <ele>326.7</ele>
        <time>2022-08-30T10:08:34Z</time>
      </trkpt>
      <trkpt lat="43.30383" lon="-1.48495">
        <ele>326.9</ele>
        <time>2022-08-30T10:08:35Z</time>
      </trkpt>
      <trkpt lat="43.30383" lon="-1.4849">
        <ele>327.4</ele>
        <time>2022-08-30T10:08:36Z</time>
      </trkpt>
      <trkpt lat="43.30383" lon="-1.48489">
        <ele>327.6</ele>
        <time>2022-08-30T10:08:37Z</time>
      </trkpt>
      <trkpt lat="43.30383" lon="-1.48484">
        <ele>328.1</ele>
        <time>2022-08-30T10:08:38Z</time>
      </trkpt>
      <trkpt lat="43.30384" lon="-1.48482">
        <ele>328.3</ele>
        <time>2022-08-30T10:08:39Z</time>
      </trkpt>
      <trkpt lat="43.30384" lon="-1.48477">
        <ele>328.8</ele>
        <time>2022-08-30T10:08:40Z</time>
      </trkpt>
      <trkpt lat="43.30385" lon="-1.48475">
        <ele>328.8</ele>
        <time>2022-08-30T10:08:41Z</time>
      </trkpt>
      <trkpt lat="43.30385" lon="-1.48472">
        <ele>329</ele>
        <time>2022-08-30T10:08:42Z</time>
      </trkpt>
      <trkpt lat="43.30385" lon="-1.4847">
        <ele>329</ele>
        <time>2022-08-30T10:08:43Z</time>
      </trkpt>
      <trkpt lat="43.30386" lon="-1.48465">
        <ele>329.2</ele>
        <time>2022-08-30T10:08:44Z</time>
      </trkpt>
      <trkpt lat="43.30387" lon="-1.48463">
        <ele>329.2</ele>
        <time>2022-08-30T10:08:45Z</time>
      </trkpt>
      <trkpt lat="43.30389" lon="-1.48459">
        <ele>329.3</ele>
        <time>2022-08-30T10:08:46Z</time>
      </trkpt>
      <trkpt lat="43.3039" lon="-1.48456">
        <ele>329.4</ele>
        <time>2022-08-30T10:08:47Z</time>
      </trkpt>
      <trkpt lat="43.30392" lon="-1.48452">
        <ele>329.4</ele>
        <time>2022-08-30T10:08:48Z</time>
      </trkpt>
      <trkpt lat="43.30393" lon="-1.48448">
        <ele>329.5</ele>
        <time>2022-08-30T10:08:49Z</time>
      </trkpt>
      <trkpt lat="43.30395" lon="-1.48444">
        <ele>329.5</ele>
        <time>2022-08-30T10:08:50Z</time>
      </trkpt>
      <trkpt lat="43.30397" lon="-1.48441">
        <ele>329.6</ele>
        <time>2022-08-30T10:08:51Z</time>
      </trkpt>
      <trkpt lat="43.30401" lon="-1.48433">
        <ele>329.7</ele>
        <time>2022-08-30T10:08:53Z</time>
      </trkpt>
      <trkpt lat="43.30402" lon="-1.4843">
        <ele>329.8</ele>
        <time>2022-08-30T10:08:54Z</time>
      </trkpt>
      <trkpt lat="43.30404" lon="-1.48426">
        <ele>329.9</ele>
        <time>2022-08-30T10:08:55Z</time>
      </trkpt>
      <trkpt lat="43.30406" lon="-1.48421">
        <ele>330</ele>
        <time>2022-08-30T10:08:56Z</time>
      </trkpt>
      <trkpt lat="43.30407" lon="-1.4842">
        <ele>330.1</ele>
        <time>2022-08-30T10:08:57Z</time>
      </trkpt>
      <trkpt lat="43.30409" lon="-1.48416">
        <ele>330.2</ele>
        <time>2022-08-30T10:08:58Z</time>
      </trkpt>
      <trkpt lat="43.3041" lon="-1.48412">
        <ele>330.4</ele>
        <time>2022-08-30T10:08:59Z</time>
      </trkpt>
      <trkpt lat="43.30412" lon="-1.48409">
        <ele>330.6</ele>
        <time>2022-08-30T10:09:00Z</time>
      </trkpt>
      <trkpt lat="43.30413" lon="-1.48405">
        <ele>330.7</ele>
        <time>2022-08-30T10:09:01Z</time>
      </trkpt>
      <trkpt lat="43.30415" lon="-1.48402">
        <ele>330.9</ele>
        <time>2022-08-30T10:09:02Z</time>
      </trkpt>
      <trkpt lat="43.30416" lon="-1.48398">
        <ele>331.1</ele>
        <time>2022-08-30T10:09:03Z</time>
      </trkpt>
      <trkpt lat="43.30418" lon="-1.48395">
        <ele>331.4</ele>
        <time>2022-08-30T10:09:04Z</time>
      </trkpt>
      <trkpt lat="43.3042" lon="-1.48391">
        <ele>331.6</ele>
        <time>2022-08-30T10:09:05Z</time>
      </trkpt>
      <trkpt lat="43.30421" lon="-1.48387">
        <ele>331.9</ele>
        <time>2022-08-30T10:09:06Z</time>
      </trkpt>
      <trkpt lat="43.30422" lon="-1.48384">
        <ele>332.2</ele>
        <time>2022-08-30T10:09:07Z</time>
      </trkpt>
      <trkpt lat="43.30424" lon="-1.4838">
        <ele>332.5</ele>
        <time>2022-08-30T10:09:08Z</time>
      </trkpt>
      <trkpt lat="43.30426" lon="-1.48376">
        <ele>332.9</ele>
        <time>2022-08-30T10:09:09Z</time>
      </trkpt>
      <trkpt lat="43.30427" lon="-1.48374">
        <ele>333</ele>
        <time>2022-08-30T10:09:10Z</time>
      </trkpt>
      <trkpt lat="43.30429" lon="-1.48371">
        <ele>333.4</ele>
        <time>2022-08-30T10:09:11Z</time>
      </trkpt>
      <trkpt lat="43.30432" lon="-1.48368">
        <ele>333.8</ele>
        <time>2022-08-30T10:09:12Z</time>
      </trkpt>
      <trkpt lat="43.30435" lon="-1.48367">
        <ele>334.1</ele>
        <time>2022-08-30T10:09:13Z</time>
      </trkpt>
      <trkpt lat="43.30438" lon="-1.48367">
        <ele>334.5</ele>
        <time>2022-08-30T10:09:14Z</time>
      </trkpt>
      <trkpt lat="43.30441" lon="-1.48369">
        <ele>334.9</ele>
        <time>2022-08-30T10:09:15Z</time>
      </trkpt>
      <trkpt lat="43.30443" lon="-1.48372">
        <ele>335.2</ele>
        <time>2022-08-30T10:09:16Z</time>
      </trkpt>
      <trkpt lat="43.30446" lon="-1.48375">
        <ele>335.6</ele>
        <time>2022-08-30T10:09:17Z</time>
      </trkpt>
      <trkpt lat="43.30449" lon="-1.48377">
        <ele>335.9</ele>
        <time>2022-08-30T10:09:18Z</time>
      </trkpt>
      <trkpt lat="43.30451" lon="-1.48379">
        <ele>336.3</ele>
        <time>2022-08-30T10:09:19Z</time>
      </trkpt>
      <trkpt lat="43.30454" lon="-1.48382">
        <ele>336.6</ele>
        <time>2022-08-30T10:09:20Z</time>
      </trkpt>
      <trkpt lat="43.30457" lon="-1.48384">
        <ele>336.9</ele>
        <time>2022-08-30T10:09:21Z</time>
      </trkpt>
      <trkpt lat="43.30459" lon="-1.48386">
        <ele>337.2</ele>
        <time>2022-08-30T10:09:22Z</time>
      </trkpt>
      <trkpt lat="43.30461" lon="-1.48388">
        <ele>337.5</ele>
        <time>2022-08-30T10:09:23Z</time>
      </trkpt>
      <trkpt lat="43.30465" lon="-1.48389">
        <ele>337.9</ele>
        <time>2022-08-30T10:09:24Z</time>
      </trkpt>
      <trkpt lat="43.30466" lon="-1.4839">
        <ele>338.1</ele>
        <time>2022-08-30T10:09:25Z</time>
      </trkpt>
      <trkpt lat="43.3047" lon="-1.48392">
        <ele>338.6</ele>
        <time>2022-08-30T10:09:26Z</time>
      </trkpt>
      <trkpt lat="43.30471" lon="-1.48393">
        <ele>338.8</ele>
        <time>2022-08-30T10:09:27Z</time>
      </trkpt>
      <trkpt lat="43.30474" lon="-1.48395">
        <ele>339.3</ele>
        <time>2022-08-30T10:09:28Z</time>
      </trkpt>
      <trkpt lat="43.30476" lon="-1.48395">
        <ele>339.5</ele>
        <time>2022-08-30T10:09:29Z</time>
      </trkpt>
      <trkpt lat="43.30479" lon="-1.48398">
        <ele>340.1</ele>
        <time>2022-08-30T10:09:30Z</time>
      </trkpt>
      <trkpt lat="43.3048" lon="-1.48399">
        <ele>340.3</ele>
        <time>2022-08-30T10:09:31Z</time>
      </trkpt>
      <trkpt lat="43.30483" lon="-1.48401">
        <ele>340.8</ele>
        <time>2022-08-30T10:09:32Z</time>
      </trkpt>
      <trkpt lat="43.30485" lon="-1.48403">
        <ele>341.2</ele>
        <time>2022-08-30T10:09:33Z</time>
      </trkpt>
      <trkpt lat="43.30488" lon="-1.48406">
        <ele>341.9</ele>
        <time>2022-08-30T10:09:34Z</time>
      </trkpt>
      <trkpt lat="43.30489" lon="-1.48407">
        <ele>342.2</ele>
        <time>2022-08-30T10:09:35Z</time>
      </trkpt>
      <trkpt lat="43.30492" lon="-1.48408">
        <ele>342.6</ele>
        <time>2022-08-30T10:09:36Z</time>
      </trkpt>
      <trkpt lat="43.30496" lon="-1.48408">
        <ele>343.4</ele>
        <time>2022-08-30T10:09:37Z</time>
      </trkpt>
      <trkpt lat="43.30497" lon="-1.48408">
        <ele>343.6</ele>
        <time>2022-08-30T10:09:38Z</time>
      </trkpt>
      <trkpt lat="43.30501" lon="-1.48406">
        <ele>344.3</ele>
        <time>2022-08-30T10:09:39Z</time>
      </trkpt>
      <trkpt lat="43.30502" lon="-1.48405">
        <ele>344.6</ele>
        <time>2022-08-30T10:09:40Z</time>
      </trkpt>
      <trkpt lat="43.30504" lon="-1.48403">
        <ele>345.1</ele>
        <time>2022-08-30T10:09:41Z</time>
      </trkpt>
      <trkpt lat="43.30505" lon="-1.48398">
        <ele>345.8</ele>
        <time>2022-08-30T10:09:42Z</time>
      </trkpt>
      <trkpt lat="43.30505" lon="-1.48396">
        <ele>346.1</ele>
        <time>2022-08-30T10:09:43Z</time>
      </trkpt>
      <trkpt lat="43.30506" lon="-1.48391">
        <ele>346.8</ele>
        <time>2022-08-30T10:09:44Z</time>
      </trkpt>
      <trkpt lat="43.30506" lon="-1.48389">
        <ele>347</ele>
        <time>2022-08-30T10:09:45Z</time>
      </trkpt>
      <trkpt lat="43.30505" lon="-1.48384">
        <ele>347.7</ele>
        <time>2022-08-30T10:09:46Z</time>
      </trkpt>
      <trkpt lat="43.30505" lon="-1.48382">
        <ele>348</ele>
        <time>2022-08-30T10:09:47Z</time>
      </trkpt>
      <trkpt lat="43.30504" lon="-1.48379">
        <ele>348.4</ele>
        <time>2022-08-30T10:09:48Z</time>
      </trkpt>
      <trkpt lat="43.30503" lon="-1.48376">
        <ele>348.8</ele>
        <time>2022-08-30T10:09:50Z</time>
      </trkpt>
      <trkpt lat="43.30501" lon="-1.4837">
        <ele>349.5</ele>
        <time>2022-08-30T10:09:51Z</time>
      </trkpt>
      <trkpt lat="43.305" lon="-1.48366">
        <ele>350</ele>
        <time>2022-08-30T10:09:52Z</time>
      </trkpt>
      <trkpt lat="43.30496" lon="-1.4836">
        <ele>350.8</ele>
        <time>2022-08-30T10:09:54Z</time>
      </trkpt>
      <trkpt lat="43.30493" lon="-1.48353">
        <ele>351.6</ele>
        <time>2022-08-30T10:09:56Z</time>
      </trkpt>
      <trkpt lat="43.30489" lon="-1.48347">
        <ele>352.3</ele>
        <time>2022-08-30T10:09:58Z</time>
      </trkpt>
      <trkpt lat="43.30485" lon="-1.48341">
        <ele>353</ele>
        <time>2022-08-30T10:10:00Z</time>
      </trkpt>
      <trkpt lat="43.30484" lon="-1.48338">
        <ele>353.4</ele>
        <time>2022-08-30T10:10:01Z</time>
      </trkpt>
      <trkpt lat="43.30482" lon="-1.48334">
        <ele>353.7</ele>
        <time>2022-08-30T10:10:02Z</time>
      </trkpt>
      <trkpt lat="43.30481" lon="-1.48331">
        <ele>354.1</ele>
        <time>2022-08-30T10:10:03Z</time>
      </trkpt>
      <trkpt lat="43.30479" lon="-1.48327">
        <ele>354.5</ele>
        <time>2022-08-30T10:10:04Z</time>
      </trkpt>
      <trkpt lat="43.30478" lon="-1.48324">
        <ele>354.9</ele>
        <time>2022-08-30T10:10:05Z</time>
      </trkpt>
      <trkpt lat="43.30476" lon="-1.48321">
        <ele>355.3</ele>
        <time>2022-08-30T10:10:06Z</time>
      </trkpt>
      <trkpt lat="43.30475" lon="-1.48318">
        <ele>355.7</ele>
        <time>2022-08-30T10:10:07Z</time>
      </trkpt>
      <trkpt lat="43.30472" lon="-1.48311">
        <ele>356.6</ele>
        <time>2022-08-30T10:10:09Z</time>
      </trkpt>
      <trkpt lat="43.3047" lon="-1.48308">
        <ele>357</ele>
        <time>2022-08-30T10:10:10Z</time>
      </trkpt>
      <trkpt lat="43.30469" lon="-1.48304">
        <ele>357.5</ele>
        <time>2022-08-30T10:10:11Z</time>
      </trkpt>
      <trkpt lat="43.30467" lon="-1.48301">
        <ele>357.9</ele>
        <time>2022-08-30T10:10:12Z</time>
      </trkpt>
      <trkpt lat="43.30465" lon="-1.48298">
        <ele>358.4</ele>
        <time>2022-08-30T10:10:13Z</time>
      </trkpt>
      <trkpt lat="43.30463" lon="-1.48294">
        <ele>359</ele>
        <time>2022-08-30T10:10:14Z</time>
      </trkpt>
      <trkpt lat="43.30462" lon="-1.48292">
        <ele>359.2</ele>
        <time>2022-08-30T10:10:15Z</time>
      </trkpt>
      <trkpt lat="43.30458" lon="-1.4829">
        <ele>359.9</ele>
        <time>2022-08-30T10:10:16Z</time>
      </trkpt>
      <trkpt lat="43.30457" lon="-1.48289">
        <ele>360.1</ele>
        <time>2022-08-30T10:10:17Z</time>
      </trkpt>
      <trkpt lat="43.30455" lon="-1.48288">
        <ele>360.5</ele>
        <time>2022-08-30T10:10:18Z</time>
      </trkpt>
      <trkpt lat="43.3045" lon="-1.48284">
        <ele>361.4</ele>
        <time>2022-08-30T10:10:20Z</time>
      </trkpt>
      <trkpt lat="43.30447" lon="-1.48283">
        <ele>361.9</ele>
        <time>2022-08-30T10:10:21Z</time>
      </trkpt>
      <trkpt lat="43.30444" lon="-1.48282">
        <ele>362.4</ele>
        <time>2022-08-30T10:10:22Z</time>
      </trkpt>
      <trkpt lat="43.30441" lon="-1.4828">
        <ele>363.1</ele>
        <time>2022-08-30T10:10:23Z</time>
      </trkpt>
      <trkpt lat="43.3044" lon="-1.48279">
        <ele>363.3</ele>
        <time>2022-08-30T10:10:24Z</time>
      </trkpt>
      <trkpt lat="43.30436" lon="-1.48278">
        <ele>364</ele>
        <time>2022-08-30T10:10:25Z</time>
      </trkpt>
      <trkpt lat="43.30435" lon="-1.48277">
        <ele>364.2</ele>
        <time>2022-08-30T10:10:26Z</time>
      </trkpt>
      <trkpt lat="43.30431" lon="-1.48276">
        <ele>364.9</ele>
        <time>2022-08-30T10:10:27Z</time>
      </trkpt>
      <trkpt lat="43.3043" lon="-1.48276">
        <ele>365.2</ele>
        <time>2022-08-30T10:10:28Z</time>
      </trkpt>
      <trkpt lat="43.30427" lon="-1.48275">
        <ele>365.6</ele>
        <time>2022-08-30T10:10:29Z</time>
      </trkpt>
      <trkpt lat="43.30422" lon="-1.48274">
        <ele>366.6</ele>
        <time>2022-08-30T10:10:31Z</time>
      </trkpt>
      <trkpt lat="43.3042" lon="-1.48274">
        <ele>367.1</ele>
        <time>2022-08-30T10:10:32Z</time>
      </trkpt>
      <trkpt lat="43.30416" lon="-1.48274">
        <ele>367.8</ele>
        <time>2022-08-30T10:10:33Z</time>
      </trkpt>
      <trkpt lat="43.30415" lon="-1.48274">
        <ele>368</ele>
        <time>2022-08-30T10:10:34Z</time>
      </trkpt>
      <trkpt lat="43.30411" lon="-1.48274">
        <ele>368.7</ele>
        <time>2022-08-30T10:10:35Z</time>
      </trkpt>
      <trkpt lat="43.3041" lon="-1.48274">
        <ele>369</ele>
        <time>2022-08-30T10:10:36Z</time>
      </trkpt>
      <trkpt lat="43.30407" lon="-1.48273">
        <ele>369.5</ele>
        <time>2022-08-30T10:10:37Z</time>
      </trkpt>
      <trkpt lat="43.30403" lon="-1.48273">
        <ele>370.2</ele>
        <time>2022-08-30T10:10:38Z</time>
      </trkpt>
      <trkpt lat="43.30402" lon="-1.48273">
        <ele>370.4</ele>
        <time>2022-08-30T10:10:39Z</time>
      </trkpt>
      <trkpt lat="43.304" lon="-1.48272">
        <ele>370.8</ele>
        <time>2022-08-30T10:10:40Z</time>
      </trkpt>
      <trkpt lat="43.30395" lon="-1.48272">
        <ele>371.5</ele>
        <time>2022-08-30T10:10:42Z</time>
      </trkpt>
      <trkpt lat="43.30392" lon="-1.48272">
        <ele>372</ele>
        <time>2022-08-30T10:10:43Z</time>
      </trkpt>
      <trkpt lat="43.30388" lon="-1.48272">
        <ele>372.6</ele>
        <time>2022-08-30T10:10:44Z</time>
      </trkpt>
      <trkpt lat="43.30387" lon="-1.48272">
        <ele>372.8</ele>
        <time>2022-08-30T10:10:45Z</time>
      </trkpt>
      <trkpt lat="43.30383" lon="-1.48271">
        <ele>373.5</ele>
        <time>2022-08-30T10:10:46Z</time>
      </trkpt>
      <trkpt lat="43.30382" lon="-1.48271">
        <ele>373.7</ele>
        <time>2022-08-30T10:10:47Z</time>
      </trkpt>
      <trkpt lat="43.30379" lon="-1.48269">
        <ele>374.4</ele>
        <time>2022-08-30T10:10:48Z</time>
      </trkpt>
      <trkpt lat="43.30377" lon="-1.48269">
        <ele>374.7</ele>
        <time>2022-08-30T10:10:49Z</time>
      </trkpt>
      <trkpt lat="43.30374" lon="-1.48267">
        <ele>375.3</ele>
        <time>2022-08-30T10:10:50Z</time>
      </trkpt>
      <trkpt lat="43.30373" lon="-1.48266">
        <ele>375.5</ele>
        <time>2022-08-30T10:10:51Z</time>
      </trkpt>
      <trkpt lat="43.30369" lon="-1.48262">
        <ele>376.5</ele>
        <time>2022-08-30T10:10:53Z</time>
      </trkpt>
      <trkpt lat="43.30367" lon="-1.48259">
        <ele>377.1</ele>
        <time>2022-08-30T10:10:54Z</time>
      </trkpt>
      <trkpt lat="43.30366" lon="-1.48258">
        <ele>377.3</ele>
        <time>2022-08-30T10:10:55Z</time>
      </trkpt>
      <trkpt lat="43.30365" lon="-1.48256">
        <ele>377.6</ele>
        <time>2022-08-30T10:10:56Z</time>
      </trkpt>
      <trkpt lat="43.30364" lon="-1.48255">
        <ele>378</ele>
        <time>2022-08-30T10:10:57Z</time>
      </trkpt>
      <trkpt lat="43.30362" lon="-1.48251">
        <ele>378.7</ele>
        <time>2022-08-30T10:10:58Z</time>
      </trkpt>
      <trkpt lat="43.30362" lon="-1.48249">
        <ele>378.9</ele>
        <time>2022-08-30T10:10:59Z</time>
      </trkpt>
      <trkpt lat="43.3036" lon="-1.48245">
        <ele>379.6</ele>
        <time>2022-08-30T10:11:00Z</time>
      </trkpt>
      <trkpt lat="43.3036" lon="-1.48244">
        <ele>379.8</ele>
        <time>2022-08-30T10:11:01Z</time>
      </trkpt>
      <trkpt lat="43.30359" lon="-1.48242">
        <ele>380.2</ele>
        <time>2022-08-30T10:11:02Z</time>
      </trkpt>
      <trkpt lat="43.30356" lon="-1.48239">
        <ele>380.8</ele>
        <time>2022-08-30T10:11:04Z</time>
      </trkpt>
      <trkpt lat="43.30355" lon="-1.48237">
        <ele>381.2</ele>
        <time>2022-08-30T10:11:05Z</time>
      </trkpt>
      <trkpt lat="43.30355" lon="-1.48235">
        <ele>381.6</ele>
        <time>2022-08-30T10:11:06Z</time>
      </trkpt>
      <trkpt lat="43.30354" lon="-1.48233">
        <ele>381.9</ele>
        <time>2022-08-30T10:11:07Z</time>
      </trkpt>
      <trkpt lat="43.30353" lon="-1.48231">
        <ele>382.2</ele>
        <time>2022-08-30T10:11:08Z</time>
      </trkpt>
      <trkpt lat="43.30353" lon="-1.48229">
        <ele>382.5</ele>
        <time>2022-08-30T10:11:09Z</time>
      </trkpt>
      <trkpt lat="43.30353" lon="-1.48228">
        <ele>382.6</ele>
        <time>2022-08-30T10:11:10Z</time>
      </trkpt>
      <trkpt lat="43.30352" lon="-1.48228">
        <ele>382.7</ele>
        <time>2022-08-30T10:11:11Z</time>
      </trkpt>
      <trkpt lat="43.30353" lon="-1.48229">
        <ele>382.8</ele>
        <time>2022-08-30T10:11:12Z</time>
      </trkpt>
      <trkpt lat="43.30353" lon="-1.48229">
        <ele>382.8</ele>
        <time>2022-08-30T10:11:13Z</time>
      </trkpt>
      <trkpt lat="43.30353" lon="-1.48229">
        <ele>382.9</ele>
        <time>2022-08-30T10:11:15Z</time>
      </trkpt>
      <trkpt lat="43.30353" lon="-1.48229">
        <ele>382.9</ele>
        <time>2022-08-30T10:11:16Z</time>
      </trkpt>
      <trkpt lat="43.30353" lon="-1.48229">
        <ele>382.9</ele>
        <time>2022-08-30T10:11:17Z</time>
      </trkpt>
      <trkpt lat="43.30353" lon="-1.48229">
        <ele>382.9</ele>
        <time>2022-08-30T10:11:18Z</time>
      </trkpt>
      <trkpt lat="43.30353" lon="-1.48229">
        <ele>382.9</ele>
        <time>2022-08-30T10:11:19Z</time>
      </trkpt>
      <trkpt lat="43.30353" lon="-1.48229">
        <ele>382.9</ele>
        <time>2022-08-30T10:11:20Z</time>
      </trkpt>
      <trkpt lat="43.30353" lon="-1.4822">
        <ele>383.7</ele>
        <time>2022-08-30T10:11:39Z</time>
      </trkpt>
      <trkpt lat="43.30353" lon="-1.48219">
        <ele>383.7</ele>
        <time>2022-08-30T10:11:40Z</time>
      </trkpt>
      <trkpt lat="43.30352" lon="-1.48218">
        <ele>383.6</ele>
        <time>2022-08-30T10:11:41Z</time>
      </trkpt>
      <trkpt lat="43.30352" lon="-1.48218">
        <ele>383.6</ele>
        <time>2022-08-30T10:11:42Z</time>
      </trkpt>
      <trkpt lat="43.30351" lon="-1.48218">
        <ele>383.6</ele>
        <time>2022-08-30T10:11:43Z</time>
      </trkpt>
      <trkpt lat="43.3035" lon="-1.48217">
        <ele>383.6</ele>
        <time>2022-08-30T10:11:44Z</time>
      </trkpt>
      <trkpt lat="43.30349" lon="-1.48216">
        <ele>383.5</ele>
        <time>2022-08-30T10:11:45Z</time>
      </trkpt>
      <trkpt lat="43.30349" lon="-1.48215">
        <ele>383.5</ele>
        <time>2022-08-30T10:11:46Z</time>
      </trkpt>
      <trkpt lat="43.30348" lon="-1.48214">
        <ele>383.5</ele>
        <time>2022-08-30T10:11:47Z</time>
      </trkpt>
      <trkpt lat="43.30348" lon="-1.48212">
        <ele>383.4</ele>
        <time>2022-08-30T10:11:48Z</time>
      </trkpt>
      <trkpt lat="43.30347" lon="-1.48211">
        <ele>383.4</ele>
        <time>2022-08-30T10:11:49Z</time>
      </trkpt>
      <trkpt lat="43.30346" lon="-1.4821">
        <ele>383.4</ele>
        <time>2022-08-30T10:11:50Z</time>
      </trkpt>
      <trkpt lat="43.30346" lon="-1.48209">
        <ele>383.3</ele>
        <time>2022-08-30T10:11:51Z</time>
      </trkpt>
      <trkpt lat="43.30345" lon="-1.48208">
        <ele>383.3</ele>
        <time>2022-08-30T10:11:52Z</time>
      </trkpt>
      <trkpt lat="43.30345" lon="-1.48207">
        <ele>383.3</ele>
        <time>2022-08-30T10:11:53Z</time>
      </trkpt>
      <trkpt lat="43.30344" lon="-1.48206">
        <ele>383.3</ele>
        <time>2022-08-30T10:11:54Z</time>
      </trkpt>
      <trkpt lat="43.30344" lon="-1.48205">
        <ele>383.2</ele>
        <time>2022-08-30T10:11:55Z</time>
      </trkpt>
      <trkpt lat="43.30344" lon="-1.48204">
        <ele>383.2</ele>
        <time>2022-08-30T10:11:56Z</time>
      </trkpt>
      <trkpt lat="43.30344" lon="-1.48203">
        <ele>383.2</ele>
        <time>2022-08-30T10:11:57Z</time>
      </trkpt>
      <trkpt lat="43.30343" lon="-1.48203">
        <ele>383.2</ele>
        <time>2022-08-30T10:11:58Z</time>
      </trkpt>
      <trkpt lat="43.30343" lon="-1.48202">
        <ele>383.2</ele>
        <time>2022-08-30T10:11:59Z</time>
      </trkpt>
      <trkpt lat="43.30343" lon="-1.48202">
        <ele>383.2</ele>
        <time>2022-08-30T10:12:00Z</time>
      </trkpt>
      <trkpt lat="43.30343" lon="-1.48201">
        <ele>383.1</ele>
        <time>2022-08-30T10:12:01Z</time>
      </trkpt>
      <trkpt lat="43.30343" lon="-1.48201">
        <ele>383.1</ele>
        <time>2022-08-30T10:12:02Z</time>
      </trkpt>
      <trkpt lat="43.30342" lon="-1.482">
        <ele>383.1</ele>
        <time>2022-08-30T10:12:03Z</time>
      </trkpt>
      <trkpt lat="43.30342" lon="-1.48199">
        <ele>383.1</ele>
        <time>2022-08-30T10:12:04Z</time>
      </trkpt>
      <trkpt lat="43.30342" lon="-1.48199">
        <ele>383.1</ele>
        <time>2022-08-30T10:12:05Z</time>
      </trkpt>
      <trkpt lat="43.30342" lon="-1.48199">
        <ele>383.1</ele>
        <time>2022-08-30T10:12:06Z</time>
      </trkpt>
      <trkpt lat="43.30342" lon="-1.48199">
        <ele>383.1</ele>
        <time>2022-08-30T10:12:07Z</time>
      </trkpt>
      <trkpt lat="43.30342" lon="-1.48199">
        <ele>383.1</ele>
        <time>2022-08-30T10:12:08Z</time>
      </trkpt>
      <trkpt lat="43.30342" lon="-1.48199">
        <ele>383.1</ele>
        <time>2022-08-30T10:12:09Z</time>
      </trkpt>
      <trkpt lat="43.30342" lon="-1.48199">
        <ele>383</ele>
        <time>2022-08-30T10:12:10Z</time>
      </trkpt>
      <trkpt lat="43.30342" lon="-1.48198">
        <ele>383</ele>
        <time>2022-08-30T10:12:11Z</time>
      </trkpt>
      <trkpt lat="43.30342" lon="-1.48197">
        <ele>383</ele>
        <time>2022-08-30T10:12:12Z</time>
      </trkpt>
      <trkpt lat="43.30342" lon="-1.48197">
        <ele>383</ele>
        <time>2022-08-30T10:12:13Z</time>
      </trkpt>
      <trkpt lat="43.30345" lon="-1.48197">
        <ele>382.9</ele>
        <time>2022-08-30T10:12:36Z</time>
      </trkpt>
      <trkpt lat="43.30346" lon="-1.48198">
        <ele>382.9</ele>
        <time>2022-08-30T10:12:37Z</time>
      </trkpt>
      <trkpt lat="43.30347" lon="-1.48199">
        <ele>382.8</ele>
        <time>2022-08-30T10:12:38Z</time>
      </trkpt>
      <trkpt lat="43.30348" lon="-1.48199">
        <ele>382.8</ele>
        <time>2022-08-30T10:12:39Z</time>
      </trkpt>
      <trkpt lat="43.30348" lon="-1.482">
        <ele>382.8</ele>
        <time>2022-08-30T10:12:40Z</time>
      </trkpt>
      <trkpt lat="43.30348" lon="-1.48202">
        <ele>382.7</ele>
        <time>2022-08-30T10:12:41Z</time>
      </trkpt>
      <trkpt lat="43.30349" lon="-1.48203">
        <ele>382.7</ele>
        <time>2022-08-30T10:12:42Z</time>
      </trkpt>
      <trkpt lat="43.30349" lon="-1.48204">
        <ele>382.7</ele>
        <time>2022-08-30T10:12:43Z</time>
      </trkpt>
      <trkpt lat="43.30349" lon="-1.48204">
        <ele>382.7</ele>
        <time>2022-08-30T10:12:44Z</time>
      </trkpt>
      <trkpt lat="43.30349" lon="-1.48205">
        <ele>382.6</ele>
        <time>2022-08-30T10:12:45Z</time>
      </trkpt>
      <trkpt lat="43.30349" lon="-1.48206">
        <ele>382.6</ele>
        <time>2022-08-30T10:12:46Z</time>
      </trkpt>
      <trkpt lat="43.30349" lon="-1.48207">
        <ele>382.6</ele>
        <time>2022-08-30T10:12:47Z</time>
      </trkpt>
      <trkpt lat="43.30349" lon="-1.48208">
        <ele>382.6</ele>
        <time>2022-08-30T10:12:48Z</time>
      </trkpt>
      <trkpt lat="43.30349" lon="-1.48209">
        <ele>382.5</ele>
        <time>2022-08-30T10:12:49Z</time>
      </trkpt>
      <trkpt lat="43.30349" lon="-1.4821">
        <ele>382.5</ele>
        <time>2022-08-30T10:12:50Z</time>
      </trkpt>
      <trkpt lat="43.3035" lon="-1.48211">
        <ele>382.5</ele>
        <time>2022-08-30T10:12:51Z</time>
      </trkpt>
      <trkpt lat="43.3035" lon="-1.48211">
        <ele>382.5</ele>
        <time>2022-08-30T10:12:52Z</time>
      </trkpt>
      <trkpt lat="43.3035" lon="-1.48211">
        <ele>382.5</ele>
        <time>2022-08-30T10:12:53Z</time>
      </trkpt>
      <trkpt lat="43.3035" lon="-1.48211">
        <ele>382.5</ele>
        <time>2022-08-30T10:12:54Z</time>
      </trkpt>
      <trkpt lat="43.3035" lon="-1.48211">
        <ele>382.5</ele>
        <time>2022-08-30T10:12:55Z</time>
      </trkpt>
      <trkpt lat="43.30351" lon="-1.48212">
        <ele>382.4</ele>
        <time>2022-08-30T10:12:56Z</time>
      </trkpt>
      <trkpt lat="43.30351" lon="-1.48212">
        <ele>382.4</ele>
        <time>2022-08-30T10:12:57Z</time>
      </trkpt>
      <trkpt lat="43.30352" lon="-1.48213">
        <ele>382.4</ele>
        <time>2022-08-30T10:12:58Z</time>
      </trkpt>
      <trkpt lat="43.30352" lon="-1.48214">
        <ele>382.4</ele>
        <time>2022-08-30T10:12:59Z</time>
      </trkpt>
      <trkpt lat="43.30353" lon="-1.48215">
        <ele>382.3</ele>
        <time>2022-08-30T10:13:00Z</time>
      </trkpt>
      <trkpt lat="43.30353" lon="-1.48216">
        <ele>382.3</ele>
        <time>2022-08-30T10:13:01Z</time>
      </trkpt>
      <trkpt lat="43.30354" lon="-1.48217">
        <ele>382.3</ele>
        <time>2022-08-30T10:13:02Z</time>
      </trkpt>
      <trkpt lat="43.30354" lon="-1.48218">
        <ele>382.3</ele>
        <time>2022-08-30T10:13:03Z</time>
      </trkpt>
      <trkpt lat="43.30354" lon="-1.48219">
        <ele>382.2</ele>
        <time>2022-08-30T10:13:04Z</time>
      </trkpt>
      <trkpt lat="43.30354" lon="-1.4822">
        <ele>382.2</ele>
        <time>2022-08-30T10:13:05Z</time>
      </trkpt>
      <trkpt lat="43.30354" lon="-1.48221">
        <ele>382.2</ele>
        <time>2022-08-30T10:13:06Z</time>
      </trkpt>
      <trkpt lat="43.30355" lon="-1.48221">
        <ele>382.2</ele>
        <time>2022-08-30T10:13:07Z</time>
      </trkpt>
      <trkpt lat="43.30355" lon="-1.48222">
        <ele>382.1</ele>
        <time>2022-08-30T10:13:08Z</time>
      </trkpt>
      <trkpt lat="43.30355" lon="-1.48223">
        <ele>382.1</ele>
        <time>2022-08-30T10:13:09Z</time>
      </trkpt>
      <trkpt lat="43.30355" lon="-1.48223">
        <ele>382.1</ele>
        <time>2022-08-30T10:13:10Z</time>
      </trkpt>
      <trkpt lat="43.30355" lon="-1.48224">
        <ele>382.1</ele>
        <time>2022-08-30T10:13:11Z</time>
      </trkpt>
      <trkpt lat="43.30355" lon="-1.48224">
        <ele>382.1</ele>
        <time>2022-08-30T10:13:12Z</time>
      </trkpt>
      <trkpt lat="43.30355" lon="-1.48225">
        <ele>382.1</ele>
        <time>2022-08-30T10:13:13Z</time>
      </trkpt>
      <trkpt lat="43.30355" lon="-1.48225">
        <ele>382.1</ele>
        <time>2022-08-30T10:13:14Z</time>
      </trkpt>
      <trkpt lat="43.30355" lon="-1.48225">
        <ele>382.1</ele>
        <time>2022-08-30T10:13:15Z</time>
      </trkpt>
      <trkpt lat="43.30353" lon="-1.48229">
        <ele>381.9</ele>
        <time>2022-08-30T10:15:39Z</time>
      </trkpt>
      <trkpt lat="43.30352" lon="-1.4823">
        <ele>381.9</ele>
        <time>2022-08-30T10:15:40Z</time>
      </trkpt>
      <trkpt lat="43.30352" lon="-1.48231">
        <ele>381.9</ele>
        <time>2022-08-30T10:15:41Z</time>
      </trkpt>
      <trkpt lat="43.30351" lon="-1.48233">
        <ele>381.8</ele>
        <time>2022-08-30T10:15:42Z</time>
      </trkpt>
      <trkpt lat="43.3035" lon="-1.48234">
        <ele>381.8</ele>
        <time>2022-08-30T10:15:43Z</time>
      </trkpt>
      <trkpt lat="43.3035" lon="-1.48235">
        <ele>381.7</ele>
        <time>2022-08-30T10:15:44Z</time>
      </trkpt>
      <trkpt lat="43.30349" lon="-1.48235">
        <ele>381.7</ele>
        <time>2022-08-30T10:15:46Z</time>
      </trkpt>
      <trkpt lat="43.30348" lon="-1.48236">
        <ele>381.7</ele>
        <time>2022-08-30T10:15:47Z</time>
      </trkpt>
      <trkpt lat="43.30347" lon="-1.48236">
        <ele>381.6</ele>
        <time>2022-08-30T10:15:48Z</time>
      </trkpt>
      <trkpt lat="43.30347" lon="-1.48236">
        <ele>381.6</ele>
        <time>2022-08-30T10:15:49Z</time>
      </trkpt>
      <trkpt lat="43.30346" lon="-1.48237">
        <ele>381.6</ele>
        <time>2022-08-30T10:15:50Z</time>
      </trkpt>
      <trkpt lat="43.30345" lon="-1.48237">
        <ele>381.6</ele>
        <time>2022-08-30T10:15:51Z</time>
      </trkpt>
      <trkpt lat="43.30345" lon="-1.48238">
        <ele>381.6</ele>
        <time>2022-08-30T10:15:52Z</time>
      </trkpt>
      <trkpt lat="43.30345" lon="-1.48237">
        <ele>381.5</ele>
        <time>2022-08-30T10:15:53Z</time>
      </trkpt>
      <trkpt lat="43.30345" lon="-1.48238">
        <ele>381.5</ele>
        <time>2022-08-30T10:15:54Z</time>
      </trkpt>
      <trkpt lat="43.30345" lon="-1.48238">
        <ele>381.5</ele>
        <time>2022-08-30T10:15:55Z</time>
      </trkpt>
      <trkpt lat="43.30345" lon="-1.48238">
        <ele>381.5</ele>
        <time>2022-08-30T10:15:56Z</time>
      </trkpt>
      <trkpt lat="43.30345" lon="-1.48238">
        <ele>381.5</ele>
        <time>2022-08-30T10:15:58Z</time>
      </trkpt>
      <trkpt lat="43.30344" lon="-1.48238">
        <ele>381.5</ele>
        <time>2022-08-30T10:15:59Z</time>
      </trkpt>
      <trkpt lat="43.30344" lon="-1.48238">
        <ele>381.5</ele>
        <time>2022-08-30T10:16:00Z</time>
      </trkpt>
      <trkpt lat="43.30345" lon="-1.48238">
        <ele>381.5</ele>
        <time>2022-08-30T10:16:01Z</time>
      </trkpt>
      <trkpt lat="43.30345" lon="-1.48238">
        <ele>381.5</ele>
        <time>2022-08-30T10:16:02Z</time>
      </trkpt>
      <trkpt lat="43.30345" lon="-1.48238">
        <ele>381.5</ele>
        <time>2022-08-30T10:16:03Z</time>
      </trkpt>
      <trkpt lat="43.30345" lon="-1.48238">
        <ele>381.5</ele>
        <time>2022-08-30T10:16:04Z</time>
      </trkpt>
      <trkpt lat="43.30345" lon="-1.48238">
        <ele>381.5</ele>
        <time>2022-08-30T10:16:05Z</time>
      </trkpt>
      <trkpt lat="43.30345" lon="-1.48238">
        <ele>381.5</ele>
        <time>2022-08-30T10:16:06Z</time>
      </trkpt>
      <trkpt lat="43.30345" lon="-1.48238">
        <ele>381.5</ele>
        <time>2022-08-30T10:16:07Z</time>
      </trkpt>
      <trkpt lat="43.30345" lon="-1.48238">
        <ele>381.5</ele>
        <time>2022-08-30T10:16:08Z</time>
      </trkpt>
      <trkpt lat="43.30345" lon="-1.48242">
        <ele>381.4</ele>
        <time>2022-08-30T10:18:19Z</time>
      </trkpt>
      <trkpt lat="43.30346" lon="-1.48243">
        <ele>381.4</ele>
        <time>2022-08-30T10:18:20Z</time>
      </trkpt>
      <trkpt lat="43.30346" lon="-1.48244">
        <ele>381.3</ele>
        <time>2022-08-30T10:18:21Z</time>
      </trkpt>
      <trkpt lat="43.30346" lon="-1.48245">
        <ele>381.3</ele>
        <time>2022-08-30T10:18:22Z</time>
      </trkpt>
      <trkpt lat="43.30345" lon="-1.48246">
        <ele>381.3</ele>
        <time>2022-08-30T10:18:23Z</time>
      </trkpt>
      <trkpt lat="43.30345" lon="-1.48246">
        <ele>381.3</ele>
        <time>2022-08-30T10:18:24Z</time>
      </trkpt>
      <trkpt lat="43.30344" lon="-1.48247">
        <ele>381.2</ele>
        <time>2022-08-30T10:18:25Z</time>
      </trkpt>
      <trkpt lat="43.30344" lon="-1.48248">
        <ele>381.2</ele>
        <time>2022-08-30T10:18:26Z</time>
      </trkpt>
      <trkpt lat="43.30344" lon="-1.48249">
        <ele>381.2</ele>
        <time>2022-08-30T10:18:27Z</time>
      </trkpt>
      <trkpt lat="43.30344" lon="-1.48251">
        <ele>381.1</ele>
        <time>2022-08-30T10:18:28Z</time>
      </trkpt>
      <trkpt lat="43.30344" lon="-1.48251">
        <ele>381.1</ele>
        <time>2022-08-30T10:18:29Z</time>
      </trkpt>
      <trkpt lat="43.30343" lon="-1.48252">
        <ele>381.1</ele>
        <time>2022-08-30T10:18:30Z</time>
      </trkpt>
      <trkpt lat="43.30342" lon="-1.48253">
        <ele>381.1</ele>
        <time>2022-08-30T10:18:31Z</time>
      </trkpt>
      <trkpt lat="43.30342" lon="-1.48254">
        <ele>381</ele>
        <time>2022-08-30T10:18:32Z</time>
      </trkpt>
      <trkpt lat="43.30341" lon="-1.48255">
        <ele>381</ele>
        <time>2022-08-30T10:18:33Z</time>
      </trkpt>
      <trkpt lat="43.30341" lon="-1.48256">
        <ele>380.9</ele>
        <time>2022-08-30T10:18:34Z</time>
      </trkpt>
      <trkpt lat="43.30341" lon="-1.48256">
        <ele>380.9</ele>
        <time>2022-08-30T10:18:35Z</time>
      </trkpt>
      <trkpt lat="43.30341" lon="-1.48258">
        <ele>381</ele>
        <time>2022-08-30T10:18:36Z</time>
      </trkpt>
      <trkpt lat="43.30341" lon="-1.48259">
        <ele>381</ele>
        <time>2022-08-30T10:18:37Z</time>
      </trkpt>
      <trkpt lat="43.30341" lon="-1.48259">
        <ele>381.1</ele>
        <time>2022-08-30T10:18:38Z</time>
      </trkpt>
      <trkpt lat="43.3034" lon="-1.48259">
        <ele>381.1</ele>
        <time>2022-08-30T10:18:39Z</time>
      </trkpt>
      <trkpt lat="43.3034" lon="-1.48259">
        <ele>381.1</ele>
        <time>2022-08-30T10:18:40Z</time>
      </trkpt>
      <trkpt lat="43.3034" lon="-1.48259">
        <ele>381.1</ele>
        <time>2022-08-30T10:18:41Z</time>
      </trkpt>
      <trkpt lat="43.3034" lon="-1.48259">
        <ele>381.1</ele>
        <time>2022-08-30T10:18:42Z</time>
      </trkpt>
      <trkpt lat="43.3034" lon="-1.48259">
        <ele>381.1</ele>
        <time>2022-08-30T10:18:43Z</time>
      </trkpt>
      <trkpt lat="43.3034" lon="-1.48259">
        <ele>381.1</ele>
        <time>2022-08-30T10:18:44Z</time>
      </trkpt>
      <trkpt lat="43.3034" lon="-1.48259">
        <ele>381.1</ele>
        <time>2022-08-30T10:18:45Z</time>
      </trkpt>
      <trkpt lat="43.3034" lon="-1.48259">
        <ele>381.1</ele>
        <time>2022-08-30T10:18:46Z</time>
      </trkpt>
      <trkpt lat="43.3034" lon="-1.48259">
        <ele>381.1</ele>
        <time>2022-08-30T10:18:47Z</time>
      </trkpt>
      <trkpt lat="43.3034" lon="-1.48259">
        <ele>381.1</ele>
        <time>2022-08-30T10:18:48Z</time>
      </trkpt>
      <trkpt lat="43.3034" lon="-1.48259">
        <ele>381.1</ele>
        <time>2022-08-30T10:18:49Z</time>
      </trkpt>
      <trkpt lat="43.30338" lon="-1.48259">
        <ele>381.2</ele>
        <time>2022-08-30T10:18:54Z</time>
      </trkpt>
      <trkpt lat="43.30337" lon="-1.4826">
        <ele>381.3</ele>
        <time>2022-08-30T10:18:55Z</time>
      </trkpt>
      <trkpt lat="43.30337" lon="-1.4826">
        <ele>381.3</ele>
        <time>2022-08-30T10:18:56Z</time>
      </trkpt>
      <trkpt lat="43.30336" lon="-1.4826">
        <ele>381.4</ele>
        <time>2022-08-30T10:18:57Z</time>
      </trkpt>
      <trkpt lat="43.30336" lon="-1.4826">
        <ele>381.4</ele>
        <time>2022-08-30T10:18:58Z</time>
      </trkpt>
      <trkpt lat="43.30335" lon="-1.4826">
        <ele>381.4</ele>
        <time>2022-08-30T10:18:59Z</time>
      </trkpt>
      <trkpt lat="43.30334" lon="-1.4826">
        <ele>381.4</ele>
        <time>2022-08-30T10:19:00Z</time>
      </trkpt>
      <trkpt lat="43.30334" lon="-1.4826">
        <ele>381.5</ele>
        <time>2022-08-30T10:19:01Z</time>
      </trkpt>
      <trkpt lat="43.30333" lon="-1.48259">
        <ele>381.5</ele>
        <time>2022-08-30T10:19:02Z</time>
      </trkpt>
      <trkpt lat="43.30332" lon="-1.48259">
        <ele>381.6</ele>
        <time>2022-08-30T10:19:03Z</time>
      </trkpt>
      <trkpt lat="43.30332" lon="-1.48259">
        <ele>381.6</ele>
        <time>2022-08-30T10:19:04Z</time>
      </trkpt>
      <trkpt lat="43.30332" lon="-1.4826">
        <ele>381.6</ele>
        <time>2022-08-30T10:19:05Z</time>
      </trkpt>
      <trkpt lat="43.30331" lon="-1.4826">
        <ele>381.6</ele>
        <time>2022-08-30T10:19:06Z</time>
      </trkpt>
      <trkpt lat="43.30331" lon="-1.48261">
        <ele>381.7</ele>
        <time>2022-08-30T10:19:07Z</time>
      </trkpt>
      <trkpt lat="43.30331" lon="-1.48261">
        <ele>381.7</ele>
        <time>2022-08-30T10:19:08Z</time>
      </trkpt>
      <trkpt lat="43.30331" lon="-1.48261">
        <ele>381.7</ele>
        <time>2022-08-30T10:19:09Z</time>
      </trkpt>
      <trkpt lat="43.30331" lon="-1.48261">
        <ele>381.7</ele>
        <time>2022-08-30T10:19:10Z</time>
      </trkpt>
      <trkpt lat="43.30331" lon="-1.48261">
        <ele>381.7</ele>
        <time>2022-08-30T10:19:11Z</time>
      </trkpt>
      <trkpt lat="43.30331" lon="-1.48261">
        <ele>381.7</ele>
        <time>2022-08-30T10:19:12Z</time>
      </trkpt>
      <trkpt lat="43.30331" lon="-1.48261">
        <ele>381.7</ele>
        <time>2022-08-30T10:19:13Z</time>
      </trkpt>
      <trkpt lat="43.30332" lon="-1.48261">
        <ele>381.7</ele>
        <time>2022-08-30T10:19:14Z</time>
      </trkpt>
      <trkpt lat="43.30333" lon="-1.48262">
        <ele>381.7</ele>
        <time>2022-08-30T10:19:15Z</time>
      </trkpt>
      <trkpt lat="43.30333" lon="-1.48262">
        <ele>381.8</ele>
        <time>2022-08-30T10:19:16Z</time>
      </trkpt>
      <trkpt lat="43.30333" lon="-1.48262">
        <ele>381.8</ele>
        <time>2022-08-30T10:19:17Z</time>
      </trkpt>
      <trkpt lat="43.30335" lon="-1.48261">
        <ele>381.9</ele>
        <time>2022-08-30T10:19:27Z</time>
      </trkpt>
      <trkpt lat="43.30336" lon="-1.48261">
        <ele>381.9</ele>
        <time>2022-08-30T10:19:28Z</time>
      </trkpt>
      <trkpt lat="43.30336" lon="-1.48261">
        <ele>381.9</ele>
        <time>2022-08-30T10:19:29Z</time>
      </trkpt>
      <trkpt lat="43.30336" lon="-1.4826">
        <ele>382</ele>
        <time>2022-08-30T10:19:30Z</time>
      </trkpt>
      <trkpt lat="43.30337" lon="-1.48259">
        <ele>382</ele>
        <time>2022-08-30T10:19:31Z</time>
      </trkpt>
      <trkpt lat="43.30338" lon="-1.48258">
        <ele>382.1</ele>
        <time>2022-08-30T10:19:32Z</time>
      </trkpt>
      <trkpt lat="43.30338" lon="-1.48256">
        <ele>382.1</ele>
        <time>2022-08-30T10:19:33Z</time>
      </trkpt>
      <trkpt lat="43.30338" lon="-1.48255">
        <ele>382.2</ele>
        <time>2022-08-30T10:19:34Z</time>
      </trkpt>
      <trkpt lat="43.30339" lon="-1.48253">
        <ele>382.3</ele>
        <time>2022-08-30T10:19:35Z</time>
      </trkpt>
      <trkpt lat="43.30339" lon="-1.48252">
        <ele>382.3</ele>
        <time>2022-08-30T10:19:36Z</time>
      </trkpt>
      <trkpt lat="43.3034" lon="-1.48252">
        <ele>382.3</ele>
        <time>2022-08-30T10:19:37Z</time>
      </trkpt>
      <trkpt lat="43.3034" lon="-1.48251">
        <ele>382.4</ele>
        <time>2022-08-30T10:19:38Z</time>
      </trkpt>
      <trkpt lat="43.30341" lon="-1.4825">
        <ele>382.4</ele>
        <time>2022-08-30T10:19:39Z</time>
      </trkpt>
      <trkpt lat="43.30342" lon="-1.4825">
        <ele>382.5</ele>
        <time>2022-08-30T10:19:40Z</time>
      </trkpt>
      <trkpt lat="43.30343" lon="-1.48249">
        <ele>382.5</ele>
        <time>2022-08-30T10:19:41Z</time>
      </trkpt>
      <trkpt lat="43.30343" lon="-1.48248">
        <ele>382.6</ele>
        <time>2022-08-30T10:19:42Z</time>
      </trkpt>
      <trkpt lat="43.30344" lon="-1.48247">
        <ele>382.6</ele>
        <time>2022-08-30T10:19:43Z</time>
      </trkpt>
      <trkpt lat="43.30345" lon="-1.48246">
        <ele>382.6</ele>
        <time>2022-08-30T10:19:44Z</time>
      </trkpt>
      <trkpt lat="43.30345" lon="-1.48245">
        <ele>382.7</ele>
        <time>2022-08-30T10:19:45Z</time>
      </trkpt>
      <trkpt lat="43.30345" lon="-1.48244">
        <ele>382.7</ele>
        <time>2022-08-30T10:19:46Z</time>
      </trkpt>
      <trkpt lat="43.30346" lon="-1.48243">
        <ele>382.8</ele>
        <time>2022-08-30T10:19:47Z</time>
      </trkpt>
      <trkpt lat="43.30346" lon="-1.48242">
        <ele>382.8</ele>
        <time>2022-08-30T10:19:48Z</time>
      </trkpt>
      <trkpt lat="43.30347" lon="-1.48241">
        <ele>382.8</ele>
        <time>2022-08-30T10:19:49Z</time>
      </trkpt>
      <trkpt lat="43.30347" lon="-1.48241">
        <ele>382.9</ele>
        <time>2022-08-30T10:19:50Z</time>
      </trkpt>
      <trkpt lat="43.30347" lon="-1.48241">
        <ele>382.9</ele>
        <time>2022-08-30T10:19:51Z</time>
      </trkpt>
      <trkpt lat="43.30347" lon="-1.4824">
        <ele>382.9</ele>
        <time>2022-08-30T10:19:52Z</time>
      </trkpt>
      <trkpt lat="43.30347" lon="-1.4824">
        <ele>382.9</ele>
        <time>2022-08-30T10:19:53Z</time>
      </trkpt>
      <trkpt lat="43.30346" lon="-1.4824">
        <ele>382.9</ele>
        <time>2022-08-30T10:19:54Z</time>
      </trkpt>
      <trkpt lat="43.30346" lon="-1.4824">
        <ele>382.9</ele>
        <time>2022-08-30T10:19:55Z</time>
      </trkpt>
      <trkpt lat="43.30346" lon="-1.4824">
        <ele>382.9</ele>
        <time>2022-08-30T10:19:56Z</time>
      </trkpt>
      <trkpt lat="43.30346" lon="-1.4824">
        <ele>382.9</ele>
        <time>2022-08-30T10:19:57Z</time>
      </trkpt>
      <trkpt lat="43.30346" lon="-1.48239">
        <ele>382.9</ele>
        <time>2022-08-30T10:19:58Z</time>
      </trkpt>
      <trkpt lat="43.30346" lon="-1.48239">
        <ele>382.9</ele>
        <time>2022-08-30T10:19:59Z</time>
      </trkpt>
      <trkpt lat="43.30346" lon="-1.48239">
        <ele>382.9</ele>
        <time>2022-08-30T10:20:00Z</time>
      </trkpt>
      <trkpt lat="43.30345" lon="-1.48235">
        <ele>383.1</ele>
        <time>2022-08-30T10:22:20Z</time>
      </trkpt>
      <trkpt lat="43.30345" lon="-1.48235">
        <ele>383.1</ele>
        <time>2022-08-30T10:22:21Z</time>
      </trkpt>
      <trkpt lat="43.30345" lon="-1.48234">
        <ele>383.1</ele>
        <time>2022-08-30T10:22:22Z</time>
      </trkpt>
      <trkpt lat="43.30345" lon="-1.48234">
        <ele>383.1</ele>
        <time>2022-08-30T10:22:23Z</time>
      </trkpt>
      <trkpt lat="43.30345" lon="-1.48233">
        <ele>383.2</ele>
        <time>2022-08-30T10:22:24Z</time>
      </trkpt>
      <trkpt lat="43.30345" lon="-1.48233">
        <ele>383.2</ele>
        <time>2022-08-30T10:22:25Z</time>
      </trkpt>
      <trkpt lat="43.30345" lon="-1.48234">
        <ele>383.2</ele>
        <time>2022-08-30T10:22:26Z</time>
      </trkpt>
      <trkpt lat="43.30346" lon="-1.48234">
        <ele>383.2</ele>
        <time>2022-08-30T10:22:27Z</time>
      </trkpt>
      <trkpt lat="43.30347" lon="-1.48233">
        <ele>383.3</ele>
        <time>2022-08-30T10:22:28Z</time>
      </trkpt>
      <trkpt lat="43.30347" lon="-1.48233">
        <ele>383.3</ele>
        <time>2022-08-30T10:22:29Z</time>
      </trkpt>
      <trkpt lat="43.30347" lon="-1.48233">
        <ele>383.3</ele>
        <time>2022-08-30T10:22:30Z</time>
      </trkpt>
      <trkpt lat="43.30348" lon="-1.48233">
        <ele>383.3</ele>
        <time>2022-08-30T10:22:31Z</time>
      </trkpt>
      <trkpt lat="43.30348" lon="-1.48232">
        <ele>383.4</ele>
        <time>2022-08-30T10:22:32Z</time>
      </trkpt>
      <trkpt lat="43.30348" lon="-1.48231">
        <ele>383.4</ele>
        <time>2022-08-30T10:22:33Z</time>
      </trkpt>
      <trkpt lat="43.30349" lon="-1.48231">
        <ele>383.4</ele>
        <time>2022-08-30T10:22:34Z</time>
      </trkpt>
      <trkpt lat="43.30349" lon="-1.4823">
        <ele>383.4</ele>
        <time>2022-08-30T10:22:35Z</time>
      </trkpt>
      <trkpt lat="43.3035" lon="-1.4823">
        <ele>383.5</ele>
        <time>2022-08-30T10:22:36Z</time>
      </trkpt>
      <trkpt lat="43.3035" lon="-1.48229">
        <ele>383.7</ele>
        <time>2022-08-30T10:22:37Z</time>
      </trkpt>
      <trkpt lat="43.30351" lon="-1.48229">
        <ele>383.7</ele>
        <time>2022-08-30T10:22:38Z</time>
      </trkpt>
      <trkpt lat="43.30351" lon="-1.48228">
        <ele>383.8</ele>
        <time>2022-08-30T10:22:39Z</time>
      </trkpt>
      <trkpt lat="43.30351" lon="-1.48227">
        <ele>383.8</ele>
        <time>2022-08-30T10:22:40Z</time>
      </trkpt>
      <trkpt lat="43.30352" lon="-1.48227">
        <ele>383.9</ele>
        <time>2022-08-30T10:22:41Z</time>
      </trkpt>
      <trkpt lat="43.30352" lon="-1.48226">
        <ele>383.9</ele>
        <time>2022-08-30T10:22:42Z</time>
      </trkpt>
      <trkpt lat="43.30353" lon="-1.48225">
        <ele>383.9</ele>
        <time>2022-08-30T10:22:43Z</time>
      </trkpt>
      <trkpt lat="43.30353" lon="-1.48225">
        <ele>384</ele>
        <time>2022-08-30T10:22:44Z</time>
      </trkpt>
      <trkpt lat="43.30353" lon="-1.48224">
        <ele>384</ele>
        <time>2022-08-30T10:22:45Z</time>
      </trkpt>
      <trkpt lat="43.30354" lon="-1.48223">
        <ele>384</ele>
        <time>2022-08-30T10:22:46Z</time>
      </trkpt>
      <trkpt lat="43.30354" lon="-1.48223">
        <ele>384.1</ele>
        <time>2022-08-30T10:22:47Z</time>
      </trkpt>
      <trkpt lat="43.30355" lon="-1.48222">
        <ele>384.1</ele>
        <time>2022-08-30T10:22:48Z</time>
      </trkpt>
      <trkpt lat="43.30355" lon="-1.48221">
        <ele>384.1</ele>
        <time>2022-08-30T10:23:43Z</time>
      </trkpt>
      <trkpt lat="43.30356" lon="-1.48221">
        <ele>384.2</ele>
        <time>2022-08-30T10:23:44Z</time>
      </trkpt>
      <trkpt lat="43.30356" lon="-1.4822">
        <ele>384.2</ele>
        <time>2022-08-30T10:23:45Z</time>
      </trkpt>
      <trkpt lat="43.30357" lon="-1.48216">
        <ele>384.4</ele>
        <time>2022-08-30T10:23:46Z</time>
      </trkpt>
      <trkpt lat="43.30358" lon="-1.48215">
        <ele>384.4</ele>
        <time>2022-08-30T10:23:47Z</time>
      </trkpt>
      <trkpt lat="43.3036" lon="-1.48211">
        <ele>384.6</ele>
        <time>2022-08-30T10:23:48Z</time>
      </trkpt>
      <trkpt lat="43.30361" lon="-1.4821">
        <ele>384.6</ele>
        <time>2022-08-30T10:23:49Z</time>
      </trkpt>
      <trkpt lat="43.30364" lon="-1.48207">
        <ele>384.9</ele>
        <time>2022-08-30T10:23:50Z</time>
      </trkpt>
      <trkpt lat="43.30365" lon="-1.48206">
        <ele>385</ele>
        <time>2022-08-30T10:23:51Z</time>
      </trkpt>
      <trkpt lat="43.30368" lon="-1.48201">
        <ele>385.4</ele>
        <time>2022-08-30T10:23:53Z</time>
      </trkpt>
      <trkpt lat="43.3037" lon="-1.48199">
        <ele>385.6</ele>
        <time>2022-08-30T10:23:54Z</time>
      </trkpt>
      <trkpt lat="43.30374" lon="-1.48196">
        <ele>385.9</ele>
        <time>2022-08-30T10:23:55Z</time>
      </trkpt>
      <trkpt lat="43.30375" lon="-1.48195">
        <ele>386</ele>
        <time>2022-08-30T10:23:56Z</time>
      </trkpt>
      <trkpt lat="43.30378" lon="-1.48194">
        <ele>386.2</ele>
        <time>2022-08-30T10:23:57Z</time>
      </trkpt>
      <trkpt lat="43.3038" lon="-1.48193">
        <ele>386.3</ele>
        <time>2022-08-30T10:23:58Z</time>
      </trkpt>
      <trkpt lat="43.30382" lon="-1.48191">
        <ele>386.6</ele>
        <time>2022-08-30T10:23:59Z</time>
      </trkpt>
      <trkpt lat="43.30383" lon="-1.4819">
        <ele>386.7</ele>
        <time>2022-08-30T10:24:00Z</time>
      </trkpt>
      <trkpt lat="43.30386" lon="-1.48187">
        <ele>386.9</ele>
        <time>2022-08-30T10:24:01Z</time>
      </trkpt>
      <trkpt lat="43.30387" lon="-1.48186">
        <ele>387</ele>
        <time>2022-08-30T10:24:02Z</time>
      </trkpt>
      <trkpt lat="43.3039" lon="-1.48182">
        <ele>387.4</ele>
        <time>2022-08-30T10:24:04Z</time>
      </trkpt>
      <trkpt lat="43.30393" lon="-1.48179">
        <ele>387.7</ele>
        <time>2022-08-30T10:24:05Z</time>
      </trkpt>
      <trkpt lat="43.30394" lon="-1.48178">
        <ele>387.8</ele>
        <time>2022-08-30T10:24:06Z</time>
      </trkpt>
      <trkpt lat="43.30396" lon="-1.48176">
        <ele>388</ele>
        <time>2022-08-30T10:24:07Z</time>
      </trkpt>
      <trkpt lat="43.30397" lon="-1.48175">
        <ele>388.1</ele>
        <time>2022-08-30T10:24:08Z</time>
      </trkpt>
      <trkpt lat="43.304" lon="-1.48173">
        <ele>388.4</ele>
        <time>2022-08-30T10:24:09Z</time>
      </trkpt>
      <trkpt lat="43.30401" lon="-1.48172">
        <ele>388.5</ele>
        <time>2022-08-30T10:24:10Z</time>
      </trkpt>
      <trkpt lat="43.30404" lon="-1.4817">
        <ele>388.8</ele>
        <time>2022-08-30T10:24:11Z</time>
      </trkpt>
      <trkpt lat="43.30405" lon="-1.48169">
        <ele>388.9</ele>
        <time>2022-08-30T10:24:12Z</time>
      </trkpt>
      <trkpt lat="43.30408" lon="-1.48167">
        <ele>389.1</ele>
        <time>2022-08-30T10:24:14Z</time>
      </trkpt>
      <trkpt lat="43.30409" lon="-1.48166">
        <ele>389.2</ele>
        <time>2022-08-30T10:24:15Z</time>
      </trkpt>
      <trkpt lat="43.30411" lon="-1.48163">
        <ele>389.5</ele>
        <time>2022-08-30T10:24:16Z</time>
      </trkpt>
      <trkpt lat="43.30412" lon="-1.48162">
        <ele>389.6</ele>
        <time>2022-08-30T10:24:17Z</time>
      </trkpt>
      <trkpt lat="43.30415" lon="-1.4816">
        <ele>389.9</ele>
        <time>2022-08-30T10:24:18Z</time>
      </trkpt>
      <trkpt lat="43.30416" lon="-1.48159">
        <ele>390</ele>
        <time>2022-08-30T10:24:19Z</time>
      </trkpt>
      <trkpt lat="43.30419" lon="-1.48156">
        <ele>390.3</ele>
        <time>2022-08-30T10:24:20Z</time>
      </trkpt>
      <trkpt lat="43.3042" lon="-1.48156">
        <ele>390.4</ele>
        <time>2022-08-30T10:24:21Z</time>
      </trkpt>
      <trkpt lat="43.30422" lon="-1.48153">
        <ele>390.7</ele>
        <time>2022-08-30T10:24:22Z</time>
      </trkpt>
      <trkpt lat="43.30423" lon="-1.48152">
        <ele>390.8</ele>
        <time>2022-08-30T10:24:23Z</time>
      </trkpt>
      <trkpt lat="43.30426" lon="-1.4815">
        <ele>391.1</ele>
        <time>2022-08-30T10:24:24Z</time>
      </trkpt>
      <trkpt lat="43.30427" lon="-1.48149">
        <ele>391.2</ele>
        <time>2022-08-30T10:24:25Z</time>
      </trkpt>
      <trkpt lat="43.3043" lon="-1.48146">
        <ele>391.5</ele>
        <time>2022-08-30T10:24:26Z</time>
      </trkpt>
      <trkpt lat="43.30431" lon="-1.48145">
        <ele>391.6</ele>
        <time>2022-08-30T10:24:27Z</time>
      </trkpt>
      <trkpt lat="43.30433" lon="-1.48142">
        <ele>391.9</ele>
        <time>2022-08-30T10:24:28Z</time>
      </trkpt>
      <trkpt lat="43.30434" lon="-1.48141">
        <ele>392</ele>
        <time>2022-08-30T10:24:29Z</time>
      </trkpt>
      <trkpt lat="43.30436" lon="-1.48138">
        <ele>392.3</ele>
        <time>2022-08-30T10:24:30Z</time>
      </trkpt>
      <trkpt lat="43.30437" lon="-1.48137">
        <ele>392.4</ele>
        <time>2022-08-30T10:24:31Z</time>
      </trkpt>
      <trkpt lat="43.30439" lon="-1.48135">
        <ele>392.8</ele>
        <time>2022-08-30T10:24:32Z</time>
      </trkpt>
      <trkpt lat="43.3044" lon="-1.48134">
        <ele>392.9</ele>
        <time>2022-08-30T10:24:33Z</time>
      </trkpt>
      <trkpt lat="43.30443" lon="-1.48131">
        <ele>393.2</ele>
        <time>2022-08-30T10:24:34Z</time>
      </trkpt>
      <trkpt lat="43.30443" lon="-1.48131">
        <ele>393.3</ele>
        <time>2022-08-30T10:24:35Z</time>
      </trkpt>
      <trkpt lat="43.30446" lon="-1.48128">
        <ele>393.6</ele>
        <time>2022-08-30T10:24:36Z</time>
      </trkpt>
      <trkpt lat="43.30447" lon="-1.48127">
        <ele>393.7</ele>
        <time>2022-08-30T10:24:37Z</time>
      </trkpt>
      <trkpt lat="43.30449" lon="-1.48124">
        <ele>394</ele>
        <time>2022-08-30T10:24:38Z</time>
      </trkpt>
      <trkpt lat="43.3045" lon="-1.48123">
        <ele>394.1</ele>
        <time>2022-08-30T10:24:39Z</time>
      </trkpt>
      <trkpt lat="43.30452" lon="-1.4812">
        <ele>394.5</ele>
        <time>2022-08-30T10:24:40Z</time>
      </trkpt>
      <trkpt lat="43.30453" lon="-1.48119">
        <ele>394.6</ele>
        <time>2022-08-30T10:24:41Z</time>
      </trkpt>
      <trkpt lat="43.30455" lon="-1.48116">
        <ele>394.9</ele>
        <time>2022-08-30T10:24:42Z</time>
      </trkpt>
      <trkpt lat="43.30456" lon="-1.48115">
        <ele>395</ele>
        <time>2022-08-30T10:24:43Z</time>
      </trkpt>
      <trkpt lat="43.30459" lon="-1.48112">
        <ele>395.5</ele>
        <time>2022-08-30T10:24:44Z</time>
      </trkpt>
      <trkpt lat="43.3046" lon="-1.48111">
        <ele>395.6</ele>
        <time>2022-08-30T10:24:45Z</time>
      </trkpt>
      <trkpt lat="43.30462" lon="-1.48109">
        <ele>396</ele>
        <time>2022-08-30T10:24:46Z</time>
      </trkpt>
      <trkpt lat="43.30463" lon="-1.48108">
        <ele>396.1</ele>
        <time>2022-08-30T10:24:47Z</time>
      </trkpt>
      <trkpt lat="43.30465" lon="-1.48105">
        <ele>396.4</ele>
        <time>2022-08-30T10:24:48Z</time>
      </trkpt>
      <trkpt lat="43.30466" lon="-1.48105">
        <ele>396.5</ele>
        <time>2022-08-30T10:24:49Z</time>
      </trkpt>
      <trkpt lat="43.30469" lon="-1.48102">
        <ele>396.9</ele>
        <time>2022-08-30T10:24:50Z</time>
      </trkpt>
      <trkpt lat="43.3047" lon="-1.48101">
        <ele>397.1</ele>
        <time>2022-08-30T10:24:51Z</time>
      </trkpt>
      <trkpt lat="43.30473" lon="-1.48098">
        <ele>397.5</ele>
        <time>2022-08-30T10:24:52Z</time>
      </trkpt>
      <trkpt lat="43.30473" lon="-1.48097">
        <ele>397.6</ele>
        <time>2022-08-30T10:24:53Z</time>
      </trkpt>
      <trkpt lat="43.30476" lon="-1.48095">
        <ele>397.9</ele>
        <time>2022-08-30T10:24:54Z</time>
      </trkpt>
      <trkpt lat="43.30477" lon="-1.48094">
        <ele>398.1</ele>
        <time>2022-08-30T10:24:55Z</time>
      </trkpt>
      <trkpt lat="43.30479" lon="-1.48091">
        <ele>398.4</ele>
        <time>2022-08-30T10:24:56Z</time>
      </trkpt>
      <trkpt lat="43.3048" lon="-1.4809">
        <ele>398.6</ele>
        <time>2022-08-30T10:24:57Z</time>
      </trkpt>
      <trkpt lat="43.30482" lon="-1.48087">
        <ele>399</ele>
        <time>2022-08-30T10:24:58Z</time>
      </trkpt>
      <trkpt lat="43.30483" lon="-1.48086">
        <ele>399.1</ele>
        <time>2022-08-30T10:24:59Z</time>
      </trkpt>
      <trkpt lat="43.30484" lon="-1.48085">
        <ele>399.3</ele>
        <time>2022-08-30T10:25:00Z</time>
      </trkpt>
      <trkpt lat="43.30486" lon="-1.48084">
        <ele>399.5</ele>
        <time>2022-08-30T10:25:01Z</time>
      </trkpt>
      <trkpt lat="43.30489" lon="-1.4808">
        <ele>400.1</ele>
        <time>2022-08-30T10:25:02Z</time>
      </trkpt>
      <trkpt lat="43.3049" lon="-1.48079">
        <ele>400.2</ele>
        <time>2022-08-30T10:25:03Z</time>
      </trkpt>
      <trkpt lat="43.30491" lon="-1.48078">
        <ele>400.4</ele>
        <time>2022-08-30T10:25:04Z</time>
      </trkpt>
      <trkpt lat="43.30493" lon="-1.48076">
        <ele>400.7</ele>
        <time>2022-08-30T10:25:05Z</time>
      </trkpt>
      <trkpt lat="43.30496" lon="-1.48073">
        <ele>401.1</ele>
        <time>2022-08-30T10:25:06Z</time>
      </trkpt>
      <trkpt lat="43.30496" lon="-1.48072">
        <ele>401.3</ele>
        <time>2022-08-30T10:25:07Z</time>
      </trkpt>
      <trkpt lat="43.30499" lon="-1.48069">
        <ele>401.7</ele>
        <time>2022-08-30T10:25:08Z</time>
      </trkpt>
      <trkpt lat="43.30499" lon="-1.48067">
        <ele>401.9</ele>
        <time>2022-08-30T10:25:09Z</time>
      </trkpt>
      <trkpt lat="43.30502" lon="-1.48064">
        <ele>402.3</ele>
        <time>2022-08-30T10:25:10Z</time>
      </trkpt>
      <trkpt lat="43.30503" lon="-1.48063">
        <ele>402.4</ele>
        <time>2022-08-30T10:25:11Z</time>
      </trkpt>
      <trkpt lat="43.30505" lon="-1.4806">
        <ele>402.9</ele>
        <time>2022-08-30T10:25:12Z</time>
      </trkpt>
      <trkpt lat="43.30506" lon="-1.48059">
        <ele>403</ele>
        <time>2022-08-30T10:25:13Z</time>
      </trkpt>
      <trkpt lat="43.30508" lon="-1.48056">
        <ele>403.4</ele>
        <time>2022-08-30T10:25:14Z</time>
      </trkpt>
      <trkpt lat="43.30509" lon="-1.48055">
        <ele>403.5</ele>
        <time>2022-08-30T10:25:15Z</time>
      </trkpt>
      <trkpt lat="43.30511" lon="-1.48052">
        <ele>403.8</ele>
        <time>2022-08-30T10:25:16Z</time>
      </trkpt>
      <trkpt lat="43.30511" lon="-1.48051">
        <ele>403.9</ele>
        <time>2022-08-30T10:25:17Z</time>
      </trkpt>
      <trkpt lat="43.30514" lon="-1.48048">
        <ele>404.1</ele>
        <time>2022-08-30T10:25:18Z</time>
      </trkpt>
      <trkpt lat="43.30515" lon="-1.48047">
        <ele>404.1</ele>
        <time>2022-08-30T10:25:19Z</time>
      </trkpt>
      <trkpt lat="43.30517" lon="-1.48043">
        <ele>404.3</ele>
        <time>2022-08-30T10:25:20Z</time>
      </trkpt>
      <trkpt lat="43.30518" lon="-1.48042">
        <ele>404.4</ele>
        <time>2022-08-30T10:25:21Z</time>
      </trkpt>
      <trkpt lat="43.3052" lon="-1.48039">
        <ele>404.5</ele>
        <time>2022-08-30T10:25:22Z</time>
      </trkpt>
      <trkpt lat="43.30521" lon="-1.48038">
        <ele>404.6</ele>
        <time>2022-08-30T10:25:23Z</time>
      </trkpt>
      <trkpt lat="43.30523" lon="-1.48034">
        <ele>404.8</ele>
        <time>2022-08-30T10:25:24Z</time>
      </trkpt>
      <trkpt lat="43.30524" lon="-1.48033">
        <ele>404.8</ele>
        <time>2022-08-30T10:25:25Z</time>
      </trkpt>
      <trkpt lat="43.30526" lon="-1.4803">
        <ele>405</ele>
        <time>2022-08-30T10:25:26Z</time>
      </trkpt>
      <trkpt lat="43.30526" lon="-1.48028">
        <ele>405</ele>
        <time>2022-08-30T10:25:27Z</time>
      </trkpt>
      <trkpt lat="43.30528" lon="-1.48025">
        <ele>405.2</ele>
        <time>2022-08-30T10:25:28Z</time>
      </trkpt>
      <trkpt lat="43.30528" lon="-1.48023">
        <ele>405.3</ele>
        <time>2022-08-30T10:25:29Z</time>
      </trkpt>
      <trkpt lat="43.30531" lon="-1.48019">
        <ele>405.5</ele>
        <time>2022-08-30T10:25:30Z</time>
      </trkpt>
      <trkpt lat="43.30532" lon="-1.48018">
        <ele>405.6</ele>
        <time>2022-08-30T10:25:31Z</time>
      </trkpt>
      <trkpt lat="43.30535" lon="-1.48015">
        <ele>405.8</ele>
        <time>2022-08-30T10:25:32Z</time>
      </trkpt>
      <trkpt lat="43.30535" lon="-1.48014">
        <ele>405.8</ele>
        <time>2022-08-30T10:25:33Z</time>
      </trkpt>
      <trkpt lat="43.30538" lon="-1.4801">
        <ele>406</ele>
        <time>2022-08-30T10:25:34Z</time>
      </trkpt>
      <trkpt lat="43.30539" lon="-1.48009">
        <ele>406.1</ele>
        <time>2022-08-30T10:25:35Z</time>
      </trkpt>
      <trkpt lat="43.30541" lon="-1.48004">
        <ele>406.3</ele>
        <time>2022-08-30T10:25:36Z</time>
      </trkpt>
      <trkpt lat="43.30541" lon="-1.48003">
        <ele>406.4</ele>
        <time>2022-08-30T10:25:37Z</time>
      </trkpt>
      <trkpt lat="43.30544" lon="-1.47998">
        <ele>406.7</ele>
        <time>2022-08-30T10:25:38Z</time>
      </trkpt>
      <trkpt lat="43.30545" lon="-1.47997">
        <ele>406.8</ele>
        <time>2022-08-30T10:25:39Z</time>
      </trkpt>
      <trkpt lat="43.30546" lon="-1.47994">
        <ele>406.9</ele>
        <time>2022-08-30T10:25:40Z</time>
      </trkpt>
      <trkpt lat="43.30548" lon="-1.4799">
        <ele>407.1</ele>
        <time>2022-08-30T10:25:41Z</time>
      </trkpt>
      <trkpt lat="43.30549" lon="-1.47987">
        <ele>407.3</ele>
        <time>2022-08-30T10:25:42Z</time>
      </trkpt>
      <trkpt lat="43.30551" lon="-1.47983">
        <ele>407.5</ele>
        <time>2022-08-30T10:25:43Z</time>
      </trkpt>
      <trkpt lat="43.30552" lon="-1.47979">
        <ele>407.7</ele>
        <time>2022-08-30T10:25:44Z</time>
      </trkpt>
      <trkpt lat="43.30553" lon="-1.47977">
        <ele>407.7</ele>
        <time>2022-08-30T10:25:45Z</time>
      </trkpt>
      <trkpt lat="43.30555" lon="-1.47973">
        <ele>407.9</ele>
        <time>2022-08-30T10:25:46Z</time>
      </trkpt>
      <trkpt lat="43.30555" lon="-1.47972">
        <ele>407.9</ele>
        <time>2022-08-30T10:25:47Z</time>
      </trkpt>
      <trkpt lat="43.30557" lon="-1.47968">
        <ele>407.9</ele>
        <time>2022-08-30T10:25:48Z</time>
      </trkpt>
      <trkpt lat="43.30558" lon="-1.47966">
        <ele>407.9</ele>
        <time>2022-08-30T10:25:49Z</time>
      </trkpt>
      <trkpt lat="43.30559" lon="-1.47962">
        <ele>407.9</ele>
        <time>2022-08-30T10:25:50Z</time>
      </trkpt>
      <trkpt lat="43.3056" lon="-1.47961">
        <ele>407.9</ele>
        <time>2022-08-30T10:25:51Z</time>
      </trkpt>
      <trkpt lat="43.30561" lon="-1.47957">
        <ele>407.7</ele>
        <time>2022-08-30T10:25:52Z</time>
      </trkpt>
      <trkpt lat="43.30562" lon="-1.47956">
        <ele>407.7</ele>
        <time>2022-08-30T10:25:53Z</time>
      </trkpt>
      <trkpt lat="43.30563" lon="-1.47951">
        <ele>407.4</ele>
        <time>2022-08-30T10:25:54Z</time>
      </trkpt>
      <trkpt lat="43.30564" lon="-1.47949">
        <ele>407.3</ele>
        <time>2022-08-30T10:25:55Z</time>
      </trkpt>
      <trkpt lat="43.30566" lon="-1.47944">
        <ele>406.9</ele>
        <time>2022-08-30T10:25:56Z</time>
      </trkpt>
      <trkpt lat="43.30568" lon="-1.47937">
        <ele>406.4</ele>
        <time>2022-08-30T10:25:57Z</time>
      </trkpt>
      <trkpt lat="43.30571" lon="-1.4793">
        <ele>405.7</ele>
        <time>2022-08-30T10:25:58Z</time>
      </trkpt>
      <trkpt lat="43.30574" lon="-1.47922">
        <ele>405</ele>
        <time>2022-08-30T10:25:59Z</time>
      </trkpt>
      <trkpt lat="43.30577" lon="-1.47914">
        <ele>404.4</ele>
        <time>2022-08-30T10:26:00Z</time>
      </trkpt>
      <trkpt lat="43.30581" lon="-1.47906">
        <ele>404</ele>
        <time>2022-08-30T10:26:01Z</time>
      </trkpt>
      <trkpt lat="43.30584" lon="-1.47898">
        <ele>403.7</ele>
        <time>2022-08-30T10:26:02Z</time>
      </trkpt>
      <trkpt lat="43.30588" lon="-1.47889">
        <ele>403.5</ele>
        <time>2022-08-30T10:26:03Z</time>
      </trkpt>
      <trkpt lat="43.30592" lon="-1.47881">
        <ele>403.6</ele>
        <time>2022-08-30T10:26:04Z</time>
      </trkpt>
      <trkpt lat="43.30595" lon="-1.47873">
        <ele>403.7</ele>
        <time>2022-08-30T10:26:05Z</time>
      </trkpt>
      <trkpt lat="43.30598" lon="-1.47866">
        <ele>403.9</ele>
        <time>2022-08-30T10:26:06Z</time>
      </trkpt>
      <trkpt lat="43.30601" lon="-1.4786">
        <ele>404.2</ele>
        <time>2022-08-30T10:26:07Z</time>
      </trkpt>
      <trkpt lat="43.30603" lon="-1.47854">
        <ele>404.4</ele>
        <time>2022-08-30T10:26:08Z</time>
      </trkpt>
      <trkpt lat="43.30605" lon="-1.47849">
        <ele>404.6</ele>
        <time>2022-08-30T10:26:09Z</time>
      </trkpt>
      <trkpt lat="43.30607" lon="-1.47846">
        <ele>404.8</ele>
        <time>2022-08-30T10:26:10Z</time>
      </trkpt>
      <trkpt lat="43.30609" lon="-1.47841">
        <ele>405</ele>
        <time>2022-08-30T10:26:11Z</time>
      </trkpt>
      <trkpt lat="43.3061" lon="-1.47837">
        <ele>405.2</ele>
        <time>2022-08-30T10:26:12Z</time>
      </trkpt>
      <trkpt lat="43.30612" lon="-1.47833">
        <ele>405.4</ele>
        <time>2022-08-30T10:26:13Z</time>
      </trkpt>
      <trkpt lat="43.30614" lon="-1.47829">
        <ele>405.7</ele>
        <time>2022-08-30T10:26:14Z</time>
      </trkpt>
      <trkpt lat="43.30616" lon="-1.47825">
        <ele>405.9</ele>
        <time>2022-08-30T10:26:15Z</time>
      </trkpt>
      <trkpt lat="43.30618" lon="-1.4782">
        <ele>406.1</ele>
        <time>2022-08-30T10:26:16Z</time>
      </trkpt>
      <trkpt lat="43.3062" lon="-1.47817">
        <ele>406.3</ele>
        <time>2022-08-30T10:26:17Z</time>
      </trkpt>
      <trkpt lat="43.30622" lon="-1.47814">
        <ele>406.5</ele>
        <time>2022-08-30T10:26:18Z</time>
      </trkpt>
      <trkpt lat="43.30624" lon="-1.47811">
        <ele>406.6</ele>
        <time>2022-08-30T10:26:19Z</time>
      </trkpt>
      <trkpt lat="43.30626" lon="-1.47808">
        <ele>406.7</ele>
        <time>2022-08-30T10:26:20Z</time>
      </trkpt>
      <trkpt lat="43.30628" lon="-1.47805">
        <ele>406.7</ele>
        <time>2022-08-30T10:26:21Z</time>
      </trkpt>
      <trkpt lat="43.30629" lon="-1.47804">
        <ele>406.7</ele>
        <time>2022-08-30T10:26:22Z</time>
      </trkpt>
      <trkpt lat="43.30631" lon="-1.478">
        <ele>406.7</ele>
        <time>2022-08-30T10:26:23Z</time>
      </trkpt>
      <trkpt lat="43.30632" lon="-1.47798">
        <ele>406.7</ele>
        <time>2022-08-30T10:26:24Z</time>
      </trkpt>
      <trkpt lat="43.30634" lon="-1.47795">
        <ele>406.6</ele>
        <time>2022-08-30T10:26:25Z</time>
      </trkpt>
      <trkpt lat="43.30635" lon="-1.47794">
        <ele>406.6</ele>
        <time>2022-08-30T10:26:26Z</time>
      </trkpt>
      <trkpt lat="43.30639" lon="-1.47792">
        <ele>406.5</ele>
        <time>2022-08-30T10:26:27Z</time>
      </trkpt>
      <trkpt lat="43.3064" lon="-1.47792">
        <ele>406.4</ele>
        <time>2022-08-30T10:26:28Z</time>
      </trkpt>
      <trkpt lat="43.30643" lon="-1.47795">
        <ele>406.2</ele>
        <time>2022-08-30T10:26:29Z</time>
      </trkpt>
      <trkpt lat="43.30647" lon="-1.47799">
        <ele>406</ele>
        <time>2022-08-30T10:26:30Z</time>
      </trkpt>
      <trkpt lat="43.30651" lon="-1.47803">
        <ele>405.8</ele>
        <time>2022-08-30T10:26:31Z</time>
      </trkpt>
      <trkpt lat="43.30656" lon="-1.47807">
        <ele>405.6</ele>
        <time>2022-08-30T10:26:32Z</time>
      </trkpt>
      <trkpt lat="43.30662" lon="-1.4781">
        <ele>405.4</ele>
        <time>2022-08-30T10:26:33Z</time>
      </trkpt>
      <trkpt lat="43.30667" lon="-1.47813">
        <ele>405.3</ele>
        <time>2022-08-30T10:26:34Z</time>
      </trkpt>
      <trkpt lat="43.30672" lon="-1.47815">
        <ele>405.3</ele>
        <time>2022-08-30T10:26:35Z</time>
      </trkpt>
      <trkpt lat="43.30676" lon="-1.47817">
        <ele>405.3</ele>
        <time>2022-08-30T10:26:36Z</time>
      </trkpt>
      <trkpt lat="43.3068" lon="-1.47818">
        <ele>405.4</ele>
        <time>2022-08-30T10:26:37Z</time>
      </trkpt>
      <trkpt lat="43.30684" lon="-1.4782">
        <ele>405.5</ele>
        <time>2022-08-30T10:26:38Z</time>
      </trkpt>
      <trkpt lat="43.30688" lon="-1.47821">
        <ele>405.6</ele>
        <time>2022-08-30T10:26:39Z</time>
      </trkpt>
      <trkpt lat="43.30692" lon="-1.47822">
        <ele>405.7</ele>
        <time>2022-08-30T10:26:40Z</time>
      </trkpt>
      <trkpt lat="43.30695" lon="-1.47824">
        <ele>405.9</ele>
        <time>2022-08-30T10:26:41Z</time>
      </trkpt>
      <trkpt lat="43.30699" lon="-1.47825">
        <ele>406</ele>
        <time>2022-08-30T10:26:42Z</time>
      </trkpt>
      <trkpt lat="43.30703" lon="-1.47827">
        <ele>406.1</ele>
        <time>2022-08-30T10:26:43Z</time>
      </trkpt>
      <trkpt lat="43.30706" lon="-1.47829">
        <ele>406.2</ele>
        <time>2022-08-30T10:26:44Z</time>
      </trkpt>
      <trkpt lat="43.3071" lon="-1.47831">
        <ele>406.3</ele>
        <time>2022-08-30T10:26:45Z</time>
      </trkpt>
      <trkpt lat="43.30713" lon="-1.47833">
        <ele>406.4</ele>
        <time>2022-08-30T10:26:46Z</time>
      </trkpt>
      <trkpt lat="43.30716" lon="-1.47834">
        <ele>406.5</ele>
        <time>2022-08-30T10:26:47Z</time>
      </trkpt>
      <trkpt lat="43.3072" lon="-1.47835">
        <ele>406.5</ele>
        <time>2022-08-30T10:26:48Z</time>
      </trkpt>
      <trkpt lat="43.30723" lon="-1.47837">
        <ele>406.6</ele>
        <time>2022-08-30T10:26:49Z</time>
      </trkpt>
      <trkpt lat="43.30727" lon="-1.47838">
        <ele>406.6</ele>
        <time>2022-08-30T10:26:50Z</time>
      </trkpt>
      <trkpt lat="43.3073" lon="-1.4784">
        <ele>406.6</ele>
        <time>2022-08-30T10:26:51Z</time>
      </trkpt>
      <trkpt lat="43.30734" lon="-1.47841">
        <ele>406.6</ele>
        <time>2022-08-30T10:26:52Z</time>
      </trkpt>
      <trkpt lat="43.30738" lon="-1.47843">
        <ele>406.7</ele>
        <time>2022-08-30T10:26:53Z</time>
      </trkpt>
      <trkpt lat="43.30741" lon="-1.47845">
        <ele>406.7</ele>
        <time>2022-08-30T10:26:54Z</time>
      </trkpt>
      <trkpt lat="43.30745" lon="-1.47847">
        <ele>406.7</ele>
        <time>2022-08-30T10:26:55Z</time>
      </trkpt>
      <trkpt lat="43.30748" lon="-1.47848">
        <ele>406.8</ele>
        <time>2022-08-30T10:26:56Z</time>
      </trkpt>
      <trkpt lat="43.30752" lon="-1.4785">
        <ele>406.8</ele>
        <time>2022-08-30T10:26:57Z</time>
      </trkpt>
      <trkpt lat="43.30756" lon="-1.47851">
        <ele>406.9</ele>
        <time>2022-08-30T10:26:58Z</time>
      </trkpt>
      <trkpt lat="43.30759" lon="-1.47852">
        <ele>407</ele>
        <time>2022-08-30T10:26:59Z</time>
      </trkpt>
      <trkpt lat="43.30764" lon="-1.47854">
        <ele>407.1</ele>
        <time>2022-08-30T10:27:00Z</time>
      </trkpt>
      <trkpt lat="43.30767" lon="-1.47855">
        <ele>407.2</ele>
        <time>2022-08-30T10:27:01Z</time>
      </trkpt>
      <trkpt lat="43.30771" lon="-1.47856">
        <ele>407.4</ele>
        <time>2022-08-30T10:27:02Z</time>
      </trkpt>
      <trkpt lat="43.30774" lon="-1.47857">
        <ele>407.5</ele>
        <time>2022-08-30T10:27:03Z</time>
      </trkpt>
      <trkpt lat="43.30778" lon="-1.47858">
        <ele>407.6</ele>
        <time>2022-08-30T10:27:04Z</time>
      </trkpt>
      <trkpt lat="43.30781" lon="-1.47859">
        <ele>407.7</ele>
        <time>2022-08-30T10:27:05Z</time>
      </trkpt>
      <trkpt lat="43.30784" lon="-1.4786">
        <ele>407.8</ele>
        <time>2022-08-30T10:27:06Z</time>
      </trkpt>
      <trkpt lat="43.30788" lon="-1.4786">
        <ele>407.9</ele>
        <time>2022-08-30T10:27:07Z</time>
      </trkpt>
      <trkpt lat="43.30792" lon="-1.47861">
        <ele>408.1</ele>
        <time>2022-08-30T10:27:08Z</time>
      </trkpt>
      <trkpt lat="43.30795" lon="-1.47861">
        <ele>408.2</ele>
        <time>2022-08-30T10:27:09Z</time>
      </trkpt>
      <trkpt lat="43.30799" lon="-1.47861">
        <ele>408.3</ele>
        <time>2022-08-30T10:27:10Z</time>
      </trkpt>
      <trkpt lat="43.30803" lon="-1.47862">
        <ele>408.4</ele>
        <time>2022-08-30T10:27:11Z</time>
      </trkpt>
      <trkpt lat="43.30807" lon="-1.47862">
        <ele>408.5</ele>
        <time>2022-08-30T10:27:12Z</time>
      </trkpt>
      <trkpt lat="43.3081" lon="-1.47862">
        <ele>408.6</ele>
        <time>2022-08-30T10:27:13Z</time>
      </trkpt>
      <trkpt lat="43.30814" lon="-1.47862">
        <ele>408.7</ele>
        <time>2022-08-30T10:27:14Z</time>
      </trkpt>
      <trkpt lat="43.30817" lon="-1.47861">
        <ele>408.7</ele>
        <time>2022-08-30T10:27:15Z</time>
      </trkpt>
      <trkpt lat="43.30821" lon="-1.47861">
        <ele>408.8</ele>
        <time>2022-08-30T10:27:16Z</time>
      </trkpt>
      <trkpt lat="43.30825" lon="-1.47861">
        <ele>408.8</ele>
        <time>2022-08-30T10:27:17Z</time>
      </trkpt>
      <trkpt lat="43.30829" lon="-1.47861">
        <ele>408.8</ele>
        <time>2022-08-30T10:27:18Z</time>
      </trkpt>
      <trkpt lat="43.30833" lon="-1.47861">
        <ele>408.9</ele>
        <time>2022-08-30T10:27:19Z</time>
      </trkpt>
      <trkpt lat="43.30837" lon="-1.47861">
        <ele>408.9</ele>
        <time>2022-08-30T10:27:20Z</time>
      </trkpt>
      <trkpt lat="43.30842" lon="-1.47861">
        <ele>408.9</ele>
        <time>2022-08-30T10:27:21Z</time>
      </trkpt>
      <trkpt lat="43.30846" lon="-1.4786">
        <ele>408.9</ele>
        <time>2022-08-30T10:27:22Z</time>
      </trkpt>
      <trkpt lat="43.3085" lon="-1.4786">
        <ele>408.8</ele>
        <time>2022-08-30T10:27:23Z</time>
      </trkpt>
      <trkpt lat="43.30854" lon="-1.47859">
        <ele>408.8</ele>
        <time>2022-08-30T10:27:24Z</time>
      </trkpt>
      <trkpt lat="43.30858" lon="-1.47858">
        <ele>408.8</ele>
        <time>2022-08-30T10:27:25Z</time>
      </trkpt>
      <trkpt lat="43.30862" lon="-1.47857">
        <ele>408.8</ele>
        <time>2022-08-30T10:27:26Z</time>
      </trkpt>
      <trkpt lat="43.30865" lon="-1.47857">
        <ele>408.8</ele>
        <time>2022-08-30T10:27:27Z</time>
      </trkpt>
      <trkpt lat="43.30869" lon="-1.47856">
        <ele>408.7</ele>
        <time>2022-08-30T10:27:28Z</time>
      </trkpt>
      <trkpt lat="43.30872" lon="-1.47856">
        <ele>408.7</ele>
        <time>2022-08-30T10:27:29Z</time>
      </trkpt>
      <trkpt lat="43.30876" lon="-1.47855">
        <ele>408.6</ele>
        <time>2022-08-30T10:27:30Z</time>
      </trkpt>
      <trkpt lat="43.3088" lon="-1.47854">
        <ele>408.6</ele>
        <time>2022-08-30T10:27:31Z</time>
      </trkpt>
      <trkpt lat="43.30884" lon="-1.47854">
        <ele>408.6</ele>
        <time>2022-08-30T10:27:32Z</time>
      </trkpt>
      <trkpt lat="43.30888" lon="-1.47853">
        <ele>408.5</ele>
        <time>2022-08-30T10:27:33Z</time>
      </trkpt>
      <trkpt lat="43.30891" lon="-1.47852">
        <ele>408.5</ele>
        <time>2022-08-30T10:27:34Z</time>
      </trkpt>
      <trkpt lat="43.30895" lon="-1.47851">
        <ele>408.4</ele>
        <time>2022-08-30T10:27:35Z</time>
      </trkpt>
      <trkpt lat="43.30898" lon="-1.4785">
        <ele>408.4</ele>
        <time>2022-08-30T10:27:36Z</time>
      </trkpt>
      <trkpt lat="43.30902" lon="-1.47849">
        <ele>408.4</ele>
        <time>2022-08-30T10:27:37Z</time>
      </trkpt>
      <trkpt lat="43.30906" lon="-1.47848">
        <ele>408.3</ele>
        <time>2022-08-30T10:27:38Z</time>
      </trkpt>
      <trkpt lat="43.30911" lon="-1.47846">
        <ele>408.3</ele>
        <time>2022-08-30T10:27:39Z</time>
      </trkpt>
      <trkpt lat="43.30916" lon="-1.47844">
        <ele>408.5</ele>
        <time>2022-08-30T10:27:40Z</time>
      </trkpt>
      <trkpt lat="43.30921" lon="-1.4784">
        <ele>408.6</ele>
        <time>2022-08-30T10:27:41Z</time>
      </trkpt>
      <trkpt lat="43.30925" lon="-1.47837">
        <ele>408.7</ele>
        <time>2022-08-30T10:27:42Z</time>
      </trkpt>
      <trkpt lat="43.3093" lon="-1.47835">
        <ele>408.9</ele>
        <time>2022-08-30T10:27:43Z</time>
      </trkpt>
      <trkpt lat="43.30934" lon="-1.47834">
        <ele>409</ele>
        <time>2022-08-30T10:27:44Z</time>
      </trkpt>
      <trkpt lat="43.30939" lon="-1.47833">
        <ele>409.2</ele>
        <time>2022-08-30T10:27:45Z</time>
      </trkpt>
      <trkpt lat="43.30943" lon="-1.47831">
        <ele>409.3</ele>
        <time>2022-08-30T10:27:46Z</time>
      </trkpt>
      <trkpt lat="43.30952" lon="-1.47828">
        <ele>409.6</ele>
        <time>2022-08-30T10:27:47Z</time>
      </trkpt>
      <trkpt lat="43.30957" lon="-1.47826">
        <ele>409.8</ele>
        <time>2022-08-30T10:27:48Z</time>
      </trkpt>
      <trkpt lat="43.30961" lon="-1.47824">
        <ele>409.9</ele>
        <time>2022-08-30T10:27:49Z</time>
      </trkpt>
      <trkpt lat="43.30965" lon="-1.47823">
        <ele>410</ele>
        <time>2022-08-30T10:27:50Z</time>
      </trkpt>
      <trkpt lat="43.30969" lon="-1.47823">
        <ele>410.1</ele>
        <time>2022-08-30T10:27:51Z</time>
      </trkpt>
      <trkpt lat="43.30973" lon="-1.47822">
        <ele>410.2</ele>
        <time>2022-08-30T10:27:52Z</time>
      </trkpt>
      <trkpt lat="43.30981" lon="-1.47822">
        <ele>410.4</ele>
        <time>2022-08-30T10:27:54Z</time>
      </trkpt>
      <trkpt lat="43.30985" lon="-1.47822">
        <ele>410.6</ele>
        <time>2022-08-30T10:27:55Z</time>
      </trkpt>
      <trkpt lat="43.30989" lon="-1.47822">
        <ele>410.7</ele>
        <time>2022-08-30T10:27:56Z</time>
      </trkpt>
      <trkpt lat="43.30994" lon="-1.47822">
        <ele>410.9</ele>
        <time>2022-08-30T10:27:57Z</time>
      </trkpt>
      <trkpt lat="43.30998" lon="-1.47822">
        <ele>411</ele>
        <time>2022-08-30T10:27:58Z</time>
      </trkpt>
      <trkpt lat="43.31002" lon="-1.47822">
        <ele>411.2</ele>
        <time>2022-08-30T10:27:59Z</time>
      </trkpt>
      <trkpt lat="43.31006" lon="-1.47822">
        <ele>411.4</ele>
        <time>2022-08-30T10:28:00Z</time>
      </trkpt>
      <trkpt lat="43.3101" lon="-1.47822">
        <ele>411.6</ele>
        <time>2022-08-30T10:28:01Z</time>
      </trkpt>
      <trkpt lat="43.31014" lon="-1.4782">
        <ele>411.8</ele>
        <time>2022-08-30T10:28:02Z</time>
      </trkpt>
      <trkpt lat="43.31017" lon="-1.47819">
        <ele>412</ele>
        <time>2022-08-30T10:28:03Z</time>
      </trkpt>
      <trkpt lat="43.31024" lon="-1.47817">
        <ele>412.4</ele>
        <time>2022-08-30T10:28:05Z</time>
      </trkpt>
      <trkpt lat="43.31027" lon="-1.47818">
        <ele>412.4</ele>
        <time>2022-08-30T10:28:06Z</time>
      </trkpt>
      <trkpt lat="43.31028" lon="-1.47818">
        <ele>412.3</ele>
        <time>2022-08-30T10:28:07Z</time>
      </trkpt>
      <trkpt lat="43.31029" lon="-1.47817">
        <ele>412.2</ele>
        <time>2022-08-30T10:28:08Z</time>
      </trkpt>
      <trkpt lat="43.3103" lon="-1.47817">
        <ele>412.2</ele>
        <time>2022-08-30T10:28:09Z</time>
      </trkpt>
      <trkpt lat="43.3103" lon="-1.47816">
        <ele>412.1</ele>
        <time>2022-08-30T10:28:10Z</time>
      </trkpt>
      <trkpt lat="43.3103" lon="-1.47815">
        <ele>412.1</ele>
        <time>2022-08-30T10:28:11Z</time>
      </trkpt>
      <trkpt lat="43.31031" lon="-1.47816">
        <ele>412.1</ele>
        <time>2022-08-30T10:28:12Z</time>
      </trkpt>
      <trkpt lat="43.31031" lon="-1.47816">
        <ele>412</ele>
        <time>2022-08-30T10:28:13Z</time>
      </trkpt>
      <trkpt lat="43.31031" lon="-1.47816">
        <ele>412</ele>
        <time>2022-08-30T10:28:14Z</time>
      </trkpt>
      <trkpt lat="43.31031" lon="-1.47816">
        <ele>412</ele>
        <time>2022-08-30T10:28:16Z</time>
      </trkpt>
      <trkpt lat="43.31031" lon="-1.47816">
        <ele>412</ele>
        <time>2022-08-30T10:28:17Z</time>
      </trkpt>
      <trkpt lat="43.31031" lon="-1.47816">
        <ele>412</ele>
        <time>2022-08-30T10:28:18Z</time>
      </trkpt>
      <trkpt lat="43.31031" lon="-1.47816">
        <ele>412</ele>
        <time>2022-08-30T10:28:19Z</time>
      </trkpt>
      <trkpt lat="43.31031" lon="-1.47816">
        <ele>412</ele>
        <time>2022-08-30T10:28:20Z</time>
      </trkpt>
      <trkpt lat="43.31031" lon="-1.47816">
        <ele>412</ele>
        <time>2022-08-30T10:28:21Z</time>
      </trkpt>
      <trkpt lat="43.31039" lon="-1.47805">
        <ele>410.6</ele>
        <time>2022-08-30T10:28:27Z</time>
      </trkpt>
      <trkpt lat="43.31042" lon="-1.478">
        <ele>410</ele>
        <time>2022-08-30T10:28:28Z</time>
      </trkpt>
      <trkpt lat="43.31045" lon="-1.47794">
        <ele>409.3</ele>
        <time>2022-08-30T10:28:29Z</time>
      </trkpt>
      <trkpt lat="43.31049" lon="-1.47787">
        <ele>408.7</ele>
        <time>2022-08-30T10:28:30Z</time>
      </trkpt>
      <trkpt lat="43.31053" lon="-1.47781">
        <ele>408.4</ele>
        <time>2022-08-30T10:28:31Z</time>
      </trkpt>
      <trkpt lat="43.31057" lon="-1.47775">
        <ele>408.3</ele>
        <time>2022-08-30T10:28:32Z</time>
      </trkpt>
      <trkpt lat="43.3106" lon="-1.47769">
        <ele>408.4</ele>
        <time>2022-08-30T10:28:33Z</time>
      </trkpt>
      <trkpt lat="43.31061" lon="-1.47765">
        <ele>408.5</ele>
        <time>2022-08-30T10:28:34Z</time>
      </trkpt>
      <trkpt lat="43.31063" lon="-1.47761">
        <ele>408.7</ele>
        <time>2022-08-30T10:28:35Z</time>
      </trkpt>
      <trkpt lat="43.31063" lon="-1.4776">
        <ele>408.8</ele>
        <time>2022-08-30T10:28:36Z</time>
      </trkpt>
      <trkpt lat="43.31065" lon="-1.47754">
        <ele>409.3</ele>
        <time>2022-08-30T10:28:38Z</time>
      </trkpt>
      <trkpt lat="43.31065" lon="-1.47752">
        <ele>409.4</ele>
        <time>2022-08-30T10:28:39Z</time>
      </trkpt>
      <trkpt lat="43.31065" lon="-1.47751">
        <ele>409.6</ele>
        <time>2022-08-30T10:28:40Z</time>
      </trkpt>
      <trkpt lat="43.31065" lon="-1.47746">
        <ele>410.1</ele>
        <time>2022-08-30T10:28:41Z</time>
      </trkpt>
      <trkpt lat="43.31066" lon="-1.47744">
        <ele>410.3</ele>
        <time>2022-08-30T10:28:42Z</time>
      </trkpt>
      <trkpt lat="43.31065" lon="-1.47739">
        <ele>410.8</ele>
        <time>2022-08-30T10:28:43Z</time>
      </trkpt>
      <trkpt lat="43.31065" lon="-1.47738">
        <ele>411</ele>
        <time>2022-08-30T10:28:44Z</time>
      </trkpt>
      <trkpt lat="43.31064" lon="-1.47734">
        <ele>411.6</ele>
        <time>2022-08-30T10:28:45Z</time>
      </trkpt>
      <trkpt lat="43.31063" lon="-1.47732">
        <ele>411.8</ele>
        <time>2022-08-30T10:28:46Z</time>
      </trkpt>
      <trkpt lat="43.31062" lon="-1.4773">
        <ele>412.3</ele>
        <time>2022-08-30T10:28:47Z</time>
      </trkpt>
      <trkpt lat="43.3106" lon="-1.47727">
        <ele>412.7</ele>
        <time>2022-08-30T10:28:49Z</time>
      </trkpt>
      <trkpt lat="43.31056" lon="-1.47722">
        <ele>413.6</ele>
        <time>2022-08-30T10:28:50Z</time>
      </trkpt>
      <trkpt lat="43.31054" lon="-1.47719">
        <ele>414.2</ele>
        <time>2022-08-30T10:28:51Z</time>
      </trkpt>
      <trkpt lat="43.31053" lon="-1.47718">
        <ele>414.4</ele>
        <time>2022-08-30T10:28:52Z</time>
      </trkpt>
      <trkpt lat="43.31051" lon="-1.47715">
        <ele>414.9</ele>
        <time>2022-08-30T10:28:54Z</time>
      </trkpt>
      <trkpt lat="43.3105" lon="-1.47714">
        <ele>415</ele>
        <time>2022-08-30T10:28:55Z</time>
      </trkpt>
      <trkpt lat="43.3105" lon="-1.47708">
        <ele>415.5</ele>
        <time>2022-08-30T10:28:56Z</time>
      </trkpt>
      <trkpt lat="43.31051" lon="-1.47705">
        <ele>415.7</ele>
        <time>2022-08-30T10:28:57Z</time>
      </trkpt>
      <trkpt lat="43.31053" lon="-1.47701">
        <ele>415.9</ele>
        <time>2022-08-30T10:28:58Z</time>
      </trkpt>
      <trkpt lat="43.31055" lon="-1.47697">
        <ele>416.1</ele>
        <time>2022-08-30T10:29:00Z</time>
      </trkpt>
      <trkpt lat="43.31056" lon="-1.47693">
        <ele>416.2</ele>
        <time>2022-08-30T10:29:01Z</time>
      </trkpt>
      <trkpt lat="43.31058" lon="-1.47689">
        <ele>416.2</ele>
        <time>2022-08-30T10:29:02Z</time>
      </trkpt>
      <trkpt lat="43.31058" lon="-1.47684">
        <ele>416.3</ele>
        <time>2022-08-30T10:29:03Z</time>
      </trkpt>
      <trkpt lat="43.31059" lon="-1.47679">
        <ele>416.4</ele>
        <time>2022-08-30T10:29:04Z</time>
      </trkpt>
      <trkpt lat="43.3106" lon="-1.47674">
        <ele>416.6</ele>
        <time>2022-08-30T10:29:05Z</time>
      </trkpt>
      <trkpt lat="43.31061" lon="-1.4767">
        <ele>416.7</ele>
        <time>2022-08-30T10:29:06Z</time>
      </trkpt>
      <trkpt lat="43.31062" lon="-1.47665">
        <ele>416.8</ele>
        <time>2022-08-30T10:29:07Z</time>
      </trkpt>
      <trkpt lat="43.31063" lon="-1.4766">
        <ele>417</ele>
        <time>2022-08-30T10:29:08Z</time>
      </trkpt>
      <trkpt lat="43.31064" lon="-1.47651">
        <ele>417.3</ele>
        <time>2022-08-30T10:29:09Z</time>
      </trkpt>
      <trkpt lat="43.31065" lon="-1.47647">
        <ele>417.5</ele>
        <time>2022-08-30T10:29:11Z</time>
      </trkpt>
      <trkpt lat="43.31065" lon="-1.47643">
        <ele>417.7</ele>
        <time>2022-08-30T10:29:12Z</time>
      </trkpt>
      <trkpt lat="43.31066" lon="-1.47638">
        <ele>417.9</ele>
        <time>2022-08-30T10:29:13Z</time>
      </trkpt>
      <trkpt lat="43.31066" lon="-1.47634">
        <ele>418.1</ele>
        <time>2022-08-30T10:29:14Z</time>
      </trkpt>
      <trkpt lat="43.31067" lon="-1.4763">
        <ele>418.3</ele>
        <time>2022-08-30T10:29:15Z</time>
      </trkpt>
      <trkpt lat="43.31067" lon="-1.47626">
        <ele>418.6</ele>
        <time>2022-08-30T10:29:16Z</time>
      </trkpt>
      <trkpt lat="43.31068" lon="-1.47622">
        <ele>418.8</ele>
        <time>2022-08-30T10:29:17Z</time>
      </trkpt>
      <trkpt lat="43.3107" lon="-1.47613">
        <ele>419.4</ele>
        <time>2022-08-30T10:29:18Z</time>
      </trkpt>
      <trkpt lat="43.31071" lon="-1.47609">
        <ele>419.8</ele>
        <time>2022-08-30T10:29:20Z</time>
      </trkpt>
      <trkpt lat="43.31072" lon="-1.47604">
        <ele>420.1</ele>
        <time>2022-08-30T10:29:21Z</time>
      </trkpt>
      <trkpt lat="43.31072" lon="-1.476">
        <ele>420.5</ele>
        <time>2022-08-30T10:29:22Z</time>
      </trkpt>
      <trkpt lat="43.31072" lon="-1.47597">
        <ele>420.8</ele>
        <time>2022-08-30T10:29:23Z</time>
      </trkpt>
      <trkpt lat="43.31071" lon="-1.47595">
        <ele>420.9</ele>
        <time>2022-08-30T10:29:24Z</time>
      </trkpt>
      <trkpt lat="43.3107" lon="-1.47591">
        <ele>421.3</ele>
        <time>2022-08-30T10:29:25Z</time>
      </trkpt>
      <trkpt lat="43.31069" lon="-1.4759">
        <ele>421.4</ele>
        <time>2022-08-30T10:29:26Z</time>
      </trkpt>
      <trkpt lat="43.31067" lon="-1.47585">
        <ele>421.9</ele>
        <time>2022-08-30T10:29:27Z</time>
      </trkpt>
      <trkpt lat="43.31067" lon="-1.47584">
        <ele>422.1</ele>
        <time>2022-08-30T10:29:28Z</time>
      </trkpt>
      <trkpt lat="43.31065" lon="-1.4758">
        <ele>422.5</ele>
        <time>2022-08-30T10:29:29Z</time>
      </trkpt>
      <trkpt lat="43.31064" lon="-1.47578">
        <ele>422.6</ele>
        <time>2022-08-30T10:29:30Z</time>
      </trkpt>
      <trkpt lat="43.31062" lon="-1.47574">
        <ele>423.1</ele>
        <time>2022-08-30T10:29:31Z</time>
      </trkpt>
      <trkpt lat="43.31061" lon="-1.47572">
        <ele>423.2</ele>
        <time>2022-08-30T10:29:32Z</time>
      </trkpt>
      <trkpt lat="43.31059" lon="-1.47568">
        <ele>423.7</ele>
        <time>2022-08-30T10:29:33Z</time>
      </trkpt>
      <trkpt lat="43.31058" lon="-1.47566">
        <ele>423.9</ele>
        <time>2022-08-30T10:29:34Z</time>
      </trkpt>
      <trkpt lat="43.31055" lon="-1.47563">
        <ele>424.2</ele>
        <time>2022-08-30T10:29:35Z</time>
      </trkpt>
      <trkpt lat="43.31054" lon="-1.47562">
        <ele>424.5</ele>
        <time>2022-08-30T10:29:36Z</time>
      </trkpt>
      <trkpt lat="43.31051" lon="-1.47561">
        <ele>425.2</ele>
        <time>2022-08-30T10:29:37Z</time>
      </trkpt>
      <trkpt lat="43.31049" lon="-1.47561">
        <ele>425.4</ele>
        <time>2022-08-30T10:29:38Z</time>
      </trkpt>
      <trkpt lat="43.31046" lon="-1.4756">
        <ele>426.1</ele>
        <time>2022-08-30T10:29:39Z</time>
      </trkpt>
      <trkpt lat="43.31045" lon="-1.47559">
        <ele>426.4</ele>
        <time>2022-08-30T10:29:40Z</time>
      </trkpt>
      <trkpt lat="43.31041" lon="-1.47558">
        <ele>427.1</ele>
        <time>2022-08-30T10:29:41Z</time>
      </trkpt>
      <trkpt lat="43.3104" lon="-1.47557">
        <ele>427.3</ele>
        <time>2022-08-30T10:29:42Z</time>
      </trkpt>
      <trkpt lat="43.31037" lon="-1.47554">
        <ele>428</ele>
        <time>2022-08-30T10:29:43Z</time>
      </trkpt>
      <trkpt lat="43.31036" lon="-1.47553">
        <ele>428.2</ele>
        <time>2022-08-30T10:29:44Z</time>
      </trkpt>
      <trkpt lat="43.31034" lon="-1.4755">
        <ele>428.7</ele>
        <time>2022-08-30T10:29:45Z</time>
      </trkpt>
      <trkpt lat="43.31033" lon="-1.47549">
        <ele>428.9</ele>
        <time>2022-08-30T10:29:46Z</time>
      </trkpt>
      <trkpt lat="43.31031" lon="-1.47546">
        <ele>429.4</ele>
        <time>2022-08-30T10:29:47Z</time>
      </trkpt>
      <trkpt lat="43.31031" lon="-1.47545">
        <ele>429.5</ele>
        <time>2022-08-30T10:29:48Z</time>
      </trkpt>
      <trkpt lat="43.31028" lon="-1.47543">
        <ele>430</ele>
        <time>2022-08-30T10:29:49Z</time>
      </trkpt>
      <trkpt lat="43.31028" lon="-1.47542">
        <ele>430.2</ele>
        <time>2022-08-30T10:29:50Z</time>
      </trkpt>
      <trkpt lat="43.31025" lon="-1.47539">
        <ele>430.4</ele>
        <time>2022-08-30T10:29:51Z</time>
      </trkpt>
      <trkpt lat="43.31025" lon="-1.47539">
        <ele>430.5</ele>
        <time>2022-08-30T10:29:52Z</time>
      </trkpt>
      <trkpt lat="43.31024" lon="-1.47537">
        <ele>430.7</ele>
        <time>2022-08-30T10:29:53Z</time>
      </trkpt>
      <trkpt lat="43.31023" lon="-1.47535">
        <ele>430.8</ele>
        <time>2022-08-30T10:29:54Z</time>
      </trkpt>
      <trkpt lat="43.31022" lon="-1.47533">
        <ele>431</ele>
        <time>2022-08-30T10:29:55Z</time>
      </trkpt>
      <trkpt lat="43.3102" lon="-1.47531">
        <ele>431.1</ele>
        <time>2022-08-30T10:29:56Z</time>
      </trkpt>
      <trkpt lat="43.31018" lon="-1.47528">
        <ele>431.4</ele>
        <time>2022-08-30T10:29:57Z</time>
      </trkpt>
      <trkpt lat="43.31018" lon="-1.47528">
        <ele>431.4</ele>
        <time>2022-08-30T10:29:58Z</time>
      </trkpt>
      <trkpt lat="43.31016" lon="-1.47524">
        <ele>431.7</ele>
        <time>2022-08-30T10:29:59Z</time>
      </trkpt>
      <trkpt lat="43.31016" lon="-1.47523">
        <ele>431.8</ele>
        <time>2022-08-30T10:30:00Z</time>
      </trkpt>
      <trkpt lat="43.31014" lon="-1.4752">
        <ele>432</ele>
        <time>2022-08-30T10:30:01Z</time>
      </trkpt>
      <trkpt lat="43.31013" lon="-1.47519">
        <ele>432.2</ele>
        <time>2022-08-30T10:30:02Z</time>
      </trkpt>
      <trkpt lat="43.3101" lon="-1.47517">
        <ele>432.4</ele>
        <time>2022-08-30T10:30:03Z</time>
      </trkpt>
      <trkpt lat="43.3101" lon="-1.47516">
        <ele>432.5</ele>
        <time>2022-08-30T10:30:04Z</time>
      </trkpt>
      <trkpt lat="43.31007" lon="-1.47512">
        <ele>432.9</ele>
        <time>2022-08-30T10:30:05Z</time>
      </trkpt>
      <trkpt lat="43.31006" lon="-1.47511">
        <ele>433</ele>
        <time>2022-08-30T10:30:06Z</time>
      </trkpt>
      <trkpt lat="43.31004" lon="-1.47507">
        <ele>433.3</ele>
        <time>2022-08-30T10:30:07Z</time>
      </trkpt>
      <trkpt lat="43.31003" lon="-1.47506">
        <ele>433.4</ele>
        <time>2022-08-30T10:30:08Z</time>
      </trkpt>
      <trkpt lat="43.31001" lon="-1.47503">
        <ele>433.7</ele>
        <time>2022-08-30T10:30:09Z</time>
      </trkpt>
      <trkpt lat="43.31" lon="-1.47502">
        <ele>433.8</ele>
        <time>2022-08-30T10:30:10Z</time>
      </trkpt>
      <trkpt lat="43.30998" lon="-1.47498">
        <ele>434.1</ele>
        <time>2022-08-30T10:30:11Z</time>
      </trkpt>
      <trkpt lat="43.30997" lon="-1.47497">
        <ele>434.1</ele>
        <time>2022-08-30T10:30:12Z</time>
      </trkpt>
      <trkpt lat="43.30994" lon="-1.47494">
        <ele>434.4</ele>
        <time>2022-08-30T10:30:13Z</time>
      </trkpt>
      <trkpt lat="43.30993" lon="-1.47493">
        <ele>434.5</ele>
        <time>2022-08-30T10:30:14Z</time>
      </trkpt>
      <trkpt lat="43.30991" lon="-1.47489">
        <ele>434.7</ele>
        <time>2022-08-30T10:30:15Z</time>
      </trkpt>
      <trkpt lat="43.3099" lon="-1.47488">
        <ele>434.8</ele>
        <time>2022-08-30T10:30:16Z</time>
      </trkpt>
      <trkpt lat="43.30988" lon="-1.47484">
        <ele>435</ele>
        <time>2022-08-30T10:30:17Z</time>
      </trkpt>
      <trkpt lat="43.30987" lon="-1.47482">
        <ele>435.1</ele>
        <time>2022-08-30T10:30:18Z</time>
      </trkpt>
      <trkpt lat="43.30986" lon="-1.47477">
        <ele>435.3</ele>
        <time>2022-08-30T10:30:19Z</time>
      </trkpt>
      <trkpt lat="43.30985" lon="-1.47476">
        <ele>435.4</ele>
        <time>2022-08-30T10:30:20Z</time>
      </trkpt>
      <trkpt lat="43.30984" lon="-1.47471">
        <ele>435.6</ele>
        <time>2022-08-30T10:30:21Z</time>
      </trkpt>
      <trkpt lat="43.30983" lon="-1.4747">
        <ele>435.7</ele>
        <time>2022-08-30T10:30:22Z</time>
      </trkpt>
      <trkpt lat="43.30982" lon="-1.47465">
        <ele>436</ele>
        <time>2022-08-30T10:30:23Z</time>
      </trkpt>
      <trkpt lat="43.30982" lon="-1.47463">
        <ele>436</ele>
        <time>2022-08-30T10:30:24Z</time>
      </trkpt>
      <trkpt lat="43.30981" lon="-1.47459">
        <ele>436.3</ele>
        <time>2022-08-30T10:30:25Z</time>
      </trkpt>
      <trkpt lat="43.3098" lon="-1.47457">
        <ele>436.4</ele>
        <time>2022-08-30T10:30:26Z</time>
      </trkpt>
      <trkpt lat="43.30979" lon="-1.47453">
        <ele>436.7</ele>
        <time>2022-08-30T10:30:27Z</time>
      </trkpt>
      <trkpt lat="43.30978" lon="-1.47451">
        <ele>436.7</ele>
        <time>2022-08-30T10:30:28Z</time>
      </trkpt>
      <trkpt lat="43.30976" lon="-1.47447">
        <ele>437</ele>
        <time>2022-08-30T10:30:29Z</time>
      </trkpt>
      <trkpt lat="43.30976" lon="-1.47446">
        <ele>437.1</ele>
        <time>2022-08-30T10:30:30Z</time>
      </trkpt>
      <trkpt lat="43.30974" lon="-1.47442">
        <ele>437.3</ele>
        <time>2022-08-30T10:30:31Z</time>
      </trkpt>
      <trkpt lat="43.30973" lon="-1.47441">
        <ele>437.4</ele>
        <time>2022-08-30T10:30:32Z</time>
      </trkpt>
      <trkpt lat="43.30971" lon="-1.47437">
        <ele>437.6</ele>
        <time>2022-08-30T10:30:33Z</time>
      </trkpt>
      <trkpt lat="43.3097" lon="-1.47435">
        <ele>437.6</ele>
        <time>2022-08-30T10:30:34Z</time>
      </trkpt>
      <trkpt lat="43.30968" lon="-1.47432">
        <ele>437.8</ele>
        <time>2022-08-30T10:30:35Z</time>
      </trkpt>
      <trkpt lat="43.30968" lon="-1.47431">
        <ele>437.9</ele>
        <time>2022-08-30T10:30:36Z</time>
      </trkpt>
      <trkpt lat="43.30966" lon="-1.47428">
        <ele>438</ele>
        <time>2022-08-30T10:30:37Z</time>
      </trkpt>
      <trkpt lat="43.30966" lon="-1.47427">
        <ele>438.1</ele>
        <time>2022-08-30T10:30:38Z</time>
      </trkpt>
      <trkpt lat="43.30963" lon="-1.47425">
        <ele>438.2</ele>
        <time>2022-08-30T10:30:39Z</time>
      </trkpt>
      <trkpt lat="43.30962" lon="-1.47424">
        <ele>438.3</ele>
        <time>2022-08-30T10:30:40Z</time>
      </trkpt>
      <trkpt lat="43.3096" lon="-1.47421">
        <ele>438.4</ele>
        <time>2022-08-30T10:30:41Z</time>
      </trkpt>
      <trkpt lat="43.30959" lon="-1.4742">
        <ele>438.5</ele>
        <time>2022-08-30T10:30:42Z</time>
      </trkpt>
      <trkpt lat="43.30957" lon="-1.47417">
        <ele>438.6</ele>
        <time>2022-08-30T10:30:43Z</time>
      </trkpt>
      <trkpt lat="43.30957" lon="-1.47416">
        <ele>438.6</ele>
        <time>2022-08-30T10:30:44Z</time>
      </trkpt>
      <trkpt lat="43.30956" lon="-1.47413">
        <ele>438.7</ele>
        <time>2022-08-30T10:30:45Z</time>
      </trkpt>
      <trkpt lat="43.30955" lon="-1.47411">
        <ele>438.7</ele>
        <time>2022-08-30T10:30:46Z</time>
      </trkpt>
      <trkpt lat="43.30956" lon="-1.47406">
        <ele>438.8</ele>
        <time>2022-08-30T10:30:47Z</time>
      </trkpt>
      <trkpt lat="43.30957" lon="-1.47404">
        <ele>438.8</ele>
        <time>2022-08-30T10:30:48Z</time>
      </trkpt>
      <trkpt lat="43.30958" lon="-1.47399">
        <ele>438.8</ele>
        <time>2022-08-30T10:30:49Z</time>
      </trkpt>
      <trkpt lat="43.30959" lon="-1.47395">
        <ele>438.7</ele>
        <time>2022-08-30T10:30:50Z</time>
      </trkpt>
      <trkpt lat="43.30961" lon="-1.47391">
        <ele>438.6</ele>
        <time>2022-08-30T10:30:51Z</time>
      </trkpt>
      <trkpt lat="43.30962" lon="-1.47385">
        <ele>438.4</ele>
        <time>2022-08-30T10:30:52Z</time>
      </trkpt>
      <trkpt lat="43.30962" lon="-1.47376">
        <ele>438.1</ele>
        <time>2022-08-30T10:30:53Z</time>
      </trkpt>
      <trkpt lat="43.3096" lon="-1.47367">
        <ele>437.7</ele>
        <time>2022-08-30T10:30:54Z</time>
      </trkpt>
      <trkpt lat="43.30958" lon="-1.47359">
        <ele>437.3</ele>
        <time>2022-08-30T10:30:55Z</time>
      </trkpt>
      <trkpt lat="43.30955" lon="-1.47352">
        <ele>436.9</ele>
        <time>2022-08-30T10:30:56Z</time>
      </trkpt>
      <trkpt lat="43.30952" lon="-1.47344">
        <ele>436.6</ele>
        <time>2022-08-30T10:30:57Z</time>
      </trkpt>
      <trkpt lat="43.30951" lon="-1.47336">
        <ele>436.2</ele>
        <time>2022-08-30T10:30:58Z</time>
      </trkpt>
      <trkpt lat="43.30949" lon="-1.47328">
        <ele>435.9</ele>
        <time>2022-08-30T10:30:59Z</time>
      </trkpt>
      <trkpt lat="43.30948" lon="-1.47319">
        <ele>435.7</ele>
        <time>2022-08-30T10:31:00Z</time>
      </trkpt>
      <trkpt lat="43.30945" lon="-1.47311">
        <ele>435.5</ele>
        <time>2022-08-30T10:31:01Z</time>
      </trkpt>
      <trkpt lat="43.30943" lon="-1.47303">
        <ele>435.3</ele>
        <time>2022-08-30T10:31:02Z</time>
      </trkpt>
      <trkpt lat="43.30941" lon="-1.47295">
        <ele>435.2</ele>
        <time>2022-08-30T10:31:03Z</time>
      </trkpt>
      <trkpt lat="43.30937" lon="-1.47288">
        <ele>435.1</ele>
        <time>2022-08-30T10:31:04Z</time>
      </trkpt>
      <trkpt lat="43.30934" lon="-1.47283">
        <ele>435.1</ele>
        <time>2022-08-30T10:31:05Z</time>
      </trkpt>
      <trkpt lat="43.3093" lon="-1.47277">
        <ele>435.2</ele>
        <time>2022-08-30T10:31:06Z</time>
      </trkpt>
      <trkpt lat="43.30928" lon="-1.47271">
        <ele>435.4</ele>
        <time>2022-08-30T10:31:07Z</time>
      </trkpt>
      <trkpt lat="43.30926" lon="-1.47266">
        <ele>435.5</ele>
        <time>2022-08-30T10:31:08Z</time>
      </trkpt>
      <trkpt lat="43.30925" lon="-1.47262">
        <ele>435.7</ele>
        <time>2022-08-30T10:31:09Z</time>
      </trkpt>
      <trkpt lat="43.30923" lon="-1.47258">
        <ele>436</ele>
        <time>2022-08-30T10:31:10Z</time>
      </trkpt>
      <trkpt lat="43.30922" lon="-1.47256">
        <ele>436.1</ele>
        <time>2022-08-30T10:31:11Z</time>
      </trkpt>
      <trkpt lat="43.3092" lon="-1.47252">
        <ele>436.4</ele>
        <time>2022-08-30T10:31:12Z</time>
      </trkpt>
      <trkpt lat="43.30919" lon="-1.47251">
        <ele>436.5</ele>
        <time>2022-08-30T10:31:13Z</time>
      </trkpt>
      <trkpt lat="43.30917" lon="-1.47248">
        <ele>436.9</ele>
        <time>2022-08-30T10:31:14Z</time>
      </trkpt>
      <trkpt lat="43.30916" lon="-1.47247">
        <ele>437</ele>
        <time>2022-08-30T10:31:15Z</time>
      </trkpt>
      <trkpt lat="43.30913" lon="-1.47244">
        <ele>437.3</ele>
        <time>2022-08-30T10:31:16Z</time>
      </trkpt>
      <trkpt lat="43.30912" lon="-1.47243">
        <ele>437.5</ele>
        <time>2022-08-30T10:31:17Z</time>
      </trkpt>
      <trkpt lat="43.3091" lon="-1.47239">
        <ele>437.9</ele>
        <time>2022-08-30T10:31:18Z</time>
      </trkpt>
      <trkpt lat="43.30909" lon="-1.47237">
        <ele>438.1</ele>
        <time>2022-08-30T10:31:19Z</time>
      </trkpt>
      <trkpt lat="43.30906" lon="-1.47234">
        <ele>438.5</ele>
        <time>2022-08-30T10:31:20Z</time>
      </trkpt>
      <trkpt lat="43.30906" lon="-1.47233">
        <ele>438.7</ele>
        <time>2022-08-30T10:31:21Z</time>
      </trkpt>
      <trkpt lat="43.30904" lon="-1.4723">
        <ele>439</ele>
        <time>2022-08-30T10:31:22Z</time>
      </trkpt>
      <trkpt lat="43.30903" lon="-1.47229">
        <ele>439.2</ele>
        <time>2022-08-30T10:31:23Z</time>
      </trkpt>
      <trkpt lat="43.30901" lon="-1.47225">
        <ele>439.6</ele>
        <time>2022-08-30T10:31:24Z</time>
      </trkpt>
      <trkpt lat="43.309" lon="-1.47224">
        <ele>439.7</ele>
        <time>2022-08-30T10:31:25Z</time>
      </trkpt>
      <trkpt lat="43.30897" lon="-1.47221">
        <ele>440.1</ele>
        <time>2022-08-30T10:31:26Z</time>
      </trkpt>
      <trkpt lat="43.30897" lon="-1.4722">
        <ele>440.3</ele>
        <time>2022-08-30T10:31:27Z</time>
      </trkpt>
      <trkpt lat="43.30893" lon="-1.47216">
        <ele>440.9</ele>
        <time>2022-08-30T10:31:28Z</time>
      </trkpt>
      <trkpt lat="43.3089" lon="-1.47213">
        <ele>441.4</ele>
        <time>2022-08-30T10:31:30Z</time>
      </trkpt>
      <trkpt lat="43.30889" lon="-1.47212">
        <ele>441.6</ele>
        <time>2022-08-30T10:31:31Z</time>
      </trkpt>
      <trkpt lat="43.30886" lon="-1.47208">
        <ele>442.1</ele>
        <time>2022-08-30T10:31:32Z</time>
      </trkpt>
      <trkpt lat="43.30886" lon="-1.47207">
        <ele>442.3</ele>
        <time>2022-08-30T10:31:33Z</time>
      </trkpt>
      <trkpt lat="43.30884" lon="-1.47203">
        <ele>442.8</ele>
        <time>2022-08-30T10:31:34Z</time>
      </trkpt>
      <trkpt lat="43.30883" lon="-1.47202">
        <ele>443</ele>
        <time>2022-08-30T10:31:35Z</time>
      </trkpt>
      <trkpt lat="43.3088" lon="-1.47199">
        <ele>443.6</ele>
        <time>2022-08-30T10:31:36Z</time>
      </trkpt>
      <trkpt lat="43.30879" lon="-1.47198">
        <ele>443.8</ele>
        <time>2022-08-30T10:31:37Z</time>
      </trkpt>
      <trkpt lat="43.30875" lon="-1.47197">
        <ele>444.4</ele>
        <time>2022-08-30T10:31:38Z</time>
      </trkpt>
      <trkpt lat="43.30874" lon="-1.47196">
        <ele>444.7</ele>
        <time>2022-08-30T10:31:39Z</time>
      </trkpt>
      <trkpt lat="43.3087" lon="-1.47194">
        <ele>445.3</ele>
        <time>2022-08-30T10:31:40Z</time>
      </trkpt>
      <trkpt lat="43.30869" lon="-1.47194">
        <ele>445.5</ele>
        <time>2022-08-30T10:31:41Z</time>
      </trkpt>
      <trkpt lat="43.30866" lon="-1.47192">
        <ele>446.1</ele>
        <time>2022-08-30T10:31:42Z</time>
      </trkpt>
      <trkpt lat="43.30865" lon="-1.47192">
        <ele>446.2</ele>
        <time>2022-08-30T10:31:43Z</time>
      </trkpt>
      <trkpt lat="43.30863" lon="-1.47189">
        <ele>446.6</ele>
        <time>2022-08-30T10:31:44Z</time>
      </trkpt>
      <trkpt lat="43.30862" lon="-1.47188">
        <ele>446.8</ele>
        <time>2022-08-30T10:31:45Z</time>
      </trkpt>
      <trkpt lat="43.30859" lon="-1.47186">
        <ele>447.2</ele>
        <time>2022-08-30T10:31:46Z</time>
      </trkpt>
      <trkpt lat="43.30858" lon="-1.47186">
        <ele>447.3</ele>
        <time>2022-08-30T10:31:47Z</time>
      </trkpt>
      <trkpt lat="43.30855" lon="-1.47184">
        <ele>447.7</ele>
        <time>2022-08-30T10:31:48Z</time>
      </trkpt>
      <trkpt lat="43.30854" lon="-1.47183">
        <ele>447.8</ele>
        <time>2022-08-30T10:31:49Z</time>
      </trkpt>
      <trkpt lat="43.30852" lon="-1.4718">
        <ele>448.2</ele>
        <time>2022-08-30T10:31:50Z</time>
      </trkpt>
      <trkpt lat="43.30851" lon="-1.47179">
        <ele>448.3</ele>
        <time>2022-08-30T10:31:51Z</time>
      </trkpt>
      <trkpt lat="43.3085" lon="-1.47177">
        <ele>448.5</ele>
        <time>2022-08-30T10:31:52Z</time>
      </trkpt>
      <trkpt lat="43.30849" lon="-1.47175">
        <ele>448.6</ele>
        <time>2022-08-30T10:31:53Z</time>
      </trkpt>
      <trkpt lat="43.3085" lon="-1.47171">
        <ele>449</ele>
        <time>2022-08-30T10:31:54Z</time>
      </trkpt>
      <trkpt lat="43.30851" lon="-1.47169">
        <ele>449.1</ele>
        <time>2022-08-30T10:31:55Z</time>
      </trkpt>
      <trkpt lat="43.30853" lon="-1.47167">
        <ele>449.4</ele>
        <time>2022-08-30T10:31:56Z</time>
      </trkpt>
      <trkpt lat="43.30856" lon="-1.47165">
        <ele>449.7</ele>
        <time>2022-08-30T10:31:57Z</time>
      </trkpt>
      <trkpt lat="43.30858" lon="-1.47161">
        <ele>450.2</ele>
        <time>2022-08-30T10:31:58Z</time>
      </trkpt>
      <trkpt lat="43.30859" lon="-1.4716">
        <ele>450.4</ele>
        <time>2022-08-30T10:31:59Z</time>
      </trkpt>
      <trkpt lat="43.30862" lon="-1.47156">
        <ele>451</ele>
        <time>2022-08-30T10:32:00Z</time>
      </trkpt>
      <trkpt lat="43.30863" lon="-1.47154">
        <ele>451.2</ele>
        <time>2022-08-30T10:32:01Z</time>
      </trkpt>
      <trkpt lat="43.30864" lon="-1.4715">
        <ele>451.8</ele>
        <time>2022-08-30T10:32:02Z</time>
      </trkpt>
      <trkpt lat="43.30864" lon="-1.47149">
        <ele>452</ele>
        <time>2022-08-30T10:32:03Z</time>
      </trkpt>
      <trkpt lat="43.30865" lon="-1.47145">
        <ele>452.6</ele>
        <time>2022-08-30T10:32:04Z</time>
      </trkpt>
      <trkpt lat="43.30865" lon="-1.47143">
        <ele>452.9</ele>
        <time>2022-08-30T10:32:05Z</time>
      </trkpt>
      <trkpt lat="43.30866" lon="-1.47138">
        <ele>453.7</ele>
        <time>2022-08-30T10:32:06Z</time>
      </trkpt>
      <trkpt lat="43.30866" lon="-1.47136">
        <ele>454</ele>
        <time>2022-08-30T10:32:07Z</time>
      </trkpt>
      <trkpt lat="43.30867" lon="-1.47132">
        <ele>454.8</ele>
        <time>2022-08-30T10:32:08Z</time>
      </trkpt>
      <trkpt lat="43.30867" lon="-1.4713">
        <ele>455.1</ele>
        <time>2022-08-30T10:32:09Z</time>
      </trkpt>
      <trkpt lat="43.30866" lon="-1.47126">
        <ele>455.8</ele>
        <time>2022-08-30T10:32:10Z</time>
      </trkpt>
      <trkpt lat="43.30866" lon="-1.47125">
        <ele>456</ele>
        <time>2022-08-30T10:32:11Z</time>
      </trkpt>
      <trkpt lat="43.30865" lon="-1.47122">
        <ele>456.7</ele>
        <time>2022-08-30T10:32:12Z</time>
      </trkpt>
      <trkpt lat="43.30864" lon="-1.47121">
        <ele>457</ele>
        <time>2022-08-30T10:32:13Z</time>
      </trkpt>
      <trkpt lat="43.30864" lon="-1.47117">
        <ele>457.7</ele>
        <time>2022-08-30T10:32:14Z</time>
      </trkpt>
      <trkpt lat="43.30863" lon="-1.47116">
        <ele>457.9</ele>
        <time>2022-08-30T10:32:15Z</time>
      </trkpt>
      <trkpt lat="43.30862" lon="-1.47114">
        <ele>458.3</ele>
        <time>2022-08-30T10:32:16Z</time>
      </trkpt>
      <trkpt lat="43.30861" lon="-1.47112">
        <ele>458.8</ele>
        <time>2022-08-30T10:32:17Z</time>
      </trkpt>
      <trkpt lat="43.30859" lon="-1.47109">
        <ele>459.5</ele>
        <time>2022-08-30T10:32:18Z</time>
      </trkpt>
      <trkpt lat="43.30859" lon="-1.47108">
        <ele>459.8</ele>
        <time>2022-08-30T10:32:19Z</time>
      </trkpt>
      <trkpt lat="43.30857" lon="-1.47107">
        <ele>460.2</ele>
        <time>2022-08-30T10:32:20Z</time>
      </trkpt>
      <trkpt lat="43.30856" lon="-1.47105">
        <ele>460.6</ele>
        <time>2022-08-30T10:32:21Z</time>
      </trkpt>
      <trkpt lat="43.30855" lon="-1.47103">
        <ele>461</ele>
        <time>2022-08-30T10:32:22Z</time>
      </trkpt>
      <trkpt lat="43.30854" lon="-1.47102">
        <ele>461.3</ele>
        <time>2022-08-30T10:32:23Z</time>
      </trkpt>
      <trkpt lat="43.30853" lon="-1.471">
        <ele>461.7</ele>
        <time>2022-08-30T10:32:24Z</time>
      </trkpt>
      <trkpt lat="43.30852" lon="-1.47099">
        <ele>462</ele>
        <time>2022-08-30T10:32:25Z</time>
      </trkpt>
      <trkpt lat="43.30851" lon="-1.47097">
        <ele>462.4</ele>
        <time>2022-08-30T10:32:26Z</time>
      </trkpt>
      <trkpt lat="43.30849" lon="-1.47096">
        <ele>462.8</ele>
        <time>2022-08-30T10:32:27Z</time>
      </trkpt>
      <trkpt lat="43.30848" lon="-1.47094">
        <ele>463.1</ele>
        <time>2022-08-30T10:32:28Z</time>
      </trkpt>
      <trkpt lat="43.30846" lon="-1.47093">
        <ele>463.5</ele>
        <time>2022-08-30T10:32:29Z</time>
      </trkpt>
      <trkpt lat="43.30843" lon="-1.4709">
        <ele>466.1</ele>
        <time>2022-08-30T10:32:30Z</time>
      </trkpt>
      <trkpt lat="43.30842" lon="-1.47089">
        <ele>466.2</ele>
        <time>2022-08-30T10:32:31Z</time>
      </trkpt>
      <trkpt lat="43.30839" lon="-1.47086">
        <ele>466.4</ele>
        <time>2022-08-30T10:32:32Z</time>
      </trkpt>
      <trkpt lat="43.30837" lon="-1.47084">
        <ele>466.5</ele>
        <time>2022-08-30T10:32:33Z</time>
      </trkpt>
      <trkpt lat="43.30834" lon="-1.47081">
        <ele>466.6</ele>
        <time>2022-08-30T10:32:34Z</time>
      </trkpt>
      <trkpt lat="43.30833" lon="-1.4708">
        <ele>466.7</ele>
        <time>2022-08-30T10:32:35Z</time>
      </trkpt>
      <trkpt lat="43.30831" lon="-1.47077">
        <ele>470.4</ele>
        <time>2022-08-30T10:32:36Z</time>
      </trkpt>
      <trkpt lat="43.3083" lon="-1.47076">
        <ele>470.5</ele>
        <time>2022-08-30T10:32:37Z</time>
      </trkpt>
      <trkpt lat="43.30829" lon="-1.47074">
        <ele>470.6</ele>
        <time>2022-08-30T10:32:38Z</time>
      </trkpt>
      <trkpt lat="43.30828" lon="-1.47073">
        <ele>470.8</ele>
        <time>2022-08-30T10:32:39Z</time>
      </trkpt>
      <trkpt lat="43.30827" lon="-1.47069">
        <ele>470.9</ele>
        <time>2022-08-30T10:32:40Z</time>
      </trkpt>
      <trkpt lat="43.30826" lon="-1.47068">
        <ele>471</ele>
        <time>2022-08-30T10:32:41Z</time>
      </trkpt>
      <trkpt lat="43.30825" lon="-1.47064">
        <ele>471.1</ele>
        <time>2022-08-30T10:32:42Z</time>
      </trkpt>
      <trkpt lat="43.30824" lon="-1.47063">
        <ele>471.3</ele>
        <time>2022-08-30T10:32:43Z</time>
      </trkpt>
      <trkpt lat="43.30822" lon="-1.47059">
        <ele>471.9</ele>
        <time>2022-08-30T10:32:44Z</time>
      </trkpt>
      <trkpt lat="43.30822" lon="-1.47058">
        <ele>472</ele>
        <time>2022-08-30T10:32:45Z</time>
      </trkpt>
      <trkpt lat="43.30821" lon="-1.47056">
        <ele>472.1</ele>
        <time>2022-08-30T10:32:46Z</time>
      </trkpt>
      <trkpt lat="43.30821" lon="-1.47053">
        <ele>472.3</ele>
        <time>2022-08-30T10:32:47Z</time>
      </trkpt>
      <trkpt lat="43.30819" lon="-1.4705">
        <ele>474.8</ele>
        <time>2022-08-30T10:32:48Z</time>
      </trkpt>
      <trkpt lat="43.30819" lon="-1.47049">
        <ele>474.8</ele>
        <time>2022-08-30T10:32:49Z</time>
      </trkpt>
      <trkpt lat="43.30817" lon="-1.47046">
        <ele>475</ele>
        <time>2022-08-30T10:32:50Z</time>
      </trkpt>
      <trkpt lat="43.30817" lon="-1.47045">
        <ele>475</ele>
        <time>2022-08-30T10:32:51Z</time>
      </trkpt>
      <trkpt lat="43.30815" lon="-1.47041">
        <ele>475.2</ele>
        <time>2022-08-30T10:32:52Z</time>
      </trkpt>
      <trkpt lat="43.30815" lon="-1.4704">
        <ele>475.3</ele>
        <time>2022-08-30T10:32:53Z</time>
      </trkpt>
      <trkpt lat="43.30813" lon="-1.47036">
        <ele>475.4</ele>
        <time>2022-08-30T10:32:54Z</time>
      </trkpt>
      <trkpt lat="43.30813" lon="-1.47035">
        <ele>475.5</ele>
        <time>2022-08-30T10:32:55Z</time>
      </trkpt>
      <trkpt lat="43.30812" lon="-1.47031">
        <ele>475.7</ele>
        <time>2022-08-30T10:32:56Z</time>
      </trkpt>
      <trkpt lat="43.30812" lon="-1.4703">
        <ele>475.7</ele>
        <time>2022-08-30T10:32:57Z</time>
      </trkpt>
      <trkpt lat="43.30811" lon="-1.47025">
        <ele>475.9</ele>
        <time>2022-08-30T10:32:58Z</time>
      </trkpt>
      <trkpt lat="43.30811" lon="-1.47024">
        <ele>476</ele>
        <time>2022-08-30T10:32:59Z</time>
      </trkpt>
      <trkpt lat="43.3081" lon="-1.4702">
        <ele>476.1</ele>
        <time>2022-08-30T10:33:00Z</time>
      </trkpt>
      <trkpt lat="43.3081" lon="-1.47018">
        <ele>476.2</ele>
        <time>2022-08-30T10:33:01Z</time>
      </trkpt>
      <trkpt lat="43.30809" lon="-1.47015">
        <ele>476.3</ele>
        <time>2022-08-30T10:33:02Z</time>
      </trkpt>
      <trkpt lat="43.30808" lon="-1.47014">
        <ele>476.4</ele>
        <time>2022-08-30T10:33:03Z</time>
      </trkpt>
      <trkpt lat="43.30806" lon="-1.47009">
        <ele>476.6</ele>
        <time>2022-08-30T10:33:04Z</time>
      </trkpt>
      <trkpt lat="43.30806" lon="-1.47007">
        <ele>476.6</ele>
        <time>2022-08-30T10:33:05Z</time>
      </trkpt>
      <trkpt lat="43.30804" lon="-1.47004">
        <ele>476.7</ele>
        <time>2022-08-30T10:33:06Z</time>
      </trkpt>
      <trkpt lat="43.30803" lon="-1.47001">
        <ele>476.7</ele>
        <time>2022-08-30T10:33:07Z</time>
      </trkpt>
      <trkpt lat="43.30801" lon="-1.46996">
        <ele>476.6</ele>
        <time>2022-08-30T10:33:08Z</time>
      </trkpt>
      <trkpt lat="43.308" lon="-1.46995">
        <ele>476.5</ele>
        <time>2022-08-30T10:33:09Z</time>
      </trkpt>
      <trkpt lat="43.30798" lon="-1.46992">
        <ele>476.4</ele>
        <time>2022-08-30T10:33:10Z</time>
      </trkpt>
      <trkpt lat="43.30796" lon="-1.46989">
        <ele>476.3</ele>
        <time>2022-08-30T10:33:11Z</time>
      </trkpt>
      <trkpt lat="43.30794" lon="-1.46986">
        <ele>476.2</ele>
        <time>2022-08-30T10:33:12Z</time>
      </trkpt>
      <trkpt lat="43.30791" lon="-1.46982">
        <ele>476</ele>
        <time>2022-08-30T10:33:13Z</time>
      </trkpt>
      <trkpt lat="43.30787" lon="-1.46979">
        <ele>475.8</ele>
        <time>2022-08-30T10:33:14Z</time>
      </trkpt>
      <trkpt lat="43.30784" lon="-1.46975">
        <ele>475.5</ele>
        <time>2022-08-30T10:33:15Z</time>
      </trkpt>
      <trkpt lat="43.3078" lon="-1.46971">
        <ele>475.3</ele>
        <time>2022-08-30T10:33:16Z</time>
      </trkpt>
      <trkpt lat="43.30775" lon="-1.46967">
        <ele>475</ele>
        <time>2022-08-30T10:33:17Z</time>
      </trkpt>
      <trkpt lat="43.3077" lon="-1.46965">
        <ele>474.6</ele>
        <time>2022-08-30T10:33:18Z</time>
      </trkpt>
      <trkpt lat="43.30765" lon="-1.46962">
        <ele>474.3</ele>
        <time>2022-08-30T10:33:19Z</time>
      </trkpt>
      <trkpt lat="43.3076" lon="-1.4696">
        <ele>474</ele>
        <time>2022-08-30T10:33:20Z</time>
      </trkpt>
      <trkpt lat="43.30756" lon="-1.46957">
        <ele>473.6</ele>
        <time>2022-08-30T10:33:21Z</time>
      </trkpt>
      <trkpt lat="43.3075" lon="-1.46955">
        <ele>473.3</ele>
        <time>2022-08-30T10:33:22Z</time>
      </trkpt>
      <trkpt lat="43.30744" lon="-1.46953">
        <ele>472.9</ele>
        <time>2022-08-30T10:33:23Z</time>
      </trkpt>
      <trkpt lat="43.30738" lon="-1.46953">
        <ele>472.5</ele>
        <time>2022-08-30T10:33:24Z</time>
      </trkpt>
      <trkpt lat="43.30732" lon="-1.46952">
        <ele>472.2</ele>
        <time>2022-08-30T10:33:25Z</time>
      </trkpt>
      <trkpt lat="43.30726" lon="-1.46952">
        <ele>471.9</ele>
        <time>2022-08-30T10:33:26Z</time>
      </trkpt>
      <trkpt lat="43.30721" lon="-1.46951">
        <ele>471.6</ele>
        <time>2022-08-30T10:33:27Z</time>
      </trkpt>
      <trkpt lat="43.30715" lon="-1.4695">
        <ele>471.4</ele>
        <time>2022-08-30T10:33:28Z</time>
      </trkpt>
      <trkpt lat="43.3071" lon="-1.4695">
        <ele>471.2</ele>
        <time>2022-08-30T10:33:29Z</time>
      </trkpt>
      <trkpt lat="43.30704" lon="-1.46951">
        <ele>471.1</ele>
        <time>2022-08-30T10:33:30Z</time>
      </trkpt>
      <trkpt lat="43.30699" lon="-1.46952">
        <ele>470.9</ele>
        <time>2022-08-30T10:33:31Z</time>
      </trkpt>
      <trkpt lat="43.30694" lon="-1.46953">
        <ele>470.8</ele>
        <time>2022-08-30T10:33:32Z</time>
      </trkpt>
      <trkpt lat="43.3069" lon="-1.46954">
        <ele>470.7</ele>
        <time>2022-08-30T10:33:33Z</time>
      </trkpt>
      <trkpt lat="43.30685" lon="-1.46955">
        <ele>470.6</ele>
        <time>2022-08-30T10:33:34Z</time>
      </trkpt>
      <trkpt lat="43.30681" lon="-1.46956">
        <ele>470.5</ele>
        <time>2022-08-30T10:33:35Z</time>
      </trkpt>
      <trkpt lat="43.30677" lon="-1.46956">
        <ele>470.5</ele>
        <time>2022-08-30T10:33:36Z</time>
      </trkpt>
      <trkpt lat="43.30673" lon="-1.46957">
        <ele>470.4</ele>
        <time>2022-08-30T10:33:37Z</time>
      </trkpt>
      <trkpt lat="43.30669" lon="-1.46958">
        <ele>470.3</ele>
        <time>2022-08-30T10:33:38Z</time>
      </trkpt>
      <trkpt lat="43.30665" lon="-1.46958">
        <ele>470.2</ele>
        <time>2022-08-30T10:33:39Z</time>
      </trkpt>
      <trkpt lat="43.30661" lon="-1.46959">
        <ele>470.1</ele>
        <time>2022-08-30T10:33:40Z</time>
      </trkpt>
      <trkpt lat="43.30657" lon="-1.46959">
        <ele>470</ele>
        <time>2022-08-30T10:33:41Z</time>
      </trkpt>
      <trkpt lat="43.30652" lon="-1.4696">
        <ele>469.8</ele>
        <time>2022-08-30T10:33:42Z</time>
      </trkpt>
      <trkpt lat="43.30647" lon="-1.46961">
        <ele>469.6</ele>
        <time>2022-08-30T10:33:43Z</time>
      </trkpt>
      <trkpt lat="43.30641" lon="-1.46962">
        <ele>469.4</ele>
        <time>2022-08-30T10:33:44Z</time>
      </trkpt>
      <trkpt lat="43.30636" lon="-1.46963">
        <ele>469.2</ele>
        <time>2022-08-30T10:33:45Z</time>
      </trkpt>
      <trkpt lat="43.3063" lon="-1.46963">
        <ele>469</ele>
        <time>2022-08-30T10:33:46Z</time>
      </trkpt>
      <trkpt lat="43.30625" lon="-1.46963">
        <ele>468.9</ele>
        <time>2022-08-30T10:33:47Z</time>
      </trkpt>
      <trkpt lat="43.3062" lon="-1.46962">
        <ele>468.8</ele>
        <time>2022-08-30T10:33:48Z</time>
      </trkpt>
      <trkpt lat="43.30615" lon="-1.46961">
        <ele>468.8</ele>
        <time>2022-08-30T10:33:49Z</time>
      </trkpt>
      <trkpt lat="43.30611" lon="-1.46961">
        <ele>468.9</ele>
        <time>2022-08-30T10:33:50Z</time>
      </trkpt>
      <trkpt lat="43.30608" lon="-1.46961">
        <ele>468.9</ele>
        <time>2022-08-30T10:33:51Z</time>
      </trkpt>
      <trkpt lat="43.30605" lon="-1.46961">
        <ele>469</ele>
        <time>2022-08-30T10:33:52Z</time>
      </trkpt>
      <trkpt lat="43.30601" lon="-1.46962">
        <ele>469.1</ele>
        <time>2022-08-30T10:33:53Z</time>
      </trkpt>
      <trkpt lat="43.30596" lon="-1.46962">
        <ele>469.2</ele>
        <time>2022-08-30T10:33:54Z</time>
      </trkpt>
      <trkpt lat="43.30592" lon="-1.46962">
        <ele>469.3</ele>
        <time>2022-08-30T10:33:55Z</time>
      </trkpt>
      <trkpt lat="43.30588" lon="-1.46961">
        <ele>469.5</ele>
        <time>2022-08-30T10:33:56Z</time>
      </trkpt>
      <trkpt lat="43.30585" lon="-1.4696">
        <ele>469.7</ele>
        <time>2022-08-30T10:33:57Z</time>
      </trkpt>
      <trkpt lat="43.30581" lon="-1.4696">
        <ele>469.9</ele>
        <time>2022-08-30T10:33:58Z</time>
      </trkpt>
      <trkpt lat="43.30577" lon="-1.46959">
        <ele>470.2</ele>
        <time>2022-08-30T10:33:59Z</time>
      </trkpt>
      <trkpt lat="43.30573" lon="-1.46958">
        <ele>470.5</ele>
        <time>2022-08-30T10:34:00Z</time>
      </trkpt>
      <trkpt lat="43.3057" lon="-1.46957">
        <ele>470.8</ele>
        <time>2022-08-30T10:34:01Z</time>
      </trkpt>
      <trkpt lat="43.30566" lon="-1.46956">
        <ele>471.2</ele>
        <time>2022-08-30T10:34:02Z</time>
      </trkpt>
      <trkpt lat="43.30563" lon="-1.46956">
        <ele>471.6</ele>
        <time>2022-08-30T10:34:03Z</time>
      </trkpt>
      <trkpt lat="43.3056" lon="-1.46956">
        <ele>471.9</ele>
        <time>2022-08-30T10:34:04Z</time>
      </trkpt>
      <trkpt lat="43.30556" lon="-1.46956">
        <ele>472.3</ele>
        <time>2022-08-30T10:34:05Z</time>
      </trkpt>
      <trkpt lat="43.30553" lon="-1.46956">
        <ele>472.8</ele>
        <time>2022-08-30T10:34:06Z</time>
      </trkpt>
      <trkpt lat="43.3055" lon="-1.46956">
        <ele>473.2</ele>
        <time>2022-08-30T10:34:07Z</time>
      </trkpt>
      <trkpt lat="43.30547" lon="-1.46954">
        <ele>473.6</ele>
        <time>2022-08-30T10:34:08Z</time>
      </trkpt>
      <trkpt lat="43.30544" lon="-1.46953">
        <ele>474</ele>
        <time>2022-08-30T10:34:09Z</time>
      </trkpt>
      <trkpt lat="43.3054" lon="-1.46952">
        <ele>474.4</ele>
        <time>2022-08-30T10:34:10Z</time>
      </trkpt>
      <trkpt lat="43.30539" lon="-1.46951">
        <ele>474.6</ele>
        <time>2022-08-30T10:34:11Z</time>
      </trkpt>
      <trkpt lat="43.30538" lon="-1.4695">
        <ele>474.8</ele>
        <time>2022-08-30T10:34:12Z</time>
      </trkpt>
      <trkpt lat="43.30537" lon="-1.46949">
        <ele>474.9</ele>
        <time>2022-08-30T10:34:13Z</time>
      </trkpt>
      <trkpt lat="43.30535" lon="-1.46947">
        <ele>475.2</ele>
        <time>2022-08-30T10:34:14Z</time>
      </trkpt>
      <trkpt lat="43.30535" lon="-1.46945">
        <ele>475.3</ele>
        <time>2022-08-30T10:34:15Z</time>
      </trkpt>
      <trkpt lat="43.30534" lon="-1.46944">
        <ele>475.5</ele>
        <time>2022-08-30T10:34:16Z</time>
      </trkpt>
      <trkpt lat="43.30532" lon="-1.4694">
        <ele>475.9</ele>
        <time>2022-08-30T10:34:17Z</time>
      </trkpt>
      <trkpt lat="43.30531" lon="-1.46939">
        <ele>476</ele>
        <time>2022-08-30T10:34:18Z</time>
      </trkpt>
      <trkpt lat="43.30529" lon="-1.46936">
        <ele>476.3</ele>
        <time>2022-08-30T10:34:19Z</time>
      </trkpt>
      <trkpt lat="43.30526" lon="-1.46932">
        <ele>476.7</ele>
        <time>2022-08-30T10:34:20Z</time>
      </trkpt>
      <trkpt lat="43.30525" lon="-1.46931">
        <ele>476.9</ele>
        <time>2022-08-30T10:34:21Z</time>
      </trkpt>
      <trkpt lat="43.30524" lon="-1.46929">
        <ele>477.2</ele>
        <time>2022-08-30T10:34:22Z</time>
      </trkpt>
      <trkpt lat="43.30521" lon="-1.46925">
        <ele>477.6</ele>
        <time>2022-08-30T10:34:23Z</time>
      </trkpt>
      <trkpt lat="43.30518" lon="-1.4692">
        <ele>478.1</ele>
        <time>2022-08-30T10:34:24Z</time>
      </trkpt>
      <trkpt lat="43.30513" lon="-1.46913">
        <ele>478.9</ele>
        <time>2022-08-30T10:34:25Z</time>
      </trkpt>
      <trkpt lat="43.30508" lon="-1.46908">
        <ele>479.7</ele>
        <time>2022-08-30T10:34:26Z</time>
      </trkpt>
      <trkpt lat="43.30504" lon="-1.46903">
        <ele>480.5</ele>
        <time>2022-08-30T10:34:27Z</time>
      </trkpt>
      <trkpt lat="43.305" lon="-1.469">
        <ele>481.2</ele>
        <time>2022-08-30T10:34:28Z</time>
      </trkpt>
      <trkpt lat="43.30496" lon="-1.46896">
        <ele>481.8</ele>
        <time>2022-08-30T10:34:29Z</time>
      </trkpt>
      <trkpt lat="43.30493" lon="-1.46892">
        <ele>482.4</ele>
        <time>2022-08-30T10:34:30Z</time>
      </trkpt>
      <trkpt lat="43.3049" lon="-1.46888">
        <ele>482.9</ele>
        <time>2022-08-30T10:34:31Z</time>
      </trkpt>
      <trkpt lat="43.30487" lon="-1.46885">
        <ele>483.4</ele>
        <time>2022-08-30T10:34:32Z</time>
      </trkpt>
      <trkpt lat="43.30484" lon="-1.46882">
        <ele>483.9</ele>
        <time>2022-08-30T10:34:33Z</time>
      </trkpt>
      <trkpt lat="43.3048" lon="-1.46879">
        <ele>484.3</ele>
        <time>2022-08-30T10:34:34Z</time>
      </trkpt>
      <trkpt lat="43.30477" lon="-1.46877">
        <ele>484.7</ele>
        <time>2022-08-30T10:34:35Z</time>
      </trkpt>
      <trkpt lat="43.30474" lon="-1.46874">
        <ele>485.1</ele>
        <time>2022-08-30T10:34:36Z</time>
      </trkpt>
      <trkpt lat="43.30471" lon="-1.46872">
        <ele>485.4</ele>
        <time>2022-08-30T10:34:37Z</time>
      </trkpt>
      <trkpt lat="43.30467" lon="-1.46869">
        <ele>485.8</ele>
        <time>2022-08-30T10:34:38Z</time>
      </trkpt>
      <trkpt lat="43.30464" lon="-1.46867">
        <ele>486.1</ele>
        <time>2022-08-30T10:34:39Z</time>
      </trkpt>
      <trkpt lat="43.3046" lon="-1.46865">
        <ele>486.4</ele>
        <time>2022-08-30T10:34:40Z</time>
      </trkpt>
      <trkpt lat="43.30457" lon="-1.46862">
        <ele>486.7</ele>
        <time>2022-08-30T10:34:41Z</time>
      </trkpt>
      <trkpt lat="43.30453" lon="-1.46859">
        <ele>487</ele>
        <time>2022-08-30T10:34:42Z</time>
      </trkpt>
      <trkpt lat="43.3045" lon="-1.46856">
        <ele>487.3</ele>
        <time>2022-08-30T10:34:43Z</time>
      </trkpt>
      <trkpt lat="43.30447" lon="-1.46853">
        <ele>487.6</ele>
        <time>2022-08-30T10:34:44Z</time>
      </trkpt>
      <trkpt lat="43.30444" lon="-1.4685">
        <ele>487.9</ele>
        <time>2022-08-30T10:34:45Z</time>
      </trkpt>
      <trkpt lat="43.30441" lon="-1.46846">
        <ele>488.3</ele>
        <time>2022-08-30T10:34:46Z</time>
      </trkpt>
      <trkpt lat="43.30437" lon="-1.46843">
        <ele>488.6</ele>
        <time>2022-08-30T10:34:47Z</time>
      </trkpt>
      <trkpt lat="43.30434" lon="-1.4684">
        <ele>488.9</ele>
        <time>2022-08-30T10:34:48Z</time>
      </trkpt>
      <trkpt lat="43.30431" lon="-1.46837">
        <ele>489.3</ele>
        <time>2022-08-30T10:34:49Z</time>
      </trkpt>
      <trkpt lat="43.30428" lon="-1.46835">
        <ele>489.6</ele>
        <time>2022-08-30T10:34:50Z</time>
      </trkpt>
      <trkpt lat="43.30425" lon="-1.46833">
        <ele>489.9</ele>
        <time>2022-08-30T10:34:51Z</time>
      </trkpt>
      <trkpt lat="43.30422" lon="-1.4683">
        <ele>490.2</ele>
        <time>2022-08-30T10:34:52Z</time>
      </trkpt>
      <trkpt lat="43.30419" lon="-1.46829">
        <ele>490.5</ele>
        <time>2022-08-30T10:34:53Z</time>
      </trkpt>
      <trkpt lat="43.30416" lon="-1.46827">
        <ele>490.9</ele>
        <time>2022-08-30T10:34:54Z</time>
      </trkpt>
      <trkpt lat="43.30413" lon="-1.46825">
        <ele>491.2</ele>
        <time>2022-08-30T10:34:55Z</time>
      </trkpt>
      <trkpt lat="43.3041" lon="-1.46822">
        <ele>491.5</ele>
        <time>2022-08-30T10:34:56Z</time>
      </trkpt>
      <trkpt lat="43.30407" lon="-1.46821">
        <ele>491.8</ele>
        <time>2022-08-30T10:34:57Z</time>
      </trkpt>
      <trkpt lat="43.30404" lon="-1.46818">
        <ele>492</ele>
        <time>2022-08-30T10:34:58Z</time>
      </trkpt>
      <trkpt lat="43.30401" lon="-1.46816">
        <ele>492.3</ele>
        <time>2022-08-30T10:34:59Z</time>
      </trkpt>
      <trkpt lat="43.30399" lon="-1.46813">
        <ele>492.5</ele>
        <time>2022-08-30T10:35:00Z</time>
      </trkpt>
      <trkpt lat="43.30396" lon="-1.46811">
        <ele>492.8</ele>
        <time>2022-08-30T10:35:01Z</time>
      </trkpt>
      <trkpt lat="43.30393" lon="-1.46809">
        <ele>493</ele>
        <time>2022-08-30T10:35:02Z</time>
      </trkpt>
      <trkpt lat="43.30391" lon="-1.46807">
        <ele>493.2</ele>
        <time>2022-08-30T10:35:03Z</time>
      </trkpt>
      <trkpt lat="43.30388" lon="-1.46805">
        <ele>493.4</ele>
        <time>2022-08-30T10:35:04Z</time>
      </trkpt>
      <trkpt lat="43.30385" lon="-1.46804">
        <ele>493.7</ele>
        <time>2022-08-30T10:35:05Z</time>
      </trkpt>
      <trkpt lat="43.30383" lon="-1.46803">
        <ele>493.8</ele>
        <time>2022-08-30T10:35:06Z</time>
      </trkpt>
      <trkpt lat="43.3038" lon="-1.46802">
        <ele>494.1</ele>
        <time>2022-08-30T10:35:07Z</time>
      </trkpt>
      <trkpt lat="43.30378" lon="-1.46802">
        <ele>494.2</ele>
        <time>2022-08-30T10:35:08Z</time>
      </trkpt>
      <trkpt lat="43.30374" lon="-1.46801">
        <ele>494.5</ele>
        <time>2022-08-30T10:35:09Z</time>
      </trkpt>
      <trkpt lat="43.30373" lon="-1.46801">
        <ele>494.6</ele>
        <time>2022-08-30T10:35:10Z</time>
      </trkpt>
      <trkpt lat="43.3037" lon="-1.46799">
        <ele>494.9</ele>
        <time>2022-08-30T10:35:11Z</time>
      </trkpt>
      <trkpt lat="43.30368" lon="-1.46799">
        <ele>494.9</ele>
        <time>2022-08-30T10:35:12Z</time>
      </trkpt>
      <trkpt lat="43.30365" lon="-1.46798">
        <ele>495.2</ele>
        <time>2022-08-30T10:35:13Z</time>
      </trkpt>
      <trkpt lat="43.30364" lon="-1.46797">
        <ele>495.3</ele>
        <time>2022-08-30T10:35:14Z</time>
      </trkpt>
      <trkpt lat="43.3036" lon="-1.46795">
        <ele>495.6</ele>
        <time>2022-08-30T10:35:15Z</time>
      </trkpt>
      <trkpt lat="43.30359" lon="-1.46794">
        <ele>495.7</ele>
        <time>2022-08-30T10:35:16Z</time>
      </trkpt>
      <trkpt lat="43.30356" lon="-1.46788">
        <ele>496.1</ele>
        <time>2022-08-30T10:35:18Z</time>
      </trkpt>
      <trkpt lat="43.30355" lon="-1.46783">
        <ele>496.4</ele>
        <time>2022-08-30T10:35:19Z</time>
      </trkpt>
      <trkpt lat="43.30354" lon="-1.46782">
        <ele>496.5</ele>
        <time>2022-08-30T10:35:20Z</time>
      </trkpt>
      <trkpt lat="43.30353" lon="-1.46777">
        <ele>496.8</ele>
        <time>2022-08-30T10:35:21Z</time>
      </trkpt>
      <trkpt lat="43.30353" lon="-1.46775">
        <ele>496.9</ele>
        <time>2022-08-30T10:35:22Z</time>
      </trkpt>
      <trkpt lat="43.30352" lon="-1.46768">
        <ele>497.4</ele>
        <time>2022-08-30T10:35:24Z</time>
      </trkpt>
      <trkpt lat="43.30352" lon="-1.46764">
        <ele>497.6</ele>
        <time>2022-08-30T10:35:25Z</time>
      </trkpt>
      <trkpt lat="43.30352" lon="-1.46758">
        <ele>498</ele>
        <time>2022-08-30T10:35:26Z</time>
      </trkpt>
      <trkpt lat="43.30352" lon="-1.46756">
        <ele>498.1</ele>
        <time>2022-08-30T10:35:27Z</time>
      </trkpt>
      <trkpt lat="43.30352" lon="-1.46751">
        <ele>498.5</ele>
        <time>2022-08-30T10:35:28Z</time>
      </trkpt>
      <trkpt lat="43.30352" lon="-1.4675">
        <ele>498.6</ele>
        <time>2022-08-30T10:35:29Z</time>
      </trkpt>
      <trkpt lat="43.30352" lon="-1.46745">
        <ele>498.9</ele>
        <time>2022-08-30T10:35:30Z</time>
      </trkpt>
      <trkpt lat="43.30351" lon="-1.46743">
        <ele>499</ele>
        <time>2022-08-30T10:35:31Z</time>
      </trkpt>
      <trkpt lat="43.3035" lon="-1.46738">
        <ele>499.3</ele>
        <time>2022-08-30T10:35:32Z</time>
      </trkpt>
      <trkpt lat="43.3035" lon="-1.46737">
        <ele>499.4</ele>
        <time>2022-08-30T10:35:33Z</time>
      </trkpt>
      <trkpt lat="43.30349" lon="-1.46732">
        <ele>499.8</ele>
        <time>2022-08-30T10:35:34Z</time>
      </trkpt>
      <trkpt lat="43.30348" lon="-1.4673">
        <ele>499.9</ele>
        <time>2022-08-30T10:35:35Z</time>
      </trkpt>
      <trkpt lat="43.30347" lon="-1.46726">
        <ele>500.1</ele>
        <time>2022-08-30T10:35:36Z</time>
      </trkpt>
      <trkpt lat="43.30346" lon="-1.46723">
        <ele>500.3</ele>
        <time>2022-08-30T10:35:37Z</time>
      </trkpt>
      <trkpt lat="43.30346" lon="-1.46719">
        <ele>500.5</ele>
        <time>2022-08-30T10:35:38Z</time>
      </trkpt>
      <trkpt lat="43.30345" lon="-1.46715">
        <ele>500.7</ele>
        <time>2022-08-30T10:35:39Z</time>
      </trkpt>
      <trkpt lat="43.30344" lon="-1.46711">
        <ele>500.9</ele>
        <time>2022-08-30T10:35:40Z</time>
      </trkpt>
      <trkpt lat="43.30343" lon="-1.46708">
        <ele>501.1</ele>
        <time>2022-08-30T10:35:41Z</time>
      </trkpt>
      <trkpt lat="43.30342" lon="-1.46704">
        <ele>501.2</ele>
        <time>2022-08-30T10:35:42Z</time>
      </trkpt>
      <trkpt lat="43.30339" lon="-1.46697">
        <ele>501.5</ele>
        <time>2022-08-30T10:35:43Z</time>
      </trkpt>
      <trkpt lat="43.30338" lon="-1.46694">
        <ele>501.7</ele>
        <time>2022-08-30T10:35:45Z</time>
      </trkpt>
      <trkpt lat="43.30337" lon="-1.4669">
        <ele>501.9</ele>
        <time>2022-08-30T10:35:46Z</time>
      </trkpt>
      <trkpt lat="43.30336" lon="-1.46686">
        <ele>502.1</ele>
        <time>2022-08-30T10:35:47Z</time>
      </trkpt>
      <trkpt lat="43.30335" lon="-1.46682">
        <ele>502.2</ele>
        <time>2022-08-30T10:35:48Z</time>
      </trkpt>
      <trkpt lat="43.30335" lon="-1.46678">
        <ele>502.4</ele>
        <time>2022-08-30T10:35:49Z</time>
      </trkpt>
      <trkpt lat="43.30334" lon="-1.4667">
        <ele>502.8</ele>
        <time>2022-08-30T10:35:50Z</time>
      </trkpt>
      <trkpt lat="43.30333" lon="-1.46666">
        <ele>503</ele>
        <time>2022-08-30T10:35:51Z</time>
      </trkpt>
      <trkpt lat="43.30332" lon="-1.46662">
        <ele>503.2</ele>
        <time>2022-08-30T10:35:52Z</time>
      </trkpt>
      <trkpt lat="43.30331" lon="-1.46658">
        <ele>503.4</ele>
        <time>2022-08-30T10:35:53Z</time>
      </trkpt>
      <trkpt lat="43.30331" lon="-1.46654">
        <ele>503.7</ele>
        <time>2022-08-30T10:35:54Z</time>
      </trkpt>
      <trkpt lat="43.30329" lon="-1.46649">
        <ele>504</ele>
        <time>2022-08-30T10:35:55Z</time>
      </trkpt>
      <trkpt lat="43.30329" lon="-1.46647">
        <ele>504.1</ele>
        <time>2022-08-30T10:35:56Z</time>
      </trkpt>
      <trkpt lat="43.30328" lon="-1.46643">
        <ele>504.3</ele>
        <time>2022-08-30T10:35:57Z</time>
      </trkpt>
      <trkpt lat="43.30327" lon="-1.46639">
        <ele>504.6</ele>
        <time>2022-08-30T10:35:58Z</time>
      </trkpt>
      <trkpt lat="43.30326" lon="-1.46634">
        <ele>504.9</ele>
        <time>2022-08-30T10:35:59Z</time>
      </trkpt>
      <trkpt lat="43.30326" lon="-1.46632">
        <ele>505</ele>
        <time>2022-08-30T10:36:00Z</time>
      </trkpt>
      <trkpt lat="43.30324" lon="-1.46628">
        <ele>505.3</ele>
        <time>2022-08-30T10:36:01Z</time>
      </trkpt>
      <trkpt lat="43.30324" lon="-1.46627">
        <ele>505.3</ele>
        <time>2022-08-30T10:36:02Z</time>
      </trkpt>
      <trkpt lat="43.30323" lon="-1.46624">
        <ele>505.5</ele>
        <time>2022-08-30T10:36:03Z</time>
      </trkpt>
      <trkpt lat="43.30321" lon="-1.46619">
        <ele>505.8</ele>
        <time>2022-08-30T10:36:05Z</time>
      </trkpt>
      <trkpt lat="43.30319" lon="-1.46616">
        <ele>505.9</ele>
        <time>2022-08-30T10:36:06Z</time>
      </trkpt>
      <trkpt lat="43.30317" lon="-1.46612">
        <ele>506.1</ele>
        <time>2022-08-30T10:36:07Z</time>
      </trkpt>
      <trkpt lat="43.30316" lon="-1.4661">
        <ele>506.1</ele>
        <time>2022-08-30T10:36:08Z</time>
      </trkpt>
      <trkpt lat="43.30314" lon="-1.46606">
        <ele>506.2</ele>
        <time>2022-08-30T10:36:09Z</time>
      </trkpt>
      <trkpt lat="43.30313" lon="-1.46604">
        <ele>506.3</ele>
        <time>2022-08-30T10:36:10Z</time>
      </trkpt>
      <trkpt lat="43.30311" lon="-1.466">
        <ele>506.3</ele>
        <time>2022-08-30T10:36:11Z</time>
      </trkpt>
      <trkpt lat="43.30309" lon="-1.46597">
        <ele>506.3</ele>
        <time>2022-08-30T10:36:12Z</time>
      </trkpt>
      <trkpt lat="43.30307" lon="-1.46594">
        <ele>506.3</ele>
        <time>2022-08-30T10:36:13Z</time>
      </trkpt>
      <trkpt lat="43.30305" lon="-1.4659">
        <ele>506.3</ele>
        <time>2022-08-30T10:36:14Z</time>
      </trkpt>
      <trkpt lat="43.30297" lon="-1.46584">
        <ele>506.4</ele>
        <time>2022-08-30T10:36:16Z</time>
      </trkpt>
      <trkpt lat="43.30294" lon="-1.46583">
        <ele>506.4</ele>
        <time>2022-08-30T10:36:17Z</time>
      </trkpt>
      <trkpt lat="43.30291" lon="-1.46581">
        <ele>506.4</ele>
        <time>2022-08-30T10:36:18Z</time>
      </trkpt>
      <trkpt lat="43.30289" lon="-1.46579">
        <ele>506.4</ele>
        <time>2022-08-30T10:36:19Z</time>
      </trkpt>
      <trkpt lat="43.30286" lon="-1.46576">
        <ele>506.5</ele>
        <time>2022-08-30T10:36:20Z</time>
      </trkpt>
      <trkpt lat="43.30286" lon="-1.46575">
        <ele>506.5</ele>
        <time>2022-08-30T10:36:21Z</time>
      </trkpt>
      <trkpt lat="43.30285" lon="-1.46573">
        <ele>506.5</ele>
        <time>2022-08-30T10:36:23Z</time>
      </trkpt>
      <trkpt lat="43.30284" lon="-1.46572">
        <ele>506.6</ele>
        <time>2022-08-30T10:36:24Z</time>
      </trkpt>
      <trkpt lat="43.30282" lon="-1.46569">
        <ele>506.6</ele>
        <time>2022-08-30T10:36:25Z</time>
      </trkpt>
      <trkpt lat="43.3028" lon="-1.46566">
        <ele>506.7</ele>
        <time>2022-08-30T10:36:27Z</time>
      </trkpt>
      <trkpt lat="43.30278" lon="-1.46565">
        <ele>506.7</ele>
        <time>2022-08-30T10:36:29Z</time>
      </trkpt>
      <trkpt lat="43.30274" lon="-1.46563">
        <ele>506.8</ele>
        <time>2022-08-30T10:36:30Z</time>
      </trkpt>
      <trkpt lat="43.30273" lon="-1.46563">
        <ele>506.8</ele>
        <time>2022-08-30T10:36:31Z</time>
      </trkpt>
      <trkpt lat="43.3027" lon="-1.46562">
        <ele>506.8</ele>
        <time>2022-08-30T10:36:32Z</time>
      </trkpt>
      <trkpt lat="43.30265" lon="-1.46559">
        <ele>506.9</ele>
        <time>2022-08-30T10:36:33Z</time>
      </trkpt>
      <trkpt lat="43.30262" lon="-1.46558">
        <ele>507</ele>
        <time>2022-08-30T10:36:34Z</time>
      </trkpt>
      <trkpt lat="43.30259" lon="-1.46557">
        <ele>507.1</ele>
        <time>2022-08-30T10:36:36Z</time>
      </trkpt>
      <trkpt lat="43.30257" lon="-1.46555">
        <ele>507.2</ele>
        <time>2022-08-30T10:36:37Z</time>
      </trkpt>
      <trkpt lat="43.30255" lon="-1.46552">
        <ele>507.3</ele>
        <time>2022-08-30T10:36:38Z</time>
      </trkpt>
      <trkpt lat="43.30251" lon="-1.46547">
        <ele>507.4</ele>
        <time>2022-08-30T10:36:39Z</time>
      </trkpt>
      <trkpt lat="43.30249" lon="-1.46545">
        <ele>507.5</ele>
        <time>2022-08-30T10:36:40Z</time>
      </trkpt>
      <trkpt lat="43.30248" lon="-1.46542">
        <ele>507.6</ele>
        <time>2022-08-30T10:36:41Z</time>
      </trkpt>
      <trkpt lat="43.30246" lon="-1.46539">
        <ele>507.8</ele>
        <time>2022-08-30T10:36:43Z</time>
      </trkpt>
      <trkpt lat="43.30244" lon="-1.46535">
        <ele>508.1</ele>
        <time>2022-08-30T10:36:44Z</time>
      </trkpt>
      <trkpt lat="43.30243" lon="-1.46533">
        <ele>508.2</ele>
        <time>2022-08-30T10:36:45Z</time>
      </trkpt>
      <trkpt lat="43.30242" lon="-1.4653">
        <ele>508.4</ele>
        <time>2022-08-30T10:36:46Z</time>
      </trkpt>
      <trkpt lat="43.30239" lon="-1.46523">
        <ele>508.8</ele>
        <time>2022-08-30T10:36:48Z</time>
      </trkpt>
      <trkpt lat="43.30238" lon="-1.4652">
        <ele>509</ele>
        <time>2022-08-30T10:36:49Z</time>
      </trkpt>
      <trkpt lat="43.30237" lon="-1.46516">
        <ele>509.2</ele>
        <time>2022-08-30T10:36:50Z</time>
      </trkpt>
      <trkpt lat="43.30236" lon="-1.46512">
        <ele>509.5</ele>
        <time>2022-08-30T10:36:51Z</time>
      </trkpt>
      <trkpt lat="43.30234" lon="-1.46506">
        <ele>509.9</ele>
        <time>2022-08-30T10:36:52Z</time>
      </trkpt>
      <trkpt lat="43.30233" lon="-1.46503">
        <ele>510</ele>
        <time>2022-08-30T10:36:53Z</time>
      </trkpt>
      <trkpt lat="43.30232" lon="-1.465">
        <ele>510.2</ele>
        <time>2022-08-30T10:36:54Z</time>
      </trkpt>
      <trkpt lat="43.3023" lon="-1.46496">
        <ele>510.5</ele>
        <time>2022-08-30T10:36:56Z</time>
      </trkpt>
      <trkpt lat="43.3023" lon="-1.46494">
        <ele>510.6</ele>
        <time>2022-08-30T10:36:57Z</time>
      </trkpt>
      <trkpt lat="43.3023" lon="-1.46489">
        <ele>510.9</ele>
        <time>2022-08-30T10:36:58Z</time>
      </trkpt>
      <trkpt lat="43.3023" lon="-1.46488">
        <ele>510.9</ele>
        <time>2022-08-30T10:36:59Z</time>
      </trkpt>
      <trkpt lat="43.3023" lon="-1.46482">
        <ele>511.2</ele>
        <time>2022-08-30T10:37:00Z</time>
      </trkpt>
      <trkpt lat="43.3023" lon="-1.46481">
        <ele>511.3</ele>
        <time>2022-08-30T10:37:01Z</time>
      </trkpt>
      <trkpt lat="43.30229" lon="-1.46477">
        <ele>511.5</ele>
        <time>2022-08-30T10:37:02Z</time>
      </trkpt>
      <trkpt lat="43.30228" lon="-1.46472">
        <ele>511.8</ele>
        <time>2022-08-30T10:37:03Z</time>
      </trkpt>
      <trkpt lat="43.30227" lon="-1.4647">
        <ele>511.9</ele>
        <time>2022-08-30T10:37:04Z</time>
      </trkpt>
      <trkpt lat="43.30226" lon="-1.46466">
        <ele>512.2</ele>
        <time>2022-08-30T10:37:05Z</time>
      </trkpt>
      <trkpt lat="43.30226" lon="-1.46464">
        <ele>512.3</ele>
        <time>2022-08-30T10:37:06Z</time>
      </trkpt>
      <trkpt lat="43.30226" lon="-1.4646">
        <ele>512.5</ele>
        <time>2022-08-30T10:37:07Z</time>
      </trkpt>
      <trkpt lat="43.30226" lon="-1.46458">
        <ele>512.6</ele>
        <time>2022-08-30T10:37:08Z</time>
      </trkpt>
      <trkpt lat="43.30226" lon="-1.46453">
        <ele>512.9</ele>
        <time>2022-08-30T10:37:09Z</time>
      </trkpt>
      <trkpt lat="43.30226" lon="-1.46452">
        <ele>512.9</ele>
        <time>2022-08-30T10:37:10Z</time>
      </trkpt>
      <trkpt lat="43.30227" lon="-1.46447">
        <ele>513.2</ele>
        <time>2022-08-30T10:37:11Z</time>
      </trkpt>
      <trkpt lat="43.30227" lon="-1.46446">
        <ele>513.3</ele>
        <time>2022-08-30T10:37:12Z</time>
      </trkpt>
      <trkpt lat="43.30227" lon="-1.46441">
        <ele>513.6</ele>
        <time>2022-08-30T10:37:13Z</time>
      </trkpt>
      <trkpt lat="43.30226" lon="-1.46439">
        <ele>513.7</ele>
        <time>2022-08-30T10:37:14Z</time>
      </trkpt>
      <trkpt lat="43.30226" lon="-1.46433">
        <ele>514</ele>
        <time>2022-08-30T10:37:15Z</time>
      </trkpt>
      <trkpt lat="43.30226" lon="-1.46432">
        <ele>514.1</ele>
        <time>2022-08-30T10:37:16Z</time>
      </trkpt>
      <trkpt lat="43.30226" lon="-1.46427">
        <ele>514.3</ele>
        <time>2022-08-30T10:37:17Z</time>
      </trkpt>
      <trkpt lat="43.30226" lon="-1.46425">
        <ele>514.4</ele>
        <time>2022-08-30T10:37:18Z</time>
      </trkpt>
      <trkpt lat="43.30225" lon="-1.46421">
        <ele>514.7</ele>
        <time>2022-08-30T10:37:19Z</time>
      </trkpt>
      <trkpt lat="43.30225" lon="-1.46417">
        <ele>514.9</ele>
        <time>2022-08-30T10:37:20Z</time>
      </trkpt>
      <trkpt lat="43.30224" lon="-1.46414">
        <ele>515.2</ele>
        <time>2022-08-30T10:37:21Z</time>
      </trkpt>
      <trkpt lat="43.30224" lon="-1.4641">
        <ele>515.4</ele>
        <time>2022-08-30T10:37:22Z</time>
      </trkpt>
      <trkpt lat="43.30223" lon="-1.46405">
        <ele>515.8</ele>
        <time>2022-08-30T10:37:23Z</time>
      </trkpt>
      <trkpt lat="43.30223" lon="-1.46403">
        <ele>515.9</ele>
        <time>2022-08-30T10:37:24Z</time>
      </trkpt>
      <trkpt lat="43.30221" lon="-1.46398">
        <ele>516.3</ele>
        <time>2022-08-30T10:37:25Z</time>
      </trkpt>
      <trkpt lat="43.30221" lon="-1.46397">
        <ele>516.4</ele>
        <time>2022-08-30T10:37:26Z</time>
      </trkpt>
      <trkpt lat="43.3022" lon="-1.46392">
        <ele>516.9</ele>
        <time>2022-08-30T10:37:27Z</time>
      </trkpt>
      <trkpt lat="43.30219" lon="-1.4639">
        <ele>517</ele>
        <time>2022-08-30T10:37:28Z</time>
      </trkpt>
      <trkpt lat="43.30218" lon="-1.46386">
        <ele>517.4</ele>
        <time>2022-08-30T10:37:29Z</time>
      </trkpt>
      <trkpt lat="43.30216" lon="-1.46383">
        <ele>517.7</ele>
        <time>2022-08-30T10:37:30Z</time>
      </trkpt>
      <trkpt lat="43.30214" lon="-1.4638">
        <ele>518</ele>
        <time>2022-08-30T10:37:31Z</time>
      </trkpt>
      <trkpt lat="43.30212" lon="-1.46376">
        <ele>518.4</ele>
        <time>2022-08-30T10:37:32Z</time>
      </trkpt>
      <trkpt lat="43.30211" lon="-1.46375">
        <ele>518.6</ele>
        <time>2022-08-30T10:37:33Z</time>
      </trkpt>
      <trkpt lat="43.3021" lon="-1.46371">
        <ele>519</ele>
        <time>2022-08-30T10:37:34Z</time>
      </trkpt>
      <trkpt lat="43.30209" lon="-1.4637">
        <ele>519.1</ele>
        <time>2022-08-30T10:37:35Z</time>
      </trkpt>
      <trkpt lat="43.30207" lon="-1.46366">
        <ele>519.4</ele>
        <time>2022-08-30T10:37:36Z</time>
      </trkpt>
      <trkpt lat="43.30206" lon="-1.46365">
        <ele>519.5</ele>
        <time>2022-08-30T10:37:37Z</time>
      </trkpt>
      <trkpt lat="43.30203" lon="-1.46362">
        <ele>519.9</ele>
        <time>2022-08-30T10:37:38Z</time>
      </trkpt>
      <trkpt lat="43.30202" lon="-1.46361">
        <ele>520.1</ele>
        <time>2022-08-30T10:37:39Z</time>
      </trkpt>
      <trkpt lat="43.30199" lon="-1.46358">
        <ele>520.4</ele>
        <time>2022-08-30T10:37:40Z</time>
      </trkpt>
      <trkpt lat="43.30198" lon="-1.46357">
        <ele>520.5</ele>
        <time>2022-08-30T10:37:41Z</time>
      </trkpt>
      <trkpt lat="43.30196" lon="-1.46354">
        <ele>520.9</ele>
        <time>2022-08-30T10:37:42Z</time>
      </trkpt>
      <trkpt lat="43.30195" lon="-1.46353">
        <ele>521</ele>
        <time>2022-08-30T10:37:43Z</time>
      </trkpt>
      <trkpt lat="43.30192" lon="-1.4635">
        <ele>521.3</ele>
        <time>2022-08-30T10:37:44Z</time>
      </trkpt>
      <trkpt lat="43.30191" lon="-1.46349">
        <ele>521.4</ele>
        <time>2022-08-30T10:37:45Z</time>
      </trkpt>
      <trkpt lat="43.30189" lon="-1.46346">
        <ele>521.7</ele>
        <time>2022-08-30T10:37:46Z</time>
      </trkpt>
      <trkpt lat="43.30189" lon="-1.46345">
        <ele>521.8</ele>
        <time>2022-08-30T10:37:47Z</time>
      </trkpt>
      <trkpt lat="43.30186" lon="-1.46342">
        <ele>522.2</ele>
        <time>2022-08-30T10:37:48Z</time>
      </trkpt>
      <trkpt lat="43.30185" lon="-1.46341">
        <ele>522.3</ele>
        <time>2022-08-30T10:37:49Z</time>
      </trkpt>
      <trkpt lat="43.30182" lon="-1.46338">
        <ele>522.7</ele>
        <time>2022-08-30T10:37:50Z</time>
      </trkpt>
      <trkpt lat="43.30181" lon="-1.46337">
        <ele>522.8</ele>
        <time>2022-08-30T10:37:51Z</time>
      </trkpt>
      <trkpt lat="43.30178" lon="-1.46333">
        <ele>523.2</ele>
        <time>2022-08-30T10:37:52Z</time>
      </trkpt>
      <trkpt lat="43.30177" lon="-1.46332">
        <ele>523.3</ele>
        <time>2022-08-30T10:37:53Z</time>
      </trkpt>
      <trkpt lat="43.30175" lon="-1.4633">
        <ele>523.6</ele>
        <time>2022-08-30T10:37:54Z</time>
      </trkpt>
      <trkpt lat="43.30174" lon="-1.46329">
        <ele>523.7</ele>
        <time>2022-08-30T10:37:55Z</time>
      </trkpt>
      <trkpt lat="43.30171" lon="-1.46328">
        <ele>524</ele>
        <time>2022-08-30T10:37:56Z</time>
      </trkpt>
      <trkpt lat="43.3017" lon="-1.46327">
        <ele>524.1</ele>
        <time>2022-08-30T10:37:57Z</time>
      </trkpt>
      <trkpt lat="43.30168" lon="-1.46324">
        <ele>524.4</ele>
        <time>2022-08-30T10:37:58Z</time>
      </trkpt>
      <trkpt lat="43.30167" lon="-1.46323">
        <ele>524.6</ele>
        <time>2022-08-30T10:37:59Z</time>
      </trkpt>
      <trkpt lat="43.30165" lon="-1.46321">
        <ele>524.9</ele>
        <time>2022-08-30T10:38:00Z</time>
      </trkpt>
      <trkpt lat="43.30164" lon="-1.4632">
        <ele>525</ele>
        <time>2022-08-30T10:38:01Z</time>
      </trkpt>
      <trkpt lat="43.30161" lon="-1.46317">
        <ele>525.4</ele>
        <time>2022-08-30T10:38:02Z</time>
      </trkpt>
      <trkpt lat="43.3016" lon="-1.46316">
        <ele>525.5</ele>
        <time>2022-08-30T10:38:03Z</time>
      </trkpt>
      <trkpt lat="43.30158" lon="-1.46312">
        <ele>525.9</ele>
        <time>2022-08-30T10:38:04Z</time>
      </trkpt>
      <trkpt lat="43.30157" lon="-1.46311">
        <ele>526</ele>
        <time>2022-08-30T10:38:05Z</time>
      </trkpt>
      <trkpt lat="43.30155" lon="-1.46306">
        <ele>526.5</ele>
        <time>2022-08-30T10:38:06Z</time>
      </trkpt>
      <trkpt lat="43.30152" lon="-1.46301">
        <ele>526.9</ele>
        <time>2022-08-30T10:38:08Z</time>
      </trkpt>
      <trkpt lat="43.3015" lon="-1.46296">
        <ele>527.3</ele>
        <time>2022-08-30T10:38:10Z</time>
      </trkpt>
      <trkpt lat="43.30148" lon="-1.46291">
        <ele>527.7</ele>
        <time>2022-08-30T10:38:12Z</time>
      </trkpt>
      <trkpt lat="43.30147" lon="-1.46288">
        <ele>527.9</ele>
        <time>2022-08-30T10:38:13Z</time>
      </trkpt>
      <trkpt lat="43.30146" lon="-1.46286">
        <ele>528</ele>
        <time>2022-08-30T10:38:14Z</time>
      </trkpt>
      <trkpt lat="43.30145" lon="-1.46283">
        <ele>528.2</ele>
        <time>2022-08-30T10:38:15Z</time>
      </trkpt>
      <trkpt lat="43.30145" lon="-1.46281">
        <ele>528.3</ele>
        <time>2022-08-30T10:38:16Z</time>
      </trkpt>
      <trkpt lat="43.30143" lon="-1.46277">
        <ele>528.5</ele>
        <time>2022-08-30T10:38:17Z</time>
      </trkpt>
      <trkpt lat="43.30142" lon="-1.46276">
        <ele>528.6</ele>
        <time>2022-08-30T10:38:18Z</time>
      </trkpt>
      <trkpt lat="43.3014" lon="-1.46274">
        <ele>528.8</ele>
        <time>2022-08-30T10:38:19Z</time>
      </trkpt>
      <trkpt lat="43.30137" lon="-1.46267">
        <ele>529.2</ele>
        <time>2022-08-30T10:38:21Z</time>
      </trkpt>
      <trkpt lat="43.30135" lon="-1.46263">
        <ele>529.4</ele>
        <time>2022-08-30T10:38:22Z</time>
      </trkpt>
      <trkpt lat="43.30135" lon="-1.46261">
        <ele>529.5</ele>
        <time>2022-08-30T10:38:23Z</time>
      </trkpt>
      <trkpt lat="43.30132" lon="-1.46257">
        <ele>529.7</ele>
        <time>2022-08-30T10:38:24Z</time>
      </trkpt>
      <trkpt lat="43.30132" lon="-1.46256">
        <ele>529.8</ele>
        <time>2022-08-30T10:38:25Z</time>
      </trkpt>
      <trkpt lat="43.3013" lon="-1.46252">
        <ele>530</ele>
        <time>2022-08-30T10:38:26Z</time>
      </trkpt>
      <trkpt lat="43.30129" lon="-1.4625">
        <ele>530.1</ele>
        <time>2022-08-30T10:38:27Z</time>
      </trkpt>
      <trkpt lat="43.30127" lon="-1.46246">
        <ele>530.3</ele>
        <time>2022-08-30T10:38:28Z</time>
      </trkpt>
      <trkpt lat="43.30127" lon="-1.46245">
        <ele>530.4</ele>
        <time>2022-08-30T10:38:29Z</time>
      </trkpt>
      <trkpt lat="43.30125" lon="-1.46242">
        <ele>530.5</ele>
        <time>2022-08-30T10:38:30Z</time>
      </trkpt>
      <trkpt lat="43.30122" lon="-1.46236">
        <ele>530.8</ele>
        <time>2022-08-30T10:38:32Z</time>
      </trkpt>
      <trkpt lat="43.3012" lon="-1.4623">
        <ele>531</ele>
        <time>2022-08-30T10:38:34Z</time>
      </trkpt>
      <trkpt lat="43.30119" lon="-1.46227">
        <ele>531.1</ele>
        <time>2022-08-30T10:38:35Z</time>
      </trkpt>
      <trkpt lat="43.30117" lon="-1.46224">
        <ele>531.2</ele>
        <time>2022-08-30T10:38:36Z</time>
      </trkpt>
      <trkpt lat="43.30115" lon="-1.46221">
        <ele>531.4</ele>
        <time>2022-08-30T10:38:37Z</time>
      </trkpt>
      <trkpt lat="43.30113" lon="-1.46218">
        <ele>531.5</ele>
        <time>2022-08-30T10:38:38Z</time>
      </trkpt>
      <trkpt lat="43.30111" lon="-1.46213">
        <ele>531.7</ele>
        <time>2022-08-30T10:38:39Z</time>
      </trkpt>
      <trkpt lat="43.30111" lon="-1.46211">
        <ele>531.7</ele>
        <time>2022-08-30T10:38:40Z</time>
      </trkpt>
      <trkpt lat="43.30109" lon="-1.46208">
        <ele>531.9</ele>
        <time>2022-08-30T10:38:41Z</time>
      </trkpt>
      <trkpt lat="43.30107" lon="-1.46202">
        <ele>532.1</ele>
        <time>2022-08-30T10:38:43Z</time>
      </trkpt>
      <trkpt lat="43.30105" lon="-1.462">
        <ele>532.2</ele>
        <time>2022-08-30T10:38:44Z</time>
      </trkpt>
      <trkpt lat="43.30103" lon="-1.46196">
        <ele>532.4</ele>
        <time>2022-08-30T10:38:45Z</time>
      </trkpt>
      <trkpt lat="43.30102" lon="-1.46195">
        <ele>532.5</ele>
        <time>2022-08-30T10:38:46Z</time>
      </trkpt>
      <trkpt lat="43.301" lon="-1.46191">
        <ele>532.6</ele>
        <time>2022-08-30T10:38:47Z</time>
      </trkpt>
      <trkpt lat="43.30099" lon="-1.4619">
        <ele>532.7</ele>
        <time>2022-08-30T10:38:48Z</time>
      </trkpt>
      <trkpt lat="43.30097" lon="-1.46186">
        <ele>532.9</ele>
        <time>2022-08-30T10:38:49Z</time>
      </trkpt>
      <trkpt lat="43.30096" lon="-1.46185">
        <ele>532.9</ele>
        <time>2022-08-30T10:38:50Z</time>
      </trkpt>
      <trkpt lat="43.30094" lon="-1.46181">
        <ele>533.1</ele>
        <time>2022-08-30T10:38:51Z</time>
      </trkpt>
      <trkpt lat="43.30093" lon="-1.4618">
        <ele>533.2</ele>
        <time>2022-08-30T10:38:52Z</time>
      </trkpt>
      <trkpt lat="43.3009" lon="-1.46175">
        <ele>533.4</ele>
        <time>2022-08-30T10:38:54Z</time>
      </trkpt>
      <trkpt lat="43.30088" lon="-1.46173">
        <ele>533.6</ele>
        <time>2022-08-30T10:38:55Z</time>
      </trkpt>
      <trkpt lat="43.30087" lon="-1.46172">
        <ele>533.6</ele>
        <time>2022-08-30T10:38:56Z</time>
      </trkpt>
      <trkpt lat="43.30084" lon="-1.46169">
        <ele>533.8</ele>
        <time>2022-08-30T10:38:57Z</time>
      </trkpt>
      <trkpt lat="43.30083" lon="-1.46168">
        <ele>533.8</ele>
        <time>2022-08-30T10:38:58Z</time>
      </trkpt>
      <trkpt lat="43.30079" lon="-1.46164">
        <ele>534.1</ele>
        <time>2022-08-30T10:39:00Z</time>
      </trkpt>
      <trkpt lat="43.30076" lon="-1.46162">
        <ele>534.2</ele>
        <time>2022-08-30T10:39:01Z</time>
      </trkpt>
      <trkpt lat="43.30075" lon="-1.46161">
        <ele>534.3</ele>
        <time>2022-08-30T10:39:02Z</time>
      </trkpt>
      <trkpt lat="43.30072" lon="-1.46158">
        <ele>534.5</ele>
        <time>2022-08-30T10:39:03Z</time>
      </trkpt>
      <trkpt lat="43.30071" lon="-1.46157">
        <ele>534.5</ele>
        <time>2022-08-30T10:39:04Z</time>
      </trkpt>
      <trkpt lat="43.30066" lon="-1.46152">
        <ele>534.7</ele>
        <time>2022-08-30T10:39:06Z</time>
      </trkpt>
      <trkpt lat="43.30064" lon="-1.4615">
        <ele>534.9</ele>
        <time>2022-08-30T10:39:07Z</time>
      </trkpt>
      <trkpt lat="43.30061" lon="-1.46148">
        <ele>535</ele>
        <time>2022-08-30T10:39:08Z</time>
      </trkpt>
      <trkpt lat="43.30059" lon="-1.46145">
        <ele>535.1</ele>
        <time>2022-08-30T10:39:09Z</time>
      </trkpt>
      <trkpt lat="43.30056" lon="-1.46143">
        <ele>535.2</ele>
        <time>2022-08-30T10:39:10Z</time>
      </trkpt>
      <trkpt lat="43.30053" lon="-1.46141">
        <ele>535.3</ele>
        <time>2022-08-30T10:39:11Z</time>
      </trkpt>
      <trkpt lat="43.3005" lon="-1.46139">
        <ele>535.4</ele>
        <time>2022-08-30T10:39:12Z</time>
      </trkpt>
      <trkpt lat="43.30047" lon="-1.46137">
        <ele>535.5</ele>
        <time>2022-08-30T10:39:13Z</time>
      </trkpt>
      <trkpt lat="43.30044" lon="-1.46133">
        <ele>535.6</ele>
        <time>2022-08-30T10:39:14Z</time>
      </trkpt>
      <trkpt lat="43.3004" lon="-1.4613">
        <ele>535.6</ele>
        <time>2022-08-30T10:39:15Z</time>
      </trkpt>
      <trkpt lat="43.30034" lon="-1.46125">
        <ele>535.7</ele>
        <time>2022-08-30T10:39:17Z</time>
      </trkpt>
      <trkpt lat="43.30031" lon="-1.46122">
        <ele>535.7</ele>
        <time>2022-08-30T10:39:18Z</time>
      </trkpt>
      <trkpt lat="43.30028" lon="-1.46119">
        <ele>535.6</ele>
        <time>2022-08-30T10:39:19Z</time>
      </trkpt>
      <trkpt lat="43.30025" lon="-1.46116">
        <ele>535.6</ele>
        <time>2022-08-30T10:39:20Z</time>
      </trkpt>
      <trkpt lat="43.30022" lon="-1.46113">
        <ele>535.6</ele>
        <time>2022-08-30T10:39:21Z</time>
      </trkpt>
      <trkpt lat="43.30018" lon="-1.46109">
        <ele>535.6</ele>
        <time>2022-08-30T10:39:22Z</time>
      </trkpt>
      <trkpt lat="43.30015" lon="-1.46106">
        <ele>535.5</ele>
        <time>2022-08-30T10:39:24Z</time>
      </trkpt>
      <trkpt lat="43.30012" lon="-1.46103">
        <ele>535.5</ele>
        <time>2022-08-30T10:39:25Z</time>
      </trkpt>
      <trkpt lat="43.30009" lon="-1.46099">
        <ele>535.4</ele>
        <time>2022-08-30T10:39:26Z</time>
      </trkpt>
      <trkpt lat="43.30005" lon="-1.46096">
        <ele>535.4</ele>
        <time>2022-08-30T10:39:27Z</time>
      </trkpt>
      <trkpt lat="43.29999" lon="-1.46092">
        <ele>535.4</ele>
        <time>2022-08-30T10:39:28Z</time>
      </trkpt>
      <trkpt lat="43.29996" lon="-1.4609">
        <ele>535.4</ele>
        <time>2022-08-30T10:39:30Z</time>
      </trkpt>
      <trkpt lat="43.29992" lon="-1.46088">
        <ele>535.4</ele>
        <time>2022-08-30T10:39:31Z</time>
      </trkpt>
      <trkpt lat="43.29989" lon="-1.46087">
        <ele>535.4</ele>
        <time>2022-08-30T10:39:32Z</time>
      </trkpt>
      <trkpt lat="43.29985" lon="-1.46085">
        <ele>535.5</ele>
        <time>2022-08-30T10:39:33Z</time>
      </trkpt>
      <trkpt lat="43.2998" lon="-1.46082">
        <ele>535.5</ele>
        <time>2022-08-30T10:39:34Z</time>
      </trkpt>
      <trkpt lat="43.29977" lon="-1.46081">
        <ele>535.6</ele>
        <time>2022-08-30T10:39:36Z</time>
      </trkpt>
      <trkpt lat="43.29974" lon="-1.46079">
        <ele>535.6</ele>
        <time>2022-08-30T10:39:37Z</time>
      </trkpt>
      <trkpt lat="43.2997" lon="-1.46077">
        <ele>535.6</ele>
        <time>2022-08-30T10:39:38Z</time>
      </trkpt>
      <trkpt lat="43.29967" lon="-1.46075">
        <ele>535.6</ele>
        <time>2022-08-30T10:39:39Z</time>
      </trkpt>
      <trkpt lat="43.29965" lon="-1.46074">
        <ele>535.6</ele>
        <time>2022-08-30T10:39:40Z</time>
      </trkpt>
      <trkpt lat="43.29961" lon="-1.46073">
        <ele>535.6</ele>
        <time>2022-08-30T10:39:41Z</time>
      </trkpt>
      <trkpt lat="43.29958" lon="-1.46072">
        <ele>535.5</ele>
        <time>2022-08-30T10:39:42Z</time>
      </trkpt>
      <trkpt lat="43.29954" lon="-1.46071">
        <ele>535.5</ele>
        <time>2022-08-30T10:39:43Z</time>
      </trkpt>
      <trkpt lat="43.29951" lon="-1.4607">
        <ele>535.4</ele>
        <time>2022-08-30T10:39:44Z</time>
      </trkpt>
      <trkpt lat="43.29948" lon="-1.46068">
        <ele>535.3</ele>
        <time>2022-08-30T10:39:45Z</time>
      </trkpt>
      <trkpt lat="43.29944" lon="-1.46066">
        <ele>535.2</ele>
        <time>2022-08-30T10:39:46Z</time>
      </trkpt>
      <trkpt lat="43.2994" lon="-1.46063">
        <ele>535.1</ele>
        <time>2022-08-30T10:39:47Z</time>
      </trkpt>
      <trkpt lat="43.29937" lon="-1.46061">
        <ele>535</ele>
        <time>2022-08-30T10:39:48Z</time>
      </trkpt>
      <trkpt lat="43.29933" lon="-1.46059">
        <ele>534.9</ele>
        <time>2022-08-30T10:39:49Z</time>
      </trkpt>
      <trkpt lat="43.2993" lon="-1.46056">
        <ele>534.7</ele>
        <time>2022-08-30T10:39:50Z</time>
      </trkpt>
      <trkpt lat="43.29927" lon="-1.46053">
        <ele>534.5</ele>
        <time>2022-08-30T10:39:51Z</time>
      </trkpt>
      <trkpt lat="43.29923" lon="-1.46049">
        <ele>534.3</ele>
        <time>2022-08-30T10:39:52Z</time>
      </trkpt>
      <trkpt lat="43.2992" lon="-1.46046">
        <ele>534.1</ele>
        <time>2022-08-30T10:39:53Z</time>
      </trkpt>
      <trkpt lat="43.29916" lon="-1.46042">
        <ele>533.8</ele>
        <time>2022-08-30T10:39:54Z</time>
      </trkpt>
      <trkpt lat="43.29913" lon="-1.46037">
        <ele>533.6</ele>
        <time>2022-08-30T10:39:55Z</time>
      </trkpt>
      <trkpt lat="43.2991" lon="-1.46032">
        <ele>533.4</ele>
        <time>2022-08-30T10:39:56Z</time>
      </trkpt>
      <trkpt lat="43.29908" lon="-1.46027">
        <ele>533.1</ele>
        <time>2022-08-30T10:39:57Z</time>
      </trkpt>
      <trkpt lat="43.29904" lon="-1.46022">
        <ele>532.8</ele>
        <time>2022-08-30T10:39:58Z</time>
      </trkpt>
      <trkpt lat="43.29901" lon="-1.46016">
        <ele>532.4</ele>
        <time>2022-08-30T10:39:59Z</time>
      </trkpt>
      <trkpt lat="43.29897" lon="-1.4601">
        <ele>532</ele>
        <time>2022-08-30T10:40:00Z</time>
      </trkpt>
      <trkpt lat="43.29895" lon="-1.46002">
        <ele>531.6</ele>
        <time>2022-08-30T10:40:01Z</time>
      </trkpt>
      <trkpt lat="43.29893" lon="-1.45995">
        <ele>531.1</ele>
        <time>2022-08-30T10:40:02Z</time>
      </trkpt>
      <trkpt lat="43.29891" lon="-1.45987">
        <ele>530.7</ele>
        <time>2022-08-30T10:40:03Z</time>
      </trkpt>
      <trkpt lat="43.29889" lon="-1.45979">
        <ele>530.4</ele>
        <time>2022-08-30T10:40:04Z</time>
      </trkpt>
      <trkpt lat="43.29887" lon="-1.45971">
        <ele>530</ele>
        <time>2022-08-30T10:40:05Z</time>
      </trkpt>
      <trkpt lat="43.29887" lon="-1.45963">
        <ele>529.7</ele>
        <time>2022-08-30T10:40:06Z</time>
      </trkpt>
      <trkpt lat="43.29888" lon="-1.45954">
        <ele>529.3</ele>
        <time>2022-08-30T10:40:07Z</time>
      </trkpt>
      <trkpt lat="43.2989" lon="-1.45946">
        <ele>528.8</ele>
        <time>2022-08-30T10:40:08Z</time>
      </trkpt>
      <trkpt lat="43.29893" lon="-1.45937">
        <ele>528.3</ele>
        <time>2022-08-30T10:40:09Z</time>
      </trkpt>
      <trkpt lat="43.29896" lon="-1.45929">
        <ele>527.8</ele>
        <time>2022-08-30T10:40:10Z</time>
      </trkpt>
      <trkpt lat="43.29899" lon="-1.45921">
        <ele>527.3</ele>
        <time>2022-08-30T10:40:11Z</time>
      </trkpt>
      <trkpt lat="43.29902" lon="-1.45913">
        <ele>526.9</ele>
        <time>2022-08-30T10:40:12Z</time>
      </trkpt>
      <trkpt lat="43.29905" lon="-1.45905">
        <ele>526.4</ele>
        <time>2022-08-30T10:40:13Z</time>
      </trkpt>
      <trkpt lat="43.29908" lon="-1.45897">
        <ele>526</ele>
        <time>2022-08-30T10:40:14Z</time>
      </trkpt>
      <trkpt lat="43.29911" lon="-1.45888">
        <ele>525.7</ele>
        <time>2022-08-30T10:40:15Z</time>
      </trkpt>
      <trkpt lat="43.29914" lon="-1.4588">
        <ele>525.3</ele>
        <time>2022-08-30T10:40:16Z</time>
      </trkpt>
      <trkpt lat="43.29917" lon="-1.45872">
        <ele>525</ele>
        <time>2022-08-30T10:40:17Z</time>
      </trkpt>
      <trkpt lat="43.29919" lon="-1.45863">
        <ele>524.8</ele>
        <time>2022-08-30T10:40:18Z</time>
      </trkpt>
      <trkpt lat="43.2992" lon="-1.45854">
        <ele>524.6</ele>
        <time>2022-08-30T10:40:19Z</time>
      </trkpt>
      <trkpt lat="43.29921" lon="-1.45846">
        <ele>524.5</ele>
        <time>2022-08-30T10:40:20Z</time>
      </trkpt>
      <trkpt lat="43.2992" lon="-1.45838">
        <ele>524.3</ele>
        <time>2022-08-30T10:40:21Z</time>
      </trkpt>
      <trkpt lat="43.2992" lon="-1.4583">
        <ele>524.1</ele>
        <time>2022-08-30T10:40:22Z</time>
      </trkpt>
      <trkpt lat="43.2992" lon="-1.45822">
        <ele>523.8</ele>
        <time>2022-08-30T10:40:23Z</time>
      </trkpt>
      <trkpt lat="43.2992" lon="-1.45814">
        <ele>523.6</ele>
        <time>2022-08-30T10:40:24Z</time>
      </trkpt>
      <trkpt lat="43.2992" lon="-1.45805">
        <ele>523.3</ele>
        <time>2022-08-30T10:40:25Z</time>
      </trkpt>
      <trkpt lat="43.2992" lon="-1.45797">
        <ele>523.1</ele>
        <time>2022-08-30T10:40:26Z</time>
      </trkpt>
      <trkpt lat="43.2992" lon="-1.45789">
        <ele>522.9</ele>
        <time>2022-08-30T10:40:27Z</time>
      </trkpt>
      <trkpt lat="43.29919" lon="-1.4578">
        <ele>522.7</ele>
        <time>2022-08-30T10:40:28Z</time>
      </trkpt>
      <trkpt lat="43.29918" lon="-1.45772">
        <ele>522.5</ele>
        <time>2022-08-30T10:40:29Z</time>
      </trkpt>
      <trkpt lat="43.29917" lon="-1.45764">
        <ele>522.2</ele>
        <time>2022-08-30T10:40:30Z</time>
      </trkpt>
      <trkpt lat="43.29915" lon="-1.45756">
        <ele>522</ele>
        <time>2022-08-30T10:40:31Z</time>
      </trkpt>
      <trkpt lat="43.29914" lon="-1.45748">
        <ele>521.8</ele>
        <time>2022-08-30T10:40:32Z</time>
      </trkpt>
      <trkpt lat="43.29913" lon="-1.45741">
        <ele>521.7</ele>
        <time>2022-08-30T10:40:33Z</time>
      </trkpt>
      <trkpt lat="43.29912" lon="-1.45734">
        <ele>521.6</ele>
        <time>2022-08-30T10:40:34Z</time>
      </trkpt>
      <trkpt lat="43.29912" lon="-1.45727">
        <ele>521.5</ele>
        <time>2022-08-30T10:40:35Z</time>
      </trkpt>
      <trkpt lat="43.29912" lon="-1.45721">
        <ele>521.4</ele>
        <time>2022-08-30T10:40:36Z</time>
      </trkpt>
      <trkpt lat="43.29913" lon="-1.45715">
        <ele>521.3</ele>
        <time>2022-08-30T10:40:37Z</time>
      </trkpt>
      <trkpt lat="43.29915" lon="-1.45709">
        <ele>521.2</ele>
        <time>2022-08-30T10:40:38Z</time>
      </trkpt>
      <trkpt lat="43.29916" lon="-1.45703">
        <ele>521</ele>
        <time>2022-08-30T10:40:39Z</time>
      </trkpt>
      <trkpt lat="43.29918" lon="-1.45697">
        <ele>520.8</ele>
        <time>2022-08-30T10:40:40Z</time>
      </trkpt>
      <trkpt lat="43.29921" lon="-1.45691">
        <ele>520.5</ele>
        <time>2022-08-30T10:40:41Z</time>
      </trkpt>
      <trkpt lat="43.29924" lon="-1.45685">
        <ele>520.2</ele>
        <time>2022-08-30T10:40:42Z</time>
      </trkpt>
      <trkpt lat="43.29927" lon="-1.45679">
        <ele>519.8</ele>
        <time>2022-08-30T10:40:43Z</time>
      </trkpt>
      <trkpt lat="43.29931" lon="-1.45672">
        <ele>519.4</ele>
        <time>2022-08-30T10:40:44Z</time>
      </trkpt>
      <trkpt lat="43.29933" lon="-1.45666">
        <ele>519</ele>
        <time>2022-08-30T10:40:45Z</time>
      </trkpt>
      <trkpt lat="43.29936" lon="-1.45659">
        <ele>518.6</ele>
        <time>2022-08-30T10:40:46Z</time>
      </trkpt>
      <trkpt lat="43.29938" lon="-1.45651">
        <ele>518.2</ele>
        <time>2022-08-30T10:40:47Z</time>
      </trkpt>
      <trkpt lat="43.29941" lon="-1.45644">
        <ele>517.7</ele>
        <time>2022-08-30T10:40:48Z</time>
      </trkpt>
      <trkpt lat="43.29943" lon="-1.45637">
        <ele>517.3</ele>
        <time>2022-08-30T10:40:49Z</time>
      </trkpt>
      <trkpt lat="43.29944" lon="-1.45629">
        <ele>516.7</ele>
        <time>2022-08-30T10:40:50Z</time>
      </trkpt>
      <trkpt lat="43.29945" lon="-1.45619">
        <ele>516</ele>
        <time>2022-08-30T10:40:51Z</time>
      </trkpt>
      <trkpt lat="43.29947" lon="-1.45609">
        <ele>515.3</ele>
        <time>2022-08-30T10:40:52Z</time>
      </trkpt>
      <trkpt lat="43.29949" lon="-1.45599">
        <ele>514.5</ele>
        <time>2022-08-30T10:40:53Z</time>
      </trkpt>
      <trkpt lat="43.2995" lon="-1.45588">
        <ele>513.8</ele>
        <time>2022-08-30T10:40:54Z</time>
      </trkpt>
      <trkpt lat="43.2995" lon="-1.45577">
        <ele>513.2</ele>
        <time>2022-08-30T10:40:55Z</time>
      </trkpt>
      <trkpt lat="43.29948" lon="-1.45557">
        <ele>512.7</ele>
        <time>2022-08-30T10:40:57Z</time>
      </trkpt>
      <trkpt lat="43.29946" lon="-1.45547">
        <ele>512.5</ele>
        <time>2022-08-30T10:40:58Z</time>
      </trkpt>
      <trkpt lat="43.29942" lon="-1.45539">
        <ele>512.3</ele>
        <time>2022-08-30T10:40:59Z</time>
      </trkpt>
      <trkpt lat="43.29938" lon="-1.45532">
        <ele>512.1</ele>
        <time>2022-08-30T10:41:00Z</time>
      </trkpt>
      <trkpt lat="43.29932" lon="-1.45525">
        <ele>511.9</ele>
        <time>2022-08-30T10:41:01Z</time>
      </trkpt>
      <trkpt lat="43.29927" lon="-1.45519">
        <ele>511.7</ele>
        <time>2022-08-30T10:41:02Z</time>
      </trkpt>
      <trkpt lat="43.29923" lon="-1.45514">
        <ele>511.5</ele>
        <time>2022-08-30T10:41:03Z</time>
      </trkpt>
      <trkpt lat="43.29918" lon="-1.45507">
        <ele>511.2</ele>
        <time>2022-08-30T10:41:04Z</time>
      </trkpt>
      <trkpt lat="43.29916" lon="-1.455">
        <ele>510.9</ele>
        <time>2022-08-30T10:41:05Z</time>
      </trkpt>
      <trkpt lat="43.29916" lon="-1.45492">
        <ele>510.6</ele>
        <time>2022-08-30T10:41:06Z</time>
      </trkpt>
      <trkpt lat="43.29916" lon="-1.45483">
        <ele>510.3</ele>
        <time>2022-08-30T10:41:07Z</time>
      </trkpt>
      <trkpt lat="43.29917" lon="-1.45474">
        <ele>509.8</ele>
        <time>2022-08-30T10:41:08Z</time>
      </trkpt>
      <trkpt lat="43.29918" lon="-1.45465">
        <ele>509.4</ele>
        <time>2022-08-30T10:41:09Z</time>
      </trkpt>
      <trkpt lat="43.29919" lon="-1.45456">
        <ele>508.9</ele>
        <time>2022-08-30T10:41:10Z</time>
      </trkpt>
      <trkpt lat="43.2992" lon="-1.45447">
        <ele>508.4</ele>
        <time>2022-08-30T10:41:11Z</time>
      </trkpt>
      <trkpt lat="43.29921" lon="-1.45438">
        <ele>507.7</ele>
        <time>2022-08-30T10:41:12Z</time>
      </trkpt>
      <trkpt lat="43.29923" lon="-1.45429">
        <ele>507</ele>
        <time>2022-08-30T10:41:13Z</time>
      </trkpt>
      <trkpt lat="43.29925" lon="-1.45419">
        <ele>506.2</ele>
        <time>2022-08-30T10:41:14Z</time>
      </trkpt>
      <trkpt lat="43.29927" lon="-1.45411">
        <ele>505.5</ele>
        <time>2022-08-30T10:41:15Z</time>
      </trkpt>
      <trkpt lat="43.2993" lon="-1.45402">
        <ele>504.7</ele>
        <time>2022-08-30T10:41:16Z</time>
      </trkpt>
      <trkpt lat="43.29932" lon="-1.45393">
        <ele>503.9</ele>
        <time>2022-08-30T10:41:17Z</time>
      </trkpt>
      <trkpt lat="43.29934" lon="-1.45385">
        <ele>503</ele>
        <time>2022-08-30T10:41:18Z</time>
      </trkpt>
      <trkpt lat="43.29937" lon="-1.45377">
        <ele>502.2</ele>
        <time>2022-08-30T10:41:19Z</time>
      </trkpt>
      <trkpt lat="43.29942" lon="-1.45363">
        <ele>500.5</ele>
        <time>2022-08-30T10:41:20Z</time>
      </trkpt>
      <trkpt lat="43.29945" lon="-1.45355">
        <ele>499.5</ele>
        <time>2022-08-30T10:41:22Z</time>
      </trkpt>
      <trkpt lat="43.29948" lon="-1.45345">
        <ele>498.3</ele>
        <time>2022-08-30T10:41:23Z</time>
      </trkpt>
      <trkpt lat="43.29953" lon="-1.45337">
        <ele>497.1</ele>
        <time>2022-08-30T10:41:24Z</time>
      </trkpt>
      <trkpt lat="43.29961" lon="-1.45321">
        <ele>494.8</ele>
        <time>2022-08-30T10:41:25Z</time>
      </trkpt>
      <trkpt lat="43.29965" lon="-1.45313">
        <ele>493.6</ele>
        <time>2022-08-30T10:41:27Z</time>
      </trkpt>
      <trkpt lat="43.29969" lon="-1.45304">
        <ele>492.4</ele>
        <time>2022-08-30T10:41:28Z</time>
      </trkpt>
      <trkpt lat="43.29974" lon="-1.45296">
        <ele>491.2</ele>
        <time>2022-08-30T10:41:29Z</time>
      </trkpt>
      <trkpt lat="43.29978" lon="-1.45287">
        <ele>490.1</ele>
        <time>2022-08-30T10:41:30Z</time>
      </trkpt>
      <trkpt lat="43.29982" lon="-1.45279">
        <ele>489</ele>
        <time>2022-08-30T10:41:31Z</time>
      </trkpt>
      <trkpt lat="43.29986" lon="-1.4527">
        <ele>488</ele>
        <time>2022-08-30T10:41:32Z</time>
      </trkpt>
      <trkpt lat="43.29988" lon="-1.45261">
        <ele>486.9</ele>
        <time>2022-08-30T10:41:33Z</time>
      </trkpt>
      <trkpt lat="43.29991" lon="-1.45251">
        <ele>485.9</ele>
        <time>2022-08-30T10:41:34Z</time>
      </trkpt>
      <trkpt lat="43.29992" lon="-1.45242">
        <ele>484.9</ele>
        <time>2022-08-30T10:41:35Z</time>
      </trkpt>
      <trkpt lat="43.29993" lon="-1.45233">
        <ele>483.9</ele>
        <time>2022-08-30T10:41:36Z</time>
      </trkpt>
      <trkpt lat="43.29994" lon="-1.45223">
        <ele>482.9</ele>
        <time>2022-08-30T10:41:37Z</time>
      </trkpt>
      <trkpt lat="43.29994" lon="-1.45213">
        <ele>481.9</ele>
        <time>2022-08-30T10:41:38Z</time>
      </trkpt>
      <trkpt lat="43.29993" lon="-1.45204">
        <ele>480.9</ele>
        <time>2022-08-30T10:41:39Z</time>
      </trkpt>
      <trkpt lat="43.29993" lon="-1.45195">
        <ele>480.1</ele>
        <time>2022-08-30T10:41:40Z</time>
      </trkpt>
      <trkpt lat="43.29992" lon="-1.45186">
        <ele>479.2</ele>
        <time>2022-08-30T10:41:41Z</time>
      </trkpt>
      <trkpt lat="43.29992" lon="-1.45178">
        <ele>478.3</ele>
        <time>2022-08-30T10:41:42Z</time>
      </trkpt>
      <trkpt lat="43.2999" lon="-1.45169">
        <ele>477.4</ele>
        <time>2022-08-30T10:41:43Z</time>
      </trkpt>
      <trkpt lat="43.29988" lon="-1.45161">
        <ele>476.5</ele>
        <time>2022-08-30T10:41:44Z</time>
      </trkpt>
      <trkpt lat="43.29986" lon="-1.45154">
        <ele>475.7</ele>
        <time>2022-08-30T10:41:45Z</time>
      </trkpt>
      <trkpt lat="43.29983" lon="-1.45148">
        <ele>475</ele>
        <time>2022-08-30T10:41:46Z</time>
      </trkpt>
      <trkpt lat="43.29979" lon="-1.45143">
        <ele>474.2</ele>
        <time>2022-08-30T10:41:47Z</time>
      </trkpt>
      <trkpt lat="43.29971" lon="-1.45132">
        <ele>472.2</ele>
        <time>2022-08-30T10:41:48Z</time>
      </trkpt>
      <trkpt lat="43.29965" lon="-1.45119">
        <ele>470.1</ele>
        <time>2022-08-30T10:41:50Z</time>
      </trkpt>
      <trkpt lat="43.29956" lon="-1.45107">
        <ele>468</ele>
        <time>2022-08-30T10:41:52Z</time>
      </trkpt>
      <trkpt lat="43.29951" lon="-1.45102">
        <ele>466.9</ele>
        <time>2022-08-30T10:41:53Z</time>
      </trkpt>
      <trkpt lat="43.29946" lon="-1.45095">
        <ele>465.8</ele>
        <time>2022-08-30T10:41:54Z</time>
      </trkpt>
      <trkpt lat="43.29942" lon="-1.45089">
        <ele>464.7</ele>
        <time>2022-08-30T10:41:55Z</time>
      </trkpt>
      <trkpt lat="43.29937" lon="-1.45083">
        <ele>463.7</ele>
        <time>2022-08-30T10:41:56Z</time>
      </trkpt>
      <trkpt lat="43.29931" lon="-1.45079">
        <ele>462.7</ele>
        <time>2022-08-30T10:41:57Z</time>
      </trkpt>
      <trkpt lat="43.29925" lon="-1.45075">
        <ele>461.9</ele>
        <time>2022-08-30T10:41:58Z</time>
      </trkpt>
      <trkpt lat="43.29918" lon="-1.45073">
        <ele>461.1</ele>
        <time>2022-08-30T10:41:59Z</time>
      </trkpt>
      <trkpt lat="43.29912" lon="-1.45069">
        <ele>460.5</ele>
        <time>2022-08-30T10:42:00Z</time>
      </trkpt>
      <trkpt lat="43.29908" lon="-1.45063">
        <ele>460.1</ele>
        <time>2022-08-30T10:42:01Z</time>
      </trkpt>
      <trkpt lat="43.29906" lon="-1.45056">
        <ele>459.7</ele>
        <time>2022-08-30T10:42:02Z</time>
      </trkpt>
      <trkpt lat="43.29906" lon="-1.45048">
        <ele>459.3</ele>
        <time>2022-08-30T10:42:03Z</time>
      </trkpt>
      <trkpt lat="43.29907" lon="-1.45042">
        <ele>458.9</ele>
        <time>2022-08-30T10:42:04Z</time>
      </trkpt>
      <trkpt lat="43.2991" lon="-1.45035">
        <ele>458.4</ele>
        <time>2022-08-30T10:42:05Z</time>
      </trkpt>
      <trkpt lat="43.29913" lon="-1.4503">
        <ele>457.8</ele>
        <time>2022-08-30T10:42:06Z</time>
      </trkpt>
      <trkpt lat="43.29917" lon="-1.45024">
        <ele>456.9</ele>
        <time>2022-08-30T10:42:07Z</time>
      </trkpt>
      <trkpt lat="43.2992" lon="-1.45016">
        <ele>456</ele>
        <time>2022-08-30T10:42:08Z</time>
      </trkpt>
      <trkpt lat="43.29923" lon="-1.45008">
        <ele>455</ele>
        <time>2022-08-30T10:42:09Z</time>
      </trkpt>
      <trkpt lat="43.29924" lon="-1.45">
        <ele>453.8</ele>
        <time>2022-08-30T10:42:10Z</time>
      </trkpt>
      <trkpt lat="43.29926" lon="-1.44992">
        <ele>452.5</ele>
        <time>2022-08-30T10:42:11Z</time>
      </trkpt>
      <trkpt lat="43.29929" lon="-1.44983">
        <ele>451.3</ele>
        <time>2022-08-30T10:42:12Z</time>
      </trkpt>
      <trkpt lat="43.29931" lon="-1.44974">
        <ele>449.8</ele>
        <time>2022-08-30T10:42:13Z</time>
      </trkpt>
      <trkpt lat="43.29933" lon="-1.44965">
        <ele>448.5</ele>
        <time>2022-08-30T10:42:14Z</time>
      </trkpt>
      <trkpt lat="43.29935" lon="-1.44956">
        <ele>447.2</ele>
        <time>2022-08-30T10:42:15Z</time>
      </trkpt>
      <trkpt lat="43.29936" lon="-1.44947">
        <ele>446</ele>
        <time>2022-08-30T10:42:16Z</time>
      </trkpt>
      <trkpt lat="43.29937" lon="-1.44939">
        <ele>445</ele>
        <time>2022-08-30T10:42:17Z</time>
      </trkpt>
      <trkpt lat="43.29938" lon="-1.44929">
        <ele>443.9</ele>
        <time>2022-08-30T10:42:18Z</time>
      </trkpt>
      <trkpt lat="43.29939" lon="-1.4492">
        <ele>443</ele>
        <time>2022-08-30T10:42:19Z</time>
      </trkpt>
      <trkpt lat="43.29939" lon="-1.44911">
        <ele>442.1</ele>
        <time>2022-08-30T10:42:20Z</time>
      </trkpt>
      <trkpt lat="43.29938" lon="-1.44901">
        <ele>441.2</ele>
        <time>2022-08-30T10:42:21Z</time>
      </trkpt>
      <trkpt lat="43.29937" lon="-1.44893">
        <ele>440.5</ele>
        <time>2022-08-30T10:42:22Z</time>
      </trkpt>
      <trkpt lat="43.29936" lon="-1.44885">
        <ele>439.7</ele>
        <time>2022-08-30T10:42:23Z</time>
      </trkpt>
      <trkpt lat="43.29935" lon="-1.44878">
        <ele>439.1</ele>
        <time>2022-08-30T10:42:24Z</time>
      </trkpt>
      <trkpt lat="43.29935" lon="-1.44871">
        <ele>438.4</ele>
        <time>2022-08-30T10:42:25Z</time>
      </trkpt>
      <trkpt lat="43.29936" lon="-1.44864">
        <ele>437.8</ele>
        <time>2022-08-30T10:42:26Z</time>
      </trkpt>
      <trkpt lat="43.29937" lon="-1.44856">
        <ele>436.9</ele>
        <time>2022-08-30T10:42:27Z</time>
      </trkpt>
      <trkpt lat="43.29936" lon="-1.44848">
        <ele>436.1</ele>
        <time>2022-08-30T10:42:28Z</time>
      </trkpt>
      <trkpt lat="43.29935" lon="-1.44839">
        <ele>435.1</ele>
        <time>2022-08-30T10:42:29Z</time>
      </trkpt>
      <trkpt lat="43.29932" lon="-1.4483">
        <ele>434.2</ele>
        <time>2022-08-30T10:42:30Z</time>
      </trkpt>
      <trkpt lat="43.29929" lon="-1.44821">
        <ele>433.3</ele>
        <time>2022-08-30T10:42:31Z</time>
      </trkpt>
      <trkpt lat="43.29927" lon="-1.44814">
        <ele>432.6</ele>
        <time>2022-08-30T10:42:32Z</time>
      </trkpt>
      <trkpt lat="43.29926" lon="-1.44807">
        <ele>432.1</ele>
        <time>2022-08-30T10:42:33Z</time>
      </trkpt>
      <trkpt lat="43.29925" lon="-1.44803">
        <ele>431.8</ele>
        <time>2022-08-30T10:42:34Z</time>
      </trkpt>
      <trkpt lat="43.29924" lon="-1.448">
        <ele>431.5</ele>
        <time>2022-08-30T10:42:35Z</time>
      </trkpt>
      <trkpt lat="43.29923" lon="-1.448">
        <ele>431.5</ele>
        <time>2022-08-30T10:42:36Z</time>
      </trkpt>
      <trkpt lat="43.29923" lon="-1.44799">
        <ele>431.4</ele>
        <time>2022-08-30T10:42:37Z</time>
      </trkpt>
      <trkpt lat="43.29923" lon="-1.44799">
        <ele>431.4</ele>
        <time>2022-08-30T10:42:38Z</time>
      </trkpt>
      <trkpt lat="43.29922" lon="-1.44798">
        <ele>431.3</ele>
        <time>2022-08-30T10:42:39Z</time>
      </trkpt>
      <trkpt lat="43.29922" lon="-1.44798">
        <ele>431.3</ele>
        <time>2022-08-30T10:42:40Z</time>
      </trkpt>
      <trkpt lat="43.29921" lon="-1.44797">
        <ele>431.2</ele>
        <time>2022-08-30T10:42:41Z</time>
      </trkpt>
      <trkpt lat="43.29921" lon="-1.44797">
        <ele>431.2</ele>
        <time>2022-08-30T10:42:42Z</time>
      </trkpt>
      <trkpt lat="43.29921" lon="-1.44796">
        <ele>431.1</ele>
        <time>2022-08-30T10:42:43Z</time>
      </trkpt>
      <trkpt lat="43.2992" lon="-1.44796">
        <ele>431.1</ele>
        <time>2022-08-30T10:42:44Z</time>
      </trkpt>
      <trkpt lat="43.2992" lon="-1.44795">
        <ele>431</ele>
        <time>2022-08-30T10:42:45Z</time>
      </trkpt>
      <trkpt lat="43.2992" lon="-1.44795">
        <ele>431</ele>
        <time>2022-08-30T10:42:46Z</time>
      </trkpt>
      <trkpt lat="43.29919" lon="-1.44794">
        <ele>430.9</ele>
        <time>2022-08-30T10:44:14Z</time>
      </trkpt>
      <trkpt lat="43.29919" lon="-1.44794">
        <ele>430.9</ele>
        <time>2022-08-30T10:44:15Z</time>
      </trkpt>
      <trkpt lat="43.29918" lon="-1.44793">
        <ele>430.8</ele>
        <time>2022-08-30T10:44:16Z</time>
      </trkpt>
      <trkpt lat="43.29916" lon="-1.4479">
        <ele>429.7</ele>
        <time>2022-08-30T10:44:17Z</time>
      </trkpt>
      <trkpt lat="43.29912" lon="-1.44786">
        <ele>429.4</ele>
        <time>2022-08-30T10:44:18Z</time>
      </trkpt>
      <trkpt lat="43.29907" lon="-1.44781">
        <ele>428.9</ele>
        <time>2022-08-30T10:44:19Z</time>
      </trkpt>
      <trkpt lat="43.29902" lon="-1.44775">
        <ele>428.6</ele>
        <time>2022-08-30T10:44:20Z</time>
      </trkpt>
      <trkpt lat="43.29898" lon="-1.4477">
        <ele>428.4</ele>
        <time>2022-08-30T10:44:21Z</time>
      </trkpt>
      <trkpt lat="43.29893" lon="-1.44765">
        <ele>428.2</ele>
        <time>2022-08-30T10:44:22Z</time>
      </trkpt>
      <trkpt lat="43.29888" lon="-1.44759">
        <ele>428.1</ele>
        <time>2022-08-30T10:44:23Z</time>
      </trkpt>
      <trkpt lat="43.29883" lon="-1.44754">
        <ele>428</ele>
        <time>2022-08-30T10:44:24Z</time>
      </trkpt>
      <trkpt lat="43.29879" lon="-1.44749">
        <ele>428</ele>
        <time>2022-08-30T10:44:25Z</time>
      </trkpt>
      <trkpt lat="43.29875" lon="-1.44745">
        <ele>428</ele>
        <time>2022-08-30T10:44:26Z</time>
      </trkpt>
      <trkpt lat="43.29872" lon="-1.44741">
        <ele>428</ele>
        <time>2022-08-30T10:44:27Z</time>
      </trkpt>
      <trkpt lat="43.29869" lon="-1.44738">
        <ele>428.1</ele>
        <time>2022-08-30T10:44:28Z</time>
      </trkpt>
      <trkpt lat="43.29866" lon="-1.44734">
        <ele>428.1</ele>
        <time>2022-08-30T10:44:29Z</time>
      </trkpt>
      <trkpt lat="43.29863" lon="-1.44731">
        <ele>428.2</ele>
        <time>2022-08-30T10:44:30Z</time>
      </trkpt>
      <trkpt lat="43.2986" lon="-1.44728">
        <ele>428.3</ele>
        <time>2022-08-30T10:44:31Z</time>
      </trkpt>
      <trkpt lat="43.29858" lon="-1.44725">
        <ele>428.4</ele>
        <time>2022-08-30T10:44:32Z</time>
      </trkpt>
      <trkpt lat="43.29855" lon="-1.44722">
        <ele>428.5</ele>
        <time>2022-08-30T10:44:33Z</time>
      </trkpt>
      <trkpt lat="43.29853" lon="-1.44719">
        <ele>428.7</ele>
        <time>2022-08-30T10:44:34Z</time>
      </trkpt>
      <trkpt lat="43.2985" lon="-1.44716">
        <ele>428.8</ele>
        <time>2022-08-30T10:44:35Z</time>
      </trkpt>
      <trkpt lat="43.29848" lon="-1.44713">
        <ele>429</ele>
        <time>2022-08-30T10:44:36Z</time>
      </trkpt>
      <trkpt lat="43.29845" lon="-1.44709">
        <ele>429.2</ele>
        <time>2022-08-30T10:44:37Z</time>
      </trkpt>
      <trkpt lat="43.29843" lon="-1.44706">
        <ele>429.3</ele>
        <time>2022-08-30T10:44:38Z</time>
      </trkpt>
      <trkpt lat="43.29841" lon="-1.44703">
        <ele>429.5</ele>
        <time>2022-08-30T10:44:39Z</time>
      </trkpt>
      <trkpt lat="43.29839" lon="-1.44699">
        <ele>429.7</ele>
        <time>2022-08-30T10:44:40Z</time>
      </trkpt>
      <trkpt lat="43.29837" lon="-1.44695">
        <ele>429.9</ele>
        <time>2022-08-30T10:44:41Z</time>
      </trkpt>
      <trkpt lat="43.29835" lon="-1.44691">
        <ele>430.1</ele>
        <time>2022-08-30T10:44:42Z</time>
      </trkpt>
      <trkpt lat="43.29833" lon="-1.44688">
        <ele>430.3</ele>
        <time>2022-08-30T10:44:43Z</time>
      </trkpt>
      <trkpt lat="43.29831" lon="-1.44684">
        <ele>430.5</ele>
        <time>2022-08-30T10:44:44Z</time>
      </trkpt>
      <trkpt lat="43.29829" lon="-1.4468">
        <ele>430.7</ele>
        <time>2022-08-30T10:44:45Z</time>
      </trkpt>
      <trkpt lat="43.29827" lon="-1.44677">
        <ele>430.9</ele>
        <time>2022-08-30T10:44:46Z</time>
      </trkpt>
      <trkpt lat="43.29826" lon="-1.44673">
        <ele>431.2</ele>
        <time>2022-08-30T10:44:47Z</time>
      </trkpt>
      <trkpt lat="43.29824" lon="-1.4467">
        <ele>431.4</ele>
        <time>2022-08-30T10:44:48Z</time>
      </trkpt>
      <trkpt lat="43.29823" lon="-1.44666">
        <ele>431.6</ele>
        <time>2022-08-30T10:44:49Z</time>
      </trkpt>
      <trkpt lat="43.29821" lon="-1.44662">
        <ele>431.8</ele>
        <time>2022-08-30T10:44:50Z</time>
      </trkpt>
      <trkpt lat="43.29819" lon="-1.44659">
        <ele>432</ele>
        <time>2022-08-30T10:44:51Z</time>
      </trkpt>
      <trkpt lat="43.29817" lon="-1.44656">
        <ele>432.2</ele>
        <time>2022-08-30T10:44:52Z</time>
      </trkpt>
      <trkpt lat="43.29815" lon="-1.44653">
        <ele>432.4</ele>
        <time>2022-08-30T10:44:53Z</time>
      </trkpt>
      <trkpt lat="43.29812" lon="-1.4465">
        <ele>432.5</ele>
        <time>2022-08-30T10:44:54Z</time>
      </trkpt>
      <trkpt lat="43.2981" lon="-1.44648">
        <ele>432.7</ele>
        <time>2022-08-30T10:44:55Z</time>
      </trkpt>
      <trkpt lat="43.29807" lon="-1.44646">
        <ele>432.8</ele>
        <time>2022-08-30T10:44:56Z</time>
      </trkpt>
      <trkpt lat="43.29805" lon="-1.44644">
        <ele>433</ele>
        <time>2022-08-30T10:44:57Z</time>
      </trkpt>
      <trkpt lat="43.29802" lon="-1.44642">
        <ele>433.2</ele>
        <time>2022-08-30T10:44:58Z</time>
      </trkpt>
      <trkpt lat="43.29798" lon="-1.44639">
        <ele>433.5</ele>
        <time>2022-08-30T10:44:59Z</time>
      </trkpt>
      <trkpt lat="43.29795" lon="-1.44636">
        <ele>433.8</ele>
        <time>2022-08-30T10:45:00Z</time>
      </trkpt>
      <trkpt lat="43.29791" lon="-1.44634">
        <ele>434.1</ele>
        <time>2022-08-30T10:45:01Z</time>
      </trkpt>
      <trkpt lat="43.29788" lon="-1.44632">
        <ele>434.4</ele>
        <time>2022-08-30T10:45:02Z</time>
      </trkpt>
      <trkpt lat="43.29784" lon="-1.4463">
        <ele>434.8</ele>
        <time>2022-08-30T10:45:03Z</time>
      </trkpt>
      <trkpt lat="43.29781" lon="-1.44627">
        <ele>435.2</ele>
        <time>2022-08-30T10:45:04Z</time>
      </trkpt>
      <trkpt lat="43.29778" lon="-1.44625">
        <ele>435.6</ele>
        <time>2022-08-30T10:45:05Z</time>
      </trkpt>
      <trkpt lat="43.29775" lon="-1.44623">
        <ele>436.1</ele>
        <time>2022-08-30T10:45:06Z</time>
      </trkpt>
      <trkpt lat="43.29772" lon="-1.44621">
        <ele>436.5</ele>
        <time>2022-08-30T10:45:07Z</time>
      </trkpt>
      <trkpt lat="43.29769" lon="-1.44618">
        <ele>436.9</ele>
        <time>2022-08-30T10:45:08Z</time>
      </trkpt>
      <trkpt lat="43.29766" lon="-1.44616">
        <ele>437.4</ele>
        <time>2022-08-30T10:45:09Z</time>
      </trkpt>
      <trkpt lat="43.29763" lon="-1.44613">
        <ele>437.8</ele>
        <time>2022-08-30T10:45:10Z</time>
      </trkpt>
      <trkpt lat="43.29761" lon="-1.4461">
        <ele>438.3</ele>
        <time>2022-08-30T10:45:11Z</time>
      </trkpt>
      <trkpt lat="43.29758" lon="-1.44607">
        <ele>438.7</ele>
        <time>2022-08-30T10:45:12Z</time>
      </trkpt>
      <trkpt lat="43.29756" lon="-1.44604">
        <ele>439.2</ele>
        <time>2022-08-30T10:45:13Z</time>
      </trkpt>
      <trkpt lat="43.29755" lon="-1.44603">
        <ele>439.3</ele>
        <time>2022-08-30T10:45:14Z</time>
      </trkpt>
      <trkpt lat="43.29753" lon="-1.446">
        <ele>439.7</ele>
        <time>2022-08-30T10:45:15Z</time>
      </trkpt>
      <trkpt lat="43.29751" lon="-1.44597">
        <ele>440</ele>
        <time>2022-08-30T10:45:16Z</time>
      </trkpt>
      <trkpt lat="43.29749" lon="-1.44593">
        <ele>440.3</ele>
        <time>2022-08-30T10:45:17Z</time>
      </trkpt>
      <trkpt lat="43.29748" lon="-1.44589">
        <ele>440.6</ele>
        <time>2022-08-30T10:45:18Z</time>
      </trkpt>
      <trkpt lat="43.29746" lon="-1.44586">
        <ele>440.9</ele>
        <time>2022-08-30T10:45:19Z</time>
      </trkpt>
      <trkpt lat="43.29745" lon="-1.44582">
        <ele>441.1</ele>
        <time>2022-08-30T10:45:20Z</time>
      </trkpt>
      <trkpt lat="43.29743" lon="-1.44578">
        <ele>441.3</ele>
        <time>2022-08-30T10:45:21Z</time>
      </trkpt>
      <trkpt lat="43.29742" lon="-1.44574">
        <ele>441.5</ele>
        <time>2022-08-30T10:45:22Z</time>
      </trkpt>
      <trkpt lat="43.2974" lon="-1.44571">
        <ele>441.6</ele>
        <time>2022-08-30T10:45:23Z</time>
      </trkpt>
      <trkpt lat="43.29739" lon="-1.44567">
        <ele>441.7</ele>
        <time>2022-08-30T10:45:24Z</time>
      </trkpt>
      <trkpt lat="43.29737" lon="-1.44563">
        <ele>441.8</ele>
        <time>2022-08-30T10:45:25Z</time>
      </trkpt>
      <trkpt lat="43.29736" lon="-1.44559">
        <ele>441.9</ele>
        <time>2022-08-30T10:45:26Z</time>
      </trkpt>
      <trkpt lat="43.29734" lon="-1.44556">
        <ele>442</ele>
        <time>2022-08-30T10:45:27Z</time>
      </trkpt>
      <trkpt lat="43.29732" lon="-1.44553">
        <ele>442</ele>
        <time>2022-08-30T10:45:28Z</time>
      </trkpt>
      <trkpt lat="43.2973" lon="-1.44549">
        <ele>442</ele>
        <time>2022-08-30T10:45:29Z</time>
      </trkpt>
      <trkpt lat="43.29729" lon="-1.44545">
        <ele>441.9</ele>
        <time>2022-08-30T10:45:30Z</time>
      </trkpt>
      <trkpt lat="43.29726" lon="-1.44541">
        <ele>441.8</ele>
        <time>2022-08-30T10:45:31Z</time>
      </trkpt>
      <trkpt lat="43.29724" lon="-1.44537">
        <ele>441.6</ele>
        <time>2022-08-30T10:45:32Z</time>
      </trkpt>
      <trkpt lat="43.29721" lon="-1.44533">
        <ele>441.4</ele>
        <time>2022-08-30T10:45:33Z</time>
      </trkpt>
      <trkpt lat="43.29719" lon="-1.44528">
        <ele>441.2</ele>
        <time>2022-08-30T10:45:34Z</time>
      </trkpt>
      <trkpt lat="43.29716" lon="-1.44523">
        <ele>440.9</ele>
        <time>2022-08-30T10:45:35Z</time>
      </trkpt>
      <trkpt lat="43.29714" lon="-1.44518">
        <ele>440.6</ele>
        <time>2022-08-30T10:45:36Z</time>
      </trkpt>
      <trkpt lat="43.29711" lon="-1.44513">
        <ele>440.3</ele>
        <time>2022-08-30T10:45:37Z</time>
      </trkpt>
      <trkpt lat="43.29708" lon="-1.44507">
        <ele>440</ele>
        <time>2022-08-30T10:45:38Z</time>
      </trkpt>
      <trkpt lat="43.29706" lon="-1.445">
        <ele>439.6</ele>
        <time>2022-08-30T10:45:39Z</time>
      </trkpt>
      <trkpt lat="43.29704" lon="-1.44492">
        <ele>439.3</ele>
        <time>2022-08-30T10:45:40Z</time>
      </trkpt>
      <trkpt lat="43.29703" lon="-1.44484">
        <ele>439</ele>
        <time>2022-08-30T10:45:41Z</time>
      </trkpt>
      <trkpt lat="43.29702" lon="-1.44475">
        <ele>438.7</ele>
        <time>2022-08-30T10:45:42Z</time>
      </trkpt>
      <trkpt lat="43.29701" lon="-1.44467">
        <ele>438.5</ele>
        <time>2022-08-30T10:45:43Z</time>
      </trkpt>
      <trkpt lat="43.297" lon="-1.44459">
        <ele>438.4</ele>
        <time>2022-08-30T10:45:44Z</time>
      </trkpt>
      <trkpt lat="43.29698" lon="-1.44452">
        <ele>438.3</ele>
        <time>2022-08-30T10:45:45Z</time>
      </trkpt>
      <trkpt lat="43.29698" lon="-1.44445">
        <ele>438.2</ele>
        <time>2022-08-30T10:45:46Z</time>
      </trkpt>
      <trkpt lat="43.29697" lon="-1.44438">
        <ele>438.1</ele>
        <time>2022-08-30T10:45:47Z</time>
      </trkpt>
      <trkpt lat="43.29695" lon="-1.44431">
        <ele>437.9</ele>
        <time>2022-08-30T10:45:48Z</time>
      </trkpt>
      <trkpt lat="43.29693" lon="-1.44424">
        <ele>437.7</ele>
        <time>2022-08-30T10:45:49Z</time>
      </trkpt>
      <trkpt lat="43.2969" lon="-1.44416">
        <ele>437.5</ele>
        <time>2022-08-30T10:45:50Z</time>
      </trkpt>
      <trkpt lat="43.29687" lon="-1.4441">
        <ele>437.3</ele>
        <time>2022-08-30T10:45:51Z</time>
      </trkpt>
      <trkpt lat="43.29683" lon="-1.44404">
        <ele>437.1</ele>
        <time>2022-08-30T10:45:52Z</time>
      </trkpt>
      <trkpt lat="43.29678" lon="-1.44399">
        <ele>437</ele>
        <time>2022-08-30T10:45:53Z</time>
      </trkpt>
      <trkpt lat="43.29673" lon="-1.44395">
        <ele>436.9</ele>
        <time>2022-08-30T10:45:54Z</time>
      </trkpt>
      <trkpt lat="43.29667" lon="-1.44391">
        <ele>436.7</ele>
        <time>2022-08-30T10:45:55Z</time>
      </trkpt>
      <trkpt lat="43.29662" lon="-1.44387">
        <ele>436.7</ele>
        <time>2022-08-30T10:45:56Z</time>
      </trkpt>
      <trkpt lat="43.29658" lon="-1.44381">
        <ele>436.9</ele>
        <time>2022-08-30T10:45:57Z</time>
      </trkpt>
      <trkpt lat="43.29654" lon="-1.44376">
        <ele>437.1</ele>
        <time>2022-08-30T10:45:58Z</time>
      </trkpt>
      <trkpt lat="43.29651" lon="-1.44372">
        <ele>437.4</ele>
        <time>2022-08-30T10:45:59Z</time>
      </trkpt>
      <trkpt lat="43.29648" lon="-1.44368">
        <ele>437.7</ele>
        <time>2022-08-30T10:46:00Z</time>
      </trkpt>
      <trkpt lat="43.29645" lon="-1.44364">
        <ele>438.1</ele>
        <time>2022-08-30T10:46:01Z</time>
      </trkpt>
      <trkpt lat="43.29642" lon="-1.4436">
        <ele>438.6</ele>
        <time>2022-08-30T10:46:02Z</time>
      </trkpt>
      <trkpt lat="43.29639" lon="-1.44357">
        <ele>439.1</ele>
        <time>2022-08-30T10:46:03Z</time>
      </trkpt>
      <trkpt lat="43.29636" lon="-1.44354">
        <ele>439.6</ele>
        <time>2022-08-30T10:46:04Z</time>
      </trkpt>
      <trkpt lat="43.29632" lon="-1.44351">
        <ele>440.1</ele>
        <time>2022-08-30T10:46:05Z</time>
      </trkpt>
      <trkpt lat="43.29629" lon="-1.44348">
        <ele>440.7</ele>
        <time>2022-08-30T10:46:06Z</time>
      </trkpt>
      <trkpt lat="43.29626" lon="-1.44345">
        <ele>441.3</ele>
        <time>2022-08-30T10:46:07Z</time>
      </trkpt>
      <trkpt lat="43.29622" lon="-1.44342">
        <ele>441.9</ele>
        <time>2022-08-30T10:46:08Z</time>
      </trkpt>
      <trkpt lat="43.29619" lon="-1.44339">
        <ele>442.5</ele>
        <time>2022-08-30T10:46:09Z</time>
      </trkpt>
      <trkpt lat="43.29616" lon="-1.44336">
        <ele>443.1</ele>
        <time>2022-08-30T10:46:10Z</time>
      </trkpt>
      <trkpt lat="43.29613" lon="-1.44333">
        <ele>443.7</ele>
        <time>2022-08-30T10:46:11Z</time>
      </trkpt>
      <trkpt lat="43.2961" lon="-1.4433">
        <ele>444.3</ele>
        <time>2022-08-30T10:46:12Z</time>
      </trkpt>
      <trkpt lat="43.29607" lon="-1.44327">
        <ele>444.8</ele>
        <time>2022-08-30T10:46:13Z</time>
      </trkpt>
      <trkpt lat="43.29604" lon="-1.44324">
        <ele>445.3</ele>
        <time>2022-08-30T10:46:14Z</time>
      </trkpt>
      <trkpt lat="43.296" lon="-1.44322">
        <ele>445.9</ele>
        <time>2022-08-30T10:46:15Z</time>
      </trkpt>
      <trkpt lat="43.29597" lon="-1.44319">
        <ele>446.3</ele>
        <time>2022-08-30T10:46:16Z</time>
      </trkpt>
      <trkpt lat="43.29594" lon="-1.44317">
        <ele>446.8</ele>
        <time>2022-08-30T10:46:17Z</time>
      </trkpt>
      <trkpt lat="43.29591" lon="-1.44314">
        <ele>447.3</ele>
        <time>2022-08-30T10:46:18Z</time>
      </trkpt>
      <trkpt lat="43.29588" lon="-1.44311">
        <ele>447.8</ele>
        <time>2022-08-30T10:46:19Z</time>
      </trkpt>
      <trkpt lat="43.29586" lon="-1.44307">
        <ele>448.2</ele>
        <time>2022-08-30T10:46:20Z</time>
      </trkpt>
      <trkpt lat="43.29583" lon="-1.44304">
        <ele>448.6</ele>
        <time>2022-08-30T10:46:21Z</time>
      </trkpt>
      <trkpt lat="43.29581" lon="-1.44301">
        <ele>449.1</ele>
        <time>2022-08-30T10:46:22Z</time>
      </trkpt>
      <trkpt lat="43.29578" lon="-1.44298">
        <ele>449.6</ele>
        <time>2022-08-30T10:46:23Z</time>
      </trkpt>
      <trkpt lat="43.29575" lon="-1.44294">
        <ele>450.2</ele>
        <time>2022-08-30T10:46:24Z</time>
      </trkpt>
      <trkpt lat="43.29573" lon="-1.44292">
        <ele>450.6</ele>
        <time>2022-08-30T10:46:25Z</time>
      </trkpt>
      <trkpt lat="43.29571" lon="-1.44289">
        <ele>451.1</ele>
        <time>2022-08-30T10:46:26Z</time>
      </trkpt>
      <trkpt lat="43.29569" lon="-1.44286">
        <ele>451.6</ele>
        <time>2022-08-30T10:46:27Z</time>
      </trkpt>
      <trkpt lat="43.29566" lon="-1.44283">
        <ele>452.1</ele>
        <time>2022-08-30T10:46:28Z</time>
      </trkpt>
      <trkpt lat="43.29564" lon="-1.4428">
        <ele>452.7</ele>
        <time>2022-08-30T10:46:29Z</time>
      </trkpt>
      <trkpt lat="43.29561" lon="-1.44277">
        <ele>453.2</ele>
        <time>2022-08-30T10:46:30Z</time>
      </trkpt>
      <trkpt lat="43.29559" lon="-1.44275">
        <ele>453.6</ele>
        <time>2022-08-30T10:46:31Z</time>
      </trkpt>
      <trkpt lat="43.29557" lon="-1.44272">
        <ele>454</ele>
        <time>2022-08-30T10:46:32Z</time>
      </trkpt>
      <trkpt lat="43.29555" lon="-1.44269">
        <ele>454.4</ele>
        <time>2022-08-30T10:46:33Z</time>
      </trkpt>
      <trkpt lat="43.29553" lon="-1.44266">
        <ele>454.8</ele>
        <time>2022-08-30T10:46:34Z</time>
      </trkpt>
      <trkpt lat="43.2955" lon="-1.44263">
        <ele>455.3</ele>
        <time>2022-08-30T10:46:35Z</time>
      </trkpt>
      <trkpt lat="43.29549" lon="-1.44262">
        <ele>455.4</ele>
        <time>2022-08-30T10:46:36Z</time>
      </trkpt>
      <trkpt lat="43.29547" lon="-1.44258">
        <ele>455.9</ele>
        <time>2022-08-30T10:46:37Z</time>
      </trkpt>
      <trkpt lat="43.29546" lon="-1.44257">
        <ele>456</ele>
        <time>2022-08-30T10:46:38Z</time>
      </trkpt>
      <trkpt lat="43.29543" lon="-1.44254">
        <ele>456.4</ele>
        <time>2022-08-30T10:46:39Z</time>
      </trkpt>
      <trkpt lat="43.29542" lon="-1.44253">
        <ele>456.6</ele>
        <time>2022-08-30T10:46:40Z</time>
      </trkpt>
      <trkpt lat="43.29539" lon="-1.44249">
        <ele>457</ele>
        <time>2022-08-30T10:46:41Z</time>
      </trkpt>
      <trkpt lat="43.29538" lon="-1.44248">
        <ele>457.1</ele>
        <time>2022-08-30T10:46:42Z</time>
      </trkpt>
      <trkpt lat="43.29536" lon="-1.44244">
        <ele>457.4</ele>
        <time>2022-08-30T10:46:43Z</time>
      </trkpt>
      <trkpt lat="43.29535" lon="-1.44243">
        <ele>457.6</ele>
        <time>2022-08-30T10:46:44Z</time>
      </trkpt>
      <trkpt lat="43.29532" lon="-1.44239">
        <ele>457.9</ele>
        <time>2022-08-30T10:46:45Z</time>
      </trkpt>
      <trkpt lat="43.29531" lon="-1.44238">
        <ele>458</ele>
        <time>2022-08-30T10:46:46Z</time>
      </trkpt>
      <trkpt lat="43.29529" lon="-1.44236">
        <ele>458.2</ele>
        <time>2022-08-30T10:46:47Z</time>
      </trkpt>
      <trkpt lat="43.29527" lon="-1.44234">
        <ele>458.4</ele>
        <time>2022-08-30T10:46:48Z</time>
      </trkpt>
      <trkpt lat="43.29524" lon="-1.44231">
        <ele>458.5</ele>
        <time>2022-08-30T10:46:49Z</time>
      </trkpt>
      <trkpt lat="43.29522" lon="-1.44229">
        <ele>458.7</ele>
        <time>2022-08-30T10:46:50Z</time>
      </trkpt>
      <trkpt lat="43.2952" lon="-1.44226">
        <ele>458.8</ele>
        <time>2022-08-30T10:46:51Z</time>
      </trkpt>
      <trkpt lat="43.29518" lon="-1.44223">
        <ele>458.9</ele>
        <time>2022-08-30T10:46:52Z</time>
      </trkpt>
      <trkpt lat="43.29515" lon="-1.44221">
        <ele>459</ele>
        <time>2022-08-30T10:46:53Z</time>
      </trkpt>
      <trkpt lat="43.29513" lon="-1.44218">
        <ele>459.1</ele>
        <time>2022-08-30T10:46:54Z</time>
      </trkpt>
      <trkpt lat="43.2951" lon="-1.44215">
        <ele>459.2</ele>
        <time>2022-08-30T10:46:55Z</time>
      </trkpt>
      <trkpt lat="43.29508" lon="-1.44212">
        <ele>459.3</ele>
        <time>2022-08-30T10:46:56Z</time>
      </trkpt>
      <trkpt lat="43.29506" lon="-1.44208">
        <ele>459.3</ele>
        <time>2022-08-30T10:46:57Z</time>
      </trkpt>
      <trkpt lat="43.29504" lon="-1.44205">
        <ele>459.3</ele>
        <time>2022-08-30T10:46:58Z</time>
      </trkpt>
      <trkpt lat="43.29502" lon="-1.44201">
        <ele>459.3</ele>
        <time>2022-08-30T10:46:59Z</time>
      </trkpt>
      <trkpt lat="43.295" lon="-1.44197">
        <ele>459.3</ele>
        <time>2022-08-30T10:47:00Z</time>
      </trkpt>
      <trkpt lat="43.29498" lon="-1.44194">
        <ele>459.3</ele>
        <time>2022-08-30T10:47:01Z</time>
      </trkpt>
      <trkpt lat="43.29496" lon="-1.44189">
        <ele>459.3</ele>
        <time>2022-08-30T10:47:02Z</time>
      </trkpt>
      <trkpt lat="43.29494" lon="-1.44185">
        <ele>459.3</ele>
        <time>2022-08-30T10:47:03Z</time>
      </trkpt>
      <trkpt lat="43.29492" lon="-1.44181">
        <ele>459.3</ele>
        <time>2022-08-30T10:47:04Z</time>
      </trkpt>
      <trkpt lat="43.2949" lon="-1.44177">
        <ele>459.4</ele>
        <time>2022-08-30T10:47:05Z</time>
      </trkpt>
      <trkpt lat="43.29488" lon="-1.44174">
        <ele>459.4</ele>
        <time>2022-08-30T10:47:06Z</time>
      </trkpt>
      <trkpt lat="43.29485" lon="-1.4417">
        <ele>459.5</ele>
        <time>2022-08-30T10:47:07Z</time>
      </trkpt>
      <trkpt lat="43.29484" lon="-1.44169">
        <ele>459.6</ele>
        <time>2022-08-30T10:47:08Z</time>
      </trkpt>
      <trkpt lat="43.29482" lon="-1.44166">
        <ele>459.7</ele>
        <time>2022-08-30T10:47:09Z</time>
      </trkpt>
      <trkpt lat="43.29479" lon="-1.44163">
        <ele>459.9</ele>
        <time>2022-08-30T10:47:10Z</time>
      </trkpt>
      <trkpt lat="43.29477" lon="-1.4416">
        <ele>460.1</ele>
        <time>2022-08-30T10:47:11Z</time>
      </trkpt>
      <trkpt lat="43.29474" lon="-1.44157">
        <ele>460.4</ele>
        <time>2022-08-30T10:47:12Z</time>
      </trkpt>
      <trkpt lat="43.29472" lon="-1.44153">
        <ele>460.8</ele>
        <time>2022-08-30T10:47:13Z</time>
      </trkpt>
      <trkpt lat="43.29469" lon="-1.44149">
        <ele>461.2</ele>
        <time>2022-08-30T10:47:14Z</time>
      </trkpt>
      <trkpt lat="43.29467" lon="-1.44145">
        <ele>461.7</ele>
        <time>2022-08-30T10:47:15Z</time>
      </trkpt>
      <trkpt lat="43.29465" lon="-1.44141">
        <ele>462.2</ele>
        <time>2022-08-30T10:47:16Z</time>
      </trkpt>
      <trkpt lat="43.29463" lon="-1.44138">
        <ele>462.6</ele>
        <time>2022-08-30T10:47:17Z</time>
      </trkpt>
      <trkpt lat="43.2946" lon="-1.44135">
        <ele>463.1</ele>
        <time>2022-08-30T10:47:18Z</time>
      </trkpt>
      <trkpt lat="43.2946" lon="-1.44134">
        <ele>463.2</ele>
        <time>2022-08-30T10:47:19Z</time>
      </trkpt>
      <trkpt lat="43.29457" lon="-1.44131">
        <ele>463.6</ele>
        <time>2022-08-30T10:47:20Z</time>
      </trkpt>
      <trkpt lat="43.29456" lon="-1.4413">
        <ele>463.7</ele>
        <time>2022-08-30T10:47:21Z</time>
      </trkpt>
      <trkpt lat="43.29454" lon="-1.44129">
        <ele>464</ele>
        <time>2022-08-30T10:47:22Z</time>
      </trkpt>
      <trkpt lat="43.29453" lon="-1.44128">
        <ele>464.1</ele>
        <time>2022-08-30T10:47:23Z</time>
      </trkpt>
      <trkpt lat="43.29449" lon="-1.44125">
        <ele>464.4</ele>
        <time>2022-08-30T10:47:24Z</time>
      </trkpt>
      <trkpt lat="43.29448" lon="-1.44125">
        <ele>464.4</ele>
        <time>2022-08-30T10:47:25Z</time>
      </trkpt>
      <trkpt lat="43.29445" lon="-1.44123">
        <ele>464.5</ele>
        <time>2022-08-30T10:47:26Z</time>
      </trkpt>
      <trkpt lat="43.29442" lon="-1.44123">
        <ele>464.5</ele>
        <time>2022-08-30T10:47:27Z</time>
      </trkpt>
      <trkpt lat="43.29436" lon="-1.44124">
        <ele>464.4</ele>
        <time>2022-08-30T10:47:28Z</time>
      </trkpt>
      <trkpt lat="43.29431" lon="-1.44125">
        <ele>464.3</ele>
        <time>2022-08-30T10:47:29Z</time>
      </trkpt>
      <trkpt lat="43.29426" lon="-1.44125">
        <ele>464.3</ele>
        <time>2022-08-30T10:47:30Z</time>
      </trkpt>
      <trkpt lat="43.29423" lon="-1.44125">
        <ele>464.3</ele>
        <time>2022-08-30T10:47:31Z</time>
      </trkpt>
      <trkpt lat="43.2942" lon="-1.44125">
        <ele>464.4</ele>
        <time>2022-08-30T10:47:32Z</time>
      </trkpt>
      <trkpt lat="43.29417" lon="-1.44124">
        <ele>464.6</ele>
        <time>2022-08-30T10:47:33Z</time>
      </trkpt>
      <trkpt lat="43.29413" lon="-1.44124">
        <ele>464.8</ele>
        <time>2022-08-30T10:47:34Z</time>
      </trkpt>
      <trkpt lat="43.2941" lon="-1.44121">
        <ele>465</ele>
        <time>2022-08-30T10:47:35Z</time>
      </trkpt>
      <trkpt lat="43.29407" lon="-1.44119">
        <ele>465.3</ele>
        <time>2022-08-30T10:47:36Z</time>
      </trkpt>
      <trkpt lat="43.29405" lon="-1.44116">
        <ele>465.6</ele>
        <time>2022-08-30T10:47:37Z</time>
      </trkpt>
      <trkpt lat="43.29403" lon="-1.44114">
        <ele>465.8</ele>
        <time>2022-08-30T10:47:38Z</time>
      </trkpt>
      <trkpt lat="43.29399" lon="-1.4411">
        <ele>466.1</ele>
        <time>2022-08-30T10:47:39Z</time>
      </trkpt>
      <trkpt lat="43.29398" lon="-1.44109">
        <ele>466.3</ele>
        <time>2022-08-30T10:47:40Z</time>
      </trkpt>
      <trkpt lat="43.29395" lon="-1.44106">
        <ele>466.5</ele>
        <time>2022-08-30T10:47:41Z</time>
      </trkpt>
      <trkpt lat="43.29393" lon="-1.44104">
        <ele>466.7</ele>
        <time>2022-08-30T10:47:42Z</time>
      </trkpt>
      <trkpt lat="43.29391" lon="-1.44101">
        <ele>466.9</ele>
        <time>2022-08-30T10:47:43Z</time>
      </trkpt>
      <trkpt lat="43.29388" lon="-1.44098">
        <ele>467.2</ele>
        <time>2022-08-30T10:47:44Z</time>
      </trkpt>
      <trkpt lat="43.29386" lon="-1.44095">
        <ele>467.3</ele>
        <time>2022-08-30T10:47:45Z</time>
      </trkpt>
      <trkpt lat="43.29384" lon="-1.44092">
        <ele>467.5</ele>
        <time>2022-08-30T10:47:46Z</time>
      </trkpt>
      <trkpt lat="43.29382" lon="-1.44089">
        <ele>467.7</ele>
        <time>2022-08-30T10:47:47Z</time>
      </trkpt>
      <trkpt lat="43.2938" lon="-1.44086">
        <ele>467.8</ele>
        <time>2022-08-30T10:47:48Z</time>
      </trkpt>
      <trkpt lat="43.29379" lon="-1.44082">
        <ele>468</ele>
        <time>2022-08-30T10:47:49Z</time>
      </trkpt>
      <trkpt lat="43.29377" lon="-1.44079">
        <ele>468.1</ele>
        <time>2022-08-30T10:47:50Z</time>
      </trkpt>
      <trkpt lat="43.29375" lon="-1.44076">
        <ele>468.2</ele>
        <time>2022-08-30T10:47:51Z</time>
      </trkpt>
      <trkpt lat="43.29372" lon="-1.44073">
        <ele>468.3</ele>
        <time>2022-08-30T10:47:52Z</time>
      </trkpt>
      <trkpt lat="43.2937" lon="-1.4407">
        <ele>468.4</ele>
        <time>2022-08-30T10:47:53Z</time>
      </trkpt>
      <trkpt lat="43.29367" lon="-1.44067">
        <ele>468.5</ele>
        <time>2022-08-30T10:47:54Z</time>
      </trkpt>
      <trkpt lat="43.29364" lon="-1.44062">
        <ele>468.5</ele>
        <time>2022-08-30T10:47:55Z</time>
      </trkpt>
      <trkpt lat="43.29361" lon="-1.44058">
        <ele>468.6</ele>
        <time>2022-08-30T10:47:56Z</time>
      </trkpt>
      <trkpt lat="43.29358" lon="-1.44053">
        <ele>468.7</ele>
        <time>2022-08-30T10:47:57Z</time>
      </trkpt>
      <trkpt lat="43.29356" lon="-1.44048">
        <ele>468.8</ele>
        <time>2022-08-30T10:47:58Z</time>
      </trkpt>
      <trkpt lat="43.29354" lon="-1.44043">
        <ele>468.9</ele>
        <time>2022-08-30T10:47:59Z</time>
      </trkpt>
      <trkpt lat="43.29352" lon="-1.44039">
        <ele>469</ele>
        <time>2022-08-30T10:48:00Z</time>
      </trkpt>
      <trkpt lat="43.2935" lon="-1.44035">
        <ele>469.1</ele>
        <time>2022-08-30T10:48:01Z</time>
      </trkpt>
      <trkpt lat="43.29348" lon="-1.44031">
        <ele>469.2</ele>
        <time>2022-08-30T10:48:02Z</time>
      </trkpt>
      <trkpt lat="43.29346" lon="-1.44026">
        <ele>469.3</ele>
        <time>2022-08-30T10:48:03Z</time>
      </trkpt>
      <trkpt lat="43.29344" lon="-1.44022">
        <ele>469.3</ele>
        <time>2022-08-30T10:48:04Z</time>
      </trkpt>
      <trkpt lat="43.29342" lon="-1.44017">
        <ele>469.3</ele>
        <time>2022-08-30T10:48:05Z</time>
      </trkpt>
      <trkpt lat="43.29341" lon="-1.44012">
        <ele>469.2</ele>
        <time>2022-08-30T10:48:06Z</time>
      </trkpt>
      <trkpt lat="43.29339" lon="-1.44003">
        <ele>469.1</ele>
        <time>2022-08-30T10:48:07Z</time>
      </trkpt>
      <trkpt lat="43.29339" lon="-1.43995">
        <ele>468.9</ele>
        <time>2022-08-30T10:48:08Z</time>
      </trkpt>
      <trkpt lat="43.29338" lon="-1.4399">
        <ele>468.9</ele>
        <time>2022-08-30T10:48:09Z</time>
      </trkpt>
      <trkpt lat="43.29336" lon="-1.43986">
        <ele>469</ele>
        <time>2022-08-30T10:48:10Z</time>
      </trkpt>
      <trkpt lat="43.29335" lon="-1.43985">
        <ele>469</ele>
        <time>2022-08-30T10:48:11Z</time>
      </trkpt>
      <trkpt lat="43.29333" lon="-1.43983">
        <ele>469</ele>
        <time>2022-08-30T10:48:12Z</time>
      </trkpt>
      <trkpt lat="43.29331" lon="-1.43982">
        <ele>469.1</ele>
        <time>2022-08-30T10:48:13Z</time>
      </trkpt>
      <trkpt lat="43.29328" lon="-1.43981">
        <ele>469.2</ele>
        <time>2022-08-30T10:48:14Z</time>
      </trkpt>
      <trkpt lat="43.29325" lon="-1.43979">
        <ele>469.3</ele>
        <time>2022-08-30T10:48:15Z</time>
      </trkpt>
      <trkpt lat="43.29323" lon="-1.43977">
        <ele>469.4</ele>
        <time>2022-08-30T10:48:16Z</time>
      </trkpt>
      <trkpt lat="43.2932" lon="-1.43976">
        <ele>469.5</ele>
        <time>2022-08-30T10:48:17Z</time>
      </trkpt>
      <trkpt lat="43.29316" lon="-1.43976">
        <ele>469.7</ele>
        <time>2022-08-30T10:48:18Z</time>
      </trkpt>
      <trkpt lat="43.29314" lon="-1.43976">
        <ele>469.9</ele>
        <time>2022-08-30T10:48:19Z</time>
      </trkpt>
      <trkpt lat="43.29311" lon="-1.43977">
        <ele>470.1</ele>
        <time>2022-08-30T10:48:20Z</time>
      </trkpt>
      <trkpt lat="43.29307" lon="-1.43975">
        <ele>470.4</ele>
        <time>2022-08-30T10:48:21Z</time>
      </trkpt>
      <trkpt lat="43.29306" lon="-1.43974">
        <ele>470.5</ele>
        <time>2022-08-30T10:48:22Z</time>
      </trkpt>
      <trkpt lat="43.29304" lon="-1.43972">
        <ele>470.8</ele>
        <time>2022-08-30T10:48:23Z</time>
      </trkpt>
      <trkpt lat="43.293" lon="-1.43972">
        <ele>471.2</ele>
        <time>2022-08-30T10:48:24Z</time>
      </trkpt>
      <trkpt lat="43.29298" lon="-1.43972">
        <ele>471.4</ele>
        <time>2022-08-30T10:48:25Z</time>
      </trkpt>
      <trkpt lat="43.29295" lon="-1.43971">
        <ele>472</ele>
        <time>2022-08-30T10:48:26Z</time>
      </trkpt>
      <trkpt lat="43.29293" lon="-1.43971">
        <ele>472.2</ele>
        <time>2022-08-30T10:48:27Z</time>
      </trkpt>
      <trkpt lat="43.2929" lon="-1.43971">
        <ele>472.7</ele>
        <time>2022-08-30T10:48:28Z</time>
      </trkpt>
      <trkpt lat="43.29287" lon="-1.4397">
        <ele>473.3</ele>
        <time>2022-08-30T10:48:29Z</time>
      </trkpt>
      <trkpt lat="43.29284" lon="-1.4397">
        <ele>473.8</ele>
        <time>2022-08-30T10:48:30Z</time>
      </trkpt>
      <trkpt lat="43.29281" lon="-1.4397">
        <ele>474.5</ele>
        <time>2022-08-30T10:48:31Z</time>
      </trkpt>
      <trkpt lat="43.29277" lon="-1.43969">
        <ele>475.2</ele>
        <time>2022-08-30T10:48:32Z</time>
      </trkpt>
      <trkpt lat="43.29274" lon="-1.43967">
        <ele>476</ele>
        <time>2022-08-30T10:48:33Z</time>
      </trkpt>
      <trkpt lat="43.29269" lon="-1.43966">
        <ele>476.8</ele>
        <time>2022-08-30T10:48:34Z</time>
      </trkpt>
      <trkpt lat="43.29265" lon="-1.43965">
        <ele>477.5</ele>
        <time>2022-08-30T10:48:35Z</time>
      </trkpt>
      <trkpt lat="43.29261" lon="-1.43964">
        <ele>478.3</ele>
        <time>2022-08-30T10:48:36Z</time>
      </trkpt>
      <trkpt lat="43.29258" lon="-1.43962">
        <ele>478.9</ele>
        <time>2022-08-30T10:48:37Z</time>
      </trkpt>
      <trkpt lat="43.29255" lon="-1.4396">
        <ele>479.4</ele>
        <time>2022-08-30T10:48:38Z</time>
      </trkpt>
      <trkpt lat="43.29252" lon="-1.43959">
        <ele>480</ele>
        <time>2022-08-30T10:48:39Z</time>
      </trkpt>
      <trkpt lat="43.29249" lon="-1.43957">
        <ele>480.5</ele>
        <time>2022-08-30T10:48:40Z</time>
      </trkpt>
      <trkpt lat="43.29246" lon="-1.43955">
        <ele>481.1</ele>
        <time>2022-08-30T10:48:41Z</time>
      </trkpt>
      <trkpt lat="43.29243" lon="-1.43952">
        <ele>481.6</ele>
        <time>2022-08-30T10:48:42Z</time>
      </trkpt>
      <trkpt lat="43.2924" lon="-1.43949">
        <ele>482.1</ele>
        <time>2022-08-30T10:48:43Z</time>
      </trkpt>
      <trkpt lat="43.29237" lon="-1.43945">
        <ele>482.6</ele>
        <time>2022-08-30T10:48:44Z</time>
      </trkpt>
      <trkpt lat="43.29235" lon="-1.43941">
        <ele>483.1</ele>
        <time>2022-08-30T10:48:45Z</time>
      </trkpt>
      <trkpt lat="43.29233" lon="-1.43937">
        <ele>483.7</ele>
        <time>2022-08-30T10:48:46Z</time>
      </trkpt>
      <trkpt lat="43.29232" lon="-1.43931">
        <ele>484.3</ele>
        <time>2022-08-30T10:48:47Z</time>
      </trkpt>
      <trkpt lat="43.2923" lon="-1.43926">
        <ele>485</ele>
        <time>2022-08-30T10:48:48Z</time>
      </trkpt>
      <trkpt lat="43.29228" lon="-1.43921">
        <ele>485.5</ele>
        <time>2022-08-30T10:48:49Z</time>
      </trkpt>
      <trkpt lat="43.29226" lon="-1.43917">
        <ele>486.1</ele>
        <time>2022-08-30T10:48:50Z</time>
      </trkpt>
      <trkpt lat="43.29224" lon="-1.43913">
        <ele>486.6</ele>
        <time>2022-08-30T10:48:51Z</time>
      </trkpt>
      <trkpt lat="43.29222" lon="-1.4391">
        <ele>487.2</ele>
        <time>2022-08-30T10:48:52Z</time>
      </trkpt>
      <trkpt lat="43.2922" lon="-1.43906">
        <ele>487.7</ele>
        <time>2022-08-30T10:48:53Z</time>
      </trkpt>
      <trkpt lat="43.29218" lon="-1.43902">
        <ele>488.2</ele>
        <time>2022-08-30T10:48:54Z</time>
      </trkpt>
      <trkpt lat="43.29217" lon="-1.43897">
        <ele>488.8</ele>
        <time>2022-08-30T10:48:55Z</time>
      </trkpt>
      <trkpt lat="43.29215" lon="-1.43893">
        <ele>489.3</ele>
        <time>2022-08-30T10:48:56Z</time>
      </trkpt>
      <trkpt lat="43.29214" lon="-1.43889">
        <ele>489.7</ele>
        <time>2022-08-30T10:48:57Z</time>
      </trkpt>
      <trkpt lat="43.29213" lon="-1.43885">
        <ele>490.1</ele>
        <time>2022-08-30T10:48:58Z</time>
      </trkpt>
      <trkpt lat="43.29213" lon="-1.43881">
        <ele>490.6</ele>
        <time>2022-08-30T10:48:59Z</time>
      </trkpt>
      <trkpt lat="43.29212" lon="-1.43876">
        <ele>491</ele>
        <time>2022-08-30T10:49:00Z</time>
      </trkpt>
      <trkpt lat="43.29212" lon="-1.43872">
        <ele>491.5</ele>
        <time>2022-08-30T10:49:01Z</time>
      </trkpt>
      <trkpt lat="43.29211" lon="-1.43868">
        <ele>491.9</ele>
        <time>2022-08-30T10:49:02Z</time>
      </trkpt>
      <trkpt lat="43.2921" lon="-1.43863">
        <ele>492.5</ele>
        <time>2022-08-30T10:49:03Z</time>
      </trkpt>
      <trkpt lat="43.2921" lon="-1.43861">
        <ele>492.7</ele>
        <time>2022-08-30T10:49:04Z</time>
      </trkpt>
      <trkpt lat="43.2921" lon="-1.43857">
        <ele>493.2</ele>
        <time>2022-08-30T10:49:05Z</time>
      </trkpt>
      <trkpt lat="43.29209" lon="-1.43853">
        <ele>493.7</ele>
        <time>2022-08-30T10:49:06Z</time>
      </trkpt>
      <trkpt lat="43.29208" lon="-1.43852">
        <ele>493.9</ele>
        <time>2022-08-30T10:49:07Z</time>
      </trkpt>
      <trkpt lat="43.29207" lon="-1.43848">
        <ele>494.4</ele>
        <time>2022-08-30T10:49:08Z</time>
      </trkpt>
      <trkpt lat="43.29205" lon="-1.43845">
        <ele>494.9</ele>
        <time>2022-08-30T10:49:09Z</time>
      </trkpt>
      <trkpt lat="43.29203" lon="-1.43842">
        <ele>495.4</ele>
        <time>2022-08-30T10:49:10Z</time>
      </trkpt>
      <trkpt lat="43.29201" lon="-1.43839">
        <ele>495.9</ele>
        <time>2022-08-30T10:49:11Z</time>
      </trkpt>
      <trkpt lat="43.29198" lon="-1.43837">
        <ele>496.6</ele>
        <time>2022-08-30T10:49:12Z</time>
      </trkpt>
      <trkpt lat="43.29196" lon="-1.43836">
        <ele>496.9</ele>
        <time>2022-08-30T10:49:13Z</time>
      </trkpt>
      <trkpt lat="43.29193" lon="-1.43835">
        <ele>497.5</ele>
        <time>2022-08-30T10:49:14Z</time>
      </trkpt>
      <trkpt lat="43.29191" lon="-1.43833">
        <ele>498</ele>
        <time>2022-08-30T10:49:15Z</time>
      </trkpt>
      <trkpt lat="43.29188" lon="-1.43832">
        <ele>498.6</ele>
        <time>2022-08-30T10:49:16Z</time>
      </trkpt>
      <trkpt lat="43.29185" lon="-1.4383">
        <ele>499.2</ele>
        <time>2022-08-30T10:49:17Z</time>
      </trkpt>
      <trkpt lat="43.29182" lon="-1.43829">
        <ele>499.8</ele>
        <time>2022-08-30T10:49:18Z</time>
      </trkpt>
      <trkpt lat="43.2918" lon="-1.43828">
        <ele>500.4</ele>
        <time>2022-08-30T10:49:19Z</time>
      </trkpt>
      <trkpt lat="43.29177" lon="-1.43826">
        <ele>501</ele>
        <time>2022-08-30T10:49:20Z</time>
      </trkpt>
      <trkpt lat="43.29175" lon="-1.43824">
        <ele>501.6</ele>
        <time>2022-08-30T10:49:21Z</time>
      </trkpt>
      <trkpt lat="43.29171" lon="-1.43821">
        <ele>502.5</ele>
        <time>2022-08-30T10:49:22Z</time>
      </trkpt>
      <trkpt lat="43.2917" lon="-1.43819">
        <ele>502.8</ele>
        <time>2022-08-30T10:49:23Z</time>
      </trkpt>
      <trkpt lat="43.29168" lon="-1.43817">
        <ele>503.4</ele>
        <time>2022-08-30T10:49:24Z</time>
      </trkpt>
      <trkpt lat="43.29166" lon="-1.43814">
        <ele>503.9</ele>
        <time>2022-08-30T10:49:25Z</time>
      </trkpt>
      <trkpt lat="43.29163" lon="-1.43812">
        <ele>504.5</ele>
        <time>2022-08-30T10:49:26Z</time>
      </trkpt>
      <trkpt lat="43.29161" lon="-1.43809">
        <ele>505</ele>
        <time>2022-08-30T10:49:27Z</time>
      </trkpt>
      <trkpt lat="43.2916" lon="-1.43806">
        <ele>505.6</ele>
        <time>2022-08-30T10:49:28Z</time>
      </trkpt>
      <trkpt lat="43.29157" lon="-1.43802">
        <ele>506.3</ele>
        <time>2022-08-30T10:49:29Z</time>
      </trkpt>
      <trkpt lat="43.29157" lon="-1.43801">
        <ele>506.6</ele>
        <time>2022-08-30T10:49:30Z</time>
      </trkpt>
      <trkpt lat="43.29154" lon="-1.43797">
        <ele>507.3</ele>
        <time>2022-08-30T10:49:31Z</time>
      </trkpt>
      <trkpt lat="43.29153" lon="-1.43795">
        <ele>507.6</ele>
        <time>2022-08-30T10:49:32Z</time>
      </trkpt>
      <trkpt lat="43.29151" lon="-1.43792">
        <ele>508.2</ele>
        <time>2022-08-30T10:49:33Z</time>
      </trkpt>
      <trkpt lat="43.2915" lon="-1.4379">
        <ele>508.5</ele>
        <time>2022-08-30T10:49:34Z</time>
      </trkpt>
      <trkpt lat="43.29148" lon="-1.43787">
        <ele>509.1</ele>
        <time>2022-08-30T10:49:35Z</time>
      </trkpt>
      <trkpt lat="43.29148" lon="-1.43786">
        <ele>509.3</ele>
        <time>2022-08-30T10:49:36Z</time>
      </trkpt>
      <trkpt lat="43.29145" lon="-1.43782">
        <ele>510.1</ele>
        <time>2022-08-30T10:49:37Z</time>
      </trkpt>
      <trkpt lat="43.29144" lon="-1.43781">
        <ele>510.4</ele>
        <time>2022-08-30T10:49:38Z</time>
      </trkpt>
      <trkpt lat="43.29141" lon="-1.43777">
        <ele>511.1</ele>
        <time>2022-08-30T10:49:39Z</time>
      </trkpt>
      <trkpt lat="43.2914" lon="-1.43776">
        <ele>511.3</ele>
        <time>2022-08-30T10:49:40Z</time>
      </trkpt>
      <trkpt lat="43.29139" lon="-1.43773">
        <ele>511.9</ele>
        <time>2022-08-30T10:49:41Z</time>
      </trkpt>
      <trkpt lat="43.29138" lon="-1.43772">
        <ele>512.1</ele>
        <time>2022-08-30T10:49:42Z</time>
      </trkpt>
      <trkpt lat="43.29137" lon="-1.4377">
        <ele>512.4</ele>
        <time>2022-08-30T10:49:43Z</time>
      </trkpt>
      <trkpt lat="43.29136" lon="-1.43769">
        <ele>512.7</ele>
        <time>2022-08-30T10:49:44Z</time>
      </trkpt>
      <trkpt lat="43.29135" lon="-1.43771">
        <ele>513</ele>
        <time>2022-08-30T10:49:45Z</time>
      </trkpt>
      <trkpt lat="43.29134" lon="-1.43776">
        <ele>513.8</ele>
        <time>2022-08-30T10:49:46Z</time>
      </trkpt>
      <trkpt lat="43.29133" lon="-1.43778">
        <ele>514.1</ele>
        <time>2022-08-30T10:49:47Z</time>
      </trkpt>
      <trkpt lat="43.29131" lon="-1.43781">
        <ele>514.7</ele>
        <time>2022-08-30T10:49:48Z</time>
      </trkpt>
      <trkpt lat="43.29129" lon="-1.43783">
        <ele>515.2</ele>
        <time>2022-08-30T10:49:49Z</time>
      </trkpt>
      <trkpt lat="43.29126" lon="-1.43786">
        <ele>516</ele>
        <time>2022-08-30T10:49:50Z</time>
      </trkpt>
      <trkpt lat="43.29125" lon="-1.43787">
        <ele>516.3</ele>
        <time>2022-08-30T10:49:51Z</time>
      </trkpt>
      <trkpt lat="43.29123" lon="-1.43789">
        <ele>516.9</ele>
        <time>2022-08-30T10:49:52Z</time>
      </trkpt>
      <trkpt lat="43.29122" lon="-1.43789">
        <ele>517.1</ele>
        <time>2022-08-30T10:49:53Z</time>
      </trkpt>
      <trkpt lat="43.29119" lon="-1.43791">
        <ele>517.8</ele>
        <time>2022-08-30T10:49:54Z</time>
      </trkpt>
      <trkpt lat="43.29118" lon="-1.43792">
        <ele>518</ele>
        <time>2022-08-30T10:49:55Z</time>
      </trkpt>
      <trkpt lat="43.29117" lon="-1.43793">
        <ele>518.4</ele>
        <time>2022-08-30T10:49:56Z</time>
      </trkpt>
      <trkpt lat="43.29115" lon="-1.43794">
        <ele>518.8</ele>
        <time>2022-08-30T10:49:57Z</time>
      </trkpt>
      <trkpt lat="43.29112" lon="-1.43796">
        <ele>519.5</ele>
        <time>2022-08-30T10:49:58Z</time>
      </trkpt>
      <trkpt lat="43.29111" lon="-1.43796">
        <ele>519.7</ele>
        <time>2022-08-30T10:49:59Z</time>
      </trkpt>
      <trkpt lat="43.29108" lon="-1.43799">
        <ele>520.6</ele>
        <time>2022-08-30T10:50:00Z</time>
      </trkpt>
      <trkpt lat="43.29107" lon="-1.438">
        <ele>520.9</ele>
        <time>2022-08-30T10:50:01Z</time>
      </trkpt>
      <trkpt lat="43.29104" lon="-1.43803">
        <ele>521.8</ele>
        <time>2022-08-30T10:50:02Z</time>
      </trkpt>
      <trkpt lat="43.29102" lon="-1.43804">
        <ele>522.1</ele>
        <time>2022-08-30T10:50:03Z</time>
      </trkpt>
      <trkpt lat="43.291" lon="-1.43806">
        <ele>522.8</ele>
        <time>2022-08-30T10:50:04Z</time>
      </trkpt>
      <trkpt lat="43.29098" lon="-1.43809">
        <ele>523.4</ele>
        <time>2022-08-30T10:50:05Z</time>
      </trkpt>
      <trkpt lat="43.29094" lon="-1.43812">
        <ele>524.4</ele>
        <time>2022-08-30T10:50:06Z</time>
      </trkpt>
      <trkpt lat="43.29093" lon="-1.43813">
        <ele>524.7</ele>
        <time>2022-08-30T10:50:07Z</time>
      </trkpt>
      <trkpt lat="43.2909" lon="-1.43815">
        <ele>525.5</ele>
        <time>2022-08-30T10:50:08Z</time>
      </trkpt>
      <trkpt lat="43.29087" lon="-1.43818">
        <ele>526.3</ele>
        <time>2022-08-30T10:50:09Z</time>
      </trkpt>
      <trkpt lat="43.29086" lon="-1.43819">
        <ele>526.6</ele>
        <time>2022-08-30T10:50:10Z</time>
      </trkpt>
      <trkpt lat="43.29083" lon="-1.43821">
        <ele>527.5</ele>
        <time>2022-08-30T10:50:11Z</time>
      </trkpt>
      <trkpt lat="43.29081" lon="-1.43822">
        <ele>527.8</ele>
        <time>2022-08-30T10:50:12Z</time>
      </trkpt>
      <trkpt lat="43.29078" lon="-1.43824">
        <ele>528.7</ele>
        <time>2022-08-30T10:50:13Z</time>
      </trkpt>
      <trkpt lat="43.29077" lon="-1.43825">
        <ele>529</ele>
        <time>2022-08-30T10:50:14Z</time>
      </trkpt>
      <trkpt lat="43.29073" lon="-1.43827">
        <ele>529.8</ele>
        <time>2022-08-30T10:50:15Z</time>
      </trkpt>
      <trkpt lat="43.29072" lon="-1.43828">
        <ele>530.1</ele>
        <time>2022-08-30T10:50:16Z</time>
      </trkpt>
      <trkpt lat="43.29068" lon="-1.4383">
        <ele>531</ele>
        <time>2022-08-30T10:50:17Z</time>
      </trkpt>
      <trkpt lat="43.29067" lon="-1.43831">
        <ele>531.3</ele>
        <time>2022-08-30T10:50:18Z</time>
      </trkpt>
      <trkpt lat="43.29064" lon="-1.43834">
        <ele>532.1</ele>
        <time>2022-08-30T10:50:19Z</time>
      </trkpt>
      <trkpt lat="43.29063" lon="-1.43835">
        <ele>532.3</ele>
        <time>2022-08-30T10:50:20Z</time>
      </trkpt>
      <trkpt lat="43.2906" lon="-1.43838">
        <ele>533.1</ele>
        <time>2022-08-30T10:50:21Z</time>
      </trkpt>
      <trkpt lat="43.29059" lon="-1.43839">
        <ele>533.3</ele>
        <time>2022-08-30T10:50:22Z</time>
      </trkpt>
      <trkpt lat="43.29056" lon="-1.43841">
        <ele>534</ele>
        <time>2022-08-30T10:50:23Z</time>
      </trkpt>
      <trkpt lat="43.29055" lon="-1.43842">
        <ele>534.3</ele>
        <time>2022-08-30T10:50:24Z</time>
      </trkpt>
      <trkpt lat="43.29052" lon="-1.43846">
        <ele>535.1</ele>
        <time>2022-08-30T10:50:25Z</time>
      </trkpt>
      <trkpt lat="43.29051" lon="-1.43847">
        <ele>535.3</ele>
        <time>2022-08-30T10:50:26Z</time>
      </trkpt>
      <trkpt lat="43.29048" lon="-1.4385">
        <ele>536.1</ele>
        <time>2022-08-30T10:50:27Z</time>
      </trkpt>
      <trkpt lat="43.29047" lon="-1.43851">
        <ele>536.3</ele>
        <time>2022-08-30T10:50:28Z</time>
      </trkpt>
      <trkpt lat="43.29044" lon="-1.43853">
        <ele>537.2</ele>
        <time>2022-08-30T10:50:29Z</time>
      </trkpt>
      <trkpt lat="43.29043" lon="-1.43854">
        <ele>537.4</ele>
        <time>2022-08-30T10:50:30Z</time>
      </trkpt>
      <trkpt lat="43.2904" lon="-1.43857">
        <ele>538.3</ele>
        <time>2022-08-30T10:50:31Z</time>
      </trkpt>
      <trkpt lat="43.29039" lon="-1.43858">
        <ele>538.6</ele>
        <time>2022-08-30T10:50:32Z</time>
      </trkpt>
      <trkpt lat="43.29037" lon="-1.43859">
        <ele>539.1</ele>
        <time>2022-08-30T10:50:33Z</time>
      </trkpt>
      <trkpt lat="43.29032" lon="-1.43861">
        <ele>540.2</ele>
        <time>2022-08-30T10:50:35Z</time>
      </trkpt>
      <trkpt lat="43.2903" lon="-1.4386">
        <ele>540.7</ele>
        <time>2022-08-30T10:50:36Z</time>
      </trkpt>
      <trkpt lat="43.29026" lon="-1.43859">
        <ele>541.6</ele>
        <time>2022-08-30T10:50:37Z</time>
      </trkpt>
      <trkpt lat="43.29025" lon="-1.43858">
        <ele>541.9</ele>
        <time>2022-08-30T10:50:38Z</time>
      </trkpt>
      <trkpt lat="43.29022" lon="-1.43857">
        <ele>542.7</ele>
        <time>2022-08-30T10:50:39Z</time>
      </trkpt>
      <trkpt lat="43.29021" lon="-1.43857">
        <ele>543</ele>
        <time>2022-08-30T10:50:40Z</time>
      </trkpt>
      <trkpt lat="43.29018" lon="-1.43857">
        <ele>543.7</ele>
        <time>2022-08-30T10:50:41Z</time>
      </trkpt>
      <trkpt lat="43.29017" lon="-1.43857">
        <ele>544</ele>
        <time>2022-08-30T10:50:42Z</time>
      </trkpt>
      <trkpt lat="43.29014" lon="-1.43857">
        <ele>544.7</ele>
        <time>2022-08-30T10:50:43Z</time>
      </trkpt>
      <trkpt lat="43.29013" lon="-1.43857">
        <ele>545</ele>
        <time>2022-08-30T10:50:44Z</time>
      </trkpt>
      <trkpt lat="43.2901" lon="-1.43856">
        <ele>545.7</ele>
        <time>2022-08-30T10:50:45Z</time>
      </trkpt>
      <trkpt lat="43.29009" lon="-1.43856">
        <ele>545.9</ele>
        <time>2022-08-30T10:50:46Z</time>
      </trkpt>
      <trkpt lat="43.29006" lon="-1.43855">
        <ele>546.5</ele>
        <time>2022-08-30T10:50:47Z</time>
      </trkpt>
      <trkpt lat="43.29005" lon="-1.43855">
        <ele>546.8</ele>
        <time>2022-08-30T10:50:48Z</time>
      </trkpt>
      <trkpt lat="43.29003" lon="-1.43855">
        <ele>547.3</ele>
        <time>2022-08-30T10:50:49Z</time>
      </trkpt>
      <trkpt lat="43.28999" lon="-1.43854">
        <ele>548.3</ele>
        <time>2022-08-30T10:50:51Z</time>
      </trkpt>
      <trkpt lat="43.28997" lon="-1.43853">
        <ele>548.8</ele>
        <time>2022-08-30T10:50:52Z</time>
      </trkpt>
      <trkpt lat="43.28994" lon="-1.43852">
        <ele>549.5</ele>
        <time>2022-08-30T10:50:53Z</time>
      </trkpt>
      <trkpt lat="43.28992" lon="-1.43852">
        <ele>549.7</ele>
        <time>2022-08-30T10:50:54Z</time>
      </trkpt>
      <trkpt lat="43.28989" lon="-1.43852">
        <ele>550.4</ele>
        <time>2022-08-30T10:50:55Z</time>
      </trkpt>
      <trkpt lat="43.28988" lon="-1.43852">
        <ele>550.7</ele>
        <time>2022-08-30T10:50:56Z</time>
      </trkpt>
      <trkpt lat="43.28984" lon="-1.43852">
        <ele>551.3</ele>
        <time>2022-08-30T10:50:57Z</time>
      </trkpt>
      <trkpt lat="43.28983" lon="-1.43852">
        <ele>551.5</ele>
        <time>2022-08-30T10:50:58Z</time>
      </trkpt>
      <trkpt lat="43.28979" lon="-1.43852">
        <ele>552.3</ele>
        <time>2022-08-30T10:51:00Z</time>
      </trkpt>
      <trkpt lat="43.28975" lon="-1.43852">
        <ele>553</ele>
        <time>2022-08-30T10:51:01Z</time>
      </trkpt>
      <trkpt lat="43.28974" lon="-1.43852">
        <ele>553.3</ele>
        <time>2022-08-30T10:51:02Z</time>
      </trkpt>
      <trkpt lat="43.28971" lon="-1.43852">
        <ele>554</ele>
        <time>2022-08-30T10:51:03Z</time>
      </trkpt>
      <trkpt lat="43.28969" lon="-1.43852">
        <ele>554.2</ele>
        <time>2022-08-30T10:51:04Z</time>
      </trkpt>
      <trkpt lat="43.28966" lon="-1.43851">
        <ele>554.8</ele>
        <time>2022-08-30T10:51:05Z</time>
      </trkpt>
      <trkpt lat="43.28965" lon="-1.4385">
        <ele>555</ele>
        <time>2022-08-30T10:51:06Z</time>
      </trkpt>
      <trkpt lat="43.28962" lon="-1.43849">
        <ele>555.7</ele>
        <time>2022-08-30T10:51:07Z</time>
      </trkpt>
      <trkpt lat="43.28961" lon="-1.43849">
        <ele>555.9</ele>
        <time>2022-08-30T10:51:08Z</time>
      </trkpt>
      <trkpt lat="43.28958" lon="-1.43849">
        <ele>556.5</ele>
        <time>2022-08-30T10:51:09Z</time>
      </trkpt>
      <trkpt lat="43.28957" lon="-1.43849">
        <ele>556.8</ele>
        <time>2022-08-30T10:51:10Z</time>
      </trkpt>
      <trkpt lat="43.28953" lon="-1.43848">
        <ele>557</ele>
        <time>2022-08-30T10:51:11Z</time>
      </trkpt>
      <trkpt lat="43.28952" lon="-1.43848">
        <ele>557</ele>
        <time>2022-08-30T10:51:12Z</time>
      </trkpt>
      <trkpt lat="43.28949" lon="-1.43846">
        <ele>557.2</ele>
        <time>2022-08-30T10:51:13Z</time>
      </trkpt>
      <trkpt lat="43.28948" lon="-1.43846">
        <ele>557.3</ele>
        <time>2022-08-30T10:51:14Z</time>
      </trkpt>
      <trkpt lat="43.28946" lon="-1.43845">
        <ele>557.4</ele>
        <time>2022-08-30T10:51:15Z</time>
      </trkpt>
      <trkpt lat="43.28944" lon="-1.43844">
        <ele>557.5</ele>
        <time>2022-08-30T10:51:16Z</time>
      </trkpt>
      <trkpt lat="43.28942" lon="-1.43843">
        <ele>557.6</ele>
        <time>2022-08-30T10:51:17Z</time>
      </trkpt>
      <trkpt lat="43.28941" lon="-1.43843">
        <ele>557.7</ele>
        <time>2022-08-30T10:51:18Z</time>
      </trkpt>
      <trkpt lat="43.28941" lon="-1.43843">
        <ele>557.7</ele>
        <time>2022-08-30T10:51:19Z</time>
      </trkpt>
      <trkpt lat="43.28938" lon="-1.43845">
        <ele>557.9</ele>
        <time>2022-08-30T10:51:20Z</time>
      </trkpt>
      <trkpt lat="43.28937" lon="-1.43845">
        <ele>557.9</ele>
        <time>2022-08-30T10:51:21Z</time>
      </trkpt>
      <trkpt lat="43.28934" lon="-1.43848">
        <ele>558.1</ele>
        <time>2022-08-30T10:51:22Z</time>
      </trkpt>
      <trkpt lat="43.28933" lon="-1.43848">
        <ele>558.2</ele>
        <time>2022-08-30T10:51:23Z</time>
      </trkpt>
      <trkpt lat="43.28932" lon="-1.43849">
        <ele>558.2</ele>
        <time>2022-08-30T10:51:24Z</time>
      </trkpt>
      <trkpt lat="43.2893" lon="-1.4385">
        <ele>558.3</ele>
        <time>2022-08-30T10:51:25Z</time>
      </trkpt>
      <trkpt lat="43.28929" lon="-1.43849">
        <ele>558.4</ele>
        <time>2022-08-30T10:51:26Z</time>
      </trkpt>
      <trkpt lat="43.28928" lon="-1.43848">
        <ele>558.5</ele>
        <time>2022-08-30T10:51:27Z</time>
      </trkpt>
      <trkpt lat="43.28928" lon="-1.43845">
        <ele>558.6</ele>
        <time>2022-08-30T10:51:28Z</time>
      </trkpt>
      <trkpt lat="43.28929" lon="-1.43844">
        <ele>558.6</ele>
        <time>2022-08-30T10:51:29Z</time>
      </trkpt>
      <trkpt lat="43.2893" lon="-1.43842">
        <ele>558.7</ele>
        <time>2022-08-30T10:51:30Z</time>
      </trkpt>
      <trkpt lat="43.2893" lon="-1.43842">
        <ele>558.7</ele>
        <time>2022-08-30T10:51:31Z</time>
      </trkpt>
      <trkpt lat="43.2893" lon="-1.43842">
        <ele>558.7</ele>
        <time>2022-08-30T10:51:32Z</time>
      </trkpt>
      <trkpt lat="43.28931" lon="-1.43842">
        <ele>558.7</ele>
        <time>2022-08-30T10:51:33Z</time>
      </trkpt>
      <trkpt lat="43.2893" lon="-1.43842">
        <ele>558.8</ele>
        <time>2022-08-30T10:51:34Z</time>
      </trkpt>
      <trkpt lat="43.2893" lon="-1.43842">
        <ele>558.8</ele>
        <time>2022-08-30T10:51:35Z</time>
      </trkpt>
      <trkpt lat="43.2893" lon="-1.43842">
        <ele>558.8</ele>
        <time>2022-08-30T10:51:36Z</time>
      </trkpt>
      <trkpt lat="43.2893" lon="-1.43842">
        <ele>558.8</ele>
        <time>2022-08-30T10:51:37Z</time>
      </trkpt>
      <trkpt lat="43.2893" lon="-1.43842">
        <ele>558.8</ele>
        <time>2022-08-30T10:51:38Z</time>
      </trkpt>
      <trkpt lat="43.2893" lon="-1.43842">
        <ele>558.8</ele>
        <time>2022-08-30T10:51:39Z</time>
      </trkpt>
      <trkpt lat="43.2893" lon="-1.43842">
        <ele>558.8</ele>
        <time>2022-08-30T10:51:40Z</time>
      </trkpt>
      <trkpt lat="43.2893" lon="-1.43842">
        <ele>558.8</ele>
        <time>2022-08-30T10:51:41Z</time>
      </trkpt>
      <trkpt lat="43.2893" lon="-1.43842">
        <ele>558.8</ele>
        <time>2022-08-30T10:51:42Z</time>
      </trkpt>
      <trkpt lat="43.28933" lon="-1.43842">
        <ele>558.9</ele>
        <time>2022-08-30T10:51:49Z</time>
      </trkpt>
      <trkpt lat="43.28934" lon="-1.43842">
        <ele>559</ele>
        <time>2022-08-30T10:51:50Z</time>
      </trkpt>
      <trkpt lat="43.28935" lon="-1.43842">
        <ele>559</ele>
        <time>2022-08-30T10:51:51Z</time>
      </trkpt>
      <trkpt lat="43.28936" lon="-1.43842">
        <ele>559</ele>
        <time>2022-08-30T10:51:52Z</time>
      </trkpt>
      <trkpt lat="43.28936" lon="-1.43842">
        <ele>559.1</ele>
        <time>2022-08-30T10:51:53Z</time>
      </trkpt>
      <trkpt lat="43.28937" lon="-1.43842">
        <ele>559.1</ele>
        <time>2022-08-30T10:51:54Z</time>
      </trkpt>
      <trkpt lat="43.28937" lon="-1.43843">
        <ele>559.1</ele>
        <time>2022-08-30T10:51:55Z</time>
      </trkpt>
      <trkpt lat="43.28937" lon="-1.43843">
        <ele>559.1</ele>
        <time>2022-08-30T10:51:56Z</time>
      </trkpt>
      <trkpt lat="43.28937" lon="-1.43843">
        <ele>559.1</ele>
        <time>2022-08-30T10:51:57Z</time>
      </trkpt>
      <trkpt lat="43.28938" lon="-1.43843">
        <ele>559.1</ele>
        <time>2022-08-30T10:51:58Z</time>
      </trkpt>
      <trkpt lat="43.28938" lon="-1.43844">
        <ele>559.1</ele>
        <time>2022-08-30T10:51:59Z</time>
      </trkpt>
      <trkpt lat="43.28938" lon="-1.43844">
        <ele>559.2</ele>
        <time>2022-08-30T10:52:00Z</time>
      </trkpt>
      <trkpt lat="43.28939" lon="-1.43844">
        <ele>559.2</ele>
        <time>2022-08-30T10:52:01Z</time>
      </trkpt>
      <trkpt lat="43.28939" lon="-1.43844">
        <ele>559.2</ele>
        <time>2022-08-30T10:52:02Z</time>
      </trkpt>
      <trkpt lat="43.28939" lon="-1.43845">
        <ele>559.2</ele>
        <time>2022-08-30T10:52:03Z</time>
      </trkpt>
      <trkpt lat="43.2894" lon="-1.43845">
        <ele>559.2</ele>
        <time>2022-08-30T10:52:04Z</time>
      </trkpt>
      <trkpt lat="43.2894" lon="-1.43845">
        <ele>559.2</ele>
        <time>2022-08-30T10:52:05Z</time>
      </trkpt>
      <trkpt lat="43.2894" lon="-1.43845">
        <ele>559.2</ele>
        <time>2022-08-30T10:52:06Z</time>
      </trkpt>
      <trkpt lat="43.2894" lon="-1.43845">
        <ele>559.2</ele>
        <time>2022-08-30T10:52:07Z</time>
      </trkpt>
      <trkpt lat="43.2894" lon="-1.43845">
        <ele>559.2</ele>
        <time>2022-08-30T10:52:08Z</time>
      </trkpt>
      <trkpt lat="43.2894" lon="-1.43845">
        <ele>559.2</ele>
        <time>2022-08-30T10:52:09Z</time>
      </trkpt>
      <trkpt lat="43.2894" lon="-1.43846">
        <ele>559.3</ele>
        <time>2022-08-30T10:52:10Z</time>
      </trkpt>
      <trkpt lat="43.28941" lon="-1.43846">
        <ele>559.3</ele>
        <time>2022-08-30T10:52:11Z</time>
      </trkpt>
      <trkpt lat="43.28942" lon="-1.43847">
        <ele>559.3</ele>
        <time>2022-08-30T10:52:12Z</time>
      </trkpt>
      <trkpt lat="43.28942" lon="-1.43847">
        <ele>559.4</ele>
        <time>2022-08-30T10:52:13Z</time>
      </trkpt>
      <trkpt lat="43.28942" lon="-1.43847">
        <ele>559.4</ele>
        <time>2022-08-30T10:52:14Z</time>
      </trkpt>
      <trkpt lat="43.28943" lon="-1.43847">
        <ele>559.4</ele>
        <time>2022-08-30T10:52:15Z</time>
      </trkpt>
      <trkpt lat="43.28943" lon="-1.43847">
        <ele>559.4</ele>
        <time>2022-08-30T10:52:16Z</time>
      </trkpt>
      <trkpt lat="43.28943" lon="-1.43846">
        <ele>559.4</ele>
        <time>2022-08-30T10:52:17Z</time>
      </trkpt>
      <trkpt lat="43.28944" lon="-1.43846">
        <ele>559.4</ele>
        <time>2022-08-30T10:52:18Z</time>
      </trkpt>
      <trkpt lat="43.28945" lon="-1.43846">
        <ele>559.4</ele>
        <time>2022-08-30T10:52:19Z</time>
      </trkpt>
      <trkpt lat="43.28946" lon="-1.43846">
        <ele>559.5</ele>
        <time>2022-08-30T10:52:20Z</time>
      </trkpt>
      <trkpt lat="43.28946" lon="-1.43846">
        <ele>559.5</ele>
        <time>2022-08-30T10:52:21Z</time>
      </trkpt>
      <trkpt lat="43.28946" lon="-1.43846">
        <ele>559.5</ele>
        <time>2022-08-30T10:52:22Z</time>
      </trkpt>
      <trkpt lat="43.28946" lon="-1.43846">
        <ele>559.5</ele>
        <time>2022-08-30T10:52:23Z</time>
      </trkpt>
      <trkpt lat="43.28946" lon="-1.43846">
        <ele>559.5</ele>
        <time>2022-08-30T10:52:24Z</time>
      </trkpt>
      <trkpt lat="43.28946" lon="-1.43846">
        <ele>559.5</ele>
        <time>2022-08-30T10:52:25Z</time>
      </trkpt>
      <trkpt lat="43.28946" lon="-1.43846">
        <ele>559.5</ele>
        <time>2022-08-30T10:52:26Z</time>
      </trkpt>
      <trkpt lat="43.28946" lon="-1.43846">
        <ele>559.5</ele>
        <time>2022-08-30T10:52:28Z</time>
      </trkpt>
      <trkpt lat="43.28946" lon="-1.43846">
        <ele>559.5</ele>
        <time>2022-08-30T10:52:29Z</time>
      </trkpt>
      <trkpt lat="43.28946" lon="-1.43846">
        <ele>559.5</ele>
        <time>2022-08-30T10:52:30Z</time>
      </trkpt>
      <trkpt lat="43.28946" lon="-1.43846">
        <ele>559.5</ele>
        <time>2022-08-30T10:52:31Z</time>
      </trkpt>
      <trkpt lat="43.28946" lon="-1.43846">
        <ele>559.5</ele>
        <time>2022-08-30T10:52:32Z</time>
      </trkpt>
      <trkpt lat="43.28946" lon="-1.43846">
        <ele>559.5</ele>
        <time>2022-08-30T10:52:33Z</time>
      </trkpt>
      <trkpt lat="43.28941" lon="-1.43845">
        <ele>559.7</ele>
        <time>2022-08-30T10:52:56Z</time>
      </trkpt>
      <trkpt lat="43.28941" lon="-1.43844">
        <ele>559.7</ele>
        <time>2022-08-30T10:52:57Z</time>
      </trkpt>
      <trkpt lat="43.28941" lon="-1.43844">
        <ele>559.7</ele>
        <time>2022-08-30T10:52:58Z</time>
      </trkpt>
      <trkpt lat="43.2894" lon="-1.43844">
        <ele>559.7</ele>
        <time>2022-08-30T10:52:59Z</time>
      </trkpt>
      <trkpt lat="43.2894" lon="-1.43844">
        <ele>559.7</ele>
        <time>2022-08-30T10:53:00Z</time>
      </trkpt>
      <trkpt lat="43.2894" lon="-1.43844">
        <ele>559.7</ele>
        <time>2022-08-30T10:53:01Z</time>
      </trkpt>
      <trkpt lat="43.2894" lon="-1.43843">
        <ele>559.7</ele>
        <time>2022-08-30T10:53:02Z</time>
      </trkpt>
      <trkpt lat="43.2894" lon="-1.43843">
        <ele>559.7</ele>
        <time>2022-08-30T10:53:03Z</time>
      </trkpt>
      <trkpt lat="43.2894" lon="-1.43843">
        <ele>559.7</ele>
        <time>2022-08-30T10:53:04Z</time>
      </trkpt>
      <trkpt lat="43.2894" lon="-1.43843">
        <ele>559.7</ele>
        <time>2022-08-30T10:53:05Z</time>
      </trkpt>
      <trkpt lat="43.2894" lon="-1.43843">
        <ele>559.7</ele>
        <time>2022-08-30T10:53:06Z</time>
      </trkpt>
      <trkpt lat="43.2894" lon="-1.43843">
        <ele>559.7</ele>
        <time>2022-08-30T10:53:07Z</time>
      </trkpt>
      <trkpt lat="43.2894" lon="-1.43843">
        <ele>559.7</ele>
        <time>2022-08-30T10:53:08Z</time>
      </trkpt>
      <trkpt lat="43.2894" lon="-1.43843">
        <ele>559.7</ele>
        <time>2022-08-30T10:53:09Z</time>
      </trkpt>
      <trkpt lat="43.2894" lon="-1.43843">
        <ele>559.7</ele>
        <time>2022-08-30T10:53:10Z</time>
      </trkpt>
      <trkpt lat="43.28939" lon="-1.43842">
        <ele>559.8</ele>
        <time>2022-08-30T10:53:20Z</time>
      </trkpt>
      <trkpt lat="43.28938" lon="-1.4384">
        <ele>559.9</ele>
        <time>2022-08-30T10:53:21Z</time>
      </trkpt>
      <trkpt lat="43.28937" lon="-1.43839">
        <ele>559.9</ele>
        <time>2022-08-30T10:53:22Z</time>
      </trkpt>
      <trkpt lat="43.28936" lon="-1.43839">
        <ele>559.9</ele>
        <time>2022-08-30T10:53:23Z</time>
      </trkpt>
      <trkpt lat="43.28936" lon="-1.43839">
        <ele>559.9</ele>
        <time>2022-08-30T10:53:24Z</time>
      </trkpt>
      <trkpt lat="43.28935" lon="-1.4384">
        <ele>560</ele>
        <time>2022-08-30T10:53:25Z</time>
      </trkpt>
      <trkpt lat="43.28935" lon="-1.4384">
        <ele>560</ele>
        <time>2022-08-30T10:53:26Z</time>
      </trkpt>
      <trkpt lat="43.28935" lon="-1.43841">
        <ele>560</ele>
        <time>2022-08-30T10:53:27Z</time>
      </trkpt>
      <trkpt lat="43.28935" lon="-1.43841">
        <ele>560</ele>
        <time>2022-08-30T10:53:28Z</time>
      </trkpt>
      <trkpt lat="43.28935" lon="-1.43841">
        <ele>560</ele>
        <time>2022-08-30T10:53:29Z</time>
      </trkpt>
      <trkpt lat="43.28935" lon="-1.43841">
        <ele>560</ele>
        <time>2022-08-30T10:53:30Z</time>
      </trkpt>
      <trkpt lat="43.28935" lon="-1.43841">
        <ele>560</ele>
        <time>2022-08-30T10:53:31Z</time>
      </trkpt>
      <trkpt lat="43.28935" lon="-1.43841">
        <ele>560</ele>
        <time>2022-08-30T10:53:32Z</time>
      </trkpt>
      <trkpt lat="43.28935" lon="-1.43841">
        <ele>560</ele>
        <time>2022-08-30T10:53:33Z</time>
      </trkpt>
      <trkpt lat="43.28935" lon="-1.43841">
        <ele>560</ele>
        <time>2022-08-30T10:53:34Z</time>
      </trkpt>
      <trkpt lat="43.28935" lon="-1.43841">
        <ele>560</ele>
        <time>2022-08-30T10:53:35Z</time>
      </trkpt>
      <trkpt lat="43.28935" lon="-1.43841">
        <ele>560</ele>
        <time>2022-08-30T10:53:36Z</time>
      </trkpt>
      <trkpt lat="43.28933" lon="-1.43844">
        <ele>560.2</ele>
        <time>2022-08-30T10:53:56Z</time>
      </trkpt>
      <trkpt lat="43.28932" lon="-1.43843">
        <ele>560.2</ele>
        <time>2022-08-30T10:53:57Z</time>
      </trkpt>
      <trkpt lat="43.28932" lon="-1.43843">
        <ele>560.2</ele>
        <time>2022-08-30T10:53:58Z</time>
      </trkpt>
      <trkpt lat="43.28933" lon="-1.43843">
        <ele>560.2</ele>
        <time>2022-08-30T10:53:59Z</time>
      </trkpt>
      <trkpt lat="43.28934" lon="-1.43842">
        <ele>560.2</ele>
        <time>2022-08-30T10:54:00Z</time>
      </trkpt>
      <trkpt lat="43.28934" lon="-1.43842">
        <ele>560.2</ele>
        <time>2022-08-30T10:54:01Z</time>
      </trkpt>
      <trkpt lat="43.28935" lon="-1.43842">
        <ele>560.1</ele>
        <time>2022-08-30T10:54:02Z</time>
      </trkpt>
      <trkpt lat="43.28935" lon="-1.43842">
        <ele>560.1</ele>
        <time>2022-08-30T10:54:03Z</time>
      </trkpt>
      <trkpt lat="43.28935" lon="-1.43842">
        <ele>560.1</ele>
        <time>2022-08-30T10:54:04Z</time>
      </trkpt>
      <trkpt lat="43.28935" lon="-1.43842">
        <ele>560.1</ele>
        <time>2022-08-30T10:54:05Z</time>
      </trkpt>
      <trkpt lat="43.28935" lon="-1.43842">
        <ele>560.1</ele>
        <time>2022-08-30T10:54:06Z</time>
      </trkpt>
      <trkpt lat="43.28935" lon="-1.43842">
        <ele>560.1</ele>
        <time>2022-08-30T10:54:07Z</time>
      </trkpt>
      <trkpt lat="43.28934" lon="-1.43843">
        <ele>560.1</ele>
        <time>2022-08-30T10:54:08Z</time>
      </trkpt>
      <trkpt lat="43.28933" lon="-1.43844">
        <ele>560.1</ele>
        <time>2022-08-30T10:54:09Z</time>
      </trkpt>
      <trkpt lat="43.28932" lon="-1.43844">
        <ele>560.1</ele>
        <time>2022-08-30T10:54:10Z</time>
      </trkpt>
      <trkpt lat="43.28932" lon="-1.43845">
        <ele>560</ele>
        <time>2022-08-30T10:54:11Z</time>
      </trkpt>
      <trkpt lat="43.28932" lon="-1.43846">
        <ele>560</ele>
        <time>2022-08-30T10:54:12Z</time>
      </trkpt>
      <trkpt lat="43.28932" lon="-1.43845">
        <ele>560</ele>
        <time>2022-08-30T10:54:13Z</time>
      </trkpt>
      <trkpt lat="43.28932" lon="-1.43845">
        <ele>560</ele>
        <time>2022-08-30T10:54:14Z</time>
      </trkpt>
      <trkpt lat="43.28932" lon="-1.43845">
        <ele>560</ele>
        <time>2022-08-30T10:54:16Z</time>
      </trkpt>
      <trkpt lat="43.28932" lon="-1.43845">
        <ele>560</ele>
        <time>2022-08-30T10:54:17Z</time>
      </trkpt>
      <trkpt lat="43.28932" lon="-1.43845">
        <ele>560</ele>
        <time>2022-08-30T10:54:18Z</time>
      </trkpt>
      <trkpt lat="43.28932" lon="-1.43845">
        <ele>560</ele>
        <time>2022-08-30T10:54:19Z</time>
      </trkpt>
      <trkpt lat="43.28932" lon="-1.43845">
        <ele>560</ele>
        <time>2022-08-30T10:54:20Z</time>
      </trkpt>
      <trkpt lat="43.28932" lon="-1.43845">
        <ele>560</ele>
        <time>2022-08-30T10:54:22Z</time>
      </trkpt>
      <trkpt lat="43.28929" lon="-1.43844">
        <ele>560</ele>
        <time>2022-08-30T10:55:42Z</time>
      </trkpt>
      <trkpt lat="43.28928" lon="-1.43844">
        <ele>559.9</ele>
        <time>2022-08-30T10:55:43Z</time>
      </trkpt>
      <trkpt lat="43.28927" lon="-1.43844">
        <ele>559.9</ele>
        <time>2022-08-30T10:55:44Z</time>
      </trkpt>
      <trkpt lat="43.28927" lon="-1.43844">
        <ele>559.9</ele>
        <time>2022-08-30T10:55:45Z</time>
      </trkpt>
      <trkpt lat="43.28927" lon="-1.43843">
        <ele>559.9</ele>
        <time>2022-08-30T10:55:46Z</time>
      </trkpt>
      <trkpt lat="43.28927" lon="-1.43843">
        <ele>559.9</ele>
        <time>2022-08-30T10:55:47Z</time>
      </trkpt>
      <trkpt lat="43.28927" lon="-1.43843">
        <ele>559.9</ele>
        <time>2022-08-30T10:55:48Z</time>
      </trkpt>
      <trkpt lat="43.28927" lon="-1.43843">
        <ele>559.9</ele>
        <time>2022-08-30T10:55:49Z</time>
      </trkpt>
      <trkpt lat="43.28927" lon="-1.43843">
        <ele>559.9</ele>
        <time>2022-08-30T10:55:50Z</time>
      </trkpt>
      <trkpt lat="43.28927" lon="-1.43843">
        <ele>559.9</ele>
        <time>2022-08-30T10:55:51Z</time>
      </trkpt>
      <trkpt lat="43.28927" lon="-1.43843">
        <ele>559.9</ele>
        <time>2022-08-30T10:55:52Z</time>
      </trkpt>
      <trkpt lat="43.28927" lon="-1.43843">
        <ele>559.9</ele>
        <time>2022-08-30T10:55:53Z</time>
      </trkpt>
      <trkpt lat="43.28927" lon="-1.43843">
        <ele>559.9</ele>
        <time>2022-08-30T10:55:54Z</time>
      </trkpt>
      <trkpt lat="43.28927" lon="-1.43843">
        <ele>559.9</ele>
        <time>2022-08-30T10:55:55Z</time>
      </trkpt>
      <trkpt lat="43.28927" lon="-1.43843">
        <ele>559.9</ele>
        <time>2022-08-30T10:55:56Z</time>
      </trkpt>
      <trkpt lat="43.28927" lon="-1.43843">
        <ele>559.9</ele>
        <time>2022-08-30T10:55:57Z</time>
      </trkpt>
      <trkpt lat="43.28932" lon="-1.43842">
        <ele>559.9</ele>
        <time>2022-08-30T10:56:11Z</time>
      </trkpt>
      <trkpt lat="43.28933" lon="-1.43842">
        <ele>559.8</ele>
        <time>2022-08-30T10:56:12Z</time>
      </trkpt>
      <trkpt lat="43.28934" lon="-1.43842">
        <ele>559.8</ele>
        <time>2022-08-30T10:56:13Z</time>
      </trkpt>
      <trkpt lat="43.28934" lon="-1.43842">
        <ele>559.8</ele>
        <time>2022-08-30T10:56:14Z</time>
      </trkpt>
      <trkpt lat="43.28934" lon="-1.43842">
        <ele>559.8</ele>
        <time>2022-08-30T10:56:15Z</time>
      </trkpt>
      <trkpt lat="43.28935" lon="-1.43843">
        <ele>559.8</ele>
        <time>2022-08-30T10:56:16Z</time>
      </trkpt>
      <trkpt lat="43.28935" lon="-1.43843">
        <ele>559.8</ele>
        <time>2022-08-30T10:56:17Z</time>
      </trkpt>
      <trkpt lat="43.28936" lon="-1.43843">
        <ele>559.8</ele>
        <time>2022-08-30T10:56:18Z</time>
      </trkpt>
      <trkpt lat="43.28937" lon="-1.43843">
        <ele>559.8</ele>
        <time>2022-08-30T10:56:19Z</time>
      </trkpt>
      <trkpt lat="43.28937" lon="-1.43843">
        <ele>559.8</ele>
        <time>2022-08-30T10:56:20Z</time>
      </trkpt>
      <trkpt lat="43.28937" lon="-1.43843">
        <ele>559.8</ele>
        <time>2022-08-30T10:56:21Z</time>
      </trkpt>
      <trkpt lat="43.28937" lon="-1.43843">
        <ele>559.8</ele>
        <time>2022-08-30T10:56:22Z</time>
      </trkpt>
      <trkpt lat="43.28937" lon="-1.43843">
        <ele>559.8</ele>
        <time>2022-08-30T10:56:23Z</time>
      </trkpt>
      <trkpt lat="43.28937" lon="-1.43843">
        <ele>559.8</ele>
        <time>2022-08-30T10:56:24Z</time>
      </trkpt>
      <trkpt lat="43.28937" lon="-1.43843">
        <ele>559.8</ele>
        <time>2022-08-30T10:56:25Z</time>
      </trkpt>
      <trkpt lat="43.28937" lon="-1.43843">
        <ele>559.8</ele>
        <time>2022-08-30T10:56:26Z</time>
      </trkpt>
      <trkpt lat="43.28937" lon="-1.43843">
        <ele>559.8</ele>
        <time>2022-08-30T10:56:27Z</time>
      </trkpt>
      <trkpt lat="43.28937" lon="-1.43843">
        <ele>559.8</ele>
        <time>2022-08-30T10:56:28Z</time>
      </trkpt>
      <trkpt lat="43.28937" lon="-1.43843">
        <ele>559.8</ele>
        <time>2022-08-30T10:56:29Z</time>
      </trkpt>
      <trkpt lat="43.28937" lon="-1.43843">
        <ele>559.8</ele>
        <time>2022-08-30T10:56:30Z</time>
      </trkpt>
      <trkpt lat="43.28937" lon="-1.43843">
        <ele>559.8</ele>
        <time>2022-08-30T10:56:31Z</time>
      </trkpt>
      <trkpt lat="43.28937" lon="-1.43843">
        <ele>559.8</ele>
        <time>2022-08-30T10:56:32Z</time>
      </trkpt>
      <trkpt lat="43.28937" lon="-1.43843">
        <ele>559.8</ele>
        <time>2022-08-30T10:56:33Z</time>
      </trkpt>
      <trkpt lat="43.28937" lon="-1.43843">
        <ele>559.8</ele>
        <time>2022-08-30T10:56:34Z</time>
      </trkpt>
      <trkpt lat="43.28937" lon="-1.43843">
        <ele>559.8</ele>
        <time>2022-08-30T10:56:35Z</time>
      </trkpt>
      <trkpt lat="43.28937" lon="-1.43844">
        <ele>559.8</ele>
        <time>2022-08-30T10:56:36Z</time>
      </trkpt>
      <trkpt lat="43.28937" lon="-1.43844">
        <ele>559.8</ele>
        <time>2022-08-30T10:56:37Z</time>
      </trkpt>
      <trkpt lat="43.28935" lon="-1.43845">
        <ele>559.8</ele>
        <time>2022-08-30T10:58:44Z</time>
      </trkpt>
      <trkpt lat="43.28934" lon="-1.43845">
        <ele>559.8</ele>
        <time>2022-08-30T10:58:45Z</time>
      </trkpt>
      <trkpt lat="43.28932" lon="-1.43845">
        <ele>559.8</ele>
        <time>2022-08-30T10:58:46Z</time>
      </trkpt>
      <trkpt lat="43.28931" lon="-1.43845">
        <ele>559.8</ele>
        <time>2022-08-30T10:58:47Z</time>
      </trkpt>
      <trkpt lat="43.28931" lon="-1.43844">
        <ele>559.8</ele>
        <time>2022-08-30T10:58:48Z</time>
      </trkpt>
      <trkpt lat="43.28931" lon="-1.43843">
        <ele>559.8</ele>
        <time>2022-08-30T10:58:49Z</time>
      </trkpt>
      <trkpt lat="43.28932" lon="-1.43843">
        <ele>559.8</ele>
        <time>2022-08-30T10:58:50Z</time>
      </trkpt>
      <trkpt lat="43.28932" lon="-1.43842">
        <ele>559.8</ele>
        <time>2022-08-30T10:58:51Z</time>
      </trkpt>
      <trkpt lat="43.28932" lon="-1.43842">
        <ele>559.8</ele>
        <time>2022-08-30T10:58:52Z</time>
      </trkpt>
      <trkpt lat="43.28933" lon="-1.43841">
        <ele>559.8</ele>
        <time>2022-08-30T10:58:53Z</time>
      </trkpt>
      <trkpt lat="43.28933" lon="-1.43841">
        <ele>559.8</ele>
        <time>2022-08-30T10:58:54Z</time>
      </trkpt>
      <trkpt lat="43.28933" lon="-1.4384">
        <ele>559.8</ele>
        <time>2022-08-30T10:58:55Z</time>
      </trkpt>
      <trkpt lat="43.28934" lon="-1.4384">
        <ele>559.8</ele>
        <time>2022-08-30T10:58:56Z</time>
      </trkpt>
      <trkpt lat="43.28934" lon="-1.43839">
        <ele>559.8</ele>
        <time>2022-08-30T10:58:57Z</time>
      </trkpt>
      <trkpt lat="43.28935" lon="-1.43839">
        <ele>559.8</ele>
        <time>2022-08-30T10:58:58Z</time>
      </trkpt>
      <trkpt lat="43.28935" lon="-1.43838">
        <ele>559.8</ele>
        <time>2022-08-30T10:58:59Z</time>
      </trkpt>
      <trkpt lat="43.28935" lon="-1.43838">
        <ele>559.8</ele>
        <time>2022-08-30T10:59:00Z</time>
      </trkpt>
      <trkpt lat="43.28936" lon="-1.43837">
        <ele>559.9</ele>
        <time>2022-08-30T10:59:01Z</time>
      </trkpt>
      <trkpt lat="43.28936" lon="-1.43837">
        <ele>559.9</ele>
        <time>2022-08-30T10:59:02Z</time>
      </trkpt>
      <trkpt lat="43.28936" lon="-1.43836">
        <ele>559.9</ele>
        <time>2022-08-30T10:59:03Z</time>
      </trkpt>
      <trkpt lat="43.28937" lon="-1.43836">
        <ele>559.9</ele>
        <time>2022-08-30T11:00:07Z</time>
      </trkpt>
      <trkpt lat="43.28937" lon="-1.43835">
        <ele>559.9</ele>
        <time>2022-08-30T11:00:08Z</time>
      </trkpt>
      <trkpt lat="43.28937" lon="-1.43835">
        <ele>559.9</ele>
        <time>2022-08-30T11:00:09Z</time>
      </trkpt>
      <trkpt lat="43.28938" lon="-1.43831">
        <ele>559.9</ele>
        <time>2022-08-30T11:00:10Z</time>
      </trkpt>
      <trkpt lat="43.28939" lon="-1.43827">
        <ele>560</ele>
        <time>2022-08-30T11:00:11Z</time>
      </trkpt>
      <trkpt lat="43.2894" lon="-1.43823">
        <ele>560</ele>
        <time>2022-08-30T11:00:12Z</time>
      </trkpt>
      <trkpt lat="43.28941" lon="-1.43819">
        <ele>560.1</ele>
        <time>2022-08-30T11:00:13Z</time>
      </trkpt>
      <trkpt lat="43.28942" lon="-1.43814">
        <ele>560.2</ele>
        <time>2022-08-30T11:00:14Z</time>
      </trkpt>
      <trkpt lat="43.28943" lon="-1.4381">
        <ele>560.3</ele>
        <time>2022-08-30T11:00:15Z</time>
      </trkpt>
      <trkpt lat="43.28944" lon="-1.43806">
        <ele>560.4</ele>
        <time>2022-08-30T11:00:16Z</time>
      </trkpt>
      <trkpt lat="43.28946" lon="-1.43801">
        <ele>560.5</ele>
        <time>2022-08-30T11:00:17Z</time>
      </trkpt>
      <trkpt lat="43.28947" lon="-1.43798">
        <ele>560.6</ele>
        <time>2022-08-30T11:00:18Z</time>
      </trkpt>
      <trkpt lat="43.28949" lon="-1.43794">
        <ele>560.7</ele>
        <time>2022-08-30T11:00:19Z</time>
      </trkpt>
      <trkpt lat="43.28949" lon="-1.43792">
        <ele>560.7</ele>
        <time>2022-08-30T11:00:20Z</time>
      </trkpt>
      <trkpt lat="43.28951" lon="-1.43787">
        <ele>560.9</ele>
        <time>2022-08-30T11:00:21Z</time>
      </trkpt>
      <trkpt lat="43.28952" lon="-1.43785">
        <ele>561</ele>
        <time>2022-08-30T11:00:22Z</time>
      </trkpt>
      <trkpt lat="43.28953" lon="-1.43781">
        <ele>561.1</ele>
        <time>2022-08-30T11:00:23Z</time>
      </trkpt>
      <trkpt lat="43.28955" lon="-1.43776">
        <ele>561.3</ele>
        <time>2022-08-30T11:00:24Z</time>
      </trkpt>
      <trkpt lat="43.28956" lon="-1.43772">
        <ele>561.5</ele>
        <time>2022-08-30T11:00:25Z</time>
      </trkpt>
      <trkpt lat="43.28958" lon="-1.43767">
        <ele>561.7</ele>
        <time>2022-08-30T11:00:26Z</time>
      </trkpt>
      <trkpt lat="43.2896" lon="-1.43764">
        <ele>561.9</ele>
        <time>2022-08-30T11:00:27Z</time>
      </trkpt>
      <trkpt lat="43.28961" lon="-1.4376">
        <ele>562.1</ele>
        <time>2022-08-30T11:00:28Z</time>
      </trkpt>
      <trkpt lat="43.28963" lon="-1.43755">
        <ele>562.4</ele>
        <time>2022-08-30T11:00:29Z</time>
      </trkpt>
      <trkpt lat="43.28964" lon="-1.43751">
        <ele>562.6</ele>
        <time>2022-08-30T11:00:30Z</time>
      </trkpt>
      <trkpt lat="43.28966" lon="-1.43747">
        <ele>562.9</ele>
        <time>2022-08-30T11:00:31Z</time>
      </trkpt>
      <trkpt lat="43.28967" lon="-1.43742">
        <ele>563.1</ele>
        <time>2022-08-30T11:00:32Z</time>
      </trkpt>
      <trkpt lat="43.28969" lon="-1.43738">
        <ele>563.4</ele>
        <time>2022-08-30T11:00:33Z</time>
      </trkpt>
      <trkpt lat="43.28971" lon="-1.43734">
        <ele>563.7</ele>
        <time>2022-08-30T11:00:34Z</time>
      </trkpt>
      <trkpt lat="43.28972" lon="-1.4373">
        <ele>563.9</ele>
        <time>2022-08-30T11:00:35Z</time>
      </trkpt>
      <trkpt lat="43.28974" lon="-1.43726">
        <ele>564.1</ele>
        <time>2022-08-30T11:00:36Z</time>
      </trkpt>
      <trkpt lat="43.28976" lon="-1.43722">
        <ele>564.3</ele>
        <time>2022-08-30T11:00:37Z</time>
      </trkpt>
      <trkpt lat="43.28978" lon="-1.43719">
        <ele>564.5</ele>
        <time>2022-08-30T11:00:38Z</time>
      </trkpt>
      <trkpt lat="43.2898" lon="-1.43715">
        <ele>564.7</ele>
        <time>2022-08-30T11:00:39Z</time>
      </trkpt>
      <trkpt lat="43.28983" lon="-1.43713">
        <ele>564.8</ele>
        <time>2022-08-30T11:00:40Z</time>
      </trkpt>
      <trkpt lat="43.28985" lon="-1.4371">
        <ele>565</ele>
        <time>2022-08-30T11:00:41Z</time>
      </trkpt>
      <trkpt lat="43.28988" lon="-1.43707">
        <ele>565.1</ele>
        <time>2022-08-30T11:00:42Z</time>
      </trkpt>
      <trkpt lat="43.2899" lon="-1.43705">
        <ele>565.2</ele>
        <time>2022-08-30T11:00:43Z</time>
      </trkpt>
      <trkpt lat="43.28993" lon="-1.43701">
        <ele>565.4</ele>
        <time>2022-08-30T11:00:44Z</time>
      </trkpt>
      <trkpt lat="43.28994" lon="-1.437">
        <ele>565.4</ele>
        <time>2022-08-30T11:00:45Z</time>
      </trkpt>
      <trkpt lat="43.28996" lon="-1.43698">
        <ele>565.5</ele>
        <time>2022-08-30T11:00:46Z</time>
      </trkpt>
      <trkpt lat="43.28999" lon="-1.43695">
        <ele>565.7</ele>
        <time>2022-08-30T11:00:47Z</time>
      </trkpt>
      <trkpt lat="43.29001" lon="-1.43692">
        <ele>565.8</ele>
        <time>2022-08-30T11:00:48Z</time>
      </trkpt>
      <trkpt lat="43.29003" lon="-1.43689">
        <ele>566</ele>
        <time>2022-08-30T11:00:49Z</time>
      </trkpt>
      <trkpt lat="43.29005" lon="-1.43686">
        <ele>566.1</ele>
        <time>2022-08-30T11:00:50Z</time>
      </trkpt>
      <trkpt lat="43.29008" lon="-1.43684">
        <ele>566.3</ele>
        <time>2022-08-30T11:00:51Z</time>
      </trkpt>
      <trkpt lat="43.2901" lon="-1.43681">
        <ele>566.5</ele>
        <time>2022-08-30T11:00:52Z</time>
      </trkpt>
      <trkpt lat="43.29012" lon="-1.43678">
        <ele>566.7</ele>
        <time>2022-08-30T11:00:53Z</time>
      </trkpt>
      <trkpt lat="43.29014" lon="-1.43675">
        <ele>566.9</ele>
        <time>2022-08-30T11:00:54Z</time>
      </trkpt>
      <trkpt lat="43.29017" lon="-1.43672">
        <ele>567.1</ele>
        <time>2022-08-30T11:00:55Z</time>
      </trkpt>
      <trkpt lat="43.29019" lon="-1.43669">
        <ele>567.6</ele>
        <time>2022-08-30T11:00:56Z</time>
      </trkpt>
      <trkpt lat="43.29022" lon="-1.43667">
        <ele>568</ele>
        <time>2022-08-30T11:00:57Z</time>
      </trkpt>
      <trkpt lat="43.29025" lon="-1.43665">
        <ele>568.5</ele>
        <time>2022-08-30T11:00:58Z</time>
      </trkpt>
      <trkpt lat="43.29029" lon="-1.43664">
        <ele>568.9</ele>
        <time>2022-08-30T11:00:59Z</time>
      </trkpt>
      <trkpt lat="43.29032" lon="-1.43663">
        <ele>569.4</ele>
        <time>2022-08-30T11:01:00Z</time>
      </trkpt>
      <trkpt lat="43.29035" lon="-1.43661">
        <ele>569.9</ele>
        <time>2022-08-30T11:01:01Z</time>
      </trkpt>
      <trkpt lat="43.29038" lon="-1.43659">
        <ele>570.3</ele>
        <time>2022-08-30T11:01:02Z</time>
      </trkpt>
      <trkpt lat="43.2904" lon="-1.43657">
        <ele>570.8</ele>
        <time>2022-08-30T11:01:03Z</time>
      </trkpt>
      <trkpt lat="43.29043" lon="-1.43655">
        <ele>571.2</ele>
        <time>2022-08-30T11:01:04Z</time>
      </trkpt>
      <trkpt lat="43.29046" lon="-1.43653">
        <ele>571.6</ele>
        <time>2022-08-30T11:01:05Z</time>
      </trkpt>
      <trkpt lat="43.29049" lon="-1.4365">
        <ele>572</ele>
        <time>2022-08-30T11:01:06Z</time>
      </trkpt>
      <trkpt lat="43.2905" lon="-1.43649">
        <ele>572.2</ele>
        <time>2022-08-30T11:01:07Z</time>
      </trkpt>
      <trkpt lat="43.29052" lon="-1.43645">
        <ele>572.6</ele>
        <time>2022-08-30T11:01:08Z</time>
      </trkpt>
      <trkpt lat="43.29053" lon="-1.43644">
        <ele>572.7</ele>
        <time>2022-08-30T11:01:09Z</time>
      </trkpt>
      <trkpt lat="43.29056" lon="-1.43641">
        <ele>573</ele>
        <time>2022-08-30T11:01:10Z</time>
      </trkpt>
      <trkpt lat="43.29056" lon="-1.4364">
        <ele>573.1</ele>
        <time>2022-08-30T11:01:11Z</time>
      </trkpt>
      <trkpt lat="43.29059" lon="-1.43637">
        <ele>573.3</ele>
        <time>2022-08-30T11:01:12Z</time>
      </trkpt>
      <trkpt lat="43.29059" lon="-1.43635">
        <ele>573.4</ele>
        <time>2022-08-30T11:01:13Z</time>
      </trkpt>
      <trkpt lat="43.29061" lon="-1.43632">
        <ele>573.6</ele>
        <time>2022-08-30T11:01:14Z</time>
      </trkpt>
      <trkpt lat="43.29062" lon="-1.43628">
        <ele>573.8</ele>
        <time>2022-08-30T11:01:15Z</time>
      </trkpt>
      <trkpt lat="43.29063" lon="-1.43624">
        <ele>574</ele>
        <time>2022-08-30T11:01:16Z</time>
      </trkpt>
      <trkpt lat="43.29064" lon="-1.43621">
        <ele>574.1</ele>
        <time>2022-08-30T11:01:17Z</time>
      </trkpt>
      <trkpt lat="43.29066" lon="-1.43617">
        <ele>574.3</ele>
        <time>2022-08-30T11:01:18Z</time>
      </trkpt>
      <trkpt lat="43.29068" lon="-1.43614">
        <ele>574.6</ele>
        <time>2022-08-30T11:01:19Z</time>
      </trkpt>
      <trkpt lat="43.2907" lon="-1.43611">
        <ele>574.9</ele>
        <time>2022-08-30T11:01:20Z</time>
      </trkpt>
      <trkpt lat="43.29072" lon="-1.43608">
        <ele>575.2</ele>
        <time>2022-08-30T11:01:21Z</time>
      </trkpt>
      <trkpt lat="43.29073" lon="-1.43604">
        <ele>575.6</ele>
        <time>2022-08-30T11:01:22Z</time>
      </trkpt>
      <trkpt lat="43.29074" lon="-1.43602">
        <ele>575.7</ele>
        <time>2022-08-30T11:01:23Z</time>
      </trkpt>
      <trkpt lat="43.29075" lon="-1.43597">
        <ele>576.1</ele>
        <time>2022-08-30T11:01:24Z</time>
      </trkpt>
      <trkpt lat="43.29076" lon="-1.43595">
        <ele>576.3</ele>
        <time>2022-08-30T11:01:25Z</time>
      </trkpt>
      <trkpt lat="43.29078" lon="-1.43591">
        <ele>576.7</ele>
        <time>2022-08-30T11:01:26Z</time>
      </trkpt>
      <trkpt lat="43.29078" lon="-1.43589">
        <ele>576.9</ele>
        <time>2022-08-30T11:01:27Z</time>
      </trkpt>
      <trkpt lat="43.2908" lon="-1.43585">
        <ele>577.3</ele>
        <time>2022-08-30T11:01:28Z</time>
      </trkpt>
      <trkpt lat="43.2908" lon="-1.43583">
        <ele>577.5</ele>
        <time>2022-08-30T11:01:29Z</time>
      </trkpt>
      <trkpt lat="43.29081" lon="-1.43579">
        <ele>577.9</ele>
        <time>2022-08-30T11:01:30Z</time>
      </trkpt>
      <trkpt lat="43.29082" lon="-1.43578">
        <ele>578</ele>
        <time>2022-08-30T11:01:31Z</time>
      </trkpt>
      <trkpt lat="43.29084" lon="-1.43573">
        <ele>578.8</ele>
        <time>2022-08-30T11:01:32Z</time>
      </trkpt>
      <trkpt lat="43.29085" lon="-1.43572">
        <ele>579.1</ele>
        <time>2022-08-30T11:01:33Z</time>
      </trkpt>
      <trkpt lat="43.29086" lon="-1.43568">
        <ele>579.6</ele>
        <time>2022-08-30T11:01:34Z</time>
      </trkpt>
      <trkpt lat="43.29088" lon="-1.43563">
        <ele>580.3</ele>
        <time>2022-08-30T11:01:35Z</time>
      </trkpt>
      <trkpt lat="43.29088" lon="-1.43562">
        <ele>580.6</ele>
        <time>2022-08-30T11:01:36Z</time>
      </trkpt>
      <trkpt lat="43.2909" lon="-1.43558">
        <ele>581.1</ele>
        <time>2022-08-30T11:01:37Z</time>
      </trkpt>
      <trkpt lat="43.29092" lon="-1.43556">
        <ele>581.7</ele>
        <time>2022-08-30T11:01:38Z</time>
      </trkpt>
      <trkpt lat="43.29095" lon="-1.43555">
        <ele>582.2</ele>
        <time>2022-08-30T11:01:39Z</time>
      </trkpt>
      <trkpt lat="43.29098" lon="-1.43554">
        <ele>582.9</ele>
        <time>2022-08-30T11:01:40Z</time>
      </trkpt>
      <trkpt lat="43.291" lon="-1.43553">
        <ele>583.2</ele>
        <time>2022-08-30T11:01:41Z</time>
      </trkpt>
      <trkpt lat="43.29102" lon="-1.43552">
        <ele>583.7</ele>
        <time>2022-08-30T11:01:42Z</time>
      </trkpt>
      <trkpt lat="43.29106" lon="-1.43549">
        <ele>584.5</ele>
        <time>2022-08-30T11:01:43Z</time>
      </trkpt>
      <trkpt lat="43.29107" lon="-1.43549">
        <ele>584.7</ele>
        <time>2022-08-30T11:01:44Z</time>
      </trkpt>
      <trkpt lat="43.2911" lon="-1.43546">
        <ele>585.5</ele>
        <time>2022-08-30T11:01:45Z</time>
      </trkpt>
      <trkpt lat="43.29111" lon="-1.43545">
        <ele>585.8</ele>
        <time>2022-08-30T11:01:46Z</time>
      </trkpt>
      <trkpt lat="43.29114" lon="-1.43542">
        <ele>586.6</ele>
        <time>2022-08-30T11:01:47Z</time>
      </trkpt>
      <trkpt lat="43.29115" lon="-1.43541">
        <ele>586.9</ele>
        <time>2022-08-30T11:01:48Z</time>
      </trkpt>
      <trkpt lat="43.29118" lon="-1.43537">
        <ele>587.8</ele>
        <time>2022-08-30T11:01:49Z</time>
      </trkpt>
      <trkpt lat="43.29119" lon="-1.43536">
        <ele>588.1</ele>
        <time>2022-08-30T11:01:50Z</time>
      </trkpt>
      <trkpt lat="43.29122" lon="-1.43534">
        <ele>589</ele>
        <time>2022-08-30T11:01:51Z</time>
      </trkpt>
      <trkpt lat="43.29123" lon="-1.43533">
        <ele>589.3</ele>
        <time>2022-08-30T11:01:52Z</time>
      </trkpt>
      <trkpt lat="43.29126" lon="-1.43531">
        <ele>590.1</ele>
        <time>2022-08-30T11:01:53Z</time>
      </trkpt>
      <trkpt lat="43.29127" lon="-1.4353">
        <ele>590.4</ele>
        <time>2022-08-30T11:01:54Z</time>
      </trkpt>
      <trkpt lat="43.2913" lon="-1.43528">
        <ele>591.2</ele>
        <time>2022-08-30T11:01:55Z</time>
      </trkpt>
      <trkpt lat="43.29131" lon="-1.43527">
        <ele>591.5</ele>
        <time>2022-08-30T11:01:56Z</time>
      </trkpt>
      <trkpt lat="43.29133" lon="-1.43524">
        <ele>592.2</ele>
        <time>2022-08-30T11:01:57Z</time>
      </trkpt>
      <trkpt lat="43.29134" lon="-1.43524">
        <ele>592.5</ele>
        <time>2022-08-30T11:01:58Z</time>
      </trkpt>
      <trkpt lat="43.29137" lon="-1.43521">
        <ele>593.3</ele>
        <time>2022-08-30T11:01:59Z</time>
      </trkpt>
      <trkpt lat="43.29138" lon="-1.43521">
        <ele>593.5</ele>
        <time>2022-08-30T11:02:00Z</time>
      </trkpt>
      <trkpt lat="43.29141" lon="-1.4352">
        <ele>594.3</ele>
        <time>2022-08-30T11:02:01Z</time>
      </trkpt>
      <trkpt lat="43.29142" lon="-1.43519">
        <ele>594.6</ele>
        <time>2022-08-30T11:02:02Z</time>
      </trkpt>
      <trkpt lat="43.29145" lon="-1.43519">
        <ele>595.3</ele>
        <time>2022-08-30T11:02:03Z</time>
      </trkpt>
      <trkpt lat="43.29146" lon="-1.43519">
        <ele>595.5</ele>
        <time>2022-08-30T11:02:04Z</time>
      </trkpt>
      <trkpt lat="43.2915" lon="-1.43521">
        <ele>596.2</ele>
        <time>2022-08-30T11:02:05Z</time>
      </trkpt>
      <trkpt lat="43.2915" lon="-1.43521">
        <ele>596.4</ele>
        <time>2022-08-30T11:02:06Z</time>
      </trkpt>
      <trkpt lat="43.29153" lon="-1.43522">
        <ele>597</ele>
        <time>2022-08-30T11:02:07Z</time>
      </trkpt>
      <trkpt lat="43.29155" lon="-1.43522">
        <ele>597.2</ele>
        <time>2022-08-30T11:02:08Z</time>
      </trkpt>
      <trkpt lat="43.29158" lon="-1.43523">
        <ele>597.9</ele>
        <time>2022-08-30T11:02:09Z</time>
      </trkpt>
      <trkpt lat="43.29159" lon="-1.43523">
        <ele>598.1</ele>
        <time>2022-08-30T11:02:10Z</time>
      </trkpt>
      <trkpt lat="43.29162" lon="-1.43525">
        <ele>598.7</ele>
        <time>2022-08-30T11:02:11Z</time>
      </trkpt>
      <trkpt lat="43.29163" lon="-1.43526">
        <ele>598.9</ele>
        <time>2022-08-30T11:02:12Z</time>
      </trkpt>
      <trkpt lat="43.29166" lon="-1.43528">
        <ele>599.4</ele>
        <time>2022-08-30T11:02:13Z</time>
      </trkpt>
      <trkpt lat="43.29167" lon="-1.43528">
        <ele>599.6</ele>
        <time>2022-08-30T11:02:14Z</time>
      </trkpt>
      <trkpt lat="43.2917" lon="-1.43527">
        <ele>600</ele>
        <time>2022-08-30T11:02:15Z</time>
      </trkpt>
      <trkpt lat="43.29171" lon="-1.43527">
        <ele>600.1</ele>
        <time>2022-08-30T11:02:16Z</time>
      </trkpt>
      <trkpt lat="43.29174" lon="-1.43525">
        <ele>600.5</ele>
        <time>2022-08-30T11:02:17Z</time>
      </trkpt>
      <trkpt lat="43.29174" lon="-1.43524">
        <ele>600.7</ele>
        <time>2022-08-30T11:02:18Z</time>
      </trkpt>
      <trkpt lat="43.29177" lon="-1.43522">
        <ele>601.1</ele>
        <time>2022-08-30T11:02:19Z</time>
      </trkpt>
      <trkpt lat="43.29178" lon="-1.43521">
        <ele>601.2</ele>
        <time>2022-08-30T11:02:20Z</time>
      </trkpt>
      <trkpt lat="43.2918" lon="-1.4352">
        <ele>601.4</ele>
        <time>2022-08-30T11:02:21Z</time>
      </trkpt>
      <trkpt lat="43.29182" lon="-1.4352">
        <ele>601.6</ele>
        <time>2022-08-30T11:02:22Z</time>
      </trkpt>
      <trkpt lat="43.29183" lon="-1.43521">
        <ele>601.7</ele>
        <time>2022-08-30T11:02:23Z</time>
      </trkpt>
      <trkpt lat="43.29185" lon="-1.43521">
        <ele>601.9</ele>
        <time>2022-08-30T11:02:24Z</time>
      </trkpt>
      <trkpt lat="43.29188" lon="-1.43522">
        <ele>602.2</ele>
        <time>2022-08-30T11:02:25Z</time>
      </trkpt>
      <trkpt lat="43.29189" lon="-1.43521">
        <ele>602.2</ele>
        <time>2022-08-30T11:02:26Z</time>
      </trkpt>
      <trkpt lat="43.29192" lon="-1.4352">
        <ele>602.5</ele>
        <time>2022-08-30T11:02:27Z</time>
      </trkpt>
      <trkpt lat="43.29193" lon="-1.4352">
        <ele>602.6</ele>
        <time>2022-08-30T11:02:28Z</time>
      </trkpt>
      <trkpt lat="43.29197" lon="-1.43518">
        <ele>602.8</ele>
        <time>2022-08-30T11:02:29Z</time>
      </trkpt>
      <trkpt lat="43.29198" lon="-1.43518">
        <ele>602.9</ele>
        <time>2022-08-30T11:02:30Z</time>
      </trkpt>
      <trkpt lat="43.29201" lon="-1.43516">
        <ele>603.2</ele>
        <time>2022-08-30T11:02:31Z</time>
      </trkpt>
      <trkpt lat="43.29203" lon="-1.43516">
        <ele>603.3</ele>
        <time>2022-08-30T11:02:32Z</time>
      </trkpt>
      <trkpt lat="43.29206" lon="-1.43515">
        <ele>603.6</ele>
        <time>2022-08-30T11:02:33Z</time>
      </trkpt>
      <trkpt lat="43.29207" lon="-1.43514">
        <ele>603.7</ele>
        <time>2022-08-30T11:02:34Z</time>
      </trkpt>
      <trkpt lat="43.29211" lon="-1.43513">
        <ele>603.9</ele>
        <time>2022-08-30T11:02:35Z</time>
      </trkpt>
      <trkpt lat="43.29212" lon="-1.43512">
        <ele>604</ele>
        <time>2022-08-30T11:02:36Z</time>
      </trkpt>
      <trkpt lat="43.29214" lon="-1.43511">
        <ele>604.3</ele>
        <time>2022-08-30T11:02:37Z</time>
      </trkpt>
      <trkpt lat="43.29218" lon="-1.43509">
        <ele>604.6</ele>
        <time>2022-08-30T11:02:38Z</time>
      </trkpt>
      <trkpt lat="43.29219" lon="-1.43508">
        <ele>604.7</ele>
        <time>2022-08-30T11:02:39Z</time>
      </trkpt>
      <trkpt lat="43.29222" lon="-1.43507">
        <ele>605</ele>
        <time>2022-08-30T11:02:40Z</time>
      </trkpt>
      <trkpt lat="43.29223" lon="-1.43506">
        <ele>605.2</ele>
        <time>2022-08-30T11:02:41Z</time>
      </trkpt>
      <trkpt lat="43.29227" lon="-1.43506">
        <ele>605.5</ele>
        <time>2022-08-30T11:02:42Z</time>
      </trkpt>
      <trkpt lat="43.29228" lon="-1.43505">
        <ele>605.6</ele>
        <time>2022-08-30T11:02:43Z</time>
      </trkpt>
      <trkpt lat="43.29231" lon="-1.43505">
        <ele>605.9</ele>
        <time>2022-08-30T11:02:44Z</time>
      </trkpt>
      <trkpt lat="43.29234" lon="-1.43504">
        <ele>606.3</ele>
        <time>2022-08-30T11:02:45Z</time>
      </trkpt>
      <trkpt lat="43.29236" lon="-1.43504">
        <ele>606.5</ele>
        <time>2022-08-30T11:02:46Z</time>
      </trkpt>
      <trkpt lat="43.29239" lon="-1.43504">
        <ele>606.9</ele>
        <time>2022-08-30T11:02:47Z</time>
      </trkpt>
      <trkpt lat="43.2924" lon="-1.43504">
        <ele>607</ele>
        <time>2022-08-30T11:02:48Z</time>
      </trkpt>
      <trkpt lat="43.29243" lon="-1.43504">
        <ele>607.3</ele>
        <time>2022-08-30T11:02:49Z</time>
      </trkpt>
      <trkpt lat="43.29244" lon="-1.43503">
        <ele>607.4</ele>
        <time>2022-08-30T11:02:50Z</time>
      </trkpt>
      <trkpt lat="43.29247" lon="-1.43502">
        <ele>607.8</ele>
        <time>2022-08-30T11:02:51Z</time>
      </trkpt>
      <trkpt lat="43.29248" lon="-1.43502">
        <ele>607.9</ele>
        <time>2022-08-30T11:02:52Z</time>
      </trkpt>
      <trkpt lat="43.29252" lon="-1.435">
        <ele>608.3</ele>
        <time>2022-08-30T11:02:53Z</time>
      </trkpt>
      <trkpt lat="43.29253" lon="-1.435">
        <ele>608.5</ele>
        <time>2022-08-30T11:02:54Z</time>
      </trkpt>
      <trkpt lat="43.29257" lon="-1.43498">
        <ele>608.8</ele>
        <time>2022-08-30T11:02:55Z</time>
      </trkpt>
      <trkpt lat="43.29258" lon="-1.43498">
        <ele>609</ele>
        <time>2022-08-30T11:02:56Z</time>
      </trkpt>
      <trkpt lat="43.29262" lon="-1.43497">
        <ele>609.3</ele>
        <time>2022-08-30T11:02:57Z</time>
      </trkpt>
      <trkpt lat="43.29263" lon="-1.43497">
        <ele>609.5</ele>
        <time>2022-08-30T11:02:58Z</time>
      </trkpt>
      <trkpt lat="43.29267" lon="-1.43496">
        <ele>609.9</ele>
        <time>2022-08-30T11:02:59Z</time>
      </trkpt>
      <trkpt lat="43.29268" lon="-1.43496">
        <ele>610</ele>
        <time>2022-08-30T11:03:00Z</time>
      </trkpt>
      <trkpt lat="43.29272" lon="-1.43496">
        <ele>610.3</ele>
        <time>2022-08-30T11:03:01Z</time>
      </trkpt>
      <trkpt lat="43.29273" lon="-1.43496">
        <ele>610.4</ele>
        <time>2022-08-30T11:03:02Z</time>
      </trkpt>
      <trkpt lat="43.29277" lon="-1.43495">
        <ele>610.8</ele>
        <time>2022-08-30T11:03:03Z</time>
      </trkpt>
      <trkpt lat="43.29278" lon="-1.43495">
        <ele>610.9</ele>
        <time>2022-08-30T11:03:04Z</time>
      </trkpt>
      <trkpt lat="43.29281" lon="-1.43495">
        <ele>611.2</ele>
        <time>2022-08-30T11:03:05Z</time>
      </trkpt>
      <trkpt lat="43.29284" lon="-1.43495">
        <ele>611.5</ele>
        <time>2022-08-30T11:03:06Z</time>
      </trkpt>
      <trkpt lat="43.29287" lon="-1.43496">
        <ele>611.7</ele>
        <time>2022-08-30T11:03:07Z</time>
      </trkpt>
      <trkpt lat="43.2929" lon="-1.43496">
        <ele>612.1</ele>
        <time>2022-08-30T11:03:08Z</time>
      </trkpt>
      <trkpt lat="43.29291" lon="-1.43496">
        <ele>612.3</ele>
        <time>2022-08-30T11:03:09Z</time>
      </trkpt>
      <trkpt lat="43.29295" lon="-1.43496">
        <ele>612.6</ele>
        <time>2022-08-30T11:03:10Z</time>
      </trkpt>
      <trkpt lat="43.29296" lon="-1.43497">
        <ele>612.8</ele>
        <time>2022-08-30T11:03:11Z</time>
      </trkpt>
      <trkpt lat="43.293" lon="-1.43496">
        <ele>613.2</ele>
        <time>2022-08-30T11:03:12Z</time>
      </trkpt>
      <trkpt lat="43.29302" lon="-1.43496">
        <ele>613.4</ele>
        <time>2022-08-30T11:03:13Z</time>
      </trkpt>
      <trkpt lat="43.29305" lon="-1.43495">
        <ele>613.8</ele>
        <time>2022-08-30T11:03:14Z</time>
      </trkpt>
      <trkpt lat="43.29306" lon="-1.43495">
        <ele>614</ele>
        <time>2022-08-30T11:03:15Z</time>
      </trkpt>
      <trkpt lat="43.2931" lon="-1.43493">
        <ele>614.4</ele>
        <time>2022-08-30T11:03:16Z</time>
      </trkpt>
      <trkpt lat="43.29311" lon="-1.43493">
        <ele>614.6</ele>
        <time>2022-08-30T11:03:17Z</time>
      </trkpt>
      <trkpt lat="43.29314" lon="-1.43491">
        <ele>615</ele>
        <time>2022-08-30T11:03:18Z</time>
      </trkpt>
      <trkpt lat="43.29315" lon="-1.4349">
        <ele>615.1</ele>
        <time>2022-08-30T11:03:19Z</time>
      </trkpt>
      <trkpt lat="43.29319" lon="-1.43489">
        <ele>615.6</ele>
        <time>2022-08-30T11:03:20Z</time>
      </trkpt>
      <trkpt lat="43.2932" lon="-1.43489">
        <ele>615.7</ele>
        <time>2022-08-30T11:03:21Z</time>
      </trkpt>
      <trkpt lat="43.29324" lon="-1.43489">
        <ele>616.2</ele>
        <time>2022-08-30T11:03:22Z</time>
      </trkpt>
      <trkpt lat="43.29325" lon="-1.43489">
        <ele>616.3</ele>
        <time>2022-08-30T11:03:23Z</time>
      </trkpt>
      <trkpt lat="43.29328" lon="-1.43492">
        <ele>616.7</ele>
        <time>2022-08-30T11:03:24Z</time>
      </trkpt>
      <trkpt lat="43.29329" lon="-1.43493">
        <ele>616.9</ele>
        <time>2022-08-30T11:03:25Z</time>
      </trkpt>
      <trkpt lat="43.29331" lon="-1.43496">
        <ele>617.3</ele>
        <time>2022-08-30T11:03:26Z</time>
      </trkpt>
      <trkpt lat="43.29332" lon="-1.43497">
        <ele>617.5</ele>
        <time>2022-08-30T11:03:27Z</time>
      </trkpt>
      <trkpt lat="43.29335" lon="-1.43499">
        <ele>617.9</ele>
        <time>2022-08-30T11:03:28Z</time>
      </trkpt>
      <trkpt lat="43.29336" lon="-1.435">
        <ele>618.3</ele>
        <time>2022-08-30T11:03:29Z</time>
      </trkpt>
      <trkpt lat="43.2934" lon="-1.43501">
        <ele>619.2</ele>
        <time>2022-08-30T11:03:30Z</time>
      </trkpt>
      <trkpt lat="43.29341" lon="-1.43501">
        <ele>619.5</ele>
        <time>2022-08-30T11:03:31Z</time>
      </trkpt>
      <trkpt lat="43.29344" lon="-1.43499">
        <ele>620.4</ele>
        <time>2022-08-30T11:03:32Z</time>
      </trkpt>
      <trkpt lat="43.29345" lon="-1.43499">
        <ele>620.8</ele>
        <time>2022-08-30T11:03:33Z</time>
      </trkpt>
      <trkpt lat="43.29347" lon="-1.43497">
        <ele>621.4</ele>
        <time>2022-08-30T11:03:34Z</time>
      </trkpt>
      <trkpt lat="43.29347" lon="-1.43497">
        <ele>621.5</ele>
        <time>2022-08-30T11:03:35Z</time>
      </trkpt>
      <trkpt lat="43.29347" lon="-1.43497">
        <ele>621.5</ele>
        <time>2022-08-30T11:03:36Z</time>
      </trkpt>
      <trkpt lat="43.29348" lon="-1.43497">
        <ele>621.7</ele>
        <time>2022-08-30T11:03:37Z</time>
      </trkpt>
      <trkpt lat="43.29348" lon="-1.43497">
        <ele>621.8</ele>
        <time>2022-08-30T11:03:38Z</time>
      </trkpt>
      <trkpt lat="43.29348" lon="-1.43497">
        <ele>621.9</ele>
        <time>2022-08-30T11:03:39Z</time>
      </trkpt>
      <trkpt lat="43.29348" lon="-1.43497">
        <ele>622</ele>
        <time>2022-08-30T11:03:40Z</time>
      </trkpt>
      <trkpt lat="43.29348" lon="-1.43497">
        <ele>622.1</ele>
        <time>2022-08-30T11:03:41Z</time>
      </trkpt>
      <trkpt lat="43.29348" lon="-1.43496">
        <ele>622.2</ele>
        <time>2022-08-30T11:03:42Z</time>
      </trkpt>
      <trkpt lat="43.29348" lon="-1.43496">
        <ele>622.3</ele>
        <time>2022-08-30T11:03:43Z</time>
      </trkpt>
      <trkpt lat="43.29348" lon="-1.43496">
        <ele>622.4</ele>
        <time>2022-08-30T11:03:44Z</time>
      </trkpt>
      <trkpt lat="43.29348" lon="-1.43496">
        <ele>622.5</ele>
        <time>2022-08-30T11:03:45Z</time>
      </trkpt>
      <trkpt lat="43.29348" lon="-1.43496">
        <ele>622.6</ele>
        <time>2022-08-30T11:03:46Z</time>
      </trkpt>
      <trkpt lat="43.29348" lon="-1.43496">
        <ele>622.7</ele>
        <time>2022-08-30T11:03:47Z</time>
      </trkpt>
      <trkpt lat="43.29348" lon="-1.43496">
        <ele>622.8</ele>
        <time>2022-08-30T11:03:48Z</time>
      </trkpt>
      <trkpt lat="43.29349" lon="-1.43501">
        <ele>622.9</ele>
        <time>2022-08-30T11:04:33Z</time>
      </trkpt>
      <trkpt lat="43.29349" lon="-1.43501">
        <ele>623</ele>
        <time>2022-08-30T11:04:34Z</time>
      </trkpt>
      <trkpt lat="43.29349" lon="-1.43502">
        <ele>623.1</ele>
        <time>2022-08-30T11:04:35Z</time>
      </trkpt>
      <trkpt lat="43.29349" lon="-1.43502">
        <ele>623.2</ele>
        <time>2022-08-30T11:04:36Z</time>
      </trkpt>
      <trkpt lat="43.29349" lon="-1.43502">
        <ele>623.3</ele>
        <time>2022-08-30T11:04:37Z</time>
      </trkpt>
      <trkpt lat="43.29349" lon="-1.43502">
        <ele>623.4</ele>
        <time>2022-08-30T11:04:38Z</time>
      </trkpt>
      <trkpt lat="43.29349" lon="-1.43502">
        <ele>623.5</ele>
        <time>2022-08-30T11:04:39Z</time>
      </trkpt>
      <trkpt lat="43.2935" lon="-1.43502">
        <ele>623.6</ele>
        <time>2022-08-30T11:04:40Z</time>
      </trkpt>
      <trkpt lat="43.29351" lon="-1.43502">
        <ele>623.7</ele>
        <time>2022-08-30T11:04:41Z</time>
      </trkpt>
      <trkpt lat="43.29352" lon="-1.43502">
        <ele>623.7</ele>
        <time>2022-08-30T11:04:42Z</time>
      </trkpt>
      <trkpt lat="43.29353" lon="-1.43503">
        <ele>623.8</ele>
        <time>2022-08-30T11:04:43Z</time>
      </trkpt>
      <trkpt lat="43.29354" lon="-1.43503">
        <ele>623.9</ele>
        <time>2022-08-30T11:04:44Z</time>
      </trkpt>
      <trkpt lat="43.29354" lon="-1.43503">
        <ele>624</ele>
        <time>2022-08-30T11:04:45Z</time>
      </trkpt>
      <trkpt lat="43.29354" lon="-1.43503">
        <ele>624.1</ele>
        <time>2022-08-30T11:04:46Z</time>
      </trkpt>
      <trkpt lat="43.29354" lon="-1.43503">
        <ele>624.2</ele>
        <time>2022-08-30T11:04:47Z</time>
      </trkpt>
      <trkpt lat="43.29355" lon="-1.43503">
        <ele>624.3</ele>
        <time>2022-08-30T11:04:48Z</time>
      </trkpt>
      <trkpt lat="43.29355" lon="-1.43504">
        <ele>624.4</ele>
        <time>2022-08-30T11:04:49Z</time>
      </trkpt>
      <trkpt lat="43.29355" lon="-1.43505">
        <ele>624.5</ele>
        <time>2022-08-30T11:04:50Z</time>
      </trkpt>
      <trkpt lat="43.29356" lon="-1.43506">
        <ele>624.6</ele>
        <time>2022-08-30T11:04:51Z</time>
      </trkpt>
      <trkpt lat="43.29356" lon="-1.43507">
        <ele>624.7</ele>
        <time>2022-08-30T11:04:52Z</time>
      </trkpt>
      <trkpt lat="43.29357" lon="-1.43507">
        <ele>624.8</ele>
        <time>2022-08-30T11:04:53Z</time>
      </trkpt>
      <trkpt lat="43.29358" lon="-1.43508">
        <ele>627.2</ele>
        <time>2022-08-30T11:04:54Z</time>
      </trkpt>
      <trkpt lat="43.29358" lon="-1.43508">
        <ele>627.3</ele>
        <time>2022-08-30T11:04:55Z</time>
      </trkpt>
      <trkpt lat="43.29358" lon="-1.43509">
        <ele>627.4</ele>
        <time>2022-08-30T11:04:56Z</time>
      </trkpt>
      <trkpt lat="43.29358" lon="-1.43509">
        <ele>623.5</ele>
        <time>2022-08-30T11:04:57Z</time>
      </trkpt>
      <trkpt lat="43.29358" lon="-1.43509">
        <ele>623.6</ele>
        <time>2022-08-30T11:04:58Z</time>
      </trkpt>
      <trkpt lat="43.29359" lon="-1.4351">
        <ele>623.7</ele>
        <time>2022-08-30T11:04:59Z</time>
      </trkpt>
      <trkpt lat="43.2936" lon="-1.43511">
        <ele>623.8</ele>
        <time>2022-08-30T11:05:00Z</time>
      </trkpt>
      <trkpt lat="43.29361" lon="-1.43512">
        <ele>623.9</ele>
        <time>2022-08-30T11:05:01Z</time>
      </trkpt>
      <trkpt lat="43.29362" lon="-1.43512">
        <ele>624</ele>
        <time>2022-08-30T11:05:02Z</time>
      </trkpt>
      <trkpt lat="43.29365" lon="-1.43517">
        <ele>624.1</ele>
        <time>2022-08-30T11:05:03Z</time>
      </trkpt>
      <trkpt lat="43.29366" lon="-1.43518">
        <ele>624.2</ele>
        <time>2022-08-30T11:05:04Z</time>
      </trkpt>
      <trkpt lat="43.29369" lon="-1.43522">
        <ele>624.3</ele>
        <time>2022-08-30T11:05:05Z</time>
      </trkpt>
      <trkpt lat="43.2937" lon="-1.43523">
        <ele>624.4</ele>
        <time>2022-08-30T11:05:06Z</time>
      </trkpt>
      <trkpt lat="43.29373" lon="-1.43527">
        <ele>622.2</ele>
        <time>2022-08-30T11:05:07Z</time>
      </trkpt>
      <trkpt lat="43.29374" lon="-1.43528">
        <ele>622.3</ele>
        <time>2022-08-30T11:05:08Z</time>
      </trkpt>
      <trkpt lat="43.29376" lon="-1.43531">
        <ele>622.4</ele>
        <time>2022-08-30T11:05:09Z</time>
      </trkpt>
      <trkpt lat="43.29378" lon="-1.43534">
        <ele>622.5</ele>
        <time>2022-08-30T11:05:10Z</time>
      </trkpt>
      <trkpt lat="43.2938" lon="-1.43536">
        <ele>622.6</ele>
        <time>2022-08-30T11:05:11Z</time>
      </trkpt>
      <trkpt lat="43.29383" lon="-1.43539">
        <ele>624.7</ele>
        <time>2022-08-30T11:05:12Z</time>
      </trkpt>
      <trkpt lat="43.29386" lon="-1.4354">
        <ele>624.8</ele>
        <time>2022-08-30T11:05:13Z</time>
      </trkpt>
      <trkpt lat="43.29389" lon="-1.4354">
        <ele>624.9</ele>
        <time>2022-08-30T11:05:14Z</time>
      </trkpt>
      <trkpt lat="43.29393" lon="-1.43541">
        <ele>625</ele>
        <time>2022-08-30T11:05:15Z</time>
      </trkpt>
      <trkpt lat="43.29394" lon="-1.43541">
        <ele>625.1</ele>
        <time>2022-08-30T11:05:16Z</time>
      </trkpt>
      <trkpt lat="43.29397" lon="-1.43543">
        <ele>627.1</ele>
        <time>2022-08-30T11:05:17Z</time>
      </trkpt>
      <trkpt lat="43.29397" lon="-1.43543">
        <ele>627.1</ele>
        <time>2022-08-30T11:05:18Z</time>
      </trkpt>
      <trkpt lat="43.294" lon="-1.43544">
        <ele>623.2</ele>
        <time>2022-08-30T11:05:19Z</time>
      </trkpt>
      <trkpt lat="43.29401" lon="-1.43545">
        <ele>623.3</ele>
        <time>2022-08-30T11:05:20Z</time>
      </trkpt>
      <trkpt lat="43.29404" lon="-1.43548">
        <ele>623.4</ele>
        <time>2022-08-30T11:05:21Z</time>
      </trkpt>
      <trkpt lat="43.29405" lon="-1.4355">
        <ele>623.5</ele>
        <time>2022-08-30T11:05:22Z</time>
      </trkpt>
      <trkpt lat="43.29407" lon="-1.43554">
        <ele>623.6</ele>
        <time>2022-08-30T11:05:23Z</time>
      </trkpt>
      <trkpt lat="43.2941" lon="-1.43557">
        <ele>624.8</ele>
        <time>2022-08-30T11:05:24Z</time>
      </trkpt>
      <trkpt lat="43.29412" lon="-1.43559">
        <ele>624.9</ele>
        <time>2022-08-30T11:05:25Z</time>
      </trkpt>
      <trkpt lat="43.29415" lon="-1.43561">
        <ele>620.2</ele>
        <time>2022-08-30T11:05:26Z</time>
      </trkpt>
      <trkpt lat="43.29418" lon="-1.43562">
        <ele>620.3</ele>
        <time>2022-08-30T11:05:27Z</time>
      </trkpt>
      <trkpt lat="43.29422" lon="-1.43563">
        <ele>621.1</ele>
        <time>2022-08-30T11:05:28Z</time>
      </trkpt>
      <trkpt lat="43.29423" lon="-1.43563">
        <ele>621.1</ele>
        <time>2022-08-30T11:05:29Z</time>
      </trkpt>
      <trkpt lat="43.29426" lon="-1.43562">
        <ele>621.2</ele>
        <time>2022-08-30T11:05:30Z</time>
      </trkpt>
      <trkpt lat="43.29427" lon="-1.43561">
        <ele>621.3</ele>
        <time>2022-08-30T11:05:31Z</time>
      </trkpt>
      <trkpt lat="43.29431" lon="-1.43559">
        <ele>626.1</ele>
        <time>2022-08-30T11:05:32Z</time>
      </trkpt>
      <trkpt lat="43.29432" lon="-1.43558">
        <ele>626.2</ele>
        <time>2022-08-30T11:05:33Z</time>
      </trkpt>
      <trkpt lat="43.29434" lon="-1.43556">
        <ele>626.3</ele>
        <time>2022-08-30T11:05:34Z</time>
      </trkpt>
      <trkpt lat="43.29435" lon="-1.43556">
        <ele>626.4</ele>
        <time>2022-08-30T11:05:35Z</time>
      </trkpt>
      <trkpt lat="43.29438" lon="-1.43554">
        <ele>626.5</ele>
        <time>2022-08-30T11:05:36Z</time>
      </trkpt>
      <trkpt lat="43.29439" lon="-1.43553">
        <ele>626.6</ele>
        <time>2022-08-30T11:05:37Z</time>
      </trkpt>
      <trkpt lat="43.29442" lon="-1.43552">
        <ele>626.7</ele>
        <time>2022-08-30T11:05:38Z</time>
      </trkpt>
      <trkpt lat="43.29442" lon="-1.43552">
        <ele>626.8</ele>
        <time>2022-08-30T11:05:39Z</time>
      </trkpt>
      <trkpt lat="43.29444" lon="-1.43551">
        <ele>626.9</ele>
        <time>2022-08-30T11:05:40Z</time>
      </trkpt>
      <trkpt lat="43.29445" lon="-1.43551">
        <ele>626.3</ele>
        <time>2022-08-30T11:05:41Z</time>
      </trkpt>
      <trkpt lat="43.29448" lon="-1.43549">
        <ele>626.4</ele>
        <time>2022-08-30T11:05:42Z</time>
      </trkpt>
      <trkpt lat="43.29449" lon="-1.43548">
        <ele>626.5</ele>
        <time>2022-08-30T11:05:43Z</time>
      </trkpt>
      <trkpt lat="43.29453" lon="-1.43548">
        <ele>626.6</ele>
        <time>2022-08-30T11:05:44Z</time>
      </trkpt>
      <trkpt lat="43.29454" lon="-1.43549">
        <ele>626.7</ele>
        <time>2022-08-30T11:05:45Z</time>
      </trkpt>
      <trkpt lat="43.29456" lon="-1.43548">
        <ele>626.8</ele>
        <time>2022-08-30T11:05:46Z</time>
      </trkpt>
      <trkpt lat="43.29457" lon="-1.43547">
        <ele>626.9</ele>
        <time>2022-08-30T11:05:47Z</time>
      </trkpt>
      <trkpt lat="43.29458" lon="-1.43547">
        <ele>625.8</ele>
        <time>2022-08-30T11:05:48Z</time>
      </trkpt>
      <trkpt lat="43.29458" lon="-1.43547">
        <ele>625.9</ele>
        <time>2022-08-30T11:05:49Z</time>
      </trkpt>
      <trkpt lat="43.29459" lon="-1.43548">
        <ele>626</ele>
        <time>2022-08-30T11:05:50Z</time>
      </trkpt>
      <trkpt lat="43.29459" lon="-1.43548">
        <ele>626.1</ele>
        <time>2022-08-30T11:05:51Z</time>
      </trkpt>
      <trkpt lat="43.29459" lon="-1.43549">
        <ele>626.2</ele>
        <time>2022-08-30T11:05:52Z</time>
      </trkpt>
      <trkpt lat="43.2946" lon="-1.43549">
        <ele>626.3</ele>
        <time>2022-08-30T11:05:53Z</time>
      </trkpt>
      <trkpt lat="43.2946" lon="-1.4355">
        <ele>626.4</ele>
        <time>2022-08-30T11:05:54Z</time>
      </trkpt>
      <trkpt lat="43.29461" lon="-1.4355">
        <ele>626.5</ele>
        <time>2022-08-30T11:05:55Z</time>
      </trkpt>
      <trkpt lat="43.29461" lon="-1.43551">
        <ele>626.5</ele>
        <time>2022-08-30T11:05:56Z</time>
      </trkpt>
      <trkpt lat="43.29461" lon="-1.43551">
        <ele>626.6</ele>
        <time>2022-08-30T11:05:57Z</time>
      </trkpt>
      <trkpt lat="43.29462" lon="-1.43552">
        <ele>626.7</ele>
        <time>2022-08-30T11:05:58Z</time>
      </trkpt>
      <trkpt lat="43.29462" lon="-1.43552">
        <ele>626.8</ele>
        <time>2022-08-30T11:05:59Z</time>
      </trkpt>
      <trkpt lat="43.29462" lon="-1.43553">
        <ele>626.6</ele>
        <time>2022-08-30T11:06:14Z</time>
      </trkpt>
      <trkpt lat="43.29463" lon="-1.43553">
        <ele>626.5</ele>
        <time>2022-08-30T11:06:15Z</time>
      </trkpt>
      <trkpt lat="43.29463" lon="-1.43554">
        <ele>626.3</ele>
        <time>2022-08-30T11:06:16Z</time>
      </trkpt>
      <trkpt lat="43.29464" lon="-1.43558">
        <ele>625.3</ele>
        <time>2022-08-30T11:06:17Z</time>
      </trkpt>
      <trkpt lat="43.29464" lon="-1.43561">
        <ele>624.3</ele>
        <time>2022-08-30T11:06:18Z</time>
      </trkpt>
      <trkpt lat="43.29465" lon="-1.43566">
        <ele>622.9</ele>
        <time>2022-08-30T11:06:19Z</time>
      </trkpt>
      <trkpt lat="43.29465" lon="-1.43568">
        <ele>622.5</ele>
        <time>2022-08-30T11:06:20Z</time>
      </trkpt>
      <trkpt lat="43.29465" lon="-1.43574">
        <ele>621</ele>
        <time>2022-08-30T11:06:21Z</time>
      </trkpt>
      <trkpt lat="43.29465" lon="-1.43576">
        <ele>620.4</ele>
        <time>2022-08-30T11:06:22Z</time>
      </trkpt>
      <trkpt lat="43.29462" lon="-1.43583">
        <ele>618.5</ele>
        <time>2022-08-30T11:06:24Z</time>
      </trkpt>
      <trkpt lat="43.2946" lon="-1.43585">
        <ele>617.6</ele>
        <time>2022-08-30T11:06:25Z</time>
      </trkpt>
      <trkpt lat="43.29459" lon="-1.43589">
        <ele>616.7</ele>
        <time>2022-08-30T11:06:26Z</time>
      </trkpt>
      <trkpt lat="43.29459" lon="-1.4359">
        <ele>616.4</ele>
        <time>2022-08-30T11:06:27Z</time>
      </trkpt>
      <trkpt lat="43.29461" lon="-1.43593">
        <ele>615.5</ele>
        <time>2022-08-30T11:06:28Z</time>
      </trkpt>
      <trkpt lat="43.29462" lon="-1.43594">
        <ele>615.1</ele>
        <time>2022-08-30T11:06:29Z</time>
      </trkpt>
      <trkpt lat="43.29464" lon="-1.43594">
        <ele>614.5</ele>
        <time>2022-08-30T11:06:30Z</time>
      </trkpt>
      <trkpt lat="43.29464" lon="-1.43594">
        <ele>614.4</ele>
        <time>2022-08-30T11:06:31Z</time>
      </trkpt>
      <trkpt lat="43.29465" lon="-1.43595">
        <ele>614.2</ele>
        <time>2022-08-30T11:06:32Z</time>
      </trkpt>
      <trkpt lat="43.29466" lon="-1.43596">
        <ele>613.8</ele>
        <time>2022-08-30T11:06:33Z</time>
      </trkpt>
      <trkpt lat="43.29467" lon="-1.43597">
        <ele>613.3</ele>
        <time>2022-08-30T11:06:34Z</time>
      </trkpt>
      <trkpt lat="43.29469" lon="-1.436">
        <ele>612.3</ele>
        <time>2022-08-30T11:06:35Z</time>
      </trkpt>
      <trkpt lat="43.2947" lon="-1.43602">
        <ele>611.9</ele>
        <time>2022-08-30T11:06:36Z</time>
      </trkpt>
      <trkpt lat="43.29472" lon="-1.43607">
        <ele>610.8</ele>
        <time>2022-08-30T11:06:37Z</time>
      </trkpt>
      <trkpt lat="43.29472" lon="-1.43609">
        <ele>610.4</ele>
        <time>2022-08-30T11:06:38Z</time>
      </trkpt>
      <trkpt lat="43.29474" lon="-1.43614">
        <ele>609.2</ele>
        <time>2022-08-30T11:06:39Z</time>
      </trkpt>
      <trkpt lat="43.29474" lon="-1.43615">
        <ele>608.9</ele>
        <time>2022-08-30T11:06:40Z</time>
      </trkpt>
      <trkpt lat="43.29474" lon="-1.4362">
        <ele>607.9</ele>
        <time>2022-08-30T11:06:41Z</time>
      </trkpt>
      <trkpt lat="43.29474" lon="-1.43622">
        <ele>607.6</ele>
        <time>2022-08-30T11:06:42Z</time>
      </trkpt>
      <trkpt lat="43.29473" lon="-1.43626">
        <ele>606.8</ele>
        <time>2022-08-30T11:06:43Z</time>
      </trkpt>
      <trkpt lat="43.29473" lon="-1.43627">
        <ele>606.6</ele>
        <time>2022-08-30T11:06:44Z</time>
      </trkpt>
      <trkpt lat="43.29471" lon="-1.43631">
        <ele>605.8</ele>
        <time>2022-08-30T11:06:45Z</time>
      </trkpt>
      <trkpt lat="43.29471" lon="-1.43632">
        <ele>605.6</ele>
        <time>2022-08-30T11:06:46Z</time>
      </trkpt>
      <trkpt lat="43.29468" lon="-1.43635">
        <ele>604.8</ele>
        <time>2022-08-30T11:06:47Z</time>
      </trkpt>
      <trkpt lat="43.29467" lon="-1.43637">
        <ele>604.5</ele>
        <time>2022-08-30T11:06:48Z</time>
      </trkpt>
      <trkpt lat="43.29465" lon="-1.4364">
        <ele>603.8</ele>
        <time>2022-08-30T11:06:49Z</time>
      </trkpt>
      <trkpt lat="43.29464" lon="-1.43643">
        <ele>603.3</ele>
        <time>2022-08-30T11:06:50Z</time>
      </trkpt>
      <trkpt lat="43.29462" lon="-1.43646">
        <ele>602.7</ele>
        <time>2022-08-30T11:06:51Z</time>
      </trkpt>
      <trkpt lat="43.29461" lon="-1.4365">
        <ele>602.1</ele>
        <time>2022-08-30T11:06:52Z</time>
      </trkpt>
      <trkpt lat="43.2946" lon="-1.43653">
        <ele>601.5</ele>
        <time>2022-08-30T11:06:53Z</time>
      </trkpt>
      <trkpt lat="43.29459" lon="-1.43658">
        <ele>600.8</ele>
        <time>2022-08-30T11:06:54Z</time>
      </trkpt>
      <trkpt lat="43.29459" lon="-1.43659">
        <ele>600.6</ele>
        <time>2022-08-30T11:06:55Z</time>
      </trkpt>
      <trkpt lat="43.29458" lon="-1.43664">
        <ele>599.9</ele>
        <time>2022-08-30T11:06:56Z</time>
      </trkpt>
      <trkpt lat="43.29458" lon="-1.43665">
        <ele>599.7</ele>
        <time>2022-08-30T11:06:57Z</time>
      </trkpt>
      <trkpt lat="43.29458" lon="-1.4367">
        <ele>598.9</ele>
        <time>2022-08-30T11:06:58Z</time>
      </trkpt>
      <trkpt lat="43.29458" lon="-1.43672">
        <ele>598.6</ele>
        <time>2022-08-30T11:06:59Z</time>
      </trkpt>
      <trkpt lat="43.29457" lon="-1.43677">
        <ele>597.7</ele>
        <time>2022-08-30T11:07:00Z</time>
      </trkpt>
      <trkpt lat="43.29457" lon="-1.43678">
        <ele>597.4</ele>
        <time>2022-08-30T11:07:01Z</time>
      </trkpt>
      <trkpt lat="43.29456" lon="-1.43683">
        <ele>596.6</ele>
        <time>2022-08-30T11:07:02Z</time>
      </trkpt>
      <trkpt lat="43.29456" lon="-1.43685">
        <ele>596.3</ele>
        <time>2022-08-30T11:07:03Z</time>
      </trkpt>
      <trkpt lat="43.29456" lon="-1.43687">
        <ele>595.8</ele>
        <time>2022-08-30T11:07:04Z</time>
      </trkpt>
      <trkpt lat="43.29455" lon="-1.43688">
        <ele>595.5</ele>
        <time>2022-08-30T11:07:05Z</time>
      </trkpt>
      <trkpt lat="43.29455" lon="-1.43689">
        <ele>595.4</ele>
        <time>2022-08-30T11:07:06Z</time>
      </trkpt>
      <trkpt lat="43.29455" lon="-1.43689">
        <ele>595.3</ele>
        <time>2022-08-30T11:07:07Z</time>
      </trkpt>
      <trkpt lat="43.29455" lon="-1.4369">
        <ele>595.2</ele>
        <time>2022-08-30T11:07:08Z</time>
      </trkpt>
      <trkpt lat="43.29456" lon="-1.4369">
        <ele>595.1</ele>
        <time>2022-08-30T11:07:09Z</time>
      </trkpt>
      <trkpt lat="43.29456" lon="-1.43691">
        <ele>595</ele>
        <time>2022-08-30T11:07:10Z</time>
      </trkpt>
      <trkpt lat="43.29456" lon="-1.43691">
        <ele>594.9</ele>
        <time>2022-08-30T11:07:11Z</time>
      </trkpt>
      <trkpt lat="43.29456" lon="-1.43691">
        <ele>594.8</ele>
        <time>2022-08-30T11:07:12Z</time>
      </trkpt>
      <trkpt lat="43.29456" lon="-1.43692">
        <ele>594.7</ele>
        <time>2022-08-30T11:07:13Z</time>
      </trkpt>
      <trkpt lat="43.29457" lon="-1.43692">
        <ele>594.6</ele>
        <time>2022-08-30T11:07:14Z</time>
      </trkpt>
      <trkpt lat="43.29457" lon="-1.43693">
        <ele>594.6</ele>
        <time>2022-08-30T11:07:15Z</time>
      </trkpt>
      <trkpt lat="43.29457" lon="-1.43693">
        <ele>594.4</ele>
        <time>2022-08-30T11:07:16Z</time>
      </trkpt>
      <trkpt lat="43.29457" lon="-1.43694">
        <ele>594.3</ele>
        <time>2022-08-30T11:07:17Z</time>
      </trkpt>
      <trkpt lat="43.29457" lon="-1.43694">
        <ele>594.3</ele>
        <time>2022-08-30T11:07:18Z</time>
      </trkpt>
      <trkpt lat="43.29458" lon="-1.43694">
        <ele>594.2</ele>
        <time>2022-08-30T11:07:19Z</time>
      </trkpt>
      <trkpt lat="43.29458" lon="-1.43695">
        <ele>594.1</ele>
        <time>2022-08-30T11:07:20Z</time>
      </trkpt>
      <trkpt lat="43.29458" lon="-1.43695">
        <ele>594</ele>
        <time>2022-08-30T11:07:21Z</time>
      </trkpt>
      <trkpt lat="43.29458" lon="-1.43696">
        <ele>593.9</ele>
        <time>2022-08-30T11:07:22Z</time>
      </trkpt>
      <trkpt lat="43.29458" lon="-1.43696">
        <ele>593.8</ele>
        <time>2022-08-30T11:07:23Z</time>
      </trkpt>
      <trkpt lat="43.29459" lon="-1.43696">
        <ele>593.7</ele>
        <time>2022-08-30T11:07:24Z</time>
      </trkpt>
      <trkpt lat="43.29459" lon="-1.43697">
        <ele>593.6</ele>
        <time>2022-08-30T11:07:25Z</time>
      </trkpt>
      <trkpt lat="43.29459" lon="-1.43697">
        <ele>593.5</ele>
        <time>2022-08-30T11:07:26Z</time>
      </trkpt>
      <trkpt lat="43.29459" lon="-1.43698">
        <ele>593.4</ele>
        <time>2022-08-30T11:08:07Z</time>
      </trkpt>
      <trkpt lat="43.2946" lon="-1.43698">
        <ele>593.3</ele>
        <time>2022-08-30T11:08:08Z</time>
      </trkpt>
      <trkpt lat="43.2946" lon="-1.43698">
        <ele>593.2</ele>
        <time>2022-08-30T11:08:09Z</time>
      </trkpt>
      <trkpt lat="43.29461" lon="-1.43702">
        <ele>592.4</ele>
        <time>2022-08-30T11:08:10Z</time>
      </trkpt>
      <trkpt lat="43.29461" lon="-1.43706">
        <ele>591.7</ele>
        <time>2022-08-30T11:08:11Z</time>
      </trkpt>
      <trkpt lat="43.29461" lon="-1.4371">
        <ele>590.9</ele>
        <time>2022-08-30T11:08:12Z</time>
      </trkpt>
      <trkpt lat="43.29461" lon="-1.43714">
        <ele>590.2</ele>
        <time>2022-08-30T11:08:13Z</time>
      </trkpt>
      <trkpt lat="43.29462" lon="-1.43719">
        <ele>589.2</ele>
        <time>2022-08-30T11:08:14Z</time>
      </trkpt>
      <trkpt lat="43.29462" lon="-1.43721">
        <ele>588.9</ele>
        <time>2022-08-30T11:08:15Z</time>
      </trkpt>
      <trkpt lat="43.29464" lon="-1.43726">
        <ele>587.8</ele>
        <time>2022-08-30T11:08:16Z</time>
      </trkpt>
      <trkpt lat="43.29464" lon="-1.43727">
        <ele>587.5</ele>
        <time>2022-08-30T11:08:17Z</time>
      </trkpt>
      <trkpt lat="43.29466" lon="-1.4373">
        <ele>586.8</ele>
        <time>2022-08-30T11:08:18Z</time>
      </trkpt>
      <trkpt lat="43.29468" lon="-1.43733">
        <ele>586.1</ele>
        <time>2022-08-30T11:08:19Z</time>
      </trkpt>
      <trkpt lat="43.29472" lon="-1.43734">
        <ele>585.2</ele>
        <time>2022-08-30T11:08:20Z</time>
      </trkpt>
      <trkpt lat="43.29473" lon="-1.43735">
        <ele>585.1</ele>
        <time>2022-08-30T11:08:21Z</time>
      </trkpt>
      <trkpt lat="43.29476" lon="-1.43732">
        <ele>587.5</ele>
        <time>2022-08-30T11:08:22Z</time>
      </trkpt>
      <trkpt lat="43.29477" lon="-1.43731">
        <ele>587.4</ele>
        <time>2022-08-30T11:08:23Z</time>
      </trkpt>
      <trkpt lat="43.29479" lon="-1.43728">
        <ele>587.4</ele>
        <time>2022-08-30T11:08:24Z</time>
      </trkpt>
      <trkpt lat="43.29481" lon="-1.43723">
        <ele>587.4</ele>
        <time>2022-08-30T11:08:25Z</time>
      </trkpt>
      <trkpt lat="43.29481" lon="-1.43722">
        <ele>587.4</ele>
        <time>2022-08-30T11:08:26Z</time>
      </trkpt>
      <trkpt lat="43.29483" lon="-1.43718">
        <ele>585.5</ele>
        <time>2022-08-30T11:08:27Z</time>
      </trkpt>
      <trkpt lat="43.29484" lon="-1.43718">
        <ele>585.5</ele>
        <time>2022-08-30T11:08:28Z</time>
      </trkpt>
      <trkpt lat="43.29487" lon="-1.43715">
        <ele>585.4</ele>
        <time>2022-08-30T11:08:29Z</time>
      </trkpt>
      <trkpt lat="43.29488" lon="-1.43715">
        <ele>588</ele>
        <time>2022-08-30T11:08:30Z</time>
      </trkpt>
      <trkpt lat="43.29492" lon="-1.43715">
        <ele>587.9</ele>
        <time>2022-08-30T11:08:31Z</time>
      </trkpt>
      <trkpt lat="43.29493" lon="-1.43715">
        <ele>587.9</ele>
        <time>2022-08-30T11:08:32Z</time>
      </trkpt>
      <trkpt lat="43.29497" lon="-1.43716">
        <ele>583.1</ele>
        <time>2022-08-30T11:08:33Z</time>
      </trkpt>
      <trkpt lat="43.29498" lon="-1.43717">
        <ele>583.1</ele>
        <time>2022-08-30T11:08:34Z</time>
      </trkpt>
      <trkpt lat="43.295" lon="-1.4372">
        <ele>583</ele>
        <time>2022-08-30T11:08:35Z</time>
      </trkpt>
      <trkpt lat="43.29502" lon="-1.43723">
        <ele>583</ele>
        <time>2022-08-30T11:08:36Z</time>
      </trkpt>
      <trkpt lat="43.29504" lon="-1.43726">
        <ele>583</ele>
        <time>2022-08-30T11:08:37Z</time>
      </trkpt>
      <trkpt lat="43.29506" lon="-1.43729">
        <ele>583</ele>
        <time>2022-08-30T11:08:38Z</time>
      </trkpt>
      <trkpt lat="43.29507" lon="-1.43732">
        <ele>583</ele>
        <time>2022-08-30T11:08:39Z</time>
      </trkpt>
      <trkpt lat="43.2951" lon="-1.43736">
        <ele>578.4</ele>
        <time>2022-08-30T11:08:40Z</time>
      </trkpt>
      <trkpt lat="43.29511" lon="-1.43737">
        <ele>578.4</ele>
        <time>2022-08-30T11:08:41Z</time>
      </trkpt>
      <trkpt lat="43.29514" lon="-1.4374">
        <ele>578.3</ele>
        <time>2022-08-30T11:08:42Z</time>
      </trkpt>
      <trkpt lat="43.29515" lon="-1.4374">
        <ele>578.3</ele>
        <time>2022-08-30T11:08:43Z</time>
      </trkpt>
      <trkpt lat="43.29519" lon="-1.4374">
        <ele>578.3</ele>
        <time>2022-08-30T11:08:44Z</time>
      </trkpt>
      <trkpt lat="43.2952" lon="-1.43739">
        <ele>574.9</ele>
        <time>2022-08-30T11:08:45Z</time>
      </trkpt>
      <trkpt lat="43.29523" lon="-1.43738">
        <ele>574.9</ele>
        <time>2022-08-30T11:08:46Z</time>
      </trkpt>
      <trkpt lat="43.29526" lon="-1.43736">
        <ele>574.9</ele>
        <time>2022-08-30T11:08:47Z</time>
      </trkpt>
      <trkpt lat="43.29528" lon="-1.43735">
        <ele>574.9</ele>
        <time>2022-08-30T11:08:48Z</time>
      </trkpt>
      <trkpt lat="43.29531" lon="-1.43733">
        <ele>574.9</ele>
        <time>2022-08-30T11:08:49Z</time>
      </trkpt>
      <trkpt lat="43.29534" lon="-1.43733">
        <ele>571.1</ele>
        <time>2022-08-30T11:08:50Z</time>
      </trkpt>
      <trkpt lat="43.29538" lon="-1.43733">
        <ele>571.1</ele>
        <time>2022-08-30T11:08:51Z</time>
      </trkpt>
      <trkpt lat="43.29539" lon="-1.43733">
        <ele>571.1</ele>
        <time>2022-08-30T11:08:52Z</time>
      </trkpt>
      <trkpt lat="43.29543" lon="-1.43734">
        <ele>571.1</ele>
        <time>2022-08-30T11:08:53Z</time>
      </trkpt>
      <trkpt lat="43.29544" lon="-1.43735">
        <ele>571.1</ele>
        <time>2022-08-30T11:08:54Z</time>
      </trkpt>
      <trkpt lat="43.29547" lon="-1.43736">
        <ele>567.8</ele>
        <time>2022-08-30T11:08:55Z</time>
      </trkpt>
      <trkpt lat="43.2955" lon="-1.43737">
        <ele>567.7</ele>
        <time>2022-08-30T11:08:56Z</time>
      </trkpt>
      <trkpt lat="43.29553" lon="-1.43736">
        <ele>567.7</ele>
        <time>2022-08-30T11:08:57Z</time>
      </trkpt>
      <trkpt lat="43.29556" lon="-1.43734">
        <ele>567.7</ele>
        <time>2022-08-30T11:08:58Z</time>
      </trkpt>
      <trkpt lat="43.29558" lon="-1.43733">
        <ele>567.7</ele>
        <time>2022-08-30T11:08:59Z</time>
      </trkpt>
      <trkpt lat="43.29562" lon="-1.43731">
        <ele>567.7</ele>
        <time>2022-08-30T11:09:00Z</time>
      </trkpt>
      <trkpt lat="43.29563" lon="-1.43731">
        <ele>567.7</ele>
        <time>2022-08-30T11:09:01Z</time>
      </trkpt>
      <trkpt lat="43.29566" lon="-1.43728">
        <ele>567.6</ele>
        <time>2022-08-30T11:09:02Z</time>
      </trkpt>
      <trkpt lat="43.29567" lon="-1.43727">
        <ele>567.6</ele>
        <time>2022-08-30T11:09:03Z</time>
      </trkpt>
      <trkpt lat="43.29568" lon="-1.43725">
        <ele>567.6</ele>
        <time>2022-08-30T11:09:04Z</time>
      </trkpt>
      <trkpt lat="43.29569" lon="-1.43724">
        <ele>567.6</ele>
        <time>2022-08-30T11:09:05Z</time>
      </trkpt>
      <trkpt lat="43.29569" lon="-1.43723">
        <ele>567.6</ele>
        <time>2022-08-30T11:09:06Z</time>
      </trkpt>
      <trkpt lat="43.29569" lon="-1.43723">
        <ele>567.5</ele>
        <time>2022-08-30T11:09:07Z</time>
      </trkpt>
      <trkpt lat="43.29569" lon="-1.43723">
        <ele>567.5</ele>
        <time>2022-08-30T11:09:08Z</time>
      </trkpt>
      <trkpt lat="43.29569" lon="-1.43723">
        <ele>567.5</ele>
        <time>2022-08-30T11:09:09Z</time>
      </trkpt>
      <trkpt lat="43.29569" lon="-1.43722">
        <ele>567.5</ele>
        <time>2022-08-30T11:09:10Z</time>
      </trkpt>
      <trkpt lat="43.29571" lon="-1.43721">
        <ele>567.5</ele>
        <time>2022-08-30T11:09:11Z</time>
      </trkpt>
      <trkpt lat="43.29573" lon="-1.43718">
        <ele>567.4</ele>
        <time>2022-08-30T11:09:12Z</time>
      </trkpt>
      <trkpt lat="43.29574" lon="-1.43714">
        <ele>567.3</ele>
        <time>2022-08-30T11:09:13Z</time>
      </trkpt>
      <trkpt lat="43.29575" lon="-1.43713">
        <ele>567.3</ele>
        <time>2022-08-30T11:09:14Z</time>
      </trkpt>
      <trkpt lat="43.29575" lon="-1.4371">
        <ele>567.2</ele>
        <time>2022-08-30T11:09:15Z</time>
      </trkpt>
      <trkpt lat="43.29577" lon="-1.43709">
        <ele>567.1</ele>
        <time>2022-08-30T11:09:16Z</time>
      </trkpt>
      <trkpt lat="43.29578" lon="-1.43707">
        <ele>567.1</ele>
        <time>2022-08-30T11:09:17Z</time>
      </trkpt>
      <trkpt lat="43.29579" lon="-1.43706">
        <ele>567</ele>
        <time>2022-08-30T11:09:18Z</time>
      </trkpt>
      <trkpt lat="43.29579" lon="-1.43704">
        <ele>567</ele>
        <time>2022-08-30T11:09:19Z</time>
      </trkpt>
      <trkpt lat="43.2958" lon="-1.43702">
        <ele>566.9</ele>
        <time>2022-08-30T11:09:20Z</time>
      </trkpt>
      <trkpt lat="43.29582" lon="-1.43702">
        <ele>566.9</ele>
        <time>2022-08-30T11:09:21Z</time>
      </trkpt>
      <trkpt lat="43.29582" lon="-1.43702">
        <ele>566.9</ele>
        <time>2022-08-30T11:09:22Z</time>
      </trkpt>
      <trkpt lat="43.29582" lon="-1.43702">
        <ele>566.9</ele>
        <time>2022-08-30T11:09:23Z</time>
      </trkpt>
      <trkpt lat="43.29582" lon="-1.43702">
        <ele>566.9</ele>
        <time>2022-08-30T11:09:24Z</time>
      </trkpt>
      <trkpt lat="43.29582" lon="-1.43702">
        <ele>566.9</ele>
        <time>2022-08-30T11:09:25Z</time>
      </trkpt>
      <trkpt lat="43.29583" lon="-1.43702">
        <ele>566.8</ele>
        <time>2022-08-30T11:09:26Z</time>
      </trkpt>
      <trkpt lat="43.29583" lon="-1.43702">
        <ele>566.8</ele>
        <time>2022-08-30T11:09:27Z</time>
      </trkpt>
      <trkpt lat="43.29583" lon="-1.43702">
        <ele>566.8</ele>
        <time>2022-08-30T11:09:28Z</time>
      </trkpt>
      <trkpt lat="43.29583" lon="-1.43702">
        <ele>566.8</ele>
        <time>2022-08-30T11:09:29Z</time>
      </trkpt>
      <trkpt lat="43.29583" lon="-1.43702">
        <ele>566.8</ele>
        <time>2022-08-30T11:09:30Z</time>
      </trkpt>
      <trkpt lat="43.29584" lon="-1.43702">
        <ele>566.8</ele>
        <time>2022-08-30T11:09:31Z</time>
      </trkpt>
      <trkpt lat="43.29584" lon="-1.43702">
        <ele>566.8</ele>
        <time>2022-08-30T11:09:32Z</time>
      </trkpt>
      <trkpt lat="43.29584" lon="-1.43702">
        <ele>566.8</ele>
        <time>2022-08-30T11:09:33Z</time>
      </trkpt>
      <trkpt lat="43.29584" lon="-1.43702">
        <ele>566.8</ele>
        <time>2022-08-30T11:09:34Z</time>
      </trkpt>
      <trkpt lat="43.29585" lon="-1.43702">
        <ele>566.7</ele>
        <time>2022-08-30T11:09:35Z</time>
      </trkpt>
      <trkpt lat="43.29586" lon="-1.43701">
        <ele>566.7</ele>
        <time>2022-08-30T11:09:36Z</time>
      </trkpt>
      <trkpt lat="43.29587" lon="-1.43701">
        <ele>566.6</ele>
        <time>2022-08-30T11:09:37Z</time>
      </trkpt>
      <trkpt lat="43.29587" lon="-1.43701">
        <ele>566.6</ele>
        <time>2022-08-30T11:09:38Z</time>
      </trkpt>
      <trkpt lat="43.29587" lon="-1.437">
        <ele>566.6</ele>
        <time>2022-08-30T11:09:39Z</time>
      </trkpt>
      <trkpt lat="43.29587" lon="-1.437">
        <ele>566.6</ele>
        <time>2022-08-30T11:09:40Z</time>
      </trkpt>
      <trkpt lat="43.29587" lon="-1.437">
        <ele>566.6</ele>
        <time>2022-08-30T11:09:41Z</time>
      </trkpt>
      <trkpt lat="43.29587" lon="-1.437">
        <ele>566.5</ele>
        <time>2022-08-30T11:09:42Z</time>
      </trkpt>
      <trkpt lat="43.29587" lon="-1.43699">
        <ele>566.5</ele>
        <time>2022-08-30T11:09:43Z</time>
      </trkpt>
      <trkpt lat="43.29588" lon="-1.43698">
        <ele>566.4</ele>
        <time>2022-08-30T11:09:44Z</time>
      </trkpt>
      <trkpt lat="43.29592" lon="-1.43697">
        <ele>566.2</ele>
        <time>2022-08-30T11:09:45Z</time>
      </trkpt>
      <trkpt lat="43.29593" lon="-1.43697">
        <ele>566.1</ele>
        <time>2022-08-30T11:09:46Z</time>
      </trkpt>
      <trkpt lat="43.29596" lon="-1.43696">
        <ele>565.9</ele>
        <time>2022-08-30T11:09:47Z</time>
      </trkpt>
      <trkpt lat="43.29598" lon="-1.43695">
        <ele>565.8</ele>
        <time>2022-08-30T11:09:48Z</time>
      </trkpt>
      <trkpt lat="43.296" lon="-1.43694">
        <ele>565.6</ele>
        <time>2022-08-30T11:09:49Z</time>
      </trkpt>
      <trkpt lat="43.29603" lon="-1.43693">
        <ele>565.4</ele>
        <time>2022-08-30T11:09:50Z</time>
      </trkpt>
      <trkpt lat="43.29606" lon="-1.43694">
        <ele>565.2</ele>
        <time>2022-08-30T11:09:51Z</time>
      </trkpt>
      <trkpt lat="43.29607" lon="-1.43695">
        <ele>565.1</ele>
        <time>2022-08-30T11:09:52Z</time>
      </trkpt>
      <trkpt lat="43.29611" lon="-1.43695">
        <ele>564.8</ele>
        <time>2022-08-30T11:09:53Z</time>
      </trkpt>
      <trkpt lat="43.29612" lon="-1.43694">
        <ele>564.8</ele>
        <time>2022-08-30T11:09:54Z</time>
      </trkpt>
      <trkpt lat="43.29616" lon="-1.43693">
        <ele>564.6</ele>
        <time>2022-08-30T11:09:55Z</time>
      </trkpt>
      <trkpt lat="43.29616" lon="-1.43693">
        <ele>564.5</ele>
        <time>2022-08-30T11:09:56Z</time>
      </trkpt>
      <trkpt lat="43.29619" lon="-1.43691">
        <ele>564.4</ele>
        <time>2022-08-30T11:09:57Z</time>
      </trkpt>
      <trkpt lat="43.2962" lon="-1.4369">
        <ele>564.3</ele>
        <time>2022-08-30T11:09:58Z</time>
      </trkpt>
      <trkpt lat="43.29623" lon="-1.43688">
        <ele>564.2</ele>
        <time>2022-08-30T11:09:59Z</time>
      </trkpt>
      <trkpt lat="43.29625" lon="-1.43686">
        <ele>564</ele>
        <time>2022-08-30T11:10:00Z</time>
      </trkpt>
      <trkpt lat="43.29628" lon="-1.43684">
        <ele>563.8</ele>
        <time>2022-08-30T11:10:01Z</time>
      </trkpt>
      <trkpt lat="43.29629" lon="-1.43683">
        <ele>563.7</ele>
        <time>2022-08-30T11:10:02Z</time>
      </trkpt>
      <trkpt lat="43.2963" lon="-1.43681">
        <ele>563.6</ele>
        <time>2022-08-30T11:10:03Z</time>
      </trkpt>
      <trkpt lat="43.2963" lon="-1.43679">
        <ele>563.5</ele>
        <time>2022-08-30T11:10:04Z</time>
      </trkpt>
      <trkpt lat="43.29631" lon="-1.43679">
        <ele>563.4</ele>
        <time>2022-08-30T11:10:05Z</time>
      </trkpt>
      <trkpt lat="43.29632" lon="-1.43679">
        <ele>563.4</ele>
        <time>2022-08-30T11:10:06Z</time>
      </trkpt>
      <trkpt lat="43.29632" lon="-1.43679">
        <ele>563.3</ele>
        <time>2022-08-30T11:10:07Z</time>
      </trkpt>
      <trkpt lat="43.29632" lon="-1.4368">
        <ele>563.3</ele>
        <time>2022-08-30T11:10:08Z</time>
      </trkpt>
      <trkpt lat="43.29632" lon="-1.4368">
        <ele>563.3</ele>
        <time>2022-08-30T11:10:09Z</time>
      </trkpt>
      <trkpt lat="43.29632" lon="-1.4368">
        <ele>563.2</ele>
        <time>2022-08-30T11:10:10Z</time>
      </trkpt>
      <trkpt lat="43.29631" lon="-1.4368">
        <ele>563.2</ele>
        <time>2022-08-30T11:10:11Z</time>
      </trkpt>
      <trkpt lat="43.29632" lon="-1.43681">
        <ele>563.2</ele>
        <time>2022-08-30T11:10:12Z</time>
      </trkpt>
      <trkpt lat="43.29633" lon="-1.43682">
        <ele>563</ele>
        <time>2022-08-30T11:10:13Z</time>
      </trkpt>
      <trkpt lat="43.29636" lon="-1.43683">
        <ele>562.7</ele>
        <time>2022-08-30T11:10:14Z</time>
      </trkpt>
      <trkpt lat="43.29637" lon="-1.43683">
        <ele>562.6</ele>
        <time>2022-08-30T11:10:15Z</time>
      </trkpt>
      <trkpt lat="43.2964" lon="-1.43683">
        <ele>562.2</ele>
        <time>2022-08-30T11:10:16Z</time>
      </trkpt>
      <trkpt lat="43.29641" lon="-1.43683">
        <ele>562</ele>
        <time>2022-08-30T11:10:17Z</time>
      </trkpt>
      <trkpt lat="43.29643" lon="-1.43683">
        <ele>561.8</ele>
        <time>2022-08-30T11:10:18Z</time>
      </trkpt>
      <trkpt lat="43.29645" lon="-1.43683">
        <ele>561.6</ele>
        <time>2022-08-30T11:10:19Z</time>
      </trkpt>
      <trkpt lat="43.29647" lon="-1.43682">
        <ele>561.2</ele>
        <time>2022-08-30T11:10:20Z</time>
      </trkpt>
      <trkpt lat="43.29648" lon="-1.43682">
        <ele>561.1</ele>
        <time>2022-08-30T11:10:21Z</time>
      </trkpt>
      <trkpt lat="43.2965" lon="-1.43682">
        <ele>560.8</ele>
        <time>2022-08-30T11:10:22Z</time>
      </trkpt>
      <trkpt lat="43.29652" lon="-1.43682">
        <ele>560.6</ele>
        <time>2022-08-30T11:10:23Z</time>
      </trkpt>
      <trkpt lat="43.29653" lon="-1.43682">
        <ele>560.4</ele>
        <time>2022-08-30T11:10:24Z</time>
      </trkpt>
      <trkpt lat="43.29653" lon="-1.43681">
        <ele>560.4</ele>
        <time>2022-08-30T11:10:25Z</time>
      </trkpt>
      <trkpt lat="43.29653" lon="-1.43681">
        <ele>560.3</ele>
        <time>2022-08-30T11:10:26Z</time>
      </trkpt>
      <trkpt lat="43.29653" lon="-1.43681">
        <ele>560.3</ele>
        <time>2022-08-30T11:10:27Z</time>
      </trkpt>
      <trkpt lat="43.29653" lon="-1.43681">
        <ele>560.3</ele>
        <time>2022-08-30T11:10:28Z</time>
      </trkpt>
      <trkpt lat="43.29653" lon="-1.43681">
        <ele>560.2</ele>
        <time>2022-08-30T11:10:29Z</time>
      </trkpt>
      <trkpt lat="43.29653" lon="-1.43681">
        <ele>560.2</ele>
        <time>2022-08-30T11:10:30Z</time>
      </trkpt>
      <trkpt lat="43.29653" lon="-1.43681">
        <ele>560.1</ele>
        <time>2022-08-30T11:10:31Z</time>
      </trkpt>
      <trkpt lat="43.29654" lon="-1.4368">
        <ele>560.1</ele>
        <time>2022-08-30T11:10:32Z</time>
      </trkpt>
      <trkpt lat="43.29655" lon="-1.4368">
        <ele>560</ele>
        <time>2022-08-30T11:10:33Z</time>
      </trkpt>
      <trkpt lat="43.29655" lon="-1.4368">
        <ele>559.8</ele>
        <time>2022-08-30T11:10:34Z</time>
      </trkpt>
      <trkpt lat="43.29656" lon="-1.43681">
        <ele>559.7</ele>
        <time>2022-08-30T11:10:35Z</time>
      </trkpt>
      <trkpt lat="43.29657" lon="-1.43681">
        <ele>559.6</ele>
        <time>2022-08-30T11:10:36Z</time>
      </trkpt>
      <trkpt lat="43.29658" lon="-1.4368">
        <ele>559.5</ele>
        <time>2022-08-30T11:10:37Z</time>
      </trkpt>
      <trkpt lat="43.29658" lon="-1.4368">
        <ele>559.5</ele>
        <time>2022-08-30T11:10:38Z</time>
      </trkpt>
      <trkpt lat="43.29659" lon="-1.4368">
        <ele>559.4</ele>
        <time>2022-08-30T11:10:39Z</time>
      </trkpt>
      <trkpt lat="43.2966" lon="-1.43679">
        <ele>559.3</ele>
        <time>2022-08-30T11:10:40Z</time>
      </trkpt>
      <trkpt lat="43.2966" lon="-1.43679">
        <ele>559.2</ele>
        <time>2022-08-30T11:10:42Z</time>
      </trkpt>
      <trkpt lat="43.2966" lon="-1.43679">
        <ele>559.2</ele>
        <time>2022-08-30T11:10:43Z</time>
      </trkpt>
      <trkpt lat="43.2966" lon="-1.43679">
        <ele>559.2</ele>
        <time>2022-08-30T11:10:44Z</time>
      </trkpt>
      <trkpt lat="43.2966" lon="-1.43679">
        <ele>559.2</ele>
        <time>2022-08-30T11:10:45Z</time>
      </trkpt>
      <trkpt lat="43.2966" lon="-1.43679">
        <ele>559.2</ele>
        <time>2022-08-30T11:10:46Z</time>
      </trkpt>
      <trkpt lat="43.2966" lon="-1.43679">
        <ele>559.1</ele>
        <time>2022-08-30T11:10:47Z</time>
      </trkpt>
      <trkpt lat="43.2966" lon="-1.43678">
        <ele>559</ele>
        <time>2022-08-30T11:10:48Z</time>
      </trkpt>
      <trkpt lat="43.2966" lon="-1.43677">
        <ele>559</ele>
        <time>2022-08-30T11:10:49Z</time>
      </trkpt>
      <trkpt lat="43.2966" lon="-1.43677">
        <ele>559</ele>
        <time>2022-08-30T11:10:50Z</time>
      </trkpt>
      <trkpt lat="43.29661" lon="-1.43677">
        <ele>558.9</ele>
        <time>2022-08-30T11:10:51Z</time>
      </trkpt>
      <trkpt lat="43.29661" lon="-1.43677">
        <ele>558.9</ele>
        <time>2022-08-30T11:10:52Z</time>
      </trkpt>
      <trkpt lat="43.29663" lon="-1.43676">
        <ele>558.7</ele>
        <time>2022-08-30T11:11:08Z</time>
      </trkpt>
      <trkpt lat="43.29663" lon="-1.43676">
        <ele>558.7</ele>
        <time>2022-08-30T11:11:09Z</time>
      </trkpt>
      <trkpt lat="43.29663" lon="-1.43675">
        <ele>558.7</ele>
        <time>2022-08-30T11:11:10Z</time>
      </trkpt>
      <trkpt lat="43.29663" lon="-1.43675">
        <ele>558.6</ele>
        <time>2022-08-30T11:11:11Z</time>
      </trkpt>
      <trkpt lat="43.29663" lon="-1.43675">
        <ele>558.6</ele>
        <time>2022-08-30T11:11:12Z</time>
      </trkpt>
      <trkpt lat="43.29663" lon="-1.43674">
        <ele>558.6</ele>
        <time>2022-08-30T11:11:13Z</time>
      </trkpt>
      <trkpt lat="43.29663" lon="-1.43674">
        <ele>558.5</ele>
        <time>2022-08-30T11:11:14Z</time>
      </trkpt>
      <trkpt lat="43.29663" lon="-1.43674">
        <ele>558.5</ele>
        <time>2022-08-30T11:11:15Z</time>
      </trkpt>
      <trkpt lat="43.29663" lon="-1.43674">
        <ele>558.5</ele>
        <time>2022-08-30T11:11:16Z</time>
      </trkpt>
      <trkpt lat="43.29663" lon="-1.43673">
        <ele>558.5</ele>
        <time>2022-08-30T11:11:17Z</time>
      </trkpt>
      <trkpt lat="43.29664" lon="-1.43673">
        <ele>558.4</ele>
        <time>2022-08-30T11:11:18Z</time>
      </trkpt>
      <trkpt lat="43.29664" lon="-1.43673">
        <ele>558.4</ele>
        <time>2022-08-30T11:11:19Z</time>
      </trkpt>
      <trkpt lat="43.29664" lon="-1.43673">
        <ele>558.4</ele>
        <time>2022-08-30T11:11:20Z</time>
      </trkpt>
      <trkpt lat="43.29664" lon="-1.43673">
        <ele>558.4</ele>
        <time>2022-08-30T11:11:21Z</time>
      </trkpt>
      <trkpt lat="43.29664" lon="-1.43672">
        <ele>558.3</ele>
        <time>2022-08-30T11:11:22Z</time>
      </trkpt>
      <trkpt lat="43.29664" lon="-1.43672">
        <ele>558.3</ele>
        <time>2022-08-30T11:11:23Z</time>
      </trkpt>
      <trkpt lat="43.29664" lon="-1.43671">
        <ele>558.3</ele>
        <time>2022-08-30T11:11:24Z</time>
      </trkpt>
      <trkpt lat="43.29665" lon="-1.43671">
        <ele>558.2</ele>
        <time>2022-08-30T11:11:25Z</time>
      </trkpt>
      <trkpt lat="43.29666" lon="-1.43672">
        <ele>558.1</ele>
        <time>2022-08-30T11:11:26Z</time>
      </trkpt>
      <trkpt lat="43.29666" lon="-1.43672">
        <ele>558.1</ele>
        <time>2022-08-30T11:11:27Z</time>
      </trkpt>
      <trkpt lat="43.29667" lon="-1.43672">
        <ele>558</ele>
        <time>2022-08-30T11:11:28Z</time>
      </trkpt>
      <trkpt lat="43.29668" lon="-1.43673">
        <ele>558</ele>
        <time>2022-08-30T11:11:29Z</time>
      </trkpt>
      <trkpt lat="43.29668" lon="-1.43673">
        <ele>558</ele>
        <time>2022-08-30T11:11:30Z</time>
      </trkpt>
      <trkpt lat="43.29669" lon="-1.43673">
        <ele>557.8</ele>
        <time>2022-08-30T11:11:31Z</time>
      </trkpt>
      <trkpt lat="43.2967" lon="-1.43674">
        <ele>557.8</ele>
        <time>2022-08-30T11:11:32Z</time>
      </trkpt>
      <trkpt lat="43.29671" lon="-1.43673">
        <ele>557.7</ele>
        <time>2022-08-30T11:11:33Z</time>
      </trkpt>
      <trkpt lat="43.29672" lon="-1.43673">
        <ele>557.6</ele>
        <time>2022-08-30T11:11:34Z</time>
      </trkpt>
      <trkpt lat="43.29672" lon="-1.43673">
        <ele>557.6</ele>
        <time>2022-08-30T11:11:35Z</time>
      </trkpt>
      <trkpt lat="43.29672" lon="-1.43673">
        <ele>557.6</ele>
        <time>2022-08-30T11:11:36Z</time>
      </trkpt>
      <trkpt lat="43.29673" lon="-1.43673">
        <ele>557.5</ele>
        <time>2022-08-30T11:11:37Z</time>
      </trkpt>
      <trkpt lat="43.29673" lon="-1.43673">
        <ele>557.5</ele>
        <time>2022-08-30T11:11:38Z</time>
      </trkpt>
      <trkpt lat="43.29674" lon="-1.43673">
        <ele>557.5</ele>
        <time>2022-08-30T11:11:39Z</time>
      </trkpt>
      <trkpt lat="43.29674" lon="-1.43672">
        <ele>557.5</ele>
        <time>2022-08-30T11:11:40Z</time>
      </trkpt>
      <trkpt lat="43.29674" lon="-1.43672">
        <ele>557.5</ele>
        <time>2022-08-30T11:11:41Z</time>
      </trkpt>
      <trkpt lat="43.29674" lon="-1.43672">
        <ele>557.5</ele>
        <time>2022-08-30T11:11:42Z</time>
      </trkpt>
      <trkpt lat="43.29674" lon="-1.43672">
        <ele>557.5</ele>
        <time>2022-08-30T11:11:43Z</time>
      </trkpt>
      <trkpt lat="43.29674" lon="-1.43672">
        <ele>557.4</ele>
        <time>2022-08-30T11:11:44Z</time>
      </trkpt>
      <trkpt lat="43.29674" lon="-1.43672">
        <ele>557.4</ele>
        <time>2022-08-30T11:11:45Z</time>
      </trkpt>
      <trkpt lat="43.29675" lon="-1.43672">
        <ele>557.4</ele>
        <time>2022-08-30T11:11:46Z</time>
      </trkpt>
      <trkpt lat="43.29675" lon="-1.43672">
        <ele>557.4</ele>
        <time>2022-08-30T11:11:47Z</time>
      </trkpt>
      <trkpt lat="43.29676" lon="-1.43672">
        <ele>557.4</ele>
        <time>2022-08-30T11:11:48Z</time>
      </trkpt>
      <trkpt lat="43.29676" lon="-1.43672">
        <ele>557.3</ele>
        <time>2022-08-30T11:11:49Z</time>
      </trkpt>
      <trkpt lat="43.29677" lon="-1.43672">
        <ele>557.3</ele>
        <time>2022-08-30T11:11:50Z</time>
      </trkpt>
      <trkpt lat="43.29677" lon="-1.43672">
        <ele>557.2</ele>
        <time>2022-08-30T11:11:51Z</time>
      </trkpt>
      <trkpt lat="43.29678" lon="-1.43672">
        <ele>557.2</ele>
        <time>2022-08-30T11:11:52Z</time>
      </trkpt>
      <trkpt lat="43.29678" lon="-1.43672">
        <ele>557.2</ele>
        <time>2022-08-30T11:11:53Z</time>
      </trkpt>
      <trkpt lat="43.29679" lon="-1.43672">
        <ele>557.2</ele>
        <time>2022-08-30T11:11:54Z</time>
      </trkpt>
      <trkpt lat="43.29679" lon="-1.43672">
        <ele>557.1</ele>
        <time>2022-08-30T11:11:55Z</time>
      </trkpt>
      <trkpt lat="43.2968" lon="-1.43672">
        <ele>557.1</ele>
        <time>2022-08-30T11:11:56Z</time>
      </trkpt>
      <trkpt lat="43.2968" lon="-1.43672">
        <ele>557.1</ele>
        <time>2022-08-30T11:11:57Z</time>
      </trkpt>
      <trkpt lat="43.29684" lon="-1.43671">
        <ele>556.9</ele>
        <time>2022-08-30T11:11:58Z</time>
      </trkpt>
      <trkpt lat="43.29685" lon="-1.4367">
        <ele>556.8</ele>
        <time>2022-08-30T11:11:59Z</time>
      </trkpt>
      <trkpt lat="43.29688" lon="-1.43668">
        <ele>556.6</ele>
        <time>2022-08-30T11:12:00Z</time>
      </trkpt>
      <trkpt lat="43.2969" lon="-1.43667">
        <ele>556.5</ele>
        <time>2022-08-30T11:12:01Z</time>
      </trkpt>
      <trkpt lat="43.29693" lon="-1.43665">
        <ele>556.3</ele>
        <time>2022-08-30T11:12:02Z</time>
      </trkpt>
      <trkpt lat="43.29696" lon="-1.43664">
        <ele>556.2</ele>
        <time>2022-08-30T11:12:03Z</time>
      </trkpt>
      <trkpt lat="43.29699" lon="-1.43663">
        <ele>556</ele>
        <time>2022-08-30T11:12:04Z</time>
      </trkpt>
      <trkpt lat="43.29702" lon="-1.43661">
        <ele>555.9</ele>
        <time>2022-08-30T11:12:05Z</time>
      </trkpt>
      <trkpt lat="43.29705" lon="-1.4366">
        <ele>555.8</ele>
        <time>2022-08-30T11:12:06Z</time>
      </trkpt>
      <trkpt lat="43.29706" lon="-1.4366">
        <ele>555.8</ele>
        <time>2022-08-30T11:12:07Z</time>
      </trkpt>
      <trkpt lat="43.29709" lon="-1.43659">
        <ele>555.6</ele>
        <time>2022-08-30T11:12:08Z</time>
      </trkpt>
      <trkpt lat="43.2971" lon="-1.43659">
        <ele>555.6</ele>
        <time>2022-08-30T11:12:09Z</time>
      </trkpt>
      <trkpt lat="43.29713" lon="-1.43657">
        <ele>555.5</ele>
        <time>2022-08-30T11:12:10Z</time>
      </trkpt>
      <trkpt lat="43.29714" lon="-1.43657">
        <ele>555.5</ele>
        <time>2022-08-30T11:12:11Z</time>
      </trkpt>
      <trkpt lat="43.29717" lon="-1.43656">
        <ele>555.4</ele>
        <time>2022-08-30T11:12:12Z</time>
      </trkpt>
      <trkpt lat="43.29718" lon="-1.43655">
        <ele>555.4</ele>
        <time>2022-08-30T11:12:13Z</time>
      </trkpt>
      <trkpt lat="43.2972" lon="-1.43653">
        <ele>555.4</ele>
        <time>2022-08-30T11:12:14Z</time>
      </trkpt>
      <trkpt lat="43.29723" lon="-1.43652">
        <ele>555.3</ele>
        <time>2022-08-30T11:12:15Z</time>
      </trkpt>
      <trkpt lat="43.29726" lon="-1.4365">
        <ele>555.3</ele>
        <time>2022-08-30T11:12:16Z</time>
      </trkpt>
      <trkpt lat="43.29728" lon="-1.43648">
        <ele>555.3</ele>
        <time>2022-08-30T11:12:17Z</time>
      </trkpt>
      <trkpt lat="43.29731" lon="-1.43648">
        <ele>555.2</ele>
        <time>2022-08-30T11:12:18Z</time>
      </trkpt>
      <trkpt lat="43.29732" lon="-1.43647">
        <ele>555.2</ele>
        <time>2022-08-30T11:12:19Z</time>
      </trkpt>
      <trkpt lat="43.29736" lon="-1.43646">
        <ele>555.1</ele>
        <time>2022-08-30T11:12:20Z</time>
      </trkpt>
      <trkpt lat="43.29737" lon="-1.43646">
        <ele>555.1</ele>
        <time>2022-08-30T11:12:21Z</time>
      </trkpt>
      <trkpt lat="43.2974" lon="-1.43645">
        <ele>555.1</ele>
        <time>2022-08-30T11:12:22Z</time>
      </trkpt>
      <trkpt lat="43.29743" lon="-1.43645">
        <ele>554.9</ele>
        <time>2022-08-30T11:12:23Z</time>
      </trkpt>
      <trkpt lat="43.29744" lon="-1.43645">
        <ele>554.9</ele>
        <time>2022-08-30T11:12:24Z</time>
      </trkpt>
      <trkpt lat="43.29747" lon="-1.43646">
        <ele>554.8</ele>
        <time>2022-08-30T11:12:25Z</time>
      </trkpt>
      <trkpt lat="43.29748" lon="-1.43646">
        <ele>554.8</ele>
        <time>2022-08-30T11:12:26Z</time>
      </trkpt>
      <trkpt lat="43.29751" lon="-1.43643">
        <ele>554.6</ele>
        <time>2022-08-30T11:12:27Z</time>
      </trkpt>
      <trkpt lat="43.29752" lon="-1.43642">
        <ele>554.6</ele>
        <time>2022-08-30T11:12:28Z</time>
      </trkpt>
      <trkpt lat="43.29754" lon="-1.43639">
        <ele>554.5</ele>
        <time>2022-08-30T11:12:29Z</time>
      </trkpt>
      <trkpt lat="43.29755" lon="-1.43638">
        <ele>554.4</ele>
        <time>2022-08-30T11:12:30Z</time>
      </trkpt>
      <trkpt lat="43.29756" lon="-1.43637">
        <ele>554.3</ele>
        <time>2022-08-30T11:12:31Z</time>
      </trkpt>
      <trkpt lat="43.29756" lon="-1.43637">
        <ele>554.3</ele>
        <time>2022-08-30T11:12:32Z</time>
      </trkpt>
      <trkpt lat="43.29757" lon="-1.43638">
        <ele>554.3</ele>
        <time>2022-08-30T11:12:33Z</time>
      </trkpt>
      <trkpt lat="43.29757" lon="-1.43637">
        <ele>554.3</ele>
        <time>2022-08-30T11:12:34Z</time>
      </trkpt>
      <trkpt lat="43.29758" lon="-1.43637">
        <ele>554.2</ele>
        <time>2022-08-30T11:12:35Z</time>
      </trkpt>
      <trkpt lat="43.29759" lon="-1.43636">
        <ele>554.2</ele>
        <time>2022-08-30T11:12:36Z</time>
      </trkpt>
      <trkpt lat="43.29759" lon="-1.43635">
        <ele>554.1</ele>
        <time>2022-08-30T11:12:37Z</time>
      </trkpt>
      <trkpt lat="43.2976" lon="-1.43633">
        <ele>554</ele>
        <time>2022-08-30T11:12:38Z</time>
      </trkpt>
      <trkpt lat="43.29761" lon="-1.43633">
        <ele>553.9</ele>
        <time>2022-08-30T11:12:39Z</time>
      </trkpt>
      <trkpt lat="43.29761" lon="-1.43633">
        <ele>553.9</ele>
        <time>2022-08-30T11:12:40Z</time>
      </trkpt>
      <trkpt lat="43.29762" lon="-1.43632">
        <ele>553.9</ele>
        <time>2022-08-30T11:12:41Z</time>
      </trkpt>
      <trkpt lat="43.29762" lon="-1.43632">
        <ele>553.9</ele>
        <time>2022-08-30T11:12:42Z</time>
      </trkpt>
      <trkpt lat="43.29762" lon="-1.43632">
        <ele>553.9</ele>
        <time>2022-08-30T11:12:43Z</time>
      </trkpt>
      <trkpt lat="43.29762" lon="-1.43632">
        <ele>553.9</ele>
        <time>2022-08-30T11:12:44Z</time>
      </trkpt>
      <trkpt lat="43.29762" lon="-1.43632">
        <ele>553.9</ele>
        <time>2022-08-30T11:12:45Z</time>
      </trkpt>
      <trkpt lat="43.29762" lon="-1.43632">
        <ele>553.9</ele>
        <time>2022-08-30T11:12:46Z</time>
      </trkpt>
      <trkpt lat="43.29763" lon="-1.43632">
        <ele>553.8</ele>
        <time>2022-08-30T11:12:47Z</time>
      </trkpt>
      <trkpt lat="43.29764" lon="-1.43633">
        <ele>553.7</ele>
        <time>2022-08-30T11:12:48Z</time>
      </trkpt>
      <trkpt lat="43.29765" lon="-1.43633">
        <ele>553.6</ele>
        <time>2022-08-30T11:12:49Z</time>
      </trkpt>
      <trkpt lat="43.29766" lon="-1.43634">
        <ele>553.5</ele>
        <time>2022-08-30T11:12:50Z</time>
      </trkpt>
      <trkpt lat="43.29767" lon="-1.43634">
        <ele>553.5</ele>
        <time>2022-08-30T11:12:51Z</time>
      </trkpt>
      <trkpt lat="43.29771" lon="-1.43635">
        <ele>553.1</ele>
        <time>2022-08-30T11:12:52Z</time>
      </trkpt>
      <trkpt lat="43.29772" lon="-1.43636">
        <ele>553</ele>
        <time>2022-08-30T11:12:53Z</time>
      </trkpt>
      <trkpt lat="43.29775" lon="-1.43637">
        <ele>552.8</ele>
        <time>2022-08-30T11:12:54Z</time>
      </trkpt>
      <trkpt lat="43.29779" lon="-1.43639">
        <ele>552.5</ele>
        <time>2022-08-30T11:12:55Z</time>
      </trkpt>
      <trkpt lat="43.2978" lon="-1.4364">
        <ele>552.4</ele>
        <time>2022-08-30T11:12:56Z</time>
      </trkpt>
      <trkpt lat="43.29781" lon="-1.43642">
        <ele>552.3</ele>
        <time>2022-08-30T11:12:57Z</time>
      </trkpt>
      <trkpt lat="43.29781" lon="-1.43644">
        <ele>552.2</ele>
        <time>2022-08-30T11:12:58Z</time>
      </trkpt>
      <trkpt lat="43.29784" lon="-1.43644">
        <ele>552</ele>
        <time>2022-08-30T11:12:59Z</time>
      </trkpt>
      <trkpt lat="43.29785" lon="-1.43644">
        <ele>551.9</ele>
        <time>2022-08-30T11:13:00Z</time>
      </trkpt>
      <trkpt lat="43.29789" lon="-1.43643">
        <ele>551.7</ele>
        <time>2022-08-30T11:13:01Z</time>
      </trkpt>
      <trkpt lat="43.29791" lon="-1.4364">
        <ele>551.5</ele>
        <time>2022-08-30T11:13:02Z</time>
      </trkpt>
      <trkpt lat="43.29794" lon="-1.43636">
        <ele>551.4</ele>
        <time>2022-08-30T11:13:03Z</time>
      </trkpt>
      <trkpt lat="43.29794" lon="-1.43635">
        <ele>551.3</ele>
        <time>2022-08-30T11:13:04Z</time>
      </trkpt>
      <trkpt lat="43.29795" lon="-1.43634">
        <ele>551.3</ele>
        <time>2022-08-30T11:13:05Z</time>
      </trkpt>
      <trkpt lat="43.29796" lon="-1.43633">
        <ele>551.3</ele>
        <time>2022-08-30T11:13:06Z</time>
      </trkpt>
      <trkpt lat="43.29796" lon="-1.43634">
        <ele>551.3</ele>
        <time>2022-08-30T11:13:07Z</time>
      </trkpt>
      <trkpt lat="43.29796" lon="-1.43634">
        <ele>551.3</ele>
        <time>2022-08-30T11:13:08Z</time>
      </trkpt>
      <trkpt lat="43.29796" lon="-1.43634">
        <ele>551.3</ele>
        <time>2022-08-30T11:13:09Z</time>
      </trkpt>
      <trkpt lat="43.29796" lon="-1.43634">
        <ele>551.3</ele>
        <time>2022-08-30T11:13:10Z</time>
      </trkpt>
      <trkpt lat="43.29796" lon="-1.43634">
        <ele>551.3</ele>
        <time>2022-08-30T11:13:11Z</time>
      </trkpt>
      <trkpt lat="43.29796" lon="-1.43634">
        <ele>551.3</ele>
        <time>2022-08-30T11:13:12Z</time>
      </trkpt>
      <trkpt lat="43.29796" lon="-1.43634">
        <ele>551.3</ele>
        <time>2022-08-30T11:13:13Z</time>
      </trkpt>
      <trkpt lat="43.29796" lon="-1.43634">
        <ele>551.3</ele>
        <time>2022-08-30T11:13:14Z</time>
      </trkpt>
      <trkpt lat="43.29797" lon="-1.43634">
        <ele>551.3</ele>
        <time>2022-08-30T11:13:15Z</time>
      </trkpt>
      <trkpt lat="43.29797" lon="-1.43634">
        <ele>551.3</ele>
        <time>2022-08-30T11:13:16Z</time>
      </trkpt>
      <trkpt lat="43.29798" lon="-1.43635">
        <ele>551.3</ele>
        <time>2022-08-30T11:13:17Z</time>
      </trkpt>
      <trkpt lat="43.29798" lon="-1.43635">
        <ele>551.3</ele>
        <time>2022-08-30T11:13:18Z</time>
      </trkpt>
      <trkpt lat="43.29798" lon="-1.43635">
        <ele>551.3</ele>
        <time>2022-08-30T11:13:19Z</time>
      </trkpt>
      <trkpt lat="43.29798" lon="-1.43635">
        <ele>551.3</ele>
        <time>2022-08-30T11:13:20Z</time>
      </trkpt>
      <trkpt lat="43.29798" lon="-1.43635">
        <ele>551.3</ele>
        <time>2022-08-30T11:13:21Z</time>
      </trkpt>
      <trkpt lat="43.29798" lon="-1.43635">
        <ele>551.3</ele>
        <time>2022-08-30T11:13:22Z</time>
      </trkpt>
      <trkpt lat="43.29798" lon="-1.43636">
        <ele>551.3</ele>
        <time>2022-08-30T11:13:23Z</time>
      </trkpt>
      <trkpt lat="43.29798" lon="-1.43636">
        <ele>551.3</ele>
        <time>2022-08-30T11:13:24Z</time>
      </trkpt>
      <trkpt lat="43.29798" lon="-1.43637">
        <ele>551.3</ele>
        <time>2022-08-30T11:13:25Z</time>
      </trkpt>
      <trkpt lat="43.29798" lon="-1.43638">
        <ele>551.3</ele>
        <time>2022-08-30T11:13:26Z</time>
      </trkpt>
      <trkpt lat="43.29799" lon="-1.43641">
        <ele>551.4</ele>
        <time>2022-08-30T11:13:27Z</time>
      </trkpt>
      <trkpt lat="43.298" lon="-1.43643">
        <ele>551.4</ele>
        <time>2022-08-30T11:13:40Z</time>
      </trkpt>
      <trkpt lat="43.29802" lon="-1.43646">
        <ele>551.5</ele>
        <time>2022-08-30T11:13:41Z</time>
      </trkpt>
      <trkpt lat="43.29803" lon="-1.43649">
        <ele>551.6</ele>
        <time>2022-08-30T11:13:42Z</time>
      </trkpt>
      <trkpt lat="43.29806" lon="-1.4365">
        <ele>551.7</ele>
        <time>2022-08-30T11:13:43Z</time>
      </trkpt>
      <trkpt lat="43.29808" lon="-1.43651">
        <ele>551.8</ele>
        <time>2022-08-30T11:13:44Z</time>
      </trkpt>
      <trkpt lat="43.29811" lon="-1.43651">
        <ele>551.9</ele>
        <time>2022-08-30T11:13:45Z</time>
      </trkpt>
      <trkpt lat="43.29812" lon="-1.43651">
        <ele>552</ele>
        <time>2022-08-30T11:13:46Z</time>
      </trkpt>
      <trkpt lat="43.29815" lon="-1.43653">
        <ele>552.1</ele>
        <time>2022-08-30T11:13:47Z</time>
      </trkpt>
      <trkpt lat="43.29816" lon="-1.43653">
        <ele>552.1</ele>
        <time>2022-08-30T11:13:48Z</time>
      </trkpt>
      <trkpt lat="43.29819" lon="-1.43655">
        <ele>552.2</ele>
        <time>2022-08-30T11:13:49Z</time>
      </trkpt>
      <trkpt lat="43.2982" lon="-1.43655">
        <ele>552.3</ele>
        <time>2022-08-30T11:13:50Z</time>
      </trkpt>
      <trkpt lat="43.29824" lon="-1.43655">
        <ele>552.4</ele>
        <time>2022-08-30T11:13:51Z</time>
      </trkpt>
      <trkpt lat="43.29825" lon="-1.43655">
        <ele>552.4</ele>
        <time>2022-08-30T11:13:52Z</time>
      </trkpt>
      <trkpt lat="43.29827" lon="-1.43655">
        <ele>552.5</ele>
        <time>2022-08-30T11:13:53Z</time>
      </trkpt>
      <trkpt lat="43.29829" lon="-1.43655">
        <ele>552.5</ele>
        <time>2022-08-30T11:13:54Z</time>
      </trkpt>
      <trkpt lat="43.2983" lon="-1.43655">
        <ele>552.6</ele>
        <time>2022-08-30T11:13:55Z</time>
      </trkpt>
      <trkpt lat="43.29831" lon="-1.43655">
        <ele>552.6</ele>
        <time>2022-08-30T11:13:56Z</time>
      </trkpt>
      <trkpt lat="43.29832" lon="-1.43655">
        <ele>552.6</ele>
        <time>2022-08-30T11:13:57Z</time>
      </trkpt>
      <trkpt lat="43.29832" lon="-1.43655">
        <ele>552.6</ele>
        <time>2022-08-30T11:13:58Z</time>
      </trkpt>
      <trkpt lat="43.29832" lon="-1.43655">
        <ele>552.6</ele>
        <time>2022-08-30T11:13:59Z</time>
      </trkpt>
      <trkpt lat="43.29832" lon="-1.43655">
        <ele>552.6</ele>
        <time>2022-08-30T11:14:00Z</time>
      </trkpt>
      <trkpt lat="43.29832" lon="-1.43655">
        <ele>552.6</ele>
        <time>2022-08-30T11:14:01Z</time>
      </trkpt>
      <trkpt lat="43.29832" lon="-1.43655">
        <ele>552.6</ele>
        <time>2022-08-30T11:14:02Z</time>
      </trkpt>
      <trkpt lat="43.29832" lon="-1.43655">
        <ele>552.6</ele>
        <time>2022-08-30T11:14:03Z</time>
      </trkpt>
      <trkpt lat="43.29833" lon="-1.43655">
        <ele>552.7</ele>
        <time>2022-08-30T11:14:04Z</time>
      </trkpt>
      <trkpt lat="43.29833" lon="-1.43655">
        <ele>552.7</ele>
        <time>2022-08-30T11:14:05Z</time>
      </trkpt>
      <trkpt lat="43.29834" lon="-1.43655">
        <ele>552.7</ele>
        <time>2022-08-30T11:14:06Z</time>
      </trkpt>
      <trkpt lat="43.29835" lon="-1.43656">
        <ele>552.7</ele>
        <time>2022-08-30T11:14:07Z</time>
      </trkpt>
      <trkpt lat="43.29836" lon="-1.43656">
        <ele>552.7</ele>
        <time>2022-08-30T11:14:08Z</time>
      </trkpt>
      <trkpt lat="43.29837" lon="-1.43656">
        <ele>552.7</ele>
        <time>2022-08-30T11:14:09Z</time>
      </trkpt>
      <trkpt lat="43.29837" lon="-1.43656">
        <ele>552.7</ele>
        <time>2022-08-30T11:14:10Z</time>
      </trkpt>
      <trkpt lat="43.29838" lon="-1.43657">
        <ele>552.7</ele>
        <time>2022-08-30T11:14:11Z</time>
      </trkpt>
      <trkpt lat="43.29838" lon="-1.43657">
        <ele>552.8</ele>
        <time>2022-08-30T11:14:12Z</time>
      </trkpt>
      <trkpt lat="43.2984" lon="-1.43657">
        <ele>552.8</ele>
        <time>2022-08-30T11:14:13Z</time>
      </trkpt>
      <trkpt lat="43.29842" lon="-1.43658">
        <ele>552.8</ele>
        <time>2022-08-30T11:14:14Z</time>
      </trkpt>
      <trkpt lat="43.29845" lon="-1.43658">
        <ele>552.9</ele>
        <time>2022-08-30T11:14:15Z</time>
      </trkpt>
      <trkpt lat="43.29846" lon="-1.43658">
        <ele>552.9</ele>
        <time>2022-08-30T11:14:16Z</time>
      </trkpt>
      <trkpt lat="43.29849" lon="-1.43658">
        <ele>553</ele>
        <time>2022-08-30T11:14:17Z</time>
      </trkpt>
      <trkpt lat="43.29852" lon="-1.43658">
        <ele>553</ele>
        <time>2022-08-30T11:14:18Z</time>
      </trkpt>
      <trkpt lat="43.29855" lon="-1.43657">
        <ele>553.1</ele>
        <time>2022-08-30T11:14:19Z</time>
      </trkpt>
      <trkpt lat="43.29858" lon="-1.43658">
        <ele>553.3</ele>
        <time>2022-08-30T11:14:20Z</time>
      </trkpt>
      <trkpt lat="43.2986" lon="-1.43658">
        <ele>553.4</ele>
        <time>2022-08-30T11:14:21Z</time>
      </trkpt>
      <trkpt lat="43.29863" lon="-1.4366">
        <ele>553.6</ele>
        <time>2022-08-30T11:14:22Z</time>
      </trkpt>
      <trkpt lat="43.29865" lon="-1.4366">
        <ele>553.7</ele>
        <time>2022-08-30T11:14:23Z</time>
      </trkpt>
      <trkpt lat="43.29868" lon="-1.4366">
        <ele>553.9</ele>
        <time>2022-08-30T11:14:24Z</time>
      </trkpt>
      <trkpt lat="43.29871" lon="-1.43661">
        <ele>554.2</ele>
        <time>2022-08-30T11:14:25Z</time>
      </trkpt>
      <trkpt lat="43.29873" lon="-1.43663">
        <ele>554.4</ele>
        <time>2022-08-30T11:14:26Z</time>
      </trkpt>
      <trkpt lat="43.29876" lon="-1.43666">
        <ele>554.8</ele>
        <time>2022-08-30T11:14:27Z</time>
      </trkpt>
      <trkpt lat="43.29878" lon="-1.43667">
        <ele>554.9</ele>
        <time>2022-08-30T11:14:28Z</time>
      </trkpt>
      <trkpt lat="43.29881" lon="-1.43669">
        <ele>555.3</ele>
        <time>2022-08-30T11:14:29Z</time>
      </trkpt>
      <trkpt lat="43.29883" lon="-1.43669">
        <ele>555.5</ele>
        <time>2022-08-30T11:14:30Z</time>
      </trkpt>
      <trkpt lat="43.29885" lon="-1.4367">
        <ele>555.8</ele>
        <time>2022-08-30T11:14:31Z</time>
      </trkpt>
      <trkpt lat="43.29889" lon="-1.4367">
        <ele>556.1</ele>
        <time>2022-08-30T11:14:32Z</time>
      </trkpt>
      <trkpt lat="43.2989" lon="-1.43671">
        <ele>556.3</ele>
        <time>2022-08-30T11:14:33Z</time>
      </trkpt>
      <trkpt lat="43.29894" lon="-1.43672">
        <ele>556.7</ele>
        <time>2022-08-30T11:14:34Z</time>
      </trkpt>
      <trkpt lat="43.29895" lon="-1.43672">
        <ele>556.8</ele>
        <time>2022-08-30T11:14:35Z</time>
      </trkpt>
      <trkpt lat="43.29899" lon="-1.43674">
        <ele>557.2</ele>
        <time>2022-08-30T11:14:36Z</time>
      </trkpt>
      <trkpt lat="43.299" lon="-1.43674">
        <ele>557.3</ele>
        <time>2022-08-30T11:14:37Z</time>
      </trkpt>
      <trkpt lat="43.29904" lon="-1.43675">
        <ele>557.7</ele>
        <time>2022-08-30T11:14:38Z</time>
      </trkpt>
      <trkpt lat="43.29905" lon="-1.43675">
        <ele>557.8</ele>
        <time>2022-08-30T11:14:39Z</time>
      </trkpt>
      <trkpt lat="43.29909" lon="-1.43673">
        <ele>558.1</ele>
        <time>2022-08-30T11:14:40Z</time>
      </trkpt>
      <trkpt lat="43.2991" lon="-1.43673">
        <ele>558.2</ele>
        <time>2022-08-30T11:14:41Z</time>
      </trkpt>
      <trkpt lat="43.29913" lon="-1.43673">
        <ele>558.5</ele>
        <time>2022-08-30T11:14:42Z</time>
      </trkpt>
      <trkpt lat="43.29914" lon="-1.43673">
        <ele>558.6</ele>
        <time>2022-08-30T11:14:43Z</time>
      </trkpt>
      <trkpt lat="43.29917" lon="-1.43674">
        <ele>558.8</ele>
        <time>2022-08-30T11:14:44Z</time>
      </trkpt>
      <trkpt lat="43.29918" lon="-1.43674">
        <ele>558.8</ele>
        <time>2022-08-30T11:14:45Z</time>
      </trkpt>
      <trkpt lat="43.29921" lon="-1.43675">
        <ele>559</ele>
        <time>2022-08-30T11:14:46Z</time>
      </trkpt>
      <trkpt lat="43.29923" lon="-1.43675">
        <ele>559</ele>
        <time>2022-08-30T11:14:47Z</time>
      </trkpt>
      <trkpt lat="43.29925" lon="-1.43677">
        <ele>559.1</ele>
        <time>2022-08-30T11:14:48Z</time>
      </trkpt>
      <trkpt lat="43.29929" lon="-1.43678">
        <ele>559.2</ele>
        <time>2022-08-30T11:14:49Z</time>
      </trkpt>
      <trkpt lat="43.29929" lon="-1.43679">
        <ele>559.3</ele>
        <time>2022-08-30T11:14:50Z</time>
      </trkpt>
      <trkpt lat="43.29932" lon="-1.43678">
        <ele>559.3</ele>
        <time>2022-08-30T11:14:51Z</time>
      </trkpt>
      <trkpt lat="43.29934" lon="-1.43679">
        <ele>559.3</ele>
        <time>2022-08-30T11:14:52Z</time>
      </trkpt>
      <trkpt lat="43.29938" lon="-1.4368">
        <ele>559.4</ele>
        <time>2022-08-30T11:14:53Z</time>
      </trkpt>
      <trkpt lat="43.29939" lon="-1.43681">
        <ele>559.4</ele>
        <time>2022-08-30T11:14:54Z</time>
      </trkpt>
      <trkpt lat="43.29942" lon="-1.43682">
        <ele>559.4</ele>
        <time>2022-08-30T11:14:55Z</time>
      </trkpt>
      <trkpt lat="43.29946" lon="-1.43684">
        <ele>559.5</ele>
        <time>2022-08-30T11:14:56Z</time>
      </trkpt>
      <trkpt lat="43.29947" lon="-1.43685">
        <ele>559.5</ele>
        <time>2022-08-30T11:14:57Z</time>
      </trkpt>
      <trkpt lat="43.2995" lon="-1.43686">
        <ele>559.6</ele>
        <time>2022-08-30T11:14:58Z</time>
      </trkpt>
      <trkpt lat="43.29952" lon="-1.43687">
        <ele>559.6</ele>
        <time>2022-08-30T11:14:59Z</time>
      </trkpt>
      <trkpt lat="43.29955" lon="-1.43688">
        <ele>559.7</ele>
        <time>2022-08-30T11:15:00Z</time>
      </trkpt>
      <trkpt lat="43.29958" lon="-1.43689">
        <ele>559.8</ele>
        <time>2022-08-30T11:15:01Z</time>
      </trkpt>
      <trkpt lat="43.29962" lon="-1.43689">
        <ele>560</ele>
        <time>2022-08-30T11:15:02Z</time>
      </trkpt>
      <trkpt lat="43.29963" lon="-1.43689">
        <ele>560</ele>
        <time>2022-08-30T11:15:03Z</time>
      </trkpt>
      <trkpt lat="43.29967" lon="-1.43689">
        <ele>560.2</ele>
        <time>2022-08-30T11:15:04Z</time>
      </trkpt>
      <trkpt lat="43.29968" lon="-1.43689">
        <ele>560.2</ele>
        <time>2022-08-30T11:15:05Z</time>
      </trkpt>
      <trkpt lat="43.29971" lon="-1.43689">
        <ele>560.3</ele>
        <time>2022-08-30T11:15:06Z</time>
      </trkpt>
      <trkpt lat="43.29974" lon="-1.4369">
        <ele>560.5</ele>
        <time>2022-08-30T11:15:07Z</time>
      </trkpt>
      <trkpt lat="43.29976" lon="-1.43693">
        <ele>560.6</ele>
        <time>2022-08-30T11:15:08Z</time>
      </trkpt>
      <trkpt lat="43.29978" lon="-1.43694">
        <ele>560.7</ele>
        <time>2022-08-30T11:15:09Z</time>
      </trkpt>
      <trkpt lat="43.29982" lon="-1.43695">
        <ele>560.8</ele>
        <time>2022-08-30T11:15:10Z</time>
      </trkpt>
      <trkpt lat="43.29983" lon="-1.43695">
        <ele>560.8</ele>
        <time>2022-08-30T11:15:11Z</time>
      </trkpt>
      <trkpt lat="43.29986" lon="-1.43696">
        <ele>560.9</ele>
        <time>2022-08-30T11:15:12Z</time>
      </trkpt>
      <trkpt lat="43.29987" lon="-1.43696">
        <ele>560.9</ele>
        <time>2022-08-30T11:15:13Z</time>
      </trkpt>
      <trkpt lat="43.29988" lon="-1.43696">
        <ele>561</ele>
        <time>2022-08-30T11:15:14Z</time>
      </trkpt>
      <trkpt lat="43.29989" lon="-1.43696">
        <ele>561</ele>
        <time>2022-08-30T11:15:15Z</time>
      </trkpt>
      <trkpt lat="43.29989" lon="-1.43696">
        <ele>561</ele>
        <time>2022-08-30T11:15:16Z</time>
      </trkpt>
      <trkpt lat="43.2999" lon="-1.43696">
        <ele>561</ele>
        <time>2022-08-30T11:15:17Z</time>
      </trkpt>
      <trkpt lat="43.2999" lon="-1.43696">
        <ele>561</ele>
        <time>2022-08-30T11:15:18Z</time>
      </trkpt>
      <trkpt lat="43.2999" lon="-1.43696">
        <ele>561</ele>
        <time>2022-08-30T11:15:19Z</time>
      </trkpt>
      <trkpt lat="43.29991" lon="-1.43696">
        <ele>561</ele>
        <time>2022-08-30T11:15:20Z</time>
      </trkpt>
      <trkpt lat="43.29991" lon="-1.43696">
        <ele>561.1</ele>
        <time>2022-08-30T11:15:21Z</time>
      </trkpt>
      <trkpt lat="43.29993" lon="-1.43696">
        <ele>561.1</ele>
        <time>2022-08-30T11:15:22Z</time>
      </trkpt>
      <trkpt lat="43.29993" lon="-1.43696">
        <ele>561.1</ele>
        <time>2022-08-30T11:15:23Z</time>
      </trkpt>
      <trkpt lat="43.29993" lon="-1.43696">
        <ele>561.1</ele>
        <time>2022-08-30T11:15:24Z</time>
      </trkpt>
      <trkpt lat="43.29994" lon="-1.43696">
        <ele>561.1</ele>
        <time>2022-08-30T11:15:25Z</time>
      </trkpt>
      <trkpt lat="43.29994" lon="-1.43695">
        <ele>561.1</ele>
        <time>2022-08-30T11:15:26Z</time>
      </trkpt>
      <trkpt lat="43.29994" lon="-1.43695">
        <ele>561.1</ele>
        <time>2022-08-30T11:15:27Z</time>
      </trkpt>
      <trkpt lat="43.29994" lon="-1.43695">
        <ele>561.1</ele>
        <time>2022-08-30T11:15:28Z</time>
      </trkpt>
      <trkpt lat="43.29995" lon="-1.43694">
        <ele>561.1</ele>
        <time>2022-08-30T11:15:29Z</time>
      </trkpt>
      <trkpt lat="43.29996" lon="-1.43694">
        <ele>561.2</ele>
        <time>2022-08-30T11:15:30Z</time>
      </trkpt>
      <trkpt lat="43.29996" lon="-1.43694">
        <ele>561.2</ele>
        <time>2022-08-30T11:15:31Z</time>
      </trkpt>
      <trkpt lat="43.29996" lon="-1.43694">
        <ele>561.2</ele>
        <time>2022-08-30T11:15:32Z</time>
      </trkpt>
      <trkpt lat="43.29997" lon="-1.43694">
        <ele>561.2</ele>
        <time>2022-08-30T11:15:33Z</time>
      </trkpt>
      <trkpt lat="43.29997" lon="-1.43694">
        <ele>561.2</ele>
        <time>2022-08-30T11:15:34Z</time>
      </trkpt>
      <trkpt lat="43.29997" lon="-1.43694">
        <ele>561.2</ele>
        <time>2022-08-30T11:15:35Z</time>
      </trkpt>
      <trkpt lat="43.29998" lon="-1.43694">
        <ele>561.2</ele>
        <time>2022-08-30T11:15:36Z</time>
      </trkpt>
      <trkpt lat="43.29998" lon="-1.43694">
        <ele>561.2</ele>
        <time>2022-08-30T11:15:37Z</time>
      </trkpt>
      <trkpt lat="43.29998" lon="-1.43694">
        <ele>561.2</ele>
        <time>2022-08-30T11:15:38Z</time>
      </trkpt>
      <trkpt lat="43.29998" lon="-1.43694">
        <ele>561.2</ele>
        <time>2022-08-30T11:15:39Z</time>
      </trkpt>
      <trkpt lat="43.29998" lon="-1.43694">
        <ele>561.2</ele>
        <time>2022-08-30T11:15:40Z</time>
      </trkpt>
      <trkpt lat="43.29998" lon="-1.43694">
        <ele>561.2</ele>
        <time>2022-08-30T11:15:41Z</time>
      </trkpt>
      <trkpt lat="43.29998" lon="-1.43694">
        <ele>561.2</ele>
        <time>2022-08-30T11:15:42Z</time>
      </trkpt>
      <trkpt lat="43.29998" lon="-1.43694">
        <ele>561.2</ele>
        <time>2022-08-30T11:15:43Z</time>
      </trkpt>
      <trkpt lat="43.29998" lon="-1.43694">
        <ele>561.2</ele>
        <time>2022-08-30T11:15:44Z</time>
      </trkpt>
      <trkpt lat="43.3" lon="-1.43695">
        <ele>561.3</ele>
        <time>2022-08-30T11:15:51Z</time>
      </trkpt>
      <trkpt lat="43.3" lon="-1.43696">
        <ele>561.3</ele>
        <time>2022-08-30T11:15:52Z</time>
      </trkpt>
      <trkpt lat="43.3" lon="-1.43697">
        <ele>561.3</ele>
        <time>2022-08-30T11:15:53Z</time>
      </trkpt>
      <trkpt lat="43.30001" lon="-1.43699">
        <ele>561.3</ele>
        <time>2022-08-30T11:15:54Z</time>
      </trkpt>
      <trkpt lat="43.30001" lon="-1.43703">
        <ele>561.4</ele>
        <time>2022-08-30T11:15:55Z</time>
      </trkpt>
      <trkpt lat="43.30002" lon="-1.43705">
        <ele>561.5</ele>
        <time>2022-08-30T11:15:56Z</time>
      </trkpt>
      <trkpt lat="43.30004" lon="-1.43709">
        <ele>561.6</ele>
        <time>2022-08-30T11:15:57Z</time>
      </trkpt>
      <trkpt lat="43.30005" lon="-1.4371">
        <ele>561.6</ele>
        <time>2022-08-30T11:15:58Z</time>
      </trkpt>
      <trkpt lat="43.30008" lon="-1.43713">
        <ele>561.8</ele>
        <time>2022-08-30T11:15:59Z</time>
      </trkpt>
      <trkpt lat="43.30009" lon="-1.43714">
        <ele>561.8</ele>
        <time>2022-08-30T11:16:00Z</time>
      </trkpt>
      <trkpt lat="43.30012" lon="-1.43717">
        <ele>562</ele>
        <time>2022-08-30T11:16:01Z</time>
      </trkpt>
      <trkpt lat="43.30014" lon="-1.43718">
        <ele>562</ele>
        <time>2022-08-30T11:16:02Z</time>
      </trkpt>
      <trkpt lat="43.30016" lon="-1.4372">
        <ele>562.2</ele>
        <time>2022-08-30T11:16:03Z</time>
      </trkpt>
      <trkpt lat="43.30018" lon="-1.43721">
        <ele>562.3</ele>
        <time>2022-08-30T11:16:04Z</time>
      </trkpt>
      <trkpt lat="43.30022" lon="-1.43723">
        <ele>562.5</ele>
        <time>2022-08-30T11:16:05Z</time>
      </trkpt>
      <trkpt lat="43.30023" lon="-1.43724">
        <ele>562.5</ele>
        <time>2022-08-30T11:16:06Z</time>
      </trkpt>
      <trkpt lat="43.30027" lon="-1.43725">
        <ele>562.7</ele>
        <time>2022-08-30T11:16:07Z</time>
      </trkpt>
      <trkpt lat="43.30028" lon="-1.43725">
        <ele>562.8</ele>
        <time>2022-08-30T11:16:08Z</time>
      </trkpt>
      <trkpt lat="43.30031" lon="-1.43726">
        <ele>563</ele>
        <time>2022-08-30T11:16:09Z</time>
      </trkpt>
      <trkpt lat="43.30034" lon="-1.43727">
        <ele>563.2</ele>
        <time>2022-08-30T11:16:10Z</time>
      </trkpt>
      <trkpt lat="43.30036" lon="-1.43727">
        <ele>563.3</ele>
        <time>2022-08-30T11:16:11Z</time>
      </trkpt>
      <trkpt lat="43.30039" lon="-1.43729">
        <ele>563.5</ele>
        <time>2022-08-30T11:16:12Z</time>
      </trkpt>
      <trkpt lat="43.30041" lon="-1.43729">
        <ele>563.6</ele>
        <time>2022-08-30T11:16:13Z</time>
      </trkpt>
      <trkpt lat="43.30043" lon="-1.43731">
        <ele>563.8</ele>
        <time>2022-08-30T11:16:14Z</time>
      </trkpt>
      <trkpt lat="43.30046" lon="-1.43732">
        <ele>564</ele>
        <time>2022-08-30T11:16:15Z</time>
      </trkpt>
      <trkpt lat="43.30049" lon="-1.43733">
        <ele>564.1</ele>
        <time>2022-08-30T11:16:16Z</time>
      </trkpt>
      <trkpt lat="43.30052" lon="-1.43733">
        <ele>564.3</ele>
        <time>2022-08-30T11:16:17Z</time>
      </trkpt>
      <trkpt lat="43.30054" lon="-1.43733">
        <ele>564.5</ele>
        <time>2022-08-30T11:16:18Z</time>
      </trkpt>
      <trkpt lat="43.30058" lon="-1.43735">
        <ele>564.7</ele>
        <time>2022-08-30T11:16:19Z</time>
      </trkpt>
      <trkpt lat="43.30059" lon="-1.43735">
        <ele>564.8</ele>
        <time>2022-08-30T11:16:20Z</time>
      </trkpt>
      <trkpt lat="43.30063" lon="-1.43737">
        <ele>565.1</ele>
        <time>2022-08-30T11:16:21Z</time>
      </trkpt>
      <trkpt lat="43.30064" lon="-1.43737">
        <ele>565.1</ele>
        <time>2022-08-30T11:16:22Z</time>
      </trkpt>
      <trkpt lat="43.30068" lon="-1.43737">
        <ele>565.4</ele>
        <time>2022-08-30T11:16:23Z</time>
      </trkpt>
      <trkpt lat="43.30069" lon="-1.43737">
        <ele>565.5</ele>
        <time>2022-08-30T11:16:24Z</time>
      </trkpt>
      <trkpt lat="43.30072" lon="-1.43738">
        <ele>565.7</ele>
        <time>2022-08-30T11:16:25Z</time>
      </trkpt>
      <trkpt lat="43.30073" lon="-1.43738">
        <ele>565.8</ele>
        <time>2022-08-30T11:16:26Z</time>
      </trkpt>
      <trkpt lat="43.30076" lon="-1.43738">
        <ele>566</ele>
        <time>2022-08-30T11:16:27Z</time>
      </trkpt>
      <trkpt lat="43.30077" lon="-1.43738">
        <ele>566.1</ele>
        <time>2022-08-30T11:16:28Z</time>
      </trkpt>
      <trkpt lat="43.30079" lon="-1.43738">
        <ele>566.2</ele>
        <time>2022-08-30T11:16:29Z</time>
      </trkpt>
      <trkpt lat="43.30081" lon="-1.43739">
        <ele>566.4</ele>
        <time>2022-08-30T11:16:30Z</time>
      </trkpt>
      <trkpt lat="43.30084" lon="-1.4374">
        <ele>566.7</ele>
        <time>2022-08-30T11:16:31Z</time>
      </trkpt>
      <trkpt lat="43.30086" lon="-1.4374">
        <ele>566.8</ele>
        <time>2022-08-30T11:16:32Z</time>
      </trkpt>
      <trkpt lat="43.30089" lon="-1.4374">
        <ele>567</ele>
        <time>2022-08-30T11:16:33Z</time>
      </trkpt>
      <trkpt lat="43.30091" lon="-1.4374">
        <ele>567.1</ele>
        <time>2022-08-30T11:16:34Z</time>
      </trkpt>
      <trkpt lat="43.30094" lon="-1.43739">
        <ele>567.3</ele>
        <time>2022-08-30T11:16:35Z</time>
      </trkpt>
      <trkpt lat="43.30095" lon="-1.43739">
        <ele>567.4</ele>
        <time>2022-08-30T11:16:36Z</time>
      </trkpt>
      <trkpt lat="43.30098" lon="-1.43739">
        <ele>567.6</ele>
        <time>2022-08-30T11:16:37Z</time>
      </trkpt>
      <trkpt lat="43.30099" lon="-1.43739">
        <ele>567.7</ele>
        <time>2022-08-30T11:16:38Z</time>
      </trkpt>
      <trkpt lat="43.30102" lon="-1.43739">
        <ele>567.8</ele>
        <time>2022-08-30T11:16:39Z</time>
      </trkpt>
      <trkpt lat="43.30103" lon="-1.43739">
        <ele>567.9</ele>
        <time>2022-08-30T11:16:40Z</time>
      </trkpt>
      <trkpt lat="43.30106" lon="-1.4374">
        <ele>568</ele>
        <time>2022-08-30T11:16:41Z</time>
      </trkpt>
      <trkpt lat="43.30107" lon="-1.43741">
        <ele>568.1</ele>
        <time>2022-08-30T11:16:42Z</time>
      </trkpt>
      <trkpt lat="43.3011" lon="-1.43742">
        <ele>568.2</ele>
        <time>2022-08-30T11:16:43Z</time>
      </trkpt>
      <trkpt lat="43.30111" lon="-1.43742">
        <ele>568.3</ele>
        <time>2022-08-30T11:16:44Z</time>
      </trkpt>
      <trkpt lat="43.30115" lon="-1.43742">
        <ele>568.4</ele>
        <time>2022-08-30T11:16:45Z</time>
      </trkpt>
      <trkpt lat="43.30116" lon="-1.43742">
        <ele>568.5</ele>
        <time>2022-08-30T11:16:46Z</time>
      </trkpt>
      <trkpt lat="43.30119" lon="-1.43741">
        <ele>568.6</ele>
        <time>2022-08-30T11:16:47Z</time>
      </trkpt>
      <trkpt lat="43.3012" lon="-1.43741">
        <ele>568.6</ele>
        <time>2022-08-30T11:16:48Z</time>
      </trkpt>
      <trkpt lat="43.30122" lon="-1.4374">
        <ele>568.6</ele>
        <time>2022-08-30T11:16:49Z</time>
      </trkpt>
      <trkpt lat="43.30123" lon="-1.4374">
        <ele>568.7</ele>
        <time>2022-08-30T11:16:50Z</time>
      </trkpt>
      <trkpt lat="43.30126" lon="-1.43741">
        <ele>568.7</ele>
        <time>2022-08-30T11:16:51Z</time>
      </trkpt>
      <trkpt lat="43.30127" lon="-1.43741">
        <ele>568.7</ele>
        <time>2022-08-30T11:16:52Z</time>
      </trkpt>
      <trkpt lat="43.3013" lon="-1.4374">
        <ele>568.8</ele>
        <time>2022-08-30T11:16:53Z</time>
      </trkpt>
      <trkpt lat="43.30131" lon="-1.4374">
        <ele>568.8</ele>
        <time>2022-08-30T11:16:54Z</time>
      </trkpt>
      <trkpt lat="43.30134" lon="-1.4374">
        <ele>568.8</ele>
        <time>2022-08-30T11:16:55Z</time>
      </trkpt>
      <trkpt lat="43.30138" lon="-1.43741">
        <ele>568.8</ele>
        <time>2022-08-30T11:16:56Z</time>
      </trkpt>
      <trkpt lat="43.30139" lon="-1.43741">
        <ele>568.8</ele>
        <time>2022-08-30T11:16:57Z</time>
      </trkpt>
      <trkpt lat="43.30143" lon="-1.43741">
        <ele>568.8</ele>
        <time>2022-08-30T11:16:58Z</time>
      </trkpt>
      <trkpt lat="43.30144" lon="-1.43741">
        <ele>568.7</ele>
        <time>2022-08-30T11:16:59Z</time>
      </trkpt>
      <trkpt lat="43.30147" lon="-1.43741">
        <ele>568.7</ele>
        <time>2022-08-30T11:17:00Z</time>
      </trkpt>
      <trkpt lat="43.3015" lon="-1.43741">
        <ele>568.6</ele>
        <time>2022-08-30T11:17:01Z</time>
      </trkpt>
      <trkpt lat="43.30151" lon="-1.43741">
        <ele>568.6</ele>
        <time>2022-08-30T11:17:02Z</time>
      </trkpt>
      <trkpt lat="43.30152" lon="-1.43742">
        <ele>568.5</ele>
        <time>2022-08-30T11:17:03Z</time>
      </trkpt>
      <trkpt lat="43.30153" lon="-1.43742">
        <ele>568.5</ele>
        <time>2022-08-30T11:17:04Z</time>
      </trkpt>
      <trkpt lat="43.30153" lon="-1.43742">
        <ele>568.5</ele>
        <time>2022-08-30T11:17:05Z</time>
      </trkpt>
      <trkpt lat="43.30154" lon="-1.43742">
        <ele>568.5</ele>
        <time>2022-08-30T11:17:06Z</time>
      </trkpt>
      <trkpt lat="43.30154" lon="-1.43742">
        <ele>568.5</ele>
        <time>2022-08-30T11:17:07Z</time>
      </trkpt>
      <trkpt lat="43.30155" lon="-1.43742">
        <ele>568.4</ele>
        <time>2022-08-30T11:17:08Z</time>
      </trkpt>
      <trkpt lat="43.30155" lon="-1.43742">
        <ele>568.4</ele>
        <time>2022-08-30T11:17:09Z</time>
      </trkpt>
      <trkpt lat="43.30156" lon="-1.43742">
        <ele>568.4</ele>
        <time>2022-08-30T11:17:10Z</time>
      </trkpt>
      <trkpt lat="43.30156" lon="-1.43742">
        <ele>568.4</ele>
        <time>2022-08-30T11:17:11Z</time>
      </trkpt>
      <trkpt lat="43.30157" lon="-1.43742">
        <ele>568.4</ele>
        <time>2022-08-30T11:17:12Z</time>
      </trkpt>
      <trkpt lat="43.30157" lon="-1.43742">
        <ele>568.3</ele>
        <time>2022-08-30T11:17:13Z</time>
      </trkpt>
      <trkpt lat="43.30158" lon="-1.43742">
        <ele>568.3</ele>
        <time>2022-08-30T11:17:14Z</time>
      </trkpt>
      <trkpt lat="43.30158" lon="-1.43742">
        <ele>568.3</ele>
        <time>2022-08-30T11:17:15Z</time>
      </trkpt>
      <trkpt lat="43.30159" lon="-1.43742">
        <ele>568.3</ele>
        <time>2022-08-30T11:17:28Z</time>
      </trkpt>
      <trkpt lat="43.30159" lon="-1.43742">
        <ele>568.3</ele>
        <time>2022-08-30T11:17:29Z</time>
      </trkpt>
      <trkpt lat="43.30159" lon="-1.43742">
        <ele>568.2</ele>
        <time>2022-08-30T11:17:30Z</time>
      </trkpt>
      <trkpt lat="43.30163" lon="-1.43742">
        <ele>568.1</ele>
        <time>2022-08-30T11:17:31Z</time>
      </trkpt>
      <trkpt lat="43.30166" lon="-1.43743">
        <ele>567.9</ele>
        <time>2022-08-30T11:17:32Z</time>
      </trkpt>
      <trkpt lat="43.3017" lon="-1.43743">
        <ele>567.7</ele>
        <time>2022-08-30T11:17:33Z</time>
      </trkpt>
      <trkpt lat="43.30174" lon="-1.43743">
        <ele>567.6</ele>
        <time>2022-08-30T11:17:34Z</time>
      </trkpt>
      <trkpt lat="43.30178" lon="-1.43742">
        <ele>567.4</ele>
        <time>2022-08-30T11:17:35Z</time>
      </trkpt>
      <trkpt lat="43.30182" lon="-1.43742">
        <ele>567.3</ele>
        <time>2022-08-30T11:17:36Z</time>
      </trkpt>
      <trkpt lat="43.30185" lon="-1.4374">
        <ele>567.1</ele>
        <time>2022-08-30T11:17:37Z</time>
      </trkpt>
      <trkpt lat="43.30189" lon="-1.43739">
        <ele>567</ele>
        <time>2022-08-30T11:17:38Z</time>
      </trkpt>
      <trkpt lat="43.30193" lon="-1.43738">
        <ele>567</ele>
        <time>2022-08-30T11:17:39Z</time>
      </trkpt>
      <trkpt lat="43.30196" lon="-1.43736">
        <ele>566.9</ele>
        <time>2022-08-30T11:17:40Z</time>
      </trkpt>
      <trkpt lat="43.30198" lon="-1.43734">
        <ele>566.8</ele>
        <time>2022-08-30T11:17:41Z</time>
      </trkpt>
      <trkpt lat="43.30201" lon="-1.43731">
        <ele>566.7</ele>
        <time>2022-08-30T11:17:42Z</time>
      </trkpt>
      <trkpt lat="43.30201" lon="-1.4373">
        <ele>566.7</ele>
        <time>2022-08-30T11:17:43Z</time>
      </trkpt>
      <trkpt lat="43.30204" lon="-1.4373">
        <ele>566.6</ele>
        <time>2022-08-30T11:17:44Z</time>
      </trkpt>
      <trkpt lat="43.30205" lon="-1.4373">
        <ele>566.6</ele>
        <time>2022-08-30T11:17:45Z</time>
      </trkpt>
      <trkpt lat="43.30208" lon="-1.43729">
        <ele>566.5</ele>
        <time>2022-08-30T11:17:46Z</time>
      </trkpt>
      <trkpt lat="43.3021" lon="-1.43727">
        <ele>566.5</ele>
        <time>2022-08-30T11:17:47Z</time>
      </trkpt>
      <trkpt lat="43.30213" lon="-1.43724">
        <ele>566.4</ele>
        <time>2022-08-30T11:17:48Z</time>
      </trkpt>
      <trkpt lat="43.30215" lon="-1.43722">
        <ele>566.3</ele>
        <time>2022-08-30T11:17:49Z</time>
      </trkpt>
      <trkpt lat="43.30219" lon="-1.43721">
        <ele>566.2</ele>
        <time>2022-08-30T11:17:50Z</time>
      </trkpt>
      <trkpt lat="43.30222" lon="-1.43719">
        <ele>566.2</ele>
        <time>2022-08-30T11:17:51Z</time>
      </trkpt>
      <trkpt lat="43.30225" lon="-1.43718">
        <ele>566.1</ele>
        <time>2022-08-30T11:17:52Z</time>
      </trkpt>
      <trkpt lat="43.30227" lon="-1.43716">
        <ele>566.1</ele>
        <time>2022-08-30T11:17:53Z</time>
      </trkpt>
      <trkpt lat="43.30231" lon="-1.43714">
        <ele>566.1</ele>
        <time>2022-08-30T11:17:54Z</time>
      </trkpt>
      <trkpt lat="43.30232" lon="-1.43713">
        <ele>566.1</ele>
        <time>2022-08-30T11:17:55Z</time>
      </trkpt>
      <trkpt lat="43.30235" lon="-1.43711">
        <ele>566.1</ele>
        <time>2022-08-30T11:17:56Z</time>
      </trkpt>
      <trkpt lat="43.30236" lon="-1.4371">
        <ele>566.1</ele>
        <time>2022-08-30T11:17:57Z</time>
      </trkpt>
      <trkpt lat="43.30239" lon="-1.43708">
        <ele>566</ele>
        <time>2022-08-30T11:17:58Z</time>
      </trkpt>
      <trkpt lat="43.30242" lon="-1.43706">
        <ele>566</ele>
        <time>2022-08-30T11:17:59Z</time>
      </trkpt>
      <trkpt lat="43.30244" lon="-1.43705">
        <ele>566</ele>
        <time>2022-08-30T11:18:00Z</time>
      </trkpt>
      <trkpt lat="43.30246" lon="-1.43702">
        <ele>566</ele>
        <time>2022-08-30T11:18:01Z</time>
      </trkpt>
      <trkpt lat="43.30247" lon="-1.43701">
        <ele>566</ele>
        <time>2022-08-30T11:18:02Z</time>
      </trkpt>
      <trkpt lat="43.30249" lon="-1.43699">
        <ele>566</ele>
        <time>2022-08-30T11:18:03Z</time>
      </trkpt>
      <trkpt lat="43.3025" lon="-1.43698">
        <ele>566</ele>
        <time>2022-08-30T11:18:04Z</time>
      </trkpt>
      <trkpt lat="43.30254" lon="-1.43696">
        <ele>566.1</ele>
        <time>2022-08-30T11:18:05Z</time>
      </trkpt>
      <trkpt lat="43.30255" lon="-1.43695">
        <ele>566.1</ele>
        <time>2022-08-30T11:18:06Z</time>
      </trkpt>
      <trkpt lat="43.30258" lon="-1.43694">
        <ele>566.1</ele>
        <time>2022-08-30T11:18:07Z</time>
      </trkpt>
      <trkpt lat="43.30261" lon="-1.43693">
        <ele>566.2</ele>
        <time>2022-08-30T11:18:08Z</time>
      </trkpt>
      <trkpt lat="43.30263" lon="-1.43691">
        <ele>566.2</ele>
        <time>2022-08-30T11:18:09Z</time>
      </trkpt>
      <trkpt lat="43.30267" lon="-1.43688">
        <ele>566.3</ele>
        <time>2022-08-30T11:18:10Z</time>
      </trkpt>
      <trkpt lat="43.30268" lon="-1.43687">
        <ele>566.3</ele>
        <time>2022-08-30T11:18:11Z</time>
      </trkpt>
      <trkpt lat="43.3027" lon="-1.43685">
        <ele>566.3</ele>
        <time>2022-08-30T11:18:12Z</time>
      </trkpt>
      <trkpt lat="43.30273" lon="-1.43681">
        <ele>566.3</ele>
        <time>2022-08-30T11:18:13Z</time>
      </trkpt>
      <trkpt lat="43.30273" lon="-1.4368">
        <ele>566.3</ele>
        <time>2022-08-30T11:18:14Z</time>
      </trkpt>
      <trkpt lat="43.30277" lon="-1.43677">
        <ele>566.4</ele>
        <time>2022-08-30T11:18:15Z</time>
      </trkpt>
      <trkpt lat="43.30278" lon="-1.43676">
        <ele>566.3</ele>
        <time>2022-08-30T11:18:16Z</time>
      </trkpt>
      <trkpt lat="43.30281" lon="-1.43675">
        <ele>566.3</ele>
        <time>2022-08-30T11:18:17Z</time>
      </trkpt>
      <trkpt lat="43.30284" lon="-1.43676">
        <ele>566.3</ele>
        <time>2022-08-30T11:18:18Z</time>
      </trkpt>
      <trkpt lat="43.30285" lon="-1.43677">
        <ele>566.2</ele>
        <time>2022-08-30T11:18:19Z</time>
      </trkpt>
      <trkpt lat="43.30289" lon="-1.43677">
        <ele>566.1</ele>
        <time>2022-08-30T11:18:20Z</time>
      </trkpt>
      <trkpt lat="43.3029" lon="-1.43676">
        <ele>566.1</ele>
        <time>2022-08-30T11:18:21Z</time>
      </trkpt>
      <trkpt lat="43.30293" lon="-1.43675">
        <ele>566</ele>
        <time>2022-08-30T11:18:22Z</time>
      </trkpt>
      <trkpt lat="43.30297" lon="-1.43673">
        <ele>565.9</ele>
        <time>2022-08-30T11:18:23Z</time>
      </trkpt>
      <trkpt lat="43.30298" lon="-1.43672">
        <ele>565.9</ele>
        <time>2022-08-30T11:18:24Z</time>
      </trkpt>
      <trkpt lat="43.30301" lon="-1.43671">
        <ele>565.8</ele>
        <time>2022-08-30T11:18:25Z</time>
      </trkpt>
      <trkpt lat="43.30304" lon="-1.4367">
        <ele>565.7</ele>
        <time>2022-08-30T11:18:26Z</time>
      </trkpt>
      <trkpt lat="43.30307" lon="-1.4367">
        <ele>565.6</ele>
        <time>2022-08-30T11:18:27Z</time>
      </trkpt>
      <trkpt lat="43.30308" lon="-1.4367">
        <ele>565.6</ele>
        <time>2022-08-30T11:18:28Z</time>
      </trkpt>
      <trkpt lat="43.30312" lon="-1.43669">
        <ele>565.4</ele>
        <time>2022-08-30T11:18:29Z</time>
      </trkpt>
      <trkpt lat="43.30314" lon="-1.43669">
        <ele>565.4</ele>
        <time>2022-08-30T11:18:30Z</time>
      </trkpt>
      <trkpt lat="43.30317" lon="-1.43669">
        <ele>565.3</ele>
        <time>2022-08-30T11:18:31Z</time>
      </trkpt>
      <trkpt lat="43.30321" lon="-1.43668">
        <ele>565.2</ele>
        <time>2022-08-30T11:18:32Z</time>
      </trkpt>
      <trkpt lat="43.30325" lon="-1.43668">
        <ele>565.2</ele>
        <time>2022-08-30T11:18:33Z</time>
      </trkpt>
      <trkpt lat="43.30328" lon="-1.43667">
        <ele>565.2</ele>
        <time>2022-08-30T11:18:34Z</time>
      </trkpt>
      <trkpt lat="43.30331" lon="-1.43665">
        <ele>565.2</ele>
        <time>2022-08-30T11:18:35Z</time>
      </trkpt>
      <trkpt lat="43.30332" lon="-1.43664">
        <ele>565.2</ele>
        <time>2022-08-30T11:18:36Z</time>
      </trkpt>
      <trkpt lat="43.30334" lon="-1.43661">
        <ele>565.2</ele>
        <time>2022-08-30T11:18:37Z</time>
      </trkpt>
      <trkpt lat="43.30335" lon="-1.4366">
        <ele>565.2</ele>
        <time>2022-08-30T11:18:38Z</time>
      </trkpt>
      <trkpt lat="43.30336" lon="-1.43658">
        <ele>565.2</ele>
        <time>2022-08-30T11:18:39Z</time>
      </trkpt>
      <trkpt lat="43.30337" lon="-1.43656">
        <ele>565.2</ele>
        <time>2022-08-30T11:18:40Z</time>
      </trkpt>
      <trkpt lat="43.30339" lon="-1.43652">
        <ele>565.3</ele>
        <time>2022-08-30T11:18:41Z</time>
      </trkpt>
      <trkpt lat="43.3034" lon="-1.43651">
        <ele>565.3</ele>
        <time>2022-08-30T11:18:42Z</time>
      </trkpt>
      <trkpt lat="43.3034" lon="-1.4365">
        <ele>565.3</ele>
        <time>2022-08-30T11:18:43Z</time>
      </trkpt>
      <trkpt lat="43.3034" lon="-1.4365">
        <ele>565.3</ele>
        <time>2022-08-30T11:18:44Z</time>
      </trkpt>
      <trkpt lat="43.3034" lon="-1.4365">
        <ele>565.3</ele>
        <time>2022-08-30T11:18:45Z</time>
      </trkpt>
      <trkpt lat="43.3034" lon="-1.4365">
        <ele>565.3</ele>
        <time>2022-08-30T11:18:46Z</time>
      </trkpt>
      <trkpt lat="43.30341" lon="-1.43649">
        <ele>565.3</ele>
        <time>2022-08-30T11:18:47Z</time>
      </trkpt>
      <trkpt lat="43.30342" lon="-1.43648">
        <ele>565.3</ele>
        <time>2022-08-30T11:18:48Z</time>
      </trkpt>
      <trkpt lat="43.30343" lon="-1.43648">
        <ele>565.3</ele>
        <time>2022-08-30T11:18:49Z</time>
      </trkpt>
      <trkpt lat="43.30343" lon="-1.43648">
        <ele>565.3</ele>
        <time>2022-08-30T11:18:50Z</time>
      </trkpt>
      <trkpt lat="43.30343" lon="-1.43648">
        <ele>565.3</ele>
        <time>2022-08-30T11:18:51Z</time>
      </trkpt>
      <trkpt lat="43.30343" lon="-1.43648">
        <ele>565.3</ele>
        <time>2022-08-30T11:18:52Z</time>
      </trkpt>
      <trkpt lat="43.30343" lon="-1.43648">
        <ele>565.3</ele>
        <time>2022-08-30T11:18:53Z</time>
      </trkpt>
      <trkpt lat="43.30343" lon="-1.43648">
        <ele>565.3</ele>
        <time>2022-08-30T11:18:54Z</time>
      </trkpt>
      <trkpt lat="43.30343" lon="-1.43648">
        <ele>565.3</ele>
        <time>2022-08-30T11:18:55Z</time>
      </trkpt>
      <trkpt lat="43.30343" lon="-1.43648">
        <ele>565.3</ele>
        <time>2022-08-30T11:18:56Z</time>
      </trkpt>
      <trkpt lat="43.30343" lon="-1.43648">
        <ele>565.3</ele>
        <time>2022-08-30T11:18:57Z</time>
      </trkpt>
      <trkpt lat="43.30343" lon="-1.43648">
        <ele>565.3</ele>
        <time>2022-08-30T11:18:58Z</time>
      </trkpt>
      <trkpt lat="43.30343" lon="-1.43648">
        <ele>565.3</ele>
        <time>2022-08-30T11:18:59Z</time>
      </trkpt>
      <trkpt lat="43.30343" lon="-1.43648">
        <ele>565.3</ele>
        <time>2022-08-30T11:19:00Z</time>
      </trkpt>
      <trkpt lat="43.30346" lon="-1.43648">
        <ele>565.2</ele>
        <time>2022-08-30T11:19:08Z</time>
      </trkpt>
      <trkpt lat="43.30346" lon="-1.43648">
        <ele>565.2</ele>
        <time>2022-08-30T11:19:09Z</time>
      </trkpt>
      <trkpt lat="43.30347" lon="-1.43648">
        <ele>565.2</ele>
        <time>2022-08-30T11:19:10Z</time>
      </trkpt>
      <trkpt lat="43.30347" lon="-1.43649">
        <ele>565.2</ele>
        <time>2022-08-30T11:19:11Z</time>
      </trkpt>
      <trkpt lat="43.30348" lon="-1.43649">
        <ele>565.1</ele>
        <time>2022-08-30T11:19:12Z</time>
      </trkpt>
      <trkpt lat="43.30349" lon="-1.43649">
        <ele>565.1</ele>
        <time>2022-08-30T11:19:13Z</time>
      </trkpt>
      <trkpt lat="43.3035" lon="-1.43649">
        <ele>565.1</ele>
        <time>2022-08-30T11:19:14Z</time>
      </trkpt>
      <trkpt lat="43.30351" lon="-1.43648">
        <ele>565</ele>
        <time>2022-08-30T11:19:15Z</time>
      </trkpt>
      <trkpt lat="43.30351" lon="-1.43648">
        <ele>565</ele>
        <time>2022-08-30T11:19:16Z</time>
      </trkpt>
      <trkpt lat="43.30352" lon="-1.43648">
        <ele>565</ele>
        <time>2022-08-30T11:19:17Z</time>
      </trkpt>
      <trkpt lat="43.30353" lon="-1.43648">
        <ele>564.9</ele>
        <time>2022-08-30T11:19:18Z</time>
      </trkpt>
      <trkpt lat="43.30354" lon="-1.43647">
        <ele>564.8</ele>
        <time>2022-08-30T11:19:19Z</time>
      </trkpt>
      <trkpt lat="43.30357" lon="-1.43646">
        <ele>564.5</ele>
        <time>2022-08-30T11:19:20Z</time>
      </trkpt>
      <trkpt lat="43.30359" lon="-1.43646">
        <ele>564.4</ele>
        <time>2022-08-30T11:19:21Z</time>
      </trkpt>
      <trkpt lat="43.30362" lon="-1.43645">
        <ele>564</ele>
        <time>2022-08-30T11:19:22Z</time>
      </trkpt>
      <trkpt lat="43.30366" lon="-1.43645">
        <ele>563.6</ele>
        <time>2022-08-30T11:19:23Z</time>
      </trkpt>
      <trkpt lat="43.3037" lon="-1.43645">
        <ele>563.3</ele>
        <time>2022-08-30T11:19:24Z</time>
      </trkpt>
      <trkpt lat="43.30373" lon="-1.43644">
        <ele>563</ele>
        <time>2022-08-30T11:19:25Z</time>
      </trkpt>
      <trkpt lat="43.30376" lon="-1.43643">
        <ele>562.7</ele>
        <time>2022-08-30T11:19:26Z</time>
      </trkpt>
      <trkpt lat="43.30379" lon="-1.43642">
        <ele>562.6</ele>
        <time>2022-08-30T11:19:27Z</time>
      </trkpt>
      <trkpt lat="43.30382" lon="-1.4364">
        <ele>562.3</ele>
        <time>2022-08-30T11:19:28Z</time>
      </trkpt>
      <trkpt lat="43.30383" lon="-1.4364">
        <ele>562.3</ele>
        <time>2022-08-30T11:19:29Z</time>
      </trkpt>
      <trkpt lat="43.30386" lon="-1.43639">
        <ele>562.1</ele>
        <time>2022-08-30T11:19:30Z</time>
      </trkpt>
      <trkpt lat="43.30388" lon="-1.43639">
        <ele>562</ele>
        <time>2022-08-30T11:19:31Z</time>
      </trkpt>
      <trkpt lat="43.30391" lon="-1.43637">
        <ele>561.8</ele>
        <time>2022-08-30T11:19:32Z</time>
      </trkpt>
      <trkpt lat="43.30392" lon="-1.43636">
        <ele>561.7</ele>
        <time>2022-08-30T11:19:33Z</time>
      </trkpt>
      <trkpt lat="43.30395" lon="-1.43633">
        <ele>561.6</ele>
        <time>2022-08-30T11:19:34Z</time>
      </trkpt>
      <trkpt lat="43.30397" lon="-1.43632">
        <ele>561.5</ele>
        <time>2022-08-30T11:19:35Z</time>
      </trkpt>
      <trkpt lat="43.30401" lon="-1.4363">
        <ele>561.4</ele>
        <time>2022-08-30T11:19:36Z</time>
      </trkpt>
      <trkpt lat="43.30402" lon="-1.43629">
        <ele>561.4</ele>
        <time>2022-08-30T11:19:37Z</time>
      </trkpt>
      <trkpt lat="43.30404" lon="-1.43627">
        <ele>561.3</ele>
        <time>2022-08-30T11:19:38Z</time>
      </trkpt>
      <trkpt lat="43.30406" lon="-1.43624">
        <ele>561.2</ele>
        <time>2022-08-30T11:19:39Z</time>
      </trkpt>
      <trkpt lat="43.30409" lon="-1.43621">
        <ele>561.1</ele>
        <time>2022-08-30T11:19:40Z</time>
      </trkpt>
      <trkpt lat="43.30412" lon="-1.43619">
        <ele>561.1</ele>
        <time>2022-08-30T11:19:41Z</time>
      </trkpt>
      <trkpt lat="43.30414" lon="-1.43616">
        <ele>561</ele>
        <time>2022-08-30T11:19:42Z</time>
      </trkpt>
      <trkpt lat="43.30416" lon="-1.43614">
        <ele>560.9</ele>
        <time>2022-08-30T11:19:43Z</time>
      </trkpt>
      <trkpt lat="43.30419" lon="-1.43611">
        <ele>560.8</ele>
        <time>2022-08-30T11:19:44Z</time>
      </trkpt>
      <trkpt lat="43.30421" lon="-1.4361">
        <ele>560.8</ele>
        <time>2022-08-30T11:19:45Z</time>
      </trkpt>
      <trkpt lat="43.30424" lon="-1.43608">
        <ele>560.6</ele>
        <time>2022-08-30T11:19:46Z</time>
      </trkpt>
      <trkpt lat="43.30426" lon="-1.43607">
        <ele>560.5</ele>
        <time>2022-08-30T11:19:47Z</time>
      </trkpt>
      <trkpt lat="43.30429" lon="-1.43605">
        <ele>560.3</ele>
        <time>2022-08-30T11:19:48Z</time>
      </trkpt>
      <trkpt lat="43.3043" lon="-1.43605">
        <ele>560.3</ele>
        <time>2022-08-30T11:19:49Z</time>
      </trkpt>
      <trkpt lat="43.30433" lon="-1.43604">
        <ele>560.1</ele>
        <time>2022-08-30T11:19:50Z</time>
      </trkpt>
      <trkpt lat="43.30437" lon="-1.43602">
        <ele>559.8</ele>
        <time>2022-08-30T11:19:51Z</time>
      </trkpt>
      <trkpt lat="43.30438" lon="-1.43601">
        <ele>559.7</ele>
        <time>2022-08-30T11:19:52Z</time>
      </trkpt>
      <trkpt lat="43.3044" lon="-1.436">
        <ele>559.6</ele>
        <time>2022-08-30T11:19:53Z</time>
      </trkpt>
      <trkpt lat="43.30441" lon="-1.43598">
        <ele>559.5</ele>
        <time>2022-08-30T11:19:54Z</time>
      </trkpt>
      <trkpt lat="43.30441" lon="-1.43598">
        <ele>559.4</ele>
        <time>2022-08-30T11:19:55Z</time>
      </trkpt>
      <trkpt lat="43.30441" lon="-1.43598">
        <ele>559.4</ele>
        <time>2022-08-30T11:19:56Z</time>
      </trkpt>
      <trkpt lat="43.30441" lon="-1.43598">
        <ele>559.4</ele>
        <time>2022-08-30T11:19:57Z</time>
      </trkpt>
      <trkpt lat="43.30441" lon="-1.43598">
        <ele>559.4</ele>
        <time>2022-08-30T11:19:58Z</time>
      </trkpt>
      <trkpt lat="43.30441" lon="-1.43598">
        <ele>559.4</ele>
        <time>2022-08-30T11:19:59Z</time>
      </trkpt>
      <trkpt lat="43.30441" lon="-1.43598">
        <ele>559.4</ele>
        <time>2022-08-30T11:20:00Z</time>
      </trkpt>
      <trkpt lat="43.30442" lon="-1.43597">
        <ele>559.4</ele>
        <time>2022-08-30T11:20:01Z</time>
      </trkpt>
      <trkpt lat="43.30442" lon="-1.43596">
        <ele>559.3</ele>
        <time>2022-08-30T11:20:02Z</time>
      </trkpt>
      <trkpt lat="43.30442" lon="-1.43596">
        <ele>559.3</ele>
        <time>2022-08-30T11:20:03Z</time>
      </trkpt>
      <trkpt lat="43.30442" lon="-1.43596">
        <ele>559.3</ele>
        <time>2022-08-30T11:20:04Z</time>
      </trkpt>
      <trkpt lat="43.30442" lon="-1.43596">
        <ele>559.3</ele>
        <time>2022-08-30T11:20:05Z</time>
      </trkpt>
      <trkpt lat="43.30442" lon="-1.43595">
        <ele>559.3</ele>
        <time>2022-08-30T11:20:06Z</time>
      </trkpt>
      <trkpt lat="43.30442" lon="-1.43594">
        <ele>559.2</ele>
        <time>2022-08-30T11:20:07Z</time>
      </trkpt>
      <trkpt lat="43.30442" lon="-1.43594">
        <ele>559.2</ele>
        <time>2022-08-30T11:20:08Z</time>
      </trkpt>
      <trkpt lat="43.30442" lon="-1.43594">
        <ele>559.2</ele>
        <time>2022-08-30T11:20:09Z</time>
      </trkpt>
      <trkpt lat="43.30442" lon="-1.43594">
        <ele>559.2</ele>
        <time>2022-08-30T11:20:10Z</time>
      </trkpt>
      <trkpt lat="43.30442" lon="-1.43594">
        <ele>559.2</ele>
        <time>2022-08-30T11:20:11Z</time>
      </trkpt>
      <trkpt lat="43.30442" lon="-1.43594">
        <ele>559.2</ele>
        <time>2022-08-30T11:20:12Z</time>
      </trkpt>
      <trkpt lat="43.30442" lon="-1.43594">
        <ele>559.2</ele>
        <time>2022-08-30T11:20:13Z</time>
      </trkpt>
      <trkpt lat="43.30442" lon="-1.43594">
        <ele>559.2</ele>
        <time>2022-08-30T11:20:14Z</time>
      </trkpt>
      <trkpt lat="43.30442" lon="-1.43593">
        <ele>559.2</ele>
        <time>2022-08-30T11:20:15Z</time>
      </trkpt>
      <trkpt lat="43.30443" lon="-1.43592">
        <ele>559.2</ele>
        <time>2022-08-30T11:20:16Z</time>
      </trkpt>
      <trkpt lat="43.30443" lon="-1.43591">
        <ele>559.2</ele>
        <time>2022-08-30T11:20:17Z</time>
      </trkpt>
      <trkpt lat="43.30444" lon="-1.43591">
        <ele>559.2</ele>
        <time>2022-08-30T11:20:18Z</time>
      </trkpt>
      <trkpt lat="43.30444" lon="-1.43591">
        <ele>559.2</ele>
        <time>2022-08-30T11:20:19Z</time>
      </trkpt>
      <trkpt lat="43.30444" lon="-1.43591">
        <ele>559.2</ele>
        <time>2022-08-30T11:20:20Z</time>
      </trkpt>
      <trkpt lat="43.30444" lon="-1.43592">
        <ele>559.2</ele>
        <time>2022-08-30T11:20:21Z</time>
      </trkpt>
      <trkpt lat="43.30444" lon="-1.43592">
        <ele>559.2</ele>
        <time>2022-08-30T11:20:22Z</time>
      </trkpt>
      <trkpt lat="43.30444" lon="-1.43592">
        <ele>559.2</ele>
        <time>2022-08-30T11:20:23Z</time>
      </trkpt>
      <trkpt lat="43.30444" lon="-1.43591">
        <ele>559.2</ele>
        <time>2022-08-30T11:20:24Z</time>
      </trkpt>
      <trkpt lat="43.30444" lon="-1.43591">
        <ele>559.2</ele>
        <time>2022-08-30T11:20:25Z</time>
      </trkpt>
      <trkpt lat="43.30444" lon="-1.43591">
        <ele>559.2</ele>
        <time>2022-08-30T11:20:26Z</time>
      </trkpt>
      <trkpt lat="43.30444" lon="-1.43591">
        <ele>559.2</ele>
        <time>2022-08-30T11:20:27Z</time>
      </trkpt>
      <trkpt lat="43.30444" lon="-1.43591">
        <ele>559.2</ele>
        <time>2022-08-30T11:20:28Z</time>
      </trkpt>
      <trkpt lat="43.30444" lon="-1.43591">
        <ele>559.2</ele>
        <time>2022-08-30T11:20:29Z</time>
      </trkpt>
      <trkpt lat="43.30444" lon="-1.43591">
        <ele>559.2</ele>
        <time>2022-08-30T11:20:30Z</time>
      </trkpt>
      <trkpt lat="43.30447" lon="-1.43589">
        <ele>559.2</ele>
        <time>2022-08-30T11:20:39Z</time>
      </trkpt>
      <trkpt lat="43.3045" lon="-1.43588">
        <ele>559.4</ele>
        <time>2022-08-30T11:20:40Z</time>
      </trkpt>
      <trkpt lat="43.30452" lon="-1.43586">
        <ele>559.5</ele>
        <time>2022-08-30T11:20:41Z</time>
      </trkpt>
      <trkpt lat="43.30452" lon="-1.43586">
        <ele>559.5</ele>
        <time>2022-08-30T11:20:42Z</time>
      </trkpt>
      <trkpt lat="43.30452" lon="-1.43585">
        <ele>559.5</ele>
        <time>2022-08-30T11:20:43Z</time>
      </trkpt>
      <trkpt lat="43.30453" lon="-1.43585">
        <ele>559.6</ele>
        <time>2022-08-30T11:20:44Z</time>
      </trkpt>
      <trkpt lat="43.30453" lon="-1.43585">
        <ele>559.6</ele>
        <time>2022-08-30T11:20:45Z</time>
      </trkpt>
      <trkpt lat="43.30453" lon="-1.43584">
        <ele>559.6</ele>
        <time>2022-08-30T11:20:46Z</time>
      </trkpt>
      <trkpt lat="43.30453" lon="-1.43584">
        <ele>559.6</ele>
        <time>2022-08-30T11:20:47Z</time>
      </trkpt>
      <trkpt lat="43.30453" lon="-1.43584">
        <ele>559.7</ele>
        <time>2022-08-30T11:20:48Z</time>
      </trkpt>
      <trkpt lat="43.30454" lon="-1.43583">
        <ele>559.7</ele>
        <time>2022-08-30T11:20:49Z</time>
      </trkpt>
      <trkpt lat="43.30454" lon="-1.43583">
        <ele>559.7</ele>
        <time>2022-08-30T11:20:50Z</time>
      </trkpt>
      <trkpt lat="43.30454" lon="-1.43583">
        <ele>559.7</ele>
        <time>2022-08-30T11:20:51Z</time>
      </trkpt>
      <trkpt lat="43.30454" lon="-1.43582">
        <ele>559.7</ele>
        <time>2022-08-30T11:20:52Z</time>
      </trkpt>
      <trkpt lat="43.30454" lon="-1.43582">
        <ele>559.8</ele>
        <time>2022-08-30T11:20:53Z</time>
      </trkpt>
      <trkpt lat="43.30455" lon="-1.43582">
        <ele>559.8</ele>
        <time>2022-08-30T11:20:54Z</time>
      </trkpt>
      <trkpt lat="43.30456" lon="-1.43578">
        <ele>560</ele>
        <time>2022-08-30T11:20:55Z</time>
      </trkpt>
      <trkpt lat="43.30456" lon="-1.43577">
        <ele>560.1</ele>
        <time>2022-08-30T11:20:56Z</time>
      </trkpt>
      <trkpt lat="43.30458" lon="-1.43572">
        <ele>560.5</ele>
        <time>2022-08-30T11:20:57Z</time>
      </trkpt>
      <trkpt lat="43.30458" lon="-1.4357">
        <ele>560.6</ele>
        <time>2022-08-30T11:20:58Z</time>
      </trkpt>
      <trkpt lat="43.30459" lon="-1.43566">
        <ele>560.9</ele>
        <time>2022-08-30T11:20:59Z</time>
      </trkpt>
      <trkpt lat="43.30459" lon="-1.43564">
        <ele>561</ele>
        <time>2022-08-30T11:21:00Z</time>
      </trkpt>
      <trkpt lat="43.3046" lon="-1.4356">
        <ele>561.2</ele>
        <time>2022-08-30T11:21:01Z</time>
      </trkpt>
      <trkpt lat="43.3046" lon="-1.43559">
        <ele>561.3</ele>
        <time>2022-08-30T11:21:02Z</time>
      </trkpt>
      <trkpt lat="43.30459" lon="-1.43555">
        <ele>561.6</ele>
        <time>2022-08-30T11:21:03Z</time>
      </trkpt>
      <trkpt lat="43.30459" lon="-1.43554">
        <ele>561.6</ele>
        <time>2022-08-30T11:21:04Z</time>
      </trkpt>
      <trkpt lat="43.3046" lon="-1.43551">
        <ele>561.8</ele>
        <time>2022-08-30T11:21:05Z</time>
      </trkpt>
      <trkpt lat="43.3046" lon="-1.43549">
        <ele>561.9</ele>
        <time>2022-08-30T11:21:06Z</time>
      </trkpt>
      <trkpt lat="43.30463" lon="-1.43547">
        <ele>562.1</ele>
        <time>2022-08-30T11:21:07Z</time>
      </trkpt>
      <trkpt lat="43.30464" lon="-1.43547">
        <ele>562.2</ele>
        <time>2022-08-30T11:21:08Z</time>
      </trkpt>
      <trkpt lat="43.30467" lon="-1.43546">
        <ele>562.4</ele>
        <time>2022-08-30T11:21:09Z</time>
      </trkpt>
      <trkpt lat="43.3047" lon="-1.43546">
        <ele>562.5</ele>
        <time>2022-08-30T11:21:10Z</time>
      </trkpt>
      <trkpt lat="43.30473" lon="-1.43545">
        <ele>562.7</ele>
        <time>2022-08-30T11:21:11Z</time>
      </trkpt>
      <trkpt lat="43.30474" lon="-1.43545">
        <ele>562.7</ele>
        <time>2022-08-30T11:21:12Z</time>
      </trkpt>
      <trkpt lat="43.30477" lon="-1.43543">
        <ele>562.9</ele>
        <time>2022-08-30T11:21:13Z</time>
      </trkpt>
      <trkpt lat="43.30478" lon="-1.43543">
        <ele>562.9</ele>
        <time>2022-08-30T11:21:14Z</time>
      </trkpt>
      <trkpt lat="43.3048" lon="-1.43542">
        <ele>563</ele>
        <time>2022-08-30T11:21:15Z</time>
      </trkpt>
      <trkpt lat="43.30481" lon="-1.43541">
        <ele>563</ele>
        <time>2022-08-30T11:21:16Z</time>
      </trkpt>
      <trkpt lat="43.30482" lon="-1.43541">
        <ele>563.1</ele>
        <time>2022-08-30T11:21:17Z</time>
      </trkpt>
      <trkpt lat="43.30482" lon="-1.4354">
        <ele>563.1</ele>
        <time>2022-08-30T11:21:18Z</time>
      </trkpt>
      <trkpt lat="43.30482" lon="-1.43541">
        <ele>563.1</ele>
        <time>2022-08-30T11:21:19Z</time>
      </trkpt>
      <trkpt lat="43.30482" lon="-1.43541">
        <ele>563.1</ele>
        <time>2022-08-30T11:21:20Z</time>
      </trkpt>
      <trkpt lat="43.30482" lon="-1.43541">
        <ele>563.1</ele>
        <time>2022-08-30T11:21:21Z</time>
      </trkpt>
      <trkpt lat="43.30481" lon="-1.43541">
        <ele>563.1</ele>
        <time>2022-08-30T11:21:22Z</time>
      </trkpt>
      <trkpt lat="43.30482" lon="-1.43541">
        <ele>563.1</ele>
        <time>2022-08-30T11:21:23Z</time>
      </trkpt>
      <trkpt lat="43.30483" lon="-1.43541">
        <ele>563.2</ele>
        <time>2022-08-30T11:21:24Z</time>
      </trkpt>
      <trkpt lat="43.30484" lon="-1.43542">
        <ele>563.3</ele>
        <time>2022-08-30T11:21:25Z</time>
      </trkpt>
      <trkpt lat="43.30487" lon="-1.43543">
        <ele>563.4</ele>
        <time>2022-08-30T11:21:26Z</time>
      </trkpt>
      <trkpt lat="43.30488" lon="-1.43543">
        <ele>563.4</ele>
        <time>2022-08-30T11:21:27Z</time>
      </trkpt>
      <trkpt lat="43.30491" lon="-1.43542">
        <ele>563.5</ele>
        <time>2022-08-30T11:21:28Z</time>
      </trkpt>
      <trkpt lat="43.30492" lon="-1.43542">
        <ele>563.6</ele>
        <time>2022-08-30T11:21:29Z</time>
      </trkpt>
      <trkpt lat="43.30496" lon="-1.43542">
        <ele>563.7</ele>
        <time>2022-08-30T11:21:30Z</time>
      </trkpt>
      <trkpt lat="43.30497" lon="-1.43542">
        <ele>563.7</ele>
        <time>2022-08-30T11:21:31Z</time>
      </trkpt>
      <trkpt lat="43.305" lon="-1.43541">
        <ele>563.8</ele>
        <time>2022-08-30T11:21:32Z</time>
      </trkpt>
      <trkpt lat="43.30503" lon="-1.4354">
        <ele>563.8</ele>
        <time>2022-08-30T11:21:33Z</time>
      </trkpt>
      <trkpt lat="43.30507" lon="-1.43538">
        <ele>563.7</ele>
        <time>2022-08-30T11:21:34Z</time>
      </trkpt>
      <trkpt lat="43.30508" lon="-1.43537">
        <ele>563.7</ele>
        <time>2022-08-30T11:21:35Z</time>
      </trkpt>
      <trkpt lat="43.30512" lon="-1.43535">
        <ele>563.6</ele>
        <time>2022-08-30T11:21:36Z</time>
      </trkpt>
      <trkpt lat="43.30513" lon="-1.43534">
        <ele>563.6</ele>
        <time>2022-08-30T11:21:37Z</time>
      </trkpt>
      <trkpt lat="43.30516" lon="-1.43534">
        <ele>563.5</ele>
        <time>2022-08-30T11:21:38Z</time>
      </trkpt>
      <trkpt lat="43.30519" lon="-1.43533">
        <ele>563.4</ele>
        <time>2022-08-30T11:21:39Z</time>
      </trkpt>
      <trkpt lat="43.30522" lon="-1.43532">
        <ele>563.3</ele>
        <time>2022-08-30T11:21:40Z</time>
      </trkpt>
      <trkpt lat="43.30523" lon="-1.43531">
        <ele>563.3</ele>
        <time>2022-08-30T11:21:41Z</time>
      </trkpt>
      <trkpt lat="43.30527" lon="-1.43529">
        <ele>563.2</ele>
        <time>2022-08-30T11:21:42Z</time>
      </trkpt>
      <trkpt lat="43.30528" lon="-1.43528">
        <ele>563.1</ele>
        <time>2022-08-30T11:21:43Z</time>
      </trkpt>
      <trkpt lat="43.3053" lon="-1.43527">
        <ele>563.1</ele>
        <time>2022-08-30T11:21:44Z</time>
      </trkpt>
      <trkpt lat="43.30531" lon="-1.43526">
        <ele>563.1</ele>
        <time>2022-08-30T11:21:45Z</time>
      </trkpt>
      <trkpt lat="43.30532" lon="-1.43526">
        <ele>563</ele>
        <time>2022-08-30T11:21:46Z</time>
      </trkpt>
      <trkpt lat="43.30533" lon="-1.43526">
        <ele>563</ele>
        <time>2022-08-30T11:21:47Z</time>
      </trkpt>
      <trkpt lat="43.30533" lon="-1.43525">
        <ele>563</ele>
        <time>2022-08-30T11:21:48Z</time>
      </trkpt>
      <trkpt lat="43.30533" lon="-1.43525">
        <ele>563</ele>
        <time>2022-08-30T11:21:49Z</time>
      </trkpt>
      <trkpt lat="43.30533" lon="-1.43525">
        <ele>563</ele>
        <time>2022-08-30T11:21:50Z</time>
      </trkpt>
      <trkpt lat="43.30533" lon="-1.43525">
        <ele>563</ele>
        <time>2022-08-30T11:21:51Z</time>
      </trkpt>
      <trkpt lat="43.30534" lon="-1.43525">
        <ele>563</ele>
        <time>2022-08-30T11:21:52Z</time>
      </trkpt>
      <trkpt lat="43.30535" lon="-1.43526">
        <ele>563</ele>
        <time>2022-08-30T11:21:53Z</time>
      </trkpt>
      <trkpt lat="43.30536" lon="-1.43527">
        <ele>562.9</ele>
        <time>2022-08-30T11:21:54Z</time>
      </trkpt>
      <trkpt lat="43.30536" lon="-1.43527">
        <ele>562.9</ele>
        <time>2022-08-30T11:21:55Z</time>
      </trkpt>
      <trkpt lat="43.30537" lon="-1.43527">
        <ele>562.9</ele>
        <time>2022-08-30T11:21:56Z</time>
      </trkpt>
      <trkpt lat="43.30537" lon="-1.43527">
        <ele>562.9</ele>
        <time>2022-08-30T11:21:57Z</time>
      </trkpt>
      <trkpt lat="43.30538" lon="-1.43527">
        <ele>562.9</ele>
        <time>2022-08-30T11:21:58Z</time>
      </trkpt>
      <trkpt lat="43.30538" lon="-1.43527">
        <ele>562.9</ele>
        <time>2022-08-30T11:21:59Z</time>
      </trkpt>
      <trkpt lat="43.30538" lon="-1.43527">
        <ele>562.9</ele>
        <time>2022-08-30T11:22:00Z</time>
      </trkpt>
      <trkpt lat="43.30538" lon="-1.43527">
        <ele>562.9</ele>
        <time>2022-08-30T11:22:01Z</time>
      </trkpt>
      <trkpt lat="43.30539" lon="-1.43528">
        <ele>562.9</ele>
        <time>2022-08-30T11:22:02Z</time>
      </trkpt>
      <trkpt lat="43.30539" lon="-1.43528">
        <ele>562.9</ele>
        <time>2022-08-30T11:22:03Z</time>
      </trkpt>
      <trkpt lat="43.30539" lon="-1.43528">
        <ele>562.9</ele>
        <time>2022-08-30T11:22:04Z</time>
      </trkpt>
      <trkpt lat="43.30539" lon="-1.43528">
        <ele>562.9</ele>
        <time>2022-08-30T11:22:05Z</time>
      </trkpt>
      <trkpt lat="43.3054" lon="-1.43528">
        <ele>562.9</ele>
        <time>2022-08-30T11:22:06Z</time>
      </trkpt>
      <trkpt lat="43.3054" lon="-1.43528">
        <ele>562.9</ele>
        <time>2022-08-30T11:22:07Z</time>
      </trkpt>
      <trkpt lat="43.3054" lon="-1.43528">
        <ele>562.9</ele>
        <time>2022-08-30T11:22:08Z</time>
      </trkpt>
      <trkpt lat="43.30543" lon="-1.43528">
        <ele>562.9</ele>
        <time>2022-08-30T11:22:09Z</time>
      </trkpt>
      <trkpt lat="43.30544" lon="-1.43528">
        <ele>562.9</ele>
        <time>2022-08-30T11:22:10Z</time>
      </trkpt>
      <trkpt lat="43.30546" lon="-1.43528">
        <ele>562.9</ele>
        <time>2022-08-30T11:22:11Z</time>
      </trkpt>
      <trkpt lat="43.30547" lon="-1.43526">
        <ele>562.9</ele>
        <time>2022-08-30T11:22:12Z</time>
      </trkpt>
      <trkpt lat="43.3055" lon="-1.43523">
        <ele>562.9</ele>
        <time>2022-08-30T11:22:13Z</time>
      </trkpt>
      <trkpt lat="43.3055" lon="-1.43522">
        <ele>563</ele>
        <time>2022-08-30T11:22:14Z</time>
      </trkpt>
      <trkpt lat="43.30552" lon="-1.43519">
        <ele>563</ele>
        <time>2022-08-30T11:22:15Z</time>
      </trkpt>
      <trkpt lat="43.30553" lon="-1.43518">
        <ele>563</ele>
        <time>2022-08-30T11:22:16Z</time>
      </trkpt>
      <trkpt lat="43.30555" lon="-1.43514">
        <ele>563.1</ele>
        <time>2022-08-30T11:22:17Z</time>
      </trkpt>
      <trkpt lat="43.30556" lon="-1.43513">
        <ele>563.1</ele>
        <time>2022-08-30T11:22:18Z</time>
      </trkpt>
      <trkpt lat="43.30559" lon="-1.43511">
        <ele>563.1</ele>
        <time>2022-08-30T11:22:19Z</time>
      </trkpt>
      <trkpt lat="43.3056" lon="-1.4351">
        <ele>563.1</ele>
        <time>2022-08-30T11:22:20Z</time>
      </trkpt>
      <trkpt lat="43.30564" lon="-1.43508">
        <ele>563.1</ele>
        <time>2022-08-30T11:22:21Z</time>
      </trkpt>
      <trkpt lat="43.30565" lon="-1.43508">
        <ele>563.1</ele>
        <time>2022-08-30T11:22:22Z</time>
      </trkpt>
      <trkpt lat="43.30569" lon="-1.43506">
        <ele>563.1</ele>
        <time>2022-08-30T11:22:23Z</time>
      </trkpt>
      <trkpt lat="43.3057" lon="-1.43505">
        <ele>563.1</ele>
        <time>2022-08-30T11:22:24Z</time>
      </trkpt>
      <trkpt lat="43.30573" lon="-1.43503">
        <ele>563</ele>
        <time>2022-08-30T11:22:25Z</time>
      </trkpt>
      <trkpt lat="43.30576" lon="-1.43501">
        <ele>563</ele>
        <time>2022-08-30T11:22:26Z</time>
      </trkpt>
      <trkpt lat="43.30578" lon="-1.43499">
        <ele>562.9</ele>
        <time>2022-08-30T11:22:27Z</time>
      </trkpt>
      <trkpt lat="43.30581" lon="-1.43496">
        <ele>562.8</ele>
        <time>2022-08-30T11:22:28Z</time>
      </trkpt>
      <trkpt lat="43.30584" lon="-1.43494">
        <ele>562.8</ele>
        <time>2022-08-30T11:22:29Z</time>
      </trkpt>
      <trkpt lat="43.30587" lon="-1.43492">
        <ele>562.7</ele>
        <time>2022-08-30T11:22:30Z</time>
      </trkpt>
      <trkpt lat="43.30588" lon="-1.43491">
        <ele>562.6</ele>
        <time>2022-08-30T11:22:31Z</time>
      </trkpt>
      <trkpt lat="43.30592" lon="-1.43489">
        <ele>562.5</ele>
        <time>2022-08-30T11:22:32Z</time>
      </trkpt>
      <trkpt lat="43.30593" lon="-1.43488">
        <ele>562.5</ele>
        <time>2022-08-30T11:22:33Z</time>
      </trkpt>
      <trkpt lat="43.30595" lon="-1.43485">
        <ele>562.4</ele>
        <time>2022-08-30T11:22:34Z</time>
      </trkpt>
      <trkpt lat="43.30599" lon="-1.43483">
        <ele>562.4</ele>
        <time>2022-08-30T11:22:35Z</time>
      </trkpt>
      <trkpt lat="43.306" lon="-1.43483">
        <ele>562.4</ele>
        <time>2022-08-30T11:22:36Z</time>
      </trkpt>
      <trkpt lat="43.30602" lon="-1.43481">
        <ele>562.3</ele>
        <time>2022-08-30T11:22:37Z</time>
      </trkpt>
      <trkpt lat="43.30603" lon="-1.4348">
        <ele>562.3</ele>
        <time>2022-08-30T11:22:38Z</time>
      </trkpt>
      <trkpt lat="43.30606" lon="-1.43479">
        <ele>562.2</ele>
        <time>2022-08-30T11:22:39Z</time>
      </trkpt>
      <trkpt lat="43.30607" lon="-1.43478">
        <ele>562.2</ele>
        <time>2022-08-30T11:22:40Z</time>
      </trkpt>
      <trkpt lat="43.30611" lon="-1.43477">
        <ele>562.2</ele>
        <time>2022-08-30T11:22:41Z</time>
      </trkpt>
      <trkpt lat="43.30612" lon="-1.43476">
        <ele>562.2</ele>
        <time>2022-08-30T11:22:42Z</time>
      </trkpt>
      <trkpt lat="43.30615" lon="-1.43474">
        <ele>562.1</ele>
        <time>2022-08-30T11:22:43Z</time>
      </trkpt>
      <trkpt lat="43.30616" lon="-1.43474">
        <ele>562.1</ele>
        <time>2022-08-30T11:22:44Z</time>
      </trkpt>
      <trkpt lat="43.30618" lon="-1.43472">
        <ele>562</ele>
        <time>2022-08-30T11:22:45Z</time>
      </trkpt>
      <trkpt lat="43.30619" lon="-1.43472">
        <ele>562</ele>
        <time>2022-08-30T11:22:46Z</time>
      </trkpt>
      <trkpt lat="43.30622" lon="-1.4347">
        <ele>561.9</ele>
        <time>2022-08-30T11:22:47Z</time>
      </trkpt>
      <trkpt lat="43.30623" lon="-1.43469">
        <ele>561.9</ele>
        <time>2022-08-30T11:22:48Z</time>
      </trkpt>
      <trkpt lat="43.30626" lon="-1.43468">
        <ele>561.7</ele>
        <time>2022-08-30T11:22:49Z</time>
      </trkpt>
      <trkpt lat="43.30627" lon="-1.43467">
        <ele>561.7</ele>
        <time>2022-08-30T11:22:50Z</time>
      </trkpt>
      <trkpt lat="43.30631" lon="-1.43465">
        <ele>561.5</ele>
        <time>2022-08-30T11:22:51Z</time>
      </trkpt>
      <trkpt lat="43.30632" lon="-1.43465">
        <ele>561.5</ele>
        <time>2022-08-30T11:22:52Z</time>
      </trkpt>
      <trkpt lat="43.30635" lon="-1.43464">
        <ele>561.3</ele>
        <time>2022-08-30T11:22:53Z</time>
      </trkpt>
      <trkpt lat="43.30638" lon="-1.43462">
        <ele>561.1</ele>
        <time>2022-08-30T11:22:54Z</time>
      </trkpt>
      <trkpt lat="43.30641" lon="-1.43462">
        <ele>560.8</ele>
        <time>2022-08-30T11:22:55Z</time>
      </trkpt>
      <trkpt lat="43.30643" lon="-1.43462">
        <ele>560.7</ele>
        <time>2022-08-30T11:22:56Z</time>
      </trkpt>
      <trkpt lat="43.30646" lon="-1.43464">
        <ele>560.5</ele>
        <time>2022-08-30T11:22:57Z</time>
      </trkpt>
      <trkpt lat="43.30647" lon="-1.43465">
        <ele>560.4</ele>
        <time>2022-08-30T11:22:58Z</time>
      </trkpt>
      <trkpt lat="43.3065" lon="-1.43468">
        <ele>560</ele>
        <time>2022-08-30T11:22:59Z</time>
      </trkpt>
      <trkpt lat="43.30652" lon="-1.43469">
        <ele>559.8</ele>
        <time>2022-08-30T11:23:00Z</time>
      </trkpt>
      <trkpt lat="43.30654" lon="-1.43472">
        <ele>559.5</ele>
        <time>2022-08-30T11:23:01Z</time>
      </trkpt>
      <trkpt lat="43.30658" lon="-1.43473">
        <ele>559.2</ele>
        <time>2022-08-30T11:23:02Z</time>
      </trkpt>
      <trkpt lat="43.30661" lon="-1.43474">
        <ele>558.8</ele>
        <time>2022-08-30T11:23:03Z</time>
      </trkpt>
      <trkpt lat="43.30664" lon="-1.43475">
        <ele>558.6</ele>
        <time>2022-08-30T11:23:04Z</time>
      </trkpt>
      <trkpt lat="43.30667" lon="-1.43477">
        <ele>558.2</ele>
        <time>2022-08-30T11:23:05Z</time>
      </trkpt>
      <trkpt lat="43.30668" lon="-1.43477">
        <ele>558.1</ele>
        <time>2022-08-30T11:23:06Z</time>
      </trkpt>
      <trkpt lat="43.3067" lon="-1.43478">
        <ele>558</ele>
        <time>2022-08-30T11:23:07Z</time>
      </trkpt>
      <trkpt lat="43.30672" lon="-1.43478">
        <ele>557.8</ele>
        <time>2022-08-30T11:23:08Z</time>
      </trkpt>
      <trkpt lat="43.30674" lon="-1.43477">
        <ele>557.6</ele>
        <time>2022-08-30T11:23:09Z</time>
      </trkpt>
      <trkpt lat="43.30675" lon="-1.43477">
        <ele>557.5</ele>
        <time>2022-08-30T11:23:10Z</time>
      </trkpt>
      <trkpt lat="43.30677" lon="-1.43477">
        <ele>557.3</ele>
        <time>2022-08-30T11:23:11Z</time>
      </trkpt>
      <trkpt lat="43.30678" lon="-1.43477">
        <ele>557.2</ele>
        <time>2022-08-30T11:23:12Z</time>
      </trkpt>
      <trkpt lat="43.3068" lon="-1.43477">
        <ele>557.1</ele>
        <time>2022-08-30T11:23:13Z</time>
      </trkpt>
      <trkpt lat="43.30682" lon="-1.43477">
        <ele>556.9</ele>
        <time>2022-08-30T11:23:14Z</time>
      </trkpt>
      <trkpt lat="43.30684" lon="-1.43475">
        <ele>556.7</ele>
        <time>2022-08-30T11:23:15Z</time>
      </trkpt>
      <trkpt lat="43.30685" lon="-1.43474">
        <ele>556.5</ele>
        <time>2022-08-30T11:23:16Z</time>
      </trkpt>
      <trkpt lat="43.30688" lon="-1.43472">
        <ele>556.3</ele>
        <time>2022-08-30T11:23:17Z</time>
      </trkpt>
      <trkpt lat="43.3069" lon="-1.4347">
        <ele>556</ele>
        <time>2022-08-30T11:23:18Z</time>
      </trkpt>
      <trkpt lat="43.30693" lon="-1.43469">
        <ele>555.7</ele>
        <time>2022-08-30T11:23:19Z</time>
      </trkpt>
      <trkpt lat="43.30696" lon="-1.43469">
        <ele>555.4</ele>
        <time>2022-08-30T11:23:20Z</time>
      </trkpt>
      <trkpt lat="43.30699" lon="-1.43468">
        <ele>555.1</ele>
        <time>2022-08-30T11:23:21Z</time>
      </trkpt>
      <trkpt lat="43.30703" lon="-1.43467">
        <ele>554.7</ele>
        <time>2022-08-30T11:23:22Z</time>
      </trkpt>
      <trkpt lat="43.30706" lon="-1.43466">
        <ele>554.3</ele>
        <time>2022-08-30T11:23:23Z</time>
      </trkpt>
      <trkpt lat="43.30709" lon="-1.43466">
        <ele>553.9</ele>
        <time>2022-08-30T11:23:24Z</time>
      </trkpt>
      <trkpt lat="43.30712" lon="-1.43465">
        <ele>553.5</ele>
        <time>2022-08-30T11:23:25Z</time>
      </trkpt>
      <trkpt lat="43.30715" lon="-1.43464">
        <ele>553.1</ele>
        <time>2022-08-30T11:23:26Z</time>
      </trkpt>
      <trkpt lat="43.30718" lon="-1.43462">
        <ele>552.5</ele>
        <time>2022-08-30T11:23:27Z</time>
      </trkpt>
      <trkpt lat="43.3072" lon="-1.43461">
        <ele>552.2</ele>
        <time>2022-08-30T11:23:28Z</time>
      </trkpt>
      <trkpt lat="43.30722" lon="-1.4346">
        <ele>551.7</ele>
        <time>2022-08-30T11:23:29Z</time>
      </trkpt>
      <trkpt lat="43.30725" lon="-1.43461">
        <ele>551.2</ele>
        <time>2022-08-30T11:23:30Z</time>
      </trkpt>
      <trkpt lat="43.30729" lon="-1.43461">
        <ele>550.5</ele>
        <time>2022-08-30T11:23:31Z</time>
      </trkpt>
      <trkpt lat="43.3073" lon="-1.43461">
        <ele>550.2</ele>
        <time>2022-08-30T11:23:32Z</time>
      </trkpt>
      <trkpt lat="43.30734" lon="-1.43461">
        <ele>549.3</ele>
        <time>2022-08-30T11:23:33Z</time>
      </trkpt>
      <trkpt lat="43.30735" lon="-1.43461">
        <ele>549</ele>
        <time>2022-08-30T11:23:34Z</time>
      </trkpt>
      <trkpt lat="43.30739" lon="-1.43461">
        <ele>548</ele>
        <time>2022-08-30T11:23:35Z</time>
      </trkpt>
      <trkpt lat="43.30741" lon="-1.43461">
        <ele>547.6</ele>
        <time>2022-08-30T11:23:36Z</time>
      </trkpt>
      <trkpt lat="43.30743" lon="-1.43462">
        <ele>546.8</ele>
        <time>2022-08-30T11:23:37Z</time>
      </trkpt>
      <trkpt lat="43.30746" lon="-1.43462">
        <ele>546</ele>
        <time>2022-08-30T11:23:38Z</time>
      </trkpt>
      <trkpt lat="43.3075" lon="-1.43462">
        <ele>544.8</ele>
        <time>2022-08-30T11:23:39Z</time>
      </trkpt>
      <trkpt lat="43.30751" lon="-1.43463">
        <ele>544.5</ele>
        <time>2022-08-30T11:23:40Z</time>
      </trkpt>
      <trkpt lat="43.30755" lon="-1.43463">
        <ele>543.3</ele>
        <time>2022-08-30T11:23:41Z</time>
      </trkpt>
      <trkpt lat="43.30756" lon="-1.43463">
        <ele>542.9</ele>
        <time>2022-08-30T11:23:42Z</time>
      </trkpt>
      <trkpt lat="43.3076" lon="-1.43464">
        <ele>541.6</ele>
        <time>2022-08-30T11:23:43Z</time>
      </trkpt>
      <trkpt lat="43.30761" lon="-1.43464">
        <ele>541.1</ele>
        <time>2022-08-30T11:23:44Z</time>
      </trkpt>
      <trkpt lat="43.30764" lon="-1.43462">
        <ele>539.8</ele>
        <time>2022-08-30T11:23:45Z</time>
      </trkpt>
      <trkpt lat="43.30765" lon="-1.43461">
        <ele>539.4</ele>
        <time>2022-08-30T11:23:46Z</time>
      </trkpt>
      <trkpt lat="43.30768" lon="-1.43457">
        <ele>538.1</ele>
        <time>2022-08-30T11:23:47Z</time>
      </trkpt>
      <trkpt lat="43.30769" lon="-1.43456">
        <ele>537.5</ele>
        <time>2022-08-30T11:23:48Z</time>
      </trkpt>
      <trkpt lat="43.30772" lon="-1.43453">
        <ele>537.2</ele>
        <time>2022-08-30T11:23:49Z</time>
      </trkpt>
      <trkpt lat="43.30773" lon="-1.43451">
        <ele>537.1</ele>
        <time>2022-08-30T11:23:50Z</time>
      </trkpt>
      <trkpt lat="43.30775" lon="-1.43448">
        <ele>535.8</ele>
        <time>2022-08-30T11:23:51Z</time>
      </trkpt>
      <trkpt lat="43.30776" lon="-1.43446">
        <ele>535.4</ele>
        <time>2022-08-30T11:23:52Z</time>
      </trkpt>
      <trkpt lat="43.30777" lon="-1.43444">
        <ele>534.6</ele>
        <time>2022-08-30T11:23:53Z</time>
      </trkpt>
      <trkpt lat="43.30778" lon="-1.43443">
        <ele>534.1</ele>
        <time>2022-08-30T11:23:54Z</time>
      </trkpt>
      <trkpt lat="43.30779" lon="-1.43441">
        <ele>533.5</ele>
        <time>2022-08-30T11:23:55Z</time>
      </trkpt>
      <trkpt lat="43.30781" lon="-1.4344">
        <ele>532.9</ele>
        <time>2022-08-30T11:23:56Z</time>
      </trkpt>
      <trkpt lat="43.30784" lon="-1.43437">
        <ele>531.7</ele>
        <time>2022-08-30T11:23:57Z</time>
      </trkpt>
      <trkpt lat="43.30785" lon="-1.43437">
        <ele>531.3</ele>
        <time>2022-08-30T11:23:58Z</time>
      </trkpt>
      <trkpt lat="43.30789" lon="-1.43434">
        <ele>529.4</ele>
        <time>2022-08-30T11:24:00Z</time>
      </trkpt>
      <trkpt lat="43.30792" lon="-1.43431">
        <ele>528</ele>
        <time>2022-08-30T11:24:01Z</time>
      </trkpt>
      <trkpt lat="43.30793" lon="-1.4343">
        <ele>527.5</ele>
        <time>2022-08-30T11:24:02Z</time>
      </trkpt>
      <trkpt lat="43.30796" lon="-1.43428">
        <ele>526.4</ele>
        <time>2022-08-30T11:24:03Z</time>
      </trkpt>
      <trkpt lat="43.30799" lon="-1.43425">
        <ele>525</ele>
        <time>2022-08-30T11:24:04Z</time>
      </trkpt>
      <trkpt lat="43.308" lon="-1.43425">
        <ele>524.5</ele>
        <time>2022-08-30T11:24:05Z</time>
      </trkpt>
      <trkpt lat="43.30803" lon="-1.43423">
        <ele>523.1</ele>
        <time>2022-08-30T11:24:06Z</time>
      </trkpt>
      <trkpt lat="43.30804" lon="-1.43423">
        <ele>522.7</ele>
        <time>2022-08-30T11:24:07Z</time>
      </trkpt>
      <trkpt lat="43.30806" lon="-1.43423">
        <ele>522.1</ele>
        <time>2022-08-30T11:24:08Z</time>
      </trkpt>
      <trkpt lat="43.30807" lon="-1.43424">
        <ele>521.8</ele>
        <time>2022-08-30T11:24:09Z</time>
      </trkpt>
      <trkpt lat="43.30807" lon="-1.43424">
        <ele>521.7</ele>
        <time>2022-08-30T11:24:10Z</time>
      </trkpt>
      <trkpt lat="43.30806" lon="-1.43425">
        <ele>521.4</ele>
        <time>2022-08-30T11:24:11Z</time>
      </trkpt>
      <trkpt lat="43.30806" lon="-1.43425">
        <ele>521.2</ele>
        <time>2022-08-30T11:24:12Z</time>
      </trkpt>
      <trkpt lat="43.30805" lon="-1.43426">
        <ele>521.1</ele>
        <time>2022-08-30T11:24:13Z</time>
      </trkpt>
      <trkpt lat="43.30805" lon="-1.43426">
        <ele>521</ele>
        <time>2022-08-30T11:24:14Z</time>
      </trkpt>
      <trkpt lat="43.30805" lon="-1.43426">
        <ele>521</ele>
        <time>2022-08-30T11:24:15Z</time>
      </trkpt>
      <trkpt lat="43.30805" lon="-1.43426">
        <ele>520.9</ele>
        <time>2022-08-30T11:24:16Z</time>
      </trkpt>
      <trkpt lat="43.30805" lon="-1.43426">
        <ele>520.9</ele>
        <time>2022-08-30T11:24:17Z</time>
      </trkpt>
      <trkpt lat="43.30805" lon="-1.43426">
        <ele>520.9</ele>
        <time>2022-08-30T11:24:18Z</time>
      </trkpt>
      <trkpt lat="43.30805" lon="-1.43426">
        <ele>520.9</ele>
        <time>2022-08-30T11:24:19Z</time>
      </trkpt>
      <trkpt lat="43.30805" lon="-1.43426">
        <ele>520.9</ele>
        <time>2022-08-30T11:24:20Z</time>
      </trkpt>
      <trkpt lat="43.30805" lon="-1.43426">
        <ele>520.9</ele>
        <time>2022-08-30T11:24:21Z</time>
      </trkpt>
      <trkpt lat="43.30805" lon="-1.43426">
        <ele>520.9</ele>
        <time>2022-08-30T11:24:22Z</time>
      </trkpt>
      <trkpt lat="43.30808" lon="-1.43423">
        <ele>519.4</ele>
        <time>2022-08-30T11:24:28Z</time>
      </trkpt>
      <trkpt lat="43.30811" lon="-1.43421">
        <ele>518.4</ele>
        <time>2022-08-30T11:24:29Z</time>
      </trkpt>
      <trkpt lat="43.30813" lon="-1.43418">
        <ele>517.3</ele>
        <time>2022-08-30T11:24:30Z</time>
      </trkpt>
      <trkpt lat="43.30816" lon="-1.43416">
        <ele>516.2</ele>
        <time>2022-08-30T11:24:31Z</time>
      </trkpt>
      <trkpt lat="43.30819" lon="-1.43414">
        <ele>515</ele>
        <time>2022-08-30T11:24:32Z</time>
      </trkpt>
      <trkpt lat="43.30822" lon="-1.43413">
        <ele>513.9</ele>
        <time>2022-08-30T11:24:33Z</time>
      </trkpt>
      <trkpt lat="43.30825" lon="-1.43413">
        <ele>512.8</ele>
        <time>2022-08-30T11:24:34Z</time>
      </trkpt>
      <trkpt lat="43.30828" lon="-1.43413">
        <ele>511.9</ele>
        <time>2022-08-30T11:24:35Z</time>
      </trkpt>
      <trkpt lat="43.30832" lon="-1.43412">
        <ele>510.8</ele>
        <time>2022-08-30T11:24:36Z</time>
      </trkpt>
      <trkpt lat="43.30835" lon="-1.43412">
        <ele>509.8</ele>
        <time>2022-08-30T11:24:37Z</time>
      </trkpt>
      <trkpt lat="43.30838" lon="-1.43412">
        <ele>508.8</ele>
        <time>2022-08-30T11:24:38Z</time>
      </trkpt>
      <trkpt lat="43.30841" lon="-1.43412">
        <ele>507.9</ele>
        <time>2022-08-30T11:24:39Z</time>
      </trkpt>
      <trkpt lat="43.30844" lon="-1.43411">
        <ele>506.9</ele>
        <time>2022-08-30T11:24:40Z</time>
      </trkpt>
      <trkpt lat="43.30847" lon="-1.43411">
        <ele>506</ele>
        <time>2022-08-30T11:24:41Z</time>
      </trkpt>
      <trkpt lat="43.3085" lon="-1.4341">
        <ele>504.7</ele>
        <time>2022-08-30T11:24:42Z</time>
      </trkpt>
      <trkpt lat="43.30852" lon="-1.4341">
        <ele>504.4</ele>
        <time>2022-08-30T11:24:43Z</time>
      </trkpt>
      <trkpt lat="43.30856" lon="-1.4341">
        <ele>503.1</ele>
        <time>2022-08-30T11:24:44Z</time>
      </trkpt>
      <trkpt lat="43.30857" lon="-1.4341">
        <ele>502.6</ele>
        <time>2022-08-30T11:24:45Z</time>
      </trkpt>
      <trkpt lat="43.30861" lon="-1.4341">
        <ele>501.5</ele>
        <time>2022-08-30T11:24:46Z</time>
      </trkpt>
      <trkpt lat="43.30864" lon="-1.43411">
        <ele>500.3</ele>
        <time>2022-08-30T11:24:47Z</time>
      </trkpt>
      <trkpt lat="43.30868" lon="-1.43411">
        <ele>499.2</ele>
        <time>2022-08-30T11:24:48Z</time>
      </trkpt>
      <trkpt lat="43.30871" lon="-1.43411">
        <ele>498.1</ele>
        <time>2022-08-30T11:24:49Z</time>
      </trkpt>
      <trkpt lat="43.30875" lon="-1.43411">
        <ele>496.9</ele>
        <time>2022-08-30T11:24:50Z</time>
      </trkpt>
      <trkpt lat="43.30878" lon="-1.43411">
        <ele>495.8</ele>
        <time>2022-08-30T11:24:51Z</time>
      </trkpt>
      <trkpt lat="43.30882" lon="-1.4341">
        <ele>494.6</ele>
        <time>2022-08-30T11:24:52Z</time>
      </trkpt>
      <trkpt lat="43.30886" lon="-1.43409">
        <ele>493.4</ele>
        <time>2022-08-30T11:24:53Z</time>
      </trkpt>
      <trkpt lat="43.3089" lon="-1.43409">
        <ele>492.2</ele>
        <time>2022-08-30T11:24:54Z</time>
      </trkpt>
      <trkpt lat="43.30894" lon="-1.43411">
        <ele>491.1</ele>
        <time>2022-08-30T11:24:55Z</time>
      </trkpt>
      <trkpt lat="43.30898" lon="-1.43413">
        <ele>490.1</ele>
        <time>2022-08-30T11:24:56Z</time>
      </trkpt>
      <trkpt lat="43.30901" lon="-1.43414">
        <ele>489.1</ele>
        <time>2022-08-30T11:24:57Z</time>
      </trkpt>
      <trkpt lat="43.30905" lon="-1.43414">
        <ele>488.2</ele>
        <time>2022-08-30T11:24:58Z</time>
      </trkpt>
      <trkpt lat="43.30909" lon="-1.43414">
        <ele>487.2</ele>
        <time>2022-08-30T11:24:59Z</time>
      </trkpt>
      <trkpt lat="43.30913" lon="-1.43414">
        <ele>486.2</ele>
        <time>2022-08-30T11:25:00Z</time>
      </trkpt>
      <trkpt lat="43.30917" lon="-1.43414">
        <ele>485.2</ele>
        <time>2022-08-30T11:25:01Z</time>
      </trkpt>
      <trkpt lat="43.30921" lon="-1.43414">
        <ele>484.3</ele>
        <time>2022-08-30T11:25:02Z</time>
      </trkpt>
      <trkpt lat="43.30924" lon="-1.43414">
        <ele>483.5</ele>
        <time>2022-08-30T11:25:03Z</time>
      </trkpt>
      <trkpt lat="43.30928" lon="-1.43414">
        <ele>482.7</ele>
        <time>2022-08-30T11:25:04Z</time>
      </trkpt>
      <trkpt lat="43.30931" lon="-1.43416">
        <ele>481.9</ele>
        <time>2022-08-30T11:25:05Z</time>
      </trkpt>
      <trkpt lat="43.30934" lon="-1.43418">
        <ele>481.1</ele>
        <time>2022-08-30T11:25:06Z</time>
      </trkpt>
      <trkpt lat="43.30937" lon="-1.43419">
        <ele>480.2</ele>
        <time>2022-08-30T11:25:07Z</time>
      </trkpt>
      <trkpt lat="43.3094" lon="-1.43419">
        <ele>479.5</ele>
        <time>2022-08-30T11:25:08Z</time>
      </trkpt>
      <trkpt lat="43.30943" lon="-1.43419">
        <ele>478.6</ele>
        <time>2022-08-30T11:25:09Z</time>
      </trkpt>
      <trkpt lat="43.30946" lon="-1.43419">
        <ele>477.8</ele>
        <time>2022-08-30T11:25:10Z</time>
      </trkpt>
      <trkpt lat="43.30949" lon="-1.43419">
        <ele>477.1</ele>
        <time>2022-08-30T11:25:11Z</time>
      </trkpt>
      <trkpt lat="43.30952" lon="-1.43422">
        <ele>476.2</ele>
        <time>2022-08-30T11:25:12Z</time>
      </trkpt>
      <trkpt lat="43.30953" lon="-1.43422">
        <ele>475.9</ele>
        <time>2022-08-30T11:25:13Z</time>
      </trkpt>
      <trkpt lat="43.30956" lon="-1.43425">
        <ele>475</ele>
        <time>2022-08-30T11:25:14Z</time>
      </trkpt>
      <trkpt lat="43.30957" lon="-1.43425">
        <ele>473.1</ele>
        <time>2022-08-30T11:25:15Z</time>
      </trkpt>
      <trkpt lat="43.3096" lon="-1.43426">
        <ele>472.4</ele>
        <time>2022-08-30T11:25:16Z</time>
      </trkpt>
      <trkpt lat="43.30963" lon="-1.43425">
        <ele>471.6</ele>
        <time>2022-08-30T11:25:17Z</time>
      </trkpt>
      <trkpt lat="43.30966" lon="-1.43423">
        <ele>470.8</ele>
        <time>2022-08-30T11:25:18Z</time>
      </trkpt>
      <trkpt lat="43.30969" lon="-1.4342">
        <ele>469.9</ele>
        <time>2022-08-30T11:25:19Z</time>
      </trkpt>
      <trkpt lat="43.30972" lon="-1.43416">
        <ele>469</ele>
        <time>2022-08-30T11:25:20Z</time>
      </trkpt>
      <trkpt lat="43.30975" lon="-1.43413">
        <ele>468.1</ele>
        <time>2022-08-30T11:25:21Z</time>
      </trkpt>
      <trkpt lat="43.30977" lon="-1.43409">
        <ele>467.4</ele>
        <time>2022-08-30T11:25:22Z</time>
      </trkpt>
      <trkpt lat="43.30979" lon="-1.43405">
        <ele>466.7</ele>
        <time>2022-08-30T11:25:23Z</time>
      </trkpt>
      <trkpt lat="43.3098" lon="-1.43401">
        <ele>466.1</ele>
        <time>2022-08-30T11:25:24Z</time>
      </trkpt>
      <trkpt lat="43.30983" lon="-1.43398">
        <ele>465.5</ele>
        <time>2022-08-30T11:25:25Z</time>
      </trkpt>
      <trkpt lat="43.30986" lon="-1.43394">
        <ele>464.8</ele>
        <time>2022-08-30T11:25:26Z</time>
      </trkpt>
      <trkpt lat="43.3099" lon="-1.4339">
        <ele>464</ele>
        <time>2022-08-30T11:25:27Z</time>
      </trkpt>
      <trkpt lat="43.30992" lon="-1.43387">
        <ele>463.3</ele>
        <time>2022-08-30T11:25:28Z</time>
      </trkpt>
      <trkpt lat="43.30994" lon="-1.43384">
        <ele>462.8</ele>
        <time>2022-08-30T11:25:29Z</time>
      </trkpt>
      <trkpt lat="43.30995" lon="-1.4338">
        <ele>462.3</ele>
        <time>2022-08-30T11:25:30Z</time>
      </trkpt>
      <trkpt lat="43.30998" lon="-1.43377">
        <ele>461.8</ele>
        <time>2022-08-30T11:25:31Z</time>
      </trkpt>
      <trkpt lat="43.31001" lon="-1.43374">
        <ele>461.2</ele>
        <time>2022-08-30T11:25:32Z</time>
      </trkpt>
      <trkpt lat="43.31003" lon="-1.43371">
        <ele>460.8</ele>
        <time>2022-08-30T11:25:33Z</time>
      </trkpt>
      <trkpt lat="43.31005" lon="-1.43369">
        <ele>460.4</ele>
        <time>2022-08-30T11:25:34Z</time>
      </trkpt>
      <trkpt lat="43.31007" lon="-1.43366">
        <ele>459.9</ele>
        <time>2022-08-30T11:25:35Z</time>
      </trkpt>
      <trkpt lat="43.3101" lon="-1.43364">
        <ele>459.6</ele>
        <time>2022-08-30T11:25:36Z</time>
      </trkpt>
      <trkpt lat="43.31013" lon="-1.43362">
        <ele>459.1</ele>
        <time>2022-08-30T11:25:37Z</time>
      </trkpt>
      <trkpt lat="43.31014" lon="-1.43361">
        <ele>458.9</ele>
        <time>2022-08-30T11:25:38Z</time>
      </trkpt>
      <trkpt lat="43.31017" lon="-1.43359">
        <ele>458.4</ele>
        <time>2022-08-30T11:25:39Z</time>
      </trkpt>
      <trkpt lat="43.31018" lon="-1.43359">
        <ele>458.3</ele>
        <time>2022-08-30T11:25:40Z</time>
      </trkpt>
      <trkpt lat="43.3102" lon="-1.43356">
        <ele>457.8</ele>
        <time>2022-08-30T11:25:41Z</time>
      </trkpt>
      <trkpt lat="43.31021" lon="-1.43355">
        <ele>457.6</ele>
        <time>2022-08-30T11:25:42Z</time>
      </trkpt>
      <trkpt lat="43.31025" lon="-1.43353">
        <ele>457.1</ele>
        <time>2022-08-30T11:25:43Z</time>
      </trkpt>
      <trkpt lat="43.31026" lon="-1.43352">
        <ele>456.9</ele>
        <time>2022-08-30T11:25:44Z</time>
      </trkpt>
      <trkpt lat="43.31028" lon="-1.43351">
        <ele>456.5</ele>
        <time>2022-08-30T11:25:45Z</time>
      </trkpt>
      <trkpt lat="43.31029" lon="-1.43351">
        <ele>456.4</ele>
        <time>2022-08-30T11:25:46Z</time>
      </trkpt>
      <trkpt lat="43.31029" lon="-1.43351">
        <ele>456.4</ele>
        <time>2022-08-30T11:25:47Z</time>
      </trkpt>
      <trkpt lat="43.31028" lon="-1.43351">
        <ele>456.4</ele>
        <time>2022-08-30T11:25:48Z</time>
      </trkpt>
      <trkpt lat="43.31028" lon="-1.43351">
        <ele>456.3</ele>
        <time>2022-08-30T11:25:49Z</time>
      </trkpt>
      <trkpt lat="43.31028" lon="-1.43351">
        <ele>456.3</ele>
        <time>2022-08-30T11:25:50Z</time>
      </trkpt>
      <trkpt lat="43.31028" lon="-1.43351">
        <ele>456.3</ele>
        <time>2022-08-30T11:25:51Z</time>
      </trkpt>
      <trkpt lat="43.31028" lon="-1.43351">
        <ele>456.3</ele>
        <time>2022-08-30T11:25:52Z</time>
      </trkpt>
      <trkpt lat="43.31028" lon="-1.43351">
        <ele>456.3</ele>
        <time>2022-08-30T11:25:53Z</time>
      </trkpt>
      <trkpt lat="43.31028" lon="-1.43351">
        <ele>456.3</ele>
        <time>2022-08-30T11:25:54Z</time>
      </trkpt>
      <trkpt lat="43.31028" lon="-1.43351">
        <ele>456.3</ele>
        <time>2022-08-30T11:25:55Z</time>
      </trkpt>
      <trkpt lat="43.31028" lon="-1.43351">
        <ele>456.3</ele>
        <time>2022-08-30T11:25:56Z</time>
      </trkpt>
      <trkpt lat="43.31028" lon="-1.43351">
        <ele>456.3</ele>
        <time>2022-08-30T11:25:57Z</time>
      </trkpt>
      <trkpt lat="43.31033" lon="-1.43349">
        <ele>455.5</ele>
        <time>2022-08-30T11:26:42Z</time>
      </trkpt>
      <trkpt lat="43.31035" lon="-1.43348">
        <ele>454.9</ele>
        <time>2022-08-30T11:26:43Z</time>
      </trkpt>
      <trkpt lat="43.31039" lon="-1.43348">
        <ele>454.3</ele>
        <time>2022-08-30T11:26:44Z</time>
      </trkpt>
      <trkpt lat="43.31041" lon="-1.43349">
        <ele>453.7</ele>
        <time>2022-08-30T11:26:45Z</time>
      </trkpt>
      <trkpt lat="43.31043" lon="-1.43353">
        <ele>452.9</ele>
        <time>2022-08-30T11:26:46Z</time>
      </trkpt>
      <trkpt lat="43.31044" lon="-1.43355">
        <ele>452.6</ele>
        <time>2022-08-30T11:26:47Z</time>
      </trkpt>
      <trkpt lat="43.31044" lon="-1.4336">
        <ele>451.6</ele>
        <time>2022-08-30T11:26:48Z</time>
      </trkpt>
      <trkpt lat="43.31044" lon="-1.43362">
        <ele>451.3</ele>
        <time>2022-08-30T11:26:49Z</time>
      </trkpt>
      <trkpt lat="43.31044" lon="-1.43366">
        <ele>450.7</ele>
        <time>2022-08-30T11:26:50Z</time>
      </trkpt>
      <trkpt lat="43.31045" lon="-1.43371">
        <ele>449.7</ele>
        <time>2022-08-30T11:26:51Z</time>
      </trkpt>
      <trkpt lat="43.31046" lon="-1.43373">
        <ele>449.4</ele>
        <time>2022-08-30T11:26:52Z</time>
      </trkpt>
      <trkpt lat="43.31047" lon="-1.43378">
        <ele>448.4</ele>
        <time>2022-08-30T11:26:53Z</time>
      </trkpt>
      <trkpt lat="43.31047" lon="-1.4338">
        <ele>448.1</ele>
        <time>2022-08-30T11:26:54Z</time>
      </trkpt>
      <trkpt lat="43.31051" lon="-1.43382">
        <ele>447.2</ele>
        <time>2022-08-30T11:26:55Z</time>
      </trkpt>
      <trkpt lat="43.31052" lon="-1.43383">
        <ele>446.9</ele>
        <time>2022-08-30T11:26:56Z</time>
      </trkpt>
      <trkpt lat="43.31056" lon="-1.43383">
        <ele>446.2</ele>
        <time>2022-08-30T11:26:57Z</time>
      </trkpt>
      <trkpt lat="43.31059" lon="-1.43383">
        <ele>445.3</ele>
        <time>2022-08-30T11:26:58Z</time>
      </trkpt>
      <trkpt lat="43.31063" lon="-1.43381">
        <ele>444.5</ele>
        <time>2022-08-30T11:26:59Z</time>
      </trkpt>
      <trkpt lat="43.31067" lon="-1.43379">
        <ele>443.6</ele>
        <time>2022-08-30T11:27:00Z</time>
      </trkpt>
      <trkpt lat="43.31071" lon="-1.43377">
        <ele>442.8</ele>
        <time>2022-08-30T11:27:01Z</time>
      </trkpt>
      <trkpt lat="43.31075" lon="-1.43374">
        <ele>442.1</ele>
        <time>2022-08-30T11:27:02Z</time>
      </trkpt>
      <trkpt lat="43.31078" lon="-1.43371">
        <ele>441.4</ele>
        <time>2022-08-30T11:27:03Z</time>
      </trkpt>
      <trkpt lat="43.31081" lon="-1.43368">
        <ele>440.7</ele>
        <time>2022-08-30T11:27:04Z</time>
      </trkpt>
      <trkpt lat="43.31085" lon="-1.43364">
        <ele>440</ele>
        <time>2022-08-30T11:27:05Z</time>
      </trkpt>
      <trkpt lat="43.31088" lon="-1.43363">
        <ele>439.4</ele>
        <time>2022-08-30T11:27:06Z</time>
      </trkpt>
      <trkpt lat="43.31092" lon="-1.43363">
        <ele>438.8</ele>
        <time>2022-08-30T11:27:07Z</time>
      </trkpt>
      <trkpt lat="43.31095" lon="-1.43364">
        <ele>438.1</ele>
        <time>2022-08-30T11:27:08Z</time>
      </trkpt>
      <trkpt lat="43.31098" lon="-1.43364">
        <ele>437.4</ele>
        <time>2022-08-30T11:27:09Z</time>
      </trkpt>
      <trkpt lat="43.31102" lon="-1.43364">
        <ele>436.6</ele>
        <time>2022-08-30T11:27:10Z</time>
      </trkpt>
      <trkpt lat="43.31105" lon="-1.43364">
        <ele>435.8</ele>
        <time>2022-08-30T11:27:11Z</time>
      </trkpt>
      <trkpt lat="43.31109" lon="-1.43363">
        <ele>435</ele>
        <time>2022-08-30T11:27:12Z</time>
      </trkpt>
      <trkpt lat="43.31113" lon="-1.43363">
        <ele>434.2</ele>
        <time>2022-08-30T11:27:13Z</time>
      </trkpt>
      <trkpt lat="43.31116" lon="-1.43364">
        <ele>433.4</ele>
        <time>2022-08-30T11:27:14Z</time>
      </trkpt>
      <trkpt lat="43.3112" lon="-1.43364">
        <ele>432.6</ele>
        <time>2022-08-30T11:27:15Z</time>
      </trkpt>
      <trkpt lat="43.31124" lon="-1.43364">
        <ele>431.8</ele>
        <time>2022-08-30T11:27:16Z</time>
      </trkpt>
      <trkpt lat="43.31127" lon="-1.43364">
        <ele>431.1</ele>
        <time>2022-08-30T11:27:17Z</time>
      </trkpt>
      <trkpt lat="43.31131" lon="-1.43365">
        <ele>430.4</ele>
        <time>2022-08-30T11:27:18Z</time>
      </trkpt>
      <trkpt lat="43.31135" lon="-1.43365">
        <ele>429.8</ele>
        <time>2022-08-30T11:27:19Z</time>
      </trkpt>
      <trkpt lat="43.31139" lon="-1.43367">
        <ele>429.3</ele>
        <time>2022-08-30T11:27:20Z</time>
      </trkpt>
      <trkpt lat="43.31144" lon="-1.4337">
        <ele>428.7</ele>
        <time>2022-08-30T11:27:21Z</time>
      </trkpt>
      <trkpt lat="43.31148" lon="-1.43373">
        <ele>428.4</ele>
        <time>2022-08-30T11:27:22Z</time>
      </trkpt>
      <trkpt lat="43.31152" lon="-1.43376">
        <ele>428.1</ele>
        <time>2022-08-30T11:27:23Z</time>
      </trkpt>
      <trkpt lat="43.31156" lon="-1.4338">
        <ele>427.8</ele>
        <time>2022-08-30T11:27:24Z</time>
      </trkpt>
      <trkpt lat="43.3116" lon="-1.43382">
        <ele>427.4</ele>
        <time>2022-08-30T11:27:25Z</time>
      </trkpt>
      <trkpt lat="43.31164" lon="-1.43384">
        <ele>426.9</ele>
        <time>2022-08-30T11:27:26Z</time>
      </trkpt>
      <trkpt lat="43.31169" lon="-1.43387">
        <ele>426.4</ele>
        <time>2022-08-30T11:27:27Z</time>
      </trkpt>
      <trkpt lat="43.31173" lon="-1.43391">
        <ele>425.8</ele>
        <time>2022-08-30T11:27:28Z</time>
      </trkpt>
      <trkpt lat="43.31178" lon="-1.43394">
        <ele>425.2</ele>
        <time>2022-08-30T11:27:29Z</time>
      </trkpt>
      <trkpt lat="43.31182" lon="-1.43398">
        <ele>424.7</ele>
        <time>2022-08-30T11:27:30Z</time>
      </trkpt>
      <trkpt lat="43.31186" lon="-1.43401">
        <ele>424.1</ele>
        <time>2022-08-30T11:27:31Z</time>
      </trkpt>
      <trkpt lat="43.31191" lon="-1.43405">
        <ele>423.6</ele>
        <time>2022-08-30T11:27:32Z</time>
      </trkpt>
      <trkpt lat="43.31195" lon="-1.43408">
        <ele>423</ele>
        <time>2022-08-30T11:27:33Z</time>
      </trkpt>
      <trkpt lat="43.312" lon="-1.4341">
        <ele>422.4</ele>
        <time>2022-08-30T11:27:34Z</time>
      </trkpt>
      <trkpt lat="43.31204" lon="-1.43413">
        <ele>421.8</ele>
        <time>2022-08-30T11:27:35Z</time>
      </trkpt>
      <trkpt lat="43.31208" lon="-1.43417">
        <ele>421.2</ele>
        <time>2022-08-30T11:27:36Z</time>
      </trkpt>
      <trkpt lat="43.31212" lon="-1.43421">
        <ele>420.5</ele>
        <time>2022-08-30T11:27:37Z</time>
      </trkpt>
      <trkpt lat="43.31217" lon="-1.43425">
        <ele>419.8</ele>
        <time>2022-08-30T11:27:38Z</time>
      </trkpt>
      <trkpt lat="43.31221" lon="-1.43428">
        <ele>419.2</ele>
        <time>2022-08-30T11:27:39Z</time>
      </trkpt>
      <trkpt lat="43.31225" lon="-1.43431">
        <ele>418.5</ele>
        <time>2022-08-30T11:27:40Z</time>
      </trkpt>
      <trkpt lat="43.31229" lon="-1.43434">
        <ele>417.8</ele>
        <time>2022-08-30T11:27:41Z</time>
      </trkpt>
      <trkpt lat="43.31234" lon="-1.43438">
        <ele>417.1</ele>
        <time>2022-08-30T11:27:42Z</time>
      </trkpt>
      <trkpt lat="43.31238" lon="-1.43441">
        <ele>416.4</ele>
        <time>2022-08-30T11:27:43Z</time>
      </trkpt>
      <trkpt lat="43.31243" lon="-1.43445">
        <ele>415.7</ele>
        <time>2022-08-30T11:27:44Z</time>
      </trkpt>
      <trkpt lat="43.31248" lon="-1.43448">
        <ele>415</ele>
        <time>2022-08-30T11:27:45Z</time>
      </trkpt>
      <trkpt lat="43.31252" lon="-1.43452">
        <ele>414.3</ele>
        <time>2022-08-30T11:27:46Z</time>
      </trkpt>
      <trkpt lat="43.31257" lon="-1.43455">
        <ele>413.7</ele>
        <time>2022-08-30T11:27:47Z</time>
      </trkpt>
      <trkpt lat="43.31262" lon="-1.43458">
        <ele>413.1</ele>
        <time>2022-08-30T11:27:48Z</time>
      </trkpt>
      <trkpt lat="43.31266" lon="-1.43461">
        <ele>412.4</ele>
        <time>2022-08-30T11:27:49Z</time>
      </trkpt>
      <trkpt lat="43.31271" lon="-1.43464">
        <ele>411.8</ele>
        <time>2022-08-30T11:27:50Z</time>
      </trkpt>
      <trkpt lat="43.31274" lon="-1.43466">
        <ele>411.3</ele>
        <time>2022-08-30T11:27:51Z</time>
      </trkpt>
      <trkpt lat="43.31278" lon="-1.43469">
        <ele>410.8</ele>
        <time>2022-08-30T11:27:52Z</time>
      </trkpt>
      <trkpt lat="43.31281" lon="-1.43471">
        <ele>410.3</ele>
        <time>2022-08-30T11:27:53Z</time>
      </trkpt>
      <trkpt lat="43.31284" lon="-1.43473">
        <ele>409.7</ele>
        <time>2022-08-30T11:27:54Z</time>
      </trkpt>
      <trkpt lat="43.31287" lon="-1.43476">
        <ele>409.2</ele>
        <time>2022-08-30T11:27:55Z</time>
      </trkpt>
      <trkpt lat="43.3129" lon="-1.43478">
        <ele>408.6</ele>
        <time>2022-08-30T11:27:56Z</time>
      </trkpt>
      <trkpt lat="43.31294" lon="-1.4348">
        <ele>407.9</ele>
        <time>2022-08-30T11:27:57Z</time>
      </trkpt>
      <trkpt lat="43.31299" lon="-1.43483">
        <ele>406.9</ele>
        <time>2022-08-30T11:27:58Z</time>
      </trkpt>
      <trkpt lat="43.31305" lon="-1.43487">
        <ele>405.9</ele>
        <time>2022-08-30T11:27:59Z</time>
      </trkpt>
      <trkpt lat="43.3131" lon="-1.4349">
        <ele>404.9</ele>
        <time>2022-08-30T11:28:00Z</time>
      </trkpt>
      <trkpt lat="43.31314" lon="-1.43494">
        <ele>403.9</ele>
        <time>2022-08-30T11:28:01Z</time>
      </trkpt>
      <trkpt lat="43.31319" lon="-1.43496">
        <ele>402.9</ele>
        <time>2022-08-30T11:28:02Z</time>
      </trkpt>
      <trkpt lat="43.31324" lon="-1.43499">
        <ele>402.1</ele>
        <time>2022-08-30T11:28:03Z</time>
      </trkpt>
      <trkpt lat="43.31328" lon="-1.43501">
        <ele>401.2</ele>
        <time>2022-08-30T11:28:04Z</time>
      </trkpt>
      <trkpt lat="43.31332" lon="-1.43503">
        <ele>400.5</ele>
        <time>2022-08-30T11:28:05Z</time>
      </trkpt>
      <trkpt lat="43.31336" lon="-1.43504">
        <ele>399.6</ele>
        <time>2022-08-30T11:28:06Z</time>
      </trkpt>
      <trkpt lat="43.31341" lon="-1.43505">
        <ele>398.7</ele>
        <time>2022-08-30T11:28:07Z</time>
      </trkpt>
      <trkpt lat="43.31346" lon="-1.43507">
        <ele>397.7</ele>
        <time>2022-08-30T11:28:08Z</time>
      </trkpt>
      <trkpt lat="43.31351" lon="-1.43509">
        <ele>396.7</ele>
        <time>2022-08-30T11:28:09Z</time>
      </trkpt>
      <trkpt lat="43.31356" lon="-1.43511">
        <ele>395.8</ele>
        <time>2022-08-30T11:28:10Z</time>
      </trkpt>
      <trkpt lat="43.3136" lon="-1.43513">
        <ele>394.9</ele>
        <time>2022-08-30T11:28:11Z</time>
      </trkpt>
      <trkpt lat="43.31365" lon="-1.43514">
        <ele>394.1</ele>
        <time>2022-08-30T11:28:12Z</time>
      </trkpt>
      <trkpt lat="43.3137" lon="-1.43514">
        <ele>393.2</ele>
        <time>2022-08-30T11:28:13Z</time>
      </trkpt>
      <trkpt lat="43.31376" lon="-1.43513">
        <ele>392.2</ele>
        <time>2022-08-30T11:28:14Z</time>
      </trkpt>
      <trkpt lat="43.31382" lon="-1.43512">
        <ele>391.1</ele>
        <time>2022-08-30T11:28:15Z</time>
      </trkpt>
      <trkpt lat="43.31389" lon="-1.4351">
        <ele>390</ele>
        <time>2022-08-30T11:28:16Z</time>
      </trkpt>
      <trkpt lat="43.31397" lon="-1.43509">
        <ele>388.9</ele>
        <time>2022-08-30T11:28:17Z</time>
      </trkpt>
      <trkpt lat="43.31404" lon="-1.43509">
        <ele>387.9</ele>
        <time>2022-08-30T11:28:18Z</time>
      </trkpt>
      <trkpt lat="43.31411" lon="-1.43508">
        <ele>387</ele>
        <time>2022-08-30T11:28:19Z</time>
      </trkpt>
      <trkpt lat="43.31417" lon="-1.43507">
        <ele>386</ele>
        <time>2022-08-30T11:28:20Z</time>
      </trkpt>
      <trkpt lat="43.31423" lon="-1.43505">
        <ele>385.1</ele>
        <time>2022-08-30T11:28:21Z</time>
      </trkpt>
      <trkpt lat="43.31428" lon="-1.43504">
        <ele>384.4</ele>
        <time>2022-08-30T11:28:22Z</time>
      </trkpt>
      <trkpt lat="43.31432" lon="-1.43504">
        <ele>383.9</ele>
        <time>2022-08-30T11:28:23Z</time>
      </trkpt>
      <trkpt lat="43.31433" lon="-1.43503">
        <ele>383.8</ele>
        <time>2022-08-30T11:28:24Z</time>
      </trkpt>
      <trkpt lat="43.31433" lon="-1.43503">
        <ele>383.8</ele>
        <time>2022-08-30T11:28:25Z</time>
      </trkpt>
      <trkpt lat="43.31433" lon="-1.43503">
        <ele>383.7</ele>
        <time>2022-08-30T11:28:26Z</time>
      </trkpt>
      <trkpt lat="43.31433" lon="-1.43504">
        <ele>383.7</ele>
        <time>2022-08-30T11:28:27Z</time>
      </trkpt>
      <trkpt lat="43.31433" lon="-1.43504">
        <ele>383.7</ele>
        <time>2022-08-30T11:28:28Z</time>
      </trkpt>
      <trkpt lat="43.31433" lon="-1.43504">
        <ele>383.7</ele>
        <time>2022-08-30T11:28:29Z</time>
      </trkpt>
      <trkpt lat="43.31433" lon="-1.43504">
        <ele>383.7</ele>
        <time>2022-08-30T11:28:30Z</time>
      </trkpt>
      <trkpt lat="43.31433" lon="-1.43504">
        <ele>383.7</ele>
        <time>2022-08-30T11:28:31Z</time>
      </trkpt>
      <trkpt lat="43.31433" lon="-1.43504">
        <ele>383.7</ele>
        <time>2022-08-30T11:28:32Z</time>
      </trkpt>
      <trkpt lat="43.31434" lon="-1.43504">
        <ele>383.6</ele>
        <time>2022-08-30T11:28:33Z</time>
      </trkpt>
      <trkpt lat="43.31434" lon="-1.43504">
        <ele>383.6</ele>
        <time>2022-08-30T11:28:34Z</time>
      </trkpt>
      <trkpt lat="43.31434" lon="-1.43504">
        <ele>383.6</ele>
        <time>2022-08-30T11:28:35Z</time>
      </trkpt>
      <trkpt lat="43.31434" lon="-1.43504">
        <ele>383.6</ele>
        <time>2022-08-30T11:28:36Z</time>
      </trkpt>
      <trkpt lat="43.31434" lon="-1.43504">
        <ele>383.6</ele>
        <time>2022-08-30T11:28:37Z</time>
      </trkpt>
      <trkpt lat="43.31434" lon="-1.43504">
        <ele>383.6</ele>
        <time>2022-08-30T11:28:39Z</time>
      </trkpt>
      <trkpt lat="43.31435" lon="-1.43503">
        <ele>383.5</ele>
        <time>2022-08-30T11:28:40Z</time>
      </trkpt>
      <trkpt lat="43.31439" lon="-1.43502">
        <ele>383.2</ele>
        <time>2022-08-30T11:28:41Z</time>
      </trkpt>
      <trkpt lat="43.3144" lon="-1.43501">
        <ele>383.1</ele>
        <time>2022-08-30T11:28:42Z</time>
      </trkpt>
      <trkpt lat="43.31444" lon="-1.43499">
        <ele>382.8</ele>
        <time>2022-08-30T11:28:43Z</time>
      </trkpt>
      <trkpt lat="43.31448" lon="-1.43497">
        <ele>382.5</ele>
        <time>2022-08-30T11:28:44Z</time>
      </trkpt>
      <trkpt lat="43.31452" lon="-1.43495">
        <ele>382.2</ele>
        <time>2022-08-30T11:28:45Z</time>
      </trkpt>
      <trkpt lat="43.31457" lon="-1.43494">
        <ele>382</ele>
        <time>2022-08-30T11:28:46Z</time>
      </trkpt>
      <trkpt lat="43.31462" lon="-1.43492">
        <ele>381.8</ele>
        <time>2022-08-30T11:28:47Z</time>
      </trkpt>
      <trkpt lat="43.31466" lon="-1.43491">
        <ele>381.7</ele>
        <time>2022-08-30T11:28:48Z</time>
      </trkpt>
      <trkpt lat="43.3147" lon="-1.4349">
        <ele>381.6</ele>
        <time>2022-08-30T11:28:49Z</time>
      </trkpt>
      <trkpt lat="43.31474" lon="-1.43489">
        <ele>381.5</ele>
        <time>2022-08-30T11:28:50Z</time>
      </trkpt>
      <trkpt lat="43.31478" lon="-1.43488">
        <ele>381.4</ele>
        <time>2022-08-30T11:28:51Z</time>
      </trkpt>
      <trkpt lat="43.31481" lon="-1.43486">
        <ele>381.4</ele>
        <time>2022-08-30T11:28:52Z</time>
      </trkpt>
      <trkpt lat="43.31485" lon="-1.43484">
        <ele>381.3</ele>
        <time>2022-08-30T11:28:53Z</time>
      </trkpt>
      <trkpt lat="43.31489" lon="-1.43483">
        <ele>381.2</ele>
        <time>2022-08-30T11:28:54Z</time>
      </trkpt>
      <trkpt lat="43.31493" lon="-1.43481">
        <ele>381</ele>
        <time>2022-08-30T11:28:55Z</time>
      </trkpt>
      <trkpt lat="43.31498" lon="-1.4348">
        <ele>380.9</ele>
        <time>2022-08-30T11:28:56Z</time>
      </trkpt>
      <trkpt lat="43.31502" lon="-1.4348">
        <ele>380.7</ele>
        <time>2022-08-30T11:28:57Z</time>
      </trkpt>
      <trkpt lat="43.31507" lon="-1.4348">
        <ele>380.5</ele>
        <time>2022-08-30T11:28:58Z</time>
      </trkpt>
      <trkpt lat="43.31512" lon="-1.43479">
        <ele>380.3</ele>
        <time>2022-08-30T11:28:59Z</time>
      </trkpt>
      <trkpt lat="43.31517" lon="-1.43479">
        <ele>380</ele>
        <time>2022-08-30T11:29:00Z</time>
      </trkpt>
      <trkpt lat="43.31522" lon="-1.43478">
        <ele>379.8</ele>
        <time>2022-08-30T11:29:01Z</time>
      </trkpt>
      <trkpt lat="43.31526" lon="-1.43477">
        <ele>379.5</ele>
        <time>2022-08-30T11:29:02Z</time>
      </trkpt>
      <trkpt lat="43.31532" lon="-1.43476">
        <ele>379.3</ele>
        <time>2022-08-30T11:29:03Z</time>
      </trkpt>
      <trkpt lat="43.31537" lon="-1.43475">
        <ele>378.9</ele>
        <time>2022-08-30T11:29:04Z</time>
      </trkpt>
      <trkpt lat="43.31542" lon="-1.43473">
        <ele>378.6</ele>
        <time>2022-08-30T11:29:05Z</time>
      </trkpt>
      <trkpt lat="43.31548" lon="-1.43473">
        <ele>378.2</ele>
        <time>2022-08-30T11:29:06Z</time>
      </trkpt>
      <trkpt lat="43.31554" lon="-1.43472">
        <ele>377.8</ele>
        <time>2022-08-30T11:29:07Z</time>
      </trkpt>
      <trkpt lat="43.3156" lon="-1.4347">
        <ele>377.4</ele>
        <time>2022-08-30T11:29:08Z</time>
      </trkpt>
      <trkpt lat="43.31566" lon="-1.43469">
        <ele>376.9</ele>
        <time>2022-08-30T11:29:09Z</time>
      </trkpt>
      <trkpt lat="43.31572" lon="-1.43467">
        <ele>376.4</ele>
        <time>2022-08-30T11:29:10Z</time>
      </trkpt>
      <trkpt lat="43.31579" lon="-1.43466">
        <ele>375.9</ele>
        <time>2022-08-30T11:29:11Z</time>
      </trkpt>
      <trkpt lat="43.31585" lon="-1.43464">
        <ele>375.4</ele>
        <time>2022-08-30T11:29:12Z</time>
      </trkpt>
      <trkpt lat="43.31591" lon="-1.43462">
        <ele>374.7</ele>
        <time>2022-08-30T11:29:13Z</time>
      </trkpt>
      <trkpt lat="43.31598" lon="-1.4346">
        <ele>374</ele>
        <time>2022-08-30T11:29:14Z</time>
      </trkpt>
      <trkpt lat="43.31605" lon="-1.43458">
        <ele>373.2</ele>
        <time>2022-08-30T11:29:15Z</time>
      </trkpt>
      <trkpt lat="43.31612" lon="-1.43456">
        <ele>372.4</ele>
        <time>2022-08-30T11:29:16Z</time>
      </trkpt>
      <trkpt lat="43.31619" lon="-1.43454">
        <ele>371.6</ele>
        <time>2022-08-30T11:29:17Z</time>
      </trkpt>
      <trkpt lat="43.31626" lon="-1.43451">
        <ele>370.8</ele>
        <time>2022-08-30T11:29:18Z</time>
      </trkpt>
      <trkpt lat="43.31632" lon="-1.43448">
        <ele>370</ele>
        <time>2022-08-30T11:29:19Z</time>
      </trkpt>
      <trkpt lat="43.31639" lon="-1.43447">
        <ele>369.3</ele>
        <time>2022-08-30T11:29:20Z</time>
      </trkpt>
      <trkpt lat="43.31645" lon="-1.43446">
        <ele>368.6</ele>
        <time>2022-08-30T11:29:21Z</time>
      </trkpt>
      <trkpt lat="43.3165" lon="-1.43447">
        <ele>368.1</ele>
        <time>2022-08-30T11:29:22Z</time>
      </trkpt>
      <trkpt lat="43.31654" lon="-1.43448">
        <ele>367.5</ele>
        <time>2022-08-30T11:29:23Z</time>
      </trkpt>
      <trkpt lat="43.31658" lon="-1.4345">
        <ele>367</ele>
        <time>2022-08-30T11:29:24Z</time>
      </trkpt>
      <trkpt lat="43.31662" lon="-1.43452">
        <ele>366.4</ele>
        <time>2022-08-30T11:29:25Z</time>
      </trkpt>
      <trkpt lat="43.31667" lon="-1.43455">
        <ele>365.4</ele>
        <time>2022-08-30T11:29:26Z</time>
      </trkpt>
      <trkpt lat="43.31671" lon="-1.43458">
        <ele>364.6</ele>
        <time>2022-08-30T11:29:27Z</time>
      </trkpt>
      <trkpt lat="43.31675" lon="-1.43461">
        <ele>363.8</ele>
        <time>2022-08-30T11:29:28Z</time>
      </trkpt>
      <trkpt lat="43.31678" lon="-1.43463">
        <ele>363</ele>
        <time>2022-08-30T11:29:29Z</time>
      </trkpt>
      <trkpt lat="43.31682" lon="-1.43464">
        <ele>362.1</ele>
        <time>2022-08-30T11:29:30Z</time>
      </trkpt>
      <trkpt lat="43.31686" lon="-1.43466">
        <ele>361.2</ele>
        <time>2022-08-30T11:29:31Z</time>
      </trkpt>
      <trkpt lat="43.3169" lon="-1.43467">
        <ele>360.3</ele>
        <time>2022-08-30T11:29:32Z</time>
      </trkpt>
      <trkpt lat="43.31694" lon="-1.43468">
        <ele>359.3</ele>
        <time>2022-08-30T11:29:33Z</time>
      </trkpt>
      <trkpt lat="43.31697" lon="-1.43469">
        <ele>358.4</ele>
        <time>2022-08-30T11:29:34Z</time>
      </trkpt>
      <trkpt lat="43.31701" lon="-1.4347">
        <ele>357.4</ele>
        <time>2022-08-30T11:29:35Z</time>
      </trkpt>
      <trkpt lat="43.31705" lon="-1.43471">
        <ele>356.4</ele>
        <time>2022-08-30T11:29:36Z</time>
      </trkpt>
      <trkpt lat="43.31709" lon="-1.43472">
        <ele>355.2</ele>
        <time>2022-08-30T11:29:37Z</time>
      </trkpt>
      <trkpt lat="43.31713" lon="-1.43474">
        <ele>353.9</ele>
        <time>2022-08-30T11:29:38Z</time>
      </trkpt>
      <trkpt lat="43.31718" lon="-1.43476">
        <ele>352.6</ele>
        <time>2022-08-30T11:29:39Z</time>
      </trkpt>
      <trkpt lat="43.31722" lon="-1.43478">
        <ele>351.3</ele>
        <time>2022-08-30T11:29:40Z</time>
      </trkpt>
      <trkpt lat="43.31727" lon="-1.4348">
        <ele>350</ele>
        <time>2022-08-30T11:29:41Z</time>
      </trkpt>
      <trkpt lat="43.31732" lon="-1.43482">
        <ele>348.7</ele>
        <time>2022-08-30T11:29:42Z</time>
      </trkpt>
      <trkpt lat="43.31737" lon="-1.43484">
        <ele>347.3</ele>
        <time>2022-08-30T11:29:43Z</time>
      </trkpt>
      <trkpt lat="43.31742" lon="-1.43486">
        <ele>345.9</ele>
        <time>2022-08-30T11:29:44Z</time>
      </trkpt>
      <trkpt lat="43.31747" lon="-1.43487">
        <ele>344.7</ele>
        <time>2022-08-30T11:29:45Z</time>
      </trkpt>
      <trkpt lat="43.31752" lon="-1.43487">
        <ele>343.6</ele>
        <time>2022-08-30T11:29:46Z</time>
      </trkpt>
      <trkpt lat="43.31757" lon="-1.43488">
        <ele>342.4</ele>
        <time>2022-08-30T11:29:47Z</time>
      </trkpt>
      <trkpt lat="43.31764" lon="-1.43488">
        <ele>341.2</ele>
        <time>2022-08-30T11:29:48Z</time>
      </trkpt>
      <trkpt lat="43.3177" lon="-1.43488">
        <ele>340.2</ele>
        <time>2022-08-30T11:29:49Z</time>
      </trkpt>
      <trkpt lat="43.31776" lon="-1.43487">
        <ele>339.2</ele>
        <time>2022-08-30T11:29:50Z</time>
      </trkpt>
      <trkpt lat="43.31783" lon="-1.43485">
        <ele>338.4</ele>
        <time>2022-08-30T11:29:51Z</time>
      </trkpt>
      <trkpt lat="43.31788" lon="-1.43482">
        <ele>337.8</ele>
        <time>2022-08-30T11:29:52Z</time>
      </trkpt>
      <trkpt lat="43.31792" lon="-1.43479">
        <ele>337.2</ele>
        <time>2022-08-30T11:29:53Z</time>
      </trkpt>
      <trkpt lat="43.31797" lon="-1.43476">
        <ele>336.7</ele>
        <time>2022-08-30T11:29:54Z</time>
      </trkpt>
      <trkpt lat="43.31801" lon="-1.43472">
        <ele>336</ele>
        <time>2022-08-30T11:29:55Z</time>
      </trkpt>
      <trkpt lat="43.31806" lon="-1.43466">
        <ele>335.3</ele>
        <time>2022-08-30T11:29:56Z</time>
      </trkpt>
      <trkpt lat="43.31811" lon="-1.4346">
        <ele>334.7</ele>
        <time>2022-08-30T11:29:57Z</time>
      </trkpt>
      <trkpt lat="43.31816" lon="-1.43455">
        <ele>334.1</ele>
        <time>2022-08-30T11:29:58Z</time>
      </trkpt>
      <trkpt lat="43.3182" lon="-1.43451">
        <ele>333.6</ele>
        <time>2022-08-30T11:29:59Z</time>
      </trkpt>
      <trkpt lat="43.31825" lon="-1.43447">
        <ele>333</ele>
        <time>2022-08-30T11:30:00Z</time>
      </trkpt>
      <trkpt lat="43.3183" lon="-1.43444">
        <ele>332.4</ele>
        <time>2022-08-30T11:30:01Z</time>
      </trkpt>
      <trkpt lat="43.31836" lon="-1.43442">
        <ele>331.6</ele>
        <time>2022-08-30T11:30:02Z</time>
      </trkpt>
      <trkpt lat="43.31842" lon="-1.43439">
        <ele>330.8</ele>
        <time>2022-08-30T11:30:03Z</time>
      </trkpt>
      <trkpt lat="43.31849" lon="-1.43436">
        <ele>330</ele>
        <time>2022-08-30T11:30:04Z</time>
      </trkpt>
      <trkpt lat="43.31856" lon="-1.43432">
        <ele>329.3</ele>
        <time>2022-08-30T11:30:05Z</time>
      </trkpt>
      <trkpt lat="43.31862" lon="-1.43429">
        <ele>328.8</ele>
        <time>2022-08-30T11:30:06Z</time>
      </trkpt>
      <trkpt lat="43.31869" lon="-1.43428">
        <ele>328.2</ele>
        <time>2022-08-30T11:30:07Z</time>
      </trkpt>
      <trkpt lat="43.31875" lon="-1.43429">
        <ele>327.6</ele>
        <time>2022-08-30T11:30:08Z</time>
      </trkpt>
      <trkpt lat="43.31882" lon="-1.43429">
        <ele>326.9</ele>
        <time>2022-08-30T11:30:09Z</time>
      </trkpt>
      <trkpt lat="43.31889" lon="-1.4343">
        <ele>326</ele>
        <time>2022-08-30T11:30:10Z</time>
      </trkpt>
      <trkpt lat="43.31895" lon="-1.43431">
        <ele>325</ele>
        <time>2022-08-30T11:30:11Z</time>
      </trkpt>
      <trkpt lat="43.31902" lon="-1.43432">
        <ele>323.8</ele>
        <time>2022-08-30T11:30:12Z</time>
      </trkpt>
      <trkpt lat="43.31909" lon="-1.43434">
        <ele>322.4</ele>
        <time>2022-08-30T11:30:13Z</time>
      </trkpt>
      <trkpt lat="43.31915" lon="-1.43437">
        <ele>321</ele>
        <time>2022-08-30T11:30:14Z</time>
      </trkpt>
      <trkpt lat="43.31921" lon="-1.43438">
        <ele>319.6</ele>
        <time>2022-08-30T11:30:15Z</time>
      </trkpt>
      <trkpt lat="43.31926" lon="-1.43441">
        <ele>318.4</ele>
        <time>2022-08-30T11:30:16Z</time>
      </trkpt>
      <trkpt lat="43.31931" lon="-1.43443">
        <ele>317.1</ele>
        <time>2022-08-30T11:30:17Z</time>
      </trkpt>
      <trkpt lat="43.31936" lon="-1.43447">
        <ele>316</ele>
        <time>2022-08-30T11:30:18Z</time>
      </trkpt>
      <trkpt lat="43.31941" lon="-1.43449">
        <ele>314.8</ele>
        <time>2022-08-30T11:30:19Z</time>
      </trkpt>
      <trkpt lat="43.31945" lon="-1.4345">
        <ele>313.6</ele>
        <time>2022-08-30T11:30:20Z</time>
      </trkpt>
      <trkpt lat="43.3195" lon="-1.4345">
        <ele>312.5</ele>
        <time>2022-08-30T11:30:21Z</time>
      </trkpt>
      <trkpt lat="43.31955" lon="-1.4345">
        <ele>311.4</ele>
        <time>2022-08-30T11:30:22Z</time>
      </trkpt>
      <trkpt lat="43.31959" lon="-1.43449">
        <ele>310.3</ele>
        <time>2022-08-30T11:30:23Z</time>
      </trkpt>
      <trkpt lat="43.31963" lon="-1.43448">
        <ele>309.3</ele>
        <time>2022-08-30T11:30:24Z</time>
      </trkpt>
      <trkpt lat="43.31967" lon="-1.43446">
        <ele>308.3</ele>
        <time>2022-08-30T11:30:25Z</time>
      </trkpt>
      <trkpt lat="43.31972" lon="-1.43444">
        <ele>307.2</ele>
        <time>2022-08-30T11:30:26Z</time>
      </trkpt>
      <trkpt lat="43.31977" lon="-1.43443">
        <ele>305.9</ele>
        <time>2022-08-30T11:30:27Z</time>
      </trkpt>
      <trkpt lat="43.31983" lon="-1.43441">
        <ele>304.5</ele>
        <time>2022-08-30T11:30:28Z</time>
      </trkpt>
      <trkpt lat="43.31988" lon="-1.43438">
        <ele>303.1</ele>
        <time>2022-08-30T11:30:29Z</time>
      </trkpt>
      <trkpt lat="43.31994" lon="-1.43436">
        <ele>301.8</ele>
        <time>2022-08-30T11:30:30Z</time>
      </trkpt>
      <trkpt lat="43.31999" lon="-1.43433">
        <ele>300.5</ele>
        <time>2022-08-30T11:30:31Z</time>
      </trkpt>
      <trkpt lat="43.32004" lon="-1.43431">
        <ele>299.3</ele>
        <time>2022-08-30T11:30:32Z</time>
      </trkpt>
      <trkpt lat="43.32009" lon="-1.43429">
        <ele>297.9</ele>
        <time>2022-08-30T11:30:33Z</time>
      </trkpt>
      <trkpt lat="43.32015" lon="-1.43427">
        <ele>296.6</ele>
        <time>2022-08-30T11:30:34Z</time>
      </trkpt>
      <trkpt lat="43.32021" lon="-1.43425">
        <ele>295.1</ele>
        <time>2022-08-30T11:30:35Z</time>
      </trkpt>
      <trkpt lat="43.32027" lon="-1.43422">
        <ele>293.7</ele>
        <time>2022-08-30T11:30:36Z</time>
      </trkpt>
      <trkpt lat="43.32033" lon="-1.43419">
        <ele>292.4</ele>
        <time>2022-08-30T11:30:37Z</time>
      </trkpt>
      <trkpt lat="43.32038" lon="-1.43416">
        <ele>291.2</ele>
        <time>2022-08-30T11:30:38Z</time>
      </trkpt>
      <trkpt lat="43.32043" lon="-1.43414">
        <ele>290.1</ele>
        <time>2022-08-30T11:30:39Z</time>
      </trkpt>
      <trkpt lat="43.32048" lon="-1.43412">
        <ele>289.1</ele>
        <time>2022-08-30T11:30:40Z</time>
      </trkpt>
      <trkpt lat="43.32054" lon="-1.43411">
        <ele>288.1</ele>
        <time>2022-08-30T11:30:41Z</time>
      </trkpt>
      <trkpt lat="43.3206" lon="-1.4341">
        <ele>286.9</ele>
        <time>2022-08-30T11:30:42Z</time>
      </trkpt>
      <trkpt lat="43.32066" lon="-1.4341">
        <ele>285.5</ele>
        <time>2022-08-30T11:30:43Z</time>
      </trkpt>
      <trkpt lat="43.32073" lon="-1.43412">
        <ele>284.2</ele>
        <time>2022-08-30T11:30:44Z</time>
      </trkpt>
      <trkpt lat="43.3208" lon="-1.43414">
        <ele>282.9</ele>
        <time>2022-08-30T11:30:45Z</time>
      </trkpt>
      <trkpt lat="43.32086" lon="-1.43416">
        <ele>281.7</ele>
        <time>2022-08-30T11:30:46Z</time>
      </trkpt>
      <trkpt lat="43.32093" lon="-1.43417">
        <ele>280.6</ele>
        <time>2022-08-30T11:30:47Z</time>
      </trkpt>
      <trkpt lat="43.32099" lon="-1.43418">
        <ele>279.4</ele>
        <time>2022-08-30T11:30:48Z</time>
      </trkpt>
      <trkpt lat="43.32105" lon="-1.4342">
        <ele>278.3</ele>
        <time>2022-08-30T11:30:49Z</time>
      </trkpt>
      <trkpt lat="43.32111" lon="-1.43422">
        <ele>277.2</ele>
        <time>2022-08-30T11:30:50Z</time>
      </trkpt>
      <trkpt lat="43.32116" lon="-1.43424">
        <ele>276.1</ele>
        <time>2022-08-30T11:30:51Z</time>
      </trkpt>
      <trkpt lat="43.32121" lon="-1.43426">
        <ele>275.2</ele>
        <time>2022-08-30T11:30:52Z</time>
      </trkpt>
      <trkpt lat="43.32126" lon="-1.43427">
        <ele>274.5</ele>
        <time>2022-08-30T11:30:53Z</time>
      </trkpt>
      <trkpt lat="43.3213" lon="-1.43428">
        <ele>273.6</ele>
        <time>2022-08-30T11:30:54Z</time>
      </trkpt>
      <trkpt lat="43.32134" lon="-1.4343">
        <ele>272.6</ele>
        <time>2022-08-30T11:30:55Z</time>
      </trkpt>
      <trkpt lat="43.32139" lon="-1.43432">
        <ele>271.5</ele>
        <time>2022-08-30T11:30:56Z</time>
      </trkpt>
      <trkpt lat="43.32144" lon="-1.43435">
        <ele>270.2</ele>
        <time>2022-08-30T11:30:57Z</time>
      </trkpt>
      <trkpt lat="43.32149" lon="-1.43438">
        <ele>269</ele>
        <time>2022-08-30T11:30:58Z</time>
      </trkpt>
      <trkpt lat="43.32154" lon="-1.43441">
        <ele>267.9</ele>
        <time>2022-08-30T11:30:59Z</time>
      </trkpt>
      <trkpt lat="43.3216" lon="-1.43444">
        <ele>266.8</ele>
        <time>2022-08-30T11:31:00Z</time>
      </trkpt>
      <trkpt lat="43.32165" lon="-1.43446">
        <ele>265.7</ele>
        <time>2022-08-30T11:31:01Z</time>
      </trkpt>
      <trkpt lat="43.3217" lon="-1.43449">
        <ele>264.8</ele>
        <time>2022-08-30T11:31:02Z</time>
      </trkpt>
      <trkpt lat="43.32175" lon="-1.43451">
        <ele>263.9</ele>
        <time>2022-08-30T11:31:03Z</time>
      </trkpt>
      <trkpt lat="43.3218" lon="-1.43453">
        <ele>263</ele>
        <time>2022-08-30T11:31:04Z</time>
      </trkpt>
      <trkpt lat="43.32184" lon="-1.43455">
        <ele>262.2</ele>
        <time>2022-08-30T11:31:05Z</time>
      </trkpt>
      <trkpt lat="43.32189" lon="-1.43456">
        <ele>261.4</ele>
        <time>2022-08-30T11:31:06Z</time>
      </trkpt>
      <trkpt lat="43.32195" lon="-1.43456">
        <ele>260.5</ele>
        <time>2022-08-30T11:31:07Z</time>
      </trkpt>
      <trkpt lat="43.32201" lon="-1.43455">
        <ele>259.6</ele>
        <time>2022-08-30T11:31:08Z</time>
      </trkpt>
      <trkpt lat="43.32208" lon="-1.43454">
        <ele>258.7</ele>
        <time>2022-08-30T11:31:09Z</time>
      </trkpt>
      <trkpt lat="43.32213" lon="-1.43453">
        <ele>257.9</ele>
        <time>2022-08-30T11:31:10Z</time>
      </trkpt>
      <trkpt lat="43.32218" lon="-1.43451">
        <ele>257.2</ele>
        <time>2022-08-30T11:31:11Z</time>
      </trkpt>
      <trkpt lat="43.32222" lon="-1.43449">
        <ele>256.7</ele>
        <time>2022-08-30T11:31:12Z</time>
      </trkpt>
      <trkpt lat="43.32226" lon="-1.43446">
        <ele>256.3</ele>
        <time>2022-08-30T11:31:13Z</time>
      </trkpt>
      <trkpt lat="43.32229" lon="-1.43441">
        <ele>255.9</ele>
        <time>2022-08-30T11:31:14Z</time>
      </trkpt>
      <trkpt lat="43.32232" lon="-1.43435">
        <ele>255.5</ele>
        <time>2022-08-30T11:31:15Z</time>
      </trkpt>
      <trkpt lat="43.32233" lon="-1.43431">
        <ele>255.2</ele>
        <time>2022-08-30T11:31:16Z</time>
      </trkpt>
      <trkpt lat="43.32234" lon="-1.43428">
        <ele>254.3</ele>
        <time>2022-08-30T11:31:17Z</time>
      </trkpt>
      <trkpt lat="43.32234" lon="-1.43426">
        <ele>254.2</ele>
        <time>2022-08-30T11:31:18Z</time>
      </trkpt>
      <trkpt lat="43.32234" lon="-1.43425">
        <ele>254.1</ele>
        <time>2022-08-30T11:31:19Z</time>
      </trkpt>
      <trkpt lat="43.32235" lon="-1.43426">
        <ele>254</ele>
        <time>2022-08-30T11:31:20Z</time>
      </trkpt>
      <trkpt lat="43.32235" lon="-1.43426">
        <ele>254</ele>
        <time>2022-08-30T11:31:21Z</time>
      </trkpt>
      <trkpt lat="43.32235" lon="-1.43426">
        <ele>253.9</ele>
        <time>2022-08-30T11:31:22Z</time>
      </trkpt>
      <trkpt lat="43.32236" lon="-1.43426">
        <ele>253.9</ele>
        <time>2022-08-30T11:31:23Z</time>
      </trkpt>
      <trkpt lat="43.32236" lon="-1.43426">
        <ele>253.9</ele>
        <time>2022-08-30T11:31:24Z</time>
      </trkpt>
      <trkpt lat="43.32236" lon="-1.43426">
        <ele>253.8</ele>
        <time>2022-08-30T11:31:25Z</time>
      </trkpt>
      <trkpt lat="43.32236" lon="-1.43426">
        <ele>253.8</ele>
        <time>2022-08-30T11:31:26Z</time>
      </trkpt>
      <trkpt lat="43.32237" lon="-1.43426">
        <ele>253.7</ele>
        <time>2022-08-30T11:31:27Z</time>
      </trkpt>
      <trkpt lat="43.32237" lon="-1.43426">
        <ele>253.7</ele>
        <time>2022-08-30T11:31:28Z</time>
      </trkpt>
      <trkpt lat="43.32237" lon="-1.43426">
        <ele>253.6</ele>
        <time>2022-08-30T11:31:29Z</time>
      </trkpt>
      <trkpt lat="43.32238" lon="-1.43426">
        <ele>253.6</ele>
        <time>2022-08-30T11:31:30Z</time>
      </trkpt>
      <trkpt lat="43.32238" lon="-1.43426">
        <ele>253.6</ele>
        <time>2022-08-30T11:33:03Z</time>
      </trkpt>
      <trkpt lat="43.32238" lon="-1.43426">
        <ele>253.5</ele>
        <time>2022-08-30T11:33:04Z</time>
      </trkpt>
      <trkpt lat="43.32239" lon="-1.43426">
        <ele>253.5</ele>
        <time>2022-08-30T11:33:05Z</time>
      </trkpt>
      <trkpt lat="43.32239" lon="-1.4343">
        <ele>253.1</ele>
        <time>2022-08-30T11:33:06Z</time>
      </trkpt>
      <trkpt lat="43.32239" lon="-1.43435">
        <ele>252.5</ele>
        <time>2022-08-30T11:33:07Z</time>
      </trkpt>
      <trkpt lat="43.32239" lon="-1.43437">
        <ele>252.3</ele>
        <time>2022-08-30T11:33:08Z</time>
      </trkpt>
      <trkpt lat="43.3224" lon="-1.43441">
        <ele>251.8</ele>
        <time>2022-08-30T11:33:09Z</time>
      </trkpt>
      <trkpt lat="43.32239" lon="-1.43448">
        <ele>251.1</ele>
        <time>2022-08-30T11:33:10Z</time>
      </trkpt>
      <trkpt lat="43.32239" lon="-1.43455">
        <ele>250.3</ele>
        <time>2022-08-30T11:33:11Z</time>
      </trkpt>
      <trkpt lat="43.32238" lon="-1.43465">
        <ele>249.2</ele>
        <time>2022-08-30T11:33:12Z</time>
      </trkpt>
      <trkpt lat="43.32237" lon="-1.43474">
        <ele>248</ele>
        <time>2022-08-30T11:33:13Z</time>
      </trkpt>
      <trkpt lat="43.32237" lon="-1.43484">
        <ele>246.8</ele>
        <time>2022-08-30T11:33:14Z</time>
      </trkpt>
      <trkpt lat="43.32237" lon="-1.43492">
        <ele>245.8</ele>
        <time>2022-08-30T11:33:15Z</time>
      </trkpt>
      <trkpt lat="43.32236" lon="-1.435">
        <ele>244.8</ele>
        <time>2022-08-30T11:33:16Z</time>
      </trkpt>
      <trkpt lat="43.32235" lon="-1.43508">
        <ele>243.8</ele>
        <time>2022-08-30T11:33:17Z</time>
      </trkpt>
      <trkpt lat="43.32234" lon="-1.43515">
        <ele>242.8</ele>
        <time>2022-08-30T11:33:18Z</time>
      </trkpt>
      <trkpt lat="43.32233" lon="-1.43523">
        <ele>241.8</ele>
        <time>2022-08-30T11:33:19Z</time>
      </trkpt>
      <trkpt lat="43.32231" lon="-1.4353">
        <ele>240.9</ele>
        <time>2022-08-30T11:33:20Z</time>
      </trkpt>
      <trkpt lat="43.32229" lon="-1.43536">
        <ele>240.1</ele>
        <time>2022-08-30T11:33:21Z</time>
      </trkpt>
      <trkpt lat="43.32229" lon="-1.43543">
        <ele>239.3</ele>
        <time>2022-08-30T11:33:22Z</time>
      </trkpt>
      <trkpt lat="43.32232" lon="-1.43549">
        <ele>237.4</ele>
        <time>2022-08-30T11:33:23Z</time>
      </trkpt>
      <trkpt lat="43.32237" lon="-1.43553">
        <ele>236.2</ele>
        <time>2022-08-30T11:33:24Z</time>
      </trkpt>
      <trkpt lat="43.32244" lon="-1.43554">
        <ele>234.7</ele>
        <time>2022-08-30T11:33:25Z</time>
      </trkpt>
      <trkpt lat="43.32252" lon="-1.43552">
        <ele>233.1</ele>
        <time>2022-08-30T11:33:26Z</time>
      </trkpt>
      <trkpt lat="43.3226" lon="-1.4355">
        <ele>231.5</ele>
        <time>2022-08-30T11:33:27Z</time>
      </trkpt>
      <trkpt lat="43.32267" lon="-1.43547">
        <ele>230</ele>
        <time>2022-08-30T11:33:28Z</time>
      </trkpt>
      <trkpt lat="43.32273" lon="-1.43547">
        <ele>228.9</ele>
        <time>2022-08-30T11:33:29Z</time>
      </trkpt>
      <trkpt lat="43.32278" lon="-1.43551">
        <ele>227.8</ele>
        <time>2022-08-30T11:33:30Z</time>
      </trkpt>
      <trkpt lat="43.3228" lon="-1.43558">
        <ele>226.7</ele>
        <time>2022-08-30T11:33:31Z</time>
      </trkpt>
      <trkpt lat="43.3228" lon="-1.43567">
        <ele>225.6</ele>
        <time>2022-08-30T11:33:32Z</time>
      </trkpt>
      <trkpt lat="43.3228" lon="-1.43575">
        <ele>224.7</ele>
        <time>2022-08-30T11:33:33Z</time>
      </trkpt>
      <trkpt lat="43.32281" lon="-1.43582">
        <ele>223.8</ele>
        <time>2022-08-30T11:33:34Z</time>
      </trkpt>
      <trkpt lat="43.32285" lon="-1.43586">
        <ele>223.1</ele>
        <time>2022-08-30T11:33:35Z</time>
      </trkpt>
      <trkpt lat="43.32291" lon="-1.43586">
        <ele>222.1</ele>
        <time>2022-08-30T11:33:36Z</time>
      </trkpt>
      <trkpt lat="43.32297" lon="-1.43583">
        <ele>221.1</ele>
        <time>2022-08-30T11:33:37Z</time>
      </trkpt>
      <trkpt lat="43.32303" lon="-1.43576">
        <ele>219.9</ele>
        <time>2022-08-30T11:33:38Z</time>
      </trkpt>
      <trkpt lat="43.32308" lon="-1.43569">
        <ele>218.8</ele>
        <time>2022-08-30T11:33:39Z</time>
      </trkpt>
      <trkpt lat="43.32312" lon="-1.43562">
        <ele>217.7</ele>
        <time>2022-08-30T11:33:40Z</time>
      </trkpt>
      <trkpt lat="43.32316" lon="-1.43555">
        <ele>216.7</ele>
        <time>2022-08-30T11:33:41Z</time>
      </trkpt>
      <trkpt lat="43.32319" lon="-1.4355">
        <ele>215.9</ele>
        <time>2022-08-30T11:33:42Z</time>
      </trkpt>
      <trkpt lat="43.32323" lon="-1.43545">
        <ele>214.8</ele>
        <time>2022-08-30T11:33:43Z</time>
      </trkpt>
      <trkpt lat="43.32327" lon="-1.43541">
        <ele>213.8</ele>
        <time>2022-08-30T11:33:44Z</time>
      </trkpt>
      <trkpt lat="43.32332" lon="-1.4354">
        <ele>212.9</ele>
        <time>2022-08-30T11:33:45Z</time>
      </trkpt>
      <trkpt lat="43.32339" lon="-1.43545">
        <ele>211.4</ele>
        <time>2022-08-30T11:33:46Z</time>
      </trkpt>
      <trkpt lat="43.32349" lon="-1.4355">
        <ele>209.6</ele>
        <time>2022-08-30T11:33:47Z</time>
      </trkpt>
      <trkpt lat="43.3236" lon="-1.43553">
        <ele>207.9</ele>
        <time>2022-08-30T11:33:48Z</time>
      </trkpt>
      <trkpt lat="43.32371" lon="-1.43552">
        <ele>206.4</ele>
        <time>2022-08-30T11:33:49Z</time>
      </trkpt>
      <trkpt lat="43.32382" lon="-1.43551">
        <ele>204.7</ele>
        <time>2022-08-30T11:33:50Z</time>
      </trkpt>
      <trkpt lat="43.32391" lon="-1.43547">
        <ele>203</ele>
        <time>2022-08-30T11:33:51Z</time>
      </trkpt>
      <trkpt lat="43.324" lon="-1.43544">
        <ele>201.2</ele>
        <time>2022-08-30T11:33:52Z</time>
      </trkpt>
      <trkpt lat="43.32407" lon="-1.4354">
        <ele>199.6</ele>
        <time>2022-08-30T11:33:53Z</time>
      </trkpt>
      <trkpt lat="43.32414" lon="-1.43536">
        <ele>198</ele>
        <time>2022-08-30T11:33:54Z</time>
      </trkpt>
      <trkpt lat="43.32423" lon="-1.43532">
        <ele>196.1</ele>
        <time>2022-08-30T11:33:55Z</time>
      </trkpt>
      <trkpt lat="43.32434" lon="-1.43529">
        <ele>194</ele>
        <time>2022-08-30T11:33:56Z</time>
      </trkpt>
      <trkpt lat="43.32445" lon="-1.43523">
        <ele>191.8</ele>
        <time>2022-08-30T11:33:57Z</time>
      </trkpt>
      <trkpt lat="43.32455" lon="-1.43516">
        <ele>189.8</ele>
        <time>2022-08-30T11:33:58Z</time>
      </trkpt>
      <trkpt lat="43.32465" lon="-1.43509">
        <ele>188.1</ele>
        <time>2022-08-30T11:33:59Z</time>
      </trkpt>
      <trkpt lat="43.32474" lon="-1.43502">
        <ele>186.3</ele>
        <time>2022-08-30T11:34:00Z</time>
      </trkpt>
      <trkpt lat="43.32482" lon="-1.43495">
        <ele>184.7</ele>
        <time>2022-08-30T11:34:01Z</time>
      </trkpt>
      <trkpt lat="43.32491" lon="-1.43491">
        <ele>183.1</ele>
        <time>2022-08-30T11:34:02Z</time>
      </trkpt>
      <trkpt lat="43.325" lon="-1.43487">
        <ele>181.5</ele>
        <time>2022-08-30T11:34:03Z</time>
      </trkpt>
      <trkpt lat="43.3251" lon="-1.43482">
        <ele>180</ele>
        <time>2022-08-30T11:34:04Z</time>
      </trkpt>
      <trkpt lat="43.3252" lon="-1.43477">
        <ele>178.9</ele>
        <time>2022-08-30T11:34:05Z</time>
      </trkpt>
      <trkpt lat="43.32528" lon="-1.43471">
        <ele>178.1</ele>
        <time>2022-08-30T11:34:06Z</time>
      </trkpt>
      <trkpt lat="43.32534" lon="-1.43463">
        <ele>177.5</ele>
        <time>2022-08-30T11:34:07Z</time>
      </trkpt>
      <trkpt lat="43.32535" lon="-1.43456">
        <ele>177</ele>
        <time>2022-08-30T11:34:08Z</time>
      </trkpt>
      <trkpt lat="43.32533" lon="-1.43448">
        <ele>176.4</ele>
        <time>2022-08-30T11:34:09Z</time>
      </trkpt>
      <trkpt lat="43.32531" lon="-1.43442">
        <ele>175.8</ele>
        <time>2022-08-30T11:34:10Z</time>
      </trkpt>
      <trkpt lat="43.3253" lon="-1.43434">
        <ele>175.1</ele>
        <time>2022-08-30T11:34:11Z</time>
      </trkpt>
      <trkpt lat="43.32531" lon="-1.43425">
        <ele>174.2</ele>
        <time>2022-08-30T11:34:12Z</time>
      </trkpt>
      <trkpt lat="43.32533" lon="-1.43416">
        <ele>173.1</ele>
        <time>2022-08-30T11:34:13Z</time>
      </trkpt>
      <trkpt lat="43.32536" lon="-1.43404">
        <ele>171.7</ele>
        <time>2022-08-30T11:34:14Z</time>
      </trkpt>
      <trkpt lat="43.32539" lon="-1.43392">
        <ele>170.3</ele>
        <time>2022-08-30T11:34:15Z</time>
      </trkpt>
      <trkpt lat="43.32543" lon="-1.43381">
        <ele>169</ele>
        <time>2022-08-30T11:34:16Z</time>
      </trkpt>
      <trkpt lat="43.32546" lon="-1.43371">
        <ele>168</ele>
        <time>2022-08-30T11:34:17Z</time>
      </trkpt>
      <trkpt lat="43.3255" lon="-1.43364">
        <ele>167.1</ele>
        <time>2022-08-30T11:34:18Z</time>
      </trkpt>
      <trkpt lat="43.32555" lon="-1.43359">
        <ele>166.7</ele>
        <time>2022-08-30T11:34:19Z</time>
      </trkpt>
      <trkpt lat="43.32562" lon="-1.43361">
        <ele>166</ele>
        <time>2022-08-30T11:34:20Z</time>
      </trkpt>
      <trkpt lat="43.32567" lon="-1.43368">
        <ele>165.4</ele>
        <time>2022-08-30T11:34:21Z</time>
      </trkpt>
      <trkpt lat="43.32568" lon="-1.43378">
        <ele>164.8</ele>
        <time>2022-08-30T11:34:22Z</time>
      </trkpt>
      <trkpt lat="43.3257" lon="-1.43389">
        <ele>164.1</ele>
        <time>2022-08-30T11:34:23Z</time>
      </trkpt>
      <trkpt lat="43.32572" lon="-1.43398">
        <ele>163.5</ele>
        <time>2022-08-30T11:34:24Z</time>
      </trkpt>
      <trkpt lat="43.32576" lon="-1.43407">
        <ele>162.6</ele>
        <time>2022-08-30T11:34:25Z</time>
      </trkpt>
      <trkpt lat="43.32579" lon="-1.43416">
        <ele>161.6</ele>
        <time>2022-08-30T11:34:26Z</time>
      </trkpt>
      <trkpt lat="43.32582" lon="-1.43425">
        <ele>160.5</ele>
        <time>2022-08-30T11:34:27Z</time>
      </trkpt>
      <trkpt lat="43.32586" lon="-1.43434">
        <ele>159.3</ele>
        <time>2022-08-30T11:34:28Z</time>
      </trkpt>
      <trkpt lat="43.3259" lon="-1.43445">
        <ele>158</ele>
        <time>2022-08-30T11:34:29Z</time>
      </trkpt>
      <trkpt lat="43.32595" lon="-1.43458">
        <ele>156.4</ele>
        <time>2022-08-30T11:34:30Z</time>
      </trkpt>
      <trkpt lat="43.32599" lon="-1.43474">
        <ele>154.8</ele>
        <time>2022-08-30T11:34:31Z</time>
      </trkpt>
      <trkpt lat="43.32601" lon="-1.4349">
        <ele>153.2</ele>
        <time>2022-08-30T11:34:32Z</time>
      </trkpt>
      <trkpt lat="43.32603" lon="-1.43505">
        <ele>151.6</ele>
        <time>2022-08-30T11:34:33Z</time>
      </trkpt>
      <trkpt lat="43.32606" lon="-1.4352">
        <ele>150</ele>
        <time>2022-08-30T11:34:34Z</time>
      </trkpt>
      <trkpt lat="43.32608" lon="-1.43534">
        <ele>148.4</ele>
        <time>2022-08-30T11:34:35Z</time>
      </trkpt>
      <trkpt lat="43.3261" lon="-1.43549">
        <ele>146.9</ele>
        <time>2022-08-30T11:34:36Z</time>
      </trkpt>
      <trkpt lat="43.32611" lon="-1.43565">
        <ele>145.3</ele>
        <time>2022-08-30T11:34:37Z</time>
      </trkpt>
      <trkpt lat="43.32611" lon="-1.43581">
        <ele>143.8</ele>
        <time>2022-08-30T11:34:38Z</time>
      </trkpt>
      <trkpt lat="43.3261" lon="-1.43598">
        <ele>142.3</ele>
        <time>2022-08-30T11:34:39Z</time>
      </trkpt>
      <trkpt lat="43.32608" lon="-1.43614">
        <ele>141.2</ele>
        <time>2022-08-30T11:34:40Z</time>
      </trkpt>
      <trkpt lat="43.32604" lon="-1.43629">
        <ele>140.3</ele>
        <time>2022-08-30T11:34:41Z</time>
      </trkpt>
      <trkpt lat="43.326" lon="-1.43641">
        <ele>139.7</ele>
        <time>2022-08-30T11:34:42Z</time>
      </trkpt>
      <trkpt lat="43.32596" lon="-1.43653">
        <ele>139.2</ele>
        <time>2022-08-30T11:34:43Z</time>
      </trkpt>
      <trkpt lat="43.32595" lon="-1.43665">
        <ele>138.7</ele>
        <time>2022-08-30T11:34:44Z</time>
      </trkpt>
      <trkpt lat="43.32595" lon="-1.43676">
        <ele>138.2</ele>
        <time>2022-08-30T11:34:45Z</time>
      </trkpt>
      <trkpt lat="43.32597" lon="-1.43683">
        <ele>137.8</ele>
        <time>2022-08-30T11:34:46Z</time>
      </trkpt>
      <trkpt lat="43.326" lon="-1.43688">
        <ele>137.5</ele>
        <time>2022-08-30T11:34:47Z</time>
      </trkpt>
      <trkpt lat="43.32605" lon="-1.43691">
        <ele>137.1</ele>
        <time>2022-08-30T11:34:48Z</time>
      </trkpt>
      <trkpt lat="43.32611" lon="-1.43695">
        <ele>136.5</ele>
        <time>2022-08-30T11:34:49Z</time>
      </trkpt>
      <trkpt lat="43.32618" lon="-1.43697">
        <ele>135.8</ele>
        <time>2022-08-30T11:34:50Z</time>
      </trkpt>
      <trkpt lat="43.32624" lon="-1.43697">
        <ele>135.4</ele>
        <time>2022-08-30T11:34:51Z</time>
      </trkpt>
      <trkpt lat="43.32632" lon="-1.43696">
        <ele>135</ele>
        <time>2022-08-30T11:34:52Z</time>
      </trkpt>
      <trkpt lat="43.32639" lon="-1.43695">
        <ele>134.6</ele>
        <time>2022-08-30T11:34:53Z</time>
      </trkpt>
      <trkpt lat="43.32647" lon="-1.43693">
        <ele>134.3</ele>
        <time>2022-08-30T11:34:54Z</time>
      </trkpt>
      <trkpt lat="43.32654" lon="-1.43691">
        <ele>134</ele>
        <time>2022-08-30T11:34:55Z</time>
      </trkpt>
      <trkpt lat="43.32661" lon="-1.43689">
        <ele>133.7</ele>
        <time>2022-08-30T11:34:56Z</time>
      </trkpt>
      <trkpt lat="43.32667" lon="-1.43687">
        <ele>133.5</ele>
        <time>2022-08-30T11:34:57Z</time>
      </trkpt>
      <trkpt lat="43.32674" lon="-1.43686">
        <ele>133.3</ele>
        <time>2022-08-30T11:34:58Z</time>
      </trkpt>
      <trkpt lat="43.3268" lon="-1.43684">
        <ele>133.1</ele>
        <time>2022-08-30T11:34:59Z</time>
      </trkpt>
      <trkpt lat="43.32687" lon="-1.43683">
        <ele>132.9</ele>
        <time>2022-08-30T11:35:00Z</time>
      </trkpt>
      <trkpt lat="43.32693" lon="-1.43682">
        <ele>132.6</ele>
        <time>2022-08-30T11:35:01Z</time>
      </trkpt>
      <trkpt lat="43.32699" lon="-1.4368">
        <ele>132.5</ele>
        <time>2022-08-30T11:35:02Z</time>
      </trkpt>
      <trkpt lat="43.32705" lon="-1.43679">
        <ele>132.3</ele>
        <time>2022-08-30T11:35:03Z</time>
      </trkpt>
      <trkpt lat="43.3271" lon="-1.43678">
        <ele>132.2</ele>
        <time>2022-08-30T11:35:04Z</time>
      </trkpt>
      <trkpt lat="43.32714" lon="-1.43677">
        <ele>132.1</ele>
        <time>2022-08-30T11:35:05Z</time>
      </trkpt>
      <trkpt lat="43.32718" lon="-1.43678">
        <ele>131.9</ele>
        <time>2022-08-30T11:35:06Z</time>
      </trkpt>
      <trkpt lat="43.32723" lon="-1.43678">
        <ele>131.8</ele>
        <time>2022-08-30T11:35:07Z</time>
      </trkpt>
      <trkpt lat="43.32728" lon="-1.43679">
        <ele>131.7</ele>
        <time>2022-08-30T11:35:08Z</time>
      </trkpt>
      <trkpt lat="43.32732" lon="-1.4368">
        <ele>131.5</ele>
        <time>2022-08-30T11:35:09Z</time>
      </trkpt>
      <trkpt lat="43.32737" lon="-1.43682">
        <ele>131.4</ele>
        <time>2022-08-30T11:35:10Z</time>
      </trkpt>
      <trkpt lat="43.32744" lon="-1.4369">
        <ele>131.6</ele>
        <time>2022-08-30T11:35:12Z</time>
      </trkpt>
      <trkpt lat="43.32747" lon="-1.43693">
        <ele>131.9</ele>
        <time>2022-08-30T11:35:13Z</time>
      </trkpt>
      <trkpt lat="43.3275" lon="-1.43694">
        <ele>132.1</ele>
        <time>2022-08-30T11:35:14Z</time>
      </trkpt>
      <trkpt lat="43.32754" lon="-1.43695">
        <ele>132.3</ele>
        <time>2022-08-30T11:35:15Z</time>
      </trkpt>
      <trkpt lat="43.32757" lon="-1.43697">
        <ele>132.6</ele>
        <time>2022-08-30T11:35:16Z</time>
      </trkpt>
      <trkpt lat="43.32761" lon="-1.43698">
        <ele>132.9</ele>
        <time>2022-08-30T11:35:17Z</time>
      </trkpt>
      <trkpt lat="43.32764" lon="-1.437">
        <ele>133.2</ele>
        <time>2022-08-30T11:35:18Z</time>
      </trkpt>
      <trkpt lat="43.32767" lon="-1.43702">
        <ele>133.5</ele>
        <time>2022-08-30T11:35:19Z</time>
      </trkpt>
      <trkpt lat="43.32771" lon="-1.43704">
        <ele>133.7</ele>
        <time>2022-08-30T11:35:20Z</time>
      </trkpt>
      <trkpt lat="43.32774" lon="-1.43705">
        <ele>134</ele>
        <time>2022-08-30T11:35:21Z</time>
      </trkpt>
      <trkpt lat="43.32777" lon="-1.43706">
        <ele>134.3</ele>
        <time>2022-08-30T11:35:22Z</time>
      </trkpt>
      <trkpt lat="43.32779" lon="-1.43708">
        <ele>134.5</ele>
        <time>2022-08-30T11:35:23Z</time>
      </trkpt>
      <trkpt lat="43.32782" lon="-1.43709">
        <ele>134.6</ele>
        <time>2022-08-30T11:35:24Z</time>
      </trkpt>
      <trkpt lat="43.32785" lon="-1.43711">
        <ele>134.9</ele>
        <time>2022-08-30T11:35:25Z</time>
      </trkpt>
      <trkpt lat="43.32786" lon="-1.43711">
        <ele>135</ele>
        <time>2022-08-30T11:35:26Z</time>
      </trkpt>
      <trkpt lat="43.32788" lon="-1.43713">
        <ele>135.1</ele>
        <time>2022-08-30T11:35:27Z</time>
      </trkpt>
      <trkpt lat="43.32789" lon="-1.43714">
        <ele>135.3</ele>
        <time>2022-08-30T11:35:28Z</time>
      </trkpt>
      <trkpt lat="43.32792" lon="-1.43717">
        <ele>135.5</ele>
        <time>2022-08-30T11:35:29Z</time>
      </trkpt>
      <trkpt lat="43.32793" lon="-1.43718">
        <ele>135.6</ele>
        <time>2022-08-30T11:35:30Z</time>
      </trkpt>
      <trkpt lat="43.32796" lon="-1.4372">
        <ele>135.9</ele>
        <time>2022-08-30T11:35:31Z</time>
      </trkpt>
      <trkpt lat="43.32797" lon="-1.4372">
        <ele>135.9</ele>
        <time>2022-08-30T11:35:32Z</time>
      </trkpt>
      <trkpt lat="43.328" lon="-1.43721">
        <ele>136.2</ele>
        <time>2022-08-30T11:35:33Z</time>
      </trkpt>
      <trkpt lat="43.32801" lon="-1.43721">
        <ele>136.2</ele>
        <time>2022-08-30T11:35:34Z</time>
      </trkpt>
      <trkpt lat="43.32802" lon="-1.43721">
        <ele>136.3</ele>
        <time>2022-08-30T11:35:35Z</time>
      </trkpt>
      <trkpt lat="43.32802" lon="-1.43721">
        <ele>136.3</ele>
        <time>2022-08-30T11:35:36Z</time>
      </trkpt>
      <trkpt lat="43.32803" lon="-1.43722">
        <ele>136.4</ele>
        <time>2022-08-30T11:35:37Z</time>
      </trkpt>
      <trkpt lat="43.32803" lon="-1.43723">
        <ele>136.4</ele>
        <time>2022-08-30T11:35:38Z</time>
      </trkpt>
      <trkpt lat="43.32803" lon="-1.43723">
        <ele>136.4</ele>
        <time>2022-08-30T11:35:39Z</time>
      </trkpt>
      <trkpt lat="43.32804" lon="-1.43723">
        <ele>136.5</ele>
        <time>2022-08-30T11:35:40Z</time>
      </trkpt>
      <trkpt lat="43.32804" lon="-1.43723">
        <ele>136.5</ele>
        <time>2022-08-30T11:35:41Z</time>
      </trkpt>
      <trkpt lat="43.32804" lon="-1.43723">
        <ele>136.5</ele>
        <time>2022-08-30T11:35:42Z</time>
      </trkpt>
      <trkpt lat="43.32805" lon="-1.43723">
        <ele>136.5</ele>
        <time>2022-08-30T11:35:43Z</time>
      </trkpt>
      <trkpt lat="43.32805" lon="-1.43723">
        <ele>136.5</ele>
        <time>2022-08-30T11:35:44Z</time>
      </trkpt>
      <trkpt lat="43.32805" lon="-1.43724">
        <ele>136.5</ele>
        <time>2022-08-30T11:35:45Z</time>
      </trkpt>
      <trkpt lat="43.32805" lon="-1.43724">
        <ele>136.6</ele>
        <time>2022-08-30T11:35:46Z</time>
      </trkpt>
      <trkpt lat="43.32805" lon="-1.43724">
        <ele>136.6</ele>
        <time>2022-08-30T11:35:47Z</time>
      </trkpt>
      <trkpt lat="43.32806" lon="-1.43724">
        <ele>136.7</ele>
        <time>2022-08-30T11:35:48Z</time>
      </trkpt>
      <trkpt lat="43.32807" lon="-1.43724">
        <ele>136.7</ele>
        <time>2022-08-30T11:35:49Z</time>
      </trkpt>
      <trkpt lat="43.3281" lon="-1.43726">
        <ele>137</ele>
        <time>2022-08-30T11:35:50Z</time>
      </trkpt>
      <trkpt lat="43.32812" lon="-1.43726">
        <ele>137.1</ele>
        <time>2022-08-30T11:35:51Z</time>
      </trkpt>
      <trkpt lat="43.32815" lon="-1.43728">
        <ele>137.3</ele>
        <time>2022-08-30T11:35:52Z</time>
      </trkpt>
      <trkpt lat="43.32818" lon="-1.43731">
        <ele>137.6</ele>
        <time>2022-08-30T11:35:53Z</time>
      </trkpt>
      <trkpt lat="43.32821" lon="-1.43733">
        <ele>137.8</ele>
        <time>2022-08-30T11:35:54Z</time>
      </trkpt>
      <trkpt lat="43.32824" lon="-1.43736">
        <ele>138.1</ele>
        <time>2022-08-30T11:35:55Z</time>
      </trkpt>
      <trkpt lat="43.32827" lon="-1.43738">
        <ele>138.4</ele>
        <time>2022-08-30T11:35:56Z</time>
      </trkpt>
      <trkpt lat="43.32829" lon="-1.43741">
        <ele>138.7</ele>
        <time>2022-08-30T11:35:57Z</time>
      </trkpt>
      <trkpt lat="43.32832" lon="-1.43743">
        <ele>139.1</ele>
        <time>2022-08-30T11:35:58Z</time>
      </trkpt>
      <trkpt lat="43.32834" lon="-1.43745">
        <ele>139.4</ele>
        <time>2022-08-30T11:35:59Z</time>
      </trkpt>
      <trkpt lat="43.32837" lon="-1.43748">
        <ele>139.9</ele>
        <time>2022-08-30T11:36:00Z</time>
      </trkpt>
      <trkpt lat="43.32838" lon="-1.43748">
        <ele>140</ele>
        <time>2022-08-30T11:36:01Z</time>
      </trkpt>
      <trkpt lat="43.32841" lon="-1.4375">
        <ele>140.4</ele>
        <time>2022-08-30T11:36:02Z</time>
      </trkpt>
      <trkpt lat="43.32842" lon="-1.4375">
        <ele>140.5</ele>
        <time>2022-08-30T11:36:03Z</time>
      </trkpt>
      <trkpt lat="43.32845" lon="-1.43751">
        <ele>140.9</ele>
        <time>2022-08-30T11:36:04Z</time>
      </trkpt>
      <trkpt lat="43.32846" lon="-1.43752">
        <ele>141</ele>
        <time>2022-08-30T11:36:05Z</time>
      </trkpt>
      <trkpt lat="43.32848" lon="-1.43754">
        <ele>141.4</ele>
        <time>2022-08-30T11:36:06Z</time>
      </trkpt>
      <trkpt lat="43.32849" lon="-1.43755">
        <ele>141.5</ele>
        <time>2022-08-30T11:36:07Z</time>
      </trkpt>
      <trkpt lat="43.32851" lon="-1.43757">
        <ele>141.9</ele>
        <time>2022-08-30T11:36:08Z</time>
      </trkpt>
      <trkpt lat="43.32852" lon="-1.43758">
        <ele>142</ele>
        <time>2022-08-30T11:36:09Z</time>
      </trkpt>
      <trkpt lat="43.32855" lon="-1.43758">
        <ele>142.4</ele>
        <time>2022-08-30T11:36:10Z</time>
      </trkpt>
      <trkpt lat="43.32856" lon="-1.43759">
        <ele>142.5</ele>
        <time>2022-08-30T11:36:11Z</time>
      </trkpt>
      <trkpt lat="43.32859" lon="-1.43759">
        <ele>142.9</ele>
        <time>2022-08-30T11:36:12Z</time>
      </trkpt>
      <trkpt lat="43.3286" lon="-1.43759">
        <ele>143</ele>
        <time>2022-08-30T11:36:13Z</time>
      </trkpt>
      <trkpt lat="43.32863" lon="-1.43759">
        <ele>143.4</ele>
        <time>2022-08-30T11:36:14Z</time>
      </trkpt>
      <trkpt lat="43.32864" lon="-1.43758">
        <ele>143.5</ele>
        <time>2022-08-30T11:36:15Z</time>
      </trkpt>
      <trkpt lat="43.32866" lon="-1.43758">
        <ele>143.7</ele>
        <time>2022-08-30T11:36:16Z</time>
      </trkpt>
      <trkpt lat="43.32867" lon="-1.43757">
        <ele>143.9</ele>
        <time>2022-08-30T11:36:17Z</time>
      </trkpt>
      <trkpt lat="43.32869" lon="-1.43756">
        <ele>144.1</ele>
        <time>2022-08-30T11:36:18Z</time>
      </trkpt>
      <trkpt lat="43.32869" lon="-1.43755">
        <ele>144.2</ele>
        <time>2022-08-30T11:36:19Z</time>
      </trkpt>
      <trkpt lat="43.3287" lon="-1.43755">
        <ele>144.3</ele>
        <time>2022-08-30T11:36:20Z</time>
      </trkpt>
      <trkpt lat="43.3287" lon="-1.43754">
        <ele>144.3</ele>
        <time>2022-08-30T11:36:21Z</time>
      </trkpt>
      <trkpt lat="43.3287" lon="-1.43752">
        <ele>144.5</ele>
        <time>2022-08-30T11:36:22Z</time>
      </trkpt>
      <trkpt lat="43.3287" lon="-1.4375">
        <ele>144.7</ele>
        <time>2022-08-30T11:36:23Z</time>
      </trkpt>
      <trkpt lat="43.32871" lon="-1.43748">
        <ele>144.9</ele>
        <time>2022-08-30T11:36:24Z</time>
      </trkpt>
      <trkpt lat="43.32871" lon="-1.43746">
        <ele>145.1</ele>
        <time>2022-08-30T11:36:25Z</time>
      </trkpt>
      <trkpt lat="43.32871" lon="-1.43742">
        <ele>145.6</ele>
        <time>2022-08-30T11:36:26Z</time>
      </trkpt>
      <trkpt lat="43.32872" lon="-1.43741">
        <ele>145.8</ele>
        <time>2022-08-30T11:36:27Z</time>
      </trkpt>
      <trkpt lat="43.32873" lon="-1.43736">
        <ele>146.4</ele>
        <time>2022-08-30T11:36:28Z</time>
      </trkpt>
      <trkpt lat="43.32874" lon="-1.43735">
        <ele>146.6</ele>
        <time>2022-08-30T11:36:29Z</time>
      </trkpt>
      <trkpt lat="43.32876" lon="-1.4373">
        <ele>147.4</ele>
        <time>2022-08-30T11:36:30Z</time>
      </trkpt>
      <trkpt lat="43.32876" lon="-1.43728">
        <ele>147.7</ele>
        <time>2022-08-30T11:36:31Z</time>
      </trkpt>
      <trkpt lat="43.32878" lon="-1.43724">
        <ele>148.3</ele>
        <time>2022-08-30T11:36:32Z</time>
      </trkpt>
      <trkpt lat="43.3288" lon="-1.43721">
        <ele>149</ele>
        <time>2022-08-30T11:36:33Z</time>
      </trkpt>
      <trkpt lat="43.32882" lon="-1.43719">
        <ele>149.6</ele>
        <time>2022-08-30T11:36:34Z</time>
      </trkpt>
      <trkpt lat="43.32884" lon="-1.43716">
        <ele>150.3</ele>
        <time>2022-08-30T11:36:35Z</time>
      </trkpt>
      <trkpt lat="43.32887" lon="-1.43713">
        <ele>151</ele>
        <time>2022-08-30T11:36:36Z</time>
      </trkpt>
      <trkpt lat="43.32889" lon="-1.4371">
        <ele>151.7</ele>
        <time>2022-08-30T11:36:37Z</time>
      </trkpt>
      <trkpt lat="43.32891" lon="-1.43706">
        <ele>152.5</ele>
        <time>2022-08-30T11:36:38Z</time>
      </trkpt>
      <trkpt lat="43.32893" lon="-1.43703">
        <ele>153.4</ele>
        <time>2022-08-30T11:36:39Z</time>
      </trkpt>
      <trkpt lat="43.32896" lon="-1.43699">
        <ele>154.2</ele>
        <time>2022-08-30T11:36:40Z</time>
      </trkpt>
      <trkpt lat="43.32898" lon="-1.43695">
        <ele>155</ele>
        <time>2022-08-30T11:36:41Z</time>
      </trkpt>
      <trkpt lat="43.32901" lon="-1.43692">
        <ele>155.9</ele>
        <time>2022-08-30T11:36:42Z</time>
      </trkpt>
      <trkpt lat="43.32902" lon="-1.43691">
        <ele>156.1</ele>
        <time>2022-08-30T11:36:43Z</time>
      </trkpt>
      <trkpt lat="43.32904" lon="-1.43688">
        <ele>156.9</ele>
        <time>2022-08-30T11:36:44Z</time>
      </trkpt>
      <trkpt lat="43.32904" lon="-1.43687">
        <ele>157.2</ele>
        <time>2022-08-30T11:36:45Z</time>
      </trkpt>
      <trkpt lat="43.32906" lon="-1.43683">
        <ele>158</ele>
        <time>2022-08-30T11:36:46Z</time>
      </trkpt>
      <trkpt lat="43.32907" lon="-1.43681">
        <ele>158.3</ele>
        <time>2022-08-30T11:36:47Z</time>
      </trkpt>
      <trkpt lat="43.32909" lon="-1.43677">
        <ele>159.2</ele>
        <time>2022-08-30T11:36:48Z</time>
      </trkpt>
      <trkpt lat="43.3291" lon="-1.43676">
        <ele>159.5</ele>
        <time>2022-08-30T11:36:49Z</time>
      </trkpt>
      <trkpt lat="43.32911" lon="-1.43674">
        <ele>159.9</ele>
        <time>2022-08-30T11:36:50Z</time>
      </trkpt>
      <trkpt lat="43.32912" lon="-1.43673">
        <ele>160.3</ele>
        <time>2022-08-30T11:36:51Z</time>
      </trkpt>
      <trkpt lat="43.32913" lon="-1.43671">
        <ele>160.7</ele>
        <time>2022-08-30T11:36:52Z</time>
      </trkpt>
      <trkpt lat="43.32914" lon="-1.43669">
        <ele>161.1</ele>
        <time>2022-08-30T11:36:53Z</time>
      </trkpt>
      <trkpt lat="43.32917" lon="-1.43667">
        <ele>161.9</ele>
        <time>2022-08-30T11:36:54Z</time>
      </trkpt>
      <trkpt lat="43.32918" lon="-1.43666">
        <ele>162.1</ele>
        <time>2022-08-30T11:36:55Z</time>
      </trkpt>
      <trkpt lat="43.32921" lon="-1.43664">
        <ele>163.1</ele>
        <time>2022-08-30T11:36:56Z</time>
      </trkpt>
      <trkpt lat="43.32922" lon="-1.43663">
        <ele>163.5</ele>
        <time>2022-08-30T11:36:57Z</time>
      </trkpt>
      <trkpt lat="43.32926" lon="-1.43662">
        <ele>164.6</ele>
        <time>2022-08-30T11:36:58Z</time>
      </trkpt>
      <trkpt lat="43.32928" lon="-1.43662">
        <ele>165.1</ele>
        <time>2022-08-30T11:36:59Z</time>
      </trkpt>
      <trkpt lat="43.32932" lon="-1.43663">
        <ele>166.2</ele>
        <time>2022-08-30T11:37:00Z</time>
      </trkpt>
      <trkpt lat="43.32933" lon="-1.43663">
        <ele>166.6</ele>
        <time>2022-08-30T11:37:01Z</time>
      </trkpt>
      <trkpt lat="43.32936" lon="-1.43663">
        <ele>167.5</ele>
        <time>2022-08-30T11:37:02Z</time>
      </trkpt>
      <trkpt lat="43.32937" lon="-1.43663">
        <ele>167.8</ele>
        <time>2022-08-30T11:37:03Z</time>
      </trkpt>
      <trkpt lat="43.32938" lon="-1.43663">
        <ele>168.2</ele>
        <time>2022-08-30T11:37:04Z</time>
      </trkpt>
      <trkpt lat="43.3294" lon="-1.43663">
        <ele>168.7</ele>
        <time>2022-08-30T11:37:05Z</time>
      </trkpt>
      <trkpt lat="43.3294" lon="-1.43663">
        <ele>168.8</ele>
        <time>2022-08-30T11:37:06Z</time>
      </trkpt>
      <trkpt lat="43.3294" lon="-1.43663">
        <ele>168.9</ele>
        <time>2022-08-30T11:37:07Z</time>
      </trkpt>
      <trkpt lat="43.32942" lon="-1.43663">
        <ele>169.4</ele>
        <time>2022-08-30T11:37:08Z</time>
      </trkpt>
      <trkpt lat="43.32943" lon="-1.43662">
        <ele>169.9</ele>
        <time>2022-08-30T11:37:09Z</time>
      </trkpt>
      <trkpt lat="43.32944" lon="-1.43662">
        <ele>170.2</ele>
        <time>2022-08-30T11:37:10Z</time>
      </trkpt>
      <trkpt lat="43.32944" lon="-1.43662">
        <ele>170.3</ele>
        <time>2022-08-30T11:37:11Z</time>
      </trkpt>
      <trkpt lat="43.32944" lon="-1.43662">
        <ele>170.3</ele>
        <time>2022-08-30T11:37:12Z</time>
      </trkpt>
      <trkpt lat="43.32944" lon="-1.43662">
        <ele>170.3</ele>
        <time>2022-08-30T11:37:13Z</time>
      </trkpt>
      <trkpt lat="43.32944" lon="-1.43662">
        <ele>170.4</ele>
        <time>2022-08-30T11:37:14Z</time>
      </trkpt>
      <trkpt lat="43.32944" lon="-1.43662">
        <ele>170.4</ele>
        <time>2022-08-30T11:37:15Z</time>
      </trkpt>
      <trkpt lat="43.32944" lon="-1.43662">
        <ele>170.4</ele>
        <time>2022-08-30T11:37:16Z</time>
      </trkpt>
      <trkpt lat="43.32944" lon="-1.43662">
        <ele>170.4</ele>
        <time>2022-08-30T11:37:17Z</time>
      </trkpt>
      <trkpt lat="43.32944" lon="-1.43662">
        <ele>170.4</ele>
        <time>2022-08-30T11:37:18Z</time>
      </trkpt>
      <trkpt lat="43.32944" lon="-1.43662">
        <ele>170.4</ele>
        <time>2022-08-30T11:37:19Z</time>
      </trkpt>
      <trkpt lat="43.32944" lon="-1.43662">
        <ele>170.4</ele>
        <time>2022-08-30T11:37:20Z</time>
      </trkpt>
      <trkpt lat="43.32945" lon="-1.43663">
        <ele>170.7</ele>
        <time>2022-08-30T11:37:21Z</time>
      </trkpt>
      <trkpt lat="43.32945" lon="-1.43663">
        <ele>170.8</ele>
        <time>2022-08-30T11:37:22Z</time>
      </trkpt>
      <trkpt lat="43.32945" lon="-1.43663">
        <ele>170.8</ele>
        <time>2022-08-30T11:37:23Z</time>
      </trkpt>
      <trkpt lat="43.32945" lon="-1.43663">
        <ele>170.8</ele>
        <time>2022-08-30T11:37:24Z</time>
      </trkpt>
      <trkpt lat="43.32945" lon="-1.43663">
        <ele>170.8</ele>
        <time>2022-08-30T11:37:25Z</time>
      </trkpt>
      <trkpt lat="43.32945" lon="-1.43663">
        <ele>170.9</ele>
        <time>2022-08-30T11:37:26Z</time>
      </trkpt>
      <trkpt lat="43.32945" lon="-1.43663">
        <ele>170.9</ele>
        <time>2022-08-30T11:37:27Z</time>
      </trkpt>
      <trkpt lat="43.32945" lon="-1.43663">
        <ele>170.9</ele>
        <time>2022-08-30T11:37:28Z</time>
      </trkpt>
      <trkpt lat="43.32945" lon="-1.43663">
        <ele>170.9</ele>
        <time>2022-08-30T11:37:29Z</time>
      </trkpt>
      <trkpt lat="43.32946" lon="-1.43663">
        <ele>171.3</ele>
        <time>2022-08-30T11:37:30Z</time>
      </trkpt>
      <trkpt lat="43.32948" lon="-1.43664">
        <ele>171.9</ele>
        <time>2022-08-30T11:37:31Z</time>
      </trkpt>
      <trkpt lat="43.32949" lon="-1.43664">
        <ele>172.2</ele>
        <time>2022-08-30T11:37:32Z</time>
      </trkpt>
      <trkpt lat="43.3295" lon="-1.43665">
        <ele>172.4</ele>
        <time>2022-08-30T11:37:33Z</time>
      </trkpt>
      <trkpt lat="43.3295" lon="-1.43665">
        <ele>172.6</ele>
        <time>2022-08-30T11:37:34Z</time>
      </trkpt>
      <trkpt lat="43.3295" lon="-1.43665">
        <ele>172.6</ele>
        <time>2022-08-30T11:37:35Z</time>
      </trkpt>
      <trkpt lat="43.32952" lon="-1.43665">
        <ele>173</ele>
        <time>2022-08-30T11:37:36Z</time>
      </trkpt>
      <trkpt lat="43.32953" lon="-1.43666">
        <ele>173.4</ele>
        <time>2022-08-30T11:37:37Z</time>
      </trkpt>
      <trkpt lat="43.32954" lon="-1.43666">
        <ele>173.7</ele>
        <time>2022-08-30T11:37:38Z</time>
      </trkpt>
      <trkpt lat="43.32955" lon="-1.43667">
        <ele>173.9</ele>
        <time>2022-08-30T11:37:39Z</time>
      </trkpt>
      <trkpt lat="43.32955" lon="-1.43667">
        <ele>174</ele>
        <time>2022-08-30T11:37:40Z</time>
      </trkpt>
      <trkpt lat="43.32955" lon="-1.43667">
        <ele>174.1</ele>
        <time>2022-08-30T11:37:41Z</time>
      </trkpt>
      <trkpt lat="43.32956" lon="-1.43667">
        <ele>174.4</ele>
        <time>2022-08-30T11:37:42Z</time>
      </trkpt>
      <trkpt lat="43.32957" lon="-1.43667">
        <ele>174.7</ele>
        <time>2022-08-30T11:37:43Z</time>
      </trkpt>
      <trkpt lat="43.32958" lon="-1.43668">
        <ele>175</ele>
        <time>2022-08-30T11:37:44Z</time>
      </trkpt>
      <trkpt lat="43.32959" lon="-1.43668">
        <ele>175.3</ele>
        <time>2022-08-30T11:37:45Z</time>
      </trkpt>
      <trkpt lat="43.32959" lon="-1.43668">
        <ele>175.4</ele>
        <time>2022-08-30T11:37:46Z</time>
      </trkpt>
      <trkpt lat="43.32959" lon="-1.43668">
        <ele>175.5</ele>
        <time>2022-08-30T11:37:47Z</time>
      </trkpt>
      <trkpt lat="43.32961" lon="-1.43669">
        <ele>175.8</ele>
        <time>2022-08-30T11:37:48Z</time>
      </trkpt>
      <trkpt lat="43.32962" lon="-1.43669">
        <ele>176.2</ele>
        <time>2022-08-30T11:37:49Z</time>
      </trkpt>
      <trkpt lat="43.32963" lon="-1.43669">
        <ele>176.4</ele>
        <time>2022-08-30T11:37:50Z</time>
      </trkpt>
      <trkpt lat="43.32963" lon="-1.4367">
        <ele>176.7</ele>
        <time>2022-08-30T11:37:51Z</time>
      </trkpt>
      <trkpt lat="43.32963" lon="-1.4367">
        <ele>176.7</ele>
        <time>2022-08-30T11:37:52Z</time>
      </trkpt>
      <trkpt lat="43.32963" lon="-1.4367">
        <ele>176.8</ele>
        <time>2022-08-30T11:37:53Z</time>
      </trkpt>
      <trkpt lat="43.32965" lon="-1.43671">
        <ele>177.1</ele>
        <time>2022-08-30T11:37:54Z</time>
      </trkpt>
      <trkpt lat="43.32966" lon="-1.43671">
        <ele>177.4</ele>
        <time>2022-08-30T11:37:55Z</time>
      </trkpt>
      <trkpt lat="43.32966" lon="-1.43672">
        <ele>177.7</ele>
        <time>2022-08-30T11:37:56Z</time>
      </trkpt>
      <trkpt lat="43.32967" lon="-1.43672">
        <ele>177.8</ele>
        <time>2022-08-30T11:37:57Z</time>
      </trkpt>
      <trkpt lat="43.32967" lon="-1.43673">
        <ele>178</ele>
        <time>2022-08-30T11:37:58Z</time>
      </trkpt>
      <trkpt lat="43.32968" lon="-1.43674">
        <ele>178.3</ele>
        <time>2022-08-30T11:37:59Z</time>
      </trkpt>
      <trkpt lat="43.32969" lon="-1.43674">
        <ele>178.5</ele>
        <time>2022-08-30T11:38:00Z</time>
      </trkpt>
      <trkpt lat="43.32969" lon="-1.43674">
        <ele>178.6</ele>
        <time>2022-08-30T11:38:01Z</time>
      </trkpt>
      <trkpt lat="43.3297" lon="-1.43674">
        <ele>178.8</ele>
        <time>2022-08-30T11:38:02Z</time>
      </trkpt>
      <trkpt lat="43.32971" lon="-1.43674">
        <ele>178.9</ele>
        <time>2022-08-30T11:38:03Z</time>
      </trkpt>
      <trkpt lat="43.32971" lon="-1.43675">
        <ele>179.1</ele>
        <time>2022-08-30T11:38:04Z</time>
      </trkpt>
      <trkpt lat="43.32972" lon="-1.43675">
        <ele>179.3</ele>
        <time>2022-08-30T11:38:05Z</time>
      </trkpt>
      <trkpt lat="43.32973" lon="-1.43675">
        <ele>179.6</ele>
        <time>2022-08-30T11:38:06Z</time>
      </trkpt>
      <trkpt lat="43.32974" lon="-1.43675">
        <ele>179.8</ele>
        <time>2022-08-30T11:38:07Z</time>
      </trkpt>
      <trkpt lat="43.32974" lon="-1.43675">
        <ele>179.8</ele>
        <time>2022-08-30T11:38:08Z</time>
      </trkpt>
      <trkpt lat="43.32974" lon="-1.43675">
        <ele>179.8</ele>
        <time>2022-08-30T11:38:09Z</time>
      </trkpt>
      <trkpt lat="43.32974" lon="-1.43675">
        <ele>179.8</ele>
        <time>2022-08-30T11:38:10Z</time>
      </trkpt>
      <trkpt lat="43.32974" lon="-1.43675">
        <ele>179.9</ele>
        <time>2022-08-30T11:38:11Z</time>
      </trkpt>
      <trkpt lat="43.32974" lon="-1.43675">
        <ele>179.9</ele>
        <time>2022-08-30T11:38:12Z</time>
      </trkpt>
      <trkpt lat="43.32974" lon="-1.43675">
        <ele>179.9</ele>
        <time>2022-08-30T11:38:13Z</time>
      </trkpt>
      <trkpt lat="43.32974" lon="-1.43675">
        <ele>179.9</ele>
        <time>2022-08-30T11:38:14Z</time>
      </trkpt>
      <trkpt lat="43.32974" lon="-1.43675">
        <ele>180</ele>
        <time>2022-08-30T11:38:15Z</time>
      </trkpt>
      <trkpt lat="43.32974" lon="-1.43676">
        <ele>180.1</ele>
        <time>2022-08-30T11:38:16Z</time>
      </trkpt>
      <trkpt lat="43.32974" lon="-1.43676">
        <ele>180.2</ele>
        <time>2022-08-30T11:38:17Z</time>
      </trkpt>
      <trkpt lat="43.32974" lon="-1.43677">
        <ele>180.2</ele>
        <time>2022-08-30T11:38:18Z</time>
      </trkpt>
      <trkpt lat="43.32974" lon="-1.43677">
        <ele>180.2</ele>
        <time>2022-08-30T11:38:19Z</time>
      </trkpt>
      <trkpt lat="43.32974" lon="-1.43677">
        <ele>180.2</ele>
        <time>2022-08-30T11:38:20Z</time>
      </trkpt>
      <trkpt lat="43.32974" lon="-1.43677">
        <ele>180.3</ele>
        <time>2022-08-30T11:38:21Z</time>
      </trkpt>
      <trkpt lat="43.32974" lon="-1.43677">
        <ele>180.3</ele>
        <time>2022-08-30T11:38:22Z</time>
      </trkpt>
      <trkpt lat="43.32981" lon="-1.43674">
        <ele>181.9</ele>
        <time>2022-08-30T11:38:28Z</time>
      </trkpt>
      <trkpt lat="43.32982" lon="-1.43673">
        <ele>182.3</ele>
        <time>2022-08-30T11:38:29Z</time>
      </trkpt>
      <trkpt lat="43.32984" lon="-1.43672">
        <ele>182.7</ele>
        <time>2022-08-30T11:38:30Z</time>
      </trkpt>
      <trkpt lat="43.32985" lon="-1.43671">
        <ele>183.1</ele>
        <time>2022-08-30T11:38:31Z</time>
      </trkpt>
      <trkpt lat="43.32987" lon="-1.43669">
        <ele>183.5</ele>
        <time>2022-08-30T11:38:32Z</time>
      </trkpt>
      <trkpt lat="43.32989" lon="-1.43668">
        <ele>184.1</ele>
        <time>2022-08-30T11:38:33Z</time>
      </trkpt>
      <trkpt lat="43.3299" lon="-1.43667">
        <ele>184.3</ele>
        <time>2022-08-30T11:38:34Z</time>
      </trkpt>
      <trkpt lat="43.32993" lon="-1.43666">
        <ele>185</ele>
        <time>2022-08-30T11:38:35Z</time>
      </trkpt>
      <trkpt lat="43.32994" lon="-1.43665">
        <ele>185.2</ele>
        <time>2022-08-30T11:38:36Z</time>
      </trkpt>
      <trkpt lat="43.32997" lon="-1.43663">
        <ele>186</ele>
        <time>2022-08-30T11:38:37Z</time>
      </trkpt>
      <trkpt lat="43.32998" lon="-1.43662">
        <ele>186.2</ele>
        <time>2022-08-30T11:38:38Z</time>
      </trkpt>
      <trkpt lat="43.33002" lon="-1.4366">
        <ele>187</ele>
        <time>2022-08-30T11:38:39Z</time>
      </trkpt>
      <trkpt lat="43.33003" lon="-1.4366">
        <ele>187.2</ele>
        <time>2022-08-30T11:38:40Z</time>
      </trkpt>
      <trkpt lat="43.33006" lon="-1.43659">
        <ele>187.9</ele>
        <time>2022-08-30T11:38:41Z</time>
      </trkpt>
      <trkpt lat="43.33007" lon="-1.43658">
        <ele>188.1</ele>
        <time>2022-08-30T11:38:42Z</time>
      </trkpt>
      <trkpt lat="43.3301" lon="-1.43657">
        <ele>188.6</ele>
        <time>2022-08-30T11:38:43Z</time>
      </trkpt>
      <trkpt lat="43.3301" lon="-1.43657">
        <ele>188.8</ele>
        <time>2022-08-30T11:38:44Z</time>
      </trkpt>
      <trkpt lat="43.33013" lon="-1.43655">
        <ele>189.4</ele>
        <time>2022-08-30T11:38:45Z</time>
      </trkpt>
      <trkpt lat="43.33014" lon="-1.43655">
        <ele>189.6</ele>
        <time>2022-08-30T11:38:46Z</time>
      </trkpt>
      <trkpt lat="43.33017" lon="-1.43654">
        <ele>190.1</ele>
        <time>2022-08-30T11:38:47Z</time>
      </trkpt>
      <trkpt lat="43.33018" lon="-1.43654">
        <ele>190.3</ele>
        <time>2022-08-30T11:38:48Z</time>
      </trkpt>
      <trkpt lat="43.33021" lon="-1.43653">
        <ele>190.7</ele>
        <time>2022-08-30T11:38:49Z</time>
      </trkpt>
      <trkpt lat="43.33022" lon="-1.43653">
        <ele>190.9</ele>
        <time>2022-08-30T11:38:50Z</time>
      </trkpt>
      <trkpt lat="43.33025" lon="-1.43652">
        <ele>191.4</ele>
        <time>2022-08-30T11:38:51Z</time>
      </trkpt>
      <trkpt lat="43.33026" lon="-1.43652">
        <ele>191.5</ele>
        <time>2022-08-30T11:38:52Z</time>
      </trkpt>
      <trkpt lat="43.33029" lon="-1.43652">
        <ele>192</ele>
        <time>2022-08-30T11:38:53Z</time>
      </trkpt>
      <trkpt lat="43.3303" lon="-1.43652">
        <ele>192.2</ele>
        <time>2022-08-30T11:38:54Z</time>
      </trkpt>
      <trkpt lat="43.33033" lon="-1.43652">
        <ele>192.7</ele>
        <time>2022-08-30T11:38:55Z</time>
      </trkpt>
      <trkpt lat="43.33034" lon="-1.43652">
        <ele>192.8</ele>
        <time>2022-08-30T11:38:56Z</time>
      </trkpt>
      <trkpt lat="43.33038" lon="-1.43652">
        <ele>193.3</ele>
        <time>2022-08-30T11:38:57Z</time>
      </trkpt>
      <trkpt lat="43.33039" lon="-1.43652">
        <ele>193.5</ele>
        <time>2022-08-30T11:38:58Z</time>
      </trkpt>
      <trkpt lat="43.33043" lon="-1.43651">
        <ele>194</ele>
        <time>2022-08-30T11:38:59Z</time>
      </trkpt>
      <trkpt lat="43.33044" lon="-1.43651">
        <ele>194.1</ele>
        <time>2022-08-30T11:39:00Z</time>
      </trkpt>
      <trkpt lat="43.33047" lon="-1.43652">
        <ele>194.5</ele>
        <time>2022-08-30T11:39:01Z</time>
      </trkpt>
      <trkpt lat="43.33048" lon="-1.43652">
        <ele>194.6</ele>
        <time>2022-08-30T11:39:02Z</time>
      </trkpt>
      <trkpt lat="43.33051" lon="-1.43651">
        <ele>194.9</ele>
        <time>2022-08-30T11:39:03Z</time>
      </trkpt>
      <trkpt lat="43.33052" lon="-1.43651">
        <ele>195</ele>
        <time>2022-08-30T11:39:04Z</time>
      </trkpt>
      <trkpt lat="43.33055" lon="-1.43651">
        <ele>195.3</ele>
        <time>2022-08-30T11:39:05Z</time>
      </trkpt>
      <trkpt lat="43.33056" lon="-1.43651">
        <ele>195.5</ele>
        <time>2022-08-30T11:39:06Z</time>
      </trkpt>
      <trkpt lat="43.33059" lon="-1.43651">
        <ele>195.7</ele>
        <time>2022-08-30T11:39:07Z</time>
      </trkpt>
      <trkpt lat="43.3306" lon="-1.43651">
        <ele>195.8</ele>
        <time>2022-08-30T11:39:08Z</time>
      </trkpt>
      <trkpt lat="43.33063" lon="-1.43651">
        <ele>196.1</ele>
        <time>2022-08-30T11:39:09Z</time>
      </trkpt>
      <trkpt lat="43.33064" lon="-1.43651">
        <ele>196.1</ele>
        <time>2022-08-30T11:39:10Z</time>
      </trkpt>
      <trkpt lat="43.33067" lon="-1.43652">
        <ele>196.4</ele>
        <time>2022-08-30T11:39:11Z</time>
      </trkpt>
      <trkpt lat="43.33069" lon="-1.43653">
        <ele>196.5</ele>
        <time>2022-08-30T11:39:12Z</time>
      </trkpt>
      <trkpt lat="43.33073" lon="-1.43653">
        <ele>196.7</ele>
        <time>2022-08-30T11:39:13Z</time>
      </trkpt>
      <trkpt lat="43.33074" lon="-1.43653">
        <ele>196.8</ele>
        <time>2022-08-30T11:39:14Z</time>
      </trkpt>
      <trkpt lat="43.33078" lon="-1.43654">
        <ele>197</ele>
        <time>2022-08-30T11:39:15Z</time>
      </trkpt>
      <trkpt lat="43.33079" lon="-1.43654">
        <ele>197.1</ele>
        <time>2022-08-30T11:39:16Z</time>
      </trkpt>
      <trkpt lat="43.33082" lon="-1.43655">
        <ele>197.3</ele>
        <time>2022-08-30T11:39:17Z</time>
      </trkpt>
      <trkpt lat="43.33083" lon="-1.43655">
        <ele>197.4</ele>
        <time>2022-08-30T11:39:18Z</time>
      </trkpt>
      <trkpt lat="43.33087" lon="-1.43655">
        <ele>197.5</ele>
        <time>2022-08-30T11:39:19Z</time>
      </trkpt>
      <trkpt lat="43.33088" lon="-1.43656">
        <ele>197.6</ele>
        <time>2022-08-30T11:39:20Z</time>
      </trkpt>
      <trkpt lat="43.33091" lon="-1.43656">
        <ele>197.7</ele>
        <time>2022-08-30T11:39:21Z</time>
      </trkpt>
      <trkpt lat="43.33092" lon="-1.43656">
        <ele>197.8</ele>
        <time>2022-08-30T11:39:22Z</time>
      </trkpt>
      <trkpt lat="43.33096" lon="-1.43655">
        <ele>198</ele>
        <time>2022-08-30T11:39:23Z</time>
      </trkpt>
      <trkpt lat="43.33097" lon="-1.43656">
        <ele>198</ele>
        <time>2022-08-30T11:39:24Z</time>
      </trkpt>
      <trkpt lat="43.331" lon="-1.43655">
        <ele>198.5</ele>
        <time>2022-08-30T11:39:25Z</time>
      </trkpt>
      <trkpt lat="43.33101" lon="-1.43654">
        <ele>198.5</ele>
        <time>2022-08-30T11:39:26Z</time>
      </trkpt>
      <trkpt lat="43.33103" lon="-1.4365">
        <ele>198.7</ele>
        <time>2022-08-30T11:39:27Z</time>
      </trkpt>
      <trkpt lat="43.33104" lon="-1.43648">
        <ele>198.7</ele>
        <time>2022-08-30T11:39:28Z</time>
      </trkpt>
      <trkpt lat="43.33106" lon="-1.43645">
        <ele>198.9</ele>
        <time>2022-08-30T11:39:29Z</time>
      </trkpt>
      <trkpt lat="43.33107" lon="-1.43641">
        <ele>199</ele>
        <time>2022-08-30T11:39:30Z</time>
      </trkpt>
      <trkpt lat="43.33109" lon="-1.43637">
        <ele>199.1</ele>
        <time>2022-08-30T11:39:31Z</time>
      </trkpt>
      <trkpt lat="43.33111" lon="-1.43633">
        <ele>199.3</ele>
        <time>2022-08-30T11:39:32Z</time>
      </trkpt>
      <trkpt lat="43.33113" lon="-1.43629">
        <ele>199.5</ele>
        <time>2022-08-30T11:39:33Z</time>
      </trkpt>
      <trkpt lat="43.33114" lon="-1.43626">
        <ele>199.7</ele>
        <time>2022-08-30T11:39:34Z</time>
      </trkpt>
      <trkpt lat="43.33116" lon="-1.43622">
        <ele>199.9</ele>
        <time>2022-08-30T11:39:35Z</time>
      </trkpt>
      <trkpt lat="43.33117" lon="-1.43619">
        <ele>200.1</ele>
        <time>2022-08-30T11:39:36Z</time>
      </trkpt>
      <trkpt lat="43.33121" lon="-1.43611">
        <ele>200.5</ele>
        <time>2022-08-30T11:39:38Z</time>
      </trkpt>
      <trkpt lat="43.33122" lon="-1.43608">
        <ele>200.8</ele>
        <time>2022-08-30T11:39:39Z</time>
      </trkpt>
      <trkpt lat="43.33124" lon="-1.43604">
        <ele>201</ele>
        <time>2022-08-30T11:39:40Z</time>
      </trkpt>
      <trkpt lat="43.33126" lon="-1.43601">
        <ele>201.3</ele>
        <time>2022-08-30T11:39:41Z</time>
      </trkpt>
      <trkpt lat="43.33128" lon="-1.43597">
        <ele>201.5</ele>
        <time>2022-08-30T11:39:42Z</time>
      </trkpt>
      <trkpt lat="43.3313" lon="-1.43594">
        <ele>201.8</ele>
        <time>2022-08-30T11:39:43Z</time>
      </trkpt>
      <trkpt lat="43.33132" lon="-1.4359">
        <ele>202</ele>
        <time>2022-08-30T11:39:44Z</time>
      </trkpt>
      <trkpt lat="43.33134" lon="-1.43587">
        <ele>202.2</ele>
        <time>2022-08-30T11:39:45Z</time>
      </trkpt>
      <trkpt lat="43.33136" lon="-1.43583">
        <ele>202.4</ele>
        <time>2022-08-30T11:39:46Z</time>
      </trkpt>
      <trkpt lat="43.33137" lon="-1.4358">
        <ele>202.6</ele>
        <time>2022-08-30T11:39:47Z</time>
      </trkpt>
      <trkpt lat="43.33139" lon="-1.43577">
        <ele>202.8</ele>
        <time>2022-08-30T11:39:48Z</time>
      </trkpt>
      <trkpt lat="43.33141" lon="-1.43574">
        <ele>203</ele>
        <time>2022-08-30T11:39:49Z</time>
      </trkpt>
      <trkpt lat="43.33143" lon="-1.43571">
        <ele>203.1</ele>
        <time>2022-08-30T11:39:50Z</time>
      </trkpt>
      <trkpt lat="43.33145" lon="-1.43568">
        <ele>203.3</ele>
        <time>2022-08-30T11:39:51Z</time>
      </trkpt>
      <trkpt lat="43.33147" lon="-1.43565">
        <ele>203.4</ele>
        <time>2022-08-30T11:39:52Z</time>
      </trkpt>
      <trkpt lat="43.33149" lon="-1.43562">
        <ele>203.6</ele>
        <time>2022-08-30T11:39:53Z</time>
      </trkpt>
      <trkpt lat="43.33151" lon="-1.43559">
        <ele>203.7</ele>
        <time>2022-08-30T11:39:54Z</time>
      </trkpt>
      <trkpt lat="43.33153" lon="-1.43555">
        <ele>203.8</ele>
        <time>2022-08-30T11:39:55Z</time>
      </trkpt>
      <trkpt lat="43.33154" lon="-1.43554">
        <ele>203.8</ele>
        <time>2022-08-30T11:39:56Z</time>
      </trkpt>
      <trkpt lat="43.33155" lon="-1.43551">
        <ele>203.9</ele>
        <time>2022-08-30T11:39:57Z</time>
      </trkpt>
      <trkpt lat="43.33157" lon="-1.43546">
        <ele>204</ele>
        <time>2022-08-30T11:39:58Z</time>
      </trkpt>
      <trkpt lat="43.33159" lon="-1.43542">
        <ele>204.1</ele>
        <time>2022-08-30T11:39:59Z</time>
      </trkpt>
      <trkpt lat="43.33161" lon="-1.43539">
        <ele>204.1</ele>
        <time>2022-08-30T11:40:00Z</time>
      </trkpt>
      <trkpt lat="43.33163" lon="-1.43535">
        <ele>204.1</ele>
        <time>2022-08-30T11:40:01Z</time>
      </trkpt>
      <trkpt lat="43.33165" lon="-1.4353">
        <ele>204.1</ele>
        <time>2022-08-30T11:40:02Z</time>
      </trkpt>
      <trkpt lat="43.33167" lon="-1.43526">
        <ele>204.1</ele>
        <time>2022-08-30T11:40:03Z</time>
      </trkpt>
      <trkpt lat="43.3317" lon="-1.43522">
        <ele>204.1</ele>
        <time>2022-08-30T11:40:04Z</time>
      </trkpt>
      <trkpt lat="43.33172" lon="-1.43517">
        <ele>204.1</ele>
        <time>2022-08-30T11:40:05Z</time>
      </trkpt>
      <trkpt lat="43.33175" lon="-1.43513">
        <ele>204</ele>
        <time>2022-08-30T11:40:06Z</time>
      </trkpt>
      <trkpt lat="43.33177" lon="-1.43508">
        <ele>203.9</ele>
        <time>2022-08-30T11:40:07Z</time>
      </trkpt>
      <trkpt lat="43.33179" lon="-1.43503">
        <ele>203.8</ele>
        <time>2022-08-30T11:40:08Z</time>
      </trkpt>
      <trkpt lat="43.33181" lon="-1.43498">
        <ele>203.8</ele>
        <time>2022-08-30T11:40:09Z</time>
      </trkpt>
      <trkpt lat="43.33183" lon="-1.43493">
        <ele>203.7</ele>
        <time>2022-08-30T11:40:10Z</time>
      </trkpt>
      <trkpt lat="43.33185" lon="-1.43489">
        <ele>203.6</ele>
        <time>2022-08-30T11:40:11Z</time>
      </trkpt>
      <trkpt lat="43.33188" lon="-1.43484">
        <ele>203.5</ele>
        <time>2022-08-30T11:40:12Z</time>
      </trkpt>
      <trkpt lat="43.3319" lon="-1.43479">
        <ele>203.4</ele>
        <time>2022-08-30T11:40:13Z</time>
      </trkpt>
      <trkpt lat="43.33192" lon="-1.43473">
        <ele>203.4</ele>
        <time>2022-08-30T11:40:14Z</time>
      </trkpt>
      <trkpt lat="43.33194" lon="-1.43468">
        <ele>203.3</ele>
        <time>2022-08-30T11:40:15Z</time>
      </trkpt>
      <trkpt lat="43.33196" lon="-1.43463">
        <ele>203.2</ele>
        <time>2022-08-30T11:40:16Z</time>
      </trkpt>
      <trkpt lat="43.33199" lon="-1.43458">
        <ele>203.1</ele>
        <time>2022-08-30T11:40:17Z</time>
      </trkpt>
      <trkpt lat="43.33203" lon="-1.43456">
        <ele>203.1</ele>
        <time>2022-08-30T11:40:18Z</time>
      </trkpt>
      <trkpt lat="43.33207" lon="-1.43456">
        <ele>202.9</ele>
        <time>2022-08-30T11:40:19Z</time>
      </trkpt>
      <trkpt lat="43.3321" lon="-1.43457">
        <ele>202.7</ele>
        <time>2022-08-30T11:40:20Z</time>
      </trkpt>
      <trkpt lat="43.33213" lon="-1.43458">
        <ele>202.4</ele>
        <time>2022-08-30T11:40:21Z</time>
      </trkpt>
      <trkpt lat="43.33217" lon="-1.43459">
        <ele>202.1</ele>
        <time>2022-08-30T11:40:22Z</time>
      </trkpt>
      <trkpt lat="43.33222" lon="-1.4346">
        <ele>201.6</ele>
        <time>2022-08-30T11:40:23Z</time>
      </trkpt>
      <trkpt lat="43.33227" lon="-1.43459">
        <ele>201</ele>
        <time>2022-08-30T11:40:24Z</time>
      </trkpt>
      <trkpt lat="43.33232" lon="-1.4346">
        <ele>200.3</ele>
        <time>2022-08-30T11:40:25Z</time>
      </trkpt>
      <trkpt lat="43.33237" lon="-1.43463">
        <ele>199.5</ele>
        <time>2022-08-30T11:40:26Z</time>
      </trkpt>
      <trkpt lat="43.33242" lon="-1.43468">
        <ele>198.5</ele>
        <time>2022-08-30T11:40:27Z</time>
      </trkpt>
      <trkpt lat="43.33248" lon="-1.43476">
        <ele>197.3</ele>
        <time>2022-08-30T11:40:28Z</time>
      </trkpt>
      <trkpt lat="43.33254" lon="-1.43484">
        <ele>195.8</ele>
        <time>2022-08-30T11:40:29Z</time>
      </trkpt>
      <trkpt lat="43.3326" lon="-1.43492">
        <ele>194.3</ele>
        <time>2022-08-30T11:40:30Z</time>
      </trkpt>
      <trkpt lat="43.33265" lon="-1.435">
        <ele>192.8</ele>
        <time>2022-08-30T11:40:31Z</time>
      </trkpt>
      <trkpt lat="43.33269" lon="-1.43507">
        <ele>191.5</ele>
        <time>2022-08-30T11:40:32Z</time>
      </trkpt>
      <trkpt lat="43.33274" lon="-1.43513">
        <ele>190.4</ele>
        <time>2022-08-30T11:40:33Z</time>
      </trkpt>
      <trkpt lat="43.33278" lon="-1.43518">
        <ele>189.4</ele>
        <time>2022-08-30T11:40:34Z</time>
      </trkpt>
      <trkpt lat="43.33281" lon="-1.43522">
        <ele>188.5</ele>
        <time>2022-08-30T11:40:35Z</time>
      </trkpt>
      <trkpt lat="43.33285" lon="-1.43526">
        <ele>187.8</ele>
        <time>2022-08-30T11:40:36Z</time>
      </trkpt>
      <trkpt lat="43.33288" lon="-1.43531">
        <ele>187.4</ele>
        <time>2022-08-30T11:40:37Z</time>
      </trkpt>
      <trkpt lat="43.33291" lon="-1.43538">
        <ele>186.9</ele>
        <time>2022-08-30T11:40:38Z</time>
      </trkpt>
      <trkpt lat="43.33294" lon="-1.43546">
        <ele>186.5</ele>
        <time>2022-08-30T11:40:39Z</time>
      </trkpt>
      <trkpt lat="43.33296" lon="-1.43554">
        <ele>186</ele>
        <time>2022-08-30T11:40:40Z</time>
      </trkpt>
      <trkpt lat="43.33298" lon="-1.43562">
        <ele>185.4</ele>
        <time>2022-08-30T11:40:41Z</time>
      </trkpt>
      <trkpt lat="43.333" lon="-1.43572">
        <ele>184.6</ele>
        <time>2022-08-30T11:40:42Z</time>
      </trkpt>
      <trkpt lat="43.33301" lon="-1.43582">
        <ele>183.7</ele>
        <time>2022-08-30T11:40:43Z</time>
      </trkpt>
      <trkpt lat="43.33301" lon="-1.43594">
        <ele>182.3</ele>
        <time>2022-08-30T11:40:44Z</time>
      </trkpt>
      <trkpt lat="43.33301" lon="-1.43606">
        <ele>180.7</ele>
        <time>2022-08-30T11:40:45Z</time>
      </trkpt>
      <trkpt lat="43.33302" lon="-1.43619">
        <ele>178.9</ele>
        <time>2022-08-30T11:40:46Z</time>
      </trkpt>
      <trkpt lat="43.33305" lon="-1.43634">
        <ele>177.1</ele>
        <time>2022-08-30T11:40:47Z</time>
      </trkpt>
      <trkpt lat="43.33308" lon="-1.43648">
        <ele>175.3</ele>
        <time>2022-08-30T11:40:48Z</time>
      </trkpt>
      <trkpt lat="43.33312" lon="-1.43662">
        <ele>173.6</ele>
        <time>2022-08-30T11:40:49Z</time>
      </trkpt>
      <trkpt lat="43.33316" lon="-1.43676">
        <ele>172.1</ele>
        <time>2022-08-30T11:40:50Z</time>
      </trkpt>
      <trkpt lat="43.33323" lon="-1.43687">
        <ele>170.8</ele>
        <time>2022-08-30T11:40:51Z</time>
      </trkpt>
      <trkpt lat="43.33331" lon="-1.43695">
        <ele>169.7</ele>
        <time>2022-08-30T11:40:52Z</time>
      </trkpt>
      <trkpt lat="43.33342" lon="-1.43698">
        <ele>168.5</ele>
        <time>2022-08-30T11:40:53Z</time>
      </trkpt>
      <trkpt lat="43.33354" lon="-1.437">
        <ele>166.9</ele>
        <time>2022-08-30T11:40:54Z</time>
      </trkpt>
      <trkpt lat="43.33366" lon="-1.437">
        <ele>165.3</ele>
        <time>2022-08-30T11:40:55Z</time>
      </trkpt>
      <trkpt lat="43.33378" lon="-1.43699">
        <ele>163.5</ele>
        <time>2022-08-30T11:40:56Z</time>
      </trkpt>
      <trkpt lat="43.33391" lon="-1.43696">
        <ele>161.6</ele>
        <time>2022-08-30T11:40:57Z</time>
      </trkpt>
      <trkpt lat="43.33403" lon="-1.43692">
        <ele>159.5</ele>
        <time>2022-08-30T11:40:58Z</time>
      </trkpt>
      <trkpt lat="43.33416" lon="-1.43689">
        <ele>157.4</ele>
        <time>2022-08-30T11:40:59Z</time>
      </trkpt>
      <trkpt lat="43.33428" lon="-1.43686">
        <ele>155.4</ele>
        <time>2022-08-30T11:41:00Z</time>
      </trkpt>
      <trkpt lat="43.33439" lon="-1.43684">
        <ele>153.4</ele>
        <time>2022-08-30T11:41:01Z</time>
      </trkpt>
      <trkpt lat="43.3345" lon="-1.43682">
        <ele>151.5</ele>
        <time>2022-08-30T11:41:02Z</time>
      </trkpt>
      <trkpt lat="43.33461" lon="-1.43678">
        <ele>149.9</ele>
        <time>2022-08-30T11:41:03Z</time>
      </trkpt>
      <trkpt lat="43.33471" lon="-1.43671">
        <ele>148.3</ele>
        <time>2022-08-30T11:41:04Z</time>
      </trkpt>
      <trkpt lat="43.33482" lon="-1.43663">
        <ele>146.7</ele>
        <time>2022-08-30T11:41:05Z</time>
      </trkpt>
      <trkpt lat="43.33493" lon="-1.43655">
        <ele>145.2</ele>
        <time>2022-08-30T11:41:06Z</time>
      </trkpt>
      <trkpt lat="43.33503" lon="-1.43648">
        <ele>143.8</ele>
        <time>2022-08-30T11:41:07Z</time>
      </trkpt>
      <trkpt lat="43.33511" lon="-1.43644">
        <ele>142.9</ele>
        <time>2022-08-30T11:41:08Z</time>
      </trkpt>
      <trkpt lat="43.33519" lon="-1.43642">
        <ele>141.9</ele>
        <time>2022-08-30T11:41:09Z</time>
      </trkpt>
      <trkpt lat="43.33528" lon="-1.43642">
        <ele>140.7</ele>
        <time>2022-08-30T11:41:10Z</time>
      </trkpt>
      <trkpt lat="43.33537" lon="-1.43643">
        <ele>139.4</ele>
        <time>2022-08-30T11:41:11Z</time>
      </trkpt>
      <trkpt lat="43.33545" lon="-1.43649">
        <ele>138</ele>
        <time>2022-08-30T11:41:12Z</time>
      </trkpt>
      <trkpt lat="43.33554" lon="-1.43659">
        <ele>136.1</ele>
        <time>2022-08-30T11:41:13Z</time>
      </trkpt>
      <trkpt lat="43.33562" lon="-1.43671">
        <ele>134.1</ele>
        <time>2022-08-30T11:41:14Z</time>
      </trkpt>
      <trkpt lat="43.3357" lon="-1.43684">
        <ele>132.1</ele>
        <time>2022-08-30T11:41:15Z</time>
      </trkpt>
      <trkpt lat="43.33577" lon="-1.43699">
        <ele>130.4</ele>
        <time>2022-08-30T11:41:16Z</time>
      </trkpt>
      <trkpt lat="43.33584" lon="-1.43714">
        <ele>128.9</ele>
        <time>2022-08-30T11:41:17Z</time>
      </trkpt>
      <trkpt lat="43.3359" lon="-1.43729">
        <ele>127.4</ele>
        <time>2022-08-30T11:41:18Z</time>
      </trkpt>
      <trkpt lat="43.33595" lon="-1.43745">
        <ele>125.8</ele>
        <time>2022-08-30T11:41:19Z</time>
      </trkpt>
      <trkpt lat="43.33601" lon="-1.43761">
        <ele>123.9</ele>
        <time>2022-08-30T11:41:20Z</time>
      </trkpt>
      <trkpt lat="43.33607" lon="-1.43777">
        <ele>121.9</ele>
        <time>2022-08-30T11:41:21Z</time>
      </trkpt>
      <trkpt lat="43.33614" lon="-1.43792">
        <ele>120</ele>
        <time>2022-08-30T11:41:22Z</time>
      </trkpt>
      <trkpt lat="43.33622" lon="-1.43808">
        <ele>118.2</ele>
        <time>2022-08-30T11:41:23Z</time>
      </trkpt>
      <trkpt lat="43.33629" lon="-1.43823">
        <ele>116.6</ele>
        <time>2022-08-30T11:41:24Z</time>
      </trkpt>
      <trkpt lat="43.33637" lon="-1.43838">
        <ele>114.9</ele>
        <time>2022-08-30T11:41:25Z</time>
      </trkpt>
      <trkpt lat="43.33646" lon="-1.43854">
        <ele>113.1</ele>
        <time>2022-08-30T11:41:26Z</time>
      </trkpt>
      <trkpt lat="43.33654" lon="-1.4387">
        <ele>111.4</ele>
        <time>2022-08-30T11:41:27Z</time>
      </trkpt>
      <trkpt lat="43.33662" lon="-1.43885">
        <ele>110</ele>
        <time>2022-08-30T11:41:28Z</time>
      </trkpt>
      <trkpt lat="43.33669" lon="-1.43901">
        <ele>108.7</ele>
        <time>2022-08-30T11:41:29Z</time>
      </trkpt>
      <trkpt lat="43.33677" lon="-1.43916">
        <ele>107.4</ele>
        <time>2022-08-30T11:41:30Z</time>
      </trkpt>
      <trkpt lat="43.33686" lon="-1.43931">
        <ele>105.9</ele>
        <time>2022-08-30T11:41:31Z</time>
      </trkpt>
      <trkpt lat="43.33695" lon="-1.43946">
        <ele>104.2</ele>
        <time>2022-08-30T11:41:32Z</time>
      </trkpt>
      <trkpt lat="43.33704" lon="-1.4396">
        <ele>102.5</ele>
        <time>2022-08-30T11:41:33Z</time>
      </trkpt>
      <trkpt lat="43.33713" lon="-1.43974">
        <ele>100.7</ele>
        <time>2022-08-30T11:41:34Z</time>
      </trkpt>
      <trkpt lat="43.33722" lon="-1.43989">
        <ele>98.9</ele>
        <time>2022-08-30T11:41:35Z</time>
      </trkpt>
      <trkpt lat="43.33731" lon="-1.44003">
        <ele>97.3</ele>
        <time>2022-08-30T11:41:36Z</time>
      </trkpt>
      <trkpt lat="43.33739" lon="-1.44015">
        <ele>95.7</ele>
        <time>2022-08-30T11:41:37Z</time>
      </trkpt>
      <trkpt lat="43.33746" lon="-1.44026">
        <ele>94.3</ele>
        <time>2022-08-30T11:41:38Z</time>
      </trkpt>
      <trkpt lat="43.33753" lon="-1.44035">
        <ele>93.1</ele>
        <time>2022-08-30T11:41:39Z</time>
      </trkpt>
      <trkpt lat="43.33759" lon="-1.44045">
        <ele>91.9</ele>
        <time>2022-08-30T11:41:40Z</time>
      </trkpt>
      <trkpt lat="43.33765" lon="-1.44054">
        <ele>91</ele>
        <time>2022-08-30T11:41:41Z</time>
      </trkpt>
      <trkpt lat="43.3377" lon="-1.44067">
        <ele>90</ele>
        <time>2022-08-30T11:41:42Z</time>
      </trkpt>
      <trkpt lat="43.33774" lon="-1.4408">
        <ele>89.2</ele>
        <time>2022-08-30T11:41:43Z</time>
      </trkpt>
      <trkpt lat="43.33778" lon="-1.44093">
        <ele>88.5</ele>
        <time>2022-08-30T11:41:44Z</time>
      </trkpt>
      <trkpt lat="43.33782" lon="-1.44106">
        <ele>87.5</ele>
        <time>2022-08-30T11:41:45Z</time>
      </trkpt>
      <trkpt lat="43.33787" lon="-1.44119">
        <ele>86.2</ele>
        <time>2022-08-30T11:41:46Z</time>
      </trkpt>
      <trkpt lat="43.33793" lon="-1.44132">
        <ele>84.8</ele>
        <time>2022-08-30T11:41:47Z</time>
      </trkpt>
      <trkpt lat="43.33799" lon="-1.44146">
        <ele>83.3</ele>
        <time>2022-08-30T11:41:48Z</time>
      </trkpt>
      <trkpt lat="43.33805" lon="-1.4416">
        <ele>81.9</ele>
        <time>2022-08-30T11:41:49Z</time>
      </trkpt>
      <trkpt lat="43.33812" lon="-1.44173">
        <ele>80.5</ele>
        <time>2022-08-30T11:41:50Z</time>
      </trkpt>
      <trkpt lat="43.33819" lon="-1.44185">
        <ele>79.1</ele>
        <time>2022-08-30T11:41:51Z</time>
      </trkpt>
      <trkpt lat="43.33826" lon="-1.44196">
        <ele>77.9</ele>
        <time>2022-08-30T11:41:52Z</time>
      </trkpt>
      <trkpt lat="43.33833" lon="-1.44205">
        <ele>76.7</ele>
        <time>2022-08-30T11:41:53Z</time>
      </trkpt>
      <trkpt lat="43.33839" lon="-1.44214">
        <ele>75.6</ele>
        <time>2022-08-30T11:41:54Z</time>
      </trkpt>
      <trkpt lat="43.33846" lon="-1.44222">
        <ele>74.3</ele>
        <time>2022-08-30T11:41:55Z</time>
      </trkpt>
      <trkpt lat="43.33854" lon="-1.44231">
        <ele>73</ele>
        <time>2022-08-30T11:41:56Z</time>
      </trkpt>
      <trkpt lat="43.33862" lon="-1.44238">
        <ele>71.7</ele>
        <time>2022-08-30T11:41:57Z</time>
      </trkpt>
      <trkpt lat="43.33871" lon="-1.44245">
        <ele>70.4</ele>
        <time>2022-08-30T11:41:58Z</time>
      </trkpt>
      <trkpt lat="43.33879" lon="-1.44251">
        <ele>69.2</ele>
        <time>2022-08-30T11:41:59Z</time>
      </trkpt>
      <trkpt lat="43.33888" lon="-1.44258">
        <ele>68.1</ele>
        <time>2022-08-30T11:42:00Z</time>
      </trkpt>
      <trkpt lat="43.33896" lon="-1.44266">
        <ele>67.2</ele>
        <time>2022-08-30T11:42:01Z</time>
      </trkpt>
      <trkpt lat="43.33902" lon="-1.44276">
        <ele>66.6</ele>
        <time>2022-08-30T11:42:02Z</time>
      </trkpt>
      <trkpt lat="43.33907" lon="-1.44283">
        <ele>66.2</ele>
        <time>2022-08-30T11:42:03Z</time>
      </trkpt>
      <trkpt lat="43.33912" lon="-1.44289">
        <ele>65.9</ele>
        <time>2022-08-30T11:42:04Z</time>
      </trkpt>
      <trkpt lat="43.33917" lon="-1.44293">
        <ele>65.6</ele>
        <time>2022-08-30T11:42:05Z</time>
      </trkpt>
      <trkpt lat="43.33923" lon="-1.44297">
        <ele>65.3</ele>
        <time>2022-08-30T11:42:06Z</time>
      </trkpt>
      <trkpt lat="43.33929" lon="-1.44298">
        <ele>65.1</ele>
        <time>2022-08-30T11:42:07Z</time>
      </trkpt>
      <trkpt lat="43.33935" lon="-1.44299">
        <ele>64.8</ele>
        <time>2022-08-30T11:42:08Z</time>
      </trkpt>
      <trkpt lat="43.33942" lon="-1.443">
        <ele>64.7</ele>
        <time>2022-08-30T11:42:09Z</time>
      </trkpt>
      <trkpt lat="43.33948" lon="-1.44301">
        <ele>64.5</ele>
        <time>2022-08-30T11:42:10Z</time>
      </trkpt>
      <trkpt lat="43.33954" lon="-1.44303">
        <ele>64.4</ele>
        <time>2022-08-30T11:42:11Z</time>
      </trkpt>
      <trkpt lat="43.3396" lon="-1.44304">
        <ele>64.3</ele>
        <time>2022-08-30T11:42:12Z</time>
      </trkpt>
      <trkpt lat="43.33965" lon="-1.44305">
        <ele>64.3</ele>
        <time>2022-08-30T11:42:13Z</time>
      </trkpt>
      <trkpt lat="43.3397" lon="-1.44305">
        <ele>64.2</ele>
        <time>2022-08-30T11:42:14Z</time>
      </trkpt>
      <trkpt lat="43.33976" lon="-1.44306">
        <ele>64.3</ele>
        <time>2022-08-30T11:42:15Z</time>
      </trkpt>
      <trkpt lat="43.33982" lon="-1.44306">
        <ele>64.3</ele>
        <time>2022-08-30T11:42:16Z</time>
      </trkpt>
      <trkpt lat="43.33987" lon="-1.44307">
        <ele>64.4</ele>
        <time>2022-08-30T11:42:17Z</time>
      </trkpt>
      <trkpt lat="43.33992" lon="-1.44309">
        <ele>64.5</ele>
        <time>2022-08-30T11:42:18Z</time>
      </trkpt>
      <trkpt lat="43.33997" lon="-1.4431">
        <ele>64.6</ele>
        <time>2022-08-30T11:42:19Z</time>
      </trkpt>
      <trkpt lat="43.34001" lon="-1.44311">
        <ele>64.7</ele>
        <time>2022-08-30T11:42:20Z</time>
      </trkpt>
      <trkpt lat="43.34005" lon="-1.44312">
        <ele>64.8</ele>
        <time>2022-08-30T11:42:21Z</time>
      </trkpt>
      <trkpt lat="43.34009" lon="-1.44312">
        <ele>64.8</ele>
        <time>2022-08-30T11:42:22Z</time>
      </trkpt>
      <trkpt lat="43.34013" lon="-1.44311">
        <ele>64.8</ele>
        <time>2022-08-30T11:42:23Z</time>
      </trkpt>
      <trkpt lat="43.34017" lon="-1.4431">
        <ele>64.7</ele>
        <time>2022-08-30T11:42:24Z</time>
      </trkpt>
      <trkpt lat="43.34022" lon="-1.44309">
        <ele>64.6</ele>
        <time>2022-08-30T11:42:25Z</time>
      </trkpt>
      <trkpt lat="43.34026" lon="-1.44309">
        <ele>64.5</ele>
        <time>2022-08-30T11:42:26Z</time>
      </trkpt>
      <trkpt lat="43.34031" lon="-1.44308">
        <ele>64.4</ele>
        <time>2022-08-30T11:42:27Z</time>
      </trkpt>
      <trkpt lat="43.34036" lon="-1.44307">
        <ele>64.3</ele>
        <time>2022-08-30T11:42:28Z</time>
      </trkpt>
      <trkpt lat="43.34041" lon="-1.44306">
        <ele>64.2</ele>
        <time>2022-08-30T11:42:29Z</time>
      </trkpt>
      <trkpt lat="43.34046" lon="-1.44307">
        <ele>64.1</ele>
        <time>2022-08-30T11:42:30Z</time>
      </trkpt>
      <trkpt lat="43.34051" lon="-1.44308">
        <ele>64</ele>
        <time>2022-08-30T11:42:31Z</time>
      </trkpt>
      <trkpt lat="43.34056" lon="-1.44311">
        <ele>63.8</ele>
        <time>2022-08-30T11:42:32Z</time>
      </trkpt>
      <trkpt lat="43.3406" lon="-1.44315">
        <ele>63.7</ele>
        <time>2022-08-30T11:42:33Z</time>
      </trkpt>
      <trkpt lat="43.34064" lon="-1.44319">
        <ele>63.6</ele>
        <time>2022-08-30T11:42:34Z</time>
      </trkpt>
      <trkpt lat="43.34068" lon="-1.44321">
        <ele>63.4</ele>
        <time>2022-08-30T11:42:35Z</time>
      </trkpt>
      <trkpt lat="43.34071" lon="-1.44324">
        <ele>62.9</ele>
        <time>2022-08-30T11:42:36Z</time>
      </trkpt>
      <trkpt lat="43.34072" lon="-1.44328">
        <ele>62.8</ele>
        <time>2022-08-30T11:42:37Z</time>
      </trkpt>
      <trkpt lat="43.34072" lon="-1.4433">
        <ele>62.7</ele>
        <time>2022-08-30T11:42:38Z</time>
      </trkpt>
      <trkpt lat="43.3407" lon="-1.44335">
        <ele>62.5</ele>
        <time>2022-08-30T11:42:39Z</time>
      </trkpt>
      <trkpt lat="43.34065" lon="-1.4434">
        <ele>62.3</ele>
        <time>2022-08-30T11:42:40Z</time>
      </trkpt>
      <trkpt lat="43.34056" lon="-1.44344">
        <ele>61.9</ele>
        <time>2022-08-30T11:42:41Z</time>
      </trkpt>
      <trkpt lat="43.34049" lon="-1.44346">
        <ele>61.6</ele>
        <time>2022-08-30T11:42:42Z</time>
      </trkpt>
      <trkpt lat="43.34041" lon="-1.44349">
        <ele>61.3</ele>
        <time>2022-08-30T11:42:43Z</time>
      </trkpt>
      <trkpt lat="43.34034" lon="-1.44352">
        <ele>61.1</ele>
        <time>2022-08-30T11:42:44Z</time>
      </trkpt>
      <trkpt lat="43.34028" lon="-1.44355">
        <ele>60.9</ele>
        <time>2022-08-30T11:42:45Z</time>
      </trkpt>
      <trkpt lat="43.34022" lon="-1.44359">
        <ele>60.8</ele>
        <time>2022-08-30T11:42:46Z</time>
      </trkpt>
      <trkpt lat="43.34016" lon="-1.44363">
        <ele>60.7</ele>
        <time>2022-08-30T11:42:47Z</time>
      </trkpt>
      <trkpt lat="43.3401" lon="-1.44368">
        <ele>60.6</ele>
        <time>2022-08-30T11:42:48Z</time>
      </trkpt>
      <trkpt lat="43.34004" lon="-1.44372">
        <ele>60.6</ele>
        <time>2022-08-30T11:42:49Z</time>
      </trkpt>
      <trkpt lat="43.33999" lon="-1.44377">
        <ele>60.6</ele>
        <time>2022-08-30T11:42:50Z</time>
      </trkpt>
      <trkpt lat="43.33995" lon="-1.44382">
        <ele>60.6</ele>
        <time>2022-08-30T11:42:51Z</time>
      </trkpt>
      <trkpt lat="43.3399" lon="-1.44388">
        <ele>60.9</ele>
        <time>2022-08-30T11:42:52Z</time>
      </trkpt>
      <trkpt lat="43.33986" lon="-1.44392">
        <ele>61.2</ele>
        <time>2022-08-30T11:42:53Z</time>
      </trkpt>
      <trkpt lat="43.33982" lon="-1.44397">
        <ele>61.5</ele>
        <time>2022-08-30T11:42:54Z</time>
      </trkpt>
      <trkpt lat="43.33978" lon="-1.44402">
        <ele>61.8</ele>
        <time>2022-08-30T11:42:55Z</time>
      </trkpt>
      <trkpt lat="43.33975" lon="-1.44408">
        <ele>62.2</ele>
        <time>2022-08-30T11:42:56Z</time>
      </trkpt>
      <trkpt lat="43.33972" lon="-1.44413">
        <ele>62.5</ele>
        <time>2022-08-30T11:42:57Z</time>
      </trkpt>
      <trkpt lat="43.33969" lon="-1.44419">
        <ele>62.8</ele>
        <time>2022-08-30T11:42:58Z</time>
      </trkpt>
      <trkpt lat="43.33967" lon="-1.44425">
        <ele>63.1</ele>
        <time>2022-08-30T11:42:59Z</time>
      </trkpt>
      <trkpt lat="43.33965" lon="-1.4443">
        <ele>63.5</ele>
        <time>2022-08-30T11:43:00Z</time>
      </trkpt>
      <trkpt lat="43.33963" lon="-1.44436">
        <ele>63.8</ele>
        <time>2022-08-30T11:43:01Z</time>
      </trkpt>
      <trkpt lat="43.33961" lon="-1.44442">
        <ele>63.9</ele>
        <time>2022-08-30T11:43:02Z</time>
      </trkpt>
      <trkpt lat="43.33959" lon="-1.44448">
        <ele>63.9</ele>
        <time>2022-08-30T11:43:03Z</time>
      </trkpt>
      <trkpt lat="43.33957" lon="-1.44454">
        <ele>64</ele>
        <time>2022-08-30T11:43:04Z</time>
      </trkpt>
      <trkpt lat="43.33956" lon="-1.4446">
        <ele>64.1</ele>
        <time>2022-08-30T11:43:05Z</time>
      </trkpt>
      <trkpt lat="43.33954" lon="-1.44466">
        <ele>64.2</ele>
        <time>2022-08-30T11:43:06Z</time>
      </trkpt>
      <trkpt lat="43.33953" lon="-1.44473">
        <ele>64.3</ele>
        <time>2022-08-30T11:43:07Z</time>
      </trkpt>
      <trkpt lat="43.33951" lon="-1.44479">
        <ele>64.4</ele>
        <time>2022-08-30T11:43:08Z</time>
      </trkpt>
      <trkpt lat="43.33949" lon="-1.44484">
        <ele>64.5</ele>
        <time>2022-08-30T11:43:09Z</time>
      </trkpt>
      <trkpt lat="43.33947" lon="-1.4449">
        <ele>64.7</ele>
        <time>2022-08-30T11:43:10Z</time>
      </trkpt>
      <trkpt lat="43.33945" lon="-1.44496">
        <ele>65</ele>
        <time>2022-08-30T11:43:11Z</time>
      </trkpt>
      <trkpt lat="43.33942" lon="-1.44502">
        <ele>65.3</ele>
        <time>2022-08-30T11:43:12Z</time>
      </trkpt>
      <trkpt lat="43.33938" lon="-1.44507">
        <ele>65.7</ele>
        <time>2022-08-30T11:43:13Z</time>
      </trkpt>
      <trkpt lat="43.33934" lon="-1.44512">
        <ele>66</ele>
        <time>2022-08-30T11:43:14Z</time>
      </trkpt>
      <trkpt lat="43.3393" lon="-1.44517">
        <ele>66.5</ele>
        <time>2022-08-30T11:43:15Z</time>
      </trkpt>
      <trkpt lat="43.33927" lon="-1.44521">
        <ele>66.9</ele>
        <time>2022-08-30T11:43:16Z</time>
      </trkpt>
      <trkpt lat="43.33924" lon="-1.44525">
        <ele>67.3</ele>
        <time>2022-08-30T11:43:17Z</time>
      </trkpt>
      <trkpt lat="43.33921" lon="-1.44529">
        <ele>67.7</ele>
        <time>2022-08-30T11:43:18Z</time>
      </trkpt>
      <trkpt lat="43.33918" lon="-1.44533">
        <ele>68.1</ele>
        <time>2022-08-30T11:43:19Z</time>
      </trkpt>
      <trkpt lat="43.33914" lon="-1.44537">
        <ele>68.7</ele>
        <time>2022-08-30T11:43:20Z</time>
      </trkpt>
      <trkpt lat="43.33911" lon="-1.44541">
        <ele>69.4</ele>
        <time>2022-08-30T11:43:21Z</time>
      </trkpt>
      <trkpt lat="43.33908" lon="-1.44544">
        <ele>69.9</ele>
        <time>2022-08-30T11:43:22Z</time>
      </trkpt>
      <trkpt lat="43.33905" lon="-1.44547">
        <ele>70.5</ele>
        <time>2022-08-30T11:43:23Z</time>
      </trkpt>
      <trkpt lat="43.33903" lon="-1.44549">
        <ele>70.9</ele>
        <time>2022-08-30T11:43:24Z</time>
      </trkpt>
      <trkpt lat="43.33901" lon="-1.44553">
        <ele>71.4</ele>
        <time>2022-08-30T11:43:25Z</time>
      </trkpt>
      <trkpt lat="43.33901" lon="-1.44554">
        <ele>71.6</ele>
        <time>2022-08-30T11:43:26Z</time>
      </trkpt>
      <trkpt lat="43.339" lon="-1.44556">
        <ele>71.8</ele>
        <time>2022-08-30T11:43:27Z</time>
      </trkpt>
      <trkpt lat="43.339" lon="-1.44558">
        <ele>72.1</ele>
        <time>2022-08-30T11:43:28Z</time>
      </trkpt>
      <trkpt lat="43.339" lon="-1.44561">
        <ele>72.3</ele>
        <time>2022-08-30T11:43:29Z</time>
      </trkpt>
      <trkpt lat="43.33901" lon="-1.44562">
        <ele>72.6</ele>
        <time>2022-08-30T11:43:30Z</time>
      </trkpt>
      <trkpt lat="43.33904" lon="-1.44563">
        <ele>73.6</ele>
        <time>2022-08-30T11:43:31Z</time>
      </trkpt>
      <trkpt lat="43.33907" lon="-1.44564">
        <ele>73.8</ele>
        <time>2022-08-30T11:43:32Z</time>
      </trkpt>
      <trkpt lat="43.33911" lon="-1.44565">
        <ele>74</ele>
        <time>2022-08-30T11:43:33Z</time>
      </trkpt>
      <trkpt lat="43.33915" lon="-1.44566">
        <ele>74.1</ele>
        <time>2022-08-30T11:43:34Z</time>
      </trkpt>
      <trkpt lat="43.33918" lon="-1.44567">
        <ele>74.1</ele>
        <time>2022-08-30T11:43:35Z</time>
      </trkpt>
      <trkpt lat="43.33922" lon="-1.44569">
        <ele>74.1</ele>
        <time>2022-08-30T11:43:36Z</time>
      </trkpt>
      <trkpt lat="43.33926" lon="-1.44571">
        <ele>74.1</ele>
        <time>2022-08-30T11:43:37Z</time>
      </trkpt>
      <trkpt lat="43.3393" lon="-1.44574">
        <ele>74.1</ele>
        <time>2022-08-30T11:43:38Z</time>
      </trkpt>
      <trkpt lat="43.33933" lon="-1.44576">
        <ele>74.1</ele>
        <time>2022-08-30T11:43:39Z</time>
      </trkpt>
      <trkpt lat="43.33936" lon="-1.44578">
        <ele>74.2</ele>
        <time>2022-08-30T11:43:40Z</time>
      </trkpt>
      <trkpt lat="43.33939" lon="-1.4458">
        <ele>74.2</ele>
        <time>2022-08-30T11:43:41Z</time>
      </trkpt>
      <trkpt lat="43.33942" lon="-1.44582">
        <ele>74.2</ele>
        <time>2022-08-30T11:43:42Z</time>
      </trkpt>
      <trkpt lat="43.33944" lon="-1.44585">
        <ele>74.2</ele>
        <time>2022-08-30T11:43:43Z</time>
      </trkpt>
      <trkpt lat="43.33946" lon="-1.44589">
        <ele>74.2</ele>
        <time>2022-08-30T11:43:44Z</time>
      </trkpt>
      <trkpt lat="43.33946" lon="-1.44594">
        <ele>74.3</ele>
        <time>2022-08-30T11:43:45Z</time>
      </trkpt>
      <trkpt lat="43.33946" lon="-1.446">
        <ele>74.4</ele>
        <time>2022-08-30T11:43:46Z</time>
      </trkpt>
      <trkpt lat="43.33946" lon="-1.44607">
        <ele>74.5</ele>
        <time>2022-08-30T11:43:47Z</time>
      </trkpt>
      <trkpt lat="43.33946" lon="-1.44612">
        <ele>74.9</ele>
        <time>2022-08-30T11:43:48Z</time>
      </trkpt>
      <trkpt lat="43.33945" lon="-1.44617">
        <ele>75.3</ele>
        <time>2022-08-30T11:43:49Z</time>
      </trkpt>
      <trkpt lat="43.33946" lon="-1.44621">
        <ele>76.1</ele>
        <time>2022-08-30T11:43:50Z</time>
      </trkpt>
      <trkpt lat="43.33948" lon="-1.44625">
        <ele>76.2</ele>
        <time>2022-08-30T11:43:51Z</time>
      </trkpt>
      <trkpt lat="43.33951" lon="-1.44628">
        <ele>76.2</ele>
        <time>2022-08-30T11:43:52Z</time>
      </trkpt>
      <trkpt lat="43.33955" lon="-1.4463">
        <ele>76.2</ele>
        <time>2022-08-30T11:43:53Z</time>
      </trkpt>
      <trkpt lat="43.33958" lon="-1.44635">
        <ele>76.2</ele>
        <time>2022-08-30T11:43:54Z</time>
      </trkpt>
      <trkpt lat="43.33959" lon="-1.44641">
        <ele>76.2</ele>
        <time>2022-08-30T11:43:55Z</time>
      </trkpt>
      <trkpt lat="43.33958" lon="-1.44649">
        <ele>76.7</ele>
        <time>2022-08-30T11:43:56Z</time>
      </trkpt>
      <trkpt lat="43.33957" lon="-1.44658">
        <ele>77</ele>
        <time>2022-08-30T11:43:57Z</time>
      </trkpt>
      <trkpt lat="43.33955" lon="-1.44665">
        <ele>77.3</ele>
        <time>2022-08-30T11:43:58Z</time>
      </trkpt>
      <trkpt lat="43.33954" lon="-1.4467">
        <ele>77.4</ele>
        <time>2022-08-30T11:43:59Z</time>
      </trkpt>
      <trkpt lat="43.33953" lon="-1.44674">
        <ele>77.6</ele>
        <time>2022-08-30T11:44:00Z</time>
      </trkpt>
      <trkpt lat="43.33952" lon="-1.44678">
        <ele>77.7</ele>
        <time>2022-08-30T11:44:01Z</time>
      </trkpt>
      <trkpt lat="43.33952" lon="-1.44682">
        <ele>77.8</ele>
        <time>2022-08-30T11:44:02Z</time>
      </trkpt>
      <trkpt lat="43.33951" lon="-1.44686">
        <ele>77.9</ele>
        <time>2022-08-30T11:44:03Z</time>
      </trkpt>
      <trkpt lat="43.33951" lon="-1.44688">
        <ele>78</ele>
        <time>2022-08-30T11:44:04Z</time>
      </trkpt>
      <trkpt lat="43.33949" lon="-1.44691">
        <ele>78.1</ele>
        <time>2022-08-30T11:44:05Z</time>
      </trkpt>
      <trkpt lat="43.33949" lon="-1.44693">
        <ele>78.1</ele>
        <time>2022-08-30T11:44:06Z</time>
      </trkpt>
      <trkpt lat="43.33948" lon="-1.44697">
        <ele>78.2</ele>
        <time>2022-08-30T11:44:07Z</time>
      </trkpt>
      <trkpt lat="43.33948" lon="-1.44699">
        <ele>78.2</ele>
        <time>2022-08-30T11:44:08Z</time>
      </trkpt>
      <trkpt lat="43.33951" lon="-1.44701">
        <ele>78.2</ele>
        <time>2022-08-30T11:44:09Z</time>
      </trkpt>
      <trkpt lat="43.33952" lon="-1.44702">
        <ele>78.2</ele>
        <time>2022-08-30T11:44:10Z</time>
      </trkpt>
      <trkpt lat="43.33956" lon="-1.44703">
        <ele>78.2</ele>
        <time>2022-08-30T11:44:11Z</time>
      </trkpt>
      <trkpt lat="43.3396" lon="-1.44706">
        <ele>78.1</ele>
        <time>2022-08-30T11:44:12Z</time>
      </trkpt>
      <trkpt lat="43.33965" lon="-1.44707">
        <ele>78.1</ele>
        <time>2022-08-30T11:44:13Z</time>
      </trkpt>
      <trkpt lat="43.33969" lon="-1.44709">
        <ele>78</ele>
        <time>2022-08-30T11:44:14Z</time>
      </trkpt>
      <trkpt lat="43.33973" lon="-1.44711">
        <ele>78</ele>
        <time>2022-08-30T11:44:15Z</time>
      </trkpt>
      <trkpt lat="43.33977" lon="-1.44713">
        <ele>78</ele>
        <time>2022-08-30T11:44:16Z</time>
      </trkpt>
      <trkpt lat="43.3398" lon="-1.44714">
        <ele>77.9</ele>
        <time>2022-08-30T11:44:17Z</time>
      </trkpt>
      <trkpt lat="43.33984" lon="-1.44716">
        <ele>77.9</ele>
        <time>2022-08-30T11:44:18Z</time>
      </trkpt>
      <trkpt lat="43.33988" lon="-1.44718">
        <ele>77.8</ele>
        <time>2022-08-30T11:44:19Z</time>
      </trkpt>
      <trkpt lat="43.33991" lon="-1.44719">
        <ele>77.8</ele>
        <time>2022-08-30T11:44:20Z</time>
      </trkpt>
      <trkpt lat="43.33994" lon="-1.44721">
        <ele>77.8</ele>
        <time>2022-08-30T11:44:21Z</time>
      </trkpt>
      <trkpt lat="43.33998" lon="-1.44723">
        <ele>77.7</ele>
        <time>2022-08-30T11:44:22Z</time>
      </trkpt>
      <trkpt lat="43.34001" lon="-1.44727">
        <ele>77.7</ele>
        <time>2022-08-30T11:44:23Z</time>
      </trkpt>
      <trkpt lat="43.34004" lon="-1.4473">
        <ele>77.7</ele>
        <time>2022-08-30T11:44:24Z</time>
      </trkpt>
      <trkpt lat="43.34007" lon="-1.44734">
        <ele>77.6</ele>
        <time>2022-08-30T11:44:25Z</time>
      </trkpt>
      <trkpt lat="43.34009" lon="-1.44738">
        <ele>77.6</ele>
        <time>2022-08-30T11:44:26Z</time>
      </trkpt>
      <trkpt lat="43.34012" lon="-1.44743">
        <ele>77.6</ele>
        <time>2022-08-30T11:44:27Z</time>
      </trkpt>
      <trkpt lat="43.34015" lon="-1.44747">
        <ele>77.6</ele>
        <time>2022-08-30T11:44:28Z</time>
      </trkpt>
      <trkpt lat="43.34017" lon="-1.44752">
        <ele>77.6</ele>
        <time>2022-08-30T11:44:29Z</time>
      </trkpt>
      <trkpt lat="43.34018" lon="-1.44757">
        <ele>77.6</ele>
        <time>2022-08-30T11:44:30Z</time>
      </trkpt>
      <trkpt lat="43.3402" lon="-1.44761">
        <ele>77.6</ele>
        <time>2022-08-30T11:44:31Z</time>
      </trkpt>
      <trkpt lat="43.34022" lon="-1.44765">
        <ele>77.7</ele>
        <time>2022-08-30T11:44:32Z</time>
      </trkpt>
      <trkpt lat="43.34025" lon="-1.44768">
        <ele>77.7</ele>
        <time>2022-08-30T11:44:33Z</time>
      </trkpt>
      <trkpt lat="43.34027" lon="-1.4477">
        <ele>77.7</ele>
        <time>2022-08-30T11:44:34Z</time>
      </trkpt>
      <trkpt lat="43.3403" lon="-1.44773">
        <ele>77.7</ele>
        <time>2022-08-30T11:44:35Z</time>
      </trkpt>
      <trkpt lat="43.34032" lon="-1.44775">
        <ele>77.7</ele>
        <time>2022-08-30T11:44:36Z</time>
      </trkpt>
      <trkpt lat="43.34035" lon="-1.44777">
        <ele>77.7</ele>
        <time>2022-08-30T11:44:37Z</time>
      </trkpt>
      <trkpt lat="43.34038" lon="-1.4478">
        <ele>77.7</ele>
        <time>2022-08-30T11:44:38Z</time>
      </trkpt>
      <trkpt lat="43.34041" lon="-1.44783">
        <ele>77.7</ele>
        <time>2022-08-30T11:44:39Z</time>
      </trkpt>
      <trkpt lat="43.34044" lon="-1.44785">
        <ele>77.7</ele>
        <time>2022-08-30T11:44:40Z</time>
      </trkpt>
      <trkpt lat="43.34047" lon="-1.44787">
        <ele>77.6</ele>
        <time>2022-08-30T11:44:41Z</time>
      </trkpt>
      <trkpt lat="43.34049" lon="-1.44788">
        <ele>77.6</ele>
        <time>2022-08-30T11:44:42Z</time>
      </trkpt>
      <trkpt lat="43.34052" lon="-1.44789">
        <ele>77.6</ele>
        <time>2022-08-30T11:44:43Z</time>
      </trkpt>
      <trkpt lat="43.34053" lon="-1.44789">
        <ele>77.6</ele>
        <time>2022-08-30T11:44:44Z</time>
      </trkpt>
      <trkpt lat="43.34055" lon="-1.4479">
        <ele>77.6</ele>
        <time>2022-08-30T11:44:45Z</time>
      </trkpt>
      <trkpt lat="43.34056" lon="-1.44792">
        <ele>77.6</ele>
        <time>2022-08-30T11:44:46Z</time>
      </trkpt>
      <trkpt lat="43.34056" lon="-1.44796">
        <ele>77.6</ele>
        <time>2022-08-30T11:44:47Z</time>
      </trkpt>
      <trkpt lat="43.34056" lon="-1.44798">
        <ele>77.6</ele>
        <time>2022-08-30T11:44:48Z</time>
      </trkpt>
      <trkpt lat="43.34056" lon="-1.44802">
        <ele>77.6</ele>
        <time>2022-08-30T11:44:49Z</time>
      </trkpt>
      <trkpt lat="43.34057" lon="-1.44806">
        <ele>77.6</ele>
        <time>2022-08-30T11:44:50Z</time>
      </trkpt>
      <trkpt lat="43.34057" lon="-1.44811">
        <ele>77.6</ele>
        <time>2022-08-30T11:44:51Z</time>
      </trkpt>
      <trkpt lat="43.34057" lon="-1.44816">
        <ele>77.6</ele>
        <time>2022-08-30T11:44:52Z</time>
      </trkpt>
      <trkpt lat="43.34058" lon="-1.44821">
        <ele>77.6</ele>
        <time>2022-08-30T11:44:53Z</time>
      </trkpt>
      <trkpt lat="43.34059" lon="-1.44825">
        <ele>77.6</ele>
        <time>2022-08-30T11:44:54Z</time>
      </trkpt>
      <trkpt lat="43.3406" lon="-1.4483">
        <ele>77.6</ele>
        <time>2022-08-30T11:44:55Z</time>
      </trkpt>
      <trkpt lat="43.34061" lon="-1.44835">
        <ele>77.6</ele>
        <time>2022-08-30T11:44:56Z</time>
      </trkpt>
      <trkpt lat="43.34062" lon="-1.4484">
        <ele>77.6</ele>
        <time>2022-08-30T11:44:57Z</time>
      </trkpt>
      <trkpt lat="43.34063" lon="-1.44845">
        <ele>77.6</ele>
        <time>2022-08-30T11:44:58Z</time>
      </trkpt>
      <trkpt lat="43.34064" lon="-1.4485">
        <ele>77.6</ele>
        <time>2022-08-30T11:44:59Z</time>
      </trkpt>
      <trkpt lat="43.34065" lon="-1.44854">
        <ele>77.6</ele>
        <time>2022-08-30T11:45:00Z</time>
      </trkpt>
      <trkpt lat="43.34066" lon="-1.4486">
        <ele>77.7</ele>
        <time>2022-08-30T11:45:01Z</time>
      </trkpt>
      <trkpt lat="43.34067" lon="-1.44866">
        <ele>77.7</ele>
        <time>2022-08-30T11:45:02Z</time>
      </trkpt>
      <trkpt lat="43.34068" lon="-1.44871">
        <ele>77.7</ele>
        <time>2022-08-30T11:45:03Z</time>
      </trkpt>
      <trkpt lat="43.3407" lon="-1.44877">
        <ele>77.8</ele>
        <time>2022-08-30T11:45:04Z</time>
      </trkpt>
      <trkpt lat="43.34073" lon="-1.44882">
        <ele>77.8</ele>
        <time>2022-08-30T11:45:05Z</time>
      </trkpt>
      <trkpt lat="43.34075" lon="-1.44885">
        <ele>77.9</ele>
        <time>2022-08-30T11:45:06Z</time>
      </trkpt>
      <trkpt lat="43.34078" lon="-1.44888">
        <ele>77.9</ele>
        <time>2022-08-30T11:45:07Z</time>
      </trkpt>
      <trkpt lat="43.3408" lon="-1.44891">
        <ele>77.9</ele>
        <time>2022-08-30T11:45:08Z</time>
      </trkpt>
      <trkpt lat="43.34082" lon="-1.44893">
        <ele>77.9</ele>
        <time>2022-08-30T11:45:09Z</time>
      </trkpt>
      <trkpt lat="43.34086" lon="-1.44896">
        <ele>77.8</ele>
        <time>2022-08-30T11:45:10Z</time>
      </trkpt>
      <trkpt lat="43.34087" lon="-1.44896">
        <ele>77.8</ele>
        <time>2022-08-30T11:45:11Z</time>
      </trkpt>
      <trkpt lat="43.3409" lon="-1.44898">
        <ele>77.8</ele>
        <time>2022-08-30T11:45:12Z</time>
      </trkpt>
      <trkpt lat="43.34091" lon="-1.44899">
        <ele>77.8</ele>
        <time>2022-08-30T11:45:13Z</time>
      </trkpt>
      <trkpt lat="43.34093" lon="-1.44901">
        <ele>77.8</ele>
        <time>2022-08-30T11:45:14Z</time>
      </trkpt>
      <trkpt lat="43.34096" lon="-1.44902">
        <ele>77.8</ele>
        <time>2022-08-30T11:45:15Z</time>
      </trkpt>
      <trkpt lat="43.34099" lon="-1.44904">
        <ele>77.8</ele>
        <time>2022-08-30T11:45:16Z</time>
      </trkpt>
      <trkpt lat="43.34103" lon="-1.44906">
        <ele>77.7</ele>
        <time>2022-08-30T11:45:17Z</time>
      </trkpt>
      <trkpt lat="43.34106" lon="-1.44908">
        <ele>77.7</ele>
        <time>2022-08-30T11:45:18Z</time>
      </trkpt>
      <trkpt lat="43.34108" lon="-1.4491">
        <ele>77.7</ele>
        <time>2022-08-30T11:45:19Z</time>
      </trkpt>
      <trkpt lat="43.34111" lon="-1.44912">
        <ele>77.6</ele>
        <time>2022-08-30T11:45:20Z</time>
      </trkpt>
      <trkpt lat="43.34114" lon="-1.44915">
        <ele>77.6</ele>
        <time>2022-08-30T11:45:21Z</time>
      </trkpt>
      <trkpt lat="43.34117" lon="-1.44917">
        <ele>77.6</ele>
        <time>2022-08-30T11:45:22Z</time>
      </trkpt>
      <trkpt lat="43.34119" lon="-1.4492">
        <ele>77.5</ele>
        <time>2022-08-30T11:45:23Z</time>
      </trkpt>
      <trkpt lat="43.34121" lon="-1.44923">
        <ele>77.5</ele>
        <time>2022-08-30T11:45:24Z</time>
      </trkpt>
      <trkpt lat="43.34122" lon="-1.44928">
        <ele>77.4</ele>
        <time>2022-08-30T11:45:25Z</time>
      </trkpt>
      <trkpt lat="43.34121" lon="-1.44934">
        <ele>77.3</ele>
        <time>2022-08-30T11:45:26Z</time>
      </trkpt>
      <trkpt lat="43.34118" lon="-1.4494">
        <ele>77.2</ele>
        <time>2022-08-30T11:45:27Z</time>
      </trkpt>
      <trkpt lat="43.34116" lon="-1.44946">
        <ele>77.1</ele>
        <time>2022-08-30T11:45:28Z</time>
      </trkpt>
      <trkpt lat="43.34112" lon="-1.44951">
        <ele>76.9</ele>
        <time>2022-08-30T11:45:29Z</time>
      </trkpt>
      <trkpt lat="43.34109" lon="-1.44957">
        <ele>76.7</ele>
        <time>2022-08-30T11:45:30Z</time>
      </trkpt>
      <trkpt lat="43.34107" lon="-1.44963">
        <ele>76.5</ele>
        <time>2022-08-30T11:45:31Z</time>
      </trkpt>
      <trkpt lat="43.34105" lon="-1.44968">
        <ele>76.3</ele>
        <time>2022-08-30T11:45:32Z</time>
      </trkpt>
      <trkpt lat="43.34103" lon="-1.44973">
        <ele>76.1</ele>
        <time>2022-08-30T11:45:33Z</time>
      </trkpt>
      <trkpt lat="43.341" lon="-1.44979">
        <ele>75.8</ele>
        <time>2022-08-30T11:45:34Z</time>
      </trkpt>
      <trkpt lat="43.34096" lon="-1.44985">
        <ele>75.5</ele>
        <time>2022-08-30T11:45:35Z</time>
      </trkpt>
      <trkpt lat="43.34092" lon="-1.44992">
        <ele>75</ele>
        <time>2022-08-30T11:45:36Z</time>
      </trkpt>
      <trkpt lat="43.34088" lon="-1.45">
        <ele>74.4</ele>
        <time>2022-08-30T11:45:37Z</time>
      </trkpt>
      <trkpt lat="43.34085" lon="-1.45009">
        <ele>73.8</ele>
        <time>2022-08-30T11:45:38Z</time>
      </trkpt>
      <trkpt lat="43.34081" lon="-1.45018">
        <ele>73.1</ele>
        <time>2022-08-30T11:45:39Z</time>
      </trkpt>
      <trkpt lat="43.34078" lon="-1.45027">
        <ele>72.4</ele>
        <time>2022-08-30T11:45:40Z</time>
      </trkpt>
      <trkpt lat="43.34074" lon="-1.45036">
        <ele>71.7</ele>
        <time>2022-08-30T11:45:41Z</time>
      </trkpt>
      <trkpt lat="43.3407" lon="-1.45046">
        <ele>71</ele>
        <time>2022-08-30T11:45:42Z</time>
      </trkpt>
      <trkpt lat="43.34066" lon="-1.45056">
        <ele>70.2</ele>
        <time>2022-08-30T11:45:43Z</time>
      </trkpt>
      <trkpt lat="43.34061" lon="-1.45066">
        <ele>69.4</ele>
        <time>2022-08-30T11:45:44Z</time>
      </trkpt>
      <trkpt lat="43.34057" lon="-1.45077">
        <ele>68.6</ele>
        <time>2022-08-30T11:45:45Z</time>
      </trkpt>
      <trkpt lat="43.34052" lon="-1.45087">
        <ele>67.8</ele>
        <time>2022-08-30T11:45:46Z</time>
      </trkpt>
      <trkpt lat="43.34047" lon="-1.45098">
        <ele>67</ele>
        <time>2022-08-30T11:45:47Z</time>
      </trkpt>
      <trkpt lat="43.34043" lon="-1.45108">
        <ele>66.3</ele>
        <time>2022-08-30T11:45:48Z</time>
      </trkpt>
      <trkpt lat="43.34039" lon="-1.45118">
        <ele>65.7</ele>
        <time>2022-08-30T11:45:49Z</time>
      </trkpt>
      <trkpt lat="43.34036" lon="-1.45128">
        <ele>65</ele>
        <time>2022-08-30T11:45:50Z</time>
      </trkpt>
      <trkpt lat="43.34031" lon="-1.45136">
        <ele>64.4</ele>
        <time>2022-08-30T11:45:51Z</time>
      </trkpt>
      <trkpt lat="43.34026" lon="-1.45145">
        <ele>64.1</ele>
        <time>2022-08-30T11:45:52Z</time>
      </trkpt>
      <trkpt lat="43.34021" lon="-1.45154">
        <ele>63.8</ele>
        <time>2022-08-30T11:45:53Z</time>
      </trkpt>
      <trkpt lat="43.34015" lon="-1.45164">
        <ele>63.7</ele>
        <time>2022-08-30T11:45:54Z</time>
      </trkpt>
      <trkpt lat="43.34008" lon="-1.45173">
        <ele>63.4</ele>
        <time>2022-08-30T11:45:55Z</time>
      </trkpt>
      <trkpt lat="43.34001" lon="-1.45182">
        <ele>62.8</ele>
        <time>2022-08-30T11:45:56Z</time>
      </trkpt>
      <trkpt lat="43.33996" lon="-1.4519">
        <ele>62.3</ele>
        <time>2022-08-30T11:45:57Z</time>
      </trkpt>
      <trkpt lat="43.33991" lon="-1.452">
        <ele>61.8</ele>
        <time>2022-08-30T11:45:58Z</time>
      </trkpt>
      <trkpt lat="43.33988" lon="-1.45211">
        <ele>61.7</ele>
        <time>2022-08-30T11:45:59Z</time>
      </trkpt>
      <trkpt lat="43.33987" lon="-1.45221">
        <ele>61.7</ele>
        <time>2022-08-30T11:46:00Z</time>
      </trkpt>
      <trkpt lat="43.33985" lon="-1.45231">
        <ele>61.6</ele>
        <time>2022-08-30T11:46:01Z</time>
      </trkpt>
      <trkpt lat="43.33982" lon="-1.45239">
        <ele>61.6</ele>
        <time>2022-08-30T11:46:02Z</time>
      </trkpt>
      <trkpt lat="43.3398" lon="-1.45248">
        <ele>61.6</ele>
        <time>2022-08-30T11:46:03Z</time>
      </trkpt>
      <trkpt lat="43.33977" lon="-1.45256">
        <ele>61.6</ele>
        <time>2022-08-30T11:46:04Z</time>
      </trkpt>
      <trkpt lat="43.33973" lon="-1.45263">
        <ele>61.6</ele>
        <time>2022-08-30T11:46:05Z</time>
      </trkpt>
      <trkpt lat="43.33969" lon="-1.45269">
        <ele>61.6</ele>
        <time>2022-08-30T11:46:06Z</time>
      </trkpt>
      <trkpt lat="43.33965" lon="-1.45275">
        <ele>61.6</ele>
        <time>2022-08-30T11:46:07Z</time>
      </trkpt>
      <trkpt lat="43.3396" lon="-1.45281">
        <ele>61.6</ele>
        <time>2022-08-30T11:46:08Z</time>
      </trkpt>
      <trkpt lat="43.33956" lon="-1.45286">
        <ele>61.6</ele>
        <time>2022-08-30T11:46:09Z</time>
      </trkpt>
      <trkpt lat="43.33951" lon="-1.4529">
        <ele>61.6</ele>
        <time>2022-08-30T11:46:10Z</time>
      </trkpt>
      <trkpt lat="43.33946" lon="-1.45294">
        <ele>61.6</ele>
        <time>2022-08-30T11:46:11Z</time>
      </trkpt>
      <trkpt lat="43.33941" lon="-1.45298">
        <ele>61.6</ele>
        <time>2022-08-30T11:46:12Z</time>
      </trkpt>
      <trkpt lat="43.33937" lon="-1.45301">
        <ele>61.6</ele>
        <time>2022-08-30T11:46:13Z</time>
      </trkpt>
      <trkpt lat="43.33933" lon="-1.45305">
        <ele>61.5</ele>
        <time>2022-08-30T11:46:14Z</time>
      </trkpt>
      <trkpt lat="43.33931" lon="-1.45309">
        <ele>61.5</ele>
        <time>2022-08-30T11:46:15Z</time>
      </trkpt>
      <trkpt lat="43.33931" lon="-1.45314">
        <ele>60.9</ele>
        <time>2022-08-30T11:46:16Z</time>
      </trkpt>
      <trkpt lat="43.33934" lon="-1.4532">
        <ele>60.3</ele>
        <time>2022-08-30T11:46:17Z</time>
      </trkpt>
      <trkpt lat="43.33939" lon="-1.45325">
        <ele>59.7</ele>
        <time>2022-08-30T11:46:18Z</time>
      </trkpt>
      <trkpt lat="43.33946" lon="-1.45327">
        <ele>58.8</ele>
        <time>2022-08-30T11:46:19Z</time>
      </trkpt>
      <trkpt lat="43.33954" lon="-1.45328">
        <ele>57.9</ele>
        <time>2022-08-30T11:46:20Z</time>
      </trkpt>
      <trkpt lat="43.33962" lon="-1.45328">
        <ele>56.9</ele>
        <time>2022-08-30T11:46:21Z</time>
      </trkpt>
      <trkpt lat="43.33971" lon="-1.45328">
        <ele>55.9</ele>
        <time>2022-08-30T11:46:22Z</time>
      </trkpt>
      <trkpt lat="43.33981" lon="-1.45328">
        <ele>55</ele>
        <time>2022-08-30T11:46:23Z</time>
      </trkpt>
      <trkpt lat="43.3399" lon="-1.45329">
        <ele>54.1</ele>
        <time>2022-08-30T11:46:24Z</time>
      </trkpt>
      <trkpt lat="43.34" lon="-1.4533">
        <ele>53.2</ele>
        <time>2022-08-30T11:46:25Z</time>
      </trkpt>
      <trkpt lat="43.3401" lon="-1.45334">
        <ele>52.3</ele>
        <time>2022-08-30T11:46:26Z</time>
      </trkpt>
      <trkpt lat="43.34019" lon="-1.4534">
        <ele>51.7</ele>
        <time>2022-08-30T11:46:27Z</time>
      </trkpt>
      <trkpt lat="43.34027" lon="-1.45349">
        <ele>51.5</ele>
        <time>2022-08-30T11:46:28Z</time>
      </trkpt>
      <trkpt lat="43.34033" lon="-1.45358">
        <ele>51.4</ele>
        <time>2022-08-30T11:46:29Z</time>
      </trkpt>
      <trkpt lat="43.34037" lon="-1.45369">
        <ele>51.3</ele>
        <time>2022-08-30T11:46:30Z</time>
      </trkpt>
      <trkpt lat="43.34038" lon="-1.45381">
        <ele>51.3</ele>
        <time>2022-08-30T11:46:31Z</time>
      </trkpt>
      <trkpt lat="43.34038" lon="-1.45393">
        <ele>51.2</ele>
        <time>2022-08-30T11:46:32Z</time>
      </trkpt>
      <trkpt lat="43.34038" lon="-1.45405">
        <ele>51.1</ele>
        <time>2022-08-30T11:46:33Z</time>
      </trkpt>
      <trkpt lat="43.34037" lon="-1.45416">
        <ele>51</ele>
        <time>2022-08-30T11:46:34Z</time>
      </trkpt>
      <trkpt lat="43.34036" lon="-1.45427">
        <ele>51</ele>
        <time>2022-08-30T11:46:35Z</time>
      </trkpt>
      <trkpt lat="43.34035" lon="-1.45437">
        <ele>51.1</ele>
        <time>2022-08-30T11:46:36Z</time>
      </trkpt>
      <trkpt lat="43.34034" lon="-1.45447">
        <ele>51.1</ele>
        <time>2022-08-30T11:46:37Z</time>
      </trkpt>
      <trkpt lat="43.34033" lon="-1.45456">
        <ele>51.2</ele>
        <time>2022-08-30T11:46:38Z</time>
      </trkpt>
      <trkpt lat="43.34032" lon="-1.45464">
        <ele>51.3</ele>
        <time>2022-08-30T11:46:39Z</time>
      </trkpt>
      <trkpt lat="43.34031" lon="-1.45472">
        <ele>51.3</ele>
        <time>2022-08-30T11:46:40Z</time>
      </trkpt>
      <trkpt lat="43.3403" lon="-1.45479">
        <ele>51.3</ele>
        <time>2022-08-30T11:46:41Z</time>
      </trkpt>
      <trkpt lat="43.34029" lon="-1.45486">
        <ele>51.4</ele>
        <time>2022-08-30T11:46:42Z</time>
      </trkpt>
      <trkpt lat="43.34029" lon="-1.45493">
        <ele>51.4</ele>
        <time>2022-08-30T11:46:43Z</time>
      </trkpt>
      <trkpt lat="43.34029" lon="-1.455">
        <ele>51.4</ele>
        <time>2022-08-30T11:46:44Z</time>
      </trkpt>
      <trkpt lat="43.34029" lon="-1.45507">
        <ele>51.5</ele>
        <time>2022-08-30T11:46:45Z</time>
      </trkpt>
      <trkpt lat="43.34029" lon="-1.45515">
        <ele>51.5</ele>
        <time>2022-08-30T11:46:46Z</time>
      </trkpt>
      <trkpt lat="43.34029" lon="-1.45522">
        <ele>51.6</ele>
        <time>2022-08-30T11:46:47Z</time>
      </trkpt>
      <trkpt lat="43.3403" lon="-1.45528">
        <ele>51.7</ele>
        <time>2022-08-30T11:46:48Z</time>
      </trkpt>
      <trkpt lat="43.34031" lon="-1.45535">
        <ele>51.8</ele>
        <time>2022-08-30T11:46:49Z</time>
      </trkpt>
      <trkpt lat="43.34031" lon="-1.45542">
        <ele>51.8</ele>
        <time>2022-08-30T11:46:50Z</time>
      </trkpt>
      <trkpt lat="43.34032" lon="-1.45548">
        <ele>51.9</ele>
        <time>2022-08-30T11:46:51Z</time>
      </trkpt>
      <trkpt lat="43.34034" lon="-1.45555">
        <ele>52</ele>
        <time>2022-08-30T11:46:52Z</time>
      </trkpt>
      <trkpt lat="43.34034" lon="-1.45562">
        <ele>52.1</ele>
        <time>2022-08-30T11:46:53Z</time>
      </trkpt>
      <trkpt lat="43.34035" lon="-1.45568">
        <ele>52.2</ele>
        <time>2022-08-30T11:46:54Z</time>
      </trkpt>
      <trkpt lat="43.34035" lon="-1.45574">
        <ele>52.3</ele>
        <time>2022-08-30T11:46:55Z</time>
      </trkpt>
      <trkpt lat="43.34036" lon="-1.4558">
        <ele>52.4</ele>
        <time>2022-08-30T11:46:56Z</time>
      </trkpt>
      <trkpt lat="43.34037" lon="-1.45586">
        <ele>52.5</ele>
        <time>2022-08-30T11:46:57Z</time>
      </trkpt>
      <trkpt lat="43.34038" lon="-1.45592">
        <ele>52.6</ele>
        <time>2022-08-30T11:46:58Z</time>
      </trkpt>
      <trkpt lat="43.34039" lon="-1.45597">
        <ele>52.8</ele>
        <time>2022-08-30T11:46:59Z</time>
      </trkpt>
      <trkpt lat="43.3404" lon="-1.45602">
        <ele>52.9</ele>
        <time>2022-08-30T11:47:00Z</time>
      </trkpt>
      <trkpt lat="43.34042" lon="-1.45608">
        <ele>53.1</ele>
        <time>2022-08-30T11:47:01Z</time>
      </trkpt>
      <trkpt lat="43.34044" lon="-1.45613">
        <ele>53.4</ele>
        <time>2022-08-30T11:47:02Z</time>
      </trkpt>
      <trkpt lat="43.34046" lon="-1.45618">
        <ele>53.7</ele>
        <time>2022-08-30T11:47:03Z</time>
      </trkpt>
      <trkpt lat="43.34047" lon="-1.45624">
        <ele>54</ele>
        <time>2022-08-30T11:47:04Z</time>
      </trkpt>
      <trkpt lat="43.34049" lon="-1.4563">
        <ele>54.3</ele>
        <time>2022-08-30T11:47:05Z</time>
      </trkpt>
      <trkpt lat="43.34051" lon="-1.45635">
        <ele>54.7</ele>
        <time>2022-08-30T11:47:06Z</time>
      </trkpt>
      <trkpt lat="43.34051" lon="-1.45641">
        <ele>55.2</ele>
        <time>2022-08-30T11:47:07Z</time>
      </trkpt>
      <trkpt lat="43.34051" lon="-1.45647">
        <ele>55.5</ele>
        <time>2022-08-30T11:47:08Z</time>
      </trkpt>
      <trkpt lat="43.3405" lon="-1.45652">
        <ele>56.1</ele>
        <time>2022-08-30T11:47:09Z</time>
      </trkpt>
      <trkpt lat="43.34049" lon="-1.45657">
        <ele>56.6</ele>
        <time>2022-08-30T11:47:10Z</time>
      </trkpt>
      <trkpt lat="43.34047" lon="-1.45662">
        <ele>57.2</ele>
        <time>2022-08-30T11:47:11Z</time>
      </trkpt>
      <trkpt lat="43.34046" lon="-1.45667">
        <ele>57.8</ele>
        <time>2022-08-30T11:47:12Z</time>
      </trkpt>
      <trkpt lat="43.34044" lon="-1.45671">
        <ele>58.3</ele>
        <time>2022-08-30T11:47:13Z</time>
      </trkpt>
      <trkpt lat="43.34043" lon="-1.45674">
        <ele>58.8</ele>
        <time>2022-08-30T11:47:14Z</time>
      </trkpt>
      <trkpt lat="43.34042" lon="-1.45679">
        <ele>59.3</ele>
        <time>2022-08-30T11:47:15Z</time>
      </trkpt>
      <trkpt lat="43.34041" lon="-1.45682">
        <ele>59.7</ele>
        <time>2022-08-30T11:47:16Z</time>
      </trkpt>
      <trkpt lat="43.3404" lon="-1.45687">
        <ele>60.3</ele>
        <time>2022-08-30T11:47:17Z</time>
      </trkpt>
      <trkpt lat="43.34039" lon="-1.45689">
        <ele>60.5</ele>
        <time>2022-08-30T11:47:18Z</time>
      </trkpt>
      <trkpt lat="43.34038" lon="-1.45692">
        <ele>60.9</ele>
        <time>2022-08-30T11:47:19Z</time>
      </trkpt>
      <trkpt lat="43.34037" lon="-1.45696">
        <ele>61.4</ele>
        <time>2022-08-30T11:47:20Z</time>
      </trkpt>
      <trkpt lat="43.34036" lon="-1.457">
        <ele>61.8</ele>
        <time>2022-08-30T11:47:21Z</time>
      </trkpt>
      <trkpt lat="43.34035" lon="-1.45705">
        <ele>62.3</ele>
        <time>2022-08-30T11:47:22Z</time>
      </trkpt>
      <trkpt lat="43.34033" lon="-1.45709">
        <ele>62.8</ele>
        <time>2022-08-30T11:47:23Z</time>
      </trkpt>
      <trkpt lat="43.34032" lon="-1.45714">
        <ele>63.2</ele>
        <time>2022-08-30T11:47:24Z</time>
      </trkpt>
      <trkpt lat="43.34031" lon="-1.45719">
        <ele>63.7</ele>
        <time>2022-08-30T11:47:25Z</time>
      </trkpt>
      <trkpt lat="43.3403" lon="-1.45724">
        <ele>64</ele>
        <time>2022-08-30T11:47:26Z</time>
      </trkpt>
      <trkpt lat="43.3403" lon="-1.45729">
        <ele>64.3</ele>
        <time>2022-08-30T11:47:27Z</time>
      </trkpt>
      <trkpt lat="43.34029" lon="-1.45734">
        <ele>64.6</ele>
        <time>2022-08-30T11:47:28Z</time>
      </trkpt>
      <trkpt lat="43.34029" lon="-1.45738">
        <ele>64.8</ele>
        <time>2022-08-30T11:47:29Z</time>
      </trkpt>
      <trkpt lat="43.34029" lon="-1.45743">
        <ele>65</ele>
        <time>2022-08-30T11:47:30Z</time>
      </trkpt>
      <trkpt lat="43.3403" lon="-1.45748">
        <ele>65.2</ele>
        <time>2022-08-30T11:47:31Z</time>
      </trkpt>
      <trkpt lat="43.34031" lon="-1.45753">
        <ele>65.4</ele>
        <time>2022-08-30T11:47:32Z</time>
      </trkpt>
      <trkpt lat="43.34033" lon="-1.45759">
        <ele>65.6</ele>
        <time>2022-08-30T11:47:33Z</time>
      </trkpt>
      <trkpt lat="43.34034" lon="-1.45763">
        <ele>65.8</ele>
        <time>2022-08-30T11:47:34Z</time>
      </trkpt>
      <trkpt lat="43.34036" lon="-1.45767">
        <ele>66.1</ele>
        <time>2022-08-30T11:47:35Z</time>
      </trkpt>
      <trkpt lat="43.34037" lon="-1.45771">
        <ele>66.3</ele>
        <time>2022-08-30T11:47:36Z</time>
      </trkpt>
      <trkpt lat="43.34038" lon="-1.45775">
        <ele>66.5</ele>
        <time>2022-08-30T11:47:37Z</time>
      </trkpt>
      <trkpt lat="43.34039" lon="-1.45778">
        <ele>66.8</ele>
        <time>2022-08-30T11:47:38Z</time>
      </trkpt>
      <trkpt lat="43.34039" lon="-1.45783">
        <ele>67</ele>
        <time>2022-08-30T11:47:39Z</time>
      </trkpt>
      <trkpt lat="43.34038" lon="-1.45787">
        <ele>67</ele>
        <time>2022-08-30T11:47:40Z</time>
      </trkpt>
      <trkpt lat="43.34038" lon="-1.45792">
        <ele>67.1</ele>
        <time>2022-08-30T11:47:41Z</time>
      </trkpt>
      <trkpt lat="43.34038" lon="-1.45797">
        <ele>67.2</ele>
        <time>2022-08-30T11:47:42Z</time>
      </trkpt>
      <trkpt lat="43.34038" lon="-1.45802">
        <ele>67.2</ele>
        <time>2022-08-30T11:47:43Z</time>
      </trkpt>
      <trkpt lat="43.34038" lon="-1.45807">
        <ele>67.2</ele>
        <time>2022-08-30T11:47:44Z</time>
      </trkpt>
      <trkpt lat="43.34037" lon="-1.45812">
        <ele>67.2</ele>
        <time>2022-08-30T11:47:45Z</time>
      </trkpt>
      <trkpt lat="43.34037" lon="-1.45815">
        <ele>67.2</ele>
        <time>2022-08-30T11:47:46Z</time>
      </trkpt>
      <trkpt lat="43.34037" lon="-1.45819">
        <ele>67.2</ele>
        <time>2022-08-30T11:47:47Z</time>
      </trkpt>
      <trkpt lat="43.34037" lon="-1.45824">
        <ele>67.2</ele>
        <time>2022-08-30T11:47:48Z</time>
      </trkpt>
      <trkpt lat="43.34036" lon="-1.45829">
        <ele>67.2</ele>
        <time>2022-08-30T11:47:49Z</time>
      </trkpt>
      <trkpt lat="43.34036" lon="-1.45833">
        <ele>67.1</ele>
        <time>2022-08-30T11:47:50Z</time>
      </trkpt>
      <trkpt lat="43.34036" lon="-1.45838">
        <ele>67</ele>
        <time>2022-08-30T11:47:51Z</time>
      </trkpt>
      <trkpt lat="43.34035" lon="-1.45843">
        <ele>66.9</ele>
        <time>2022-08-30T11:47:52Z</time>
      </trkpt>
      <trkpt lat="43.34035" lon="-1.45848">
        <ele>66.7</ele>
        <time>2022-08-30T11:47:53Z</time>
      </trkpt>
      <trkpt lat="43.34035" lon="-1.45854">
        <ele>66.5</ele>
        <time>2022-08-30T11:47:54Z</time>
      </trkpt>
      <trkpt lat="43.34034" lon="-1.45861">
        <ele>66.2</ele>
        <time>2022-08-30T11:47:55Z</time>
      </trkpt>
      <trkpt lat="43.34033" lon="-1.45869">
        <ele>65.8</ele>
        <time>2022-08-30T11:47:56Z</time>
      </trkpt>
      <trkpt lat="43.34031" lon="-1.45877">
        <ele>65.3</ele>
        <time>2022-08-30T11:47:57Z</time>
      </trkpt>
      <trkpt lat="43.3403" lon="-1.45886">
        <ele>64.8</ele>
        <time>2022-08-30T11:47:58Z</time>
      </trkpt>
      <trkpt lat="43.34029" lon="-1.45895">
        <ele>64.4</ele>
        <time>2022-08-30T11:47:59Z</time>
      </trkpt>
      <trkpt lat="43.34029" lon="-1.45904">
        <ele>64.1</ele>
        <time>2022-08-30T11:48:00Z</time>
      </trkpt>
      <trkpt lat="43.3403" lon="-1.45913">
        <ele>63.9</ele>
        <time>2022-08-30T11:48:01Z</time>
      </trkpt>
      <trkpt lat="43.3403" lon="-1.45921">
        <ele>63.7</ele>
        <time>2022-08-30T11:48:02Z</time>
      </trkpt>
      <trkpt lat="43.34031" lon="-1.4593">
        <ele>63.4</ele>
        <time>2022-08-30T11:48:03Z</time>
      </trkpt>
      <trkpt lat="43.34032" lon="-1.45938">
        <ele>63.2</ele>
        <time>2022-08-30T11:48:04Z</time>
      </trkpt>
      <trkpt lat="43.34032" lon="-1.45946">
        <ele>63</ele>
        <time>2022-08-30T11:48:05Z</time>
      </trkpt>
      <trkpt lat="43.34032" lon="-1.45953">
        <ele>62.9</ele>
        <time>2022-08-30T11:48:06Z</time>
      </trkpt>
      <trkpt lat="43.34033" lon="-1.45959">
        <ele>62.7</ele>
        <time>2022-08-30T11:48:07Z</time>
      </trkpt>
      <trkpt lat="43.34034" lon="-1.45965">
        <ele>62.6</ele>
        <time>2022-08-30T11:48:08Z</time>
      </trkpt>
      <trkpt lat="43.34035" lon="-1.45971">
        <ele>62.5</ele>
        <time>2022-08-30T11:48:09Z</time>
      </trkpt>
      <trkpt lat="43.34036" lon="-1.45978">
        <ele>62.4</ele>
        <time>2022-08-30T11:48:10Z</time>
      </trkpt>
      <trkpt lat="43.34038" lon="-1.45985">
        <ele>62.3</ele>
        <time>2022-08-30T11:48:11Z</time>
      </trkpt>
      <trkpt lat="43.34039" lon="-1.45991">
        <ele>62.3</ele>
        <time>2022-08-30T11:48:12Z</time>
      </trkpt>
      <trkpt lat="43.3404" lon="-1.45997">
        <ele>62.2</ele>
        <time>2022-08-30T11:48:13Z</time>
      </trkpt>
      <trkpt lat="43.3404" lon="-1.46002">
        <ele>62.2</ele>
        <time>2022-08-30T11:48:14Z</time>
      </trkpt>
      <trkpt lat="43.34041" lon="-1.46008">
        <ele>62.1</ele>
        <time>2022-08-30T11:48:15Z</time>
      </trkpt>
      <trkpt lat="43.34041" lon="-1.46014">
        <ele>62</ele>
        <time>2022-08-30T11:48:16Z</time>
      </trkpt>
      <trkpt lat="43.34042" lon="-1.4602">
        <ele>61.9</ele>
        <time>2022-08-30T11:48:17Z</time>
      </trkpt>
      <trkpt lat="43.34042" lon="-1.46026">
        <ele>61.7</ele>
        <time>2022-08-30T11:48:18Z</time>
      </trkpt>
      <trkpt lat="43.34043" lon="-1.46032">
        <ele>61.5</ele>
        <time>2022-08-30T11:48:19Z</time>
      </trkpt>
      <trkpt lat="43.34043" lon="-1.4604">
        <ele>61.3</ele>
        <time>2022-08-30T11:48:20Z</time>
      </trkpt>
      <trkpt lat="43.34044" lon="-1.46048">
        <ele>61</ele>
        <time>2022-08-30T11:48:21Z</time>
      </trkpt>
      <trkpt lat="43.34045" lon="-1.46056">
        <ele>60.7</ele>
        <time>2022-08-30T11:48:22Z</time>
      </trkpt>
      <trkpt lat="43.34046" lon="-1.46065">
        <ele>60.5</ele>
        <time>2022-08-30T11:48:23Z</time>
      </trkpt>
      <trkpt lat="43.34047" lon="-1.46073">
        <ele>60.3</ele>
        <time>2022-08-30T11:48:24Z</time>
      </trkpt>
      <trkpt lat="43.34049" lon="-1.46081">
        <ele>60.1</ele>
        <time>2022-08-30T11:48:25Z</time>
      </trkpt>
      <trkpt lat="43.3405" lon="-1.46089">
        <ele>59.9</ele>
        <time>2022-08-30T11:48:26Z</time>
      </trkpt>
      <trkpt lat="43.34051" lon="-1.46097">
        <ele>59.7</ele>
        <time>2022-08-30T11:48:27Z</time>
      </trkpt>
      <trkpt lat="43.34053" lon="-1.46105">
        <ele>59.5</ele>
        <time>2022-08-30T11:48:28Z</time>
      </trkpt>
      <trkpt lat="43.34055" lon="-1.46112">
        <ele>59.3</ele>
        <time>2022-08-30T11:48:29Z</time>
      </trkpt>
      <trkpt lat="43.34057" lon="-1.46118">
        <ele>59.2</ele>
        <time>2022-08-30T11:48:30Z</time>
      </trkpt>
      <trkpt lat="43.3406" lon="-1.46123">
        <ele>59</ele>
        <time>2022-08-30T11:48:31Z</time>
      </trkpt>
      <trkpt lat="43.34064" lon="-1.46128">
        <ele>58.8</ele>
        <time>2022-08-30T11:48:32Z</time>
      </trkpt>
      <trkpt lat="43.34068" lon="-1.46131">
        <ele>58.7</ele>
        <time>2022-08-30T11:48:33Z</time>
      </trkpt>
      <trkpt lat="43.34073" lon="-1.46135">
        <ele>58.5</ele>
        <time>2022-08-30T11:48:34Z</time>
      </trkpt>
      <trkpt lat="43.34077" lon="-1.46139">
        <ele>58.4</ele>
        <time>2022-08-30T11:48:35Z</time>
      </trkpt>
      <trkpt lat="43.34082" lon="-1.46143">
        <ele>58.3</ele>
        <time>2022-08-30T11:48:36Z</time>
      </trkpt>
      <trkpt lat="43.34085" lon="-1.46145">
        <ele>58.2</ele>
        <time>2022-08-30T11:48:37Z</time>
      </trkpt>
      <trkpt lat="43.34088" lon="-1.46147">
        <ele>58.2</ele>
        <time>2022-08-30T11:48:38Z</time>
      </trkpt>
      <trkpt lat="43.3409" lon="-1.46148">
        <ele>58.3</ele>
        <time>2022-08-30T11:48:39Z</time>
      </trkpt>
      <trkpt lat="43.34091" lon="-1.46148">
        <ele>58.3</ele>
        <time>2022-08-30T11:48:40Z</time>
      </trkpt>
      <trkpt lat="43.34093" lon="-1.46149">
        <ele>58.3</ele>
        <time>2022-08-30T11:48:41Z</time>
      </trkpt>
      <trkpt lat="43.34094" lon="-1.4615">
        <ele>58.3</ele>
        <time>2022-08-30T11:48:42Z</time>
      </trkpt>
      <trkpt lat="43.34095" lon="-1.4615">
        <ele>58.3</ele>
        <time>2022-08-30T11:48:43Z</time>
      </trkpt>
      <trkpt lat="43.34097" lon="-1.46151">
        <ele>58.3</ele>
        <time>2022-08-30T11:48:44Z</time>
      </trkpt>
      <trkpt lat="43.34098" lon="-1.46151">
        <ele>58.4</ele>
        <time>2022-08-30T11:48:45Z</time>
      </trkpt>
      <trkpt lat="43.341" lon="-1.4615">
        <ele>58.4</ele>
        <time>2022-08-30T11:48:46Z</time>
      </trkpt>
      <trkpt lat="43.34101" lon="-1.4615">
        <ele>58.5</ele>
        <time>2022-08-30T11:48:47Z</time>
      </trkpt>
      <trkpt lat="43.34102" lon="-1.46149">
        <ele>58.5</ele>
        <time>2022-08-30T11:48:48Z</time>
      </trkpt>
      <trkpt lat="43.34103" lon="-1.46149">
        <ele>58.5</ele>
        <time>2022-08-30T11:48:49Z</time>
      </trkpt>
      <trkpt lat="43.34104" lon="-1.46149">
        <ele>58.5</ele>
        <time>2022-08-30T11:48:50Z</time>
      </trkpt>
      <trkpt lat="43.34104" lon="-1.4615">
        <ele>58.6</ele>
        <time>2022-08-30T11:48:51Z</time>
      </trkpt>
      <trkpt lat="43.34105" lon="-1.4615">
        <ele>58.6</ele>
        <time>2022-08-30T11:48:52Z</time>
      </trkpt>
      <trkpt lat="43.34105" lon="-1.4615">
        <ele>58.6</ele>
        <time>2022-08-30T11:48:53Z</time>
      </trkpt>
      <trkpt lat="43.34105" lon="-1.4615">
        <ele>58.6</ele>
        <time>2022-08-30T11:48:54Z</time>
      </trkpt>
      <trkpt lat="43.34106" lon="-1.46151">
        <ele>58.6</ele>
        <time>2022-08-30T11:48:55Z</time>
      </trkpt>
      <trkpt lat="43.34106" lon="-1.46152">
        <ele>58.6</ele>
        <time>2022-08-30T11:48:56Z</time>
      </trkpt>
      <trkpt lat="43.34107" lon="-1.46153">
        <ele>58.7</ele>
        <time>2022-08-30T11:48:57Z</time>
      </trkpt>
      <trkpt lat="43.34107" lon="-1.46153">
        <ele>58.7</ele>
        <time>2022-08-30T11:48:58Z</time>
      </trkpt>
      <trkpt lat="43.34108" lon="-1.46153">
        <ele>58.7</ele>
        <time>2022-08-30T11:48:59Z</time>
      </trkpt>
      <trkpt lat="43.34109" lon="-1.46153">
        <ele>58.7</ele>
        <time>2022-08-30T11:49:00Z</time>
      </trkpt>
      <trkpt lat="43.34109" lon="-1.46153">
        <ele>58.7</ele>
        <time>2022-08-30T11:49:01Z</time>
      </trkpt>
      <trkpt lat="43.3411" lon="-1.46153">
        <ele>58.8</ele>
        <time>2022-08-30T11:49:02Z</time>
      </trkpt>
      <trkpt lat="43.3411" lon="-1.46153">
        <ele>58.8</ele>
        <time>2022-08-30T11:49:03Z</time>
      </trkpt>
      <trkpt lat="43.34111" lon="-1.46153">
        <ele>58.8</ele>
        <time>2022-08-30T11:49:04Z</time>
      </trkpt>
      <trkpt lat="43.34112" lon="-1.46154">
        <ele>58.9</ele>
        <time>2022-08-30T11:49:05Z</time>
      </trkpt>
      <trkpt lat="43.34112" lon="-1.46154">
        <ele>58.9</ele>
        <time>2022-08-30T11:49:06Z</time>
      </trkpt>
      <trkpt lat="43.34113" lon="-1.46154">
        <ele>58.9</ele>
        <time>2022-08-30T11:49:25Z</time>
      </trkpt>
      <trkpt lat="43.34113" lon="-1.46154">
        <ele>58.9</ele>
        <time>2022-08-30T11:49:26Z</time>
      </trkpt>
      <trkpt lat="43.34114" lon="-1.46154">
        <ele>59</ele>
        <time>2022-08-30T11:49:27Z</time>
      </trkpt>
      <trkpt lat="43.34115" lon="-1.46154">
        <ele>59</ele>
        <time>2022-08-30T11:49:28Z</time>
      </trkpt>
      <trkpt lat="43.34115" lon="-1.46154">
        <ele>59</ele>
        <time>2022-08-30T11:49:29Z</time>
      </trkpt>
      <trkpt lat="43.34118" lon="-1.46155">
        <ele>59.2</ele>
        <time>2022-08-30T11:49:30Z</time>
      </trkpt>
      <trkpt lat="43.34119" lon="-1.46155">
        <ele>59.3</ele>
        <time>2022-08-30T11:49:31Z</time>
      </trkpt>
      <trkpt lat="43.34122" lon="-1.46155">
        <ele>59.5</ele>
        <time>2022-08-30T11:49:32Z</time>
      </trkpt>
      <trkpt lat="43.34123" lon="-1.46154">
        <ele>59.5</ele>
        <time>2022-08-30T11:49:33Z</time>
      </trkpt>
      <trkpt lat="43.34125" lon="-1.46154">
        <ele>59.7</ele>
        <time>2022-08-30T11:49:34Z</time>
      </trkpt>
      <trkpt lat="43.34126" lon="-1.46153">
        <ele>59.8</ele>
        <time>2022-08-30T11:49:35Z</time>
      </trkpt>
      <trkpt lat="43.34129" lon="-1.46153">
        <ele>60</ele>
        <time>2022-08-30T11:49:36Z</time>
      </trkpt>
      <trkpt lat="43.3413" lon="-1.46153">
        <ele>60.1</ele>
        <time>2022-08-30T11:49:37Z</time>
      </trkpt>
      <trkpt lat="43.34133" lon="-1.46153">
        <ele>60.3</ele>
        <time>2022-08-30T11:49:38Z</time>
      </trkpt>
      <trkpt lat="43.34134" lon="-1.46153">
        <ele>60.4</ele>
        <time>2022-08-30T11:49:39Z</time>
      </trkpt>
      <trkpt lat="43.34137" lon="-1.46153">
        <ele>60.6</ele>
        <time>2022-08-30T11:49:40Z</time>
      </trkpt>
      <trkpt lat="43.34138" lon="-1.46154">
        <ele>60.7</ele>
        <time>2022-08-30T11:49:41Z</time>
      </trkpt>
      <trkpt lat="43.34141" lon="-1.46154">
        <ele>60.9</ele>
        <time>2022-08-30T11:49:42Z</time>
      </trkpt>
      <trkpt lat="43.34143" lon="-1.46154">
        <ele>61</ele>
        <time>2022-08-30T11:49:43Z</time>
      </trkpt>
      <trkpt lat="43.34146" lon="-1.46153">
        <ele>61.2</ele>
        <time>2022-08-30T11:49:44Z</time>
      </trkpt>
      <trkpt lat="43.34149" lon="-1.46153">
        <ele>61.5</ele>
        <time>2022-08-30T11:49:45Z</time>
      </trkpt>
      <trkpt lat="43.34153" lon="-1.46152">
        <ele>61.7</ele>
        <time>2022-08-30T11:49:46Z</time>
      </trkpt>
      <trkpt lat="43.34154" lon="-1.46152">
        <ele>61.8</ele>
        <time>2022-08-30T11:49:47Z</time>
      </trkpt>
      <trkpt lat="43.34157" lon="-1.46152">
        <ele>62</ele>
        <time>2022-08-30T11:49:48Z</time>
      </trkpt>
      <trkpt lat="43.3416" lon="-1.46152">
        <ele>62.2</ele>
        <time>2022-08-30T11:49:49Z</time>
      </trkpt>
      <trkpt lat="43.34164" lon="-1.46152">
        <ele>62.4</ele>
        <time>2022-08-30T11:49:50Z</time>
      </trkpt>
      <trkpt lat="43.34167" lon="-1.46152">
        <ele>62.5</ele>
        <time>2022-08-30T11:49:51Z</time>
      </trkpt>
      <trkpt lat="43.3417" lon="-1.46152">
        <ele>62.6</ele>
        <time>2022-08-30T11:49:52Z</time>
      </trkpt>
      <trkpt lat="43.34174" lon="-1.46153">
        <ele>62.7</ele>
        <time>2022-08-30T11:49:53Z</time>
      </trkpt>
      <trkpt lat="43.34177" lon="-1.46153">
        <ele>62.8</ele>
        <time>2022-08-30T11:49:54Z</time>
      </trkpt>
      <trkpt lat="43.3418" lon="-1.46154">
        <ele>62.9</ele>
        <time>2022-08-30T11:49:55Z</time>
      </trkpt>
      <trkpt lat="43.34183" lon="-1.46155">
        <ele>63</ele>
        <time>2022-08-30T11:49:56Z</time>
      </trkpt>
      <trkpt lat="43.34186" lon="-1.46155">
        <ele>63.1</ele>
        <time>2022-08-30T11:49:57Z</time>
      </trkpt>
      <trkpt lat="43.3419" lon="-1.46156">
        <ele>63.3</ele>
        <time>2022-08-30T11:49:58Z</time>
      </trkpt>
      <trkpt lat="43.34191" lon="-1.46157">
        <ele>63.3</ele>
        <time>2022-08-30T11:49:59Z</time>
      </trkpt>
      <trkpt lat="43.34194" lon="-1.46157">
        <ele>63.5</ele>
        <time>2022-08-30T11:50:00Z</time>
      </trkpt>
      <trkpt lat="43.34196" lon="-1.46157">
        <ele>63.6</ele>
        <time>2022-08-30T11:50:01Z</time>
      </trkpt>
      <trkpt lat="43.34199" lon="-1.46157">
        <ele>63.8</ele>
        <time>2022-08-30T11:50:02Z</time>
      </trkpt>
      <trkpt lat="43.34203" lon="-1.46158">
        <ele>64</ele>
        <time>2022-08-30T11:50:03Z</time>
      </trkpt>
      <trkpt lat="43.34205" lon="-1.46158">
        <ele>64.1</ele>
        <time>2022-08-30T11:50:04Z</time>
      </trkpt>
      <trkpt lat="43.34207" lon="-1.46158">
        <ele>64.3</ele>
        <time>2022-08-30T11:50:05Z</time>
      </trkpt>
      <trkpt lat="43.3421" lon="-1.46158">
        <ele>64.4</ele>
        <time>2022-08-30T11:50:06Z</time>
      </trkpt>
      <trkpt lat="43.34213" lon="-1.46157">
        <ele>64.6</ele>
        <time>2022-08-30T11:50:07Z</time>
      </trkpt>
      <trkpt lat="43.34216" lon="-1.46157">
        <ele>64.8</ele>
        <time>2022-08-30T11:50:08Z</time>
      </trkpt>
      <trkpt lat="43.34219" lon="-1.46156">
        <ele>65</ele>
        <time>2022-08-30T11:50:09Z</time>
      </trkpt>
      <trkpt lat="43.34222" lon="-1.46155">
        <ele>65.1</ele>
        <time>2022-08-30T11:50:10Z</time>
      </trkpt>
      <trkpt lat="43.34223" lon="-1.46154">
        <ele>65.2</ele>
        <time>2022-08-30T11:50:11Z</time>
      </trkpt>
      <trkpt lat="43.34226" lon="-1.46155">
        <ele>65.3</ele>
        <time>2022-08-30T11:50:12Z</time>
      </trkpt>
      <trkpt lat="43.34228" lon="-1.46155">
        <ele>65.3</ele>
        <time>2022-08-30T11:50:13Z</time>
      </trkpt>
      <trkpt lat="43.34231" lon="-1.46156">
        <ele>65.4</ele>
        <time>2022-08-30T11:50:14Z</time>
      </trkpt>
      <trkpt lat="43.34233" lon="-1.46156">
        <ele>65.4</ele>
        <time>2022-08-30T11:50:15Z</time>
      </trkpt>
      <trkpt lat="43.34236" lon="-1.46157">
        <ele>65.4</ele>
        <time>2022-08-30T11:50:16Z</time>
      </trkpt>
      <trkpt lat="43.34239" lon="-1.46159">
        <ele>65.3</ele>
        <time>2022-08-30T11:50:17Z</time>
      </trkpt>
      <trkpt lat="43.34241" lon="-1.46161">
        <ele>65.3</ele>
        <time>2022-08-30T11:50:18Z</time>
      </trkpt>
      <trkpt lat="43.34244" lon="-1.46164">
        <ele>65.2</ele>
        <time>2022-08-30T11:50:19Z</time>
      </trkpt>
      <trkpt lat="43.34245" lon="-1.46165">
        <ele>65.2</ele>
        <time>2022-08-30T11:50:20Z</time>
      </trkpt>
      <trkpt lat="43.34246" lon="-1.46166">
        <ele>65.2</ele>
        <time>2022-08-30T11:50:21Z</time>
      </trkpt>
      <trkpt lat="43.34246" lon="-1.46167">
        <ele>65.2</ele>
        <time>2022-08-30T11:50:22Z</time>
      </trkpt>
      <trkpt lat="43.34246" lon="-1.46167">
        <ele>65.2</ele>
        <time>2022-08-30T11:50:23Z</time>
      </trkpt>
      <trkpt lat="43.34247" lon="-1.46167">
        <ele>65.2</ele>
        <time>2022-08-30T11:50:24Z</time>
      </trkpt>
      <trkpt lat="43.34247" lon="-1.46167">
        <ele>65.2</ele>
        <time>2022-08-30T11:50:25Z</time>
      </trkpt>
      <trkpt lat="43.34247" lon="-1.46168">
        <ele>65.2</ele>
        <time>2022-08-30T11:50:26Z</time>
      </trkpt>
      <trkpt lat="43.34247" lon="-1.46168">
        <ele>65.2</ele>
        <time>2022-08-30T11:50:27Z</time>
      </trkpt>
      <trkpt lat="43.34248" lon="-1.46168">
        <ele>65.2</ele>
        <time>2022-08-30T11:50:28Z</time>
      </trkpt>
      <trkpt lat="43.34248" lon="-1.46169">
        <ele>65.2</ele>
        <time>2022-08-30T11:50:29Z</time>
      </trkpt>
      <trkpt lat="43.34249" lon="-1.46169">
        <ele>65.1</ele>
        <time>2022-08-30T11:50:30Z</time>
      </trkpt>
      <trkpt lat="43.3425" lon="-1.46169">
        <ele>65.1</ele>
        <time>2022-08-30T11:50:31Z</time>
      </trkpt>
      <trkpt lat="43.34251" lon="-1.46169">
        <ele>65.1</ele>
        <time>2022-08-30T11:50:32Z</time>
      </trkpt>
      <trkpt lat="43.34252" lon="-1.4617">
        <ele>65.1</ele>
        <time>2022-08-30T11:50:33Z</time>
      </trkpt>
      <trkpt lat="43.34254" lon="-1.46171">
        <ele>65.1</ele>
        <time>2022-08-30T11:50:34Z</time>
      </trkpt>
      <trkpt lat="43.34256" lon="-1.46173">
        <ele>65</ele>
        <time>2022-08-30T11:50:35Z</time>
      </trkpt>
      <trkpt lat="43.34257" lon="-1.46174">
        <ele>65</ele>
        <time>2022-08-30T11:50:36Z</time>
      </trkpt>
      <trkpt lat="43.34259" lon="-1.46176">
        <ele>65</ele>
        <time>2022-08-30T11:50:37Z</time>
      </trkpt>
      <trkpt lat="43.3426" lon="-1.46177">
        <ele>65</ele>
        <time>2022-08-30T11:50:38Z</time>
      </trkpt>
      <trkpt lat="43.3426" lon="-1.46177">
        <ele>65</ele>
        <time>2022-08-30T11:50:39Z</time>
      </trkpt>
      <trkpt lat="43.34261" lon="-1.46178">
        <ele>65</ele>
        <time>2022-08-30T11:50:40Z</time>
      </trkpt>
      <trkpt lat="43.34262" lon="-1.4618">
        <ele>64.9</ele>
        <time>2022-08-30T11:50:41Z</time>
      </trkpt>
      <trkpt lat="43.34265" lon="-1.46183">
        <ele>64.9</ele>
        <time>2022-08-30T11:50:42Z</time>
      </trkpt>
      <trkpt lat="43.34266" lon="-1.46184">
        <ele>64.9</ele>
        <time>2022-08-30T11:50:43Z</time>
      </trkpt>
      <trkpt lat="43.34269" lon="-1.46187">
        <ele>64.9</ele>
        <time>2022-08-30T11:50:44Z</time>
      </trkpt>
      <trkpt lat="43.3427" lon="-1.46188">
        <ele>64.9</ele>
        <time>2022-08-30T11:50:45Z</time>
      </trkpt>
      <trkpt lat="43.34272" lon="-1.46191">
        <ele>65</ele>
        <time>2022-08-30T11:50:46Z</time>
      </trkpt>
      <trkpt lat="43.34275" lon="-1.46194">
        <ele>65.1</ele>
        <time>2022-08-30T11:50:47Z</time>
      </trkpt>
      <trkpt lat="43.34276" lon="-1.46195">
        <ele>65.1</ele>
        <time>2022-08-30T11:50:48Z</time>
      </trkpt>
      <trkpt lat="43.34279" lon="-1.46197">
        <ele>65.3</ele>
        <time>2022-08-30T11:50:49Z</time>
      </trkpt>
      <trkpt lat="43.34281" lon="-1.46197">
        <ele>65.3</ele>
        <time>2022-08-30T11:50:50Z</time>
      </trkpt>
      <trkpt lat="43.34285" lon="-1.46198">
        <ele>65.5</ele>
        <time>2022-08-30T11:50:51Z</time>
      </trkpt>
      <trkpt lat="43.34286" lon="-1.46199">
        <ele>65.5</ele>
        <time>2022-08-30T11:50:52Z</time>
      </trkpt>
      <trkpt lat="43.34288" lon="-1.462">
        <ele>65.6</ele>
        <time>2022-08-30T11:50:53Z</time>
      </trkpt>
      <trkpt lat="43.34291" lon="-1.46201">
        <ele>65.8</ele>
        <time>2022-08-30T11:50:54Z</time>
      </trkpt>
      <trkpt lat="43.34295" lon="-1.46202">
        <ele>65.9</ele>
        <time>2022-08-30T11:50:55Z</time>
      </trkpt>
      <trkpt lat="43.34298" lon="-1.46203">
        <ele>66</ele>
        <time>2022-08-30T11:50:56Z</time>
      </trkpt>
      <trkpt lat="43.34302" lon="-1.46204">
        <ele>66.1</ele>
        <time>2022-08-30T11:50:57Z</time>
      </trkpt>
      <trkpt lat="43.34305" lon="-1.46205">
        <ele>66.3</ele>
        <time>2022-08-30T11:50:58Z</time>
      </trkpt>
      <trkpt lat="43.34308" lon="-1.46206">
        <ele>66.4</ele>
        <time>2022-08-30T11:50:59Z</time>
      </trkpt>
      <trkpt lat="43.34311" lon="-1.46207">
        <ele>66.6</ele>
        <time>2022-08-30T11:51:00Z</time>
      </trkpt>
      <trkpt lat="43.34314" lon="-1.46209">
        <ele>66.7</ele>
        <time>2022-08-30T11:51:01Z</time>
      </trkpt>
      <trkpt lat="43.34317" lon="-1.46211">
        <ele>66.9</ele>
        <time>2022-08-30T11:51:02Z</time>
      </trkpt>
      <trkpt lat="43.34319" lon="-1.46214">
        <ele>67.1</ele>
        <time>2022-08-30T11:51:03Z</time>
      </trkpt>
      <trkpt lat="43.34322" lon="-1.46216">
        <ele>67.4</ele>
        <time>2022-08-30T11:51:04Z</time>
      </trkpt>
      <trkpt lat="43.34324" lon="-1.46218">
        <ele>67.6</ele>
        <time>2022-08-30T11:51:05Z</time>
      </trkpt>
      <trkpt lat="43.34327" lon="-1.46221">
        <ele>67.9</ele>
        <time>2022-08-30T11:51:06Z</time>
      </trkpt>
      <trkpt lat="43.3433" lon="-1.46224">
        <ele>68.3</ele>
        <time>2022-08-30T11:51:07Z</time>
      </trkpt>
      <trkpt lat="43.34333" lon="-1.46226">
        <ele>68.6</ele>
        <time>2022-08-30T11:51:08Z</time>
      </trkpt>
      <trkpt lat="43.34335" lon="-1.46229">
        <ele>68.9</ele>
        <time>2022-08-30T11:51:09Z</time>
      </trkpt>
      <trkpt lat="43.34337" lon="-1.46232">
        <ele>69.2</ele>
        <time>2022-08-30T11:51:10Z</time>
      </trkpt>
      <trkpt lat="43.34339" lon="-1.46236">
        <ele>69.5</ele>
        <time>2022-08-30T11:51:11Z</time>
      </trkpt>
      <trkpt lat="43.34341" lon="-1.4624">
        <ele>69.9</ele>
        <time>2022-08-30T11:51:12Z</time>
      </trkpt>
      <trkpt lat="43.34343" lon="-1.46244">
        <ele>70.3</ele>
        <time>2022-08-30T11:51:13Z</time>
      </trkpt>
      <trkpt lat="43.34344" lon="-1.46247">
        <ele>70.7</ele>
        <time>2022-08-30T11:51:14Z</time>
      </trkpt>
      <trkpt lat="43.34346" lon="-1.46252">
        <ele>71.1</ele>
        <time>2022-08-30T11:51:15Z</time>
      </trkpt>
      <trkpt lat="43.34348" lon="-1.46255">
        <ele>71.5</ele>
        <time>2022-08-30T11:51:16Z</time>
      </trkpt>
      <trkpt lat="43.3435" lon="-1.46257">
        <ele>72</ele>
        <time>2022-08-30T11:51:17Z</time>
      </trkpt>
      <trkpt lat="43.34353" lon="-1.46259">
        <ele>72.4</ele>
        <time>2022-08-30T11:51:18Z</time>
      </trkpt>
      <trkpt lat="43.34356" lon="-1.46262">
        <ele>73</ele>
        <time>2022-08-30T11:51:19Z</time>
      </trkpt>
      <trkpt lat="43.34358" lon="-1.46265">
        <ele>73.5</ele>
        <time>2022-08-30T11:51:20Z</time>
      </trkpt>
      <trkpt lat="43.3436" lon="-1.46269">
        <ele>73.9</ele>
        <time>2022-08-30T11:51:21Z</time>
      </trkpt>
      <trkpt lat="43.34363" lon="-1.46272">
        <ele>74.2</ele>
        <time>2022-08-30T11:51:22Z</time>
      </trkpt>
      <trkpt lat="43.34365" lon="-1.46274">
        <ele>74.4</ele>
        <time>2022-08-30T11:51:23Z</time>
      </trkpt>
      <trkpt lat="43.34368" lon="-1.46277">
        <ele>74.6</ele>
        <time>2022-08-30T11:51:24Z</time>
      </trkpt>
      <trkpt lat="43.34371" lon="-1.46279">
        <ele>74.8</ele>
        <time>2022-08-30T11:51:25Z</time>
      </trkpt>
      <trkpt lat="43.34374" lon="-1.46282">
        <ele>74.9</ele>
        <time>2022-08-30T11:51:26Z</time>
      </trkpt>
      <trkpt lat="43.34377" lon="-1.46285">
        <ele>74.9</ele>
        <time>2022-08-30T11:51:27Z</time>
      </trkpt>
      <trkpt lat="43.34381" lon="-1.46288">
        <ele>74.9</ele>
        <time>2022-08-30T11:51:28Z</time>
      </trkpt>
      <trkpt lat="43.34385" lon="-1.46291">
        <ele>74.8</ele>
        <time>2022-08-30T11:51:29Z</time>
      </trkpt>
      <trkpt lat="43.3439" lon="-1.46294">
        <ele>74.7</ele>
        <time>2022-08-30T11:51:30Z</time>
      </trkpt>
      <trkpt lat="43.34393" lon="-1.46297">
        <ele>74.7</ele>
        <time>2022-08-30T11:51:31Z</time>
      </trkpt>
      <trkpt lat="43.34396" lon="-1.46299">
        <ele>74.7</ele>
        <time>2022-08-30T11:51:32Z</time>
      </trkpt>
      <trkpt lat="43.34399" lon="-1.46302">
        <ele>74.8</ele>
        <time>2022-08-30T11:51:33Z</time>
      </trkpt>
      <trkpt lat="43.34402" lon="-1.46304">
        <ele>74.9</ele>
        <time>2022-08-30T11:51:34Z</time>
      </trkpt>
      <trkpt lat="43.34404" lon="-1.46307">
        <ele>75</ele>
        <time>2022-08-30T11:51:35Z</time>
      </trkpt>
      <trkpt lat="43.34407" lon="-1.4631">
        <ele>75.1</ele>
        <time>2022-08-30T11:51:36Z</time>
      </trkpt>
      <trkpt lat="43.34408" lon="-1.46311">
        <ele>75.2</ele>
        <time>2022-08-30T11:51:37Z</time>
      </trkpt>
      <trkpt lat="43.3441" lon="-1.46313">
        <ele>75.3</ele>
        <time>2022-08-30T11:51:38Z</time>
      </trkpt>
      <trkpt lat="43.34413" lon="-1.46315">
        <ele>75.4</ele>
        <time>2022-08-30T11:51:39Z</time>
      </trkpt>
      <trkpt lat="43.34415" lon="-1.46317">
        <ele>75.6</ele>
        <time>2022-08-30T11:51:40Z</time>
      </trkpt>
      <trkpt lat="43.34418" lon="-1.4632">
        <ele>75.7</ele>
        <time>2022-08-30T11:51:41Z</time>
      </trkpt>
      <trkpt lat="43.34421" lon="-1.46323">
        <ele>75.8</ele>
        <time>2022-08-30T11:51:42Z</time>
      </trkpt>
      <trkpt lat="43.34423" lon="-1.46325">
        <ele>75.8</ele>
        <time>2022-08-30T11:51:43Z</time>
      </trkpt>
      <trkpt lat="43.34425" lon="-1.46328">
        <ele>75.9</ele>
        <time>2022-08-30T11:51:44Z</time>
      </trkpt>
      <trkpt lat="43.34427" lon="-1.4633">
        <ele>76</ele>
        <time>2022-08-30T11:51:45Z</time>
      </trkpt>
      <trkpt lat="43.34431" lon="-1.46333">
        <ele>76.1</ele>
        <time>2022-08-30T11:51:46Z</time>
      </trkpt>
      <trkpt lat="43.34432" lon="-1.46334">
        <ele>76.1</ele>
        <time>2022-08-30T11:51:47Z</time>
      </trkpt>
      <trkpt lat="43.34435" lon="-1.46336">
        <ele>76.1</ele>
        <time>2022-08-30T11:51:48Z</time>
      </trkpt>
      <trkpt lat="43.34437" lon="-1.46339">
        <ele>76.2</ele>
        <time>2022-08-30T11:51:49Z</time>
      </trkpt>
      <trkpt lat="43.34439" lon="-1.46342">
        <ele>76.2</ele>
        <time>2022-08-30T11:51:50Z</time>
      </trkpt>
      <trkpt lat="43.34442" lon="-1.46345">
        <ele>76.2</ele>
        <time>2022-08-30T11:51:51Z</time>
      </trkpt>
      <trkpt lat="43.34444" lon="-1.46348">
        <ele>76.3</ele>
        <time>2022-08-30T11:51:52Z</time>
      </trkpt>
      <trkpt lat="43.34446" lon="-1.46351">
        <ele>76.3</ele>
        <time>2022-08-30T11:51:53Z</time>
      </trkpt>
      <trkpt lat="43.34448" lon="-1.46354">
        <ele>76.3</ele>
        <time>2022-08-30T11:51:54Z</time>
      </trkpt>
      <trkpt lat="43.34451" lon="-1.46358">
        <ele>76.2</ele>
        <time>2022-08-30T11:51:55Z</time>
      </trkpt>
      <trkpt lat="43.34453" lon="-1.46363">
        <ele>76.1</ele>
        <time>2022-08-30T11:51:56Z</time>
      </trkpt>
      <trkpt lat="43.34456" lon="-1.46368">
        <ele>76</ele>
        <time>2022-08-30T11:51:57Z</time>
      </trkpt>
      <trkpt lat="43.34457" lon="-1.46373">
        <ele>76</ele>
        <time>2022-08-30T11:51:58Z</time>
      </trkpt>
      <trkpt lat="43.34459" lon="-1.4638">
        <ele>76</ele>
        <time>2022-08-30T11:51:59Z</time>
      </trkpt>
      <trkpt lat="43.34459" lon="-1.46387">
        <ele>76</ele>
        <time>2022-08-30T11:52:00Z</time>
      </trkpt>
      <trkpt lat="43.34459" lon="-1.46393">
        <ele>76.2</ele>
        <time>2022-08-30T11:52:01Z</time>
      </trkpt>
      <trkpt lat="43.34459" lon="-1.46397">
        <ele>76.3</ele>
        <time>2022-08-30T11:52:02Z</time>
      </trkpt>
      <trkpt lat="43.3446" lon="-1.46401">
        <ele>76.5</ele>
        <time>2022-08-30T11:52:03Z</time>
      </trkpt>
      <trkpt lat="43.34462" lon="-1.46404">
        <ele>76.8</ele>
        <time>2022-08-30T11:52:04Z</time>
      </trkpt>
      <trkpt lat="43.34464" lon="-1.46407">
        <ele>77</ele>
        <time>2022-08-30T11:52:05Z</time>
      </trkpt>
      <trkpt lat="43.34466" lon="-1.4641">
        <ele>77.3</ele>
        <time>2022-08-30T11:52:06Z</time>
      </trkpt>
      <trkpt lat="43.34468" lon="-1.46412">
        <ele>77.6</ele>
        <time>2022-08-30T11:52:07Z</time>
      </trkpt>
      <trkpt lat="43.34471" lon="-1.46415">
        <ele>78</ele>
        <time>2022-08-30T11:52:08Z</time>
      </trkpt>
      <trkpt lat="43.34472" lon="-1.46416">
        <ele>78.2</ele>
        <time>2022-08-30T11:52:09Z</time>
      </trkpt>
      <trkpt lat="43.34475" lon="-1.46419">
        <ele>78.6</ele>
        <time>2022-08-30T11:52:10Z</time>
      </trkpt>
      <trkpt lat="43.34476" lon="-1.46421">
        <ele>78.7</ele>
        <time>2022-08-30T11:52:11Z</time>
      </trkpt>
      <trkpt lat="43.34478" lon="-1.46424">
        <ele>79.1</ele>
        <time>2022-08-30T11:52:12Z</time>
      </trkpt>
      <trkpt lat="43.34479" lon="-1.46425">
        <ele>79.3</ele>
        <time>2022-08-30T11:52:13Z</time>
      </trkpt>
      <trkpt lat="43.34482" lon="-1.46429">
        <ele>79.8</ele>
        <time>2022-08-30T11:52:14Z</time>
      </trkpt>
      <trkpt lat="43.34483" lon="-1.4643">
        <ele>80</ele>
        <time>2022-08-30T11:52:15Z</time>
      </trkpt>
      <trkpt lat="43.34485" lon="-1.46433">
        <ele>80.4</ele>
        <time>2022-08-30T11:52:16Z</time>
      </trkpt>
      <trkpt lat="43.34488" lon="-1.46436">
        <ele>80.9</ele>
        <time>2022-08-30T11:52:17Z</time>
      </trkpt>
      <trkpt lat="43.34491" lon="-1.4644">
        <ele>81.5</ele>
        <time>2022-08-30T11:52:18Z</time>
      </trkpt>
      <trkpt lat="43.34495" lon="-1.46443">
        <ele>81.5</ele>
        <time>2022-08-30T11:52:19Z</time>
      </trkpt>
      <trkpt lat="43.34498" lon="-1.46446">
        <ele>81.7</ele>
        <time>2022-08-30T11:52:20Z</time>
      </trkpt>
      <trkpt lat="43.34501" lon="-1.46449">
        <ele>81.8</ele>
        <time>2022-08-30T11:52:21Z</time>
      </trkpt>
      <trkpt lat="43.34504" lon="-1.46452">
        <ele>82</ele>
        <time>2022-08-30T11:52:22Z</time>
      </trkpt>
      <trkpt lat="43.34508" lon="-1.46455">
        <ele>82.2</ele>
        <time>2022-08-30T11:52:23Z</time>
      </trkpt>
      <trkpt lat="43.34511" lon="-1.46459">
        <ele>82.4</ele>
        <time>2022-08-30T11:52:24Z</time>
      </trkpt>
      <trkpt lat="43.34514" lon="-1.46462">
        <ele>82.6</ele>
        <time>2022-08-30T11:52:25Z</time>
      </trkpt>
      <trkpt lat="43.34517" lon="-1.46465">
        <ele>82.8</ele>
        <time>2022-08-30T11:52:26Z</time>
      </trkpt>
      <trkpt lat="43.34521" lon="-1.46468">
        <ele>83</ele>
        <time>2022-08-30T11:52:27Z</time>
      </trkpt>
      <trkpt lat="43.34524" lon="-1.46471">
        <ele>83.2</ele>
        <time>2022-08-30T11:52:28Z</time>
      </trkpt>
      <trkpt lat="43.34527" lon="-1.46473">
        <ele>83.4</ele>
        <time>2022-08-30T11:52:29Z</time>
      </trkpt>
      <trkpt lat="43.34531" lon="-1.46476">
        <ele>83.6</ele>
        <time>2022-08-30T11:52:30Z</time>
      </trkpt>
      <trkpt lat="43.34534" lon="-1.4648">
        <ele>83.9</ele>
        <time>2022-08-30T11:52:31Z</time>
      </trkpt>
      <trkpt lat="43.34537" lon="-1.46483">
        <ele>84.2</ele>
        <time>2022-08-30T11:52:32Z</time>
      </trkpt>
      <trkpt lat="43.3454" lon="-1.46486">
        <ele>84.4</ele>
        <time>2022-08-30T11:52:33Z</time>
      </trkpt>
      <trkpt lat="43.34543" lon="-1.46489">
        <ele>84.6</ele>
        <time>2022-08-30T11:52:34Z</time>
      </trkpt>
      <trkpt lat="43.34546" lon="-1.46492">
        <ele>84.9</ele>
        <time>2022-08-30T11:52:35Z</time>
      </trkpt>
      <trkpt lat="43.34549" lon="-1.46494">
        <ele>85.1</ele>
        <time>2022-08-30T11:52:36Z</time>
      </trkpt>
      <trkpt lat="43.34552" lon="-1.46497">
        <ele>85.3</ele>
        <time>2022-08-30T11:52:37Z</time>
      </trkpt>
      <trkpt lat="43.34555" lon="-1.46499">
        <ele>85.6</ele>
        <time>2022-08-30T11:52:38Z</time>
      </trkpt>
      <trkpt lat="43.34559" lon="-1.46502">
        <ele>85.8</ele>
        <time>2022-08-30T11:52:39Z</time>
      </trkpt>
      <trkpt lat="43.34562" lon="-1.46504">
        <ele>86.1</ele>
        <time>2022-08-30T11:52:40Z</time>
      </trkpt>
      <trkpt lat="43.34565" lon="-1.46507">
        <ele>86.3</ele>
        <time>2022-08-30T11:52:41Z</time>
      </trkpt>
      <trkpt lat="43.34568" lon="-1.46509">
        <ele>86.6</ele>
        <time>2022-08-30T11:52:42Z</time>
      </trkpt>
      <trkpt lat="43.34571" lon="-1.46512">
        <ele>86.8</ele>
        <time>2022-08-30T11:52:43Z</time>
      </trkpt>
      <trkpt lat="43.34574" lon="-1.46515">
        <ele>87.1</ele>
        <time>2022-08-30T11:52:44Z</time>
      </trkpt>
      <trkpt lat="43.34577" lon="-1.46517">
        <ele>87.3</ele>
        <time>2022-08-30T11:52:45Z</time>
      </trkpt>
      <trkpt lat="43.3458" lon="-1.46519">
        <ele>87.5</ele>
        <time>2022-08-30T11:52:46Z</time>
      </trkpt>
      <trkpt lat="43.34583" lon="-1.4652">
        <ele>87.8</ele>
        <time>2022-08-30T11:52:47Z</time>
      </trkpt>
      <trkpt lat="43.34586" lon="-1.46522">
        <ele>88</ele>
        <time>2022-08-30T11:52:48Z</time>
      </trkpt>
      <trkpt lat="43.34589" lon="-1.46523">
        <ele>88.2</ele>
        <time>2022-08-30T11:52:49Z</time>
      </trkpt>
      <trkpt lat="43.34592" lon="-1.46525">
        <ele>88.5</ele>
        <time>2022-08-30T11:52:50Z</time>
      </trkpt>
      <trkpt lat="43.34595" lon="-1.46527">
        <ele>88.7</ele>
        <time>2022-08-30T11:52:51Z</time>
      </trkpt>
      <trkpt lat="43.34599" lon="-1.46529">
        <ele>88.9</ele>
        <time>2022-08-30T11:52:52Z</time>
      </trkpt>
      <trkpt lat="43.34602" lon="-1.46532">
        <ele>89.2</ele>
        <time>2022-08-30T11:52:53Z</time>
      </trkpt>
      <trkpt lat="43.34605" lon="-1.46534">
        <ele>89.4</ele>
        <time>2022-08-30T11:52:54Z</time>
      </trkpt>
      <trkpt lat="43.34608" lon="-1.46537">
        <ele>89.7</ele>
        <time>2022-08-30T11:52:55Z</time>
      </trkpt>
      <trkpt lat="43.34611" lon="-1.4654">
        <ele>89.9</ele>
        <time>2022-08-30T11:52:56Z</time>
      </trkpt>
      <trkpt lat="43.34614" lon="-1.46542">
        <ele>90.1</ele>
        <time>2022-08-30T11:52:57Z</time>
      </trkpt>
      <trkpt lat="43.34618" lon="-1.46543">
        <ele>90.4</ele>
        <time>2022-08-30T11:52:58Z</time>
      </trkpt>
      <trkpt lat="43.34621" lon="-1.46546">
        <ele>90.6</ele>
        <time>2022-08-30T11:52:59Z</time>
      </trkpt>
      <trkpt lat="43.34623" lon="-1.46548">
        <ele>90.8</ele>
        <time>2022-08-30T11:53:00Z</time>
      </trkpt>
      <trkpt lat="43.34626" lon="-1.4655">
        <ele>91</ele>
        <time>2022-08-30T11:53:01Z</time>
      </trkpt>
      <trkpt lat="43.34629" lon="-1.46553">
        <ele>91.2</ele>
        <time>2022-08-30T11:53:02Z</time>
      </trkpt>
      <trkpt lat="43.34633" lon="-1.46555">
        <ele>91.5</ele>
        <time>2022-08-30T11:53:03Z</time>
      </trkpt>
      <trkpt lat="43.34636" lon="-1.46557">
        <ele>91.7</ele>
        <time>2022-08-30T11:53:04Z</time>
      </trkpt>
      <trkpt lat="43.34639" lon="-1.46559">
        <ele>91.9</ele>
        <time>2022-08-30T11:53:05Z</time>
      </trkpt>
      <trkpt lat="43.34642" lon="-1.46561">
        <ele>92.1</ele>
        <time>2022-08-30T11:53:06Z</time>
      </trkpt>
      <trkpt lat="43.34645" lon="-1.46563">
        <ele>92.3</ele>
        <time>2022-08-30T11:53:07Z</time>
      </trkpt>
      <trkpt lat="43.34648" lon="-1.46565">
        <ele>92.5</ele>
        <time>2022-08-30T11:53:08Z</time>
      </trkpt>
      <trkpt lat="43.34651" lon="-1.46567">
        <ele>92.7</ele>
        <time>2022-08-30T11:53:09Z</time>
      </trkpt>
      <trkpt lat="43.34654" lon="-1.4657">
        <ele>92.9</ele>
        <time>2022-08-30T11:53:10Z</time>
      </trkpt>
      <trkpt lat="43.34657" lon="-1.46572">
        <ele>93.1</ele>
        <time>2022-08-30T11:53:11Z</time>
      </trkpt>
      <trkpt lat="43.3466" lon="-1.46575">
        <ele>93.3</ele>
        <time>2022-08-30T11:53:12Z</time>
      </trkpt>
      <trkpt lat="43.34663" lon="-1.46576">
        <ele>93.5</ele>
        <time>2022-08-30T11:53:13Z</time>
      </trkpt>
      <trkpt lat="43.34666" lon="-1.46578">
        <ele>93.7</ele>
        <time>2022-08-30T11:53:14Z</time>
      </trkpt>
      <trkpt lat="43.34669" lon="-1.46581">
        <ele>93.9</ele>
        <time>2022-08-30T11:53:15Z</time>
      </trkpt>
      <trkpt lat="43.34672" lon="-1.46583">
        <ele>94.1</ele>
        <time>2022-08-30T11:53:16Z</time>
      </trkpt>
      <trkpt lat="43.34675" lon="-1.46585">
        <ele>94.3</ele>
        <time>2022-08-30T11:53:17Z</time>
      </trkpt>
      <trkpt lat="43.34678" lon="-1.46587">
        <ele>94.5</ele>
        <time>2022-08-30T11:53:18Z</time>
      </trkpt>
      <trkpt lat="43.34681" lon="-1.4659">
        <ele>94.8</ele>
        <time>2022-08-30T11:53:19Z</time>
      </trkpt>
      <trkpt lat="43.34685" lon="-1.46592">
        <ele>95</ele>
        <time>2022-08-30T11:53:20Z</time>
      </trkpt>
      <trkpt lat="43.34688" lon="-1.46595">
        <ele>95.2</ele>
        <time>2022-08-30T11:53:21Z</time>
      </trkpt>
      <trkpt lat="43.34691" lon="-1.46597">
        <ele>95.5</ele>
        <time>2022-08-30T11:53:22Z</time>
      </trkpt>
      <trkpt lat="43.34694" lon="-1.46599">
        <ele>95.7</ele>
        <time>2022-08-30T11:53:23Z</time>
      </trkpt>
      <trkpt lat="43.34697" lon="-1.46601">
        <ele>96</ele>
        <time>2022-08-30T11:53:24Z</time>
      </trkpt>
      <trkpt lat="43.347" lon="-1.46603">
        <ele>96.2</ele>
        <time>2022-08-30T11:53:25Z</time>
      </trkpt>
      <trkpt lat="43.34703" lon="-1.46605">
        <ele>96.5</ele>
        <time>2022-08-30T11:53:26Z</time>
      </trkpt>
      <trkpt lat="43.34706" lon="-1.46607">
        <ele>96.9</ele>
        <time>2022-08-30T11:53:27Z</time>
      </trkpt>
      <trkpt lat="43.34709" lon="-1.4661">
        <ele>97.2</ele>
        <time>2022-08-30T11:53:28Z</time>
      </trkpt>
      <trkpt lat="43.34713" lon="-1.46612">
        <ele>97.5</ele>
        <time>2022-08-30T11:53:29Z</time>
      </trkpt>
      <trkpt lat="43.34716" lon="-1.46614">
        <ele>97.9</ele>
        <time>2022-08-30T11:53:30Z</time>
      </trkpt>
      <trkpt lat="43.34719" lon="-1.46617">
        <ele>98.3</ele>
        <time>2022-08-30T11:53:31Z</time>
      </trkpt>
      <trkpt lat="43.34722" lon="-1.4662">
        <ele>98.7</ele>
        <time>2022-08-30T11:53:32Z</time>
      </trkpt>
      <trkpt lat="43.34726" lon="-1.46622">
        <ele>99.1</ele>
        <time>2022-08-30T11:53:33Z</time>
      </trkpt>
      <trkpt lat="43.34729" lon="-1.46624">
        <ele>99.5</ele>
        <time>2022-08-30T11:53:34Z</time>
      </trkpt>
      <trkpt lat="43.34732" lon="-1.46626">
        <ele>99.9</ele>
        <time>2022-08-30T11:53:35Z</time>
      </trkpt>
      <trkpt lat="43.34735" lon="-1.46629">
        <ele>100.4</ele>
        <time>2022-08-30T11:53:36Z</time>
      </trkpt>
      <trkpt lat="43.34738" lon="-1.46631">
        <ele>100.8</ele>
        <time>2022-08-30T11:53:37Z</time>
      </trkpt>
      <trkpt lat="43.34741" lon="-1.46634">
        <ele>101.3</ele>
        <time>2022-08-30T11:53:38Z</time>
      </trkpt>
      <trkpt lat="43.34745" lon="-1.46636">
        <ele>101.9</ele>
        <time>2022-08-30T11:53:39Z</time>
      </trkpt>
      <trkpt lat="43.34748" lon="-1.46638">
        <ele>102.4</ele>
        <time>2022-08-30T11:53:40Z</time>
      </trkpt>
      <trkpt lat="43.34751" lon="-1.4664">
        <ele>103</ele>
        <time>2022-08-30T11:53:41Z</time>
      </trkpt>
      <trkpt lat="43.34755" lon="-1.46642">
        <ele>103.6</ele>
        <time>2022-08-30T11:53:42Z</time>
      </trkpt>
      <trkpt lat="43.34758" lon="-1.46644">
        <ele>104.2</ele>
        <time>2022-08-30T11:53:43Z</time>
      </trkpt>
      <trkpt lat="43.34761" lon="-1.46647">
        <ele>104.8</ele>
        <time>2022-08-30T11:53:44Z</time>
      </trkpt>
      <trkpt lat="43.34765" lon="-1.46649">
        <ele>105.4</ele>
        <time>2022-08-30T11:53:45Z</time>
      </trkpt>
      <trkpt lat="43.34768" lon="-1.46651">
        <ele>106</ele>
        <time>2022-08-30T11:53:46Z</time>
      </trkpt>
      <trkpt lat="43.34771" lon="-1.46653">
        <ele>106.7</ele>
        <time>2022-08-30T11:53:47Z</time>
      </trkpt>
      <trkpt lat="43.34774" lon="-1.46655">
        <ele>107.3</ele>
        <time>2022-08-30T11:53:48Z</time>
      </trkpt>
      <trkpt lat="43.34777" lon="-1.46656">
        <ele>107.9</ele>
        <time>2022-08-30T11:53:49Z</time>
      </trkpt>
      <trkpt lat="43.34779" lon="-1.46658">
        <ele>108.5</ele>
        <time>2022-08-30T11:53:50Z</time>
      </trkpt>
      <trkpt lat="43.34782" lon="-1.4666">
        <ele>109.1</ele>
        <time>2022-08-30T11:53:51Z</time>
      </trkpt>
      <trkpt lat="43.34785" lon="-1.46662">
        <ele>109.7</ele>
        <time>2022-08-30T11:53:52Z</time>
      </trkpt>
      <trkpt lat="43.34788" lon="-1.46664">
        <ele>110.4</ele>
        <time>2022-08-30T11:53:53Z</time>
      </trkpt>
      <trkpt lat="43.34791" lon="-1.46665">
        <ele>111</ele>
        <time>2022-08-30T11:53:54Z</time>
      </trkpt>
      <trkpt lat="43.34794" lon="-1.46667">
        <ele>111.6</ele>
        <time>2022-08-30T11:53:55Z</time>
      </trkpt>
      <trkpt lat="43.34797" lon="-1.46668">
        <ele>112.2</ele>
        <time>2022-08-30T11:53:56Z</time>
      </trkpt>
      <trkpt lat="43.34802" lon="-1.4667">
        <ele>113.3</ele>
        <time>2022-08-30T11:53:58Z</time>
      </trkpt>
      <trkpt lat="43.34806" lon="-1.46672">
        <ele>114</ele>
        <time>2022-08-30T11:53:59Z</time>
      </trkpt>
      <trkpt lat="43.34807" lon="-1.46673">
        <ele>114.2</ele>
        <time>2022-08-30T11:54:00Z</time>
      </trkpt>
      <trkpt lat="43.34811" lon="-1.46674">
        <ele>114.9</ele>
        <time>2022-08-30T11:54:01Z</time>
      </trkpt>
      <trkpt lat="43.34812" lon="-1.46674">
        <ele>115.1</ele>
        <time>2022-08-30T11:54:02Z</time>
      </trkpt>
      <trkpt lat="43.34816" lon="-1.46675">
        <ele>115.7</ele>
        <time>2022-08-30T11:54:03Z</time>
      </trkpt>
      <trkpt lat="43.34817" lon="-1.46676">
        <ele>115.9</ele>
        <time>2022-08-30T11:54:04Z</time>
      </trkpt>
      <trkpt lat="43.3482" lon="-1.46676">
        <ele>116.3</ele>
        <time>2022-08-30T11:54:05Z</time>
      </trkpt>
      <trkpt lat="43.34823" lon="-1.46677">
        <ele>116.7</ele>
        <time>2022-08-30T11:54:06Z</time>
      </trkpt>
      <trkpt lat="43.34827" lon="-1.46677">
        <ele>117.2</ele>
        <time>2022-08-30T11:54:07Z</time>
      </trkpt>
      <trkpt lat="43.34828" lon="-1.46677">
        <ele>117.3</ele>
        <time>2022-08-30T11:54:08Z</time>
      </trkpt>
      <trkpt lat="43.34831" lon="-1.46677">
        <ele>117.6</ele>
        <time>2022-08-30T11:54:09Z</time>
      </trkpt>
      <trkpt lat="43.34834" lon="-1.46676">
        <ele>117.8</ele>
        <time>2022-08-30T11:54:10Z</time>
      </trkpt>
      <trkpt lat="43.34837" lon="-1.46676">
        <ele>118</ele>
        <time>2022-08-30T11:54:11Z</time>
      </trkpt>
      <trkpt lat="43.3484" lon="-1.46677">
        <ele>118.2</ele>
        <time>2022-08-30T11:54:12Z</time>
      </trkpt>
      <trkpt lat="43.34843" lon="-1.46677">
        <ele>118.4</ele>
        <time>2022-08-30T11:54:13Z</time>
      </trkpt>
      <trkpt lat="43.34845" lon="-1.46677">
        <ele>118.6</ele>
        <time>2022-08-30T11:54:14Z</time>
      </trkpt>
      <trkpt lat="43.3485" lon="-1.46677">
        <ele>118.7</ele>
        <time>2022-08-30T11:54:15Z</time>
      </trkpt>
      <trkpt lat="43.34851" lon="-1.46677">
        <ele>118.8</ele>
        <time>2022-08-30T11:54:16Z</time>
      </trkpt>
      <trkpt lat="43.34854" lon="-1.46677">
        <ele>118.9</ele>
        <time>2022-08-30T11:54:17Z</time>
      </trkpt>
      <trkpt lat="43.34857" lon="-1.46677">
        <ele>118.9</ele>
        <time>2022-08-30T11:54:18Z</time>
      </trkpt>
      <trkpt lat="43.3486" lon="-1.46676">
        <ele>119</ele>
        <time>2022-08-30T11:54:19Z</time>
      </trkpt>
      <trkpt lat="43.34864" lon="-1.46676">
        <ele>119</ele>
        <time>2022-08-30T11:54:20Z</time>
      </trkpt>
      <trkpt lat="43.34867" lon="-1.46676">
        <ele>119</ele>
        <time>2022-08-30T11:54:21Z</time>
      </trkpt>
      <trkpt lat="43.34871" lon="-1.46676">
        <ele>119</ele>
        <time>2022-08-30T11:54:22Z</time>
      </trkpt>
      <trkpt lat="43.34875" lon="-1.46676">
        <ele>119</ele>
        <time>2022-08-30T11:54:23Z</time>
      </trkpt>
      <trkpt lat="43.34878" lon="-1.46676">
        <ele>119.1</ele>
        <time>2022-08-30T11:54:24Z</time>
      </trkpt>
      <trkpt lat="43.34881" lon="-1.46675">
        <ele>119.1</ele>
        <time>2022-08-30T11:54:25Z</time>
      </trkpt>
      <trkpt lat="43.34885" lon="-1.46675">
        <ele>119.1</ele>
        <time>2022-08-30T11:54:26Z</time>
      </trkpt>
      <trkpt lat="43.34889" lon="-1.46675">
        <ele>119</ele>
        <time>2022-08-30T11:54:27Z</time>
      </trkpt>
      <trkpt lat="43.34892" lon="-1.46675">
        <ele>119</ele>
        <time>2022-08-30T11:54:28Z</time>
      </trkpt>
      <trkpt lat="43.34895" lon="-1.46675">
        <ele>119</ele>
        <time>2022-08-30T11:54:29Z</time>
      </trkpt>
      <trkpt lat="43.34899" lon="-1.46674">
        <ele>118.9</ele>
        <time>2022-08-30T11:54:30Z</time>
      </trkpt>
      <trkpt lat="43.34903" lon="-1.46673">
        <ele>118.8</ele>
        <time>2022-08-30T11:54:31Z</time>
      </trkpt>
      <trkpt lat="43.3491" lon="-1.46672">
        <ele>118.6</ele>
        <time>2022-08-30T11:54:33Z</time>
      </trkpt>
      <trkpt lat="43.34915" lon="-1.46671">
        <ele>118.4</ele>
        <time>2022-08-30T11:54:34Z</time>
      </trkpt>
      <trkpt lat="43.34919" lon="-1.46671">
        <ele>118.1</ele>
        <time>2022-08-30T11:54:35Z</time>
      </trkpt>
      <trkpt lat="43.34924" lon="-1.46671">
        <ele>117.8</ele>
        <time>2022-08-30T11:54:36Z</time>
      </trkpt>
      <trkpt lat="43.34929" lon="-1.4667">
        <ele>117.5</ele>
        <time>2022-08-30T11:54:37Z</time>
      </trkpt>
      <trkpt lat="43.34935" lon="-1.46669">
        <ele>117</ele>
        <time>2022-08-30T11:54:38Z</time>
      </trkpt>
      <trkpt lat="43.34941" lon="-1.46668">
        <ele>116.4</ele>
        <time>2022-08-30T11:54:39Z</time>
      </trkpt>
      <trkpt lat="43.34948" lon="-1.46667">
        <ele>115.7</ele>
        <time>2022-08-30T11:54:40Z</time>
      </trkpt>
      <trkpt lat="43.34955" lon="-1.46665">
        <ele>114.8</ele>
        <time>2022-08-30T11:54:41Z</time>
      </trkpt>
      <trkpt lat="43.34963" lon="-1.46664">
        <ele>113.9</ele>
        <time>2022-08-30T11:54:42Z</time>
      </trkpt>
      <trkpt lat="43.34972" lon="-1.46662">
        <ele>112.9</ele>
        <time>2022-08-30T11:54:43Z</time>
      </trkpt>
      <trkpt lat="43.34981" lon="-1.4666">
        <ele>111.9</ele>
        <time>2022-08-30T11:54:44Z</time>
      </trkpt>
      <trkpt lat="43.3499" lon="-1.46658">
        <ele>110.9</ele>
        <time>2022-08-30T11:54:45Z</time>
      </trkpt>
      <trkpt lat="43.35" lon="-1.46655">
        <ele>109.9</ele>
        <time>2022-08-30T11:54:46Z</time>
      </trkpt>
      <trkpt lat="43.3501" lon="-1.46652">
        <ele>108.8</ele>
        <time>2022-08-30T11:54:47Z</time>
      </trkpt>
      <trkpt lat="43.3502" lon="-1.4665">
        <ele>108</ele>
        <time>2022-08-30T11:54:48Z</time>
      </trkpt>
      <trkpt lat="43.3503" lon="-1.46647">
        <ele>107.2</ele>
        <time>2022-08-30T11:54:49Z</time>
      </trkpt>
      <trkpt lat="43.3504" lon="-1.46645">
        <ele>106.5</ele>
        <time>2022-08-30T11:54:50Z</time>
      </trkpt>
      <trkpt lat="43.3505" lon="-1.46643">
        <ele>106.1</ele>
        <time>2022-08-30T11:54:51Z</time>
      </trkpt>
      <trkpt lat="43.35059" lon="-1.46641">
        <ele>105.7</ele>
        <time>2022-08-30T11:54:52Z</time>
      </trkpt>
      <trkpt lat="43.35067" lon="-1.46639">
        <ele>105.5</ele>
        <time>2022-08-30T11:54:53Z</time>
      </trkpt>
      <trkpt lat="43.35076" lon="-1.46637">
        <ele>105.2</ele>
        <time>2022-08-30T11:54:54Z</time>
      </trkpt>
      <trkpt lat="43.35084" lon="-1.46634">
        <ele>105</ele>
        <time>2022-08-30T11:54:55Z</time>
      </trkpt>
      <trkpt lat="43.35092" lon="-1.46631">
        <ele>104.8</ele>
        <time>2022-08-30T11:54:56Z</time>
      </trkpt>
      <trkpt lat="43.351" lon="-1.46628">
        <ele>104.6</ele>
        <time>2022-08-30T11:54:57Z</time>
      </trkpt>
      <trkpt lat="43.35108" lon="-1.46624">
        <ele>104.6</ele>
        <time>2022-08-30T11:54:58Z</time>
      </trkpt>
      <trkpt lat="43.35116" lon="-1.46621">
        <ele>104.6</ele>
        <time>2022-08-30T11:54:59Z</time>
      </trkpt>
      <trkpt lat="43.35123" lon="-1.46619">
        <ele>104.7</ele>
        <time>2022-08-30T11:55:00Z</time>
      </trkpt>
      <trkpt lat="43.3513" lon="-1.46617">
        <ele>104.8</ele>
        <time>2022-08-30T11:55:01Z</time>
      </trkpt>
      <trkpt lat="43.35136" lon="-1.46615">
        <ele>105.1</ele>
        <time>2022-08-30T11:55:02Z</time>
      </trkpt>
      <trkpt lat="43.35142" lon="-1.46614">
        <ele>105.3</ele>
        <time>2022-08-30T11:55:03Z</time>
      </trkpt>
      <trkpt lat="43.35148" lon="-1.46613">
        <ele>105.6</ele>
        <time>2022-08-30T11:55:04Z</time>
      </trkpt>
      <trkpt lat="43.35153" lon="-1.46611">
        <ele>106</ele>
        <time>2022-08-30T11:55:05Z</time>
      </trkpt>
      <trkpt lat="43.35159" lon="-1.46609">
        <ele>106.5</ele>
        <time>2022-08-30T11:55:06Z</time>
      </trkpt>
      <trkpt lat="43.35165" lon="-1.46606">
        <ele>106.9</ele>
        <time>2022-08-30T11:55:07Z</time>
      </trkpt>
      <trkpt lat="43.3517" lon="-1.46604">
        <ele>107.4</ele>
        <time>2022-08-30T11:55:08Z</time>
      </trkpt>
      <trkpt lat="43.35175" lon="-1.46602">
        <ele>107.8</ele>
        <time>2022-08-30T11:55:09Z</time>
      </trkpt>
      <trkpt lat="43.3518" lon="-1.466">
        <ele>108.1</ele>
        <time>2022-08-30T11:55:10Z</time>
      </trkpt>
      <trkpt lat="43.35183" lon="-1.46598">
        <ele>108.3</ele>
        <time>2022-08-30T11:55:11Z</time>
      </trkpt>
      <trkpt lat="43.35187" lon="-1.46597">
        <ele>108.5</ele>
        <time>2022-08-30T11:55:12Z</time>
      </trkpt>
      <trkpt lat="43.3519" lon="-1.46595">
        <ele>108.7</ele>
        <time>2022-08-30T11:55:13Z</time>
      </trkpt>
      <trkpt lat="43.35193" lon="-1.46594">
        <ele>108.8</ele>
        <time>2022-08-30T11:55:14Z</time>
      </trkpt>
      <trkpt lat="43.35197" lon="-1.46593">
        <ele>108.9</ele>
        <time>2022-08-30T11:55:15Z</time>
      </trkpt>
      <trkpt lat="43.35201" lon="-1.46593">
        <ele>109</ele>
        <time>2022-08-30T11:55:16Z</time>
      </trkpt>
      <trkpt lat="43.35204" lon="-1.46592">
        <ele>109.1</ele>
        <time>2022-08-30T11:55:17Z</time>
      </trkpt>
      <trkpt lat="43.35208" lon="-1.46591">
        <ele>109.2</ele>
        <time>2022-08-30T11:55:18Z</time>
      </trkpt>
      <trkpt lat="43.35212" lon="-1.4659">
        <ele>109.3</ele>
        <time>2022-08-30T11:55:19Z</time>
      </trkpt>
      <trkpt lat="43.35216" lon="-1.46589">
        <ele>109.3</ele>
        <time>2022-08-30T11:55:20Z</time>
      </trkpt>
      <trkpt lat="43.3522" lon="-1.46588">
        <ele>109.4</ele>
        <time>2022-08-30T11:55:21Z</time>
      </trkpt>
      <trkpt lat="43.35224" lon="-1.46586">
        <ele>109.5</ele>
        <time>2022-08-30T11:55:22Z</time>
      </trkpt>
      <trkpt lat="43.35228" lon="-1.46585">
        <ele>109.5</ele>
        <time>2022-08-30T11:55:23Z</time>
      </trkpt>
      <trkpt lat="43.35233" lon="-1.46583">
        <ele>109.6</ele>
        <time>2022-08-30T11:55:24Z</time>
      </trkpt>
      <trkpt lat="43.35237" lon="-1.46582">
        <ele>109.7</ele>
        <time>2022-08-30T11:55:25Z</time>
      </trkpt>
      <trkpt lat="43.35243" lon="-1.46581">
        <ele>109.8</ele>
        <time>2022-08-30T11:55:26Z</time>
      </trkpt>
      <trkpt lat="43.35248" lon="-1.46581">
        <ele>109.8</ele>
        <time>2022-08-30T11:55:27Z</time>
      </trkpt>
      <trkpt lat="43.35254" lon="-1.46581">
        <ele>109.9</ele>
        <time>2022-08-30T11:55:28Z</time>
      </trkpt>
      <trkpt lat="43.35259" lon="-1.4658">
        <ele>109.9</ele>
        <time>2022-08-30T11:55:29Z</time>
      </trkpt>
      <trkpt lat="43.35265" lon="-1.4658">
        <ele>110</ele>
        <time>2022-08-30T11:55:30Z</time>
      </trkpt>
      <trkpt lat="43.3527" lon="-1.46578">
        <ele>109.9</ele>
        <time>2022-08-30T11:55:31Z</time>
      </trkpt>
      <trkpt lat="43.35276" lon="-1.46578">
        <ele>109.8</ele>
        <time>2022-08-30T11:55:32Z</time>
      </trkpt>
      <trkpt lat="43.35282" lon="-1.46578">
        <ele>109.6</ele>
        <time>2022-08-30T11:55:33Z</time>
      </trkpt>
      <trkpt lat="43.35288" lon="-1.46578">
        <ele>109.4</ele>
        <time>2022-08-30T11:55:34Z</time>
      </trkpt>
      <trkpt lat="43.35293" lon="-1.46579">
        <ele>109.2</ele>
        <time>2022-08-30T11:55:35Z</time>
      </trkpt>
      <trkpt lat="43.35299" lon="-1.4658">
        <ele>108.9</ele>
        <time>2022-08-30T11:55:36Z</time>
      </trkpt>
      <trkpt lat="43.35306" lon="-1.46582">
        <ele>108.7</ele>
        <time>2022-08-30T11:55:37Z</time>
      </trkpt>
      <trkpt lat="43.35312" lon="-1.46584">
        <ele>108.6</ele>
        <time>2022-08-30T11:55:38Z</time>
      </trkpt>
      <trkpt lat="43.35317" lon="-1.46585">
        <ele>108.5</ele>
        <time>2022-08-30T11:55:39Z</time>
      </trkpt>
      <trkpt lat="43.35323" lon="-1.46587">
        <ele>108.5</ele>
        <time>2022-08-30T11:55:40Z</time>
      </trkpt>
      <trkpt lat="43.35329" lon="-1.46588">
        <ele>108.4</ele>
        <time>2022-08-30T11:55:41Z</time>
      </trkpt>
      <trkpt lat="43.35334" lon="-1.46591">
        <ele>108.4</ele>
        <time>2022-08-30T11:55:42Z</time>
      </trkpt>
      <trkpt lat="43.35339" lon="-1.46593">
        <ele>108.4</ele>
        <time>2022-08-30T11:55:43Z</time>
      </trkpt>
      <trkpt lat="43.35345" lon="-1.46596">
        <ele>108.5</ele>
        <time>2022-08-30T11:55:44Z</time>
      </trkpt>
      <trkpt lat="43.35351" lon="-1.46599">
        <ele>108.7</ele>
        <time>2022-08-30T11:55:45Z</time>
      </trkpt>
      <trkpt lat="43.35356" lon="-1.46601">
        <ele>108.8</ele>
        <time>2022-08-30T11:55:46Z</time>
      </trkpt>
      <trkpt lat="43.35362" lon="-1.46603">
        <ele>109</ele>
        <time>2022-08-30T11:55:47Z</time>
      </trkpt>
      <trkpt lat="43.35367" lon="-1.46605">
        <ele>109.3</ele>
        <time>2022-08-30T11:55:48Z</time>
      </trkpt>
      <trkpt lat="43.35373" lon="-1.46608">
        <ele>109.6</ele>
        <time>2022-08-30T11:55:49Z</time>
      </trkpt>
      <trkpt lat="43.35378" lon="-1.46611">
        <ele>109.9</ele>
        <time>2022-08-30T11:55:50Z</time>
      </trkpt>
      <trkpt lat="43.35383" lon="-1.46613">
        <ele>110.2</ele>
        <time>2022-08-30T11:55:51Z</time>
      </trkpt>
      <trkpt lat="43.35388" lon="-1.46615">
        <ele>110.6</ele>
        <time>2022-08-30T11:55:52Z</time>
      </trkpt>
      <trkpt lat="43.35393" lon="-1.46617">
        <ele>111.1</ele>
        <time>2022-08-30T11:55:53Z</time>
      </trkpt>
      <trkpt lat="43.35398" lon="-1.46619">
        <ele>111.5</ele>
        <time>2022-08-30T11:55:54Z</time>
      </trkpt>
      <trkpt lat="43.35403" lon="-1.46621">
        <ele>111.9</ele>
        <time>2022-08-30T11:55:55Z</time>
      </trkpt>
      <trkpt lat="43.35408" lon="-1.46623">
        <ele>112.3</ele>
        <time>2022-08-30T11:55:56Z</time>
      </trkpt>
      <trkpt lat="43.35413" lon="-1.46625">
        <ele>112.7</ele>
        <time>2022-08-30T11:55:57Z</time>
      </trkpt>
      <trkpt lat="43.35418" lon="-1.46627">
        <ele>113.1</ele>
        <time>2022-08-30T11:55:58Z</time>
      </trkpt>
      <trkpt lat="43.35423" lon="-1.46628">
        <ele>113.5</ele>
        <time>2022-08-30T11:55:59Z</time>
      </trkpt>
      <trkpt lat="43.35428" lon="-1.4663">
        <ele>113.9</ele>
        <time>2022-08-30T11:56:00Z</time>
      </trkpt>
      <trkpt lat="43.35433" lon="-1.46631">
        <ele>114.2</ele>
        <time>2022-08-30T11:56:01Z</time>
      </trkpt>
      <trkpt lat="43.35437" lon="-1.46633">
        <ele>114.5</ele>
        <time>2022-08-30T11:56:02Z</time>
      </trkpt>
      <trkpt lat="43.35442" lon="-1.46635">
        <ele>114.9</ele>
        <time>2022-08-30T11:56:03Z</time>
      </trkpt>
      <trkpt lat="43.35446" lon="-1.46637">
        <ele>115.2</ele>
        <time>2022-08-30T11:56:04Z</time>
      </trkpt>
      <trkpt lat="43.3545" lon="-1.46638">
        <ele>115.4</ele>
        <time>2022-08-30T11:56:05Z</time>
      </trkpt>
      <trkpt lat="43.35455" lon="-1.46639">
        <ele>115.7</ele>
        <time>2022-08-30T11:56:06Z</time>
      </trkpt>
      <trkpt lat="43.35459" lon="-1.4664">
        <ele>116</ele>
        <time>2022-08-30T11:56:07Z</time>
      </trkpt>
      <trkpt lat="43.35463" lon="-1.46641">
        <ele>116.3</ele>
        <time>2022-08-30T11:56:08Z</time>
      </trkpt>
      <trkpt lat="43.35468" lon="-1.46643">
        <ele>116.6</ele>
        <time>2022-08-30T11:56:09Z</time>
      </trkpt>
      <trkpt lat="43.35472" lon="-1.46644">
        <ele>116.9</ele>
        <time>2022-08-30T11:56:10Z</time>
      </trkpt>
      <trkpt lat="43.35476" lon="-1.46647">
        <ele>117.1</ele>
        <time>2022-08-30T11:56:11Z</time>
      </trkpt>
      <trkpt lat="43.3548" lon="-1.46649">
        <ele>117.4</ele>
        <time>2022-08-30T11:56:12Z</time>
      </trkpt>
      <trkpt lat="43.35484" lon="-1.46651">
        <ele>117.6</ele>
        <time>2022-08-30T11:56:13Z</time>
      </trkpt>
      <trkpt lat="43.35487" lon="-1.46653">
        <ele>117.7</ele>
        <time>2022-08-30T11:56:14Z</time>
      </trkpt>
      <trkpt lat="43.3549" lon="-1.46654">
        <ele>117.9</ele>
        <time>2022-08-30T11:56:15Z</time>
      </trkpt>
      <trkpt lat="43.35494" lon="-1.46656">
        <ele>118.1</ele>
        <time>2022-08-30T11:56:16Z</time>
      </trkpt>
      <trkpt lat="43.35497" lon="-1.46659">
        <ele>118.3</ele>
        <time>2022-08-30T11:56:17Z</time>
      </trkpt>
      <trkpt lat="43.35501" lon="-1.46662">
        <ele>118.5</ele>
        <time>2022-08-30T11:56:18Z</time>
      </trkpt>
      <trkpt lat="43.35504" lon="-1.46665">
        <ele>118.8</ele>
        <time>2022-08-30T11:56:19Z</time>
      </trkpt>
      <trkpt lat="43.35508" lon="-1.46669">
        <ele>119.1</ele>
        <time>2022-08-30T11:56:20Z</time>
      </trkpt>
      <trkpt lat="43.35512" lon="-1.46672">
        <ele>119.3</ele>
        <time>2022-08-30T11:56:21Z</time>
      </trkpt>
      <trkpt lat="43.35515" lon="-1.46674">
        <ele>119.6</ele>
        <time>2022-08-30T11:56:22Z</time>
      </trkpt>
      <trkpt lat="43.35518" lon="-1.46677">
        <ele>119.9</ele>
        <time>2022-08-30T11:56:23Z</time>
      </trkpt>
      <trkpt lat="43.35521" lon="-1.4668">
        <ele>120.2</ele>
        <time>2022-08-30T11:56:24Z</time>
      </trkpt>
      <trkpt lat="43.35525" lon="-1.46682">
        <ele>120.6</ele>
        <time>2022-08-30T11:56:25Z</time>
      </trkpt>
      <trkpt lat="43.35528" lon="-1.46686">
        <ele>121</ele>
        <time>2022-08-30T11:56:26Z</time>
      </trkpt>
      <trkpt lat="43.3553" lon="-1.46689">
        <ele>121.4</ele>
        <time>2022-08-30T11:56:27Z</time>
      </trkpt>
      <trkpt lat="43.35533" lon="-1.46692">
        <ele>121.8</ele>
        <time>2022-08-30T11:56:28Z</time>
      </trkpt>
      <trkpt lat="43.35536" lon="-1.46694">
        <ele>122.2</ele>
        <time>2022-08-30T11:56:29Z</time>
      </trkpt>
      <trkpt lat="43.35539" lon="-1.46696">
        <ele>122.6</ele>
        <time>2022-08-30T11:56:30Z</time>
      </trkpt>
      <trkpt lat="43.35541" lon="-1.46698">
        <ele>123</ele>
        <time>2022-08-30T11:56:31Z</time>
      </trkpt>
      <trkpt lat="43.35544" lon="-1.46701">
        <ele>123.4</ele>
        <time>2022-08-30T11:56:32Z</time>
      </trkpt>
      <trkpt lat="43.35546" lon="-1.46703">
        <ele>123.8</ele>
        <time>2022-08-30T11:56:33Z</time>
      </trkpt>
      <trkpt lat="43.35549" lon="-1.46705">
        <ele>124.2</ele>
        <time>2022-08-30T11:56:34Z</time>
      </trkpt>
      <trkpt lat="43.35552" lon="-1.46708">
        <ele>124.6</ele>
        <time>2022-08-30T11:56:35Z</time>
      </trkpt>
      <trkpt lat="43.35554" lon="-1.46709">
        <ele>124.8</ele>
        <time>2022-08-30T11:56:36Z</time>
      </trkpt>
      <trkpt lat="43.35557" lon="-1.46712">
        <ele>125.3</ele>
        <time>2022-08-30T11:56:37Z</time>
      </trkpt>
      <trkpt lat="43.35558" lon="-1.46713">
        <ele>125.4</ele>
        <time>2022-08-30T11:56:38Z</time>
      </trkpt>
      <trkpt lat="43.35561" lon="-1.46716">
        <ele>125.8</ele>
        <time>2022-08-30T11:56:39Z</time>
      </trkpt>
      <trkpt lat="43.35562" lon="-1.46717">
        <ele>125.9</ele>
        <time>2022-08-30T11:56:40Z</time>
      </trkpt>
      <trkpt lat="43.35564" lon="-1.4672">
        <ele>126.3</ele>
        <time>2022-08-30T11:56:41Z</time>
      </trkpt>
      <trkpt lat="43.35564" lon="-1.46721">
        <ele>126.3</ele>
        <time>2022-08-30T11:56:42Z</time>
      </trkpt>
      <trkpt lat="43.35567" lon="-1.46723">
        <ele>126.7</ele>
        <time>2022-08-30T11:56:43Z</time>
      </trkpt>
      <trkpt lat="43.35568" lon="-1.46724">
        <ele>126.8</ele>
        <time>2022-08-30T11:56:44Z</time>
      </trkpt>
      <trkpt lat="43.35571" lon="-1.46726">
        <ele>127.2</ele>
        <time>2022-08-30T11:56:45Z</time>
      </trkpt>
      <trkpt lat="43.35572" lon="-1.46727">
        <ele>127.3</ele>
        <time>2022-08-30T11:56:46Z</time>
      </trkpt>
      <trkpt lat="43.35575" lon="-1.4673">
        <ele>127.6</ele>
        <time>2022-08-30T11:56:47Z</time>
      </trkpt>
      <trkpt lat="43.35576" lon="-1.46731">
        <ele>127.7</ele>
        <time>2022-08-30T11:56:48Z</time>
      </trkpt>
      <trkpt lat="43.3558" lon="-1.46733">
        <ele>128.1</ele>
        <time>2022-08-30T11:56:49Z</time>
      </trkpt>
      <trkpt lat="43.35581" lon="-1.46734">
        <ele>128.2</ele>
        <time>2022-08-30T11:56:50Z</time>
      </trkpt>
      <trkpt lat="43.35584" lon="-1.46736">
        <ele>128.5</ele>
        <time>2022-08-30T11:56:51Z</time>
      </trkpt>
      <trkpt lat="43.35585" lon="-1.46737">
        <ele>128.6</ele>
        <time>2022-08-30T11:56:52Z</time>
      </trkpt>
      <trkpt lat="43.35588" lon="-1.46739">
        <ele>128.9</ele>
        <time>2022-08-30T11:56:53Z</time>
      </trkpt>
      <trkpt lat="43.35589" lon="-1.4674">
        <ele>129</ele>
        <time>2022-08-30T11:56:54Z</time>
      </trkpt>
      <trkpt lat="43.35592" lon="-1.46742">
        <ele>129.2</ele>
        <time>2022-08-30T11:56:55Z</time>
      </trkpt>
      <trkpt lat="43.35593" lon="-1.46743">
        <ele>129.3</ele>
        <time>2022-08-30T11:56:56Z</time>
      </trkpt>
      <trkpt lat="43.35596" lon="-1.46745">
        <ele>129.6</ele>
        <time>2022-08-30T11:56:57Z</time>
      </trkpt>
      <trkpt lat="43.35598" lon="-1.46745">
        <ele>129.7</ele>
        <time>2022-08-30T11:56:58Z</time>
      </trkpt>
      <trkpt lat="43.35601" lon="-1.46746">
        <ele>130</ele>
        <time>2022-08-30T11:56:59Z</time>
      </trkpt>
      <trkpt lat="43.35602" lon="-1.46746">
        <ele>130.1</ele>
        <time>2022-08-30T11:57:00Z</time>
      </trkpt>
      <trkpt lat="43.35606" lon="-1.46746">
        <ele>130.4</ele>
        <time>2022-08-30T11:57:01Z</time>
      </trkpt>
      <trkpt lat="43.35607" lon="-1.46746">
        <ele>130.5</ele>
        <time>2022-08-30T11:57:02Z</time>
      </trkpt>
      <trkpt lat="43.35611" lon="-1.46746">
        <ele>130.9</ele>
        <time>2022-08-30T11:57:03Z</time>
      </trkpt>
      <trkpt lat="43.35612" lon="-1.46745">
        <ele>131</ele>
        <time>2022-08-30T11:57:04Z</time>
      </trkpt>
      <trkpt lat="43.35615" lon="-1.46744">
        <ele>131.3</ele>
        <time>2022-08-30T11:57:05Z</time>
      </trkpt>
      <trkpt lat="43.35616" lon="-1.46743">
        <ele>131.4</ele>
        <time>2022-08-30T11:57:06Z</time>
      </trkpt>
      <trkpt lat="43.35619" lon="-1.46742">
        <ele>131.8</ele>
        <time>2022-08-30T11:57:07Z</time>
      </trkpt>
      <trkpt lat="43.35621" lon="-1.46742">
        <ele>132</ele>
        <time>2022-08-30T11:57:08Z</time>
      </trkpt>
      <trkpt lat="43.35624" lon="-1.4674">
        <ele>132.4</ele>
        <time>2022-08-30T11:57:09Z</time>
      </trkpt>
      <trkpt lat="43.35625" lon="-1.4674">
        <ele>132.5</ele>
        <time>2022-08-30T11:57:10Z</time>
      </trkpt>
      <trkpt lat="43.35629" lon="-1.46738">
        <ele>132.9</ele>
        <time>2022-08-30T11:57:11Z</time>
      </trkpt>
      <trkpt lat="43.3563" lon="-1.46738">
        <ele>133.1</ele>
        <time>2022-08-30T11:57:12Z</time>
      </trkpt>
      <trkpt lat="43.35633" lon="-1.46735">
        <ele>133.5</ele>
        <time>2022-08-30T11:57:13Z</time>
      </trkpt>
      <trkpt lat="43.35634" lon="-1.46735">
        <ele>133.6</ele>
        <time>2022-08-30T11:57:14Z</time>
      </trkpt>
      <trkpt lat="43.35637" lon="-1.46732">
        <ele>134.1</ele>
        <time>2022-08-30T11:57:15Z</time>
      </trkpt>
      <trkpt lat="43.35638" lon="-1.46731">
        <ele>134.3</ele>
        <time>2022-08-30T11:57:16Z</time>
      </trkpt>
      <trkpt lat="43.35641" lon="-1.4673">
        <ele>134.6</ele>
        <time>2022-08-30T11:57:17Z</time>
      </trkpt>
      <trkpt lat="43.35643" lon="-1.46728">
        <ele>135</ele>
        <time>2022-08-30T11:57:18Z</time>
      </trkpt>
      <trkpt lat="43.35646" lon="-1.46726">
        <ele>135.4</ele>
        <time>2022-08-30T11:57:19Z</time>
      </trkpt>
      <trkpt lat="43.35649" lon="-1.46724">
        <ele>135.8</ele>
        <time>2022-08-30T11:57:20Z</time>
      </trkpt>
      <trkpt lat="43.35652" lon="-1.46723">
        <ele>136.2</ele>
        <time>2022-08-30T11:57:21Z</time>
      </trkpt>
      <trkpt lat="43.35656" lon="-1.46721">
        <ele>136.5</ele>
        <time>2022-08-30T11:57:22Z</time>
      </trkpt>
      <trkpt lat="43.35659" lon="-1.4672">
        <ele>136.9</ele>
        <time>2022-08-30T11:57:23Z</time>
      </trkpt>
      <trkpt lat="43.35662" lon="-1.46719">
        <ele>137.2</ele>
        <time>2022-08-30T11:57:24Z</time>
      </trkpt>
      <trkpt lat="43.35666" lon="-1.46718">
        <ele>137.6</ele>
        <time>2022-08-30T11:57:25Z</time>
      </trkpt>
      <trkpt lat="43.3567" lon="-1.46718">
        <ele>137.8</ele>
        <time>2022-08-30T11:57:26Z</time>
      </trkpt>
      <trkpt lat="43.35674" lon="-1.46717">
        <ele>138.1</ele>
        <time>2022-08-30T11:57:27Z</time>
      </trkpt>
      <trkpt lat="43.35679" lon="-1.46716">
        <ele>138.4</ele>
        <time>2022-08-30T11:57:28Z</time>
      </trkpt>
      <trkpt lat="43.35684" lon="-1.46716">
        <ele>138.6</ele>
        <time>2022-08-30T11:57:29Z</time>
      </trkpt>
      <trkpt lat="43.35687" lon="-1.46716">
        <ele>138.7</ele>
        <time>2022-08-30T11:57:30Z</time>
      </trkpt>
      <trkpt lat="43.3569" lon="-1.46717">
        <ele>138.8</ele>
        <time>2022-08-30T11:57:31Z</time>
      </trkpt>
      <trkpt lat="43.35694" lon="-1.46716">
        <ele>138.8</ele>
        <time>2022-08-30T11:57:32Z</time>
      </trkpt>
      <trkpt lat="43.35699" lon="-1.46716">
        <ele>138.8</ele>
        <time>2022-08-30T11:57:33Z</time>
      </trkpt>
      <trkpt lat="43.35704" lon="-1.46714">
        <ele>138.6</ele>
        <time>2022-08-30T11:57:34Z</time>
      </trkpt>
      <trkpt lat="43.35709" lon="-1.46713">
        <ele>138.4</ele>
        <time>2022-08-30T11:57:35Z</time>
      </trkpt>
      <trkpt lat="43.35714" lon="-1.46711">
        <ele>138.1</ele>
        <time>2022-08-30T11:57:36Z</time>
      </trkpt>
      <trkpt lat="43.35719" lon="-1.46709">
        <ele>137.7</ele>
        <time>2022-08-30T11:57:37Z</time>
      </trkpt>
      <trkpt lat="43.35725" lon="-1.46709">
        <ele>137.3</ele>
        <time>2022-08-30T11:57:38Z</time>
      </trkpt>
      <trkpt lat="43.35731" lon="-1.46707">
        <ele>136.8</ele>
        <time>2022-08-30T11:57:39Z</time>
      </trkpt>
      <trkpt lat="43.35737" lon="-1.46706">
        <ele>136.1</ele>
        <time>2022-08-30T11:57:40Z</time>
      </trkpt>
      <trkpt lat="43.35744" lon="-1.46705">
        <ele>135.4</ele>
        <time>2022-08-30T11:57:41Z</time>
      </trkpt>
      <trkpt lat="43.35751" lon="-1.46703">
        <ele>134.5</ele>
        <time>2022-08-30T11:57:42Z</time>
      </trkpt>
      <trkpt lat="43.35759" lon="-1.46701">
        <ele>133.7</ele>
        <time>2022-08-30T11:57:43Z</time>
      </trkpt>
      <trkpt lat="43.35767" lon="-1.467">
        <ele>133</ele>
        <time>2022-08-30T11:57:44Z</time>
      </trkpt>
      <trkpt lat="43.35775" lon="-1.46698">
        <ele>132.4</ele>
        <time>2022-08-30T11:57:45Z</time>
      </trkpt>
      <trkpt lat="43.35783" lon="-1.46697">
        <ele>132</ele>
        <time>2022-08-30T11:57:46Z</time>
      </trkpt>
      <trkpt lat="43.35791" lon="-1.46697">
        <ele>131.8</ele>
        <time>2022-08-30T11:57:47Z</time>
      </trkpt>
      <trkpt lat="43.35799" lon="-1.46695">
        <ele>131.8</ele>
        <time>2022-08-30T11:57:48Z</time>
      </trkpt>
      <trkpt lat="43.35806" lon="-1.46694">
        <ele>131.9</ele>
        <time>2022-08-30T11:57:49Z</time>
      </trkpt>
      <trkpt lat="43.35813" lon="-1.46692">
        <ele>132.2</ele>
        <time>2022-08-30T11:57:50Z</time>
      </trkpt>
      <trkpt lat="43.35819" lon="-1.4669">
        <ele>132.5</ele>
        <time>2022-08-30T11:57:51Z</time>
      </trkpt>
      <trkpt lat="43.35824" lon="-1.46688">
        <ele>132.8</ele>
        <time>2022-08-30T11:57:52Z</time>
      </trkpt>
      <trkpt lat="43.35828" lon="-1.46687">
        <ele>133.2</ele>
        <time>2022-08-30T11:57:53Z</time>
      </trkpt>
      <trkpt lat="43.35833" lon="-1.46685">
        <ele>133.6</ele>
        <time>2022-08-30T11:57:54Z</time>
      </trkpt>
      <trkpt lat="43.35838" lon="-1.46684">
        <ele>134</ele>
        <time>2022-08-30T11:57:55Z</time>
      </trkpt>
      <trkpt lat="43.35842" lon="-1.46682">
        <ele>134.4</ele>
        <time>2022-08-30T11:57:56Z</time>
      </trkpt>
      <trkpt lat="43.35847" lon="-1.46681">
        <ele>134.8</ele>
        <time>2022-08-30T11:57:57Z</time>
      </trkpt>
      <trkpt lat="43.35851" lon="-1.4668">
        <ele>135.2</ele>
        <time>2022-08-30T11:57:58Z</time>
      </trkpt>
      <trkpt lat="43.35856" lon="-1.46679">
        <ele>135.6</ele>
        <time>2022-08-30T11:57:59Z</time>
      </trkpt>
      <trkpt lat="43.3586" lon="-1.46678">
        <ele>136</ele>
        <time>2022-08-30T11:58:00Z</time>
      </trkpt>
      <trkpt lat="43.35864" lon="-1.46677">
        <ele>136.4</ele>
        <time>2022-08-30T11:58:01Z</time>
      </trkpt>
      <trkpt lat="43.35868" lon="-1.46676">
        <ele>136.9</ele>
        <time>2022-08-30T11:58:02Z</time>
      </trkpt>
      <trkpt lat="43.35873" lon="-1.46675">
        <ele>137.3</ele>
        <time>2022-08-30T11:58:03Z</time>
      </trkpt>
      <trkpt lat="43.35877" lon="-1.46674">
        <ele>137.8</ele>
        <time>2022-08-30T11:58:04Z</time>
      </trkpt>
      <trkpt lat="43.35881" lon="-1.46673">
        <ele>138.2</ele>
        <time>2022-08-30T11:58:05Z</time>
      </trkpt>
      <trkpt lat="43.35886" lon="-1.46672">
        <ele>138.7</ele>
        <time>2022-08-30T11:58:06Z</time>
      </trkpt>
      <trkpt lat="43.3589" lon="-1.46671">
        <ele>139.2</ele>
        <time>2022-08-30T11:58:07Z</time>
      </trkpt>
      <trkpt lat="43.35894" lon="-1.4667">
        <ele>139.6</ele>
        <time>2022-08-30T11:58:08Z</time>
      </trkpt>
      <trkpt lat="43.35898" lon="-1.46669">
        <ele>139.9</ele>
        <time>2022-08-30T11:58:09Z</time>
      </trkpt>
      <trkpt lat="43.35902" lon="-1.46668">
        <ele>140.3</ele>
        <time>2022-08-30T11:58:10Z</time>
      </trkpt>
      <trkpt lat="43.35906" lon="-1.46666">
        <ele>140.6</ele>
        <time>2022-08-30T11:58:11Z</time>
      </trkpt>
      <trkpt lat="43.3591" lon="-1.46666">
        <ele>140.8</ele>
        <time>2022-08-30T11:58:12Z</time>
      </trkpt>
      <trkpt lat="43.35914" lon="-1.46665">
        <ele>141.1</ele>
        <time>2022-08-30T11:58:13Z</time>
      </trkpt>
      <trkpt lat="43.35918" lon="-1.46665">
        <ele>141.3</ele>
        <time>2022-08-30T11:58:14Z</time>
      </trkpt>
      <trkpt lat="43.35922" lon="-1.46664">
        <ele>141.5</ele>
        <time>2022-08-30T11:58:15Z</time>
      </trkpt>
      <trkpt lat="43.35926" lon="-1.46664">
        <ele>141.6</ele>
        <time>2022-08-30T11:58:16Z</time>
      </trkpt>
      <trkpt lat="43.35929" lon="-1.46664">
        <ele>141.7</ele>
        <time>2022-08-30T11:58:17Z</time>
      </trkpt>
      <trkpt lat="43.35933" lon="-1.46664">
        <ele>141.8</ele>
        <time>2022-08-30T11:58:18Z</time>
      </trkpt>
      <trkpt lat="43.35936" lon="-1.46664">
        <ele>141.9</ele>
        <time>2022-08-30T11:58:19Z</time>
      </trkpt>
      <trkpt lat="43.35939" lon="-1.46663">
        <ele>142</ele>
        <time>2022-08-30T11:58:20Z</time>
      </trkpt>
      <trkpt lat="43.35942" lon="-1.46664">
        <ele>142.1</ele>
        <time>2022-08-30T11:58:21Z</time>
      </trkpt>
      <trkpt lat="43.35946" lon="-1.46663">
        <ele>142.1</ele>
        <time>2022-08-30T11:58:22Z</time>
      </trkpt>
      <trkpt lat="43.3595" lon="-1.46664">
        <ele>142.2</ele>
        <time>2022-08-30T11:58:23Z</time>
      </trkpt>
      <trkpt lat="43.35954" lon="-1.46664">
        <ele>142.2</ele>
        <time>2022-08-30T11:58:24Z</time>
      </trkpt>
      <trkpt lat="43.35959" lon="-1.46664">
        <ele>142.3</ele>
        <time>2022-08-30T11:58:25Z</time>
      </trkpt>
      <trkpt lat="43.35963" lon="-1.46664">
        <ele>142.3</ele>
        <time>2022-08-30T11:58:26Z</time>
      </trkpt>
      <trkpt lat="43.35968" lon="-1.46664">
        <ele>142.3</ele>
        <time>2022-08-30T11:58:27Z</time>
      </trkpt>
      <trkpt lat="43.35972" lon="-1.46664">
        <ele>142.4</ele>
        <time>2022-08-30T11:58:28Z</time>
      </trkpt>
      <trkpt lat="43.35976" lon="-1.46665">
        <ele>142.4</ele>
        <time>2022-08-30T11:58:29Z</time>
      </trkpt>
      <trkpt lat="43.35981" lon="-1.46665">
        <ele>142.4</ele>
        <time>2022-08-30T11:58:30Z</time>
      </trkpt>
      <trkpt lat="43.35985" lon="-1.46666">
        <ele>142.5</ele>
        <time>2022-08-30T11:58:31Z</time>
      </trkpt>
      <trkpt lat="43.35989" lon="-1.46667">
        <ele>142.5</ele>
        <time>2022-08-30T11:58:32Z</time>
      </trkpt>
      <trkpt lat="43.35993" lon="-1.46668">
        <ele>142.6</ele>
        <time>2022-08-30T11:58:33Z</time>
      </trkpt>
      <trkpt lat="43.35997" lon="-1.46668">
        <ele>142.7</ele>
        <time>2022-08-30T11:58:34Z</time>
      </trkpt>
      <trkpt lat="43.36002" lon="-1.46668">
        <ele>142.7</ele>
        <time>2022-08-30T11:58:35Z</time>
      </trkpt>
      <trkpt lat="43.36006" lon="-1.46668">
        <ele>142.8</ele>
        <time>2022-08-30T11:58:36Z</time>
      </trkpt>
      <trkpt lat="43.36011" lon="-1.46668">
        <ele>142.9</ele>
        <time>2022-08-30T11:58:37Z</time>
      </trkpt>
      <trkpt lat="43.36015" lon="-1.46669">
        <ele>143</ele>
        <time>2022-08-30T11:58:38Z</time>
      </trkpt>
      <trkpt lat="43.36019" lon="-1.4667">
        <ele>143.1</ele>
        <time>2022-08-30T11:58:39Z</time>
      </trkpt>
      <trkpt lat="43.36023" lon="-1.4667">
        <ele>143.2</ele>
        <time>2022-08-30T11:58:40Z</time>
      </trkpt>
      <trkpt lat="43.36028" lon="-1.4667">
        <ele>143.3</ele>
        <time>2022-08-30T11:58:41Z</time>
      </trkpt>
      <trkpt lat="43.36032" lon="-1.4667">
        <ele>143.4</ele>
        <time>2022-08-30T11:58:42Z</time>
      </trkpt>
      <trkpt lat="43.36036" lon="-1.46671">
        <ele>143.5</ele>
        <time>2022-08-30T11:58:43Z</time>
      </trkpt>
      <trkpt lat="43.3604" lon="-1.46671">
        <ele>143.6</ele>
        <time>2022-08-30T11:58:44Z</time>
      </trkpt>
      <trkpt lat="43.36044" lon="-1.46671">
        <ele>143.7</ele>
        <time>2022-08-30T11:58:45Z</time>
      </trkpt>
      <trkpt lat="43.36049" lon="-1.46671">
        <ele>143.8</ele>
        <time>2022-08-30T11:58:46Z</time>
      </trkpt>
      <trkpt lat="43.36053" lon="-1.46671">
        <ele>143.9</ele>
        <time>2022-08-30T11:58:47Z</time>
      </trkpt>
      <trkpt lat="43.36057" lon="-1.46671">
        <ele>144</ele>
        <time>2022-08-30T11:58:48Z</time>
      </trkpt>
      <trkpt lat="43.36062" lon="-1.46672">
        <ele>144.1</ele>
        <time>2022-08-30T11:58:49Z</time>
      </trkpt>
      <trkpt lat="43.36066" lon="-1.46672">
        <ele>144.2</ele>
        <time>2022-08-30T11:58:50Z</time>
      </trkpt>
      <trkpt lat="43.36071" lon="-1.46672">
        <ele>144.3</ele>
        <time>2022-08-30T11:58:51Z</time>
      </trkpt>
      <trkpt lat="43.36075" lon="-1.46671">
        <ele>144.5</ele>
        <time>2022-08-30T11:58:52Z</time>
      </trkpt>
      <trkpt lat="43.36079" lon="-1.46671">
        <ele>144.7</ele>
        <time>2022-08-30T11:58:53Z</time>
      </trkpt>
      <trkpt lat="43.36084" lon="-1.46671">
        <ele>145</ele>
        <time>2022-08-30T11:58:54Z</time>
      </trkpt>
      <trkpt lat="43.36088" lon="-1.46672">
        <ele>145.3</ele>
        <time>2022-08-30T11:58:55Z</time>
      </trkpt>
      <trkpt lat="43.36092" lon="-1.46672">
        <ele>145.6</ele>
        <time>2022-08-30T11:58:56Z</time>
      </trkpt>
      <trkpt lat="43.36097" lon="-1.46672">
        <ele>145.9</ele>
        <time>2022-08-30T11:58:57Z</time>
      </trkpt>
      <trkpt lat="43.36102" lon="-1.46673">
        <ele>146.4</ele>
        <time>2022-08-30T11:58:58Z</time>
      </trkpt>
      <trkpt lat="43.36106" lon="-1.46673">
        <ele>146.8</ele>
        <time>2022-08-30T11:58:59Z</time>
      </trkpt>
      <trkpt lat="43.36111" lon="-1.46674">
        <ele>147.4</ele>
        <time>2022-08-30T11:59:00Z</time>
      </trkpt>
      <trkpt lat="43.36115" lon="-1.46675">
        <ele>147.9</ele>
        <time>2022-08-30T11:59:01Z</time>
      </trkpt>
      <trkpt lat="43.36119" lon="-1.46675">
        <ele>148.4</ele>
        <time>2022-08-30T11:59:02Z</time>
      </trkpt>
      <trkpt lat="43.36124" lon="-1.46675">
        <ele>149</ele>
        <time>2022-08-30T11:59:03Z</time>
      </trkpt>
      <trkpt lat="43.36128" lon="-1.46675">
        <ele>149.5</ele>
        <time>2022-08-30T11:59:04Z</time>
      </trkpt>
      <trkpt lat="43.36132" lon="-1.46675">
        <ele>150.1</ele>
        <time>2022-08-30T11:59:05Z</time>
      </trkpt>
      <trkpt lat="43.36136" lon="-1.46675">
        <ele>150.6</ele>
        <time>2022-08-30T11:59:06Z</time>
      </trkpt>
      <trkpt lat="43.36141" lon="-1.46675">
        <ele>151.2</ele>
        <time>2022-08-30T11:59:07Z</time>
      </trkpt>
      <trkpt lat="43.36145" lon="-1.46675">
        <ele>151.6</ele>
        <time>2022-08-30T11:59:08Z</time>
      </trkpt>
      <trkpt lat="43.36149" lon="-1.46675">
        <ele>152.1</ele>
        <time>2022-08-30T11:59:09Z</time>
      </trkpt>
      <trkpt lat="43.36152" lon="-1.46676">
        <ele>152.4</ele>
        <time>2022-08-30T11:59:10Z</time>
      </trkpt>
      <trkpt lat="43.36156" lon="-1.46676">
        <ele>152.7</ele>
        <time>2022-08-30T11:59:11Z</time>
      </trkpt>
      <trkpt lat="43.3616" lon="-1.46677">
        <ele>153</ele>
        <time>2022-08-30T11:59:12Z</time>
      </trkpt>
      <trkpt lat="43.36163" lon="-1.46678">
        <ele>153.2</ele>
        <time>2022-08-30T11:59:13Z</time>
      </trkpt>
      <trkpt lat="43.36167" lon="-1.46679">
        <ele>153.4</ele>
        <time>2022-08-30T11:59:14Z</time>
      </trkpt>
      <trkpt lat="43.3617" lon="-1.4668">
        <ele>153.5</ele>
        <time>2022-08-30T11:59:15Z</time>
      </trkpt>
      <trkpt lat="43.36174" lon="-1.46681">
        <ele>153.6</ele>
        <time>2022-08-30T11:59:16Z</time>
      </trkpt>
      <trkpt lat="43.36177" lon="-1.46683">
        <ele>153.6</ele>
        <time>2022-08-30T11:59:17Z</time>
      </trkpt>
      <trkpt lat="43.3618" lon="-1.46684">
        <ele>153.3</ele>
        <time>2022-08-30T11:59:18Z</time>
      </trkpt>
      <trkpt lat="43.36183" lon="-1.46686">
        <ele>153.1</ele>
        <time>2022-08-30T11:59:19Z</time>
      </trkpt>
      <trkpt lat="43.36186" lon="-1.46689">
        <ele>152.8</ele>
        <time>2022-08-30T11:59:20Z</time>
      </trkpt>
      <trkpt lat="43.3619" lon="-1.46692">
        <ele>152.4</ele>
        <time>2022-08-30T11:59:21Z</time>
      </trkpt>
      <trkpt lat="43.36195" lon="-1.46696">
        <ele>152</ele>
        <time>2022-08-30T11:59:22Z</time>
      </trkpt>
      <trkpt lat="43.362" lon="-1.467">
        <ele>151.5</ele>
        <time>2022-08-30T11:59:23Z</time>
      </trkpt>
      <trkpt lat="43.36205" lon="-1.46703">
        <ele>150.9</ele>
        <time>2022-08-30T11:59:24Z</time>
      </trkpt>
      <trkpt lat="43.36211" lon="-1.46707">
        <ele>150.1</ele>
        <time>2022-08-30T11:59:25Z</time>
      </trkpt>
      <trkpt lat="43.36217" lon="-1.46712">
        <ele>149.3</ele>
        <time>2022-08-30T11:59:26Z</time>
      </trkpt>
      <trkpt lat="43.36224" lon="-1.46716">
        <ele>148.5</ele>
        <time>2022-08-30T11:59:27Z</time>
      </trkpt>
      <trkpt lat="43.36231" lon="-1.4672">
        <ele>147.6</ele>
        <time>2022-08-30T11:59:28Z</time>
      </trkpt>
      <trkpt lat="43.36238" lon="-1.46725">
        <ele>146.6</ele>
        <time>2022-08-30T11:59:29Z</time>
      </trkpt>
      <trkpt lat="43.36246" lon="-1.46731">
        <ele>145.6</ele>
        <time>2022-08-30T11:59:30Z</time>
      </trkpt>
      <trkpt lat="43.36254" lon="-1.46737">
        <ele>144.4</ele>
        <time>2022-08-30T11:59:31Z</time>
      </trkpt>
      <trkpt lat="43.36262" lon="-1.46743">
        <ele>143.2</ele>
        <time>2022-08-30T11:59:32Z</time>
      </trkpt>
      <trkpt lat="43.36271" lon="-1.4675">
        <ele>142.1</ele>
        <time>2022-08-30T11:59:33Z</time>
      </trkpt>
      <trkpt lat="43.3628" lon="-1.46756">
        <ele>140.9</ele>
        <time>2022-08-30T11:59:34Z</time>
      </trkpt>
      <trkpt lat="43.36289" lon="-1.46762">
        <ele>139.7</ele>
        <time>2022-08-30T11:59:35Z</time>
      </trkpt>
      <trkpt lat="43.36299" lon="-1.46768">
        <ele>138.5</ele>
        <time>2022-08-30T11:59:36Z</time>
      </trkpt>
      <trkpt lat="43.36309" lon="-1.46774">
        <ele>137.5</ele>
        <time>2022-08-30T11:59:37Z</time>
      </trkpt>
      <trkpt lat="43.36318" lon="-1.46778">
        <ele>136.5</ele>
        <time>2022-08-30T11:59:38Z</time>
      </trkpt>
      <trkpt lat="43.36326" lon="-1.46784">
        <ele>135.5</ele>
        <time>2022-08-30T11:59:39Z</time>
      </trkpt>
      <trkpt lat="43.36334" lon="-1.46789">
        <ele>134.7</ele>
        <time>2022-08-30T11:59:40Z</time>
      </trkpt>
      <trkpt lat="43.36341" lon="-1.46793">
        <ele>134</ele>
        <time>2022-08-30T11:59:41Z</time>
      </trkpt>
      <trkpt lat="43.36347" lon="-1.46797">
        <ele>133.4</ele>
        <time>2022-08-30T11:59:42Z</time>
      </trkpt>
      <trkpt lat="43.36352" lon="-1.46801">
        <ele>132.8</ele>
        <time>2022-08-30T11:59:43Z</time>
      </trkpt>
      <trkpt lat="43.36358" lon="-1.46805">
        <ele>132.3</ele>
        <time>2022-08-30T11:59:44Z</time>
      </trkpt>
      <trkpt lat="43.36362" lon="-1.4681">
        <ele>132.2</ele>
        <time>2022-08-30T11:59:45Z</time>
      </trkpt>
      <trkpt lat="43.36366" lon="-1.46815">
        <ele>132</ele>
        <time>2022-08-30T11:59:46Z</time>
      </trkpt>
      <trkpt lat="43.36371" lon="-1.46818">
        <ele>131.7</ele>
        <time>2022-08-30T11:59:47Z</time>
      </trkpt>
      <trkpt lat="43.36375" lon="-1.46823">
        <ele>131.6</ele>
        <time>2022-08-30T11:59:48Z</time>
      </trkpt>
      <trkpt lat="43.36378" lon="-1.46829">
        <ele>131.3</ele>
        <time>2022-08-30T11:59:49Z</time>
      </trkpt>
      <trkpt lat="43.36381" lon="-1.46834">
        <ele>131.1</ele>
        <time>2022-08-30T11:59:50Z</time>
      </trkpt>
      <trkpt lat="43.36382" lon="-1.4684">
        <ele>130.9</ele>
        <time>2022-08-30T11:59:51Z</time>
      </trkpt>
      <trkpt lat="43.36385" lon="-1.46847">
        <ele>129.7</ele>
        <time>2022-08-30T11:59:52Z</time>
      </trkpt>
      <trkpt lat="43.36388" lon="-1.46853">
        <ele>129.7</ele>
        <time>2022-08-30T11:59:53Z</time>
      </trkpt>
      <trkpt lat="43.36392" lon="-1.46858">
        <ele>129.4</ele>
        <time>2022-08-30T11:59:54Z</time>
      </trkpt>
      <trkpt lat="43.36397" lon="-1.46862">
        <ele>129.2</ele>
        <time>2022-08-30T11:59:55Z</time>
      </trkpt>
      <trkpt lat="43.36403" lon="-1.46865">
        <ele>129</ele>
        <time>2022-08-30T11:59:56Z</time>
      </trkpt>
      <trkpt lat="43.36408" lon="-1.46868">
        <ele>128.7</ele>
        <time>2022-08-30T11:59:57Z</time>
      </trkpt>
      <trkpt lat="43.36414" lon="-1.4687">
        <ele>128.3</ele>
        <time>2022-08-30T11:59:58Z</time>
      </trkpt>
      <trkpt lat="43.3642" lon="-1.46872">
        <ele>127.8</ele>
        <time>2022-08-30T11:59:59Z</time>
      </trkpt>
      <trkpt lat="43.36426" lon="-1.46873">
        <ele>127.2</ele>
        <time>2022-08-30T12:00:00Z</time>
      </trkpt>
      <trkpt lat="43.36433" lon="-1.46873">
        <ele>126.4</ele>
        <time>2022-08-30T12:00:01Z</time>
      </trkpt>
      <trkpt lat="43.3644" lon="-1.46873">
        <ele>125.6</ele>
        <time>2022-08-30T12:00:02Z</time>
      </trkpt>
      <trkpt lat="43.36449" lon="-1.46874">
        <ele>124.5</ele>
        <time>2022-08-30T12:00:03Z</time>
      </trkpt>
      <trkpt lat="43.36457" lon="-1.46874">
        <ele>123.4</ele>
        <time>2022-08-30T12:00:04Z</time>
      </trkpt>
      <trkpt lat="43.36467" lon="-1.46875">
        <ele>122</ele>
        <time>2022-08-30T12:00:05Z</time>
      </trkpt>
      <trkpt lat="43.36477" lon="-1.46876">
        <ele>120.6</ele>
        <time>2022-08-30T12:00:06Z</time>
      </trkpt>
      <trkpt lat="43.36487" lon="-1.46877">
        <ele>119.1</ele>
        <time>2022-08-30T12:00:07Z</time>
      </trkpt>
      <trkpt lat="43.36498" lon="-1.46878">
        <ele>117.5</ele>
        <time>2022-08-30T12:00:08Z</time>
      </trkpt>
      <trkpt lat="43.36509" lon="-1.46878">
        <ele>115.7</ele>
        <time>2022-08-30T12:00:09Z</time>
      </trkpt>
      <trkpt lat="43.36521" lon="-1.46878">
        <ele>114</ele>
        <time>2022-08-30T12:00:10Z</time>
      </trkpt>
      <trkpt lat="43.36533" lon="-1.46879">
        <ele>112.5</ele>
        <time>2022-08-30T12:00:11Z</time>
      </trkpt>
      <trkpt lat="43.36545" lon="-1.46881">
        <ele>111.1</ele>
        <time>2022-08-30T12:00:12Z</time>
      </trkpt>
      <trkpt lat="43.36557" lon="-1.46884">
        <ele>110</ele>
        <time>2022-08-30T12:00:13Z</time>
      </trkpt>
      <trkpt lat="43.36569" lon="-1.46889">
        <ele>109.1</ele>
        <time>2022-08-30T12:00:14Z</time>
      </trkpt>
      <trkpt lat="43.3658" lon="-1.46896">
        <ele>108.5</ele>
        <time>2022-08-30T12:00:15Z</time>
      </trkpt>
      <trkpt lat="43.36589" lon="-1.46904">
        <ele>108.1</ele>
        <time>2022-08-30T12:00:16Z</time>
      </trkpt>
      <trkpt lat="43.36598" lon="-1.46913">
        <ele>107.8</ele>
        <time>2022-08-30T12:00:17Z</time>
      </trkpt>
      <trkpt lat="43.36606" lon="-1.46923">
        <ele>107.7</ele>
        <time>2022-08-30T12:00:18Z</time>
      </trkpt>
      <trkpt lat="43.36613" lon="-1.46932">
        <ele>107.7</ele>
        <time>2022-08-30T12:00:19Z</time>
      </trkpt>
      <trkpt lat="43.3662" lon="-1.4694">
        <ele>107.7</ele>
        <time>2022-08-30T12:00:20Z</time>
      </trkpt>
      <trkpt lat="43.36626" lon="-1.46947">
        <ele>107.8</ele>
        <time>2022-08-30T12:00:21Z</time>
      </trkpt>
      <trkpt lat="43.36632" lon="-1.46954">
        <ele>108</ele>
        <time>2022-08-30T12:00:22Z</time>
      </trkpt>
      <trkpt lat="43.36637" lon="-1.46961">
        <ele>108.3</ele>
        <time>2022-08-30T12:00:23Z</time>
      </trkpt>
      <trkpt lat="43.36642" lon="-1.46966">
        <ele>108.6</ele>
        <time>2022-08-30T12:00:24Z</time>
      </trkpt>
      <trkpt lat="43.36647" lon="-1.46972">
        <ele>108.9</ele>
        <time>2022-08-30T12:00:25Z</time>
      </trkpt>
      <trkpt lat="43.36651" lon="-1.46977">
        <ele>109.3</ele>
        <time>2022-08-30T12:00:26Z</time>
      </trkpt>
      <trkpt lat="43.36656" lon="-1.46982">
        <ele>109.6</ele>
        <time>2022-08-30T12:00:27Z</time>
      </trkpt>
      <trkpt lat="43.3666" lon="-1.46987">
        <ele>109.9</ele>
        <time>2022-08-30T12:00:28Z</time>
      </trkpt>
      <trkpt lat="43.36665" lon="-1.46992">
        <ele>110.2</ele>
        <time>2022-08-30T12:00:29Z</time>
      </trkpt>
      <trkpt lat="43.36669" lon="-1.46997">
        <ele>110.5</ele>
        <time>2022-08-30T12:00:30Z</time>
      </trkpt>
      <trkpt lat="43.36674" lon="-1.47002">
        <ele>110.8</ele>
        <time>2022-08-30T12:00:31Z</time>
      </trkpt>
      <trkpt lat="43.36678" lon="-1.47007">
        <ele>110.9</ele>
        <time>2022-08-30T12:00:32Z</time>
      </trkpt>
      <trkpt lat="43.36683" lon="-1.47012">
        <ele>111.1</ele>
        <time>2022-08-30T12:00:33Z</time>
      </trkpt>
      <trkpt lat="43.36687" lon="-1.47016">
        <ele>111.2</ele>
        <time>2022-08-30T12:00:34Z</time>
      </trkpt>
      <trkpt lat="43.36691" lon="-1.47021">
        <ele>111.3</ele>
        <time>2022-08-30T12:00:35Z</time>
      </trkpt>
      <trkpt lat="43.36695" lon="-1.47026">
        <ele>111.2</ele>
        <time>2022-08-30T12:00:36Z</time>
      </trkpt>
      <trkpt lat="43.36698" lon="-1.47031">
        <ele>111</ele>
        <time>2022-08-30T12:00:37Z</time>
      </trkpt>
      <trkpt lat="43.36702" lon="-1.47036">
        <ele>110.9</ele>
        <time>2022-08-30T12:00:38Z</time>
      </trkpt>
      <trkpt lat="43.36705" lon="-1.47041">
        <ele>110.7</ele>
        <time>2022-08-30T12:00:39Z</time>
      </trkpt>
      <trkpt lat="43.36709" lon="-1.47047">
        <ele>110.5</ele>
        <time>2022-08-30T12:00:40Z</time>
      </trkpt>
      <trkpt lat="43.36713" lon="-1.47052">
        <ele>110.2</ele>
        <time>2022-08-30T12:00:41Z</time>
      </trkpt>
      <trkpt lat="43.36717" lon="-1.47058">
        <ele>110</ele>
        <time>2022-08-30T12:00:42Z</time>
      </trkpt>
      <trkpt lat="43.36721" lon="-1.47064">
        <ele>109.8</ele>
        <time>2022-08-30T12:00:43Z</time>
      </trkpt>
      <trkpt lat="43.36725" lon="-1.47069">
        <ele>109.5</ele>
        <time>2022-08-30T12:00:44Z</time>
      </trkpt>
      <trkpt lat="43.36729" lon="-1.47075">
        <ele>109.3</ele>
        <time>2022-08-30T12:00:45Z</time>
      </trkpt>
      <trkpt lat="43.36733" lon="-1.4708">
        <ele>109</ele>
        <time>2022-08-30T12:00:46Z</time>
      </trkpt>
      <trkpt lat="43.36738" lon="-1.47086">
        <ele>108.7</ele>
        <time>2022-08-30T12:00:47Z</time>
      </trkpt>
      <trkpt lat="43.36742" lon="-1.47092">
        <ele>108.5</ele>
        <time>2022-08-30T12:00:48Z</time>
      </trkpt>
      <trkpt lat="43.36746" lon="-1.47098">
        <ele>108.2</ele>
        <time>2022-08-30T12:00:49Z</time>
      </trkpt>
      <trkpt lat="43.3675" lon="-1.47104">
        <ele>108</ele>
        <time>2022-08-30T12:00:50Z</time>
      </trkpt>
      <trkpt lat="43.36755" lon="-1.4711">
        <ele>107.8</ele>
        <time>2022-08-30T12:00:51Z</time>
      </trkpt>
      <trkpt lat="43.36759" lon="-1.47117">
        <ele>107.6</ele>
        <time>2022-08-30T12:00:52Z</time>
      </trkpt>
      <trkpt lat="43.36764" lon="-1.47122">
        <ele>107.5</ele>
        <time>2022-08-30T12:00:53Z</time>
      </trkpt>
      <trkpt lat="43.36768" lon="-1.47128">
        <ele>107.5</ele>
        <time>2022-08-30T12:00:54Z</time>
      </trkpt>
      <trkpt lat="43.36773" lon="-1.47133">
        <ele>107.4</ele>
        <time>2022-08-30T12:00:55Z</time>
      </trkpt>
      <trkpt lat="43.36777" lon="-1.47139">
        <ele>107.2</ele>
        <time>2022-08-30T12:00:56Z</time>
      </trkpt>
      <trkpt lat="43.36781" lon="-1.47143">
        <ele>107.1</ele>
        <time>2022-08-30T12:00:57Z</time>
      </trkpt>
      <trkpt lat="43.36785" lon="-1.47147">
        <ele>106.8</ele>
        <time>2022-08-30T12:00:58Z</time>
      </trkpt>
      <trkpt lat="43.3679" lon="-1.47151">
        <ele>106.4</ele>
        <time>2022-08-30T12:00:59Z</time>
      </trkpt>
      <trkpt lat="43.36795" lon="-1.47154">
        <ele>106</ele>
        <time>2022-08-30T12:01:00Z</time>
      </trkpt>
      <trkpt lat="43.36799" lon="-1.47156">
        <ele>105.7</ele>
        <time>2022-08-30T12:01:01Z</time>
      </trkpt>
      <trkpt lat="43.36804" lon="-1.47157">
        <ele>105.2</ele>
        <time>2022-08-30T12:01:02Z</time>
      </trkpt>
      <trkpt lat="43.36809" lon="-1.47159">
        <ele>104.8</ele>
        <time>2022-08-30T12:01:03Z</time>
      </trkpt>
      <trkpt lat="43.36813" lon="-1.47162">
        <ele>104.2</ele>
        <time>2022-08-30T12:01:04Z</time>
      </trkpt>
      <trkpt lat="43.36818" lon="-1.47165">
        <ele>103.7</ele>
        <time>2022-08-30T12:01:05Z</time>
      </trkpt>
      <trkpt lat="43.36822" lon="-1.47167">
        <ele>103.1</ele>
        <time>2022-08-30T12:01:06Z</time>
      </trkpt>
      <trkpt lat="43.36825" lon="-1.47169">
        <ele>102.6</ele>
        <time>2022-08-30T12:01:07Z</time>
      </trkpt>
      <trkpt lat="43.36829" lon="-1.47171">
        <ele>102</ele>
        <time>2022-08-30T12:01:08Z</time>
      </trkpt>
      <trkpt lat="43.36833" lon="-1.47173">
        <ele>101.5</ele>
        <time>2022-08-30T12:01:09Z</time>
      </trkpt>
      <trkpt lat="43.36837" lon="-1.47174">
        <ele>100.8</ele>
        <time>2022-08-30T12:01:10Z</time>
      </trkpt>
      <trkpt lat="43.36842" lon="-1.47176">
        <ele>100.2</ele>
        <time>2022-08-30T12:01:11Z</time>
      </trkpt>
      <trkpt lat="43.36847" lon="-1.47178">
        <ele>99.5</ele>
        <time>2022-08-30T12:01:12Z</time>
      </trkpt>
      <trkpt lat="43.36852" lon="-1.47182">
        <ele>98.9</ele>
        <time>2022-08-30T12:01:13Z</time>
      </trkpt>
      <trkpt lat="43.36858" lon="-1.47186">
        <ele>98.3</ele>
        <time>2022-08-30T12:01:14Z</time>
      </trkpt>
      <trkpt lat="43.36864" lon="-1.47189">
        <ele>97.8</ele>
        <time>2022-08-30T12:01:15Z</time>
      </trkpt>
      <trkpt lat="43.3687" lon="-1.47193">
        <ele>97.4</ele>
        <time>2022-08-30T12:01:16Z</time>
      </trkpt>
      <trkpt lat="43.36876" lon="-1.47196">
        <ele>97.1</ele>
        <time>2022-08-30T12:01:17Z</time>
      </trkpt>
      <trkpt lat="43.36882" lon="-1.47199">
        <ele>96.7</ele>
        <time>2022-08-30T12:01:18Z</time>
      </trkpt>
      <trkpt lat="43.36888" lon="-1.47202">
        <ele>96.5</ele>
        <time>2022-08-30T12:01:19Z</time>
      </trkpt>
      <trkpt lat="43.36894" lon="-1.47205">
        <ele>96.2</ele>
        <time>2022-08-30T12:01:20Z</time>
      </trkpt>
      <trkpt lat="43.369" lon="-1.47208">
        <ele>96</ele>
        <time>2022-08-30T12:01:21Z</time>
      </trkpt>
      <trkpt lat="43.36907" lon="-1.47211">
        <ele>95.7</ele>
        <time>2022-08-30T12:01:22Z</time>
      </trkpt>
      <trkpt lat="43.36913" lon="-1.47212">
        <ele>95.5</ele>
        <time>2022-08-30T12:01:23Z</time>
      </trkpt>
      <trkpt lat="43.36919" lon="-1.47213">
        <ele>95.2</ele>
        <time>2022-08-30T12:01:24Z</time>
      </trkpt>
      <trkpt lat="43.36924" lon="-1.47215">
        <ele>95</ele>
        <time>2022-08-30T12:01:25Z</time>
      </trkpt>
      <trkpt lat="43.36929" lon="-1.47219">
        <ele>94.8</ele>
        <time>2022-08-30T12:01:26Z</time>
      </trkpt>
      <trkpt lat="43.36934" lon="-1.47223">
        <ele>94.6</ele>
        <time>2022-08-30T12:01:27Z</time>
      </trkpt>
      <trkpt lat="43.36939" lon="-1.47226">
        <ele>94.3</ele>
        <time>2022-08-30T12:01:28Z</time>
      </trkpt>
      <trkpt lat="43.36945" lon="-1.4723">
        <ele>94</ele>
        <time>2022-08-30T12:01:29Z</time>
      </trkpt>
      <trkpt lat="43.3695" lon="-1.47234">
        <ele>93.7</ele>
        <time>2022-08-30T12:01:30Z</time>
      </trkpt>
      <trkpt lat="43.36956" lon="-1.47239">
        <ele>93.3</ele>
        <time>2022-08-30T12:01:31Z</time>
      </trkpt>
      <trkpt lat="43.36961" lon="-1.47243">
        <ele>92.9</ele>
        <time>2022-08-30T12:01:32Z</time>
      </trkpt>
      <trkpt lat="43.36967" lon="-1.47247">
        <ele>92.5</ele>
        <time>2022-08-30T12:01:33Z</time>
      </trkpt>
      <trkpt lat="43.36972" lon="-1.47252">
        <ele>92</ele>
        <time>2022-08-30T12:01:34Z</time>
      </trkpt>
      <trkpt lat="43.36977" lon="-1.47258">
        <ele>91.5</ele>
        <time>2022-08-30T12:01:35Z</time>
      </trkpt>
      <trkpt lat="43.36983" lon="-1.47264">
        <ele>91.1</ele>
        <time>2022-08-30T12:01:36Z</time>
      </trkpt>
      <trkpt lat="43.36988" lon="-1.47271">
        <ele>90.6</ele>
        <time>2022-08-30T12:01:37Z</time>
      </trkpt>
      <trkpt lat="43.36994" lon="-1.47277">
        <ele>90.2</ele>
        <time>2022-08-30T12:01:38Z</time>
      </trkpt>
      <trkpt lat="43.36999" lon="-1.47284">
        <ele>89.9</ele>
        <time>2022-08-30T12:01:39Z</time>
      </trkpt>
      <trkpt lat="43.37004" lon="-1.47291">
        <ele>89.7</ele>
        <time>2022-08-30T12:01:40Z</time>
      </trkpt>
      <trkpt lat="43.3701" lon="-1.47297">
        <ele>89.6</ele>
        <time>2022-08-30T12:01:41Z</time>
      </trkpt>
      <trkpt lat="43.37016" lon="-1.47302">
        <ele>89.7</ele>
        <time>2022-08-30T12:01:42Z</time>
      </trkpt>
      <trkpt lat="43.37022" lon="-1.47308">
        <ele>90</ele>
        <time>2022-08-30T12:01:43Z</time>
      </trkpt>
      <trkpt lat="43.37027" lon="-1.47313">
        <ele>90.4</ele>
        <time>2022-08-30T12:01:44Z</time>
      </trkpt>
      <trkpt lat="43.37032" lon="-1.47318">
        <ele>90.8</ele>
        <time>2022-08-30T12:01:45Z</time>
      </trkpt>
      <trkpt lat="43.37036" lon="-1.47323">
        <ele>91.4</ele>
        <time>2022-08-30T12:01:46Z</time>
      </trkpt>
      <trkpt lat="43.37041" lon="-1.47328">
        <ele>92</ele>
        <time>2022-08-30T12:01:47Z</time>
      </trkpt>
      <trkpt lat="43.37046" lon="-1.47333">
        <ele>92.7</ele>
        <time>2022-08-30T12:01:48Z</time>
      </trkpt>
      <trkpt lat="43.3705" lon="-1.47338">
        <ele>93.5</ele>
        <time>2022-08-30T12:01:49Z</time>
      </trkpt>
      <trkpt lat="43.37054" lon="-1.47342">
        <ele>94.2</ele>
        <time>2022-08-30T12:01:50Z</time>
      </trkpt>
      <trkpt lat="43.37059" lon="-1.47346">
        <ele>95</ele>
        <time>2022-08-30T12:01:51Z</time>
      </trkpt>
      <trkpt lat="43.37062" lon="-1.47349">
        <ele>95.6</ele>
        <time>2022-08-30T12:01:52Z</time>
      </trkpt>
      <trkpt lat="43.37065" lon="-1.47353">
        <ele>96.2</ele>
        <time>2022-08-30T12:01:53Z</time>
      </trkpt>
      <trkpt lat="43.37068" lon="-1.47357">
        <ele>96.7</ele>
        <time>2022-08-30T12:01:54Z</time>
      </trkpt>
      <trkpt lat="43.37071" lon="-1.47362">
        <ele>97.2</ele>
        <time>2022-08-30T12:01:55Z</time>
      </trkpt>
      <trkpt lat="43.37075" lon="-1.47366">
        <ele>97.6</ele>
        <time>2022-08-30T12:01:56Z</time>
      </trkpt>
      <trkpt lat="43.37078" lon="-1.4737">
        <ele>98.1</ele>
        <time>2022-08-30T12:01:57Z</time>
      </trkpt>
      <trkpt lat="43.37081" lon="-1.47374">
        <ele>98.5</ele>
        <time>2022-08-30T12:01:58Z</time>
      </trkpt>
      <trkpt lat="43.37085" lon="-1.47378">
        <ele>98.8</ele>
        <time>2022-08-30T12:01:59Z</time>
      </trkpt>
      <trkpt lat="43.37088" lon="-1.47381">
        <ele>99.1</ele>
        <time>2022-08-30T12:02:00Z</time>
      </trkpt>
      <trkpt lat="43.37092" lon="-1.47385">
        <ele>99.4</ele>
        <time>2022-08-30T12:02:01Z</time>
      </trkpt>
      <trkpt lat="43.37095" lon="-1.47389">
        <ele>99.7</ele>
        <time>2022-08-30T12:02:02Z</time>
      </trkpt>
      <trkpt lat="43.37098" lon="-1.47393">
        <ele>99.9</ele>
        <time>2022-08-30T12:02:03Z</time>
      </trkpt>
      <trkpt lat="43.37101" lon="-1.47396">
        <ele>100.1</ele>
        <time>2022-08-30T12:02:04Z</time>
      </trkpt>
      <trkpt lat="43.37105" lon="-1.47399">
        <ele>100.2</ele>
        <time>2022-08-30T12:02:05Z</time>
      </trkpt>
      <trkpt lat="43.37108" lon="-1.47402">
        <ele>100.3</ele>
        <time>2022-08-30T12:02:06Z</time>
      </trkpt>
      <trkpt lat="43.37112" lon="-1.47406">
        <ele>100.3</ele>
        <time>2022-08-30T12:02:07Z</time>
      </trkpt>
      <trkpt lat="43.37115" lon="-1.47409">
        <ele>100.3</ele>
        <time>2022-08-30T12:02:08Z</time>
      </trkpt>
      <trkpt lat="43.37119" lon="-1.47413">
        <ele>100.2</ele>
        <time>2022-08-30T12:02:09Z</time>
      </trkpt>
      <trkpt lat="43.37123" lon="-1.47417">
        <ele>100.1</ele>
        <time>2022-08-30T12:02:10Z</time>
      </trkpt>
      <trkpt lat="43.37127" lon="-1.4742">
        <ele>100</ele>
        <time>2022-08-30T12:02:11Z</time>
      </trkpt>
      <trkpt lat="43.3713" lon="-1.47424">
        <ele>99.8</ele>
        <time>2022-08-30T12:02:12Z</time>
      </trkpt>
      <trkpt lat="43.37134" lon="-1.47428">
        <ele>99.6</ele>
        <time>2022-08-30T12:02:13Z</time>
      </trkpt>
      <trkpt lat="43.37138" lon="-1.47432">
        <ele>99.3</ele>
        <time>2022-08-30T12:02:14Z</time>
      </trkpt>
      <trkpt lat="43.37142" lon="-1.47436">
        <ele>99</ele>
        <time>2022-08-30T12:02:15Z</time>
      </trkpt>
      <trkpt lat="43.37147" lon="-1.4744">
        <ele>98.8</ele>
        <time>2022-08-30T12:02:16Z</time>
      </trkpt>
      <trkpt lat="43.37152" lon="-1.47445">
        <ele>98.5</ele>
        <time>2022-08-30T12:02:17Z</time>
      </trkpt>
      <trkpt lat="43.37156" lon="-1.4745">
        <ele>98.3</ele>
        <time>2022-08-30T12:02:18Z</time>
      </trkpt>
      <trkpt lat="43.37161" lon="-1.47455">
        <ele>98.1</ele>
        <time>2022-08-30T12:02:19Z</time>
      </trkpt>
      <trkpt lat="43.37165" lon="-1.47461">
        <ele>97.9</ele>
        <time>2022-08-30T12:02:20Z</time>
      </trkpt>
      <trkpt lat="43.37168" lon="-1.47467">
        <ele>97.7</ele>
        <time>2022-08-30T12:02:21Z</time>
      </trkpt>
      <trkpt lat="43.3717" lon="-1.47474">
        <ele>97.3</ele>
        <time>2022-08-30T12:02:22Z</time>
      </trkpt>
      <trkpt lat="43.37171" lon="-1.47483">
        <ele>96.9</ele>
        <time>2022-08-30T12:02:23Z</time>
      </trkpt>
      <trkpt lat="43.37172" lon="-1.47491">
        <ele>96.3</ele>
        <time>2022-08-30T12:02:24Z</time>
      </trkpt>
      <trkpt lat="43.37171" lon="-1.47501">
        <ele>95.7</ele>
        <time>2022-08-30T12:02:25Z</time>
      </trkpt>
      <trkpt lat="43.37171" lon="-1.4751">
        <ele>95.1</ele>
        <time>2022-08-30T12:02:26Z</time>
      </trkpt>
      <trkpt lat="43.37169" lon="-1.47519">
        <ele>94.4</ele>
        <time>2022-08-30T12:02:27Z</time>
      </trkpt>
      <trkpt lat="43.37167" lon="-1.47529">
        <ele>93.7</ele>
        <time>2022-08-30T12:02:28Z</time>
      </trkpt>
      <trkpt lat="43.37166" lon="-1.47538">
        <ele>93</ele>
        <time>2022-08-30T12:02:29Z</time>
      </trkpt>
      <trkpt lat="43.37164" lon="-1.47547">
        <ele>92.3</ele>
        <time>2022-08-30T12:02:30Z</time>
      </trkpt>
      <trkpt lat="43.37163" lon="-1.47556">
        <ele>91.6</ele>
        <time>2022-08-30T12:02:31Z</time>
      </trkpt>
      <trkpt lat="43.37163" lon="-1.47563">
        <ele>91</ele>
        <time>2022-08-30T12:02:32Z</time>
      </trkpt>
      <trkpt lat="43.37165" lon="-1.47569">
        <ele>90.4</ele>
        <time>2022-08-30T12:02:33Z</time>
      </trkpt>
      <trkpt lat="43.37169" lon="-1.47574">
        <ele>89.7</ele>
        <time>2022-08-30T12:02:34Z</time>
      </trkpt>
      <trkpt lat="43.37174" lon="-1.47577">
        <ele>88.8</ele>
        <time>2022-08-30T12:02:35Z</time>
      </trkpt>
      <trkpt lat="43.37181" lon="-1.47579">
        <ele>87.6</ele>
        <time>2022-08-30T12:02:36Z</time>
      </trkpt>
      <trkpt lat="43.37188" lon="-1.47579">
        <ele>86.3</ele>
        <time>2022-08-30T12:02:37Z</time>
      </trkpt>
      <trkpt lat="43.37196" lon="-1.4758">
        <ele>84.7</ele>
        <time>2022-08-30T12:02:38Z</time>
      </trkpt>
      <trkpt lat="43.37203" lon="-1.47581">
        <ele>83.2</ele>
        <time>2022-08-30T12:02:39Z</time>
      </trkpt>
      <trkpt lat="43.37212" lon="-1.47581">
        <ele>81.5</ele>
        <time>2022-08-30T12:02:40Z</time>
      </trkpt>
      <trkpt lat="43.3722" lon="-1.47581">
        <ele>79.9</ele>
        <time>2022-08-30T12:02:41Z</time>
      </trkpt>
      <trkpt lat="43.37229" lon="-1.4758">
        <ele>78.2</ele>
        <time>2022-08-30T12:02:42Z</time>
      </trkpt>
      <trkpt lat="43.37238" lon="-1.47579">
        <ele>76.6</ele>
        <time>2022-08-30T12:02:43Z</time>
      </trkpt>
      <trkpt lat="43.37247" lon="-1.47579">
        <ele>75.2</ele>
        <time>2022-08-30T12:02:44Z</time>
      </trkpt>
      <trkpt lat="43.37255" lon="-1.47578">
        <ele>74</ele>
        <time>2022-08-30T12:02:45Z</time>
      </trkpt>
      <trkpt lat="43.37263" lon="-1.47576">
        <ele>73.2</ele>
        <time>2022-08-30T12:02:46Z</time>
      </trkpt>
      <trkpt lat="43.3727" lon="-1.47572">
        <ele>72.6</ele>
        <time>2022-08-30T12:02:47Z</time>
      </trkpt>
      <trkpt lat="43.37276" lon="-1.47566">
        <ele>72.2</ele>
        <time>2022-08-30T12:02:48Z</time>
      </trkpt>
      <trkpt lat="43.3728" lon="-1.47558">
        <ele>72</ele>
        <time>2022-08-30T12:02:49Z</time>
      </trkpt>
      <trkpt lat="43.37282" lon="-1.47548">
        <ele>71.9</ele>
        <time>2022-08-30T12:02:50Z</time>
      </trkpt>
      <trkpt lat="43.37282" lon="-1.47539">
        <ele>71.9</ele>
        <time>2022-08-30T12:02:51Z</time>
      </trkpt>
      <trkpt lat="43.37281" lon="-1.47531">
        <ele>71.8</ele>
        <time>2022-08-30T12:02:52Z</time>
      </trkpt>
      <trkpt lat="43.37281" lon="-1.47524">
        <ele>71.7</ele>
        <time>2022-08-30T12:02:53Z</time>
      </trkpt>
      <trkpt lat="43.37282" lon="-1.47517">
        <ele>71.4</ele>
        <time>2022-08-30T12:02:54Z</time>
      </trkpt>
      <trkpt lat="43.37285" lon="-1.47511">
        <ele>71.2</ele>
        <time>2022-08-30T12:02:55Z</time>
      </trkpt>
      <trkpt lat="43.37289" lon="-1.47508">
        <ele>70.9</ele>
        <time>2022-08-30T12:02:56Z</time>
      </trkpt>
      <trkpt lat="43.37293" lon="-1.47508">
        <ele>70.6</ele>
        <time>2022-08-30T12:02:57Z</time>
      </trkpt>
      <trkpt lat="43.37297" lon="-1.47511">
        <ele>70.3</ele>
        <time>2022-08-30T12:02:58Z</time>
      </trkpt>
      <trkpt lat="43.373" lon="-1.47517">
        <ele>69.8</ele>
        <time>2022-08-30T12:02:59Z</time>
      </trkpt>
      <trkpt lat="43.37301" lon="-1.47524">
        <ele>69.2</ele>
        <time>2022-08-30T12:03:00Z</time>
      </trkpt>
      <trkpt lat="43.37303" lon="-1.47531">
        <ele>68.6</ele>
        <time>2022-08-30T12:03:01Z</time>
      </trkpt>
      <trkpt lat="43.37305" lon="-1.47539">
        <ele>67.8</ele>
        <time>2022-08-30T12:03:02Z</time>
      </trkpt>
      <trkpt lat="43.37307" lon="-1.47547">
        <ele>66.9</ele>
        <time>2022-08-30T12:03:03Z</time>
      </trkpt>
      <trkpt lat="43.37309" lon="-1.47555">
        <ele>66.1</ele>
        <time>2022-08-30T12:03:04Z</time>
      </trkpt>
      <trkpt lat="43.37312" lon="-1.47563">
        <ele>65.3</ele>
        <time>2022-08-30T12:03:05Z</time>
      </trkpt>
      <trkpt lat="43.37315" lon="-1.4757">
        <ele>64.5</ele>
        <time>2022-08-30T12:03:06Z</time>
      </trkpt>
      <trkpt lat="43.37319" lon="-1.47577">
        <ele>63.6</ele>
        <time>2022-08-30T12:03:07Z</time>
      </trkpt>
      <trkpt lat="43.37323" lon="-1.47585">
        <ele>62.8</ele>
        <time>2022-08-30T12:03:08Z</time>
      </trkpt>
      <trkpt lat="43.37327" lon="-1.47592">
        <ele>62</ele>
        <time>2022-08-30T12:03:09Z</time>
      </trkpt>
      <trkpt lat="43.37332" lon="-1.47599">
        <ele>61.2</ele>
        <time>2022-08-30T12:03:10Z</time>
      </trkpt>
      <trkpt lat="43.37337" lon="-1.47606">
        <ele>60.4</ele>
        <time>2022-08-30T12:03:11Z</time>
      </trkpt>
      <trkpt lat="43.37343" lon="-1.47613">
        <ele>59.5</ele>
        <time>2022-08-30T12:03:12Z</time>
      </trkpt>
      <trkpt lat="43.37348" lon="-1.47621">
        <ele>58.5</ele>
        <time>2022-08-30T12:03:13Z</time>
      </trkpt>
      <trkpt lat="43.37354" lon="-1.4763">
        <ele>57.6</ele>
        <time>2022-08-30T12:03:14Z</time>
      </trkpt>
      <trkpt lat="43.37361" lon="-1.4764">
        <ele>56.6</ele>
        <time>2022-08-30T12:03:15Z</time>
      </trkpt>
      <trkpt lat="43.37366" lon="-1.47649">
        <ele>55.8</ele>
        <time>2022-08-30T12:03:16Z</time>
      </trkpt>
      <trkpt lat="43.37372" lon="-1.47658">
        <ele>55</ele>
        <time>2022-08-30T12:03:17Z</time>
      </trkpt>
      <trkpt lat="43.37377" lon="-1.47667">
        <ele>54.3</ele>
        <time>2022-08-30T12:03:18Z</time>
      </trkpt>
      <trkpt lat="43.37383" lon="-1.47674">
        <ele>53.6</ele>
        <time>2022-08-30T12:03:19Z</time>
      </trkpt>
      <trkpt lat="43.37388" lon="-1.4768">
        <ele>53</ele>
        <time>2022-08-30T12:03:20Z</time>
      </trkpt>
      <trkpt lat="43.37394" lon="-1.47686">
        <ele>52.3</ele>
        <time>2022-08-30T12:03:21Z</time>
      </trkpt>
      <trkpt lat="43.37399" lon="-1.47691">
        <ele>51.4</ele>
        <time>2022-08-30T12:03:22Z</time>
      </trkpt>
      <trkpt lat="43.37405" lon="-1.47694">
        <ele>50.5</ele>
        <time>2022-08-30T12:03:23Z</time>
      </trkpt>
      <trkpt lat="43.37411" lon="-1.47695">
        <ele>49.5</ele>
        <time>2022-08-30T12:03:24Z</time>
      </trkpt>
      <trkpt lat="43.37417" lon="-1.47695">
        <ele>48.5</ele>
        <time>2022-08-30T12:03:25Z</time>
      </trkpt>
      <trkpt lat="43.37422" lon="-1.47695">
        <ele>47.6</ele>
        <time>2022-08-30T12:03:26Z</time>
      </trkpt>
      <trkpt lat="43.37426" lon="-1.47697">
        <ele>46.8</ele>
        <time>2022-08-30T12:03:27Z</time>
      </trkpt>
      <trkpt lat="43.37426" lon="-1.47703">
        <ele>46.1</ele>
        <time>2022-08-30T12:03:28Z</time>
      </trkpt>
      <trkpt lat="43.37426" lon="-1.47705">
        <ele>45.8</ele>
        <time>2022-08-30T12:03:29Z</time>
      </trkpt>
      <trkpt lat="43.37425" lon="-1.47709">
        <ele>45.2</ele>
        <time>2022-08-30T12:03:30Z</time>
      </trkpt>
      <trkpt lat="43.37423" lon="-1.47714">
        <ele>44.6</ele>
        <time>2022-08-30T12:03:31Z</time>
      </trkpt>
      <trkpt lat="43.37419" lon="-1.4772">
        <ele>43.8</ele>
        <time>2022-08-30T12:03:32Z</time>
      </trkpt>
      <trkpt lat="43.37416" lon="-1.47726">
        <ele>43.2</ele>
        <time>2022-08-30T12:03:33Z</time>
      </trkpt>
      <trkpt lat="43.37412" lon="-1.47731">
        <ele>42.7</ele>
        <time>2022-08-30T12:03:34Z</time>
      </trkpt>
      <trkpt lat="43.37409" lon="-1.47735">
        <ele>42.2</ele>
        <time>2022-08-30T12:03:35Z</time>
      </trkpt>
      <trkpt lat="43.37407" lon="-1.47739">
        <ele>41.9</ele>
        <time>2022-08-30T12:03:36Z</time>
      </trkpt>
      <trkpt lat="43.37406" lon="-1.47743">
        <ele>41.5</ele>
        <time>2022-08-30T12:03:37Z</time>
      </trkpt>
      <trkpt lat="43.37405" lon="-1.47748">
        <ele>41.1</ele>
        <time>2022-08-30T12:03:38Z</time>
      </trkpt>
      <trkpt lat="43.37405" lon="-1.47749">
        <ele>41</ele>
        <time>2022-08-30T12:03:39Z</time>
      </trkpt>
      <trkpt lat="43.37404" lon="-1.47754">
        <ele>40.7</ele>
        <time>2022-08-30T12:03:40Z</time>
      </trkpt>
      <trkpt lat="43.37404" lon="-1.47755">
        <ele>40.6</ele>
        <time>2022-08-30T12:03:41Z</time>
      </trkpt>
      <trkpt lat="43.37404" lon="-1.47759">
        <ele>40.3</ele>
        <time>2022-08-30T12:03:42Z</time>
      </trkpt>
      <trkpt lat="43.37403" lon="-1.47764">
        <ele>40</ele>
        <time>2022-08-30T12:03:43Z</time>
      </trkpt>
      <trkpt lat="43.37403" lon="-1.47766">
        <ele>39.9</ele>
        <time>2022-08-30T12:03:44Z</time>
      </trkpt>
      <trkpt lat="43.37403" lon="-1.47768">
        <ele>39.7</ele>
        <time>2022-08-30T12:03:45Z</time>
      </trkpt>
      <trkpt lat="43.37403" lon="-1.47771">
        <ele>39.6</ele>
        <time>2022-08-30T12:03:46Z</time>
      </trkpt>
      <trkpt lat="43.37405" lon="-1.47774">
        <ele>39.4</ele>
        <time>2022-08-30T12:03:47Z</time>
      </trkpt>
      <trkpt lat="43.37406" lon="-1.47775">
        <ele>39.4</ele>
        <time>2022-08-30T12:03:48Z</time>
      </trkpt>
      <trkpt lat="43.37409" lon="-1.47778">
        <ele>39.3</ele>
        <time>2022-08-30T12:03:49Z</time>
      </trkpt>
      <trkpt lat="43.37412" lon="-1.47781">
        <ele>39.2</ele>
        <time>2022-08-30T12:03:50Z</time>
      </trkpt>
      <trkpt lat="43.37413" lon="-1.47784">
        <ele>39.2</ele>
        <time>2022-08-30T12:03:51Z</time>
      </trkpt>
      <trkpt lat="43.37415" lon="-1.47788">
        <ele>39.2</ele>
        <time>2022-08-30T12:03:52Z</time>
      </trkpt>
      <trkpt lat="43.37416" lon="-1.47791">
        <ele>39.2</ele>
        <time>2022-08-30T12:03:53Z</time>
      </trkpt>
      <trkpt lat="43.37418" lon="-1.47794">
        <ele>39.2</ele>
        <time>2022-08-30T12:03:54Z</time>
      </trkpt>
      <trkpt lat="43.37419" lon="-1.47798">
        <ele>39.2</ele>
        <time>2022-08-30T12:03:55Z</time>
      </trkpt>
      <trkpt lat="43.37421" lon="-1.47801">
        <ele>39.3</ele>
        <time>2022-08-30T12:03:56Z</time>
      </trkpt>
      <trkpt lat="43.37422" lon="-1.47805">
        <ele>39.3</ele>
        <time>2022-08-30T12:03:57Z</time>
      </trkpt>
      <trkpt lat="43.37425" lon="-1.47808">
        <ele>39.4</ele>
        <time>2022-08-30T12:03:58Z</time>
      </trkpt>
      <trkpt lat="43.37427" lon="-1.47812">
        <ele>39.5</ele>
        <time>2022-08-30T12:03:59Z</time>
      </trkpt>
      <trkpt lat="43.3743" lon="-1.47815">
        <ele>39.5</ele>
        <time>2022-08-30T12:04:00Z</time>
      </trkpt>
      <trkpt lat="43.37433" lon="-1.47818">
        <ele>39.5</ele>
        <time>2022-08-30T12:04:01Z</time>
      </trkpt>
      <trkpt lat="43.37436" lon="-1.47822">
        <ele>39.5</ele>
        <time>2022-08-30T12:04:02Z</time>
      </trkpt>
      <trkpt lat="43.37439" lon="-1.47825">
        <ele>39.5</ele>
        <time>2022-08-30T12:04:03Z</time>
      </trkpt>
      <trkpt lat="43.37442" lon="-1.47829">
        <ele>39.5</ele>
        <time>2022-08-30T12:04:04Z</time>
      </trkpt>
      <trkpt lat="43.37444" lon="-1.47832">
        <ele>39.5</ele>
        <time>2022-08-30T12:04:05Z</time>
      </trkpt>
      <trkpt lat="43.37446" lon="-1.47835">
        <ele>39.6</ele>
        <time>2022-08-30T12:04:06Z</time>
      </trkpt>
      <trkpt lat="43.37448" lon="-1.47838">
        <ele>39.7</ele>
        <time>2022-08-30T12:04:07Z</time>
      </trkpt>
      <trkpt lat="43.37451" lon="-1.47841">
        <ele>39.8</ele>
        <time>2022-08-30T12:04:08Z</time>
      </trkpt>
      <trkpt lat="43.37453" lon="-1.47845">
        <ele>39.9</ele>
        <time>2022-08-30T12:04:09Z</time>
      </trkpt>
      <trkpt lat="43.37454" lon="-1.47848">
        <ele>40</ele>
        <time>2022-08-30T12:04:10Z</time>
      </trkpt>
      <trkpt lat="43.37455" lon="-1.47852">
        <ele>40.2</ele>
        <time>2022-08-30T12:04:11Z</time>
      </trkpt>
      <trkpt lat="43.37456" lon="-1.47856">
        <ele>40.3</ele>
        <time>2022-08-30T12:04:12Z</time>
      </trkpt>
      <trkpt lat="43.37457" lon="-1.47857">
        <ele>40.4</ele>
        <time>2022-08-30T12:04:13Z</time>
      </trkpt>
      <trkpt lat="43.37459" lon="-1.47861">
        <ele>40.5</ele>
        <time>2022-08-30T12:04:14Z</time>
      </trkpt>
      <trkpt lat="43.37459" lon="-1.47862">
        <ele>40.5</ele>
        <time>2022-08-30T12:04:15Z</time>
      </trkpt>
      <trkpt lat="43.37461" lon="-1.47863">
        <ele>40.6</ele>
        <time>2022-08-30T12:04:16Z</time>
      </trkpt>
      <trkpt lat="43.37463" lon="-1.47864">
        <ele>40.6</ele>
        <time>2022-08-30T12:04:17Z</time>
      </trkpt>
      <trkpt lat="43.37464" lon="-1.47864">
        <ele>40.7</ele>
        <time>2022-08-30T12:04:18Z</time>
      </trkpt>
      <trkpt lat="43.37466" lon="-1.47865">
        <ele>40.7</ele>
        <time>2022-08-30T12:04:19Z</time>
      </trkpt>
      <trkpt lat="43.37468" lon="-1.47866">
        <ele>40.5</ele>
        <time>2022-08-30T12:04:20Z</time>
      </trkpt>
      <trkpt lat="43.37469" lon="-1.47866">
        <ele>40.4</ele>
        <time>2022-08-30T12:04:21Z</time>
      </trkpt>
      <trkpt lat="43.37471" lon="-1.47866">
        <ele>40.2</ele>
        <time>2022-08-30T12:04:22Z</time>
      </trkpt>
      <trkpt lat="43.37472" lon="-1.47867">
        <ele>40.1</ele>
        <time>2022-08-30T12:04:23Z</time>
      </trkpt>
      <trkpt lat="43.37474" lon="-1.47867">
        <ele>40.1</ele>
        <time>2022-08-30T12:04:24Z</time>
      </trkpt>
      <trkpt lat="43.37474" lon="-1.47866">
        <ele>40.1</ele>
        <time>2022-08-30T12:04:25Z</time>
      </trkpt>
      <trkpt lat="43.37474" lon="-1.47865">
        <ele>40.2</ele>
        <time>2022-08-30T12:04:26Z</time>
      </trkpt>
      <trkpt lat="43.37474" lon="-1.47863">
        <ele>40.2</ele>
        <time>2022-08-30T12:04:27Z</time>
      </trkpt>
      <trkpt lat="43.37474" lon="-1.47861">
        <ele>40.4</ele>
        <time>2022-08-30T12:04:28Z</time>
      </trkpt>
      <trkpt lat="43.37474" lon="-1.47858">
        <ele>40.7</ele>
        <time>2022-08-30T12:04:29Z</time>
      </trkpt>
      <trkpt lat="43.37475" lon="-1.47854">
        <ele>41.6</ele>
        <time>2022-08-30T12:04:30Z</time>
      </trkpt>
      <trkpt lat="43.37474" lon="-1.47853">
        <ele>41.8</ele>
        <time>2022-08-30T12:04:31Z</time>
      </trkpt>
      <trkpt lat="43.37473" lon="-1.47847">
        <ele>42.2</ele>
        <time>2022-08-30T12:04:32Z</time>
      </trkpt>
      <trkpt lat="43.37473" lon="-1.47845">
        <ele>42.4</ele>
        <time>2022-08-30T12:04:33Z</time>
      </trkpt>
      <trkpt lat="43.37473" lon="-1.4784">
        <ele>42.8</ele>
        <time>2022-08-30T12:04:34Z</time>
      </trkpt>
      <trkpt lat="43.37473" lon="-1.47838">
        <ele>42.9</ele>
        <time>2022-08-30T12:04:35Z</time>
      </trkpt>
      <trkpt lat="43.37473" lon="-1.47834">
        <ele>43.2</ele>
        <time>2022-08-30T12:04:36Z</time>
      </trkpt>
      <trkpt lat="43.37474" lon="-1.47829">
        <ele>43.4</ele>
        <time>2022-08-30T12:04:37Z</time>
      </trkpt>
      <trkpt lat="43.37475" lon="-1.47825">
        <ele>43.7</ele>
        <time>2022-08-30T12:04:38Z</time>
      </trkpt>
      <trkpt lat="43.37475" lon="-1.47821">
        <ele>43.8</ele>
        <time>2022-08-30T12:04:39Z</time>
      </trkpt>
      <trkpt lat="43.37476" lon="-1.47816">
        <ele>43.9</ele>
        <time>2022-08-30T12:04:40Z</time>
      </trkpt>
      <trkpt lat="43.37477" lon="-1.47812">
        <ele>44</ele>
        <time>2022-08-30T12:04:41Z</time>
      </trkpt>
      <trkpt lat="43.37478" lon="-1.47807">
        <ele>44.1</ele>
        <time>2022-08-30T12:04:42Z</time>
      </trkpt>
      <trkpt lat="43.37479" lon="-1.47802">
        <ele>44.1</ele>
        <time>2022-08-30T12:04:43Z</time>
      </trkpt>
      <trkpt lat="43.3748" lon="-1.47796">
        <ele>44.1</ele>
        <time>2022-08-30T12:04:44Z</time>
      </trkpt>
      <trkpt lat="43.37482" lon="-1.47791">
        <ele>44.1</ele>
        <time>2022-08-30T12:04:45Z</time>
      </trkpt>
      <trkpt lat="43.37483" lon="-1.47786">
        <ele>44</ele>
        <time>2022-08-30T12:04:46Z</time>
      </trkpt>
      <trkpt lat="43.37485" lon="-1.47781">
        <ele>44</ele>
        <time>2022-08-30T12:04:47Z</time>
      </trkpt>
      <trkpt lat="43.37488" lon="-1.47776">
        <ele>43.7</ele>
        <time>2022-08-30T12:04:48Z</time>
      </trkpt>
      <trkpt lat="43.37492" lon="-1.4777">
        <ele>43.4</ele>
        <time>2022-08-30T12:04:49Z</time>
      </trkpt>
      <trkpt lat="43.37497" lon="-1.47763">
        <ele>42.9</ele>
        <time>2022-08-30T12:04:50Z</time>
      </trkpt>
      <trkpt lat="43.37503" lon="-1.47756">
        <ele>42.3</ele>
        <time>2022-08-30T12:04:51Z</time>
      </trkpt>
      <trkpt lat="43.37508" lon="-1.47748">
        <ele>41.7</ele>
        <time>2022-08-30T12:04:52Z</time>
      </trkpt>
      <trkpt lat="43.37513" lon="-1.47742">
        <ele>41.1</ele>
        <time>2022-08-30T12:04:53Z</time>
      </trkpt>
      <trkpt lat="43.37518" lon="-1.47735">
        <ele>40.7</ele>
        <time>2022-08-30T12:04:54Z</time>
      </trkpt>
      <trkpt lat="43.37523" lon="-1.47729">
        <ele>40.4</ele>
        <time>2022-08-30T12:04:55Z</time>
      </trkpt>
      <trkpt lat="43.37528" lon="-1.47725">
        <ele>40.2</ele>
        <time>2022-08-30T12:04:56Z</time>
      </trkpt>
      <trkpt lat="43.37533" lon="-1.47721">
        <ele>40.1</ele>
        <time>2022-08-30T12:04:57Z</time>
      </trkpt>
      <trkpt lat="43.37538" lon="-1.47718">
        <ele>40</ele>
        <time>2022-08-30T12:04:58Z</time>
      </trkpt>
      <trkpt lat="43.37543" lon="-1.47714">
        <ele>39.9</ele>
        <time>2022-08-30T12:04:59Z</time>
      </trkpt>
      <trkpt lat="43.37547" lon="-1.4771">
        <ele>39.8</ele>
        <time>2022-08-30T12:05:00Z</time>
      </trkpt>
      <trkpt lat="43.37552" lon="-1.47707">
        <ele>39.7</ele>
        <time>2022-08-30T12:05:01Z</time>
      </trkpt>
      <trkpt lat="43.37556" lon="-1.47703">
        <ele>39.7</ele>
        <time>2022-08-30T12:05:02Z</time>
      </trkpt>
      <trkpt lat="43.37562" lon="-1.477">
        <ele>39.7</ele>
        <time>2022-08-30T12:05:03Z</time>
      </trkpt>
      <trkpt lat="43.37568" lon="-1.47697">
        <ele>39.8</ele>
        <time>2022-08-30T12:05:04Z</time>
      </trkpt>
      <trkpt lat="43.37574" lon="-1.47695">
        <ele>40</ele>
        <time>2022-08-30T12:05:05Z</time>
      </trkpt>
      <trkpt lat="43.37581" lon="-1.47692">
        <ele>40.1</ele>
        <time>2022-08-30T12:05:06Z</time>
      </trkpt>
      <trkpt lat="43.37586" lon="-1.47689">
        <ele>40.3</ele>
        <time>2022-08-30T12:05:07Z</time>
      </trkpt>
      <trkpt lat="43.37592" lon="-1.47685">
        <ele>40.4</ele>
        <time>2022-08-30T12:05:08Z</time>
      </trkpt>
      <trkpt lat="43.37598" lon="-1.47681">
        <ele>40.4</ele>
        <time>2022-08-30T12:05:09Z</time>
      </trkpt>
      <trkpt lat="43.37603" lon="-1.47676">
        <ele>40.3</ele>
        <time>2022-08-30T12:05:10Z</time>
      </trkpt>
      <trkpt lat="43.3761" lon="-1.47672">
        <ele>40.2</ele>
        <time>2022-08-30T12:05:11Z</time>
      </trkpt>
      <trkpt lat="43.37616" lon="-1.47669">
        <ele>40</ele>
        <time>2022-08-30T12:05:12Z</time>
      </trkpt>
      <trkpt lat="43.37623" lon="-1.47667">
        <ele>39.8</ele>
        <time>2022-08-30T12:05:13Z</time>
      </trkpt>
      <trkpt lat="43.37629" lon="-1.47664">
        <ele>39.7</ele>
        <time>2022-08-30T12:05:14Z</time>
      </trkpt>
      <trkpt lat="43.37633" lon="-1.47659">
        <ele>39.6</ele>
        <time>2022-08-30T12:05:15Z</time>
      </trkpt>
      <trkpt lat="43.37637" lon="-1.47655">
        <ele>39.6</ele>
        <time>2022-08-30T12:05:16Z</time>
      </trkpt>
      <trkpt lat="43.3764" lon="-1.47648">
        <ele>39.7</ele>
        <time>2022-08-30T12:05:17Z</time>
      </trkpt>
      <trkpt lat="43.37643" lon="-1.47642">
        <ele>39.9</ele>
        <time>2022-08-30T12:05:18Z</time>
      </trkpt>
      <trkpt lat="43.37644" lon="-1.47635">
        <ele>40.2</ele>
        <time>2022-08-30T12:05:19Z</time>
      </trkpt>
      <trkpt lat="43.37644" lon="-1.4763">
        <ele>40.5</ele>
        <time>2022-08-30T12:05:20Z</time>
      </trkpt>
      <trkpt lat="43.37644" lon="-1.47623">
        <ele>40.9</ele>
        <time>2022-08-30T12:05:21Z</time>
      </trkpt>
      <trkpt lat="43.37645" lon="-1.47616">
        <ele>41.4</ele>
        <time>2022-08-30T12:05:22Z</time>
      </trkpt>
      <trkpt lat="43.37645" lon="-1.47609">
        <ele>41.9</ele>
        <time>2022-08-30T12:05:23Z</time>
      </trkpt>
      <trkpt lat="43.37645" lon="-1.47603">
        <ele>42.3</ele>
        <time>2022-08-30T12:05:24Z</time>
      </trkpt>
      <trkpt lat="43.37645" lon="-1.47597">
        <ele>42.8</ele>
        <time>2022-08-30T12:05:25Z</time>
      </trkpt>
      <trkpt lat="43.37645" lon="-1.47591">
        <ele>43.2</ele>
        <time>2022-08-30T12:05:26Z</time>
      </trkpt>
      <trkpt lat="43.37646" lon="-1.47585">
        <ele>43.7</ele>
        <time>2022-08-30T12:05:27Z</time>
      </trkpt>
      <trkpt lat="43.37648" lon="-1.47578">
        <ele>44.1</ele>
        <time>2022-08-30T12:05:28Z</time>
      </trkpt>
      <trkpt lat="43.3765" lon="-1.47571">
        <ele>44.5</ele>
        <time>2022-08-30T12:05:29Z</time>
      </trkpt>
      <trkpt lat="43.37654" lon="-1.47566">
        <ele>44.9</ele>
        <time>2022-08-30T12:05:30Z</time>
      </trkpt>
      <trkpt lat="43.37659" lon="-1.47562">
        <ele>45.3</ele>
        <time>2022-08-30T12:05:31Z</time>
      </trkpt>
      <trkpt lat="43.37663" lon="-1.47557">
        <ele>45.6</ele>
        <time>2022-08-30T12:05:32Z</time>
      </trkpt>
      <trkpt lat="43.37668" lon="-1.47553">
        <ele>45.9</ele>
        <time>2022-08-30T12:05:33Z</time>
      </trkpt>
      <trkpt lat="43.37673" lon="-1.47548">
        <ele>46.2</ele>
        <time>2022-08-30T12:05:34Z</time>
      </trkpt>
      <trkpt lat="43.37678" lon="-1.47544">
        <ele>46.5</ele>
        <time>2022-08-30T12:05:35Z</time>
      </trkpt>
      <trkpt lat="43.37682" lon="-1.4754">
        <ele>46.7</ele>
        <time>2022-08-30T12:05:36Z</time>
      </trkpt>
      <trkpt lat="43.37686" lon="-1.47537">
        <ele>46.9</ele>
        <time>2022-08-30T12:05:37Z</time>
      </trkpt>
      <trkpt lat="43.3769" lon="-1.47533">
        <ele>47.1</ele>
        <time>2022-08-30T12:05:38Z</time>
      </trkpt>
      <trkpt lat="43.37695" lon="-1.47529">
        <ele>47.2</ele>
        <time>2022-08-30T12:05:39Z</time>
      </trkpt>
      <trkpt lat="43.377" lon="-1.47524">
        <ele>47.4</ele>
        <time>2022-08-30T12:05:40Z</time>
      </trkpt>
      <trkpt lat="43.37705" lon="-1.4752">
        <ele>47.5</ele>
        <time>2022-08-30T12:05:41Z</time>
      </trkpt>
      <trkpt lat="43.3771" lon="-1.47516">
        <ele>47.7</ele>
        <time>2022-08-30T12:05:42Z</time>
      </trkpt>
      <trkpt lat="43.37714" lon="-1.47513">
        <ele>47.9</ele>
        <time>2022-08-30T12:05:43Z</time>
      </trkpt>
      <trkpt lat="43.37719" lon="-1.4751">
        <ele>48.1</ele>
        <time>2022-08-30T12:05:44Z</time>
      </trkpt>
      <trkpt lat="43.37724" lon="-1.47507">
        <ele>48.4</ele>
        <time>2022-08-30T12:05:45Z</time>
      </trkpt>
      <trkpt lat="43.37728" lon="-1.47504">
        <ele>48.7</ele>
        <time>2022-08-30T12:05:46Z</time>
      </trkpt>
      <trkpt lat="43.37733" lon="-1.47501">
        <ele>49.1</ele>
        <time>2022-08-30T12:05:47Z</time>
      </trkpt>
      <trkpt lat="43.37738" lon="-1.47498">
        <ele>49.5</ele>
        <time>2022-08-30T12:05:48Z</time>
      </trkpt>
      <trkpt lat="43.37742" lon="-1.47495">
        <ele>50</ele>
        <time>2022-08-30T12:05:49Z</time>
      </trkpt>
      <trkpt lat="43.37748" lon="-1.47492">
        <ele>50.4</ele>
        <time>2022-08-30T12:05:50Z</time>
      </trkpt>
      <trkpt lat="43.37753" lon="-1.4749">
        <ele>50.8</ele>
        <time>2022-08-30T12:05:51Z</time>
      </trkpt>
      <trkpt lat="43.37758" lon="-1.47488">
        <ele>51.1</ele>
        <time>2022-08-30T12:05:52Z</time>
      </trkpt>
      <trkpt lat="43.37764" lon="-1.47486">
        <ele>51.3</ele>
        <time>2022-08-30T12:05:53Z</time>
      </trkpt>
      <trkpt lat="43.37769" lon="-1.47485">
        <ele>51.6</ele>
        <time>2022-08-30T12:05:54Z</time>
      </trkpt>
      <trkpt lat="43.37773" lon="-1.47484">
        <ele>51.7</ele>
        <time>2022-08-30T12:05:55Z</time>
      </trkpt>
      <trkpt lat="43.37776" lon="-1.47483">
        <ele>51.9</ele>
        <time>2022-08-30T12:05:56Z</time>
      </trkpt>
      <trkpt lat="43.37779" lon="-1.47482">
        <ele>52</ele>
        <time>2022-08-30T12:05:57Z</time>
      </trkpt>
      <trkpt lat="43.37782" lon="-1.4748">
        <ele>52.1</ele>
        <time>2022-08-30T12:05:58Z</time>
      </trkpt>
      <trkpt lat="43.37786" lon="-1.47479">
        <ele>52.2</ele>
        <time>2022-08-30T12:05:59Z</time>
      </trkpt>
      <trkpt lat="43.37789" lon="-1.47478">
        <ele>52.2</ele>
        <time>2022-08-30T12:06:00Z</time>
      </trkpt>
      <trkpt lat="43.37793" lon="-1.47477">
        <ele>52.3</ele>
        <time>2022-08-30T12:06:01Z</time>
      </trkpt>
      <trkpt lat="43.37797" lon="-1.47475">
        <ele>52.3</ele>
        <time>2022-08-30T12:06:02Z</time>
      </trkpt>
      <trkpt lat="43.37801" lon="-1.47471">
        <ele>52.3</ele>
        <time>2022-08-30T12:06:03Z</time>
      </trkpt>
      <trkpt lat="43.37808" lon="-1.47461">
        <ele>52.2</ele>
        <time>2022-08-30T12:06:05Z</time>
      </trkpt>
      <trkpt lat="43.37811" lon="-1.47455">
        <ele>52.2</ele>
        <time>2022-08-30T12:06:06Z</time>
      </trkpt>
      <trkpt lat="43.37814" lon="-1.47449">
        <ele>52.2</ele>
        <time>2022-08-30T12:06:07Z</time>
      </trkpt>
      <trkpt lat="43.37817" lon="-1.47442">
        <ele>52.3</ele>
        <time>2022-08-30T12:06:08Z</time>
      </trkpt>
      <trkpt lat="43.37819" lon="-1.47435">
        <ele>52.4</ele>
        <time>2022-08-30T12:06:09Z</time>
      </trkpt>
      <trkpt lat="43.37822" lon="-1.47428">
        <ele>52.6</ele>
        <time>2022-08-30T12:06:10Z</time>
      </trkpt>
      <trkpt lat="43.37826" lon="-1.47421">
        <ele>52.8</ele>
        <time>2022-08-30T12:06:11Z</time>
      </trkpt>
      <trkpt lat="43.37829" lon="-1.47415">
        <ele>52.9</ele>
        <time>2022-08-30T12:06:12Z</time>
      </trkpt>
      <trkpt lat="43.37833" lon="-1.47412">
        <ele>53.1</ele>
        <time>2022-08-30T12:06:13Z</time>
      </trkpt>
      <trkpt lat="43.37839" lon="-1.4741">
        <ele>53.3</ele>
        <time>2022-08-30T12:06:14Z</time>
      </trkpt>
      <trkpt lat="43.37844" lon="-1.47408">
        <ele>53.6</ele>
        <time>2022-08-30T12:06:15Z</time>
      </trkpt>
      <trkpt lat="43.37849" lon="-1.47407">
        <ele>53.9</ele>
        <time>2022-08-30T12:06:16Z</time>
      </trkpt>
      <trkpt lat="43.37855" lon="-1.47406">
        <ele>54.2</ele>
        <time>2022-08-30T12:06:17Z</time>
      </trkpt>
      <trkpt lat="43.3786" lon="-1.47405">
        <ele>54.5</ele>
        <time>2022-08-30T12:06:18Z</time>
      </trkpt>
      <trkpt lat="43.37864" lon="-1.47404">
        <ele>54.7</ele>
        <time>2022-08-30T12:06:19Z</time>
      </trkpt>
      <trkpt lat="43.37867" lon="-1.47402">
        <ele>54.9</ele>
        <time>2022-08-30T12:06:20Z</time>
      </trkpt>
      <trkpt lat="43.37869" lon="-1.47398">
        <ele>55.1</ele>
        <time>2022-08-30T12:06:21Z</time>
      </trkpt>
      <trkpt lat="43.3787" lon="-1.47396">
        <ele>55.2</ele>
        <time>2022-08-30T12:06:22Z</time>
      </trkpt>
      <trkpt lat="43.3787" lon="-1.47392">
        <ele>55.4</ele>
        <time>2022-08-30T12:06:23Z</time>
      </trkpt>
      <trkpt lat="43.3787" lon="-1.47391">
        <ele>55.5</ele>
        <time>2022-08-30T12:06:24Z</time>
      </trkpt>
      <trkpt lat="43.37871" lon="-1.47388">
        <ele>55.6</ele>
        <time>2022-08-30T12:06:25Z</time>
      </trkpt>
      <trkpt lat="43.37871" lon="-1.47386">
        <ele>55.7</ele>
        <time>2022-08-30T12:06:26Z</time>
      </trkpt>
      <trkpt lat="43.3787" lon="-1.47385">
        <ele>55.7</ele>
        <time>2022-08-30T12:06:27Z</time>
      </trkpt>
      <trkpt lat="43.3787" lon="-1.47385">
        <ele>55.7</ele>
        <time>2022-08-30T12:06:28Z</time>
      </trkpt>
      <trkpt lat="43.3787" lon="-1.47385">
        <ele>55.7</ele>
        <time>2022-08-30T12:06:29Z</time>
      </trkpt>
      <trkpt lat="43.3787" lon="-1.47385">
        <ele>55.8</ele>
        <time>2022-08-30T12:06:30Z</time>
      </trkpt>
      <trkpt lat="43.3787" lon="-1.47385">
        <ele>55.8</ele>
        <time>2022-08-30T12:06:31Z</time>
      </trkpt>
      <trkpt lat="43.3787" lon="-1.47385">
        <ele>55.8</ele>
        <time>2022-08-30T12:06:32Z</time>
      </trkpt>
      <trkpt lat="43.3787" lon="-1.47385">
        <ele>55.8</ele>
        <time>2022-08-30T12:06:33Z</time>
      </trkpt>
      <trkpt lat="43.3787" lon="-1.47385">
        <ele>55.8</ele>
        <time>2022-08-30T12:06:34Z</time>
      </trkpt>
      <trkpt lat="43.3787" lon="-1.47385">
        <ele>55.8</ele>
        <time>2022-08-30T12:06:35Z</time>
      </trkpt>
      <trkpt lat="43.3787" lon="-1.47385">
        <ele>55.8</ele>
        <time>2022-08-30T12:06:36Z</time>
      </trkpt>
      <trkpt lat="43.3787" lon="-1.47385">
        <ele>55.8</ele>
        <time>2022-08-30T12:06:37Z</time>
      </trkpt>
      <trkpt lat="43.3787" lon="-1.47385">
        <ele>55.8</ele>
        <time>2022-08-30T12:06:38Z</time>
      </trkpt>
      <trkpt lat="43.3787" lon="-1.47385">
        <ele>55.8</ele>
        <time>2022-08-30T12:06:39Z</time>
      </trkpt>
      <trkpt lat="43.37872" lon="-1.47383">
        <ele>55.9</ele>
        <time>2022-08-30T12:07:45Z</time>
      </trkpt>
      <trkpt lat="43.37872" lon="-1.47383">
        <ele>55.9</ele>
        <time>2022-08-30T12:07:46Z</time>
      </trkpt>
      <trkpt lat="43.37872" lon="-1.47383">
        <ele>55.9</ele>
        <time>2022-08-30T12:07:47Z</time>
      </trkpt>
      <trkpt lat="43.37872" lon="-1.47383">
        <ele>55.9</ele>
        <time>2022-08-30T12:07:48Z</time>
      </trkpt>
      <trkpt lat="43.37872" lon="-1.47383">
        <ele>55.9</ele>
        <time>2022-08-30T12:07:49Z</time>
      </trkpt>
      <trkpt lat="43.37872" lon="-1.47383">
        <ele>55.9</ele>
        <time>2022-08-30T12:07:50Z</time>
      </trkpt>
      <trkpt lat="43.37872" lon="-1.47383">
        <ele>55.9</ele>
        <time>2022-08-30T12:07:51Z</time>
      </trkpt>
      <trkpt lat="43.37872" lon="-1.47383">
        <ele>55.9</ele>
        <time>2022-08-30T12:07:52Z</time>
      </trkpt>
      <trkpt lat="43.37872" lon="-1.47383">
        <ele>55.9</ele>
        <time>2022-08-30T12:07:53Z</time>
      </trkpt>
      <trkpt lat="43.37872" lon="-1.47383">
        <ele>55.9</ele>
        <time>2022-08-30T12:07:54Z</time>
      </trkpt>
      <trkpt lat="43.37872" lon="-1.47383">
        <ele>55.9</ele>
        <time>2022-08-30T12:07:55Z</time>
      </trkpt>
      <trkpt lat="43.37872" lon="-1.47383">
        <ele>55.9</ele>
        <time>2022-08-30T12:07:56Z</time>
      </trkpt>
      <trkpt lat="43.37872" lon="-1.47383">
        <ele>55.9</ele>
        <time>2022-08-30T12:07:57Z</time>
      </trkpt>
      <trkpt lat="43.37872" lon="-1.47383">
        <ele>55.9</ele>
        <time>2022-08-30T12:07:58Z</time>
      </trkpt>
      <trkpt lat="43.37872" lon="-1.47383">
        <ele>55.9</ele>
        <time>2022-08-30T12:07:59Z</time>
      </trkpt>
      <trkpt lat="43.37872" lon="-1.47383">
        <ele>55.9</ele>
        <time>2022-08-30T12:08:00Z</time>
      </trkpt>
      <trkpt lat="43.37872" lon="-1.47383">
        <ele>55.9</ele>
        <time>2022-08-30T12:08:01Z</time>
      </trkpt>
      <trkpt lat="43.37872" lon="-1.47383">
        <ele>55.9</ele>
        <time>2022-08-30T12:08:02Z</time>
      </trkpt>
      <trkpt lat="43.37872" lon="-1.47383">
        <ele>55.9</ele>
        <time>2022-08-30T12:08:03Z</time>
      </trkpt>
      <trkpt lat="43.37872" lon="-1.47383">
        <ele>55.9</ele>
        <time>2022-08-30T12:08:04Z</time>
      </trkpt>
      <trkpt lat="43.37872" lon="-1.47383">
        <ele>55.9</ele>
        <time>2022-08-30T12:08:05Z</time>
      </trkpt>
      <trkpt lat="43.37872" lon="-1.47383">
        <ele>55.9</ele>
        <time>2022-08-30T12:08:06Z</time>
      </trkpt>
      <trkpt lat="43.37871" lon="-1.47382">
        <ele>55.9</ele>
        <time>2022-08-30T12:08:07Z</time>
      </trkpt>
      <trkpt lat="43.37871" lon="-1.47382">
        <ele>55.9</ele>
        <time>2022-08-30T12:08:08Z</time>
      </trkpt>
      <trkpt lat="43.37871" lon="-1.47382">
        <ele>55.9</ele>
        <time>2022-08-30T12:08:09Z</time>
      </trkpt>
      <trkpt lat="43.37871" lon="-1.47382">
        <ele>55.9</ele>
        <time>2022-08-30T12:08:10Z</time>
      </trkpt>
      <trkpt lat="43.37871" lon="-1.47382">
        <ele>55.9</ele>
        <time>2022-08-30T12:08:11Z</time>
      </trkpt>
      <trkpt lat="43.37871" lon="-1.47382">
        <ele>55.9</ele>
        <time>2022-08-30T12:08:12Z</time>
      </trkpt>
      <trkpt lat="43.37871" lon="-1.47382">
        <ele>55.9</ele>
        <time>2022-08-30T12:08:13Z</time>
      </trkpt>
      <trkpt lat="43.37871" lon="-1.47382">
        <ele>55.9</ele>
        <time>2022-08-30T12:08:14Z</time>
      </trkpt>
      <trkpt lat="43.37871" lon="-1.47382">
        <ele>55.9</ele>
        <time>2022-08-30T12:08:15Z</time>
      </trkpt>
      <trkpt lat="43.37871" lon="-1.47382">
        <ele>55.9</ele>
        <time>2022-08-30T12:08:16Z</time>
      </trkpt>
      <trkpt lat="43.37871" lon="-1.47382">
        <ele>55.9</ele>
        <time>2022-08-30T12:08:17Z</time>
      </trkpt>
      <trkpt lat="43.37871" lon="-1.47382">
        <ele>55.9</ele>
        <time>2022-08-30T12:08:18Z</time>
      </trkpt>
      <trkpt lat="43.37871" lon="-1.47382">
        <ele>55.9</ele>
        <time>2022-08-30T12:08:19Z</time>
      </trkpt>
      <trkpt lat="43.37871" lon="-1.47382">
        <ele>55.9</ele>
        <time>2022-08-30T12:08:20Z</time>
      </trkpt>
      <trkpt lat="43.37871" lon="-1.47382">
        <ele>55.9</ele>
        <time>2022-08-30T12:08:21Z</time>
      </trkpt>
      <trkpt lat="43.37871" lon="-1.47382">
        <ele>55.9</ele>
        <time>2022-08-30T12:08:22Z</time>
      </trkpt>
      <trkpt lat="43.37871" lon="-1.47382">
        <ele>55.9</ele>
        <time>2022-08-30T12:08:23Z</time>
      </trkpt>
      <trkpt lat="43.37871" lon="-1.47382">
        <ele>55.9</ele>
        <time>2022-08-30T12:08:24Z</time>
      </trkpt>
      <trkpt lat="43.37871" lon="-1.47382">
        <ele>55.9</ele>
        <time>2022-08-30T12:08:25Z</time>
      </trkpt>
      <trkpt lat="43.37871" lon="-1.47382">
        <ele>55.9</ele>
        <time>2022-08-30T12:08:26Z</time>
      </trkpt>
      <trkpt lat="43.37871" lon="-1.47382">
        <ele>55.9</ele>
        <time>2022-08-30T12:08:27Z</time>
      </trkpt>
      <trkpt lat="43.37871" lon="-1.47382">
        <ele>55.9</ele>
        <time>2022-08-30T12:08:28Z</time>
      </trkpt>
      <trkpt lat="43.37871" lon="-1.47382">
        <ele>55.9</ele>
        <time>2022-08-30T12:08:29Z</time>
      </trkpt>
      <trkpt lat="43.37871" lon="-1.47382">
        <ele>55.9</ele>
        <time>2022-08-30T12:08:30Z</time>
      </trkpt>
      <trkpt lat="43.37871" lon="-1.47382">
        <ele>55.9</ele>
        <time>2022-08-30T12:08:31Z</time>
      </trkpt>
      <trkpt lat="43.37871" lon="-1.47382">
        <ele>55.9</ele>
        <time>2022-08-30T12:08:32Z</time>
      </trkpt>
      <trkpt lat="43.37871" lon="-1.47382">
        <ele>55.9</ele>
        <time>2022-08-30T12:08:33Z</time>
      </trkpt>
      <trkpt lat="43.37871" lon="-1.47382">
        <ele>55.9</ele>
        <time>2022-08-30T12:08:34Z</time>
      </trkpt>
      <trkpt lat="43.37871" lon="-1.47382">
        <ele>55.9</ele>
        <time>2022-08-30T12:08:35Z</time>
      </trkpt>
      <trkpt lat="43.37871" lon="-1.47382">
        <ele>55.9</ele>
        <time>2022-08-30T12:08:36Z</time>
      </trkpt>
      <trkpt lat="43.37871" lon="-1.47382">
        <ele>55.9</ele>
        <time>2022-08-30T12:08:37Z</time>
      </trkpt>
      <trkpt lat="43.37871" lon="-1.47382">
        <ele>55.9</ele>
        <time>2022-08-30T12:08:38Z</time>
      </trkpt>
      <trkpt lat="43.37871" lon="-1.47382">
        <ele>55.9</ele>
        <time>2022-08-30T12:08:39Z</time>
      </trkpt>
      <trkpt lat="43.37871" lon="-1.47382">
        <ele>55.9</ele>
        <time>2022-08-30T12:08:40Z</time>
      </trkpt>
      <trkpt lat="43.37871" lon="-1.47382">
        <ele>55.9</ele>
        <time>2022-08-30T12:08:41Z</time>
      </trkpt>
      <trkpt lat="43.37871" lon="-1.47382">
        <ele>55.9</ele>
        <time>2022-08-30T12:08:42Z</time>
      </trkpt>
      <trkpt lat="43.37871" lon="-1.47382">
        <ele>55.9</ele>
        <time>2022-08-30T12:08:43Z</time>
      </trkpt>
      <trkpt lat="43.37871" lon="-1.47382">
        <ele>55.9</ele>
        <time>2022-08-30T12:08:44Z</time>
      </trkpt>
      <trkpt lat="43.37871" lon="-1.47382">
        <ele>55.9</ele>
        <time>2022-08-30T12:08:45Z</time>
      </trkpt>
      <trkpt lat="43.37871" lon="-1.47382">
        <ele>55.9</ele>
        <time>2022-08-30T12:08:46Z</time>
      </trkpt>
      <trkpt lat="43.37871" lon="-1.47382">
        <ele>55.9</ele>
        <time>2022-08-30T12:08:47Z</time>
      </trkpt>
      <trkpt lat="43.37871" lon="-1.47382">
        <ele>55.9</ele>
        <time>2022-08-30T12:08:48Z</time>
      </trkpt>
      <trkpt lat="43.37871" lon="-1.47382">
        <ele>55.9</ele>
        <time>2022-08-30T12:08:49Z</time>
      </trkpt>
      <trkpt lat="43.37871" lon="-1.47382">
        <ele>55.9</ele>
        <time>2022-08-30T12:08:50Z</time>
      </trkpt>
      <trkpt lat="43.37871" lon="-1.47382">
        <ele>55.9</ele>
        <time>2022-08-30T12:08:51Z</time>
      </trkpt>
      <trkpt lat="43.37871" lon="-1.47382">
        <ele>55.9</ele>
        <time>2022-08-30T12:08:52Z</time>
      </trkpt>
      <trkpt lat="43.37871" lon="-1.47382">
        <ele>55.9</ele>
        <time>2022-08-30T12:08:53Z</time>
      </trkpt>
      <trkpt lat="43.37871" lon="-1.47382">
        <ele>55.9</ele>
        <time>2022-08-30T12:08:54Z</time>
      </trkpt>
      <trkpt lat="43.37871" lon="-1.47382">
        <ele>55.9</ele>
        <time>2022-08-30T12:08:55Z</time>
      </trkpt>
      <trkpt lat="43.37871" lon="-1.47382">
        <ele>55.9</ele>
        <time>2022-08-30T12:08:56Z</time>
      </trkpt>
      <trkpt lat="43.37871" lon="-1.47382">
        <ele>55.9</ele>
        <time>2022-08-30T12:08:57Z</time>
      </trkpt>
      <trkpt lat="43.37871" lon="-1.47382">
        <ele>55.9</ele>
        <time>2022-08-30T12:08:58Z</time>
      </trkpt>
      <trkpt lat="43.37871" lon="-1.47382">
        <ele>55.9</ele>
        <time>2022-08-30T12:08:59Z</time>
      </trkpt>
      <trkpt lat="43.37871" lon="-1.47382">
        <ele>55.9</ele>
        <time>2022-08-30T12:09:00Z</time>
      </trkpt>
      <trkpt lat="43.37871" lon="-1.47382">
        <ele>55.9</ele>
        <time>2022-08-30T12:09:01Z</time>
      </trkpt>
      <trkpt lat="43.37871" lon="-1.47382">
        <ele>55.9</ele>
        <time>2022-08-30T12:09:02Z</time>
      </trkpt>
      <trkpt lat="43.37871" lon="-1.47382">
        <ele>55.9</ele>
        <time>2022-08-30T12:09:03Z</time>
      </trkpt>
      <trkpt lat="43.37871" lon="-1.47382">
        <ele>55.9</ele>
        <time>2022-08-30T12:09:04Z</time>
      </trkpt>
      <trkpt lat="43.37871" lon="-1.47382">
        <ele>55.9</ele>
        <time>2022-08-30T12:09:05Z</time>
      </trkpt>
      <trkpt lat="43.37871" lon="-1.47382">
        <ele>55.9</ele>
        <time>2022-08-30T12:09:06Z</time>
      </trkpt>
      <trkpt lat="43.37871" lon="-1.47382">
        <ele>55.9</ele>
        <time>2022-08-30T12:09:07Z</time>
      </trkpt>
      <trkpt lat="43.37871" lon="-1.47382">
        <ele>55.9</ele>
        <time>2022-08-30T12:09:08Z</time>
      </trkpt>
      <trkpt lat="43.37871" lon="-1.47382">
        <ele>55.9</ele>
        <time>2022-08-30T12:09:09Z</time>
      </trkpt>
      <trkpt lat="43.37871" lon="-1.47382">
        <ele>55.9</ele>
        <time>2022-08-30T12:09:10Z</time>
      </trkpt>
      <trkpt lat="43.37871" lon="-1.47382">
        <ele>55.9</ele>
        <time>2022-08-30T12:09:11Z</time>
      </trkpt>
      <trkpt lat="43.37871" lon="-1.47382">
        <ele>55.9</ele>
        <time>2022-08-30T12:09:12Z</time>
      </trkpt>
      <trkpt lat="43.37871" lon="-1.47382">
        <ele>55.9</ele>
        <time>2022-08-30T12:09:13Z</time>
      </trkpt>
      <trkpt lat="43.37871" lon="-1.47382">
        <ele>55.9</ele>
        <time>2022-08-30T12:09:14Z</time>
      </trkpt>
      <trkpt lat="43.37871" lon="-1.47382">
        <ele>55.9</ele>
        <time>2022-08-30T12:09:15Z</time>
      </trkpt>
      <trkpt lat="43.37871" lon="-1.47382">
        <ele>55.9</ele>
        <time>2022-08-30T12:09:16Z</time>
      </trkpt>
      <trkpt lat="43.37871" lon="-1.47382">
        <ele>55.9</ele>
        <time>2022-08-30T12:09:17Z</time>
      </trkpt>
      <trkpt lat="43.37871" lon="-1.47382">
        <ele>55.9</ele>
        <time>2022-08-30T12:09:18Z</time>
      </trkpt>
      <trkpt lat="43.37871" lon="-1.47382">
        <ele>55.9</ele>
        <time>2022-08-30T12:09:19Z</time>
      </trkpt>
      <trkpt lat="43.37871" lon="-1.47382">
        <ele>55.9</ele>
        <time>2022-08-30T12:09:20Z</time>
      </trkpt>
      <trkpt lat="43.37871" lon="-1.47382">
        <ele>55.9</ele>
        <time>2022-08-30T12:09:21Z</time>
      </trkpt>
      <trkpt lat="43.37871" lon="-1.47381">
        <ele>55.9</ele>
        <time>2022-08-30T12:09:22Z</time>
      </trkpt>
      <trkpt lat="43.37871" lon="-1.4738">
        <ele>55.9</ele>
        <time>2022-08-30T12:09:23Z</time>
      </trkpt>
      <trkpt lat="43.37871" lon="-1.4738">
        <ele>55.9</ele>
        <time>2022-08-30T12:09:24Z</time>
      </trkpt>
      <trkpt lat="43.37871" lon="-1.4738">
        <ele>55.9</ele>
        <time>2022-08-30T12:09:25Z</time>
      </trkpt>
      <trkpt lat="43.37871" lon="-1.4738">
        <ele>55.9</ele>
        <time>2022-08-30T12:09:26Z</time>
      </trkpt>
      <trkpt lat="43.37871" lon="-1.47379">
        <ele>55.9</ele>
        <time>2022-08-30T12:09:27Z</time>
      </trkpt>
      <trkpt lat="43.37871" lon="-1.47379">
        <ele>55.9</ele>
        <time>2022-08-30T12:09:28Z</time>
      </trkpt>
      <trkpt lat="43.37871" lon="-1.47379">
        <ele>55.9</ele>
        <time>2022-08-30T12:09:29Z</time>
      </trkpt>
      <trkpt lat="43.37871" lon="-1.47379">
        <ele>55.9</ele>
        <time>2022-08-30T12:09:30Z</time>
      </trkpt>
      <trkpt lat="43.37871" lon="-1.47379">
        <ele>55.9</ele>
        <time>2022-08-30T12:09:31Z</time>
      </trkpt>
      <trkpt lat="43.37871" lon="-1.47379">
        <ele>55.9</ele>
        <time>2022-08-30T12:09:32Z</time>
      </trkpt>
      <trkpt lat="43.37871" lon="-1.47379">
        <ele>55.9</ele>
        <time>2022-08-30T12:09:33Z</time>
      </trkpt>
      <trkpt lat="43.37872" lon="-1.47379">
        <ele>55.9</ele>
        <time>2022-08-30T12:09:34Z</time>
      </trkpt>
      <trkpt lat="43.37872" lon="-1.47379">
        <ele>55.9</ele>
        <time>2022-08-30T12:09:35Z</time>
      </trkpt>
      <trkpt lat="43.37872" lon="-1.47379">
        <ele>55.9</ele>
        <time>2022-08-30T12:09:36Z</time>
      </trkpt>
      <trkpt lat="43.37872" lon="-1.47379">
        <ele>55.9</ele>
        <time>2022-08-30T12:09:37Z</time>
      </trkpt>
      <trkpt lat="43.37872" lon="-1.47379">
        <ele>55.9</ele>
        <time>2022-08-30T12:09:38Z</time>
      </trkpt>
      <trkpt lat="43.37872" lon="-1.47379">
        <ele>55.9</ele>
        <time>2022-08-30T12:09:39Z</time>
      </trkpt>
      <trkpt lat="43.37872" lon="-1.47379">
        <ele>55.9</ele>
        <time>2022-08-30T12:09:40Z</time>
      </trkpt>
      <trkpt lat="43.37872" lon="-1.47379">
        <ele>55.9</ele>
        <time>2022-08-30T12:09:41Z</time>
      </trkpt>
      <trkpt lat="43.37872" lon="-1.47379">
        <ele>55.9</ele>
        <time>2022-08-30T12:09:42Z</time>
      </trkpt>
      <trkpt lat="43.37872" lon="-1.47379">
        <ele>55.9</ele>
        <time>2022-08-30T12:09:43Z</time>
      </trkpt>
      <trkpt lat="43.37872" lon="-1.47379">
        <ele>55.9</ele>
        <time>2022-08-30T12:09:44Z</time>
      </trkpt>
      <trkpt lat="43.37872" lon="-1.47379">
        <ele>55.9</ele>
        <time>2022-08-30T12:09:45Z</time>
      </trkpt>
      <trkpt lat="43.37872" lon="-1.47379">
        <ele>55.9</ele>
        <time>2022-08-30T12:09:46Z</time>
      </trkpt>
      <trkpt lat="43.37871" lon="-1.4738">
        <ele>55.9</ele>
        <time>2022-08-30T12:09:47Z</time>
      </trkpt>
      <trkpt lat="43.37872" lon="-1.47381">
        <ele>55.9</ele>
        <time>2022-08-30T12:09:48Z</time>
      </trkpt>
      <trkpt lat="43.37872" lon="-1.47382">
        <ele>55.9</ele>
        <time>2022-08-30T12:09:49Z</time>
      </trkpt>
      <trkpt lat="43.37872" lon="-1.47382">
        <ele>55.9</ele>
        <time>2022-08-30T12:09:50Z</time>
      </trkpt>
      <trkpt lat="43.37871" lon="-1.47382">
        <ele>55.9</ele>
        <time>2022-08-30T12:09:51Z</time>
      </trkpt>
      <trkpt lat="43.37871" lon="-1.47382">
        <ele>55.9</ele>
        <time>2022-08-30T12:09:52Z</time>
      </trkpt>
      <trkpt lat="43.37871" lon="-1.47382">
        <ele>55.9</ele>
        <time>2022-08-30T12:09:53Z</time>
      </trkpt>
      <trkpt lat="43.37871" lon="-1.47382">
        <ele>55.9</ele>
        <time>2022-08-30T12:09:54Z</time>
      </trkpt>
      <trkpt lat="43.37871" lon="-1.47382">
        <ele>55.9</ele>
        <time>2022-08-30T12:09:55Z</time>
      </trkpt>
      <trkpt lat="43.37871" lon="-1.47382">
        <ele>55.9</ele>
        <time>2022-08-30T12:09:56Z</time>
      </trkpt>
      <trkpt lat="43.37871" lon="-1.47382">
        <ele>55.9</ele>
        <time>2022-08-30T12:09:57Z</time>
      </trkpt>
      <trkpt lat="43.37871" lon="-1.47382">
        <ele>55.9</ele>
        <time>2022-08-30T12:09:58Z</time>
      </trkpt>
      <trkpt lat="43.37871" lon="-1.47382">
        <ele>55.9</ele>
        <time>2022-08-30T12:09:59Z</time>
      </trkpt>
      <trkpt lat="43.37871" lon="-1.47382">
        <ele>55.9</ele>
        <time>2022-08-30T12:10:00Z</time>
      </trkpt>
      <trkpt lat="43.37871" lon="-1.47382">
        <ele>55.9</ele>
        <time>2022-08-30T12:10:01Z</time>
      </trkpt>
      <trkpt lat="43.37871" lon="-1.47382">
        <ele>55.9</ele>
        <time>2022-08-30T12:10:02Z</time>
      </trkpt>
      <trkpt lat="43.37871" lon="-1.47383">
        <ele>55.9</ele>
        <time>2022-08-30T12:10:03Z</time>
      </trkpt>
      <trkpt lat="43.37872" lon="-1.47383">
        <ele>55.9</ele>
        <time>2022-08-30T12:10:04Z</time>
      </trkpt>
      <trkpt lat="43.37871" lon="-1.47383">
        <ele>55.9</ele>
        <time>2022-08-30T12:10:05Z</time>
      </trkpt>
      <trkpt lat="43.37871" lon="-1.47383">
        <ele>55.9</ele>
        <time>2022-08-30T12:10:06Z</time>
      </trkpt>
      <trkpt lat="43.37871" lon="-1.47383">
        <ele>55.9</ele>
        <time>2022-08-30T12:10:07Z</time>
      </trkpt>
      <trkpt lat="43.37871" lon="-1.47383">
        <ele>55.9</ele>
        <time>2022-08-30T12:10:08Z</time>
      </trkpt>
      <trkpt lat="43.37871" lon="-1.47383">
        <ele>55.9</ele>
        <time>2022-08-30T12:10:09Z</time>
      </trkpt>
      <trkpt lat="43.37871" lon="-1.47383">
        <ele>55.9</ele>
        <time>2022-08-30T12:10:10Z</time>
      </trkpt>
      <trkpt lat="43.37871" lon="-1.47383">
        <ele>55.9</ele>
        <time>2022-08-30T12:10:11Z</time>
      </trkpt>
      <trkpt lat="43.37871" lon="-1.47383">
        <ele>55.9</ele>
        <time>2022-08-30T12:10:12Z</time>
      </trkpt>
      <trkpt lat="43.37871" lon="-1.47383">
        <ele>55.9</ele>
        <time>2022-08-30T12:10:13Z</time>
      </trkpt>
      <trkpt lat="43.37871" lon="-1.47383">
        <ele>55.9</ele>
        <time>2022-08-30T12:10:14Z</time>
      </trkpt>
      <trkpt lat="43.37871" lon="-1.47383">
        <ele>55.9</ele>
        <time>2022-08-30T12:10:15Z</time>
      </trkpt>
      <trkpt lat="43.37871" lon="-1.47383">
        <ele>55.9</ele>
        <time>2022-08-30T12:10:16Z</time>
      </trkpt>
      <trkpt lat="43.37871" lon="-1.47383">
        <ele>55.9</ele>
        <time>2022-08-30T12:10:17Z</time>
      </trkpt>
      <trkpt lat="43.37871" lon="-1.47383">
        <ele>55.9</ele>
        <time>2022-08-30T12:10:18Z</time>
      </trkpt>
      <trkpt lat="43.37871" lon="-1.47383">
        <ele>55.9</ele>
        <time>2022-08-30T12:10:19Z</time>
      </trkpt>
      <trkpt lat="43.37871" lon="-1.47383">
        <ele>55.9</ele>
        <time>2022-08-30T12:10:20Z</time>
      </trkpt>
      <trkpt lat="43.37871" lon="-1.47383">
        <ele>55.9</ele>
        <time>2022-08-30T12:10:21Z</time>
      </trkpt>
      <trkpt lat="43.37871" lon="-1.47383">
        <ele>55.9</ele>
        <time>2022-08-30T12:10:22Z</time>
      </trkpt>
      <trkpt lat="43.37871" lon="-1.47383">
        <ele>55.9</ele>
        <time>2022-08-30T12:10:23Z</time>
      </trkpt>
      <trkpt lat="43.37871" lon="-1.47383">
        <ele>55.9</ele>
        <time>2022-08-30T12:10:24Z</time>
      </trkpt>
      <trkpt lat="43.37871" lon="-1.47383">
        <ele>55.9</ele>
        <time>2022-08-30T12:10:25Z</time>
      </trkpt>
      <trkpt lat="43.37871" lon="-1.47383">
        <ele>55.9</ele>
        <time>2022-08-30T12:10:26Z</time>
      </trkpt>
      <trkpt lat="43.37871" lon="-1.47383">
        <ele>55.9</ele>
        <time>2022-08-30T12:10:27Z</time>
      </trkpt>
      <trkpt lat="43.37871" lon="-1.47383">
        <ele>55.9</ele>
        <time>2022-08-30T12:10:28Z</time>
      </trkpt>
      <trkpt lat="43.37871" lon="-1.47383">
        <ele>55.9</ele>
        <time>2022-08-30T12:10:29Z</time>
      </trkpt>
      <trkpt lat="43.37871" lon="-1.47383">
        <ele>55.9</ele>
        <time>2022-08-30T12:10:30Z</time>
      </trkpt>
      <trkpt lat="43.37871" lon="-1.47383">
        <ele>55.9</ele>
        <time>2022-08-30T12:10:31Z</time>
      </trkpt>
      <trkpt lat="43.37871" lon="-1.47383">
        <ele>55.9</ele>
        <time>2022-08-30T12:10:32Z</time>
      </trkpt>
      <trkpt lat="43.37871" lon="-1.47383">
        <ele>55.9</ele>
        <time>2022-08-30T12:10:33Z</time>
      </trkpt>
      <trkpt lat="43.37871" lon="-1.47383">
        <ele>55.9</ele>
        <time>2022-08-30T12:10:34Z</time>
      </trkpt>
      <trkpt lat="43.37871" lon="-1.47383">
        <ele>55.9</ele>
        <time>2022-08-30T12:10:35Z</time>
      </trkpt>
      <trkpt lat="43.37871" lon="-1.47383">
        <ele>55.9</ele>
        <time>2022-08-30T12:10:36Z</time>
      </trkpt>
      <trkpt lat="43.37871" lon="-1.47383">
        <ele>55.9</ele>
        <time>2022-08-30T12:10:37Z</time>
      </trkpt>
      <trkpt lat="43.37871" lon="-1.47383">
        <ele>55.9</ele>
        <time>2022-08-30T12:10:38Z</time>
      </trkpt>
      <trkpt lat="43.37871" lon="-1.47383">
        <ele>55.9</ele>
        <time>2022-08-30T12:10:39Z</time>
      </trkpt>
      <trkpt lat="43.37871" lon="-1.47383">
        <ele>55.9</ele>
        <time>2022-08-30T12:10:40Z</time>
      </trkpt>
      <trkpt lat="43.37871" lon="-1.47383">
        <ele>55.9</ele>
        <time>2022-08-30T12:10:41Z</time>
      </trkpt>
      <trkpt lat="43.37871" lon="-1.47383">
        <ele>55.9</ele>
        <time>2022-08-30T12:10:42Z</time>
      </trkpt>
      <trkpt lat="43.37871" lon="-1.47383">
        <ele>55.9</ele>
        <time>2022-08-30T12:10:43Z</time>
      </trkpt>
      <trkpt lat="43.37871" lon="-1.47383">
        <ele>55.9</ele>
        <time>2022-08-30T12:10:44Z</time>
      </trkpt>
      <trkpt lat="43.37871" lon="-1.47383">
        <ele>55.9</ele>
        <time>2022-08-30T12:10:45Z</time>
      </trkpt>
      <trkpt lat="43.37871" lon="-1.47383">
        <ele>55.9</ele>
        <time>2022-08-30T12:10:46Z</time>
      </trkpt>
      <trkpt lat="43.37872" lon="-1.47383">
        <ele>55.9</ele>
        <time>2022-08-30T12:10:47Z</time>
      </trkpt>
      <trkpt lat="43.37872" lon="-1.47383">
        <ele>55.9</ele>
        <time>2022-08-30T12:10:48Z</time>
      </trkpt>
      <trkpt lat="43.37872" lon="-1.47383">
        <ele>55.9</ele>
        <time>2022-08-30T12:10:49Z</time>
      </trkpt>
      <trkpt lat="43.37872" lon="-1.47383">
        <ele>55.9</ele>
        <time>2022-08-30T12:10:50Z</time>
      </trkpt>
      <trkpt lat="43.37872" lon="-1.47383">
        <ele>55.9</ele>
        <time>2022-08-30T12:10:51Z</time>
      </trkpt>
      <trkpt lat="43.37872" lon="-1.47383">
        <ele>55.9</ele>
        <time>2022-08-30T12:10:52Z</time>
      </trkpt>
      <trkpt lat="43.37872" lon="-1.47383">
        <ele>55.9</ele>
        <time>2022-08-30T12:10:53Z</time>
      </trkpt>
      <trkpt lat="43.37872" lon="-1.47383">
        <ele>55.9</ele>
        <time>2022-08-30T12:10:54Z</time>
      </trkpt>
      <trkpt lat="43.37872" lon="-1.47383">
        <ele>55.9</ele>
        <time>2022-08-30T12:10:55Z</time>
      </trkpt>
      <trkpt lat="43.37872" lon="-1.47383">
        <ele>55.9</ele>
        <time>2022-08-30T12:10:56Z</time>
      </trkpt>
      <trkpt lat="43.37872" lon="-1.47383">
        <ele>55.9</ele>
        <time>2022-08-30T12:10:57Z</time>
      </trkpt>
      <trkpt lat="43.37872" lon="-1.47383">
        <ele>55.9</ele>
        <time>2022-08-30T12:10:58Z</time>
      </trkpt>
      <trkpt lat="43.37872" lon="-1.47383">
        <ele>55.9</ele>
        <time>2022-08-30T12:10:59Z</time>
      </trkpt>
      <trkpt lat="43.37872" lon="-1.47383">
        <ele>55.9</ele>
        <time>2022-08-30T12:11:00Z</time>
      </trkpt>
      <trkpt lat="43.37872" lon="-1.47383">
        <ele>55.9</ele>
        <time>2022-08-30T12:11:01Z</time>
      </trkpt>
      <trkpt lat="43.37872" lon="-1.47383">
        <ele>55.9</ele>
        <time>2022-08-30T12:11:02Z</time>
      </trkpt>
      <trkpt lat="43.37872" lon="-1.47383">
        <ele>55.9</ele>
        <time>2022-08-30T12:11:03Z</time>
      </trkpt>
      <trkpt lat="43.37872" lon="-1.47383">
        <ele>55.9</ele>
        <time>2022-08-30T12:11:04Z</time>
      </trkpt>
      <trkpt lat="43.37872" lon="-1.47383">
        <ele>55.9</ele>
        <time>2022-08-30T12:11:05Z</time>
      </trkpt>
      <trkpt lat="43.37872" lon="-1.47383">
        <ele>55.9</ele>
        <time>2022-08-30T12:11:06Z</time>
      </trkpt>
      <trkpt lat="43.37872" lon="-1.47383">
        <ele>55.9</ele>
        <time>2022-08-30T12:11:07Z</time>
      </trkpt>
      <trkpt lat="43.37872" lon="-1.47383">
        <ele>55.9</ele>
        <time>2022-08-30T12:11:08Z</time>
      </trkpt>
      <trkpt lat="43.37872" lon="-1.47383">
        <ele>55.9</ele>
        <time>2022-08-30T12:11:09Z</time>
      </trkpt>
      <trkpt lat="43.37872" lon="-1.47383">
        <ele>55.9</ele>
        <time>2022-08-30T12:11:10Z</time>
      </trkpt>
      <trkpt lat="43.37872" lon="-1.47383">
        <ele>55.9</ele>
        <time>2022-08-30T12:11:11Z</time>
      </trkpt>
      <trkpt lat="43.37872" lon="-1.47383">
        <ele>55.9</ele>
        <time>2022-08-30T12:11:12Z</time>
      </trkpt>
      <trkpt lat="43.37872" lon="-1.47383">
        <ele>55.9</ele>
        <time>2022-08-30T12:11:13Z</time>
      </trkpt>
      <trkpt lat="43.37872" lon="-1.47383">
        <ele>55.9</ele>
        <time>2022-08-30T12:11:14Z</time>
      </trkpt>
      <trkpt lat="43.37872" lon="-1.47383">
        <ele>55.9</ele>
        <time>2022-08-30T12:11:15Z</time>
      </trkpt>
      <trkpt lat="43.37872" lon="-1.47383">
        <ele>55.9</ele>
        <time>2022-08-30T12:11:16Z</time>
      </trkpt>
      <trkpt lat="43.37872" lon="-1.47383">
        <ele>55.9</ele>
        <time>2022-08-30T12:11:17Z</time>
      </trkpt>
      <trkpt lat="43.37872" lon="-1.47383">
        <ele>55.9</ele>
        <time>2022-08-30T12:11:18Z</time>
      </trkpt>
      <trkpt lat="43.37872" lon="-1.47383">
        <ele>55.9</ele>
        <time>2022-08-30T12:11:19Z</time>
      </trkpt>
      <trkpt lat="43.37872" lon="-1.47383">
        <ele>55.9</ele>
        <time>2022-08-30T12:11:20Z</time>
      </trkpt>
      <trkpt lat="43.37872" lon="-1.47383">
        <ele>55.9</ele>
        <time>2022-08-30T12:11:21Z</time>
      </trkpt>
      <trkpt lat="43.37872" lon="-1.47383">
        <ele>55.9</ele>
        <time>2022-08-30T12:11:22Z</time>
      </trkpt>
      <trkpt lat="43.37872" lon="-1.47383">
        <ele>55.9</ele>
        <time>2022-08-30T12:11:23Z</time>
      </trkpt>
      <trkpt lat="43.37872" lon="-1.47383">
        <ele>55.9</ele>
        <time>2022-08-30T12:11:24Z</time>
      </trkpt>
      <trkpt lat="43.37872" lon="-1.47383">
        <ele>55.9</ele>
        <time>2022-08-30T12:11:25Z</time>
      </trkpt>
      <trkpt lat="43.37872" lon="-1.47383">
        <ele>55.9</ele>
        <time>2022-08-30T12:11:26Z</time>
      </trkpt>
      <trkpt lat="43.37872" lon="-1.47383">
        <ele>55.9</ele>
        <time>2022-08-30T12:11:27Z</time>
      </trkpt>
      <trkpt lat="43.37872" lon="-1.47383">
        <ele>55.9</ele>
        <time>2022-08-30T12:11:28Z</time>
      </trkpt>
      <trkpt lat="43.37872" lon="-1.47381">
        <ele>55.9</ele>
        <time>2022-08-30T12:11:29Z</time>
      </trkpt>
      <trkpt lat="43.37872" lon="-1.47381">
        <ele>55.9</ele>
        <time>2022-08-30T12:11:30Z</time>
      </trkpt>
      <trkpt lat="43.37872" lon="-1.47382">
        <ele>55.9</ele>
        <time>2022-08-30T12:11:31Z</time>
      </trkpt>
      <trkpt lat="43.37872" lon="-1.47381">
        <ele>55.9</ele>
        <time>2022-08-30T12:11:32Z</time>
      </trkpt>
      <trkpt lat="43.37872" lon="-1.47381">
        <ele>55.9</ele>
        <time>2022-08-30T12:11:33Z</time>
      </trkpt>
      <trkpt lat="43.37872" lon="-1.47381">
        <ele>55.9</ele>
        <time>2022-08-30T12:11:34Z</time>
      </trkpt>
      <trkpt lat="43.37872" lon="-1.47381">
        <ele>55.9</ele>
        <time>2022-08-30T12:11:35Z</time>
      </trkpt>
      <trkpt lat="43.37872" lon="-1.47381">
        <ele>55.9</ele>
        <time>2022-08-30T12:11:36Z</time>
      </trkpt>
      <trkpt lat="43.37872" lon="-1.47381">
        <ele>55.9</ele>
        <time>2022-08-30T12:11:37Z</time>
      </trkpt>
      <trkpt lat="43.37872" lon="-1.47381">
        <ele>55.9</ele>
        <time>2022-08-30T12:11:38Z</time>
      </trkpt>
      <trkpt lat="43.37872" lon="-1.47381">
        <ele>55.9</ele>
        <time>2022-08-30T12:11:39Z</time>
      </trkpt>
      <trkpt lat="43.37872" lon="-1.47381">
        <ele>55.9</ele>
        <time>2022-08-30T12:11:40Z</time>
      </trkpt>
      <trkpt lat="43.37872" lon="-1.47381">
        <ele>55.9</ele>
        <time>2022-08-30T12:11:41Z</time>
      </trkpt>
      <trkpt lat="43.37872" lon="-1.47381">
        <ele>55.9</ele>
        <time>2022-08-30T12:11:42Z</time>
      </trkpt>
      <trkpt lat="43.37872" lon="-1.47381">
        <ele>55.9</ele>
        <time>2022-08-30T12:11:43Z</time>
      </trkpt>
      <trkpt lat="43.37872" lon="-1.47381">
        <ele>55.9</ele>
        <time>2022-08-30T12:11:44Z</time>
      </trkpt>
      <trkpt lat="43.37872" lon="-1.47381">
        <ele>55.9</ele>
        <time>2022-08-30T12:11:45Z</time>
      </trkpt>
      <trkpt lat="43.37872" lon="-1.47381">
        <ele>55.9</ele>
        <time>2022-08-30T12:11:46Z</time>
      </trkpt>
      <trkpt lat="43.37872" lon="-1.47381">
        <ele>55.9</ele>
        <time>2022-08-30T12:11:47Z</time>
      </trkpt>
      <trkpt lat="43.37872" lon="-1.47381">
        <ele>55.9</ele>
        <time>2022-08-30T12:11:48Z</time>
      </trkpt>
      <trkpt lat="43.37872" lon="-1.47381">
        <ele>55.9</ele>
        <time>2022-08-30T12:11:49Z</time>
      </trkpt>
      <trkpt lat="43.37872" lon="-1.47381">
        <ele>55.9</ele>
        <time>2022-08-30T12:11:50Z</time>
      </trkpt>
      <trkpt lat="43.37872" lon="-1.47382">
        <ele>55.9</ele>
        <time>2022-08-30T12:11:51Z</time>
      </trkpt>
      <trkpt lat="43.37872" lon="-1.47382">
        <ele>55.9</ele>
        <time>2022-08-30T12:11:52Z</time>
      </trkpt>
      <trkpt lat="43.37872" lon="-1.47383">
        <ele>55.9</ele>
        <time>2022-08-30T12:11:53Z</time>
      </trkpt>
      <trkpt lat="43.37872" lon="-1.47383">
        <ele>55.9</ele>
        <time>2022-08-30T12:11:54Z</time>
      </trkpt>
      <trkpt lat="43.37871" lon="-1.47384">
        <ele>55.9</ele>
        <time>2022-08-30T12:11:55Z</time>
      </trkpt>
      <trkpt lat="43.37871" lon="-1.47384">
        <ele>55.9</ele>
        <time>2022-08-30T12:11:56Z</time>
      </trkpt>
      <trkpt lat="43.37871" lon="-1.47384">
        <ele>55.9</ele>
        <time>2022-08-30T12:11:57Z</time>
      </trkpt>
      <trkpt lat="43.37871" lon="-1.47384">
        <ele>55.9</ele>
        <time>2022-08-30T12:11:58Z</time>
      </trkpt>
      <trkpt lat="43.3787" lon="-1.47383">
        <ele>55.9</ele>
        <time>2022-08-30T12:11:59Z</time>
      </trkpt>
      <trkpt lat="43.37869" lon="-1.47383">
        <ele>55.9</ele>
        <time>2022-08-30T12:12:00Z</time>
      </trkpt>
      <trkpt lat="43.37869" lon="-1.47383">
        <ele>55.9</ele>
        <time>2022-08-30T12:12:01Z</time>
      </trkpt>
      <trkpt lat="43.37869" lon="-1.47383">
        <ele>55.9</ele>
        <time>2022-08-30T12:12:02Z</time>
      </trkpt>
      <trkpt lat="43.37869" lon="-1.47382">
        <ele>55.9</ele>
        <time>2022-08-30T12:12:03Z</time>
      </trkpt>
      <trkpt lat="43.37869" lon="-1.47383">
        <ele>55.9</ele>
        <time>2022-08-30T12:12:04Z</time>
      </trkpt>
      <trkpt lat="43.37869" lon="-1.47383">
        <ele>55.9</ele>
        <time>2022-08-30T12:12:05Z</time>
      </trkpt>
      <trkpt lat="43.37869" lon="-1.47383">
        <ele>55.9</ele>
        <time>2022-08-30T12:12:06Z</time>
      </trkpt>
      <trkpt lat="43.3787" lon="-1.47383">
        <ele>55.9</ele>
        <time>2022-08-30T12:12:07Z</time>
      </trkpt>
      <trkpt lat="43.3787" lon="-1.47383">
        <ele>55.9</ele>
        <time>2022-08-30T12:12:08Z</time>
      </trkpt>
      <trkpt lat="43.37871" lon="-1.47384">
        <ele>55.9</ele>
        <time>2022-08-30T12:12:09Z</time>
      </trkpt>
      <trkpt lat="43.37871" lon="-1.47385">
        <ele>55.9</ele>
        <time>2022-08-30T12:12:10Z</time>
      </trkpt>
      <trkpt lat="43.37872" lon="-1.47385">
        <ele>55.9</ele>
        <time>2022-08-30T12:12:11Z</time>
      </trkpt>
      <trkpt lat="43.37872" lon="-1.47386">
        <ele>55.9</ele>
        <time>2022-08-30T12:12:12Z</time>
      </trkpt>
      <trkpt lat="43.37872" lon="-1.47387">
        <ele>55.9</ele>
        <time>2022-08-30T12:12:13Z</time>
      </trkpt>
      <trkpt lat="43.37872" lon="-1.47388">
        <ele>55.9</ele>
        <time>2022-08-30T12:12:14Z</time>
      </trkpt>
      <trkpt lat="43.37872" lon="-1.47389">
        <ele>55.9</ele>
        <time>2022-08-30T12:12:15Z</time>
      </trkpt>
      <trkpt lat="43.37872" lon="-1.47389">
        <ele>55.9</ele>
        <time>2022-08-30T12:12:16Z</time>
      </trkpt>
      <trkpt lat="43.37872" lon="-1.47389">
        <ele>55.9</ele>
        <time>2022-08-30T12:12:17Z</time>
      </trkpt>
      <trkpt lat="43.37872" lon="-1.47389">
        <ele>55.9</ele>
        <time>2022-08-30T12:12:18Z</time>
      </trkpt>
      <trkpt lat="43.37872" lon="-1.47388">
        <ele>55.9</ele>
        <time>2022-08-30T12:12:19Z</time>
      </trkpt>
      <trkpt lat="43.37872" lon="-1.47388">
        <ele>55.9</ele>
        <time>2022-08-30T12:12:20Z</time>
      </trkpt>
      <trkpt lat="43.37872" lon="-1.47388">
        <ele>55.9</ele>
        <time>2022-08-30T12:12:21Z</time>
      </trkpt>
      <trkpt lat="43.37872" lon="-1.47388">
        <ele>55.9</ele>
        <time>2022-08-30T12:12:22Z</time>
      </trkpt>
      <trkpt lat="43.37872" lon="-1.47387">
        <ele>55.9</ele>
        <time>2022-08-30T12:12:23Z</time>
      </trkpt>
      <trkpt lat="43.37871" lon="-1.47387">
        <ele>55.9</ele>
        <time>2022-08-30T12:12:24Z</time>
      </trkpt>
      <trkpt lat="43.37871" lon="-1.47387">
        <ele>55.9</ele>
        <time>2022-08-30T12:12:25Z</time>
      </trkpt>
      <trkpt lat="43.37871" lon="-1.47387">
        <ele>55.9</ele>
        <time>2022-08-30T12:12:26Z</time>
      </trkpt>
      <trkpt lat="43.37871" lon="-1.47387">
        <ele>55.9</ele>
        <time>2022-08-30T12:12:27Z</time>
      </trkpt>
      <trkpt lat="43.37871" lon="-1.47387">
        <ele>55.9</ele>
        <time>2022-08-30T12:12:28Z</time>
      </trkpt>
    </trkseg>
  </trk>
</gpx>